<?xml version="1.0" encoding="UTF-8" standalone="no" ?>
<gpx xmlns="http://www.topografix.com/GPX/1/1" xmlns:xsi="http://www.w3.org/2001/XMLSchema-instance" xsi:schemaLocation="http://www.topografix.com/GPX/1/1 http://www.topografix.com/GPX/1/1/gpx.xsd" version="1.1" creator="VisuGPX - https://www.visugpx.com">
  <metadata>
    <name>O-N-Bouaye St Mars Coutais St Pazanne St Hilaire de Chaléon Chéméré La Sicaudais Frossay Canal Martinière</name>
  </metadata>
  <trk>
    <name><![CDATA[2021-03-14 12:58 +01:00]]></name>
    <trkseg>
      <trkpt lat="47.16779" lon="-1.62645">
        <ele>56</ele>
        <time>2021-03-14T11:58:37.000Z</time>
      </trkpt>
      <trkpt lat="47.16778" lon="-1.6266">
        <ele>70</ele>
        <time>2021-03-14T12:01:41.000Z</time>
      </trkpt>
      <trkpt lat="47.16775" lon="-1.62672">
        <ele>70</ele>
        <time>2021-03-14T12:01:43.000Z</time>
      </trkpt>
      <trkpt lat="47.16765" lon="-1.62677">
        <ele>70</ele>
        <time>2021-03-14T12:01:45.000Z</time>
      </trkpt>
      <trkpt lat="47.16755" lon="-1.62671">
        <ele>69</ele>
        <time>2021-03-14T12:01:47.000Z</time>
      </trkpt>
      <trkpt lat="47.16743" lon="-1.62674">
        <ele>69</ele>
        <time>2021-03-14T12:01:49.000Z</time>
      </trkpt>
      <trkpt lat="47.16732" lon="-1.62682">
        <ele>69</ele>
        <time>2021-03-14T12:01:51.000Z</time>
      </trkpt>
      <trkpt lat="47.16722" lon="-1.62689">
        <ele>69</ele>
        <time>2021-03-14T12:01:53.000Z</time>
      </trkpt>
      <trkpt lat="47.1671" lon="-1.62692">
        <ele>69</ele>
        <time>2021-03-14T12:01:56.000Z</time>
      </trkpt>
      <trkpt lat="47.16703" lon="-1.6268">
        <ele>69</ele>
        <time>2021-03-14T12:01:58.000Z</time>
      </trkpt>
      <trkpt lat="47.16699" lon="-1.62665">
        <ele>69</ele>
        <time>2021-03-14T12:02:00.000Z</time>
      </trkpt>
      <trkpt lat="47.16695" lon="-1.62649">
        <ele>69</ele>
        <time>2021-03-14T12:02:02.000Z</time>
      </trkpt>
      <trkpt lat="47.16693" lon="-1.62631">
        <ele>68</ele>
        <time>2021-03-14T12:02:04.000Z</time>
      </trkpt>
      <trkpt lat="47.16692" lon="-1.62612">
        <ele>68</ele>
        <time>2021-03-14T12:02:06.000Z</time>
      </trkpt>
      <trkpt lat="47.16693" lon="-1.62593">
        <ele>68</ele>
        <time>2021-03-14T12:02:08.000Z</time>
      </trkpt>
      <trkpt lat="47.16695" lon="-1.62573">
        <ele>68</ele>
        <time>2021-03-14T12:02:10.000Z</time>
      </trkpt>
      <trkpt lat="47.16696" lon="-1.62553">
        <ele>68</ele>
        <time>2021-03-14T12:02:12.000Z</time>
      </trkpt>
      <trkpt lat="47.16699" lon="-1.62533">
        <ele>67</ele>
        <time>2021-03-14T12:02:14.000Z</time>
      </trkpt>
      <trkpt lat="47.16701" lon="-1.62512">
        <ele>67</ele>
        <time>2021-03-14T12:02:16.000Z</time>
      </trkpt>
      <trkpt lat="47.16705" lon="-1.62492">
        <ele>67</ele>
        <time>2021-03-14T12:02:18.000Z</time>
      </trkpt>
      <trkpt lat="47.16709" lon="-1.62472">
        <ele>66</ele>
        <time>2021-03-14T12:02:20.000Z</time>
      </trkpt>
      <trkpt lat="47.16713" lon="-1.62453">
        <ele>67</ele>
        <time>2021-03-14T12:02:22.000Z</time>
      </trkpt>
      <trkpt lat="47.16715" lon="-1.62434">
        <ele>67</ele>
        <time>2021-03-14T12:02:24.000Z</time>
      </trkpt>
      <trkpt lat="47.16721" lon="-1.62419">
        <ele>67</ele>
        <time>2021-03-14T12:02:26.000Z</time>
      </trkpt>
      <trkpt lat="47.16721" lon="-1.62403">
        <ele>67</ele>
        <time>2021-03-14T12:02:28.000Z</time>
      </trkpt>
      <trkpt lat="47.16712" lon="-1.62392">
        <ele>67</ele>
        <time>2021-03-14T12:02:30.000Z</time>
      </trkpt>
      <trkpt lat="47.16703" lon="-1.62378">
        <ele>68</ele>
        <time>2021-03-14T12:02:32.000Z</time>
      </trkpt>
      <trkpt lat="47.16692" lon="-1.62366">
        <ele>68</ele>
        <time>2021-03-14T12:02:34.000Z</time>
      </trkpt>
      <trkpt lat="47.1668" lon="-1.62361">
        <ele>68</ele>
        <time>2021-03-14T12:02:36.000Z</time>
      </trkpt>
      <trkpt lat="47.16666" lon="-1.6236">
        <ele>68</ele>
        <time>2021-03-14T12:02:38.000Z</time>
      </trkpt>
      <trkpt lat="47.16654" lon="-1.62365">
        <ele>69</ele>
        <time>2021-03-14T12:02:40.000Z</time>
      </trkpt>
      <trkpt lat="47.16642" lon="-1.62374">
        <ele>69</ele>
        <time>2021-03-14T12:02:42.000Z</time>
      </trkpt>
      <trkpt lat="47.16631" lon="-1.62385">
        <ele>69</ele>
        <time>2021-03-14T12:02:44.000Z</time>
      </trkpt>
      <trkpt lat="47.16622" lon="-1.62398">
        <ele>69</ele>
        <time>2021-03-14T12:02:46.000Z</time>
      </trkpt>
      <trkpt lat="47.16614" lon="-1.62412">
        <ele>69</ele>
        <time>2021-03-14T12:02:48.000Z</time>
      </trkpt>
      <trkpt lat="47.16606" lon="-1.62428">
        <ele>70</ele>
        <time>2021-03-14T12:02:50.000Z</time>
      </trkpt>
      <trkpt lat="47.16599" lon="-1.62443">
        <ele>70</ele>
        <time>2021-03-14T12:02:52.000Z</time>
      </trkpt>
      <trkpt lat="47.16592" lon="-1.62458">
        <ele>70</ele>
        <time>2021-03-14T12:02:54.000Z</time>
      </trkpt>
      <trkpt lat="47.16585" lon="-1.62474">
        <ele>71</ele>
        <time>2021-03-14T12:02:56.000Z</time>
      </trkpt>
      <trkpt lat="47.16578" lon="-1.6249">
        <ele>71</ele>
        <time>2021-03-14T12:02:58.000Z</time>
      </trkpt>
      <trkpt lat="47.16572" lon="-1.62506">
        <ele>71</ele>
        <time>2021-03-14T12:03:00.000Z</time>
      </trkpt>
      <trkpt lat="47.16566" lon="-1.62522">
        <ele>72</ele>
        <time>2021-03-14T12:03:02.000Z</time>
      </trkpt>
      <trkpt lat="47.16559" lon="-1.62536">
        <ele>72</ele>
        <time>2021-03-14T12:03:04.000Z</time>
      </trkpt>
      <trkpt lat="47.16549" lon="-1.62548">
        <ele>72</ele>
        <time>2021-03-14T12:03:06.000Z</time>
      </trkpt>
      <trkpt lat="47.16539" lon="-1.62559">
        <ele>72</ele>
        <time>2021-03-14T12:03:08.000Z</time>
      </trkpt>
      <trkpt lat="47.16527" lon="-1.62564">
        <ele>72</ele>
        <time>2021-03-14T12:03:10.000Z</time>
      </trkpt>
      <trkpt lat="47.16514" lon="-1.62561">
        <ele>73</ele>
        <time>2021-03-14T12:03:12.000Z</time>
      </trkpt>
      <trkpt lat="47.16502" lon="-1.62557">
        <ele>73</ele>
        <time>2021-03-14T12:03:14.000Z</time>
      </trkpt>
      <trkpt lat="47.1649" lon="-1.62553">
        <ele>73</ele>
        <time>2021-03-14T12:03:16.000Z</time>
      </trkpt>
      <trkpt lat="47.16478" lon="-1.62549">
        <ele>73</ele>
        <time>2021-03-14T12:03:18.000Z</time>
      </trkpt>
      <trkpt lat="47.16467" lon="-1.62546">
        <ele>73</ele>
        <time>2021-03-14T12:03:20.000Z</time>
      </trkpt>
      <trkpt lat="47.16456" lon="-1.62544">
        <ele>73</ele>
        <time>2021-03-14T12:03:22.000Z</time>
      </trkpt>
      <trkpt lat="47.16445" lon="-1.62541">
        <ele>72</ele>
        <time>2021-03-14T12:03:24.000Z</time>
      </trkpt>
      <trkpt lat="47.16433" lon="-1.6254">
        <ele>72</ele>
        <time>2021-03-14T12:03:26.000Z</time>
      </trkpt>
      <trkpt lat="47.16422" lon="-1.62547">
        <ele>73</ele>
        <time>2021-03-14T12:03:28.000Z</time>
      </trkpt>
      <trkpt lat="47.16412" lon="-1.62557">
        <ele>73</ele>
        <time>2021-03-14T12:03:30.000Z</time>
      </trkpt>
      <trkpt lat="47.16402" lon="-1.62567">
        <ele>72</ele>
        <time>2021-03-14T12:03:32.000Z</time>
      </trkpt>
      <trkpt lat="47.1639" lon="-1.62576">
        <ele>72</ele>
        <time>2021-03-14T12:03:34.000Z</time>
      </trkpt>
      <trkpt lat="47.16378" lon="-1.62582">
        <ele>72</ele>
        <time>2021-03-14T12:03:36.000Z</time>
      </trkpt>
      <trkpt lat="47.16365" lon="-1.62582">
        <ele>72</ele>
        <time>2021-03-14T12:03:38.000Z</time>
      </trkpt>
      <trkpt lat="47.16351" lon="-1.6258">
        <ele>73</ele>
        <time>2021-03-14T12:03:40.000Z</time>
      </trkpt>
      <trkpt lat="47.16338" lon="-1.62575">
        <ele>73</ele>
        <time>2021-03-14T12:03:42.000Z</time>
      </trkpt>
      <trkpt lat="47.16324" lon="-1.62569">
        <ele>72</ele>
        <time>2021-03-14T12:03:44.000Z</time>
      </trkpt>
      <trkpt lat="47.16311" lon="-1.62569">
        <ele>73</ele>
        <time>2021-03-14T12:03:46.000Z</time>
      </trkpt>
      <trkpt lat="47.16299" lon="-1.62576">
        <ele>73</ele>
        <time>2021-03-14T12:03:48.000Z</time>
      </trkpt>
      <trkpt lat="47.1629" lon="-1.62588">
        <ele>73</ele>
        <time>2021-03-14T12:03:50.000Z</time>
      </trkpt>
      <trkpt lat="47.16284" lon="-1.62605">
        <ele>73</ele>
        <time>2021-03-14T12:03:52.000Z</time>
      </trkpt>
      <trkpt lat="47.1628" lon="-1.62623">
        <ele>74</ele>
        <time>2021-03-14T12:03:54.000Z</time>
      </trkpt>
      <trkpt lat="47.16277" lon="-1.6264">
        <ele>73</ele>
        <time>2021-03-14T12:03:56.000Z</time>
      </trkpt>
      <trkpt lat="47.16275" lon="-1.62657">
        <ele>73</ele>
        <time>2021-03-14T12:03:58.000Z</time>
      </trkpt>
      <trkpt lat="47.16274" lon="-1.62675">
        <ele>74</ele>
        <time>2021-03-14T12:04:00.000Z</time>
      </trkpt>
      <trkpt lat="47.16276" lon="-1.62692">
        <ele>74</ele>
        <time>2021-03-14T12:04:02.000Z</time>
      </trkpt>
      <trkpt lat="47.16277" lon="-1.62707">
        <ele>74</ele>
        <time>2021-03-14T12:04:04.000Z</time>
      </trkpt>
      <trkpt lat="47.16279" lon="-1.6272">
        <ele>74</ele>
        <time>2021-03-14T12:04:06.000Z</time>
      </trkpt>
      <trkpt lat="47.1627" lon="-1.62733">
        <ele>74</ele>
        <time>2021-03-14T12:04:09.000Z</time>
      </trkpt>
      <trkpt lat="47.1626" lon="-1.62736">
        <ele>73</ele>
        <time>2021-03-14T12:04:11.000Z</time>
      </trkpt>
      <trkpt lat="47.16248" lon="-1.62742">
        <ele>73</ele>
        <time>2021-03-14T12:04:13.000Z</time>
      </trkpt>
      <trkpt lat="47.16235" lon="-1.62749">
        <ele>73</ele>
        <time>2021-03-14T12:04:15.000Z</time>
      </trkpt>
      <trkpt lat="47.16221" lon="-1.62755">
        <ele>72</ele>
        <time>2021-03-14T12:04:17.000Z</time>
      </trkpt>
      <trkpt lat="47.16207" lon="-1.62763">
        <ele>72</ele>
        <time>2021-03-14T12:04:19.000Z</time>
      </trkpt>
      <trkpt lat="47.16193" lon="-1.62773">
        <ele>71</ele>
        <time>2021-03-14T12:04:21.000Z</time>
      </trkpt>
      <trkpt lat="47.1618" lon="-1.62785">
        <ele>71</ele>
        <time>2021-03-14T12:04:23.000Z</time>
      </trkpt>
      <trkpt lat="47.16167" lon="-1.62798">
        <ele>70</ele>
        <time>2021-03-14T12:04:25.000Z</time>
      </trkpt>
      <trkpt lat="47.16153" lon="-1.62809">
        <ele>69</ele>
        <time>2021-03-14T12:04:27.000Z</time>
      </trkpt>
      <trkpt lat="47.1614" lon="-1.62821">
        <ele>69</ele>
        <time>2021-03-14T12:04:29.000Z</time>
      </trkpt>
      <trkpt lat="47.16126" lon="-1.62833">
        <ele>68</ele>
        <time>2021-03-14T12:04:31.000Z</time>
      </trkpt>
      <trkpt lat="47.16113" lon="-1.62844">
        <ele>68</ele>
        <time>2021-03-14T12:04:33.000Z</time>
      </trkpt>
      <trkpt lat="47.161" lon="-1.62856">
        <ele>68</ele>
        <time>2021-03-14T12:04:35.000Z</time>
      </trkpt>
      <trkpt lat="47.16087" lon="-1.62868">
        <ele>68</ele>
        <time>2021-03-14T12:04:37.000Z</time>
      </trkpt>
      <trkpt lat="47.16073" lon="-1.62879">
        <ele>67</ele>
        <time>2021-03-14T12:04:39.000Z</time>
      </trkpt>
      <trkpt lat="47.1606" lon="-1.62891">
        <ele>67</ele>
        <time>2021-03-14T12:04:41.000Z</time>
      </trkpt>
      <trkpt lat="47.16047" lon="-1.62903">
        <ele>67</ele>
        <time>2021-03-14T12:04:43.000Z</time>
      </trkpt>
      <trkpt lat="47.16033" lon="-1.62916">
        <ele>66</ele>
        <time>2021-03-14T12:04:45.000Z</time>
      </trkpt>
      <trkpt lat="47.16019" lon="-1.62928">
        <ele>66</ele>
        <time>2021-03-14T12:04:47.000Z</time>
      </trkpt>
      <trkpt lat="47.16005" lon="-1.6294">
        <ele>66</ele>
        <time>2021-03-14T12:04:49.000Z</time>
      </trkpt>
      <trkpt lat="47.15991" lon="-1.62952">
        <ele>65</ele>
        <time>2021-03-14T12:04:51.000Z</time>
      </trkpt>
      <trkpt lat="47.15977" lon="-1.62965">
        <ele>65</ele>
        <time>2021-03-14T12:04:53.000Z</time>
      </trkpt>
      <trkpt lat="47.15963" lon="-1.62978">
        <ele>64</ele>
        <time>2021-03-14T12:04:55.000Z</time>
      </trkpt>
      <trkpt lat="47.15948" lon="-1.6299">
        <ele>63</ele>
        <time>2021-03-14T12:04:57.000Z</time>
      </trkpt>
      <trkpt lat="47.15933" lon="-1.63003">
        <ele>63</ele>
        <time>2021-03-14T12:04:59.000Z</time>
      </trkpt>
      <trkpt lat="47.15918" lon="-1.63016">
        <ele>63</ele>
        <time>2021-03-14T12:05:01.000Z</time>
      </trkpt>
      <trkpt lat="47.15904" lon="-1.63029">
        <ele>63</ele>
        <time>2021-03-14T12:05:03.000Z</time>
      </trkpt>
      <trkpt lat="47.1589" lon="-1.63042">
        <ele>62</ele>
        <time>2021-03-14T12:05:05.000Z</time>
      </trkpt>
      <trkpt lat="47.15876" lon="-1.63054">
        <ele>63</ele>
        <time>2021-03-14T12:05:07.000Z</time>
      </trkpt>
      <trkpt lat="47.15862" lon="-1.63066">
        <ele>63</ele>
        <time>2021-03-14T12:05:09.000Z</time>
      </trkpt>
      <trkpt lat="47.15849" lon="-1.63077">
        <ele>64</ele>
        <time>2021-03-14T12:05:11.000Z</time>
      </trkpt>
      <trkpt lat="47.15837" lon="-1.63088">
        <ele>65</ele>
        <time>2021-03-14T12:05:13.000Z</time>
      </trkpt>
      <trkpt lat="47.15824" lon="-1.63099">
        <ele>65</ele>
        <time>2021-03-14T12:05:15.000Z</time>
      </trkpt>
      <trkpt lat="47.15812" lon="-1.6311">
        <ele>66</ele>
        <time>2021-03-14T12:05:17.000Z</time>
      </trkpt>
      <trkpt lat="47.15799" lon="-1.63121">
        <ele>66</ele>
        <time>2021-03-14T12:05:19.000Z</time>
      </trkpt>
      <trkpt lat="47.15787" lon="-1.63131">
        <ele>67</ele>
        <time>2021-03-14T12:05:21.000Z</time>
      </trkpt>
      <trkpt lat="47.15774" lon="-1.63143">
        <ele>67</ele>
        <time>2021-03-14T12:05:23.000Z</time>
      </trkpt>
      <trkpt lat="47.15762" lon="-1.63154">
        <ele>67</ele>
        <time>2021-03-14T12:05:25.000Z</time>
      </trkpt>
      <trkpt lat="47.1575" lon="-1.63165">
        <ele>66</ele>
        <time>2021-03-14T12:05:27.000Z</time>
      </trkpt>
      <trkpt lat="47.15738" lon="-1.63176">
        <ele>66</ele>
        <time>2021-03-14T12:05:29.000Z</time>
      </trkpt>
      <trkpt lat="47.15725" lon="-1.63187">
        <ele>66</ele>
        <time>2021-03-14T12:05:31.000Z</time>
      </trkpt>
      <trkpt lat="47.15713" lon="-1.63199">
        <ele>66</ele>
        <time>2021-03-14T12:05:33.000Z</time>
      </trkpt>
      <trkpt lat="47.157" lon="-1.63209">
        <ele>66</ele>
        <time>2021-03-14T12:05:35.000Z</time>
      </trkpt>
      <trkpt lat="47.15688" lon="-1.6322">
        <ele>66</ele>
        <time>2021-03-14T12:05:37.000Z</time>
      </trkpt>
      <trkpt lat="47.15676" lon="-1.63231">
        <ele>66</ele>
        <time>2021-03-14T12:05:39.000Z</time>
      </trkpt>
      <trkpt lat="47.15663" lon="-1.63242">
        <ele>66</ele>
        <time>2021-03-14T12:05:41.000Z</time>
      </trkpt>
      <trkpt lat="47.15651" lon="-1.63252">
        <ele>66</ele>
        <time>2021-03-14T12:05:43.000Z</time>
      </trkpt>
      <trkpt lat="47.15639" lon="-1.63263">
        <ele>66</ele>
        <time>2021-03-14T12:05:45.000Z</time>
      </trkpt>
      <trkpt lat="47.15626" lon="-1.63275">
        <ele>66</ele>
        <time>2021-03-14T12:05:47.000Z</time>
      </trkpt>
      <trkpt lat="47.15613" lon="-1.63286">
        <ele>66</ele>
        <time>2021-03-14T12:05:49.000Z</time>
      </trkpt>
      <trkpt lat="47.15601" lon="-1.63297">
        <ele>66</ele>
        <time>2021-03-14T12:05:51.000Z</time>
      </trkpt>
      <trkpt lat="47.15589" lon="-1.63309">
        <ele>66</ele>
        <time>2021-03-14T12:05:53.000Z</time>
      </trkpt>
      <trkpt lat="47.15577" lon="-1.63319">
        <ele>66</ele>
        <time>2021-03-14T12:05:55.000Z</time>
      </trkpt>
      <trkpt lat="47.15565" lon="-1.6333">
        <ele>66</ele>
        <time>2021-03-14T12:05:57.000Z</time>
      </trkpt>
      <trkpt lat="47.15553" lon="-1.6334">
        <ele>67</ele>
        <time>2021-03-14T12:05:59.000Z</time>
      </trkpt>
      <trkpt lat="47.15542" lon="-1.63351">
        <ele>67</ele>
        <time>2021-03-14T12:06:01.000Z</time>
      </trkpt>
      <trkpt lat="47.1553" lon="-1.63361">
        <ele>67</ele>
        <time>2021-03-14T12:06:03.000Z</time>
      </trkpt>
      <trkpt lat="47.15519" lon="-1.63371">
        <ele>68</ele>
        <time>2021-03-14T12:06:05.000Z</time>
      </trkpt>
      <trkpt lat="47.15508" lon="-1.63381">
        <ele>68</ele>
        <time>2021-03-14T12:06:07.000Z</time>
      </trkpt>
      <trkpt lat="47.15497" lon="-1.63391">
        <ele>68</ele>
        <time>2021-03-14T12:06:09.000Z</time>
      </trkpt>
      <trkpt lat="47.15486" lon="-1.63401">
        <ele>68</ele>
        <time>2021-03-14T12:06:11.000Z</time>
      </trkpt>
      <trkpt lat="47.15474" lon="-1.63412">
        <ele>69</ele>
        <time>2021-03-14T12:06:13.000Z</time>
      </trkpt>
      <trkpt lat="47.15463" lon="-1.63422">
        <ele>69</ele>
        <time>2021-03-14T12:06:15.000Z</time>
      </trkpt>
      <trkpt lat="47.15452" lon="-1.63433">
        <ele>69</ele>
        <time>2021-03-14T12:06:17.000Z</time>
      </trkpt>
      <trkpt lat="47.15441" lon="-1.63443">
        <ele>69</ele>
        <time>2021-03-14T12:06:19.000Z</time>
      </trkpt>
      <trkpt lat="47.1543" lon="-1.63454">
        <ele>70</ele>
        <time>2021-03-14T12:06:21.000Z</time>
      </trkpt>
      <trkpt lat="47.15419" lon="-1.63464">
        <ele>71</ele>
        <time>2021-03-14T12:06:23.000Z</time>
      </trkpt>
      <trkpt lat="47.15408" lon="-1.63474">
        <ele>71</ele>
        <time>2021-03-14T12:06:25.000Z</time>
      </trkpt>
      <trkpt lat="47.15399" lon="-1.63486">
        <ele>71</ele>
        <time>2021-03-14T12:06:27.000Z</time>
      </trkpt>
      <trkpt lat="47.1539" lon="-1.63497">
        <ele>71</ele>
        <time>2021-03-14T12:06:29.000Z</time>
      </trkpt>
      <trkpt lat="47.1538" lon="-1.63506">
        <ele>71</ele>
        <time>2021-03-14T12:06:31.000Z</time>
      </trkpt>
      <trkpt lat="47.15369" lon="-1.63511">
        <ele>71</ele>
        <time>2021-03-14T12:06:33.000Z</time>
      </trkpt>
      <trkpt lat="47.15358" lon="-1.6352">
        <ele>71</ele>
        <time>2021-03-14T12:06:35.000Z</time>
      </trkpt>
      <trkpt lat="47.15348" lon="-1.63531">
        <ele>71</ele>
        <time>2021-03-14T12:06:37.000Z</time>
      </trkpt>
      <trkpt lat="47.15338" lon="-1.6354">
        <ele>71</ele>
        <time>2021-03-14T12:06:39.000Z</time>
      </trkpt>
      <trkpt lat="47.15327" lon="-1.6355">
        <ele>71</ele>
        <time>2021-03-14T12:06:41.000Z</time>
      </trkpt>
      <trkpt lat="47.15315" lon="-1.63558">
        <ele>71</ele>
        <time>2021-03-14T12:06:43.000Z</time>
      </trkpt>
      <trkpt lat="47.15304" lon="-1.63565">
        <ele>71</ele>
        <time>2021-03-14T12:06:45.000Z</time>
      </trkpt>
      <trkpt lat="47.15293" lon="-1.63575">
        <ele>71</ele>
        <time>2021-03-14T12:06:47.000Z</time>
      </trkpt>
      <trkpt lat="47.15282" lon="-1.63585">
        <ele>71</ele>
        <time>2021-03-14T12:06:49.000Z</time>
      </trkpt>
      <trkpt lat="47.1527" lon="-1.63595">
        <ele>71</ele>
        <time>2021-03-14T12:06:51.000Z</time>
      </trkpt>
      <trkpt lat="47.15259" lon="-1.63604">
        <ele>71</ele>
        <time>2021-03-14T12:06:53.000Z</time>
      </trkpt>
      <trkpt lat="47.15247" lon="-1.63614">
        <ele>71</ele>
        <time>2021-03-14T12:06:55.000Z</time>
      </trkpt>
      <trkpt lat="47.15236" lon="-1.63624">
        <ele>71</ele>
        <time>2021-03-14T12:06:57.000Z</time>
      </trkpt>
      <trkpt lat="47.15224" lon="-1.63634">
        <ele>71</ele>
        <time>2021-03-14T12:06:59.000Z</time>
      </trkpt>
      <trkpt lat="47.15212" lon="-1.63644">
        <ele>71</ele>
        <time>2021-03-14T12:07:01.000Z</time>
      </trkpt>
      <trkpt lat="47.152" lon="-1.63654">
        <ele>71</ele>
        <time>2021-03-14T12:07:03.000Z</time>
      </trkpt>
      <trkpt lat="47.15189" lon="-1.63664">
        <ele>71</ele>
        <time>2021-03-14T12:07:05.000Z</time>
      </trkpt>
      <trkpt lat="47.15177" lon="-1.63675">
        <ele>71</ele>
        <time>2021-03-14T12:07:07.000Z</time>
      </trkpt>
      <trkpt lat="47.15166" lon="-1.63685">
        <ele>70</ele>
        <time>2021-03-14T12:07:09.000Z</time>
      </trkpt>
      <trkpt lat="47.15154" lon="-1.63696">
        <ele>70</ele>
        <time>2021-03-14T12:07:11.000Z</time>
      </trkpt>
      <trkpt lat="47.15143" lon="-1.63707">
        <ele>70</ele>
        <time>2021-03-14T12:07:13.000Z</time>
      </trkpt>
      <trkpt lat="47.15131" lon="-1.63718">
        <ele>71</ele>
        <time>2021-03-14T12:07:15.000Z</time>
      </trkpt>
      <trkpt lat="47.1512" lon="-1.6373">
        <ele>71</ele>
        <time>2021-03-14T12:07:17.000Z</time>
      </trkpt>
      <trkpt lat="47.15109" lon="-1.63742">
        <ele>71</ele>
        <time>2021-03-14T12:07:19.000Z</time>
      </trkpt>
      <trkpt lat="47.15098" lon="-1.63754">
        <ele>71</ele>
        <time>2021-03-14T12:07:21.000Z</time>
      </trkpt>
      <trkpt lat="47.15087" lon="-1.63766">
        <ele>71</ele>
        <time>2021-03-14T12:07:23.000Z</time>
      </trkpt>
      <trkpt lat="47.15076" lon="-1.6378">
        <ele>71</ele>
        <time>2021-03-14T12:07:25.000Z</time>
      </trkpt>
      <trkpt lat="47.15065" lon="-1.63793">
        <ele>71</ele>
        <time>2021-03-14T12:07:27.000Z</time>
      </trkpt>
      <trkpt lat="47.15054" lon="-1.63806">
        <ele>71</ele>
        <time>2021-03-14T12:07:29.000Z</time>
      </trkpt>
      <trkpt lat="47.15044" lon="-1.6382">
        <ele>72</ele>
        <time>2021-03-14T12:07:31.000Z</time>
      </trkpt>
      <trkpt lat="47.15034" lon="-1.63833">
        <ele>71</ele>
        <time>2021-03-14T12:07:33.000Z</time>
      </trkpt>
      <trkpt lat="47.15024" lon="-1.63847">
        <ele>71</ele>
        <time>2021-03-14T12:07:35.000Z</time>
      </trkpt>
      <trkpt lat="47.15014" lon="-1.63862">
        <ele>71</ele>
        <time>2021-03-14T12:07:37.000Z</time>
      </trkpt>
      <trkpt lat="47.15005" lon="-1.63876">
        <ele>72</ele>
        <time>2021-03-14T12:07:39.000Z</time>
      </trkpt>
      <trkpt lat="47.14996" lon="-1.6389">
        <ele>72</ele>
        <time>2021-03-14T12:07:41.000Z</time>
      </trkpt>
      <trkpt lat="47.14987" lon="-1.63904">
        <ele>72</ele>
        <time>2021-03-14T12:07:43.000Z</time>
      </trkpt>
      <trkpt lat="47.14978" lon="-1.63918">
        <ele>72</ele>
        <time>2021-03-14T12:07:45.000Z</time>
      </trkpt>
      <trkpt lat="47.14969" lon="-1.63933">
        <ele>71</ele>
        <time>2021-03-14T12:07:47.000Z</time>
      </trkpt>
      <trkpt lat="47.1496" lon="-1.63948">
        <ele>71</ele>
        <time>2021-03-14T12:07:49.000Z</time>
      </trkpt>
      <trkpt lat="47.14952" lon="-1.63964">
        <ele>71</ele>
        <time>2021-03-14T12:07:51.000Z</time>
      </trkpt>
      <trkpt lat="47.14943" lon="-1.63979">
        <ele>71</ele>
        <time>2021-03-14T12:07:53.000Z</time>
      </trkpt>
      <trkpt lat="47.14934" lon="-1.63995">
        <ele>71</ele>
        <time>2021-03-14T12:07:55.000Z</time>
      </trkpt>
      <trkpt lat="47.14926" lon="-1.64011">
        <ele>71</ele>
        <time>2021-03-14T12:07:57.000Z</time>
      </trkpt>
      <trkpt lat="47.14918" lon="-1.64026">
        <ele>71</ele>
        <time>2021-03-14T12:07:59.000Z</time>
      </trkpt>
      <trkpt lat="47.1491" lon="-1.64041">
        <ele>71</ele>
        <time>2021-03-14T12:08:01.000Z</time>
      </trkpt>
      <trkpt lat="47.14903" lon="-1.64057">
        <ele>71</ele>
        <time>2021-03-14T12:08:03.000Z</time>
      </trkpt>
      <trkpt lat="47.14895" lon="-1.64073">
        <ele>72</ele>
        <time>2021-03-14T12:08:05.000Z</time>
      </trkpt>
      <trkpt lat="47.14888" lon="-1.6409">
        <ele>72</ele>
        <time>2021-03-14T12:08:07.000Z</time>
      </trkpt>
      <trkpt lat="47.14881" lon="-1.64106">
        <ele>72</ele>
        <time>2021-03-14T12:08:09.000Z</time>
      </trkpt>
      <trkpt lat="47.14873" lon="-1.64124">
        <ele>72</ele>
        <time>2021-03-14T12:08:11.000Z</time>
      </trkpt>
      <trkpt lat="47.14866" lon="-1.64142">
        <ele>72</ele>
        <time>2021-03-14T12:08:13.000Z</time>
      </trkpt>
      <trkpt lat="47.14859" lon="-1.64159">
        <ele>72</ele>
        <time>2021-03-14T12:08:15.000Z</time>
      </trkpt>
      <trkpt lat="47.14853" lon="-1.64177">
        <ele>72</ele>
        <time>2021-03-14T12:08:17.000Z</time>
      </trkpt>
      <trkpt lat="47.14847" lon="-1.64195">
        <ele>72</ele>
        <time>2021-03-14T12:08:19.000Z</time>
      </trkpt>
      <trkpt lat="47.14841" lon="-1.64212">
        <ele>72</ele>
        <time>2021-03-14T12:08:21.000Z</time>
      </trkpt>
      <trkpt lat="47.14835" lon="-1.6423">
        <ele>72</ele>
        <time>2021-03-14T12:08:23.000Z</time>
      </trkpt>
      <trkpt lat="47.1483" lon="-1.64247">
        <ele>72</ele>
        <time>2021-03-14T12:08:25.000Z</time>
      </trkpt>
      <trkpt lat="47.14824" lon="-1.64265">
        <ele>72</ele>
        <time>2021-03-14T12:08:27.000Z</time>
      </trkpt>
      <trkpt lat="47.14819" lon="-1.64283">
        <ele>72</ele>
        <time>2021-03-14T12:08:29.000Z</time>
      </trkpt>
      <trkpt lat="47.14814" lon="-1.64302">
        <ele>72</ele>
        <time>2021-03-14T12:08:31.000Z</time>
      </trkpt>
      <trkpt lat="47.14809" lon="-1.6432">
        <ele>72</ele>
        <time>2021-03-14T12:08:33.000Z</time>
      </trkpt>
      <trkpt lat="47.14804" lon="-1.64339">
        <ele>73</ele>
        <time>2021-03-14T12:08:35.000Z</time>
      </trkpt>
      <trkpt lat="47.148" lon="-1.64357">
        <ele>73</ele>
        <time>2021-03-14T12:08:37.000Z</time>
      </trkpt>
      <trkpt lat="47.14796" lon="-1.64376">
        <ele>73</ele>
        <time>2021-03-14T12:08:39.000Z</time>
      </trkpt>
      <trkpt lat="47.14791" lon="-1.64394">
        <ele>73</ele>
        <time>2021-03-14T12:08:41.000Z</time>
      </trkpt>
      <trkpt lat="47.14788" lon="-1.64412">
        <ele>73</ele>
        <time>2021-03-14T12:08:43.000Z</time>
      </trkpt>
      <trkpt lat="47.14784" lon="-1.64431">
        <ele>74</ele>
        <time>2021-03-14T12:08:45.000Z</time>
      </trkpt>
      <trkpt lat="47.1478" lon="-1.64449">
        <ele>73</ele>
        <time>2021-03-14T12:08:47.000Z</time>
      </trkpt>
      <trkpt lat="47.14777" lon="-1.64467">
        <ele>73</ele>
        <time>2021-03-14T12:08:49.000Z</time>
      </trkpt>
      <trkpt lat="47.14774" lon="-1.64485">
        <ele>73</ele>
        <time>2021-03-14T12:08:51.000Z</time>
      </trkpt>
      <trkpt lat="47.14771" lon="-1.64504">
        <ele>72</ele>
        <time>2021-03-14T12:08:53.000Z</time>
      </trkpt>
      <trkpt lat="47.14768" lon="-1.64522">
        <ele>72</ele>
        <time>2021-03-14T12:08:55.000Z</time>
      </trkpt>
      <trkpt lat="47.14765" lon="-1.64541">
        <ele>71</ele>
        <time>2021-03-14T12:08:57.000Z</time>
      </trkpt>
      <trkpt lat="47.14762" lon="-1.6456">
        <ele>71</ele>
        <time>2021-03-14T12:08:59.000Z</time>
      </trkpt>
      <trkpt lat="47.14758" lon="-1.64579">
        <ele>71</ele>
        <time>2021-03-14T12:09:01.000Z</time>
      </trkpt>
      <trkpt lat="47.14755" lon="-1.64597">
        <ele>72</ele>
        <time>2021-03-14T12:09:03.000Z</time>
      </trkpt>
      <trkpt lat="47.14753" lon="-1.64616">
        <ele>72</ele>
        <time>2021-03-14T12:09:05.000Z</time>
      </trkpt>
      <trkpt lat="47.1475" lon="-1.64634">
        <ele>71</ele>
        <time>2021-03-14T12:09:07.000Z</time>
      </trkpt>
      <trkpt lat="47.14747" lon="-1.64652">
        <ele>71</ele>
        <time>2021-03-14T12:09:09.000Z</time>
      </trkpt>
      <trkpt lat="47.14745" lon="-1.64671">
        <ele>71</ele>
        <time>2021-03-14T12:09:11.000Z</time>
      </trkpt>
      <trkpt lat="47.14741" lon="-1.64689">
        <ele>71</ele>
        <time>2021-03-14T12:09:13.000Z</time>
      </trkpt>
      <trkpt lat="47.14738" lon="-1.64707">
        <ele>70</ele>
        <time>2021-03-14T12:09:15.000Z</time>
      </trkpt>
      <trkpt lat="47.14734" lon="-1.64726">
        <ele>70</ele>
        <time>2021-03-14T12:09:17.000Z</time>
      </trkpt>
      <trkpt lat="47.1473" lon="-1.64745">
        <ele>70</ele>
        <time>2021-03-14T12:09:19.000Z</time>
      </trkpt>
      <trkpt lat="47.14726" lon="-1.64763">
        <ele>69</ele>
        <time>2021-03-14T12:09:21.000Z</time>
      </trkpt>
      <trkpt lat="47.14721" lon="-1.64782">
        <ele>69</ele>
        <time>2021-03-14T12:09:23.000Z</time>
      </trkpt>
      <trkpt lat="47.14716" lon="-1.64801">
        <ele>68</ele>
        <time>2021-03-14T12:09:25.000Z</time>
      </trkpt>
      <trkpt lat="47.14711" lon="-1.6482">
        <ele>68</ele>
        <time>2021-03-14T12:09:27.000Z</time>
      </trkpt>
      <trkpt lat="47.14705" lon="-1.6484">
        <ele>68</ele>
        <time>2021-03-14T12:09:29.000Z</time>
      </trkpt>
      <trkpt lat="47.147" lon="-1.6486">
        <ele>67</ele>
        <time>2021-03-14T12:09:31.000Z</time>
      </trkpt>
      <trkpt lat="47.14697" lon="-1.6488">
        <ele>67</ele>
        <time>2021-03-14T12:09:33.000Z</time>
      </trkpt>
      <trkpt lat="47.14699" lon="-1.64899">
        <ele>67</ele>
        <time>2021-03-14T12:09:35.000Z</time>
      </trkpt>
      <trkpt lat="47.14698" lon="-1.64915">
        <ele>66</ele>
        <time>2021-03-14T12:09:37.000Z</time>
      </trkpt>
      <trkpt lat="47.14693" lon="-1.6493">
        <ele>66</ele>
        <time>2021-03-14T12:09:39.000Z</time>
      </trkpt>
      <trkpt lat="47.14683" lon="-1.64937">
        <ele>66</ele>
        <time>2021-03-14T12:09:41.000Z</time>
      </trkpt>
      <trkpt lat="47.14673" lon="-1.64947">
        <ele>66</ele>
        <time>2021-03-14T12:09:43.000Z</time>
      </trkpt>
      <trkpt lat="47.14667" lon="-1.64964">
        <ele>66</ele>
        <time>2021-03-14T12:09:45.000Z</time>
      </trkpt>
      <trkpt lat="47.1466" lon="-1.64982">
        <ele>66</ele>
        <time>2021-03-14T12:09:47.000Z</time>
      </trkpt>
      <trkpt lat="47.14653" lon="-1.65001">
        <ele>65</ele>
        <time>2021-03-14T12:09:49.000Z</time>
      </trkpt>
      <trkpt lat="47.14646" lon="-1.65019">
        <ele>65</ele>
        <time>2021-03-14T12:09:51.000Z</time>
      </trkpt>
      <trkpt lat="47.14639" lon="-1.65038">
        <ele>65</ele>
        <time>2021-03-14T12:09:53.000Z</time>
      </trkpt>
      <trkpt lat="47.14632" lon="-1.65056">
        <ele>65</ele>
        <time>2021-03-14T12:09:55.000Z</time>
      </trkpt>
      <trkpt lat="47.14625" lon="-1.65074">
        <ele>65</ele>
        <time>2021-03-14T12:09:57.000Z</time>
      </trkpt>
      <trkpt lat="47.14617" lon="-1.65092">
        <ele>65</ele>
        <time>2021-03-14T12:09:59.000Z</time>
      </trkpt>
      <trkpt lat="47.14611" lon="-1.65111">
        <ele>65</ele>
        <time>2021-03-14T12:10:01.000Z</time>
      </trkpt>
      <trkpt lat="47.14604" lon="-1.65129">
        <ele>65</ele>
        <time>2021-03-14T12:10:03.000Z</time>
      </trkpt>
      <trkpt lat="47.14597" lon="-1.65148">
        <ele>65</ele>
        <time>2021-03-14T12:10:05.000Z</time>
      </trkpt>
      <trkpt lat="47.14591" lon="-1.65168">
        <ele>65</ele>
        <time>2021-03-14T12:10:07.000Z</time>
      </trkpt>
      <trkpt lat="47.14586" lon="-1.65188">
        <ele>64</ele>
        <time>2021-03-14T12:10:09.000Z</time>
      </trkpt>
      <trkpt lat="47.1458" lon="-1.65208">
        <ele>64</ele>
        <time>2021-03-14T12:10:11.000Z</time>
      </trkpt>
      <trkpt lat="47.14575" lon="-1.65228">
        <ele>64</ele>
        <time>2021-03-14T12:10:13.000Z</time>
      </trkpt>
      <trkpt lat="47.14571" lon="-1.65248">
        <ele>63</ele>
        <time>2021-03-14T12:10:15.000Z</time>
      </trkpt>
      <trkpt lat="47.14566" lon="-1.65268">
        <ele>64</ele>
        <time>2021-03-14T12:10:17.000Z</time>
      </trkpt>
      <trkpt lat="47.14561" lon="-1.65288">
        <ele>64</ele>
        <time>2021-03-14T12:10:19.000Z</time>
      </trkpt>
      <trkpt lat="47.14557" lon="-1.65308">
        <ele>64</ele>
        <time>2021-03-14T12:10:21.000Z</time>
      </trkpt>
      <trkpt lat="47.14553" lon="-1.65327">
        <ele>64</ele>
        <time>2021-03-14T12:10:23.000Z</time>
      </trkpt>
      <trkpt lat="47.14548" lon="-1.65346">
        <ele>64</ele>
        <time>2021-03-14T12:10:25.000Z</time>
      </trkpt>
      <trkpt lat="47.14544" lon="-1.65366">
        <ele>64</ele>
        <time>2021-03-14T12:10:27.000Z</time>
      </trkpt>
      <trkpt lat="47.14539" lon="-1.65384">
        <ele>64</ele>
        <time>2021-03-14T12:10:29.000Z</time>
      </trkpt>
      <trkpt lat="47.14534" lon="-1.65403">
        <ele>64</ele>
        <time>2021-03-14T12:10:31.000Z</time>
      </trkpt>
      <trkpt lat="47.14528" lon="-1.65422">
        <ele>64</ele>
        <time>2021-03-14T12:10:33.000Z</time>
      </trkpt>
      <trkpt lat="47.14523" lon="-1.65441">
        <ele>64</ele>
        <time>2021-03-14T12:10:35.000Z</time>
      </trkpt>
      <trkpt lat="47.14516" lon="-1.65459">
        <ele>64</ele>
        <time>2021-03-14T12:10:37.000Z</time>
      </trkpt>
      <trkpt lat="47.14509" lon="-1.65476">
        <ele>64</ele>
        <time>2021-03-14T12:10:39.000Z</time>
      </trkpt>
      <trkpt lat="47.14502" lon="-1.65494">
        <ele>64</ele>
        <time>2021-03-14T12:10:41.000Z</time>
      </trkpt>
      <trkpt lat="47.14495" lon="-1.65511">
        <ele>64</ele>
        <time>2021-03-14T12:10:43.000Z</time>
      </trkpt>
      <trkpt lat="47.14488" lon="-1.65529">
        <ele>64</ele>
        <time>2021-03-14T12:10:45.000Z</time>
      </trkpt>
      <trkpt lat="47.14482" lon="-1.65548">
        <ele>64</ele>
        <time>2021-03-14T12:10:47.000Z</time>
      </trkpt>
      <trkpt lat="47.14474" lon="-1.65566">
        <ele>64</ele>
        <time>2021-03-14T12:10:49.000Z</time>
      </trkpt>
      <trkpt lat="47.14466" lon="-1.65584">
        <ele>64</ele>
        <time>2021-03-14T12:10:51.000Z</time>
      </trkpt>
      <trkpt lat="47.14459" lon="-1.65603">
        <ele>63</ele>
        <time>2021-03-14T12:10:53.000Z</time>
      </trkpt>
      <trkpt lat="47.14452" lon="-1.65622">
        <ele>63</ele>
        <time>2021-03-14T12:10:55.000Z</time>
      </trkpt>
      <trkpt lat="47.14445" lon="-1.65641">
        <ele>63</ele>
        <time>2021-03-14T12:10:57.000Z</time>
      </trkpt>
      <trkpt lat="47.14439" lon="-1.6566">
        <ele>63</ele>
        <time>2021-03-14T12:10:59.000Z</time>
      </trkpt>
      <trkpt lat="47.14433" lon="-1.65679">
        <ele>63</ele>
        <time>2021-03-14T12:11:01.000Z</time>
      </trkpt>
      <trkpt lat="47.14428" lon="-1.65699">
        <ele>63</ele>
        <time>2021-03-14T12:11:03.000Z</time>
      </trkpt>
      <trkpt lat="47.14424" lon="-1.65718">
        <ele>63</ele>
        <time>2021-03-14T12:11:05.000Z</time>
      </trkpt>
      <trkpt lat="47.1442" lon="-1.65737">
        <ele>63</ele>
        <time>2021-03-14T12:11:07.000Z</time>
      </trkpt>
      <trkpt lat="47.14416" lon="-1.65756">
        <ele>64</ele>
        <time>2021-03-14T12:11:09.000Z</time>
      </trkpt>
      <trkpt lat="47.14413" lon="-1.65775">
        <ele>64</ele>
        <time>2021-03-14T12:11:11.000Z</time>
      </trkpt>
      <trkpt lat="47.1441" lon="-1.65793">
        <ele>64</ele>
        <time>2021-03-14T12:11:13.000Z</time>
      </trkpt>
      <trkpt lat="47.14408" lon="-1.65811">
        <ele>64</ele>
        <time>2021-03-14T12:11:15.000Z</time>
      </trkpt>
      <trkpt lat="47.14406" lon="-1.6583">
        <ele>63</ele>
        <time>2021-03-14T12:11:17.000Z</time>
      </trkpt>
      <trkpt lat="47.14405" lon="-1.65848">
        <ele>63</ele>
        <time>2021-03-14T12:11:19.000Z</time>
      </trkpt>
      <trkpt lat="47.14404" lon="-1.65866">
        <ele>63</ele>
        <time>2021-03-14T12:11:21.000Z</time>
      </trkpt>
      <trkpt lat="47.14403" lon="-1.65884">
        <ele>64</ele>
        <time>2021-03-14T12:11:23.000Z</time>
      </trkpt>
      <trkpt lat="47.14402" lon="-1.65902">
        <ele>64</ele>
        <time>2021-03-14T12:11:25.000Z</time>
      </trkpt>
      <trkpt lat="47.14401" lon="-1.65918">
        <ele>64</ele>
        <time>2021-03-14T12:11:27.000Z</time>
      </trkpt>
      <trkpt lat="47.144" lon="-1.65934">
        <ele>64</ele>
        <time>2021-03-14T12:11:29.000Z</time>
      </trkpt>
      <trkpt lat="47.14399" lon="-1.65949">
        <ele>64</ele>
        <time>2021-03-14T12:11:31.000Z</time>
      </trkpt>
      <trkpt lat="47.14398" lon="-1.65965">
        <ele>64</ele>
        <time>2021-03-14T12:11:33.000Z</time>
      </trkpt>
      <trkpt lat="47.14398" lon="-1.65982">
        <ele>64</ele>
        <time>2021-03-14T12:11:35.000Z</time>
      </trkpt>
      <trkpt lat="47.14398" lon="-1.65998">
        <ele>64</ele>
        <time>2021-03-14T12:11:37.000Z</time>
      </trkpt>
      <trkpt lat="47.14397" lon="-1.66014">
        <ele>64</ele>
        <time>2021-03-14T12:11:39.000Z</time>
      </trkpt>
      <trkpt lat="47.14397" lon="-1.66031">
        <ele>64</ele>
        <time>2021-03-14T12:11:41.000Z</time>
      </trkpt>
      <trkpt lat="47.14397" lon="-1.66048">
        <ele>64</ele>
        <time>2021-03-14T12:11:43.000Z</time>
      </trkpt>
      <trkpt lat="47.14395" lon="-1.66064">
        <ele>64</ele>
        <time>2021-03-14T12:11:45.000Z</time>
      </trkpt>
      <trkpt lat="47.14393" lon="-1.6608">
        <ele>64</ele>
        <time>2021-03-14T12:11:47.000Z</time>
      </trkpt>
      <trkpt lat="47.14391" lon="-1.66095">
        <ele>64</ele>
        <time>2021-03-14T12:11:49.000Z</time>
      </trkpt>
      <trkpt lat="47.14388" lon="-1.66111">
        <ele>65</ele>
        <time>2021-03-14T12:11:51.000Z</time>
      </trkpt>
      <trkpt lat="47.14386" lon="-1.66126">
        <ele>65</ele>
        <time>2021-03-14T12:11:53.000Z</time>
      </trkpt>
      <trkpt lat="47.14384" lon="-1.66142">
        <ele>64</ele>
        <time>2021-03-14T12:11:55.000Z</time>
      </trkpt>
      <trkpt lat="47.14385" lon="-1.66156">
        <ele>64</ele>
        <time>2021-03-14T12:11:57.000Z</time>
      </trkpt>
      <trkpt lat="47.14386" lon="-1.66171">
        <ele>64</ele>
        <time>2021-03-14T12:11:59.000Z</time>
      </trkpt>
      <trkpt lat="47.14384" lon="-1.66188">
        <ele>64</ele>
        <time>2021-03-14T12:12:01.000Z</time>
      </trkpt>
      <trkpt lat="47.14377" lon="-1.66202">
        <ele>64</ele>
        <time>2021-03-14T12:12:03.000Z</time>
      </trkpt>
      <trkpt lat="47.1437" lon="-1.66217">
        <ele>64</ele>
        <time>2021-03-14T12:12:05.000Z</time>
      </trkpt>
      <trkpt lat="47.14366" lon="-1.66234">
        <ele>64</ele>
        <time>2021-03-14T12:12:07.000Z</time>
      </trkpt>
      <trkpt lat="47.14362" lon="-1.66251">
        <ele>64</ele>
        <time>2021-03-14T12:12:09.000Z</time>
      </trkpt>
      <trkpt lat="47.14359" lon="-1.66268">
        <ele>64</ele>
        <time>2021-03-14T12:12:11.000Z</time>
      </trkpt>
      <trkpt lat="47.14354" lon="-1.66285">
        <ele>64</ele>
        <time>2021-03-14T12:12:13.000Z</time>
      </trkpt>
      <trkpt lat="47.1435" lon="-1.66303">
        <ele>64</ele>
        <time>2021-03-14T12:12:15.000Z</time>
      </trkpt>
      <trkpt lat="47.14345" lon="-1.6632">
        <ele>64</ele>
        <time>2021-03-14T12:12:17.000Z</time>
      </trkpt>
      <trkpt lat="47.14341" lon="-1.66338">
        <ele>63</ele>
        <time>2021-03-14T12:12:19.000Z</time>
      </trkpt>
      <trkpt lat="47.14337" lon="-1.66355">
        <ele>63</ele>
        <time>2021-03-14T12:12:21.000Z</time>
      </trkpt>
      <trkpt lat="47.14333" lon="-1.66372">
        <ele>63</ele>
        <time>2021-03-14T12:12:23.000Z</time>
      </trkpt>
      <trkpt lat="47.14329" lon="-1.66389">
        <ele>62</ele>
        <time>2021-03-14T12:12:25.000Z</time>
      </trkpt>
      <trkpt lat="47.14325" lon="-1.66406">
        <ele>62</ele>
        <time>2021-03-14T12:12:27.000Z</time>
      </trkpt>
      <trkpt lat="47.1432" lon="-1.66423">
        <ele>62</ele>
        <time>2021-03-14T12:12:29.000Z</time>
      </trkpt>
      <trkpt lat="47.14316" lon="-1.6644">
        <ele>62</ele>
        <time>2021-03-14T12:12:31.000Z</time>
      </trkpt>
      <trkpt lat="47.14312" lon="-1.66456">
        <ele>62</ele>
        <time>2021-03-14T12:12:33.000Z</time>
      </trkpt>
      <trkpt lat="47.14308" lon="-1.66473">
        <ele>62</ele>
        <time>2021-03-14T12:12:35.000Z</time>
      </trkpt>
      <trkpt lat="47.14304" lon="-1.66489">
        <ele>62</ele>
        <time>2021-03-14T12:12:37.000Z</time>
      </trkpt>
      <trkpt lat="47.143" lon="-1.66506">
        <ele>62</ele>
        <time>2021-03-14T12:12:39.000Z</time>
      </trkpt>
      <trkpt lat="47.14296" lon="-1.66522">
        <ele>62</ele>
        <time>2021-03-14T12:12:41.000Z</time>
      </trkpt>
      <trkpt lat="47.14292" lon="-1.66538">
        <ele>62</ele>
        <time>2021-03-14T12:12:43.000Z</time>
      </trkpt>
      <trkpt lat="47.14287" lon="-1.66555">
        <ele>62</ele>
        <time>2021-03-14T12:12:45.000Z</time>
      </trkpt>
      <trkpt lat="47.14283" lon="-1.66571">
        <ele>62</ele>
        <time>2021-03-14T12:12:47.000Z</time>
      </trkpt>
      <trkpt lat="47.14278" lon="-1.66588">
        <ele>61</ele>
        <time>2021-03-14T12:12:49.000Z</time>
      </trkpt>
      <trkpt lat="47.14273" lon="-1.66604">
        <ele>61</ele>
        <time>2021-03-14T12:12:51.000Z</time>
      </trkpt>
      <trkpt lat="47.14268" lon="-1.66621">
        <ele>60</ele>
        <time>2021-03-14T12:12:53.000Z</time>
      </trkpt>
      <trkpt lat="47.14263" lon="-1.66637">
        <ele>60</ele>
        <time>2021-03-14T12:12:55.000Z</time>
      </trkpt>
      <trkpt lat="47.14258" lon="-1.66653">
        <ele>60</ele>
        <time>2021-03-14T12:12:57.000Z</time>
      </trkpt>
      <trkpt lat="47.14253" lon="-1.66668">
        <ele>60</ele>
        <time>2021-03-14T12:12:59.000Z</time>
      </trkpt>
      <trkpt lat="47.14248" lon="-1.66684">
        <ele>59</ele>
        <time>2021-03-14T12:13:01.000Z</time>
      </trkpt>
      <trkpt lat="47.14242" lon="-1.66702">
        <ele>59</ele>
        <time>2021-03-14T12:13:03.000Z</time>
      </trkpt>
      <trkpt lat="47.14236" lon="-1.66719">
        <ele>59</ele>
        <time>2021-03-14T12:13:05.000Z</time>
      </trkpt>
      <trkpt lat="47.14231" lon="-1.66735">
        <ele>59</ele>
        <time>2021-03-14T12:13:07.000Z</time>
      </trkpt>
      <trkpt lat="47.14226" lon="-1.66751">
        <ele>59</ele>
        <time>2021-03-14T12:13:09.000Z</time>
      </trkpt>
      <trkpt lat="47.1422" lon="-1.66768">
        <ele>59</ele>
        <time>2021-03-14T12:13:11.000Z</time>
      </trkpt>
      <trkpt lat="47.14215" lon="-1.66785">
        <ele>59</ele>
        <time>2021-03-14T12:13:13.000Z</time>
      </trkpt>
      <trkpt lat="47.14209" lon="-1.66802">
        <ele>59</ele>
        <time>2021-03-14T12:13:15.000Z</time>
      </trkpt>
      <trkpt lat="47.14204" lon="-1.66819">
        <ele>59</ele>
        <time>2021-03-14T12:13:17.000Z</time>
      </trkpt>
      <trkpt lat="47.14199" lon="-1.66834">
        <ele>59</ele>
        <time>2021-03-14T12:13:19.000Z</time>
      </trkpt>
      <trkpt lat="47.14194" lon="-1.66851">
        <ele>59</ele>
        <time>2021-03-14T12:13:21.000Z</time>
      </trkpt>
      <trkpt lat="47.1419" lon="-1.66868">
        <ele>59</ele>
        <time>2021-03-14T12:13:23.000Z</time>
      </trkpt>
      <trkpt lat="47.14187" lon="-1.66885">
        <ele>60</ele>
        <time>2021-03-14T12:13:25.000Z</time>
      </trkpt>
      <trkpt lat="47.14183" lon="-1.66901">
        <ele>60</ele>
        <time>2021-03-14T12:13:27.000Z</time>
      </trkpt>
      <trkpt lat="47.14178" lon="-1.66917">
        <ele>60</ele>
        <time>2021-03-14T12:13:29.000Z</time>
      </trkpt>
      <trkpt lat="47.14175" lon="-1.66932">
        <ele>60</ele>
        <time>2021-03-14T12:13:31.000Z</time>
      </trkpt>
      <trkpt lat="47.14174" lon="-1.66949">
        <ele>60</ele>
        <time>2021-03-14T12:13:33.000Z</time>
      </trkpt>
      <trkpt lat="47.14172" lon="-1.66966">
        <ele>60</ele>
        <time>2021-03-14T12:13:35.000Z</time>
      </trkpt>
      <trkpt lat="47.14171" lon="-1.66982">
        <ele>60</ele>
        <time>2021-03-14T12:13:37.000Z</time>
      </trkpt>
      <trkpt lat="47.1417" lon="-1.67">
        <ele>60</ele>
        <time>2021-03-14T12:13:39.000Z</time>
      </trkpt>
      <trkpt lat="47.14172" lon="-1.67018">
        <ele>60</ele>
        <time>2021-03-14T12:13:41.000Z</time>
      </trkpt>
      <trkpt lat="47.14173" lon="-1.67035">
        <ele>60</ele>
        <time>2021-03-14T12:13:43.000Z</time>
      </trkpt>
      <trkpt lat="47.14175" lon="-1.67052">
        <ele>60</ele>
        <time>2021-03-14T12:13:45.000Z</time>
      </trkpt>
      <trkpt lat="47.14176" lon="-1.67069">
        <ele>60</ele>
        <time>2021-03-14T12:13:47.000Z</time>
      </trkpt>
      <trkpt lat="47.14177" lon="-1.67086">
        <ele>60</ele>
        <time>2021-03-14T12:13:49.000Z</time>
      </trkpt>
      <trkpt lat="47.14179" lon="-1.67103">
        <ele>61</ele>
        <time>2021-03-14T12:13:51.000Z</time>
      </trkpt>
      <trkpt lat="47.14181" lon="-1.67119">
        <ele>61</ele>
        <time>2021-03-14T12:13:53.000Z</time>
      </trkpt>
      <trkpt lat="47.14184" lon="-1.67134">
        <ele>61</ele>
        <time>2021-03-14T12:13:55.000Z</time>
      </trkpt>
      <trkpt lat="47.14187" lon="-1.67148">
        <ele>62</ele>
        <time>2021-03-14T12:13:57.000Z</time>
      </trkpt>
      <trkpt lat="47.14189" lon="-1.67163">
        <ele>62</ele>
        <time>2021-03-14T12:13:59.000Z</time>
      </trkpt>
      <trkpt lat="47.1419" lon="-1.6718">
        <ele>62</ele>
        <time>2021-03-14T12:14:01.000Z</time>
      </trkpt>
      <trkpt lat="47.14194" lon="-1.67197">
        <ele>62</ele>
        <time>2021-03-14T12:14:03.000Z</time>
      </trkpt>
      <trkpt lat="47.14197" lon="-1.67214">
        <ele>62</ele>
        <time>2021-03-14T12:14:05.000Z</time>
      </trkpt>
      <trkpt lat="47.14199" lon="-1.6723">
        <ele>62</ele>
        <time>2021-03-14T12:14:07.000Z</time>
      </trkpt>
      <trkpt lat="47.14192" lon="-1.67242">
        <ele>62</ele>
        <time>2021-03-14T12:14:09.000Z</time>
      </trkpt>
      <trkpt lat="47.14179" lon="-1.67245">
        <ele>61</ele>
        <time>2021-03-14T12:14:11.000Z</time>
      </trkpt>
      <trkpt lat="47.14166" lon="-1.67246">
        <ele>61</ele>
        <time>2021-03-14T12:14:13.000Z</time>
      </trkpt>
      <trkpt lat="47.14153" lon="-1.67247">
        <ele>62</ele>
        <time>2021-03-14T12:14:15.000Z</time>
      </trkpt>
      <trkpt lat="47.1414" lon="-1.6725">
        <ele>61</ele>
        <time>2021-03-14T12:14:17.000Z</time>
      </trkpt>
      <trkpt lat="47.14125" lon="-1.67252">
        <ele>62</ele>
        <time>2021-03-14T12:14:19.000Z</time>
      </trkpt>
      <trkpt lat="47.14111" lon="-1.67254">
        <ele>62</ele>
        <time>2021-03-14T12:14:21.000Z</time>
      </trkpt>
      <trkpt lat="47.14097" lon="-1.67256">
        <ele>62</ele>
        <time>2021-03-14T12:14:23.000Z</time>
      </trkpt>
      <trkpt lat="47.14083" lon="-1.67258">
        <ele>62</ele>
        <time>2021-03-14T12:14:25.000Z</time>
      </trkpt>
      <trkpt lat="47.1407" lon="-1.6726">
        <ele>62</ele>
        <time>2021-03-14T12:14:27.000Z</time>
      </trkpt>
      <trkpt lat="47.14056" lon="-1.67262">
        <ele>62</ele>
        <time>2021-03-14T12:14:29.000Z</time>
      </trkpt>
      <trkpt lat="47.14042" lon="-1.67264">
        <ele>61</ele>
        <time>2021-03-14T12:14:31.000Z</time>
      </trkpt>
      <trkpt lat="47.14028" lon="-1.67267">
        <ele>61</ele>
        <time>2021-03-14T12:14:33.000Z</time>
      </trkpt>
      <trkpt lat="47.14013" lon="-1.6727">
        <ele>60</ele>
        <time>2021-03-14T12:14:35.000Z</time>
      </trkpt>
      <trkpt lat="47.13998" lon="-1.67271">
        <ele>60</ele>
        <time>2021-03-14T12:14:37.000Z</time>
      </trkpt>
      <trkpt lat="47.13983" lon="-1.67273">
        <ele>60</ele>
        <time>2021-03-14T12:14:39.000Z</time>
      </trkpt>
      <trkpt lat="47.13969" lon="-1.67275">
        <ele>59</ele>
        <time>2021-03-14T12:14:41.000Z</time>
      </trkpt>
      <trkpt lat="47.13954" lon="-1.67277">
        <ele>59</ele>
        <time>2021-03-14T12:14:43.000Z</time>
      </trkpt>
      <trkpt lat="47.1394" lon="-1.6728">
        <ele>59</ele>
        <time>2021-03-14T12:14:45.000Z</time>
      </trkpt>
      <trkpt lat="47.13925" lon="-1.67283">
        <ele>59</ele>
        <time>2021-03-14T12:14:47.000Z</time>
      </trkpt>
      <trkpt lat="47.13909" lon="-1.67286">
        <ele>59</ele>
        <time>2021-03-14T12:14:49.000Z</time>
      </trkpt>
      <trkpt lat="47.13894" lon="-1.67291">
        <ele>58</ele>
        <time>2021-03-14T12:14:51.000Z</time>
      </trkpt>
      <trkpt lat="47.1388" lon="-1.67295">
        <ele>58</ele>
        <time>2021-03-14T12:14:53.000Z</time>
      </trkpt>
      <trkpt lat="47.13865" lon="-1.67299">
        <ele>57</ele>
        <time>2021-03-14T12:14:55.000Z</time>
      </trkpt>
      <trkpt lat="47.1385" lon="-1.67303">
        <ele>57</ele>
        <time>2021-03-14T12:14:57.000Z</time>
      </trkpt>
      <trkpt lat="47.13835" lon="-1.67307">
        <ele>57</ele>
        <time>2021-03-14T12:14:59.000Z</time>
      </trkpt>
      <trkpt lat="47.13822" lon="-1.67311">
        <ele>56</ele>
        <time>2021-03-14T12:15:01.000Z</time>
      </trkpt>
      <trkpt lat="47.13808" lon="-1.67315">
        <ele>56</ele>
        <time>2021-03-14T12:15:03.000Z</time>
      </trkpt>
      <trkpt lat="47.13796" lon="-1.67325">
        <ele>56</ele>
        <time>2021-03-14T12:15:05.000Z</time>
      </trkpt>
      <trkpt lat="47.13793" lon="-1.67344">
        <ele>56</ele>
        <time>2021-03-14T12:15:07.000Z</time>
      </trkpt>
      <trkpt lat="47.13789" lon="-1.67363">
        <ele>56</ele>
        <time>2021-03-14T12:15:09.000Z</time>
      </trkpt>
      <trkpt lat="47.13786" lon="-1.67382">
        <ele>55</ele>
        <time>2021-03-14T12:15:11.000Z</time>
      </trkpt>
      <trkpt lat="47.13783" lon="-1.67401">
        <ele>55</ele>
        <time>2021-03-14T12:15:13.000Z</time>
      </trkpt>
      <trkpt lat="47.13781" lon="-1.6742">
        <ele>55</ele>
        <time>2021-03-14T12:15:15.000Z</time>
      </trkpt>
      <trkpt lat="47.1378" lon="-1.6744">
        <ele>55</ele>
        <time>2021-03-14T12:15:17.000Z</time>
      </trkpt>
      <trkpt lat="47.13779" lon="-1.67458">
        <ele>55</ele>
        <time>2021-03-14T12:15:19.000Z</time>
      </trkpt>
      <trkpt lat="47.13778" lon="-1.67476">
        <ele>55</ele>
        <time>2021-03-14T12:15:21.000Z</time>
      </trkpt>
      <trkpt lat="47.13778" lon="-1.67494">
        <ele>55</ele>
        <time>2021-03-14T12:15:23.000Z</time>
      </trkpt>
      <trkpt lat="47.13779" lon="-1.67512">
        <ele>56</ele>
        <time>2021-03-14T12:15:25.000Z</time>
      </trkpt>
      <trkpt lat="47.1378" lon="-1.67529">
        <ele>56</ele>
        <time>2021-03-14T12:15:27.000Z</time>
      </trkpt>
      <trkpt lat="47.13781" lon="-1.67547">
        <ele>56</ele>
        <time>2021-03-14T12:15:29.000Z</time>
      </trkpt>
      <trkpt lat="47.13782" lon="-1.67565">
        <ele>56</ele>
        <time>2021-03-14T12:15:31.000Z</time>
      </trkpt>
      <trkpt lat="47.13784" lon="-1.67584">
        <ele>56</ele>
        <time>2021-03-14T12:15:33.000Z</time>
      </trkpt>
      <trkpt lat="47.13785" lon="-1.67602">
        <ele>56</ele>
        <time>2021-03-14T12:15:35.000Z</time>
      </trkpt>
      <trkpt lat="47.13786" lon="-1.6762">
        <ele>56</ele>
        <time>2021-03-14T12:15:37.000Z</time>
      </trkpt>
      <trkpt lat="47.13787" lon="-1.67638">
        <ele>57</ele>
        <time>2021-03-14T12:15:39.000Z</time>
      </trkpt>
      <trkpt lat="47.13788" lon="-1.67656">
        <ele>57</ele>
        <time>2021-03-14T12:15:41.000Z</time>
      </trkpt>
      <trkpt lat="47.13789" lon="-1.67673">
        <ele>58</ele>
        <time>2021-03-14T12:15:43.000Z</time>
      </trkpt>
      <trkpt lat="47.1379" lon="-1.67691">
        <ele>57</ele>
        <time>2021-03-14T12:15:45.000Z</time>
      </trkpt>
      <trkpt lat="47.13791" lon="-1.67708">
        <ele>58</ele>
        <time>2021-03-14T12:15:47.000Z</time>
      </trkpt>
      <trkpt lat="47.13793" lon="-1.67726">
        <ele>58</ele>
        <time>2021-03-14T12:15:49.000Z</time>
      </trkpt>
      <trkpt lat="47.13794" lon="-1.67743">
        <ele>58</ele>
        <time>2021-03-14T12:15:51.000Z</time>
      </trkpt>
      <trkpt lat="47.13796" lon="-1.67761">
        <ele>58</ele>
        <time>2021-03-14T12:15:53.000Z</time>
      </trkpt>
      <trkpt lat="47.13797" lon="-1.67778">
        <ele>57</ele>
        <time>2021-03-14T12:15:55.000Z</time>
      </trkpt>
      <trkpt lat="47.13798" lon="-1.67795">
        <ele>57</ele>
        <time>2021-03-14T12:15:57.000Z</time>
      </trkpt>
      <trkpt lat="47.13799" lon="-1.67813">
        <ele>57</ele>
        <time>2021-03-14T12:15:59.000Z</time>
      </trkpt>
      <trkpt lat="47.138" lon="-1.6783">
        <ele>57</ele>
        <time>2021-03-14T12:16:01.000Z</time>
      </trkpt>
      <trkpt lat="47.13801" lon="-1.67848">
        <ele>57</ele>
        <time>2021-03-14T12:16:03.000Z</time>
      </trkpt>
      <trkpt lat="47.13802" lon="-1.67866">
        <ele>56</ele>
        <time>2021-03-14T12:16:05.000Z</time>
      </trkpt>
      <trkpt lat="47.13804" lon="-1.67884">
        <ele>56</ele>
        <time>2021-03-14T12:16:07.000Z</time>
      </trkpt>
      <trkpt lat="47.13805" lon="-1.67903">
        <ele>55</ele>
        <time>2021-03-14T12:16:09.000Z</time>
      </trkpt>
      <trkpt lat="47.13807" lon="-1.67923">
        <ele>55</ele>
        <time>2021-03-14T12:16:11.000Z</time>
      </trkpt>
      <trkpt lat="47.13808" lon="-1.67942">
        <ele>55</ele>
        <time>2021-03-14T12:16:13.000Z</time>
      </trkpt>
      <trkpt lat="47.1381" lon="-1.67961">
        <ele>55</ele>
        <time>2021-03-14T12:16:15.000Z</time>
      </trkpt>
      <trkpt lat="47.13813" lon="-1.6798">
        <ele>55</ele>
        <time>2021-03-14T12:16:17.000Z</time>
      </trkpt>
      <trkpt lat="47.13816" lon="-1.67998">
        <ele>55</ele>
        <time>2021-03-14T12:16:19.000Z</time>
      </trkpt>
      <trkpt lat="47.13819" lon="-1.68014">
        <ele>55</ele>
        <time>2021-03-14T12:16:21.000Z</time>
      </trkpt>
      <trkpt lat="47.13824" lon="-1.68031">
        <ele>54</ele>
        <time>2021-03-14T12:16:23.000Z</time>
      </trkpt>
      <trkpt lat="47.1383" lon="-1.68045">
        <ele>54</ele>
        <time>2021-03-14T12:16:25.000Z</time>
      </trkpt>
      <trkpt lat="47.13837" lon="-1.6806">
        <ele>54</ele>
        <time>2021-03-14T12:16:27.000Z</time>
      </trkpt>
      <trkpt lat="47.13843" lon="-1.68075">
        <ele>55</ele>
        <time>2021-03-14T12:16:29.000Z</time>
      </trkpt>
      <trkpt lat="47.1385" lon="-1.6809">
        <ele>54</ele>
        <time>2021-03-14T12:16:31.000Z</time>
      </trkpt>
      <trkpt lat="47.13857" lon="-1.68105">
        <ele>54</ele>
        <time>2021-03-14T12:16:33.000Z</time>
      </trkpt>
      <trkpt lat="47.13863" lon="-1.6812">
        <ele>54</ele>
        <time>2021-03-14T12:16:35.000Z</time>
      </trkpt>
      <trkpt lat="47.13869" lon="-1.68135">
        <ele>54</ele>
        <time>2021-03-14T12:16:37.000Z</time>
      </trkpt>
      <trkpt lat="47.13875" lon="-1.6815">
        <ele>54</ele>
        <time>2021-03-14T12:16:39.000Z</time>
      </trkpt>
      <trkpt lat="47.13881" lon="-1.68165">
        <ele>54</ele>
        <time>2021-03-14T12:16:41.000Z</time>
      </trkpt>
      <trkpt lat="47.13888" lon="-1.6818">
        <ele>54</ele>
        <time>2021-03-14T12:16:43.000Z</time>
      </trkpt>
      <trkpt lat="47.13894" lon="-1.68195">
        <ele>54</ele>
        <time>2021-03-14T12:16:45.000Z</time>
      </trkpt>
      <trkpt lat="47.139" lon="-1.6821">
        <ele>54</ele>
        <time>2021-03-14T12:16:47.000Z</time>
      </trkpt>
      <trkpt lat="47.13905" lon="-1.68225">
        <ele>54</ele>
        <time>2021-03-14T12:16:49.000Z</time>
      </trkpt>
      <trkpt lat="47.13911" lon="-1.68239">
        <ele>55</ele>
        <time>2021-03-14T12:16:51.000Z</time>
      </trkpt>
      <trkpt lat="47.13917" lon="-1.68253">
        <ele>55</ele>
        <time>2021-03-14T12:16:53.000Z</time>
      </trkpt>
      <trkpt lat="47.13923" lon="-1.68268">
        <ele>55</ele>
        <time>2021-03-14T12:16:55.000Z</time>
      </trkpt>
      <trkpt lat="47.13929" lon="-1.68282">
        <ele>54</ele>
        <time>2021-03-14T12:16:57.000Z</time>
      </trkpt>
      <trkpt lat="47.13935" lon="-1.68297">
        <ele>54</ele>
        <time>2021-03-14T12:16:59.000Z</time>
      </trkpt>
      <trkpt lat="47.13941" lon="-1.68312">
        <ele>54</ele>
        <time>2021-03-14T12:17:01.000Z</time>
      </trkpt>
      <trkpt lat="47.13948" lon="-1.68327">
        <ele>54</ele>
        <time>2021-03-14T12:17:03.000Z</time>
      </trkpt>
      <trkpt lat="47.13955" lon="-1.68342">
        <ele>53</ele>
        <time>2021-03-14T12:17:05.000Z</time>
      </trkpt>
      <trkpt lat="47.13961" lon="-1.68357">
        <ele>53</ele>
        <time>2021-03-14T12:17:07.000Z</time>
      </trkpt>
      <trkpt lat="47.13968" lon="-1.68373">
        <ele>53</ele>
        <time>2021-03-14T12:17:09.000Z</time>
      </trkpt>
      <trkpt lat="47.13975" lon="-1.68388">
        <ele>53</ele>
        <time>2021-03-14T12:17:11.000Z</time>
      </trkpt>
      <trkpt lat="47.13982" lon="-1.68403">
        <ele>53</ele>
        <time>2021-03-14T12:17:13.000Z</time>
      </trkpt>
      <trkpt lat="47.13991" lon="-1.68416">
        <ele>54</ele>
        <time>2021-03-14T12:17:15.000Z</time>
      </trkpt>
      <trkpt lat="47.13998" lon="-1.68429">
        <ele>54</ele>
        <time>2021-03-14T12:17:17.000Z</time>
      </trkpt>
      <trkpt lat="47.14006" lon="-1.6844">
        <ele>54</ele>
        <time>2021-03-14T12:17:19.000Z</time>
      </trkpt>
      <trkpt lat="47.14013" lon="-1.68452">
        <ele>55</ele>
        <time>2021-03-14T12:17:21.000Z</time>
      </trkpt>
      <trkpt lat="47.14021" lon="-1.68464">
        <ele>54</ele>
        <time>2021-03-14T12:17:23.000Z</time>
      </trkpt>
      <trkpt lat="47.14029" lon="-1.68475">
        <ele>55</ele>
        <time>2021-03-14T12:17:25.000Z</time>
      </trkpt>
      <trkpt lat="47.14036" lon="-1.68487">
        <ele>55</ele>
        <time>2021-03-14T12:17:27.000Z</time>
      </trkpt>
      <trkpt lat="47.14044" lon="-1.685">
        <ele>55</ele>
        <time>2021-03-14T12:17:29.000Z</time>
      </trkpt>
      <trkpt lat="47.14052" lon="-1.68512">
        <ele>55</ele>
        <time>2021-03-14T12:17:31.000Z</time>
      </trkpt>
      <trkpt lat="47.14059" lon="-1.68524">
        <ele>55</ele>
        <time>2021-03-14T12:17:33.000Z</time>
      </trkpt>
      <trkpt lat="47.14067" lon="-1.68535">
        <ele>55</ele>
        <time>2021-03-14T12:17:35.000Z</time>
      </trkpt>
      <trkpt lat="47.14075" lon="-1.68547">
        <ele>55</ele>
        <time>2021-03-14T12:17:37.000Z</time>
      </trkpt>
      <trkpt lat="47.14083" lon="-1.68559">
        <ele>55</ele>
        <time>2021-03-14T12:17:39.000Z</time>
      </trkpt>
      <trkpt lat="47.14091" lon="-1.68571">
        <ele>55</ele>
        <time>2021-03-14T12:17:41.000Z</time>
      </trkpt>
      <trkpt lat="47.14098" lon="-1.68582">
        <ele>55</ele>
        <time>2021-03-14T12:17:43.000Z</time>
      </trkpt>
      <trkpt lat="47.14106" lon="-1.68593">
        <ele>55</ele>
        <time>2021-03-14T12:17:45.000Z</time>
      </trkpt>
      <trkpt lat="47.14114" lon="-1.68605">
        <ele>55</ele>
        <time>2021-03-14T12:17:47.000Z</time>
      </trkpt>
      <trkpt lat="47.14122" lon="-1.68617">
        <ele>55</ele>
        <time>2021-03-14T12:17:49.000Z</time>
      </trkpt>
      <trkpt lat="47.1413" lon="-1.68629">
        <ele>55</ele>
        <time>2021-03-14T12:17:51.000Z</time>
      </trkpt>
      <trkpt lat="47.14138" lon="-1.68641">
        <ele>55</ele>
        <time>2021-03-14T12:17:53.000Z</time>
      </trkpt>
      <trkpt lat="47.14146" lon="-1.68652">
        <ele>55</ele>
        <time>2021-03-14T12:17:55.000Z</time>
      </trkpt>
      <trkpt lat="47.14154" lon="-1.68665">
        <ele>55</ele>
        <time>2021-03-14T12:17:57.000Z</time>
      </trkpt>
      <trkpt lat="47.14161" lon="-1.68676">
        <ele>55</ele>
        <time>2021-03-14T12:17:59.000Z</time>
      </trkpt>
      <trkpt lat="47.14168" lon="-1.68689">
        <ele>55</ele>
        <time>2021-03-14T12:18:01.000Z</time>
      </trkpt>
      <trkpt lat="47.14174" lon="-1.68703">
        <ele>55</ele>
        <time>2021-03-14T12:18:03.000Z</time>
      </trkpt>
      <trkpt lat="47.1418" lon="-1.68718">
        <ele>55</ele>
        <time>2021-03-14T12:18:05.000Z</time>
      </trkpt>
      <trkpt lat="47.14186" lon="-1.68733">
        <ele>55</ele>
        <time>2021-03-14T12:18:07.000Z</time>
      </trkpt>
      <trkpt lat="47.14191" lon="-1.68747">
        <ele>56</ele>
        <time>2021-03-14T12:18:09.000Z</time>
      </trkpt>
      <trkpt lat="47.14196" lon="-1.68762">
        <ele>56</ele>
        <time>2021-03-14T12:18:11.000Z</time>
      </trkpt>
      <trkpt lat="47.14201" lon="-1.68777">
        <ele>56</ele>
        <time>2021-03-14T12:18:13.000Z</time>
      </trkpt>
      <trkpt lat="47.14205" lon="-1.68793">
        <ele>56</ele>
        <time>2021-03-14T12:18:15.000Z</time>
      </trkpt>
      <trkpt lat="47.14208" lon="-1.68807">
        <ele>56</ele>
        <time>2021-03-14T12:18:17.000Z</time>
      </trkpt>
      <trkpt lat="47.14212" lon="-1.68822">
        <ele>56</ele>
        <time>2021-03-14T12:18:19.000Z</time>
      </trkpt>
      <trkpt lat="47.14215" lon="-1.68836">
        <ele>56</ele>
        <time>2021-03-14T12:18:21.000Z</time>
      </trkpt>
      <trkpt lat="47.14217" lon="-1.68851">
        <ele>57</ele>
        <time>2021-03-14T12:18:23.000Z</time>
      </trkpt>
      <trkpt lat="47.14221" lon="-1.68866">
        <ele>56</ele>
        <time>2021-03-14T12:18:25.000Z</time>
      </trkpt>
      <trkpt lat="47.14224" lon="-1.6888">
        <ele>56</ele>
        <time>2021-03-14T12:18:27.000Z</time>
      </trkpt>
      <trkpt lat="47.14226" lon="-1.68896">
        <ele>57</ele>
        <time>2021-03-14T12:18:29.000Z</time>
      </trkpt>
      <trkpt lat="47.14228" lon="-1.6891">
        <ele>57</ele>
        <time>2021-03-14T12:18:31.000Z</time>
      </trkpt>
      <trkpt lat="47.14228" lon="-1.68926">
        <ele>57</ele>
        <time>2021-03-14T12:18:33.000Z</time>
      </trkpt>
      <trkpt lat="47.14225" lon="-1.68939">
        <ele>57</ele>
        <time>2021-03-14T12:18:35.000Z</time>
      </trkpt>
      <trkpt lat="47.14213" lon="-1.68941">
        <ele>56</ele>
        <time>2021-03-14T12:18:37.000Z</time>
      </trkpt>
      <trkpt lat="47.14202" lon="-1.68949">
        <ele>56</ele>
        <time>2021-03-14T12:18:39.000Z</time>
      </trkpt>
      <trkpt lat="47.14194" lon="-1.68964">
        <ele>57</ele>
        <time>2021-03-14T12:18:41.000Z</time>
      </trkpt>
      <trkpt lat="47.14188" lon="-1.68978">
        <ele>57</ele>
        <time>2021-03-14T12:18:43.000Z</time>
      </trkpt>
      <trkpt lat="47.14182" lon="-1.68992">
        <ele>57</ele>
        <time>2021-03-14T12:18:45.000Z</time>
      </trkpt>
      <trkpt lat="47.14176" lon="-1.69006">
        <ele>57</ele>
        <time>2021-03-14T12:18:47.000Z</time>
      </trkpt>
      <trkpt lat="47.14171" lon="-1.6902">
        <ele>57</ele>
        <time>2021-03-14T12:18:49.000Z</time>
      </trkpt>
      <trkpt lat="47.14167" lon="-1.69035">
        <ele>58</ele>
        <time>2021-03-14T12:18:51.000Z</time>
      </trkpt>
      <trkpt lat="47.14164" lon="-1.69051">
        <ele>58</ele>
        <time>2021-03-14T12:18:53.000Z</time>
      </trkpt>
      <trkpt lat="47.14161" lon="-1.69067">
        <ele>59</ele>
        <time>2021-03-14T12:18:55.000Z</time>
      </trkpt>
      <trkpt lat="47.14159" lon="-1.69082">
        <ele>59</ele>
        <time>2021-03-14T12:18:57.000Z</time>
      </trkpt>
      <trkpt lat="47.14157" lon="-1.69097">
        <ele>59</ele>
        <time>2021-03-14T12:18:59.000Z</time>
      </trkpt>
      <trkpt lat="47.14155" lon="-1.69112">
        <ele>60</ele>
        <time>2021-03-14T12:19:01.000Z</time>
      </trkpt>
      <trkpt lat="47.14153" lon="-1.69125">
        <ele>60</ele>
        <time>2021-03-14T12:19:03.000Z</time>
      </trkpt>
      <trkpt lat="47.14151" lon="-1.69139">
        <ele>61</ele>
        <time>2021-03-14T12:19:05.000Z</time>
      </trkpt>
      <trkpt lat="47.14149" lon="-1.69154">
        <ele>61</ele>
        <time>2021-03-14T12:19:07.000Z</time>
      </trkpt>
      <trkpt lat="47.14147" lon="-1.69168">
        <ele>61</ele>
        <time>2021-03-14T12:19:09.000Z</time>
      </trkpt>
      <trkpt lat="47.14145" lon="-1.69183">
        <ele>61</ele>
        <time>2021-03-14T12:19:11.000Z</time>
      </trkpt>
      <trkpt lat="47.14143" lon="-1.69197">
        <ele>61</ele>
        <time>2021-03-14T12:19:13.000Z</time>
      </trkpt>
      <trkpt lat="47.1414" lon="-1.69212">
        <ele>62</ele>
        <time>2021-03-14T12:19:15.000Z</time>
      </trkpt>
      <trkpt lat="47.14138" lon="-1.69226">
        <ele>62</ele>
        <time>2021-03-14T12:19:17.000Z</time>
      </trkpt>
      <trkpt lat="47.14135" lon="-1.6924">
        <ele>62</ele>
        <time>2021-03-14T12:19:19.000Z</time>
      </trkpt>
      <trkpt lat="47.14132" lon="-1.69255">
        <ele>62</ele>
        <time>2021-03-14T12:19:21.000Z</time>
      </trkpt>
      <trkpt lat="47.1413" lon="-1.69269">
        <ele>62</ele>
        <time>2021-03-14T12:19:23.000Z</time>
      </trkpt>
      <trkpt lat="47.14126" lon="-1.69284">
        <ele>62</ele>
        <time>2021-03-14T12:19:25.000Z</time>
      </trkpt>
      <trkpt lat="47.14122" lon="-1.69299">
        <ele>62</ele>
        <time>2021-03-14T12:19:27.000Z</time>
      </trkpt>
      <trkpt lat="47.14121" lon="-1.69315">
        <ele>62</ele>
        <time>2021-03-14T12:19:29.000Z</time>
      </trkpt>
      <trkpt lat="47.14121" lon="-1.69332">
        <ele>62</ele>
        <time>2021-03-14T12:19:31.000Z</time>
      </trkpt>
      <trkpt lat="47.14119" lon="-1.69348">
        <ele>62</ele>
        <time>2021-03-14T12:19:33.000Z</time>
      </trkpt>
      <trkpt lat="47.14118" lon="-1.69364">
        <ele>62</ele>
        <time>2021-03-14T12:19:35.000Z</time>
      </trkpt>
      <trkpt lat="47.14116" lon="-1.69381">
        <ele>61</ele>
        <time>2021-03-14T12:19:37.000Z</time>
      </trkpt>
      <trkpt lat="47.14113" lon="-1.69397">
        <ele>61</ele>
        <time>2021-03-14T12:19:39.000Z</time>
      </trkpt>
      <trkpt lat="47.14111" lon="-1.69414">
        <ele>61</ele>
        <time>2021-03-14T12:19:41.000Z</time>
      </trkpt>
      <trkpt lat="47.14109" lon="-1.69431">
        <ele>60</ele>
        <time>2021-03-14T12:19:43.000Z</time>
      </trkpt>
      <trkpt lat="47.14108" lon="-1.69447">
        <ele>60</ele>
        <time>2021-03-14T12:19:45.000Z</time>
      </trkpt>
      <trkpt lat="47.14107" lon="-1.69463">
        <ele>60</ele>
        <time>2021-03-14T12:19:47.000Z</time>
      </trkpt>
      <trkpt lat="47.14105" lon="-1.69479">
        <ele>60</ele>
        <time>2021-03-14T12:19:49.000Z</time>
      </trkpt>
      <trkpt lat="47.14104" lon="-1.69496">
        <ele>60</ele>
        <time>2021-03-14T12:19:51.000Z</time>
      </trkpt>
      <trkpt lat="47.14101" lon="-1.69514">
        <ele>59</ele>
        <time>2021-03-14T12:19:53.000Z</time>
      </trkpt>
      <trkpt lat="47.14099" lon="-1.69531">
        <ele>59</ele>
        <time>2021-03-14T12:19:55.000Z</time>
      </trkpt>
      <trkpt lat="47.14096" lon="-1.69548">
        <ele>59</ele>
        <time>2021-03-14T12:19:57.000Z</time>
      </trkpt>
      <trkpt lat="47.14094" lon="-1.69566">
        <ele>58</ele>
        <time>2021-03-14T12:19:59.000Z</time>
      </trkpt>
      <trkpt lat="47.14093" lon="-1.69584">
        <ele>58</ele>
        <time>2021-03-14T12:20:01.000Z</time>
      </trkpt>
      <trkpt lat="47.14093" lon="-1.69602">
        <ele>58</ele>
        <time>2021-03-14T12:20:03.000Z</time>
      </trkpt>
      <trkpt lat="47.14094" lon="-1.6962">
        <ele>58</ele>
        <time>2021-03-14T12:20:05.000Z</time>
      </trkpt>
      <trkpt lat="47.14097" lon="-1.69637">
        <ele>57</ele>
        <time>2021-03-14T12:20:07.000Z</time>
      </trkpt>
      <trkpt lat="47.14099" lon="-1.69654">
        <ele>57</ele>
        <time>2021-03-14T12:20:09.000Z</time>
      </trkpt>
      <trkpt lat="47.14101" lon="-1.69672">
        <ele>57</ele>
        <time>2021-03-14T12:20:11.000Z</time>
      </trkpt>
      <trkpt lat="47.14102" lon="-1.6969">
        <ele>56</ele>
        <time>2021-03-14T12:20:13.000Z</time>
      </trkpt>
      <trkpt lat="47.14104" lon="-1.69705">
        <ele>56</ele>
        <time>2021-03-14T12:20:15.000Z</time>
      </trkpt>
      <trkpt lat="47.14106" lon="-1.6972">
        <ele>56</ele>
        <time>2021-03-14T12:20:18.000Z</time>
      </trkpt>
      <trkpt lat="47.14095" lon="-1.69732">
        <ele>54</ele>
        <time>2021-03-14T12:20:24.000Z</time>
      </trkpt>
      <trkpt lat="47.14084" lon="-1.69733">
        <ele>54</ele>
        <time>2021-03-14T12:20:26.000Z</time>
      </trkpt>
      <trkpt lat="47.14073" lon="-1.69733">
        <ele>55</ele>
        <time>2021-03-14T12:20:28.000Z</time>
      </trkpt>
      <trkpt lat="47.14062" lon="-1.69733">
        <ele>55</ele>
        <time>2021-03-14T12:20:30.000Z</time>
      </trkpt>
      <trkpt lat="47.1405" lon="-1.69731">
        <ele>55</ele>
        <time>2021-03-14T12:20:32.000Z</time>
      </trkpt>
      <trkpt lat="47.14037" lon="-1.6973">
        <ele>55</ele>
        <time>2021-03-14T12:20:34.000Z</time>
      </trkpt>
      <trkpt lat="47.14026" lon="-1.69729">
        <ele>56</ele>
        <time>2021-03-14T12:20:36.000Z</time>
      </trkpt>
      <trkpt lat="47.14015" lon="-1.69728">
        <ele>56</ele>
        <time>2021-03-14T12:20:38.000Z</time>
      </trkpt>
      <trkpt lat="47.14004" lon="-1.69728">
        <ele>56</ele>
        <time>2021-03-14T12:20:40.000Z</time>
      </trkpt>
      <trkpt lat="47.13992" lon="-1.69727">
        <ele>56</ele>
        <time>2021-03-14T12:20:42.000Z</time>
      </trkpt>
      <trkpt lat="47.1398" lon="-1.69726">
        <ele>56</ele>
        <time>2021-03-14T12:20:44.000Z</time>
      </trkpt>
      <trkpt lat="47.13968" lon="-1.69725">
        <ele>55</ele>
        <time>2021-03-14T12:20:46.000Z</time>
      </trkpt>
      <trkpt lat="47.13954" lon="-1.69723">
        <ele>55</ele>
        <time>2021-03-14T12:20:48.000Z</time>
      </trkpt>
      <trkpt lat="47.13939" lon="-1.69721">
        <ele>55</ele>
        <time>2021-03-14T12:20:50.000Z</time>
      </trkpt>
      <trkpt lat="47.13925" lon="-1.69719">
        <ele>54</ele>
        <time>2021-03-14T12:20:52.000Z</time>
      </trkpt>
      <trkpt lat="47.13909" lon="-1.69719">
        <ele>54</ele>
        <time>2021-03-14T12:20:54.000Z</time>
      </trkpt>
      <trkpt lat="47.13894" lon="-1.69721">
        <ele>54</ele>
        <time>2021-03-14T12:20:56.000Z</time>
      </trkpt>
      <trkpt lat="47.13879" lon="-1.69724">
        <ele>54</ele>
        <time>2021-03-14T12:20:58.000Z</time>
      </trkpt>
      <trkpt lat="47.13867" lon="-1.69726">
        <ele>54</ele>
        <time>2021-03-14T12:21:00.000Z</time>
      </trkpt>
      <trkpt lat="47.13853" lon="-1.69728">
        <ele>54</ele>
        <time>2021-03-14T12:21:02.000Z</time>
      </trkpt>
      <trkpt lat="47.13839" lon="-1.6973">
        <ele>53</ele>
        <time>2021-03-14T12:21:04.000Z</time>
      </trkpt>
      <trkpt lat="47.13826" lon="-1.6973">
        <ele>52</ele>
        <time>2021-03-14T12:21:06.000Z</time>
      </trkpt>
      <trkpt lat="47.13812" lon="-1.6973">
        <ele>52</ele>
        <time>2021-03-14T12:21:08.000Z</time>
      </trkpt>
      <trkpt lat="47.13798" lon="-1.69729">
        <ele>51</ele>
        <time>2021-03-14T12:21:10.000Z</time>
      </trkpt>
      <trkpt lat="47.13783" lon="-1.69729">
        <ele>51</ele>
        <time>2021-03-14T12:21:12.000Z</time>
      </trkpt>
      <trkpt lat="47.13768" lon="-1.69729">
        <ele>51</ele>
        <time>2021-03-14T12:21:14.000Z</time>
      </trkpt>
      <trkpt lat="47.13753" lon="-1.69729">
        <ele>51</ele>
        <time>2021-03-14T12:21:16.000Z</time>
      </trkpt>
      <trkpt lat="47.13738" lon="-1.69732">
        <ele>52</ele>
        <time>2021-03-14T12:21:18.000Z</time>
      </trkpt>
      <trkpt lat="47.13724" lon="-1.69736">
        <ele>51</ele>
        <time>2021-03-14T12:21:20.000Z</time>
      </trkpt>
      <trkpt lat="47.1371" lon="-1.69739">
        <ele>52</ele>
        <time>2021-03-14T12:21:22.000Z</time>
      </trkpt>
      <trkpt lat="47.13694" lon="-1.6974">
        <ele>51</ele>
        <time>2021-03-14T12:21:24.000Z</time>
      </trkpt>
      <trkpt lat="47.13679" lon="-1.69741">
        <ele>51</ele>
        <time>2021-03-14T12:21:26.000Z</time>
      </trkpt>
      <trkpt lat="47.13664" lon="-1.6974">
        <ele>51</ele>
        <time>2021-03-14T12:21:28.000Z</time>
      </trkpt>
      <trkpt lat="47.13649" lon="-1.6974">
        <ele>50</ele>
        <time>2021-03-14T12:21:30.000Z</time>
      </trkpt>
      <trkpt lat="47.13634" lon="-1.69739">
        <ele>50</ele>
        <time>2021-03-14T12:21:32.000Z</time>
      </trkpt>
      <trkpt lat="47.13619" lon="-1.69739">
        <ele>50</ele>
        <time>2021-03-14T12:21:34.000Z</time>
      </trkpt>
      <trkpt lat="47.13604" lon="-1.69739">
        <ele>50</ele>
        <time>2021-03-14T12:21:36.000Z</time>
      </trkpt>
      <trkpt lat="47.13589" lon="-1.6974">
        <ele>50</ele>
        <time>2021-03-14T12:21:38.000Z</time>
      </trkpt>
      <trkpt lat="47.13573" lon="-1.69741">
        <ele>50</ele>
        <time>2021-03-14T12:21:40.000Z</time>
      </trkpt>
      <trkpt lat="47.13558" lon="-1.69741">
        <ele>50</ele>
        <time>2021-03-14T12:21:42.000Z</time>
      </trkpt>
      <trkpt lat="47.13543" lon="-1.6974">
        <ele>50</ele>
        <time>2021-03-14T12:21:44.000Z</time>
      </trkpt>
      <trkpt lat="47.13528" lon="-1.69741">
        <ele>50</ele>
        <time>2021-03-14T12:21:46.000Z</time>
      </trkpt>
      <trkpt lat="47.13513" lon="-1.69741">
        <ele>50</ele>
        <time>2021-03-14T12:21:48.000Z</time>
      </trkpt>
      <trkpt lat="47.13499" lon="-1.69742">
        <ele>50</ele>
        <time>2021-03-14T12:21:50.000Z</time>
      </trkpt>
      <trkpt lat="47.13484" lon="-1.69745">
        <ele>50</ele>
        <time>2021-03-14T12:21:52.000Z</time>
      </trkpt>
      <trkpt lat="47.1347" lon="-1.69748">
        <ele>50</ele>
        <time>2021-03-14T12:21:54.000Z</time>
      </trkpt>
      <trkpt lat="47.13457" lon="-1.69753">
        <ele>49</ele>
        <time>2021-03-14T12:21:56.000Z</time>
      </trkpt>
      <trkpt lat="47.13445" lon="-1.69759">
        <ele>48</ele>
        <time>2021-03-14T12:21:58.000Z</time>
      </trkpt>
      <trkpt lat="47.13431" lon="-1.69765">
        <ele>48</ele>
        <time>2021-03-14T12:22:00.000Z</time>
      </trkpt>
      <trkpt lat="47.13418" lon="-1.69772">
        <ele>49</ele>
        <time>2021-03-14T12:22:02.000Z</time>
      </trkpt>
      <trkpt lat="47.13405" lon="-1.6978">
        <ele>49</ele>
        <time>2021-03-14T12:22:04.000Z</time>
      </trkpt>
      <trkpt lat="47.13392" lon="-1.69787">
        <ele>49</ele>
        <time>2021-03-14T12:22:06.000Z</time>
      </trkpt>
      <trkpt lat="47.13377" lon="-1.69794">
        <ele>50</ele>
        <time>2021-03-14T12:22:08.000Z</time>
      </trkpt>
      <trkpt lat="47.13364" lon="-1.69801">
        <ele>50</ele>
        <time>2021-03-14T12:22:10.000Z</time>
      </trkpt>
      <trkpt lat="47.13351" lon="-1.69808">
        <ele>50</ele>
        <time>2021-03-14T12:22:12.000Z</time>
      </trkpt>
      <trkpt lat="47.13338" lon="-1.69814">
        <ele>50</ele>
        <time>2021-03-14T12:22:14.000Z</time>
      </trkpt>
      <trkpt lat="47.13325" lon="-1.6982">
        <ele>50</ele>
        <time>2021-03-14T12:22:16.000Z</time>
      </trkpt>
      <trkpt lat="47.13312" lon="-1.69827">
        <ele>50</ele>
        <time>2021-03-14T12:22:18.000Z</time>
      </trkpt>
      <trkpt lat="47.13299" lon="-1.69834">
        <ele>50</ele>
        <time>2021-03-14T12:22:20.000Z</time>
      </trkpt>
      <trkpt lat="47.13286" lon="-1.6984">
        <ele>50</ele>
        <time>2021-03-14T12:22:22.000Z</time>
      </trkpt>
      <trkpt lat="47.13274" lon="-1.69846">
        <ele>51</ele>
        <time>2021-03-14T12:22:24.000Z</time>
      </trkpt>
      <trkpt lat="47.13262" lon="-1.69853">
        <ele>51</ele>
        <time>2021-03-14T12:22:26.000Z</time>
      </trkpt>
      <trkpt lat="47.13249" lon="-1.69859">
        <ele>52</ele>
        <time>2021-03-14T12:22:28.000Z</time>
      </trkpt>
      <trkpt lat="47.13236" lon="-1.69865">
        <ele>51</ele>
        <time>2021-03-14T12:22:30.000Z</time>
      </trkpt>
      <trkpt lat="47.13222" lon="-1.69873">
        <ele>51</ele>
        <time>2021-03-14T12:22:32.000Z</time>
      </trkpt>
      <trkpt lat="47.13208" lon="-1.6988">
        <ele>50</ele>
        <time>2021-03-14T12:22:34.000Z</time>
      </trkpt>
      <trkpt lat="47.13194" lon="-1.69888">
        <ele>50</ele>
        <time>2021-03-14T12:22:36.000Z</time>
      </trkpt>
      <trkpt lat="47.1318" lon="-1.69896">
        <ele>50</ele>
        <time>2021-03-14T12:22:38.000Z</time>
      </trkpt>
      <trkpt lat="47.13166" lon="-1.69903">
        <ele>51</ele>
        <time>2021-03-14T12:22:40.000Z</time>
      </trkpt>
      <trkpt lat="47.13152" lon="-1.6991">
        <ele>51</ele>
        <time>2021-03-14T12:22:42.000Z</time>
      </trkpt>
      <trkpt lat="47.13139" lon="-1.69918">
        <ele>50</ele>
        <time>2021-03-14T12:22:44.000Z</time>
      </trkpt>
      <trkpt lat="47.13127" lon="-1.69926">
        <ele>50</ele>
        <time>2021-03-14T12:22:46.000Z</time>
      </trkpt>
      <trkpt lat="47.13113" lon="-1.69933">
        <ele>49</ele>
        <time>2021-03-14T12:22:48.000Z</time>
      </trkpt>
      <trkpt lat="47.131" lon="-1.69939">
        <ele>49</ele>
        <time>2021-03-14T12:22:50.000Z</time>
      </trkpt>
      <trkpt lat="47.13087" lon="-1.69946">
        <ele>49</ele>
        <time>2021-03-14T12:22:52.000Z</time>
      </trkpt>
      <trkpt lat="47.13074" lon="-1.69953">
        <ele>49</ele>
        <time>2021-03-14T12:22:54.000Z</time>
      </trkpt>
      <trkpt lat="47.13061" lon="-1.6996">
        <ele>49</ele>
        <time>2021-03-14T12:22:56.000Z</time>
      </trkpt>
      <trkpt lat="47.13047" lon="-1.69966">
        <ele>48</ele>
        <time>2021-03-14T12:22:58.000Z</time>
      </trkpt>
      <trkpt lat="47.13033" lon="-1.69972">
        <ele>48</ele>
        <time>2021-03-14T12:23:00.000Z</time>
      </trkpt>
      <trkpt lat="47.1302" lon="-1.69979">
        <ele>48</ele>
        <time>2021-03-14T12:23:02.000Z</time>
      </trkpt>
      <trkpt lat="47.13007" lon="-1.69986">
        <ele>48</ele>
        <time>2021-03-14T12:23:04.000Z</time>
      </trkpt>
      <trkpt lat="47.12994" lon="-1.69993">
        <ele>48</ele>
        <time>2021-03-14T12:23:06.000Z</time>
      </trkpt>
      <trkpt lat="47.1298" lon="-1.7">
        <ele>48</ele>
        <time>2021-03-14T12:23:08.000Z</time>
      </trkpt>
      <trkpt lat="47.12967" lon="-1.70006">
        <ele>48</ele>
        <time>2021-03-14T12:23:10.000Z</time>
      </trkpt>
      <trkpt lat="47.12954" lon="-1.70013">
        <ele>47</ele>
        <time>2021-03-14T12:23:12.000Z</time>
      </trkpt>
      <trkpt lat="47.12942" lon="-1.7002">
        <ele>47</ele>
        <time>2021-03-14T12:23:14.000Z</time>
      </trkpt>
      <trkpt lat="47.12929" lon="-1.70027">
        <ele>47</ele>
        <time>2021-03-14T12:23:16.000Z</time>
      </trkpt>
      <trkpt lat="47.12917" lon="-1.70034">
        <ele>48</ele>
        <time>2021-03-14T12:23:18.000Z</time>
      </trkpt>
      <trkpt lat="47.12905" lon="-1.7004">
        <ele>48</ele>
        <time>2021-03-14T12:23:20.000Z</time>
      </trkpt>
      <trkpt lat="47.12892" lon="-1.70048">
        <ele>48</ele>
        <time>2021-03-14T12:23:22.000Z</time>
      </trkpt>
      <trkpt lat="47.12879" lon="-1.70055">
        <ele>47</ele>
        <time>2021-03-14T12:23:24.000Z</time>
      </trkpt>
      <trkpt lat="47.12866" lon="-1.70061">
        <ele>47</ele>
        <time>2021-03-14T12:23:26.000Z</time>
      </trkpt>
      <trkpt lat="47.12854" lon="-1.70068">
        <ele>47</ele>
        <time>2021-03-14T12:23:28.000Z</time>
      </trkpt>
      <trkpt lat="47.1284" lon="-1.70074">
        <ele>48</ele>
        <time>2021-03-14T12:23:30.000Z</time>
      </trkpt>
      <trkpt lat="47.12828" lon="-1.70081">
        <ele>47</ele>
        <time>2021-03-14T12:23:32.000Z</time>
      </trkpt>
      <trkpt lat="47.12814" lon="-1.70088">
        <ele>47</ele>
        <time>2021-03-14T12:23:34.000Z</time>
      </trkpt>
      <trkpt lat="47.128" lon="-1.70094">
        <ele>47</ele>
        <time>2021-03-14T12:23:36.000Z</time>
      </trkpt>
      <trkpt lat="47.12787" lon="-1.70101">
        <ele>47</ele>
        <time>2021-03-14T12:23:38.000Z</time>
      </trkpt>
      <trkpt lat="47.12774" lon="-1.70108">
        <ele>47</ele>
        <time>2021-03-14T12:23:40.000Z</time>
      </trkpt>
      <trkpt lat="47.12761" lon="-1.70114">
        <ele>48</ele>
        <time>2021-03-14T12:23:42.000Z</time>
      </trkpt>
      <trkpt lat="47.12748" lon="-1.70121">
        <ele>48</ele>
        <time>2021-03-14T12:23:44.000Z</time>
      </trkpt>
      <trkpt lat="47.12735" lon="-1.70128">
        <ele>48</ele>
        <time>2021-03-14T12:23:46.000Z</time>
      </trkpt>
      <trkpt lat="47.12722" lon="-1.70135">
        <ele>48</ele>
        <time>2021-03-14T12:23:48.000Z</time>
      </trkpt>
      <trkpt lat="47.1271" lon="-1.70141">
        <ele>48</ele>
        <time>2021-03-14T12:23:50.000Z</time>
      </trkpt>
      <trkpt lat="47.12697" lon="-1.70148">
        <ele>48</ele>
        <time>2021-03-14T12:23:52.000Z</time>
      </trkpt>
      <trkpt lat="47.12685" lon="-1.70154">
        <ele>48</ele>
        <time>2021-03-14T12:23:54.000Z</time>
      </trkpt>
      <trkpt lat="47.12672" lon="-1.70161">
        <ele>48</ele>
        <time>2021-03-14T12:23:56.000Z</time>
      </trkpt>
      <trkpt lat="47.1266" lon="-1.70168">
        <ele>48</ele>
        <time>2021-03-14T12:23:58.000Z</time>
      </trkpt>
      <trkpt lat="47.12647" lon="-1.70175">
        <ele>48</ele>
        <time>2021-03-14T12:24:00.000Z</time>
      </trkpt>
      <trkpt lat="47.12634" lon="-1.70182">
        <ele>48</ele>
        <time>2021-03-14T12:24:02.000Z</time>
      </trkpt>
      <trkpt lat="47.12622" lon="-1.70188">
        <ele>48</ele>
        <time>2021-03-14T12:24:04.000Z</time>
      </trkpt>
      <trkpt lat="47.1261" lon="-1.70195">
        <ele>49</ele>
        <time>2021-03-14T12:24:06.000Z</time>
      </trkpt>
      <trkpt lat="47.12597" lon="-1.70202">
        <ele>49</ele>
        <time>2021-03-14T12:24:08.000Z</time>
      </trkpt>
      <trkpt lat="47.12585" lon="-1.70208">
        <ele>49</ele>
        <time>2021-03-14T12:24:10.000Z</time>
      </trkpt>
      <trkpt lat="47.12572" lon="-1.70215">
        <ele>49</ele>
        <time>2021-03-14T12:24:12.000Z</time>
      </trkpt>
      <trkpt lat="47.12559" lon="-1.70221">
        <ele>48</ele>
        <time>2021-03-14T12:24:14.000Z</time>
      </trkpt>
      <trkpt lat="47.12547" lon="-1.70227">
        <ele>48</ele>
        <time>2021-03-14T12:24:16.000Z</time>
      </trkpt>
      <trkpt lat="47.12534" lon="-1.70234">
        <ele>48</ele>
        <time>2021-03-14T12:24:18.000Z</time>
      </trkpt>
      <trkpt lat="47.12522" lon="-1.7024">
        <ele>48</ele>
        <time>2021-03-14T12:24:20.000Z</time>
      </trkpt>
      <trkpt lat="47.12509" lon="-1.70247">
        <ele>48</ele>
        <time>2021-03-14T12:24:22.000Z</time>
      </trkpt>
      <trkpt lat="47.12497" lon="-1.70253">
        <ele>48</ele>
        <time>2021-03-14T12:24:24.000Z</time>
      </trkpt>
      <trkpt lat="47.12484" lon="-1.7026">
        <ele>49</ele>
        <time>2021-03-14T12:24:26.000Z</time>
      </trkpt>
      <trkpt lat="47.12473" lon="-1.70267">
        <ele>49</ele>
        <time>2021-03-14T12:24:28.000Z</time>
      </trkpt>
      <trkpt lat="47.12461" lon="-1.70275">
        <ele>49</ele>
        <time>2021-03-14T12:24:30.000Z</time>
      </trkpt>
      <trkpt lat="47.12449" lon="-1.70286">
        <ele>49</ele>
        <time>2021-03-14T12:24:32.000Z</time>
      </trkpt>
      <trkpt lat="47.12439" lon="-1.70299">
        <ele>50</ele>
        <time>2021-03-14T12:24:34.000Z</time>
      </trkpt>
      <trkpt lat="47.12431" lon="-1.70314">
        <ele>50</ele>
        <time>2021-03-14T12:24:36.000Z</time>
      </trkpt>
      <trkpt lat="47.12424" lon="-1.70329">
        <ele>51</ele>
        <time>2021-03-14T12:24:38.000Z</time>
      </trkpt>
      <trkpt lat="47.12418" lon="-1.70346">
        <ele>50</ele>
        <time>2021-03-14T12:24:40.000Z</time>
      </trkpt>
      <trkpt lat="47.12414" lon="-1.70365">
        <ele>51</ele>
        <time>2021-03-14T12:24:42.000Z</time>
      </trkpt>
      <trkpt lat="47.12411" lon="-1.70382">
        <ele>51</ele>
        <time>2021-03-14T12:24:44.000Z</time>
      </trkpt>
      <trkpt lat="47.12408" lon="-1.704">
        <ele>50</ele>
        <time>2021-03-14T12:24:46.000Z</time>
      </trkpt>
      <trkpt lat="47.12404" lon="-1.70418">
        <ele>50</ele>
        <time>2021-03-14T12:24:48.000Z</time>
      </trkpt>
      <trkpt lat="47.12399" lon="-1.70435">
        <ele>50</ele>
        <time>2021-03-14T12:24:50.000Z</time>
      </trkpt>
      <trkpt lat="47.12395" lon="-1.70453">
        <ele>50</ele>
        <time>2021-03-14T12:24:52.000Z</time>
      </trkpt>
      <trkpt lat="47.1239" lon="-1.70472">
        <ele>50</ele>
        <time>2021-03-14T12:24:54.000Z</time>
      </trkpt>
      <trkpt lat="47.12384" lon="-1.70492">
        <ele>50</ele>
        <time>2021-03-14T12:24:56.000Z</time>
      </trkpt>
      <trkpt lat="47.12378" lon="-1.70509">
        <ele>50</ele>
        <time>2021-03-14T12:24:58.000Z</time>
      </trkpt>
      <trkpt lat="47.12371" lon="-1.70526">
        <ele>51</ele>
        <time>2021-03-14T12:25:00.000Z</time>
      </trkpt>
      <trkpt lat="47.12363" lon="-1.70542">
        <ele>51</ele>
        <time>2021-03-14T12:25:02.000Z</time>
      </trkpt>
      <trkpt lat="47.12354" lon="-1.70557">
        <ele>51</ele>
        <time>2021-03-14T12:25:04.000Z</time>
      </trkpt>
      <trkpt lat="47.12345" lon="-1.70572">
        <ele>51</ele>
        <time>2021-03-14T12:25:06.000Z</time>
      </trkpt>
      <trkpt lat="47.12336" lon="-1.70586">
        <ele>52</ele>
        <time>2021-03-14T12:25:08.000Z</time>
      </trkpt>
      <trkpt lat="47.12327" lon="-1.70599">
        <ele>52</ele>
        <time>2021-03-14T12:25:10.000Z</time>
      </trkpt>
      <trkpt lat="47.12318" lon="-1.70613">
        <ele>52</ele>
        <time>2021-03-14T12:25:12.000Z</time>
      </trkpt>
      <trkpt lat="47.12309" lon="-1.70626">
        <ele>52</ele>
        <time>2021-03-14T12:25:14.000Z</time>
      </trkpt>
      <trkpt lat="47.123" lon="-1.70639">
        <ele>52</ele>
        <time>2021-03-14T12:25:16.000Z</time>
      </trkpt>
      <trkpt lat="47.12291" lon="-1.70653">
        <ele>52</ele>
        <time>2021-03-14T12:25:18.000Z</time>
      </trkpt>
      <trkpt lat="47.12282" lon="-1.70666">
        <ele>52</ele>
        <time>2021-03-14T12:25:20.000Z</time>
      </trkpt>
      <trkpt lat="47.12273" lon="-1.70679">
        <ele>52</ele>
        <time>2021-03-14T12:25:22.000Z</time>
      </trkpt>
      <trkpt lat="47.12264" lon="-1.70692">
        <ele>52</ele>
        <time>2021-03-14T12:25:24.000Z</time>
      </trkpt>
      <trkpt lat="47.12255" lon="-1.70704">
        <ele>52</ele>
        <time>2021-03-14T12:25:26.000Z</time>
      </trkpt>
      <trkpt lat="47.12246" lon="-1.70715">
        <ele>52</ele>
        <time>2021-03-14T12:25:28.000Z</time>
      </trkpt>
      <trkpt lat="47.12236" lon="-1.70726">
        <ele>52</ele>
        <time>2021-03-14T12:25:30.000Z</time>
      </trkpt>
      <trkpt lat="47.12226" lon="-1.70736">
        <ele>52</ele>
        <time>2021-03-14T12:25:32.000Z</time>
      </trkpt>
      <trkpt lat="47.12216" lon="-1.70745">
        <ele>52</ele>
        <time>2021-03-14T12:25:34.000Z</time>
      </trkpt>
      <trkpt lat="47.12206" lon="-1.70754">
        <ele>52</ele>
        <time>2021-03-14T12:25:36.000Z</time>
      </trkpt>
      <trkpt lat="47.12195" lon="-1.70763">
        <ele>53</ele>
        <time>2021-03-14T12:25:38.000Z</time>
      </trkpt>
      <trkpt lat="47.12184" lon="-1.70771">
        <ele>53</ele>
        <time>2021-03-14T12:25:40.000Z</time>
      </trkpt>
      <trkpt lat="47.12173" lon="-1.70779">
        <ele>53</ele>
        <time>2021-03-14T12:25:42.000Z</time>
      </trkpt>
      <trkpt lat="47.12162" lon="-1.70787">
        <ele>53</ele>
        <time>2021-03-14T12:25:44.000Z</time>
      </trkpt>
      <trkpt lat="47.1215" lon="-1.70794">
        <ele>53</ele>
        <time>2021-03-14T12:25:46.000Z</time>
      </trkpt>
      <trkpt lat="47.12139" lon="-1.70801">
        <ele>53</ele>
        <time>2021-03-14T12:25:48.000Z</time>
      </trkpt>
      <trkpt lat="47.12129" lon="-1.70808">
        <ele>53</ele>
        <time>2021-03-14T12:25:50.000Z</time>
      </trkpt>
      <trkpt lat="47.12117" lon="-1.70815">
        <ele>53</ele>
        <time>2021-03-14T12:25:52.000Z</time>
      </trkpt>
      <trkpt lat="47.12106" lon="-1.70823">
        <ele>54</ele>
        <time>2021-03-14T12:25:54.000Z</time>
      </trkpt>
      <trkpt lat="47.12095" lon="-1.7083">
        <ele>53</ele>
        <time>2021-03-14T12:25:56.000Z</time>
      </trkpt>
      <trkpt lat="47.12084" lon="-1.70837">
        <ele>54</ele>
        <time>2021-03-14T12:25:58.000Z</time>
      </trkpt>
      <trkpt lat="47.12073" lon="-1.70844">
        <ele>53</ele>
        <time>2021-03-14T12:26:00.000Z</time>
      </trkpt>
      <trkpt lat="47.12063" lon="-1.70851">
        <ele>54</ele>
        <time>2021-03-14T12:26:02.000Z</time>
      </trkpt>
      <trkpt lat="47.12052" lon="-1.70858">
        <ele>54</ele>
        <time>2021-03-14T12:26:04.000Z</time>
      </trkpt>
      <trkpt lat="47.12035" lon="-1.70869">
        <ele>54</ele>
        <time>2021-03-14T12:26:07.000Z</time>
      </trkpt>
      <trkpt lat="47.12024" lon="-1.70876">
        <ele>54</ele>
        <time>2021-03-14T12:26:09.000Z</time>
      </trkpt>
      <trkpt lat="47.12013" lon="-1.70884">
        <ele>54</ele>
        <time>2021-03-14T12:26:11.000Z</time>
      </trkpt>
      <trkpt lat="47.12002" lon="-1.70891">
        <ele>54</ele>
        <time>2021-03-14T12:26:13.000Z</time>
      </trkpt>
      <trkpt lat="47.1199" lon="-1.70899">
        <ele>53</ele>
        <time>2021-03-14T12:26:15.000Z</time>
      </trkpt>
      <trkpt lat="47.11978" lon="-1.70906">
        <ele>53</ele>
        <time>2021-03-14T12:26:17.000Z</time>
      </trkpt>
      <trkpt lat="47.11967" lon="-1.70914">
        <ele>53</ele>
        <time>2021-03-14T12:26:19.000Z</time>
      </trkpt>
      <trkpt lat="47.11956" lon="-1.70921">
        <ele>53</ele>
        <time>2021-03-14T12:26:21.000Z</time>
      </trkpt>
      <trkpt lat="47.11944" lon="-1.70928">
        <ele>52</ele>
        <time>2021-03-14T12:26:23.000Z</time>
      </trkpt>
      <trkpt lat="47.11932" lon="-1.70936">
        <ele>52</ele>
        <time>2021-03-14T12:26:25.000Z</time>
      </trkpt>
      <trkpt lat="47.1192" lon="-1.70944">
        <ele>52</ele>
        <time>2021-03-14T12:26:27.000Z</time>
      </trkpt>
      <trkpt lat="47.11908" lon="-1.70953">
        <ele>52</ele>
        <time>2021-03-14T12:26:29.000Z</time>
      </trkpt>
      <trkpt lat="47.11896" lon="-1.7096">
        <ele>52</ele>
        <time>2021-03-14T12:26:31.000Z</time>
      </trkpt>
      <trkpt lat="47.11884" lon="-1.70968">
        <ele>52</ele>
        <time>2021-03-14T12:26:33.000Z</time>
      </trkpt>
      <trkpt lat="47.11871" lon="-1.70976">
        <ele>52</ele>
        <time>2021-03-14T12:26:35.000Z</time>
      </trkpt>
      <trkpt lat="47.11859" lon="-1.70983">
        <ele>52</ele>
        <time>2021-03-14T12:26:37.000Z</time>
      </trkpt>
      <trkpt lat="47.11847" lon="-1.70991">
        <ele>52</ele>
        <time>2021-03-14T12:26:39.000Z</time>
      </trkpt>
      <trkpt lat="47.11836" lon="-1.70999">
        <ele>52</ele>
        <time>2021-03-14T12:26:41.000Z</time>
      </trkpt>
      <trkpt lat="47.11824" lon="-1.71006">
        <ele>52</ele>
        <time>2021-03-14T12:26:43.000Z</time>
      </trkpt>
      <trkpt lat="47.11812" lon="-1.71014">
        <ele>51</ele>
        <time>2021-03-14T12:26:45.000Z</time>
      </trkpt>
      <trkpt lat="47.118" lon="-1.71022">
        <ele>52</ele>
        <time>2021-03-14T12:26:47.000Z</time>
      </trkpt>
      <trkpt lat="47.11789" lon="-1.7103">
        <ele>52</ele>
        <time>2021-03-14T12:26:49.000Z</time>
      </trkpt>
      <trkpt lat="47.11777" lon="-1.71038">
        <ele>52</ele>
        <time>2021-03-14T12:26:51.000Z</time>
      </trkpt>
      <trkpt lat="47.11766" lon="-1.71046">
        <ele>52</ele>
        <time>2021-03-14T12:26:53.000Z</time>
      </trkpt>
      <trkpt lat="47.11754" lon="-1.71053">
        <ele>52</ele>
        <time>2021-03-14T12:26:55.000Z</time>
      </trkpt>
      <trkpt lat="47.11742" lon="-1.71061">
        <ele>53</ele>
        <time>2021-03-14T12:26:57.000Z</time>
      </trkpt>
      <trkpt lat="47.11731" lon="-1.71069">
        <ele>53</ele>
        <time>2021-03-14T12:26:59.000Z</time>
      </trkpt>
      <trkpt lat="47.11719" lon="-1.71076">
        <ele>53</ele>
        <time>2021-03-14T12:27:01.000Z</time>
      </trkpt>
      <trkpt lat="47.11708" lon="-1.71083">
        <ele>54</ele>
        <time>2021-03-14T12:27:03.000Z</time>
      </trkpt>
      <trkpt lat="47.11691" lon="-1.71093">
        <ele>54</ele>
        <time>2021-03-14T12:27:06.000Z</time>
      </trkpt>
      <trkpt lat="47.1168" lon="-1.71101">
        <ele>54</ele>
        <time>2021-03-14T12:27:08.000Z</time>
      </trkpt>
      <trkpt lat="47.11669" lon="-1.71108">
        <ele>54</ele>
        <time>2021-03-14T12:27:10.000Z</time>
      </trkpt>
      <trkpt lat="47.11658" lon="-1.71116">
        <ele>55</ele>
        <time>2021-03-14T12:27:12.000Z</time>
      </trkpt>
      <trkpt lat="47.11647" lon="-1.71124">
        <ele>55</ele>
        <time>2021-03-14T12:27:14.000Z</time>
      </trkpt>
      <trkpt lat="47.11632" lon="-1.71138">
        <ele>54</ele>
        <time>2021-03-14T12:27:17.000Z</time>
      </trkpt>
      <trkpt lat="47.11621" lon="-1.71148">
        <ele>54</ele>
        <time>2021-03-14T12:27:19.000Z</time>
      </trkpt>
      <trkpt lat="47.11606" lon="-1.71164">
        <ele>54</ele>
        <time>2021-03-14T12:27:22.000Z</time>
      </trkpt>
      <trkpt lat="47.11595" lon="-1.71176">
        <ele>54</ele>
        <time>2021-03-14T12:27:24.000Z</time>
      </trkpt>
      <trkpt lat="47.1158" lon="-1.71194">
        <ele>54</ele>
        <time>2021-03-14T12:27:27.000Z</time>
      </trkpt>
      <trkpt lat="47.11571" lon="-1.71207">
        <ele>54</ele>
        <time>2021-03-14T12:27:29.000Z</time>
      </trkpt>
      <trkpt lat="47.11561" lon="-1.71222">
        <ele>54</ele>
        <time>2021-03-14T12:27:31.000Z</time>
      </trkpt>
      <trkpt lat="47.11552" lon="-1.71235">
        <ele>54</ele>
        <time>2021-03-14T12:27:33.000Z</time>
      </trkpt>
      <trkpt lat="47.11539" lon="-1.71257">
        <ele>54</ele>
        <time>2021-03-14T12:27:36.000Z</time>
      </trkpt>
      <trkpt lat="47.11532" lon="-1.71272">
        <ele>54</ele>
        <time>2021-03-14T12:27:38.000Z</time>
      </trkpt>
      <trkpt lat="47.11524" lon="-1.71287">
        <ele>53</ele>
        <time>2021-03-14T12:27:40.000Z</time>
      </trkpt>
      <trkpt lat="47.11516" lon="-1.71302">
        <ele>53</ele>
        <time>2021-03-14T12:27:42.000Z</time>
      </trkpt>
      <trkpt lat="47.11508" lon="-1.71317">
        <ele>53</ele>
        <time>2021-03-14T12:27:44.000Z</time>
      </trkpt>
      <trkpt lat="47.11501" lon="-1.71331">
        <ele>53</ele>
        <time>2021-03-14T12:27:46.000Z</time>
      </trkpt>
      <trkpt lat="47.11494" lon="-1.71345">
        <ele>52</ele>
        <time>2021-03-14T12:27:48.000Z</time>
      </trkpt>
      <trkpt lat="47.11489" lon="-1.71361">
        <ele>52</ele>
        <time>2021-03-14T12:27:51.000Z</time>
      </trkpt>
      <trkpt lat="47.1148" lon="-1.71373">
        <ele>52</ele>
        <time>2021-03-14T12:28:42.000Z</time>
      </trkpt>
      <trkpt lat="47.11471" lon="-1.71389">
        <ele>52</ele>
        <time>2021-03-14T12:28:45.000Z</time>
      </trkpt>
      <trkpt lat="47.11465" lon="-1.71402">
        <ele>52</ele>
        <time>2021-03-14T12:28:47.000Z</time>
      </trkpt>
      <trkpt lat="47.11457" lon="-1.71417">
        <ele>52</ele>
        <time>2021-03-14T12:28:49.000Z</time>
      </trkpt>
      <trkpt lat="47.1145" lon="-1.71432">
        <ele>52</ele>
        <time>2021-03-14T12:28:51.000Z</time>
      </trkpt>
      <trkpt lat="47.11442" lon="-1.71447">
        <ele>52</ele>
        <time>2021-03-14T12:28:53.000Z</time>
      </trkpt>
      <trkpt lat="47.11434" lon="-1.71462">
        <ele>52</ele>
        <time>2021-03-14T12:28:55.000Z</time>
      </trkpt>
      <trkpt lat="47.11427" lon="-1.71477">
        <ele>52</ele>
        <time>2021-03-14T12:28:57.000Z</time>
      </trkpt>
      <trkpt lat="47.11419" lon="-1.71492">
        <ele>52</ele>
        <time>2021-03-14T12:28:59.000Z</time>
      </trkpt>
      <trkpt lat="47.11412" lon="-1.71507">
        <ele>52</ele>
        <time>2021-03-14T12:29:01.000Z</time>
      </trkpt>
      <trkpt lat="47.11404" lon="-1.71521">
        <ele>52</ele>
        <time>2021-03-14T12:29:03.000Z</time>
      </trkpt>
      <trkpt lat="47.11396" lon="-1.71536">
        <ele>52</ele>
        <time>2021-03-14T12:29:05.000Z</time>
      </trkpt>
      <trkpt lat="47.11388" lon="-1.71551">
        <ele>53</ele>
        <time>2021-03-14T12:29:07.000Z</time>
      </trkpt>
      <trkpt lat="47.11381" lon="-1.71566">
        <ele>53</ele>
        <time>2021-03-14T12:29:09.000Z</time>
      </trkpt>
      <trkpt lat="47.11373" lon="-1.71581">
        <ele>52</ele>
        <time>2021-03-14T12:29:11.000Z</time>
      </trkpt>
      <trkpt lat="47.11365" lon="-1.71596">
        <ele>53</ele>
        <time>2021-03-14T12:29:13.000Z</time>
      </trkpt>
      <trkpt lat="47.11358" lon="-1.71611">
        <ele>52</ele>
        <time>2021-03-14T12:29:15.000Z</time>
      </trkpt>
      <trkpt lat="47.11351" lon="-1.71627">
        <ele>52</ele>
        <time>2021-03-14T12:29:17.000Z</time>
      </trkpt>
      <trkpt lat="47.11343" lon="-1.71642">
        <ele>52</ele>
        <time>2021-03-14T12:29:19.000Z</time>
      </trkpt>
      <trkpt lat="47.11335" lon="-1.71656">
        <ele>52</ele>
        <time>2021-03-14T12:29:21.000Z</time>
      </trkpt>
      <trkpt lat="47.11327" lon="-1.71672">
        <ele>52</ele>
        <time>2021-03-14T12:29:23.000Z</time>
      </trkpt>
      <trkpt lat="47.11318" lon="-1.71688">
        <ele>52</ele>
        <time>2021-03-14T12:29:25.000Z</time>
      </trkpt>
      <trkpt lat="47.1131" lon="-1.71704">
        <ele>52</ele>
        <time>2021-03-14T12:29:27.000Z</time>
      </trkpt>
      <trkpt lat="47.11302" lon="-1.7172">
        <ele>52</ele>
        <time>2021-03-14T12:29:29.000Z</time>
      </trkpt>
      <trkpt lat="47.11295" lon="-1.71734">
        <ele>52</ele>
        <time>2021-03-14T12:29:31.000Z</time>
      </trkpt>
      <trkpt lat="47.11283" lon="-1.71757">
        <ele>52</ele>
        <time>2021-03-14T12:29:34.000Z</time>
      </trkpt>
      <trkpt lat="47.11276" lon="-1.71771">
        <ele>53</ele>
        <time>2021-03-14T12:29:36.000Z</time>
      </trkpt>
      <trkpt lat="47.11269" lon="-1.71786">
        <ele>53</ele>
        <time>2021-03-14T12:29:38.000Z</time>
      </trkpt>
      <trkpt lat="47.11262" lon="-1.71802">
        <ele>53</ele>
        <time>2021-03-14T12:29:40.000Z</time>
      </trkpt>
      <trkpt lat="47.11255" lon="-1.71817">
        <ele>54</ele>
        <time>2021-03-14T12:29:42.000Z</time>
      </trkpt>
      <trkpt lat="47.1125" lon="-1.71833">
        <ele>55</ele>
        <time>2021-03-14T12:29:44.000Z</time>
      </trkpt>
      <trkpt lat="47.11244" lon="-1.71848">
        <ele>55</ele>
        <time>2021-03-14T12:29:46.000Z</time>
      </trkpt>
      <trkpt lat="47.1124" lon="-1.71865">
        <ele>56</ele>
        <time>2021-03-14T12:29:48.000Z</time>
      </trkpt>
      <trkpt lat="47.11236" lon="-1.71881">
        <ele>56</ele>
        <time>2021-03-14T12:29:50.000Z</time>
      </trkpt>
      <trkpt lat="47.11231" lon="-1.71897">
        <ele>56</ele>
        <time>2021-03-14T12:29:52.000Z</time>
      </trkpt>
      <trkpt lat="47.11227" lon="-1.71914">
        <ele>57</ele>
        <time>2021-03-14T12:29:54.000Z</time>
      </trkpt>
      <trkpt lat="47.11223" lon="-1.7193">
        <ele>57</ele>
        <time>2021-03-14T12:29:56.000Z</time>
      </trkpt>
      <trkpt lat="47.1122" lon="-1.71946">
        <ele>57</ele>
        <time>2021-03-14T12:29:58.000Z</time>
      </trkpt>
      <trkpt lat="47.11216" lon="-1.71962">
        <ele>58</ele>
        <time>2021-03-14T12:30:00.000Z</time>
      </trkpt>
      <trkpt lat="47.11211" lon="-1.71979">
        <ele>58</ele>
        <time>2021-03-14T12:30:02.000Z</time>
      </trkpt>
      <trkpt lat="47.11207" lon="-1.71995">
        <ele>59</ele>
        <time>2021-03-14T12:30:04.000Z</time>
      </trkpt>
      <trkpt lat="47.11203" lon="-1.72012">
        <ele>59</ele>
        <time>2021-03-14T12:30:06.000Z</time>
      </trkpt>
      <trkpt lat="47.112" lon="-1.72028">
        <ele>59</ele>
        <time>2021-03-14T12:30:08.000Z</time>
      </trkpt>
      <trkpt lat="47.11196" lon="-1.72045">
        <ele>59</ele>
        <time>2021-03-14T12:30:10.000Z</time>
      </trkpt>
      <trkpt lat="47.11191" lon="-1.72061">
        <ele>59</ele>
        <time>2021-03-14T12:30:12.000Z</time>
      </trkpt>
      <trkpt lat="47.11187" lon="-1.72078">
        <ele>59</ele>
        <time>2021-03-14T12:30:14.000Z</time>
      </trkpt>
      <trkpt lat="47.11184" lon="-1.72095">
        <ele>59</ele>
        <time>2021-03-14T12:30:16.000Z</time>
      </trkpt>
      <trkpt lat="47.11179" lon="-1.72112">
        <ele>60</ele>
        <time>2021-03-14T12:30:18.000Z</time>
      </trkpt>
      <trkpt lat="47.11176" lon="-1.72128">
        <ele>60</ele>
        <time>2021-03-14T12:30:20.000Z</time>
      </trkpt>
      <trkpt lat="47.11172" lon="-1.72145">
        <ele>60</ele>
        <time>2021-03-14T12:30:22.000Z</time>
      </trkpt>
      <trkpt lat="47.11168" lon="-1.72162">
        <ele>60</ele>
        <time>2021-03-14T12:30:24.000Z</time>
      </trkpt>
      <trkpt lat="47.11164" lon="-1.72178">
        <ele>60</ele>
        <time>2021-03-14T12:30:26.000Z</time>
      </trkpt>
      <trkpt lat="47.11161" lon="-1.72196">
        <ele>60</ele>
        <time>2021-03-14T12:30:28.000Z</time>
      </trkpt>
      <trkpt lat="47.11157" lon="-1.72214">
        <ele>59</ele>
        <time>2021-03-14T12:30:30.000Z</time>
      </trkpt>
      <trkpt lat="47.11152" lon="-1.72231">
        <ele>59</ele>
        <time>2021-03-14T12:30:32.000Z</time>
      </trkpt>
      <trkpt lat="47.11148" lon="-1.72249">
        <ele>59</ele>
        <time>2021-03-14T12:30:34.000Z</time>
      </trkpt>
      <trkpt lat="47.11144" lon="-1.72267">
        <ele>59</ele>
        <time>2021-03-14T12:30:36.000Z</time>
      </trkpt>
      <trkpt lat="47.11139" lon="-1.72285">
        <ele>58</ele>
        <time>2021-03-14T12:30:38.000Z</time>
      </trkpt>
      <trkpt lat="47.11135" lon="-1.72303">
        <ele>59</ele>
        <time>2021-03-14T12:30:40.000Z</time>
      </trkpt>
      <trkpt lat="47.1113" lon="-1.72321">
        <ele>59</ele>
        <time>2021-03-14T12:30:42.000Z</time>
      </trkpt>
      <trkpt lat="47.11126" lon="-1.72338">
        <ele>59</ele>
        <time>2021-03-14T12:30:44.000Z</time>
      </trkpt>
      <trkpt lat="47.11121" lon="-1.72354">
        <ele>59</ele>
        <time>2021-03-14T12:30:46.000Z</time>
      </trkpt>
      <trkpt lat="47.11117" lon="-1.72372">
        <ele>58</ele>
        <time>2021-03-14T12:30:48.000Z</time>
      </trkpt>
      <trkpt lat="47.11113" lon="-1.72389">
        <ele>58</ele>
        <time>2021-03-14T12:30:50.000Z</time>
      </trkpt>
      <trkpt lat="47.11109" lon="-1.72405">
        <ele>59</ele>
        <time>2021-03-14T12:30:52.000Z</time>
      </trkpt>
      <trkpt lat="47.11105" lon="-1.72421">
        <ele>59</ele>
        <time>2021-03-14T12:30:54.000Z</time>
      </trkpt>
      <trkpt lat="47.11101" lon="-1.72439">
        <ele>59</ele>
        <time>2021-03-14T12:30:56.000Z</time>
      </trkpt>
      <trkpt lat="47.11097" lon="-1.72456">
        <ele>59</ele>
        <time>2021-03-14T12:30:58.000Z</time>
      </trkpt>
      <trkpt lat="47.11094" lon="-1.72474">
        <ele>59</ele>
        <time>2021-03-14T12:31:00.000Z</time>
      </trkpt>
      <trkpt lat="47.1109" lon="-1.72491">
        <ele>59</ele>
        <time>2021-03-14T12:31:02.000Z</time>
      </trkpt>
      <trkpt lat="47.11087" lon="-1.72509">
        <ele>59</ele>
        <time>2021-03-14T12:31:04.000Z</time>
      </trkpt>
      <trkpt lat="47.11085" lon="-1.72526">
        <ele>59</ele>
        <time>2021-03-14T12:31:06.000Z</time>
      </trkpt>
      <trkpt lat="47.11085" lon="-1.72544">
        <ele>60</ele>
        <time>2021-03-14T12:31:08.000Z</time>
      </trkpt>
      <trkpt lat="47.11087" lon="-1.72561">
        <ele>60</ele>
        <time>2021-03-14T12:31:10.000Z</time>
      </trkpt>
      <trkpt lat="47.11091" lon="-1.72577">
        <ele>60</ele>
        <time>2021-03-14T12:31:12.000Z</time>
      </trkpt>
      <trkpt lat="47.11095" lon="-1.72595">
        <ele>60</ele>
        <time>2021-03-14T12:31:14.000Z</time>
      </trkpt>
      <trkpt lat="47.11098" lon="-1.72612">
        <ele>60</ele>
        <time>2021-03-14T12:31:16.000Z</time>
      </trkpt>
      <trkpt lat="47.11102" lon="-1.72629">
        <ele>60</ele>
        <time>2021-03-14T12:31:18.000Z</time>
      </trkpt>
      <trkpt lat="47.11106" lon="-1.72645">
        <ele>60</ele>
        <time>2021-03-14T12:31:20.000Z</time>
      </trkpt>
      <trkpt lat="47.1111" lon="-1.72661">
        <ele>60</ele>
        <time>2021-03-14T12:31:22.000Z</time>
      </trkpt>
      <trkpt lat="47.11114" lon="-1.72677">
        <ele>60</ele>
        <time>2021-03-14T12:31:24.000Z</time>
      </trkpt>
      <trkpt lat="47.11118" lon="-1.72693">
        <ele>60</ele>
        <time>2021-03-14T12:31:26.000Z</time>
      </trkpt>
      <trkpt lat="47.11122" lon="-1.72709">
        <ele>60</ele>
        <time>2021-03-14T12:31:28.000Z</time>
      </trkpt>
      <trkpt lat="47.11126" lon="-1.72724">
        <ele>60</ele>
        <time>2021-03-14T12:31:30.000Z</time>
      </trkpt>
      <trkpt lat="47.1113" lon="-1.72739">
        <ele>60</ele>
        <time>2021-03-14T12:31:32.000Z</time>
      </trkpt>
      <trkpt lat="47.11134" lon="-1.72754">
        <ele>60</ele>
        <time>2021-03-14T12:31:34.000Z</time>
      </trkpt>
      <trkpt lat="47.11138" lon="-1.7277">
        <ele>60</ele>
        <time>2021-03-14T12:31:36.000Z</time>
      </trkpt>
      <trkpt lat="47.11142" lon="-1.72786">
        <ele>61</ele>
        <time>2021-03-14T12:31:38.000Z</time>
      </trkpt>
      <trkpt lat="47.11146" lon="-1.72803">
        <ele>60</ele>
        <time>2021-03-14T12:31:40.000Z</time>
      </trkpt>
      <trkpt lat="47.11149" lon="-1.7282">
        <ele>60</ele>
        <time>2021-03-14T12:31:42.000Z</time>
      </trkpt>
      <trkpt lat="47.11153" lon="-1.72837">
        <ele>60</ele>
        <time>2021-03-14T12:31:44.000Z</time>
      </trkpt>
      <trkpt lat="47.11156" lon="-1.72854">
        <ele>60</ele>
        <time>2021-03-14T12:31:46.000Z</time>
      </trkpt>
      <trkpt lat="47.1116" lon="-1.72871">
        <ele>60</ele>
        <time>2021-03-14T12:31:48.000Z</time>
      </trkpt>
      <trkpt lat="47.11163" lon="-1.72888">
        <ele>60</ele>
        <time>2021-03-14T12:31:50.000Z</time>
      </trkpt>
      <trkpt lat="47.11167" lon="-1.72905">
        <ele>61</ele>
        <time>2021-03-14T12:31:52.000Z</time>
      </trkpt>
      <trkpt lat="47.11171" lon="-1.72923">
        <ele>61</ele>
        <time>2021-03-14T12:31:54.000Z</time>
      </trkpt>
      <trkpt lat="47.11175" lon="-1.7294">
        <ele>61</ele>
        <time>2021-03-14T12:31:56.000Z</time>
      </trkpt>
      <trkpt lat="47.11179" lon="-1.72956">
        <ele>61</ele>
        <time>2021-03-14T12:31:58.000Z</time>
      </trkpt>
      <trkpt lat="47.11183" lon="-1.72973">
        <ele>61</ele>
        <time>2021-03-14T12:32:00.000Z</time>
      </trkpt>
      <trkpt lat="47.11187" lon="-1.7299">
        <ele>61</ele>
        <time>2021-03-14T12:32:02.000Z</time>
      </trkpt>
      <trkpt lat="47.11191" lon="-1.73007">
        <ele>61</ele>
        <time>2021-03-14T12:32:04.000Z</time>
      </trkpt>
      <trkpt lat="47.11195" lon="-1.73023">
        <ele>61</ele>
        <time>2021-03-14T12:32:06.000Z</time>
      </trkpt>
      <trkpt lat="47.11199" lon="-1.73039">
        <ele>61</ele>
        <time>2021-03-14T12:32:08.000Z</time>
      </trkpt>
      <trkpt lat="47.11203" lon="-1.73055">
        <ele>62</ele>
        <time>2021-03-14T12:32:10.000Z</time>
      </trkpt>
      <trkpt lat="47.11207" lon="-1.73072">
        <ele>62</ele>
        <time>2021-03-14T12:32:12.000Z</time>
      </trkpt>
      <trkpt lat="47.11211" lon="-1.73089">
        <ele>61</ele>
        <time>2021-03-14T12:32:14.000Z</time>
      </trkpt>
      <trkpt lat="47.11215" lon="-1.73105">
        <ele>61</ele>
        <time>2021-03-14T12:32:16.000Z</time>
      </trkpt>
      <trkpt lat="47.11219" lon="-1.73122">
        <ele>61</ele>
        <time>2021-03-14T12:32:18.000Z</time>
      </trkpt>
      <trkpt lat="47.11223" lon="-1.73138">
        <ele>60</ele>
        <time>2021-03-14T12:32:20.000Z</time>
      </trkpt>
      <trkpt lat="47.11227" lon="-1.73155">
        <ele>60</ele>
        <time>2021-03-14T12:32:22.000Z</time>
      </trkpt>
      <trkpt lat="47.11231" lon="-1.73171">
        <ele>60</ele>
        <time>2021-03-14T12:32:24.000Z</time>
      </trkpt>
      <trkpt lat="47.11235" lon="-1.73188">
        <ele>60</ele>
        <time>2021-03-14T12:32:26.000Z</time>
      </trkpt>
      <trkpt lat="47.11239" lon="-1.73205">
        <ele>60</ele>
        <time>2021-03-14T12:32:28.000Z</time>
      </trkpt>
      <trkpt lat="47.11242" lon="-1.73222">
        <ele>60</ele>
        <time>2021-03-14T12:32:30.000Z</time>
      </trkpt>
      <trkpt lat="47.11246" lon="-1.73239">
        <ele>59</ele>
        <time>2021-03-14T12:32:32.000Z</time>
      </trkpt>
      <trkpt lat="47.1125" lon="-1.73256">
        <ele>59</ele>
        <time>2021-03-14T12:32:34.000Z</time>
      </trkpt>
      <trkpt lat="47.11253" lon="-1.73273">
        <ele>58</ele>
        <time>2021-03-14T12:32:36.000Z</time>
      </trkpt>
      <trkpt lat="47.11256" lon="-1.73291">
        <ele>58</ele>
        <time>2021-03-14T12:32:38.000Z</time>
      </trkpt>
      <trkpt lat="47.11257" lon="-1.7331">
        <ele>58</ele>
        <time>2021-03-14T12:32:40.000Z</time>
      </trkpt>
      <trkpt lat="47.11259" lon="-1.73328">
        <ele>57</ele>
        <time>2021-03-14T12:32:42.000Z</time>
      </trkpt>
      <trkpt lat="47.1126" lon="-1.73347">
        <ele>57</ele>
        <time>2021-03-14T12:32:44.000Z</time>
      </trkpt>
      <trkpt lat="47.11262" lon="-1.73365">
        <ele>56</ele>
        <time>2021-03-14T12:32:46.000Z</time>
      </trkpt>
      <trkpt lat="47.11262" lon="-1.73384">
        <ele>56</ele>
        <time>2021-03-14T12:32:48.000Z</time>
      </trkpt>
      <trkpt lat="47.11264" lon="-1.73403">
        <ele>56</ele>
        <time>2021-03-14T12:32:50.000Z</time>
      </trkpt>
      <trkpt lat="47.11265" lon="-1.73421">
        <ele>56</ele>
        <time>2021-03-14T12:32:52.000Z</time>
      </trkpt>
      <trkpt lat="47.11266" lon="-1.7344">
        <ele>56</ele>
        <time>2021-03-14T12:32:54.000Z</time>
      </trkpt>
      <trkpt lat="47.11268" lon="-1.73459">
        <ele>56</ele>
        <time>2021-03-14T12:32:56.000Z</time>
      </trkpt>
      <trkpt lat="47.11269" lon="-1.73477">
        <ele>55</ele>
        <time>2021-03-14T12:32:58.000Z</time>
      </trkpt>
      <trkpt lat="47.11271" lon="-1.73496">
        <ele>55</ele>
        <time>2021-03-14T12:33:00.000Z</time>
      </trkpt>
      <trkpt lat="47.11273" lon="-1.73515">
        <ele>54</ele>
        <time>2021-03-14T12:33:02.000Z</time>
      </trkpt>
      <trkpt lat="47.11276" lon="-1.73533">
        <ele>54</ele>
        <time>2021-03-14T12:33:04.000Z</time>
      </trkpt>
      <trkpt lat="47.11284" lon="-1.73549">
        <ele>54</ele>
        <time>2021-03-14T12:33:06.000Z</time>
      </trkpt>
      <trkpt lat="47.11292" lon="-1.73564">
        <ele>54</ele>
        <time>2021-03-14T12:33:08.000Z</time>
      </trkpt>
      <trkpt lat="47.11299" lon="-1.73579">
        <ele>54</ele>
        <time>2021-03-14T12:33:10.000Z</time>
      </trkpt>
      <trkpt lat="47.11307" lon="-1.73595">
        <ele>54</ele>
        <time>2021-03-14T12:33:12.000Z</time>
      </trkpt>
      <trkpt lat="47.11314" lon="-1.7361">
        <ele>54</ele>
        <time>2021-03-14T12:33:14.000Z</time>
      </trkpt>
      <trkpt lat="47.11321" lon="-1.73627">
        <ele>54</ele>
        <time>2021-03-14T12:33:16.000Z</time>
      </trkpt>
      <trkpt lat="47.11329" lon="-1.73643">
        <ele>54</ele>
        <time>2021-03-14T12:33:18.000Z</time>
      </trkpt>
      <trkpt lat="47.11337" lon="-1.73658">
        <ele>54</ele>
        <time>2021-03-14T12:33:20.000Z</time>
      </trkpt>
      <trkpt lat="47.11345" lon="-1.73673">
        <ele>54</ele>
        <time>2021-03-14T12:33:22.000Z</time>
      </trkpt>
      <trkpt lat="47.11352" lon="-1.73689">
        <ele>53</ele>
        <time>2021-03-14T12:33:24.000Z</time>
      </trkpt>
      <trkpt lat="47.11359" lon="-1.73704">
        <ele>54</ele>
        <time>2021-03-14T12:33:26.000Z</time>
      </trkpt>
      <trkpt lat="47.11366" lon="-1.73719">
        <ele>54</ele>
        <time>2021-03-14T12:33:28.000Z</time>
      </trkpt>
      <trkpt lat="47.11373" lon="-1.73735">
        <ele>54</ele>
        <time>2021-03-14T12:33:30.000Z</time>
      </trkpt>
      <trkpt lat="47.11379" lon="-1.73752">
        <ele>54</ele>
        <time>2021-03-14T12:33:32.000Z</time>
      </trkpt>
      <trkpt lat="47.11385" lon="-1.73769">
        <ele>54</ele>
        <time>2021-03-14T12:33:34.000Z</time>
      </trkpt>
      <trkpt lat="47.11391" lon="-1.73786">
        <ele>54</ele>
        <time>2021-03-14T12:33:36.000Z</time>
      </trkpt>
      <trkpt lat="47.11397" lon="-1.73804">
        <ele>54</ele>
        <time>2021-03-14T12:33:38.000Z</time>
      </trkpt>
      <trkpt lat="47.11402" lon="-1.73821">
        <ele>54</ele>
        <time>2021-03-14T12:33:40.000Z</time>
      </trkpt>
      <trkpt lat="47.11407" lon="-1.73838">
        <ele>54</ele>
        <time>2021-03-14T12:33:42.000Z</time>
      </trkpt>
      <trkpt lat="47.11413" lon="-1.73855">
        <ele>54</ele>
        <time>2021-03-14T12:33:44.000Z</time>
      </trkpt>
      <trkpt lat="47.11418" lon="-1.73873">
        <ele>54</ele>
        <time>2021-03-14T12:33:46.000Z</time>
      </trkpt>
      <trkpt lat="47.11423" lon="-1.7389">
        <ele>54</ele>
        <time>2021-03-14T12:33:48.000Z</time>
      </trkpt>
      <trkpt lat="47.11429" lon="-1.73908">
        <ele>53</ele>
        <time>2021-03-14T12:33:50.000Z</time>
      </trkpt>
      <trkpt lat="47.11435" lon="-1.73926">
        <ele>53</ele>
        <time>2021-03-14T12:33:52.000Z</time>
      </trkpt>
      <trkpt lat="47.11443" lon="-1.73944">
        <ele>52</ele>
        <time>2021-03-14T12:33:54.000Z</time>
      </trkpt>
      <trkpt lat="47.11453" lon="-1.7396">
        <ele>53</ele>
        <time>2021-03-14T12:33:56.000Z</time>
      </trkpt>
      <trkpt lat="47.11464" lon="-1.73973">
        <ele>52</ele>
        <time>2021-03-14T12:33:58.000Z</time>
      </trkpt>
      <trkpt lat="47.11475" lon="-1.73984">
        <ele>52</ele>
        <time>2021-03-14T12:34:00.000Z</time>
      </trkpt>
      <trkpt lat="47.11486" lon="-1.73989">
        <ele>53</ele>
        <time>2021-03-14T12:34:02.000Z</time>
      </trkpt>
      <trkpt lat="47.11497" lon="-1.73993">
        <ele>53</ele>
        <time>2021-03-14T12:34:04.000Z</time>
      </trkpt>
      <trkpt lat="47.11506" lon="-1.74001">
        <ele>52</ele>
        <time>2021-03-14T12:34:06.000Z</time>
      </trkpt>
      <trkpt lat="47.11507" lon="-1.74019">
        <ele>52</ele>
        <time>2021-03-14T12:34:08.000Z</time>
      </trkpt>
      <trkpt lat="47.11501" lon="-1.74036">
        <ele>52</ele>
        <time>2021-03-14T12:34:10.000Z</time>
      </trkpt>
      <trkpt lat="47.11493" lon="-1.7405">
        <ele>52</ele>
        <time>2021-03-14T12:34:12.000Z</time>
      </trkpt>
      <trkpt lat="47.11483" lon="-1.74063">
        <ele>52</ele>
        <time>2021-03-14T12:34:14.000Z</time>
      </trkpt>
      <trkpt lat="47.11473" lon="-1.74076">
        <ele>53</ele>
        <time>2021-03-14T12:34:16.000Z</time>
      </trkpt>
      <trkpt lat="47.11464" lon="-1.74089">
        <ele>53</ele>
        <time>2021-03-14T12:34:18.000Z</time>
      </trkpt>
      <trkpt lat="47.11455" lon="-1.74104">
        <ele>52</ele>
        <time>2021-03-14T12:34:20.000Z</time>
      </trkpt>
      <trkpt lat="47.11447" lon="-1.74119">
        <ele>52</ele>
        <time>2021-03-14T12:34:22.000Z</time>
      </trkpt>
      <trkpt lat="47.11441" lon="-1.74136">
        <ele>52</ele>
        <time>2021-03-14T12:34:24.000Z</time>
      </trkpt>
      <trkpt lat="47.11437" lon="-1.74153">
        <ele>52</ele>
        <time>2021-03-14T12:34:26.000Z</time>
      </trkpt>
      <trkpt lat="47.11434" lon="-1.74172">
        <ele>52</ele>
        <time>2021-03-14T12:34:28.000Z</time>
      </trkpt>
      <trkpt lat="47.11432" lon="-1.74191">
        <ele>52</ele>
        <time>2021-03-14T12:34:30.000Z</time>
      </trkpt>
      <trkpt lat="47.11431" lon="-1.74211">
        <ele>53</ele>
        <time>2021-03-14T12:34:32.000Z</time>
      </trkpt>
      <trkpt lat="47.11429" lon="-1.7423">
        <ele>53</ele>
        <time>2021-03-14T12:34:34.000Z</time>
      </trkpt>
      <trkpt lat="47.11429" lon="-1.74249">
        <ele>53</ele>
        <time>2021-03-14T12:34:36.000Z</time>
      </trkpt>
      <trkpt lat="47.11431" lon="-1.74268">
        <ele>54</ele>
        <time>2021-03-14T12:34:38.000Z</time>
      </trkpt>
      <trkpt lat="47.11434" lon="-1.74287">
        <ele>54</ele>
        <time>2021-03-14T12:34:40.000Z</time>
      </trkpt>
      <trkpt lat="47.11436" lon="-1.74305">
        <ele>55</ele>
        <time>2021-03-14T12:34:42.000Z</time>
      </trkpt>
      <trkpt lat="47.11437" lon="-1.74323">
        <ele>55</ele>
        <time>2021-03-14T12:34:44.000Z</time>
      </trkpt>
      <trkpt lat="47.11436" lon="-1.7434">
        <ele>54</ele>
        <time>2021-03-14T12:34:46.000Z</time>
      </trkpt>
      <trkpt lat="47.1143" lon="-1.74357">
        <ele>54</ele>
        <time>2021-03-14T12:34:48.000Z</time>
      </trkpt>
      <trkpt lat="47.11423" lon="-1.74374">
        <ele>54</ele>
        <time>2021-03-14T12:34:50.000Z</time>
      </trkpt>
      <trkpt lat="47.11418" lon="-1.74393">
        <ele>54</ele>
        <time>2021-03-14T12:34:52.000Z</time>
      </trkpt>
      <trkpt lat="47.11415" lon="-1.74411">
        <ele>54</ele>
        <time>2021-03-14T12:34:54.000Z</time>
      </trkpt>
      <trkpt lat="47.11413" lon="-1.74429">
        <ele>54</ele>
        <time>2021-03-14T12:34:56.000Z</time>
      </trkpt>
      <trkpt lat="47.1141" lon="-1.74447">
        <ele>54</ele>
        <time>2021-03-14T12:34:58.000Z</time>
      </trkpt>
      <trkpt lat="47.11406" lon="-1.74465">
        <ele>54</ele>
        <time>2021-03-14T12:35:00.000Z</time>
      </trkpt>
      <trkpt lat="47.11402" lon="-1.74482">
        <ele>54</ele>
        <time>2021-03-14T12:35:02.000Z</time>
      </trkpt>
      <trkpt lat="47.11398" lon="-1.74501">
        <ele>54</ele>
        <time>2021-03-14T12:35:04.000Z</time>
      </trkpt>
      <trkpt lat="47.11394" lon="-1.74519">
        <ele>54</ele>
        <time>2021-03-14T12:35:06.000Z</time>
      </trkpt>
      <trkpt lat="47.11389" lon="-1.74538">
        <ele>54</ele>
        <time>2021-03-14T12:35:08.000Z</time>
      </trkpt>
      <trkpt lat="47.11386" lon="-1.74556">
        <ele>54</ele>
        <time>2021-03-14T12:35:10.000Z</time>
      </trkpt>
      <trkpt lat="47.11382" lon="-1.74574">
        <ele>55</ele>
        <time>2021-03-14T12:35:12.000Z</time>
      </trkpt>
      <trkpt lat="47.11381" lon="-1.74593">
        <ele>55</ele>
        <time>2021-03-14T12:35:14.000Z</time>
      </trkpt>
      <trkpt lat="47.1138" lon="-1.74613">
        <ele>55</ele>
        <time>2021-03-14T12:35:16.000Z</time>
      </trkpt>
      <trkpt lat="47.1138" lon="-1.74632">
        <ele>55</ele>
        <time>2021-03-14T12:35:18.000Z</time>
      </trkpt>
      <trkpt lat="47.11379" lon="-1.74652">
        <ele>55</ele>
        <time>2021-03-14T12:35:20.000Z</time>
      </trkpt>
      <trkpt lat="47.11378" lon="-1.74672">
        <ele>55</ele>
        <time>2021-03-14T12:35:22.000Z</time>
      </trkpt>
      <trkpt lat="47.11377" lon="-1.74691">
        <ele>55</ele>
        <time>2021-03-14T12:35:24.000Z</time>
      </trkpt>
      <trkpt lat="47.11377" lon="-1.7471">
        <ele>55</ele>
        <time>2021-03-14T12:35:26.000Z</time>
      </trkpt>
      <trkpt lat="47.11376" lon="-1.74729">
        <ele>55</ele>
        <time>2021-03-14T12:35:28.000Z</time>
      </trkpt>
      <trkpt lat="47.11375" lon="-1.74748">
        <ele>55</ele>
        <time>2021-03-14T12:35:30.000Z</time>
      </trkpt>
      <trkpt lat="47.11372" lon="-1.74765">
        <ele>55</ele>
        <time>2021-03-14T12:35:32.000Z</time>
      </trkpt>
      <trkpt lat="47.11369" lon="-1.74783">
        <ele>55</ele>
        <time>2021-03-14T12:35:34.000Z</time>
      </trkpt>
      <trkpt lat="47.11366" lon="-1.74801">
        <ele>55</ele>
        <time>2021-03-14T12:35:36.000Z</time>
      </trkpt>
      <trkpt lat="47.11363" lon="-1.74819">
        <ele>56</ele>
        <time>2021-03-14T12:35:38.000Z</time>
      </trkpt>
      <trkpt lat="47.11361" lon="-1.74837">
        <ele>56</ele>
        <time>2021-03-14T12:35:40.000Z</time>
      </trkpt>
      <trkpt lat="47.1136" lon="-1.74855">
        <ele>56</ele>
        <time>2021-03-14T12:35:42.000Z</time>
      </trkpt>
      <trkpt lat="47.1136" lon="-1.74872">
        <ele>56</ele>
        <time>2021-03-14T12:35:44.000Z</time>
      </trkpt>
      <trkpt lat="47.11361" lon="-1.7489">
        <ele>56</ele>
        <time>2021-03-14T12:35:46.000Z</time>
      </trkpt>
      <trkpt lat="47.11363" lon="-1.74907">
        <ele>57</ele>
        <time>2021-03-14T12:35:48.000Z</time>
      </trkpt>
      <trkpt lat="47.11364" lon="-1.74923">
        <ele>57</ele>
        <time>2021-03-14T12:35:50.000Z</time>
      </trkpt>
      <trkpt lat="47.11366" lon="-1.7494">
        <ele>57</ele>
        <time>2021-03-14T12:35:52.000Z</time>
      </trkpt>
      <trkpt lat="47.11368" lon="-1.74957">
        <ele>57</ele>
        <time>2021-03-14T12:35:54.000Z</time>
      </trkpt>
      <trkpt lat="47.1137" lon="-1.74974">
        <ele>57</ele>
        <time>2021-03-14T12:35:56.000Z</time>
      </trkpt>
      <trkpt lat="47.11371" lon="-1.74991">
        <ele>57</ele>
        <time>2021-03-14T12:35:58.000Z</time>
      </trkpt>
      <trkpt lat="47.11371" lon="-1.75008">
        <ele>58</ele>
        <time>2021-03-14T12:36:00.000Z</time>
      </trkpt>
      <trkpt lat="47.1137" lon="-1.75024">
        <ele>57</ele>
        <time>2021-03-14T12:36:02.000Z</time>
      </trkpt>
      <trkpt lat="47.11368" lon="-1.75041">
        <ele>57</ele>
        <time>2021-03-14T12:36:04.000Z</time>
      </trkpt>
      <trkpt lat="47.11365" lon="-1.75058">
        <ele>57</ele>
        <time>2021-03-14T12:36:06.000Z</time>
      </trkpt>
      <trkpt lat="47.1136" lon="-1.75074">
        <ele>57</ele>
        <time>2021-03-14T12:36:08.000Z</time>
      </trkpt>
      <trkpt lat="47.11355" lon="-1.75089">
        <ele>57</ele>
        <time>2021-03-14T12:36:10.000Z</time>
      </trkpt>
      <trkpt lat="47.1135" lon="-1.75105">
        <ele>57</ele>
        <time>2021-03-14T12:36:12.000Z</time>
      </trkpt>
      <trkpt lat="47.11346" lon="-1.75121">
        <ele>57</ele>
        <time>2021-03-14T12:36:14.000Z</time>
      </trkpt>
      <trkpt lat="47.11341" lon="-1.75136">
        <ele>57</ele>
        <time>2021-03-14T12:36:16.000Z</time>
      </trkpt>
      <trkpt lat="47.11337" lon="-1.75151">
        <ele>57</ele>
        <time>2021-03-14T12:36:18.000Z</time>
      </trkpt>
      <trkpt lat="47.11333" lon="-1.75166">
        <ele>57</ele>
        <time>2021-03-14T12:36:20.000Z</time>
      </trkpt>
      <trkpt lat="47.11329" lon="-1.75181">
        <ele>57</ele>
        <time>2021-03-14T12:36:22.000Z</time>
      </trkpt>
      <trkpt lat="47.11327" lon="-1.75197">
        <ele>57</ele>
        <time>2021-03-14T12:36:24.000Z</time>
      </trkpt>
      <trkpt lat="47.11324" lon="-1.75213">
        <ele>58</ele>
        <time>2021-03-14T12:36:26.000Z</time>
      </trkpt>
      <trkpt lat="47.1132" lon="-1.75228">
        <ele>58</ele>
        <time>2021-03-14T12:36:28.000Z</time>
      </trkpt>
      <trkpt lat="47.11318" lon="-1.75244">
        <ele>58</ele>
        <time>2021-03-14T12:36:30.000Z</time>
      </trkpt>
      <trkpt lat="47.11315" lon="-1.75259">
        <ele>58</ele>
        <time>2021-03-14T12:36:32.000Z</time>
      </trkpt>
      <trkpt lat="47.11313" lon="-1.75276">
        <ele>58</ele>
        <time>2021-03-14T12:36:34.000Z</time>
      </trkpt>
      <trkpt lat="47.1131" lon="-1.75292">
        <ele>58</ele>
        <time>2021-03-14T12:36:36.000Z</time>
      </trkpt>
      <trkpt lat="47.11307" lon="-1.75308">
        <ele>59</ele>
        <time>2021-03-14T12:36:38.000Z</time>
      </trkpt>
      <trkpt lat="47.11302" lon="-1.75324">
        <ele>58</ele>
        <time>2021-03-14T12:36:40.000Z</time>
      </trkpt>
      <trkpt lat="47.11296" lon="-1.75339">
        <ele>58</ele>
        <time>2021-03-14T12:36:42.000Z</time>
      </trkpt>
      <trkpt lat="47.11289" lon="-1.75355">
        <ele>58</ele>
        <time>2021-03-14T12:36:44.000Z</time>
      </trkpt>
      <trkpt lat="47.11281" lon="-1.7537">
        <ele>57</ele>
        <time>2021-03-14T12:36:46.000Z</time>
      </trkpt>
      <trkpt lat="47.11272" lon="-1.75385">
        <ele>57</ele>
        <time>2021-03-14T12:36:48.000Z</time>
      </trkpt>
      <trkpt lat="47.11264" lon="-1.754">
        <ele>57</ele>
        <time>2021-03-14T12:36:50.000Z</time>
      </trkpt>
      <trkpt lat="47.11256" lon="-1.75416">
        <ele>56</ele>
        <time>2021-03-14T12:36:52.000Z</time>
      </trkpt>
      <trkpt lat="47.11248" lon="-1.75433">
        <ele>56</ele>
        <time>2021-03-14T12:36:54.000Z</time>
      </trkpt>
      <trkpt lat="47.1124" lon="-1.75449">
        <ele>55</ele>
        <time>2021-03-14T12:36:56.000Z</time>
      </trkpt>
      <trkpt lat="47.11232" lon="-1.75466">
        <ele>55</ele>
        <time>2021-03-14T12:36:58.000Z</time>
      </trkpt>
      <trkpt lat="47.11224" lon="-1.75482">
        <ele>54</ele>
        <time>2021-03-14T12:37:00.000Z</time>
      </trkpt>
      <trkpt lat="47.11215" lon="-1.75498">
        <ele>53</ele>
        <time>2021-03-14T12:37:02.000Z</time>
      </trkpt>
      <trkpt lat="47.11203" lon="-1.75511">
        <ele>53</ele>
        <time>2021-03-14T12:37:04.000Z</time>
      </trkpt>
      <trkpt lat="47.1119" lon="-1.75521">
        <ele>53</ele>
        <time>2021-03-14T12:37:06.000Z</time>
      </trkpt>
      <trkpt lat="47.11177" lon="-1.75529">
        <ele>52</ele>
        <time>2021-03-14T12:37:08.000Z</time>
      </trkpt>
      <trkpt lat="47.11164" lon="-1.75534">
        <ele>52</ele>
        <time>2021-03-14T12:37:10.000Z</time>
      </trkpt>
      <trkpt lat="47.11151" lon="-1.75541">
        <ele>51</ele>
        <time>2021-03-14T12:37:12.000Z</time>
      </trkpt>
      <trkpt lat="47.1114" lon="-1.75552">
        <ele>51</ele>
        <time>2021-03-14T12:37:14.000Z</time>
      </trkpt>
      <trkpt lat="47.11131" lon="-1.75567">
        <ele>51</ele>
        <time>2021-03-14T12:37:16.000Z</time>
      </trkpt>
      <trkpt lat="47.11126" lon="-1.75584">
        <ele>52</ele>
        <time>2021-03-14T12:37:18.000Z</time>
      </trkpt>
      <trkpt lat="47.11121" lon="-1.756">
        <ele>52</ele>
        <time>2021-03-14T12:37:20.000Z</time>
      </trkpt>
      <trkpt lat="47.11116" lon="-1.75617">
        <ele>53</ele>
        <time>2021-03-14T12:37:22.000Z</time>
      </trkpt>
      <trkpt lat="47.11112" lon="-1.75633">
        <ele>53</ele>
        <time>2021-03-14T12:37:24.000Z</time>
      </trkpt>
      <trkpt lat="47.11108" lon="-1.75648">
        <ele>54</ele>
        <time>2021-03-14T12:37:26.000Z</time>
      </trkpt>
      <trkpt lat="47.11104" lon="-1.75665">
        <ele>54</ele>
        <time>2021-03-14T12:37:28.000Z</time>
      </trkpt>
      <trkpt lat="47.111" lon="-1.75681">
        <ele>55</ele>
        <time>2021-03-14T12:37:30.000Z</time>
      </trkpt>
      <trkpt lat="47.11096" lon="-1.75697">
        <ele>55</ele>
        <time>2021-03-14T12:37:32.000Z</time>
      </trkpt>
      <trkpt lat="47.11091" lon="-1.75713">
        <ele>55</ele>
        <time>2021-03-14T12:37:34.000Z</time>
      </trkpt>
      <trkpt lat="47.11085" lon="-1.75727">
        <ele>55</ele>
        <time>2021-03-14T12:37:36.000Z</time>
      </trkpt>
      <trkpt lat="47.11077" lon="-1.75741">
        <ele>55</ele>
        <time>2021-03-14T12:37:38.000Z</time>
      </trkpt>
      <trkpt lat="47.11068" lon="-1.75754">
        <ele>55</ele>
        <time>2021-03-14T12:37:40.000Z</time>
      </trkpt>
      <trkpt lat="47.11059" lon="-1.75766">
        <ele>55</ele>
        <time>2021-03-14T12:37:42.000Z</time>
      </trkpt>
      <trkpt lat="47.11049" lon="-1.75779">
        <ele>55</ele>
        <time>2021-03-14T12:37:44.000Z</time>
      </trkpt>
      <trkpt lat="47.1104" lon="-1.75791">
        <ele>55</ele>
        <time>2021-03-14T12:37:46.000Z</time>
      </trkpt>
      <trkpt lat="47.11031" lon="-1.75802">
        <ele>55</ele>
        <time>2021-03-14T12:37:48.000Z</time>
      </trkpt>
      <trkpt lat="47.11022" lon="-1.75815">
        <ele>55</ele>
        <time>2021-03-14T12:37:50.000Z</time>
      </trkpt>
      <trkpt lat="47.11012" lon="-1.75826">
        <ele>55</ele>
        <time>2021-03-14T12:37:52.000Z</time>
      </trkpt>
      <trkpt lat="47.11002" lon="-1.75837">
        <ele>55</ele>
        <time>2021-03-14T12:37:54.000Z</time>
      </trkpt>
      <trkpt lat="47.10991" lon="-1.75844">
        <ele>55</ele>
        <time>2021-03-14T12:37:56.000Z</time>
      </trkpt>
      <trkpt lat="47.10978" lon="-1.75848">
        <ele>55</ele>
        <time>2021-03-14T12:37:58.000Z</time>
      </trkpt>
      <trkpt lat="47.10966" lon="-1.75851">
        <ele>55</ele>
        <time>2021-03-14T12:38:00.000Z</time>
      </trkpt>
      <trkpt lat="47.10953" lon="-1.75853">
        <ele>55</ele>
        <time>2021-03-14T12:38:02.000Z</time>
      </trkpt>
      <trkpt lat="47.1094" lon="-1.75855">
        <ele>55</ele>
        <time>2021-03-14T12:38:04.000Z</time>
      </trkpt>
      <trkpt lat="47.10927" lon="-1.75858">
        <ele>55</ele>
        <time>2021-03-14T12:38:06.000Z</time>
      </trkpt>
      <trkpt lat="47.10914" lon="-1.75861">
        <ele>55</ele>
        <time>2021-03-14T12:38:08.000Z</time>
      </trkpt>
      <trkpt lat="47.10901" lon="-1.75865">
        <ele>55</ele>
        <time>2021-03-14T12:38:10.000Z</time>
      </trkpt>
      <trkpt lat="47.1089" lon="-1.75874">
        <ele>55</ele>
        <time>2021-03-14T12:38:12.000Z</time>
      </trkpt>
      <trkpt lat="47.1088" lon="-1.75888">
        <ele>55</ele>
        <time>2021-03-14T12:38:14.000Z</time>
      </trkpt>
      <trkpt lat="47.10873" lon="-1.75902">
        <ele>56</ele>
        <time>2021-03-14T12:38:16.000Z</time>
      </trkpt>
      <trkpt lat="47.10866" lon="-1.75918">
        <ele>56</ele>
        <time>2021-03-14T12:38:18.000Z</time>
      </trkpt>
      <trkpt lat="47.1086" lon="-1.75935">
        <ele>56</ele>
        <time>2021-03-14T12:38:20.000Z</time>
      </trkpt>
      <trkpt lat="47.10856" lon="-1.75952">
        <ele>56</ele>
        <time>2021-03-14T12:38:22.000Z</time>
      </trkpt>
      <trkpt lat="47.10852" lon="-1.75969">
        <ele>56</ele>
        <time>2021-03-14T12:38:24.000Z</time>
      </trkpt>
      <trkpt lat="47.10849" lon="-1.75987">
        <ele>56</ele>
        <time>2021-03-14T12:38:26.000Z</time>
      </trkpt>
      <trkpt lat="47.10846" lon="-1.76004">
        <ele>56</ele>
        <time>2021-03-14T12:38:28.000Z</time>
      </trkpt>
      <trkpt lat="47.10843" lon="-1.76023">
        <ele>56</ele>
        <time>2021-03-14T12:38:30.000Z</time>
      </trkpt>
      <trkpt lat="47.10841" lon="-1.7604">
        <ele>56</ele>
        <time>2021-03-14T12:38:32.000Z</time>
      </trkpt>
      <trkpt lat="47.10838" lon="-1.76058">
        <ele>56</ele>
        <time>2021-03-14T12:38:34.000Z</time>
      </trkpt>
      <trkpt lat="47.10836" lon="-1.76076">
        <ele>56</ele>
        <time>2021-03-14T12:38:36.000Z</time>
      </trkpt>
      <trkpt lat="47.10834" lon="-1.76095">
        <ele>57</ele>
        <time>2021-03-14T12:38:38.000Z</time>
      </trkpt>
      <trkpt lat="47.10832" lon="-1.76114">
        <ele>57</ele>
        <time>2021-03-14T12:38:40.000Z</time>
      </trkpt>
      <trkpt lat="47.10829" lon="-1.76132">
        <ele>57</ele>
        <time>2021-03-14T12:38:42.000Z</time>
      </trkpt>
      <trkpt lat="47.10827" lon="-1.76149">
        <ele>57</ele>
        <time>2021-03-14T12:38:44.000Z</time>
      </trkpt>
      <trkpt lat="47.10823" lon="-1.76166">
        <ele>57</ele>
        <time>2021-03-14T12:38:46.000Z</time>
      </trkpt>
      <trkpt lat="47.10819" lon="-1.76182">
        <ele>57</ele>
        <time>2021-03-14T12:38:48.000Z</time>
      </trkpt>
      <trkpt lat="47.10816" lon="-1.76199">
        <ele>58</ele>
        <time>2021-03-14T12:38:50.000Z</time>
      </trkpt>
      <trkpt lat="47.10812" lon="-1.76217">
        <ele>58</ele>
        <time>2021-03-14T12:38:52.000Z</time>
      </trkpt>
      <trkpt lat="47.10808" lon="-1.76234">
        <ele>58</ele>
        <time>2021-03-14T12:38:54.000Z</time>
      </trkpt>
      <trkpt lat="47.10804" lon="-1.76252">
        <ele>58</ele>
        <time>2021-03-14T12:38:56.000Z</time>
      </trkpt>
      <trkpt lat="47.108" lon="-1.76271">
        <ele>57</ele>
        <time>2021-03-14T12:38:58.000Z</time>
      </trkpt>
      <trkpt lat="47.10796" lon="-1.7629">
        <ele>57</ele>
        <time>2021-03-14T12:39:00.000Z</time>
      </trkpt>
      <trkpt lat="47.10792" lon="-1.76308">
        <ele>57</ele>
        <time>2021-03-14T12:39:02.000Z</time>
      </trkpt>
      <trkpt lat="47.10789" lon="-1.76327">
        <ele>56</ele>
        <time>2021-03-14T12:39:04.000Z</time>
      </trkpt>
      <trkpt lat="47.10785" lon="-1.76345">
        <ele>56</ele>
        <time>2021-03-14T12:39:06.000Z</time>
      </trkpt>
      <trkpt lat="47.10782" lon="-1.76364">
        <ele>56</ele>
        <time>2021-03-14T12:39:08.000Z</time>
      </trkpt>
      <trkpt lat="47.10779" lon="-1.76383">
        <ele>56</ele>
        <time>2021-03-14T12:39:10.000Z</time>
      </trkpt>
      <trkpt lat="47.10775" lon="-1.76402">
        <ele>56</ele>
        <time>2021-03-14T12:39:12.000Z</time>
      </trkpt>
      <trkpt lat="47.10772" lon="-1.7642">
        <ele>56</ele>
        <time>2021-03-14T12:39:14.000Z</time>
      </trkpt>
      <trkpt lat="47.10769" lon="-1.76438">
        <ele>56</ele>
        <time>2021-03-14T12:39:16.000Z</time>
      </trkpt>
      <trkpt lat="47.10766" lon="-1.76457">
        <ele>56</ele>
        <time>2021-03-14T12:39:18.000Z</time>
      </trkpt>
      <trkpt lat="47.10763" lon="-1.76475">
        <ele>56</ele>
        <time>2021-03-14T12:39:20.000Z</time>
      </trkpt>
      <trkpt lat="47.1076" lon="-1.76493">
        <ele>56</ele>
        <time>2021-03-14T12:39:22.000Z</time>
      </trkpt>
      <trkpt lat="47.10757" lon="-1.7651">
        <ele>56</ele>
        <time>2021-03-14T12:39:24.000Z</time>
      </trkpt>
      <trkpt lat="47.10754" lon="-1.76527">
        <ele>56</ele>
        <time>2021-03-14T12:39:26.000Z</time>
      </trkpt>
      <trkpt lat="47.10751" lon="-1.76544">
        <ele>56</ele>
        <time>2021-03-14T12:39:28.000Z</time>
      </trkpt>
      <trkpt lat="47.10746" lon="-1.76562">
        <ele>56</ele>
        <time>2021-03-14T12:39:30.000Z</time>
      </trkpt>
      <trkpt lat="47.10741" lon="-1.76579">
        <ele>56</ele>
        <time>2021-03-14T12:39:32.000Z</time>
      </trkpt>
      <trkpt lat="47.10736" lon="-1.76596">
        <ele>55</ele>
        <time>2021-03-14T12:39:34.000Z</time>
      </trkpt>
      <trkpt lat="47.1073" lon="-1.76613">
        <ele>55</ele>
        <time>2021-03-14T12:39:36.000Z</time>
      </trkpt>
      <trkpt lat="47.10723" lon="-1.76631">
        <ele>54</ele>
        <time>2021-03-14T12:39:38.000Z</time>
      </trkpt>
      <trkpt lat="47.10716" lon="-1.7665">
        <ele>54</ele>
        <time>2021-03-14T12:39:40.000Z</time>
      </trkpt>
      <trkpt lat="47.10709" lon="-1.76669">
        <ele>54</ele>
        <time>2021-03-14T12:39:42.000Z</time>
      </trkpt>
      <trkpt lat="47.10702" lon="-1.76687">
        <ele>53</ele>
        <time>2021-03-14T12:39:44.000Z</time>
      </trkpt>
      <trkpt lat="47.10695" lon="-1.76706">
        <ele>53</ele>
        <time>2021-03-14T12:39:46.000Z</time>
      </trkpt>
      <trkpt lat="47.10688" lon="-1.76725">
        <ele>53</ele>
        <time>2021-03-14T12:39:48.000Z</time>
      </trkpt>
      <trkpt lat="47.10682" lon="-1.76744">
        <ele>53</ele>
        <time>2021-03-14T12:39:50.000Z</time>
      </trkpt>
      <trkpt lat="47.10676" lon="-1.76764">
        <ele>52</ele>
        <time>2021-03-14T12:39:52.000Z</time>
      </trkpt>
      <trkpt lat="47.1067" lon="-1.76784">
        <ele>52</ele>
        <time>2021-03-14T12:39:54.000Z</time>
      </trkpt>
      <trkpt lat="47.10664" lon="-1.76803">
        <ele>52</ele>
        <time>2021-03-14T12:39:56.000Z</time>
      </trkpt>
      <trkpt lat="47.10659" lon="-1.76823">
        <ele>51</ele>
        <time>2021-03-14T12:39:58.000Z</time>
      </trkpt>
      <trkpt lat="47.10652" lon="-1.76841">
        <ele>51</ele>
        <time>2021-03-14T12:40:00.000Z</time>
      </trkpt>
      <trkpt lat="47.10644" lon="-1.76857">
        <ele>51</ele>
        <time>2021-03-14T12:40:02.000Z</time>
      </trkpt>
      <trkpt lat="47.10636" lon="-1.76871">
        <ele>51</ele>
        <time>2021-03-14T12:40:04.000Z</time>
      </trkpt>
      <trkpt lat="47.10626" lon="-1.76883">
        <ele>51</ele>
        <time>2021-03-14T12:40:06.000Z</time>
      </trkpt>
      <trkpt lat="47.10616" lon="-1.76893">
        <ele>51</ele>
        <time>2021-03-14T12:40:08.000Z</time>
      </trkpt>
      <trkpt lat="47.10606" lon="-1.76903">
        <ele>52</ele>
        <time>2021-03-14T12:40:10.000Z</time>
      </trkpt>
      <trkpt lat="47.10595" lon="-1.76913">
        <ele>52</ele>
        <time>2021-03-14T12:40:12.000Z</time>
      </trkpt>
      <trkpt lat="47.10583" lon="-1.76924">
        <ele>51</ele>
        <time>2021-03-14T12:40:14.000Z</time>
      </trkpt>
      <trkpt lat="47.10574" lon="-1.76936">
        <ele>51</ele>
        <time>2021-03-14T12:40:16.000Z</time>
      </trkpt>
      <trkpt lat="47.10565" lon="-1.76948">
        <ele>51</ele>
        <time>2021-03-14T12:40:18.000Z</time>
      </trkpt>
      <trkpt lat="47.10557" lon="-1.76961">
        <ele>52</ele>
        <time>2021-03-14T12:40:20.000Z</time>
      </trkpt>
      <trkpt lat="47.1055" lon="-1.76975">
        <ele>52</ele>
        <time>2021-03-14T12:40:22.000Z</time>
      </trkpt>
      <trkpt lat="47.10544" lon="-1.76989">
        <ele>52</ele>
        <time>2021-03-14T12:40:24.000Z</time>
      </trkpt>
      <trkpt lat="47.10537" lon="-1.77003">
        <ele>52</ele>
        <time>2021-03-14T12:40:26.000Z</time>
      </trkpt>
      <trkpt lat="47.10531" lon="-1.77017">
        <ele>53</ele>
        <time>2021-03-14T12:40:28.000Z</time>
      </trkpt>
      <trkpt lat="47.10525" lon="-1.77032">
        <ele>53</ele>
        <time>2021-03-14T12:40:30.000Z</time>
      </trkpt>
      <trkpt lat="47.10519" lon="-1.77045">
        <ele>53</ele>
        <time>2021-03-14T12:40:32.000Z</time>
      </trkpt>
      <trkpt lat="47.10512" lon="-1.77059">
        <ele>53</ele>
        <time>2021-03-14T12:40:34.000Z</time>
      </trkpt>
      <trkpt lat="47.10506" lon="-1.77073">
        <ele>53</ele>
        <time>2021-03-14T12:40:36.000Z</time>
      </trkpt>
      <trkpt lat="47.10499" lon="-1.77087">
        <ele>54</ele>
        <time>2021-03-14T12:40:38.000Z</time>
      </trkpt>
      <trkpt lat="47.10493" lon="-1.77101">
        <ele>54</ele>
        <time>2021-03-14T12:40:40.000Z</time>
      </trkpt>
      <trkpt lat="47.10487" lon="-1.77115">
        <ele>54</ele>
        <time>2021-03-14T12:40:42.000Z</time>
      </trkpt>
      <trkpt lat="47.1048" lon="-1.77129">
        <ele>54</ele>
        <time>2021-03-14T12:40:44.000Z</time>
      </trkpt>
      <trkpt lat="47.10474" lon="-1.77144">
        <ele>54</ele>
        <time>2021-03-14T12:40:46.000Z</time>
      </trkpt>
      <trkpt lat="47.10467" lon="-1.77159">
        <ele>55</ele>
        <time>2021-03-14T12:40:48.000Z</time>
      </trkpt>
      <trkpt lat="47.10461" lon="-1.77173">
        <ele>55</ele>
        <time>2021-03-14T12:40:50.000Z</time>
      </trkpt>
      <trkpt lat="47.10455" lon="-1.77189">
        <ele>55</ele>
        <time>2021-03-14T12:40:52.000Z</time>
      </trkpt>
      <trkpt lat="47.1045" lon="-1.77205">
        <ele>55</ele>
        <time>2021-03-14T12:40:54.000Z</time>
      </trkpt>
      <trkpt lat="47.10446" lon="-1.77221">
        <ele>54</ele>
        <time>2021-03-14T12:40:56.000Z</time>
      </trkpt>
      <trkpt lat="47.10443" lon="-1.77238">
        <ele>54</ele>
        <time>2021-03-14T12:40:58.000Z</time>
      </trkpt>
      <trkpt lat="47.1044" lon="-1.77255">
        <ele>55</ele>
        <time>2021-03-14T12:41:00.000Z</time>
      </trkpt>
      <trkpt lat="47.10437" lon="-1.77272">
        <ele>55</ele>
        <time>2021-03-14T12:41:02.000Z</time>
      </trkpt>
      <trkpt lat="47.10435" lon="-1.77289">
        <ele>55</ele>
        <time>2021-03-14T12:41:04.000Z</time>
      </trkpt>
      <trkpt lat="47.10432" lon="-1.77306">
        <ele>55</ele>
        <time>2021-03-14T12:41:06.000Z</time>
      </trkpt>
      <trkpt lat="47.1043" lon="-1.77322">
        <ele>55</ele>
        <time>2021-03-14T12:41:08.000Z</time>
      </trkpt>
      <trkpt lat="47.10427" lon="-1.77339">
        <ele>56</ele>
        <time>2021-03-14T12:41:10.000Z</time>
      </trkpt>
      <trkpt lat="47.10425" lon="-1.77356">
        <ele>56</ele>
        <time>2021-03-14T12:41:12.000Z</time>
      </trkpt>
      <trkpt lat="47.10423" lon="-1.77372">
        <ele>57</ele>
        <time>2021-03-14T12:41:14.000Z</time>
      </trkpt>
      <trkpt lat="47.10421" lon="-1.77386">
        <ele>57</ele>
        <time>2021-03-14T12:41:16.000Z</time>
      </trkpt>
      <trkpt lat="47.10418" lon="-1.774">
        <ele>56</ele>
        <time>2021-03-14T12:41:18.000Z</time>
      </trkpt>
      <trkpt lat="47.10412" lon="-1.77413">
        <ele>56</ele>
        <time>2021-03-14T12:41:20.000Z</time>
      </trkpt>
      <trkpt lat="47.10403" lon="-1.77423">
        <ele>56</ele>
        <time>2021-03-14T12:41:22.000Z</time>
      </trkpt>
      <trkpt lat="47.10394" lon="-1.77433">
        <ele>57</ele>
        <time>2021-03-14T12:41:24.000Z</time>
      </trkpt>
      <trkpt lat="47.10386" lon="-1.77441">
        <ele>57</ele>
        <time>2021-03-14T12:41:26.000Z</time>
      </trkpt>
      <trkpt lat="47.1038" lon="-1.77453">
        <ele>56</ele>
        <time>2021-03-14T12:41:28.000Z</time>
      </trkpt>
      <trkpt lat="47.1038" lon="-1.77469">
        <ele>56</ele>
        <time>2021-03-14T12:41:30.000Z</time>
      </trkpt>
      <trkpt lat="47.10382" lon="-1.77486">
        <ele>55</ele>
        <time>2021-03-14T12:41:32.000Z</time>
      </trkpt>
      <trkpt lat="47.10383" lon="-1.77502">
        <ele>55</ele>
        <time>2021-03-14T12:41:34.000Z</time>
      </trkpt>
      <trkpt lat="47.10384" lon="-1.77519">
        <ele>55</ele>
        <time>2021-03-14T12:41:36.000Z</time>
      </trkpt>
      <trkpt lat="47.10386" lon="-1.77536">
        <ele>55</ele>
        <time>2021-03-14T12:41:38.000Z</time>
      </trkpt>
      <trkpt lat="47.10387" lon="-1.77553">
        <ele>55</ele>
        <time>2021-03-14T12:41:40.000Z</time>
      </trkpt>
      <trkpt lat="47.10388" lon="-1.7757">
        <ele>55</ele>
        <time>2021-03-14T12:41:42.000Z</time>
      </trkpt>
      <trkpt lat="47.1039" lon="-1.77586">
        <ele>55</ele>
        <time>2021-03-14T12:41:44.000Z</time>
      </trkpt>
      <trkpt lat="47.10391" lon="-1.77602">
        <ele>55</ele>
        <time>2021-03-14T12:41:46.000Z</time>
      </trkpt>
      <trkpt lat="47.10392" lon="-1.77618">
        <ele>55</ele>
        <time>2021-03-14T12:41:48.000Z</time>
      </trkpt>
      <trkpt lat="47.10394" lon="-1.77635">
        <ele>55</ele>
        <time>2021-03-14T12:41:50.000Z</time>
      </trkpt>
      <trkpt lat="47.10395" lon="-1.77653">
        <ele>55</ele>
        <time>2021-03-14T12:41:52.000Z</time>
      </trkpt>
      <trkpt lat="47.10396" lon="-1.7767">
        <ele>55</ele>
        <time>2021-03-14T12:41:54.000Z</time>
      </trkpt>
      <trkpt lat="47.10397" lon="-1.77687">
        <ele>55</ele>
        <time>2021-03-14T12:41:56.000Z</time>
      </trkpt>
      <trkpt lat="47.10397" lon="-1.77705">
        <ele>55</ele>
        <time>2021-03-14T12:41:58.000Z</time>
      </trkpt>
      <trkpt lat="47.10398" lon="-1.77722">
        <ele>55</ele>
        <time>2021-03-14T12:42:00.000Z</time>
      </trkpt>
      <trkpt lat="47.10398" lon="-1.77739">
        <ele>55</ele>
        <time>2021-03-14T12:42:02.000Z</time>
      </trkpt>
      <trkpt lat="47.10398" lon="-1.77756">
        <ele>56</ele>
        <time>2021-03-14T12:42:04.000Z</time>
      </trkpt>
      <trkpt lat="47.10398" lon="-1.77773">
        <ele>56</ele>
        <time>2021-03-14T12:42:06.000Z</time>
      </trkpt>
      <trkpt lat="47.10398" lon="-1.77789">
        <ele>56</ele>
        <time>2021-03-14T12:42:08.000Z</time>
      </trkpt>
      <trkpt lat="47.10398" lon="-1.77805">
        <ele>56</ele>
        <time>2021-03-14T12:42:10.000Z</time>
      </trkpt>
      <trkpt lat="47.10397" lon="-1.77822">
        <ele>57</ele>
        <time>2021-03-14T12:42:12.000Z</time>
      </trkpt>
      <trkpt lat="47.10397" lon="-1.77837">
        <ele>57</ele>
        <time>2021-03-14T12:42:14.000Z</time>
      </trkpt>
      <trkpt lat="47.10396" lon="-1.77853">
        <ele>57</ele>
        <time>2021-03-14T12:42:16.000Z</time>
      </trkpt>
      <trkpt lat="47.10395" lon="-1.77869">
        <ele>56</ele>
        <time>2021-03-14T12:42:18.000Z</time>
      </trkpt>
      <trkpt lat="47.10394" lon="-1.77885">
        <ele>56</ele>
        <time>2021-03-14T12:42:20.000Z</time>
      </trkpt>
      <trkpt lat="47.10391" lon="-1.779">
        <ele>56</ele>
        <time>2021-03-14T12:42:22.000Z</time>
      </trkpt>
      <trkpt lat="47.10387" lon="-1.77915">
        <ele>56</ele>
        <time>2021-03-14T12:42:24.000Z</time>
      </trkpt>
      <trkpt lat="47.10384" lon="-1.77929">
        <ele>56</ele>
        <time>2021-03-14T12:42:26.000Z</time>
      </trkpt>
      <trkpt lat="47.10381" lon="-1.77943">
        <ele>57</ele>
        <time>2021-03-14T12:42:28.000Z</time>
      </trkpt>
      <trkpt lat="47.10377" lon="-1.77958">
        <ele>57</ele>
        <time>2021-03-14T12:42:30.000Z</time>
      </trkpt>
      <trkpt lat="47.10372" lon="-1.77972">
        <ele>58</ele>
        <time>2021-03-14T12:42:32.000Z</time>
      </trkpt>
      <trkpt lat="47.10368" lon="-1.77985">
        <ele>58</ele>
        <time>2021-03-14T12:42:34.000Z</time>
      </trkpt>
      <trkpt lat="47.10364" lon="-1.77998">
        <ele>58</ele>
        <time>2021-03-14T12:42:36.000Z</time>
      </trkpt>
      <trkpt lat="47.1036" lon="-1.78011">
        <ele>59</ele>
        <time>2021-03-14T12:42:38.000Z</time>
      </trkpt>
      <trkpt lat="47.10357" lon="-1.78024">
        <ele>59</ele>
        <time>2021-03-14T12:42:40.000Z</time>
      </trkpt>
      <trkpt lat="47.10355" lon="-1.78038">
        <ele>60</ele>
        <time>2021-03-14T12:42:42.000Z</time>
      </trkpt>
      <trkpt lat="47.10352" lon="-1.78052">
        <ele>60</ele>
        <time>2021-03-14T12:42:44.000Z</time>
      </trkpt>
      <trkpt lat="47.10351" lon="-1.78066">
        <ele>60</ele>
        <time>2021-03-14T12:42:46.000Z</time>
      </trkpt>
      <trkpt lat="47.10349" lon="-1.7808">
        <ele>60</ele>
        <time>2021-03-14T12:42:48.000Z</time>
      </trkpt>
      <trkpt lat="47.10349" lon="-1.78094">
        <ele>61</ele>
        <time>2021-03-14T12:42:50.000Z</time>
      </trkpt>
      <trkpt lat="47.10348" lon="-1.78108">
        <ele>61</ele>
        <time>2021-03-14T12:42:52.000Z</time>
      </trkpt>
      <trkpt lat="47.10346" lon="-1.78128">
        <ele>61</ele>
        <time>2021-03-14T12:42:55.000Z</time>
      </trkpt>
      <trkpt lat="47.10345" lon="-1.78142">
        <ele>62</ele>
        <time>2021-03-14T12:42:57.000Z</time>
      </trkpt>
      <trkpt lat="47.10343" lon="-1.78156">
        <ele>62</ele>
        <time>2021-03-14T12:42:59.000Z</time>
      </trkpt>
      <trkpt lat="47.10342" lon="-1.7817">
        <ele>62</ele>
        <time>2021-03-14T12:43:01.000Z</time>
      </trkpt>
      <trkpt lat="47.1034" lon="-1.78184">
        <ele>62</ele>
        <time>2021-03-14T12:43:03.000Z</time>
      </trkpt>
      <trkpt lat="47.10339" lon="-1.78198">
        <ele>62</ele>
        <time>2021-03-14T12:43:05.000Z</time>
      </trkpt>
      <trkpt lat="47.10337" lon="-1.78214">
        <ele>61</ele>
        <time>2021-03-14T12:43:07.000Z</time>
      </trkpt>
      <trkpt lat="47.10335" lon="-1.7823">
        <ele>61</ele>
        <time>2021-03-14T12:43:09.000Z</time>
      </trkpt>
      <trkpt lat="47.10335" lon="-1.78246">
        <ele>61</ele>
        <time>2021-03-14T12:43:11.000Z</time>
      </trkpt>
      <trkpt lat="47.10334" lon="-1.78263">
        <ele>60</ele>
        <time>2021-03-14T12:43:13.000Z</time>
      </trkpt>
      <trkpt lat="47.10335" lon="-1.78282">
        <ele>59</ele>
        <time>2021-03-14T12:43:15.000Z</time>
      </trkpt>
      <trkpt lat="47.10336" lon="-1.78301">
        <ele>59</ele>
        <time>2021-03-14T12:43:17.000Z</time>
      </trkpt>
      <trkpt lat="47.10336" lon="-1.78321">
        <ele>58</ele>
        <time>2021-03-14T12:43:19.000Z</time>
      </trkpt>
      <trkpt lat="47.10337" lon="-1.78343">
        <ele>58</ele>
        <time>2021-03-14T12:43:21.000Z</time>
      </trkpt>
      <trkpt lat="47.10335" lon="-1.78364">
        <ele>57</ele>
        <time>2021-03-14T12:43:23.000Z</time>
      </trkpt>
      <trkpt lat="47.10332" lon="-1.78385">
        <ele>56</ele>
        <time>2021-03-14T12:43:25.000Z</time>
      </trkpt>
      <trkpt lat="47.10328" lon="-1.78407">
        <ele>56</ele>
        <time>2021-03-14T12:43:27.000Z</time>
      </trkpt>
      <trkpt lat="47.10325" lon="-1.78428">
        <ele>54</ele>
        <time>2021-03-14T12:43:29.000Z</time>
      </trkpt>
      <trkpt lat="47.10321" lon="-1.78449">
        <ele>53</ele>
        <time>2021-03-14T12:43:31.000Z</time>
      </trkpt>
      <trkpt lat="47.10317" lon="-1.7847">
        <ele>52</ele>
        <time>2021-03-14T12:43:33.000Z</time>
      </trkpt>
      <trkpt lat="47.10314" lon="-1.7849">
        <ele>52</ele>
        <time>2021-03-14T12:43:35.000Z</time>
      </trkpt>
      <trkpt lat="47.10312" lon="-1.7851">
        <ele>52</ele>
        <time>2021-03-14T12:43:37.000Z</time>
      </trkpt>
      <trkpt lat="47.10311" lon="-1.78529">
        <ele>52</ele>
        <time>2021-03-14T12:43:39.000Z</time>
      </trkpt>
      <trkpt lat="47.1031" lon="-1.78548">
        <ele>52</ele>
        <time>2021-03-14T12:43:41.000Z</time>
      </trkpt>
      <trkpt lat="47.10309" lon="-1.78566">
        <ele>52</ele>
        <time>2021-03-14T12:43:43.000Z</time>
      </trkpt>
      <trkpt lat="47.10308" lon="-1.78584">
        <ele>52</ele>
        <time>2021-03-14T12:43:45.000Z</time>
      </trkpt>
      <trkpt lat="47.10309" lon="-1.78602">
        <ele>52</ele>
        <time>2021-03-14T12:43:47.000Z</time>
      </trkpt>
      <trkpt lat="47.10308" lon="-1.7862">
        <ele>52</ele>
        <time>2021-03-14T12:43:49.000Z</time>
      </trkpt>
      <trkpt lat="47.10308" lon="-1.78636">
        <ele>52</ele>
        <time>2021-03-14T12:43:51.000Z</time>
      </trkpt>
      <trkpt lat="47.10307" lon="-1.78651">
        <ele>52</ele>
        <time>2021-03-14T12:43:53.000Z</time>
      </trkpt>
      <trkpt lat="47.10307" lon="-1.78666">
        <ele>52</ele>
        <time>2021-03-14T12:43:55.000Z</time>
      </trkpt>
      <trkpt lat="47.10307" lon="-1.78682">
        <ele>53</ele>
        <time>2021-03-14T12:43:57.000Z</time>
      </trkpt>
      <trkpt lat="47.10306" lon="-1.78697">
        <ele>54</ele>
        <time>2021-03-14T12:43:59.000Z</time>
      </trkpt>
      <trkpt lat="47.10305" lon="-1.78713">
        <ele>54</ele>
        <time>2021-03-14T12:44:01.000Z</time>
      </trkpt>
      <trkpt lat="47.10304" lon="-1.78729">
        <ele>54</ele>
        <time>2021-03-14T12:44:03.000Z</time>
      </trkpt>
      <trkpt lat="47.10301" lon="-1.78745">
        <ele>55</ele>
        <time>2021-03-14T12:44:05.000Z</time>
      </trkpt>
      <trkpt lat="47.10298" lon="-1.78761">
        <ele>55</ele>
        <time>2021-03-14T12:44:07.000Z</time>
      </trkpt>
      <trkpt lat="47.10295" lon="-1.78777">
        <ele>56</ele>
        <time>2021-03-14T12:44:09.000Z</time>
      </trkpt>
      <trkpt lat="47.10291" lon="-1.78793">
        <ele>56</ele>
        <time>2021-03-14T12:44:11.000Z</time>
      </trkpt>
      <trkpt lat="47.10286" lon="-1.78808">
        <ele>57</ele>
        <time>2021-03-14T12:44:13.000Z</time>
      </trkpt>
      <trkpt lat="47.10281" lon="-1.78822">
        <ele>58</ele>
        <time>2021-03-14T12:44:15.000Z</time>
      </trkpt>
      <trkpt lat="47.10275" lon="-1.78835">
        <ele>58</ele>
        <time>2021-03-14T12:44:17.000Z</time>
      </trkpt>
      <trkpt lat="47.10269" lon="-1.78849">
        <ele>58</ele>
        <time>2021-03-14T12:44:19.000Z</time>
      </trkpt>
      <trkpt lat="47.10264" lon="-1.78864">
        <ele>58</ele>
        <time>2021-03-14T12:44:21.000Z</time>
      </trkpt>
      <trkpt lat="47.10258" lon="-1.78877">
        <ele>59</ele>
        <time>2021-03-14T12:44:23.000Z</time>
      </trkpt>
      <trkpt lat="47.10252" lon="-1.78892">
        <ele>59</ele>
        <time>2021-03-14T12:44:25.000Z</time>
      </trkpt>
      <trkpt lat="47.10246" lon="-1.78907">
        <ele>59</ele>
        <time>2021-03-14T12:44:27.000Z</time>
      </trkpt>
      <trkpt lat="47.10243" lon="-1.78922">
        <ele>58</ele>
        <time>2021-03-14T12:44:29.000Z</time>
      </trkpt>
      <trkpt lat="47.10241" lon="-1.78939">
        <ele>58</ele>
        <time>2021-03-14T12:44:31.000Z</time>
      </trkpt>
      <trkpt lat="47.10242" lon="-1.78957">
        <ele>58</ele>
        <time>2021-03-14T12:44:33.000Z</time>
      </trkpt>
      <trkpt lat="47.10246" lon="-1.78972">
        <ele>58</ele>
        <time>2021-03-14T12:44:35.000Z</time>
      </trkpt>
      <trkpt lat="47.10252" lon="-1.78987">
        <ele>59</ele>
        <time>2021-03-14T12:44:37.000Z</time>
      </trkpt>
      <trkpt lat="47.10259" lon="-1.78999">
        <ele>59</ele>
        <time>2021-03-14T12:44:39.000Z</time>
      </trkpt>
      <trkpt lat="47.10268" lon="-1.79009">
        <ele>60</ele>
        <time>2021-03-14T12:44:41.000Z</time>
      </trkpt>
      <trkpt lat="47.10277" lon="-1.7902">
        <ele>60</ele>
        <time>2021-03-14T12:44:43.000Z</time>
      </trkpt>
      <trkpt lat="47.10284" lon="-1.79032">
        <ele>61</ele>
        <time>2021-03-14T12:44:45.000Z</time>
      </trkpt>
      <trkpt lat="47.10292" lon="-1.79043">
        <ele>61</ele>
        <time>2021-03-14T12:44:47.000Z</time>
      </trkpt>
      <trkpt lat="47.103" lon="-1.79054">
        <ele>61</ele>
        <time>2021-03-14T12:44:49.000Z</time>
      </trkpt>
      <trkpt lat="47.10308" lon="-1.79065">
        <ele>61</ele>
        <time>2021-03-14T12:44:51.000Z</time>
      </trkpt>
      <trkpt lat="47.10315" lon="-1.79076">
        <ele>62</ele>
        <time>2021-03-14T12:44:53.000Z</time>
      </trkpt>
      <trkpt lat="47.10323" lon="-1.79086">
        <ele>61</ele>
        <time>2021-03-14T12:44:55.000Z</time>
      </trkpt>
      <trkpt lat="47.1033" lon="-1.79095">
        <ele>61</ele>
        <time>2021-03-14T12:44:57.000Z</time>
      </trkpt>
      <trkpt lat="47.10338" lon="-1.79108">
        <ele>61</ele>
        <time>2021-03-14T12:45:00.000Z</time>
      </trkpt>
      <trkpt lat="47.10342" lon="-1.79123">
        <ele>61</ele>
        <time>2021-03-14T12:45:03.000Z</time>
      </trkpt>
      <trkpt lat="47.10346" lon="-1.79138">
        <ele>60</ele>
        <time>2021-03-14T12:45:05.000Z</time>
      </trkpt>
      <trkpt lat="47.10353" lon="-1.79152">
        <ele>60</ele>
        <time>2021-03-14T12:45:07.000Z</time>
      </trkpt>
      <trkpt lat="47.10362" lon="-1.79163">
        <ele>60</ele>
        <time>2021-03-14T12:45:09.000Z</time>
      </trkpt>
      <trkpt lat="47.1037" lon="-1.79174">
        <ele>59</ele>
        <time>2021-03-14T12:45:11.000Z</time>
      </trkpt>
      <trkpt lat="47.10378" lon="-1.79185">
        <ele>60</ele>
        <time>2021-03-14T12:45:13.000Z</time>
      </trkpt>
      <trkpt lat="47.10387" lon="-1.79197">
        <ele>60</ele>
        <time>2021-03-14T12:45:15.000Z</time>
      </trkpt>
      <trkpt lat="47.10396" lon="-1.7921">
        <ele>60</ele>
        <time>2021-03-14T12:45:17.000Z</time>
      </trkpt>
      <trkpt lat="47.10405" lon="-1.79222">
        <ele>60</ele>
        <time>2021-03-14T12:45:19.000Z</time>
      </trkpt>
      <trkpt lat="47.10415" lon="-1.79234">
        <ele>60</ele>
        <time>2021-03-14T12:45:21.000Z</time>
      </trkpt>
      <trkpt lat="47.10424" lon="-1.79246">
        <ele>59</ele>
        <time>2021-03-14T12:45:23.000Z</time>
      </trkpt>
      <trkpt lat="47.10433" lon="-1.79258">
        <ele>60</ele>
        <time>2021-03-14T12:45:25.000Z</time>
      </trkpt>
      <trkpt lat="47.10441" lon="-1.79268">
        <ele>59</ele>
        <time>2021-03-14T12:45:27.000Z</time>
      </trkpt>
      <trkpt lat="47.10449" lon="-1.7928">
        <ele>60</ele>
        <time>2021-03-14T12:45:30.000Z</time>
      </trkpt>
      <trkpt lat="47.10454" lon="-1.79292">
        <ele>60</ele>
        <time>2021-03-14T12:45:36.000Z</time>
      </trkpt>
      <trkpt lat="47.1045" lon="-1.79306">
        <ele>60</ele>
        <time>2021-03-14T12:45:38.000Z</time>
      </trkpt>
      <trkpt lat="47.10445" lon="-1.7932">
        <ele>60</ele>
        <time>2021-03-14T12:45:40.000Z</time>
      </trkpt>
      <trkpt lat="47.10439" lon="-1.79335">
        <ele>60</ele>
        <time>2021-03-14T12:45:42.000Z</time>
      </trkpt>
      <trkpt lat="47.10434" lon="-1.79351">
        <ele>59</ele>
        <time>2021-03-14T12:45:44.000Z</time>
      </trkpt>
      <trkpt lat="47.10428" lon="-1.79365">
        <ele>59</ele>
        <time>2021-03-14T12:45:46.000Z</time>
      </trkpt>
      <trkpt lat="47.10422" lon="-1.7938">
        <ele>60</ele>
        <time>2021-03-14T12:45:48.000Z</time>
      </trkpt>
      <trkpt lat="47.10417" lon="-1.79395">
        <ele>59</ele>
        <time>2021-03-14T12:45:50.000Z</time>
      </trkpt>
      <trkpt lat="47.10412" lon="-1.7941">
        <ele>60</ele>
        <time>2021-03-14T12:45:52.000Z</time>
      </trkpt>
      <trkpt lat="47.10407" lon="-1.79425">
        <ele>60</ele>
        <time>2021-03-14T12:45:54.000Z</time>
      </trkpt>
      <trkpt lat="47.10402" lon="-1.79441">
        <ele>61</ele>
        <time>2021-03-14T12:45:56.000Z</time>
      </trkpt>
      <trkpt lat="47.10399" lon="-1.79456">
        <ele>61</ele>
        <time>2021-03-14T12:45:58.000Z</time>
      </trkpt>
      <trkpt lat="47.10395" lon="-1.79472">
        <ele>61</ele>
        <time>2021-03-14T12:46:00.000Z</time>
      </trkpt>
      <trkpt lat="47.10392" lon="-1.79488">
        <ele>61</ele>
        <time>2021-03-14T12:46:02.000Z</time>
      </trkpt>
      <trkpt lat="47.1039" lon="-1.79505">
        <ele>61</ele>
        <time>2021-03-14T12:46:04.000Z</time>
      </trkpt>
      <trkpt lat="47.10388" lon="-1.79521">
        <ele>61</ele>
        <time>2021-03-14T12:46:06.000Z</time>
      </trkpt>
      <trkpt lat="47.10386" lon="-1.79539">
        <ele>61</ele>
        <time>2021-03-14T12:46:08.000Z</time>
      </trkpt>
      <trkpt lat="47.10385" lon="-1.79556">
        <ele>61</ele>
        <time>2021-03-14T12:46:10.000Z</time>
      </trkpt>
      <trkpt lat="47.10384" lon="-1.79573">
        <ele>61</ele>
        <time>2021-03-14T12:46:12.000Z</time>
      </trkpt>
      <trkpt lat="47.10383" lon="-1.7959">
        <ele>61</ele>
        <time>2021-03-14T12:46:14.000Z</time>
      </trkpt>
      <trkpt lat="47.10382" lon="-1.79606">
        <ele>62</ele>
        <time>2021-03-14T12:46:16.000Z</time>
      </trkpt>
      <trkpt lat="47.10381" lon="-1.79622">
        <ele>62</ele>
        <time>2021-03-14T12:46:18.000Z</time>
      </trkpt>
      <trkpt lat="47.10379" lon="-1.79638">
        <ele>62</ele>
        <time>2021-03-14T12:46:20.000Z</time>
      </trkpt>
      <trkpt lat="47.10378" lon="-1.79654">
        <ele>63</ele>
        <time>2021-03-14T12:46:22.000Z</time>
      </trkpt>
      <trkpt lat="47.10376" lon="-1.7967">
        <ele>63</ele>
        <time>2021-03-14T12:46:24.000Z</time>
      </trkpt>
      <trkpt lat="47.10374" lon="-1.79685">
        <ele>62</ele>
        <time>2021-03-14T12:46:26.000Z</time>
      </trkpt>
      <trkpt lat="47.10372" lon="-1.797">
        <ele>63</ele>
        <time>2021-03-14T12:46:28.000Z</time>
      </trkpt>
      <trkpt lat="47.10369" lon="-1.79715">
        <ele>63</ele>
        <time>2021-03-14T12:46:30.000Z</time>
      </trkpt>
      <trkpt lat="47.10367" lon="-1.7973">
        <ele>63</ele>
        <time>2021-03-14T12:46:32.000Z</time>
      </trkpt>
      <trkpt lat="47.10364" lon="-1.79746">
        <ele>63</ele>
        <time>2021-03-14T12:46:34.000Z</time>
      </trkpt>
      <trkpt lat="47.1036" lon="-1.79762">
        <ele>63</ele>
        <time>2021-03-14T12:46:36.000Z</time>
      </trkpt>
      <trkpt lat="47.10357" lon="-1.79777">
        <ele>63</ele>
        <time>2021-03-14T12:46:38.000Z</time>
      </trkpt>
      <trkpt lat="47.10354" lon="-1.79793">
        <ele>63</ele>
        <time>2021-03-14T12:46:40.000Z</time>
      </trkpt>
      <trkpt lat="47.10351" lon="-1.79809">
        <ele>63</ele>
        <time>2021-03-14T12:46:42.000Z</time>
      </trkpt>
      <trkpt lat="47.10348" lon="-1.79824">
        <ele>63</ele>
        <time>2021-03-14T12:46:44.000Z</time>
      </trkpt>
      <trkpt lat="47.10345" lon="-1.79839">
        <ele>63</ele>
        <time>2021-03-14T12:46:46.000Z</time>
      </trkpt>
      <trkpt lat="47.10343" lon="-1.79855">
        <ele>63</ele>
        <time>2021-03-14T12:46:48.000Z</time>
      </trkpt>
      <trkpt lat="47.10339" lon="-1.79871">
        <ele>63</ele>
        <time>2021-03-14T12:46:50.000Z</time>
      </trkpt>
      <trkpt lat="47.10335" lon="-1.79887">
        <ele>63</ele>
        <time>2021-03-14T12:46:52.000Z</time>
      </trkpt>
      <trkpt lat="47.10333" lon="-1.79902">
        <ele>63</ele>
        <time>2021-03-14T12:46:54.000Z</time>
      </trkpt>
      <trkpt lat="47.10329" lon="-1.79917">
        <ele>64</ele>
        <time>2021-03-14T12:46:56.000Z</time>
      </trkpt>
      <trkpt lat="47.10327" lon="-1.79933">
        <ele>64</ele>
        <time>2021-03-14T12:46:58.000Z</time>
      </trkpt>
      <trkpt lat="47.10325" lon="-1.79948">
        <ele>64</ele>
        <time>2021-03-14T12:47:00.000Z</time>
      </trkpt>
      <trkpt lat="47.10323" lon="-1.79965">
        <ele>64</ele>
        <time>2021-03-14T12:47:02.000Z</time>
      </trkpt>
      <trkpt lat="47.10322" lon="-1.79981">
        <ele>64</ele>
        <time>2021-03-14T12:47:04.000Z</time>
      </trkpt>
      <trkpt lat="47.10321" lon="-1.79996">
        <ele>64</ele>
        <time>2021-03-14T12:47:06.000Z</time>
      </trkpt>
      <trkpt lat="47.1032" lon="-1.80012">
        <ele>64</ele>
        <time>2021-03-14T12:47:08.000Z</time>
      </trkpt>
      <trkpt lat="47.10319" lon="-1.80029">
        <ele>64</ele>
        <time>2021-03-14T12:47:10.000Z</time>
      </trkpt>
      <trkpt lat="47.10318" lon="-1.80045">
        <ele>65</ele>
        <time>2021-03-14T12:47:12.000Z</time>
      </trkpt>
      <trkpt lat="47.10318" lon="-1.8006">
        <ele>65</ele>
        <time>2021-03-14T12:47:14.000Z</time>
      </trkpt>
      <trkpt lat="47.10318" lon="-1.80076">
        <ele>65</ele>
        <time>2021-03-14T12:47:16.000Z</time>
      </trkpt>
      <trkpt lat="47.10319" lon="-1.80092">
        <ele>65</ele>
        <time>2021-03-14T12:47:18.000Z</time>
      </trkpt>
      <trkpt lat="47.1032" lon="-1.80107">
        <ele>66</ele>
        <time>2021-03-14T12:47:20.000Z</time>
      </trkpt>
      <trkpt lat="47.10321" lon="-1.80122">
        <ele>66</ele>
        <time>2021-03-14T12:47:22.000Z</time>
      </trkpt>
      <trkpt lat="47.10323" lon="-1.80137">
        <ele>66</ele>
        <time>2021-03-14T12:47:24.000Z</time>
      </trkpt>
      <trkpt lat="47.10325" lon="-1.80152">
        <ele>66</ele>
        <time>2021-03-14T12:47:26.000Z</time>
      </trkpt>
      <trkpt lat="47.10327" lon="-1.80168">
        <ele>66</ele>
        <time>2021-03-14T12:47:28.000Z</time>
      </trkpt>
      <trkpt lat="47.10327" lon="-1.80183">
        <ele>66</ele>
        <time>2021-03-14T12:47:30.000Z</time>
      </trkpt>
      <trkpt lat="47.10327" lon="-1.80198">
        <ele>66</ele>
        <time>2021-03-14T12:47:32.000Z</time>
      </trkpt>
      <trkpt lat="47.10327" lon="-1.80213">
        <ele>66</ele>
        <time>2021-03-14T12:47:34.000Z</time>
      </trkpt>
      <trkpt lat="47.10327" lon="-1.80228">
        <ele>65</ele>
        <time>2021-03-14T12:47:36.000Z</time>
      </trkpt>
      <trkpt lat="47.10327" lon="-1.80243">
        <ele>65</ele>
        <time>2021-03-14T12:47:38.000Z</time>
      </trkpt>
      <trkpt lat="47.10327" lon="-1.80258">
        <ele>65</ele>
        <time>2021-03-14T12:47:40.000Z</time>
      </trkpt>
      <trkpt lat="47.10327" lon="-1.80274">
        <ele>66</ele>
        <time>2021-03-14T12:47:42.000Z</time>
      </trkpt>
      <trkpt lat="47.10328" lon="-1.8029">
        <ele>66</ele>
        <time>2021-03-14T12:47:44.000Z</time>
      </trkpt>
      <trkpt lat="47.10328" lon="-1.80306">
        <ele>66</ele>
        <time>2021-03-14T12:47:46.000Z</time>
      </trkpt>
      <trkpt lat="47.10329" lon="-1.80321">
        <ele>65</ele>
        <time>2021-03-14T12:47:48.000Z</time>
      </trkpt>
      <trkpt lat="47.10332" lon="-1.80337">
        <ele>65</ele>
        <time>2021-03-14T12:47:50.000Z</time>
      </trkpt>
      <trkpt lat="47.10334" lon="-1.80352">
        <ele>65</ele>
        <time>2021-03-14T12:47:52.000Z</time>
      </trkpt>
      <trkpt lat="47.10333" lon="-1.80368">
        <ele>65</ele>
        <time>2021-03-14T12:47:54.000Z</time>
      </trkpt>
      <trkpt lat="47.10334" lon="-1.80385">
        <ele>65</ele>
        <time>2021-03-14T12:47:56.000Z</time>
      </trkpt>
      <trkpt lat="47.10336" lon="-1.80402">
        <ele>64</ele>
        <time>2021-03-14T12:47:58.000Z</time>
      </trkpt>
      <trkpt lat="47.10338" lon="-1.80419">
        <ele>64</ele>
        <time>2021-03-14T12:48:00.000Z</time>
      </trkpt>
      <trkpt lat="47.1034" lon="-1.80435">
        <ele>64</ele>
        <time>2021-03-14T12:48:02.000Z</time>
      </trkpt>
      <trkpt lat="47.10342" lon="-1.80451">
        <ele>64</ele>
        <time>2021-03-14T12:48:04.000Z</time>
      </trkpt>
      <trkpt lat="47.10344" lon="-1.80468">
        <ele>64</ele>
        <time>2021-03-14T12:48:06.000Z</time>
      </trkpt>
      <trkpt lat="47.10346" lon="-1.80483">
        <ele>64</ele>
        <time>2021-03-14T12:48:08.000Z</time>
      </trkpt>
      <trkpt lat="47.10348" lon="-1.80499">
        <ele>64</ele>
        <time>2021-03-14T12:48:10.000Z</time>
      </trkpt>
      <trkpt lat="47.1035" lon="-1.80515">
        <ele>64</ele>
        <time>2021-03-14T12:48:12.000Z</time>
      </trkpt>
      <trkpt lat="47.10352" lon="-1.80531">
        <ele>64</ele>
        <time>2021-03-14T12:48:14.000Z</time>
      </trkpt>
      <trkpt lat="47.10353" lon="-1.80548">
        <ele>64</ele>
        <time>2021-03-14T12:48:16.000Z</time>
      </trkpt>
      <trkpt lat="47.10354" lon="-1.80564">
        <ele>63</ele>
        <time>2021-03-14T12:48:18.000Z</time>
      </trkpt>
      <trkpt lat="47.10355" lon="-1.80581">
        <ele>63</ele>
        <time>2021-03-14T12:48:20.000Z</time>
      </trkpt>
      <trkpt lat="47.10355" lon="-1.80597">
        <ele>63</ele>
        <time>2021-03-14T12:48:22.000Z</time>
      </trkpt>
      <trkpt lat="47.10356" lon="-1.80614">
        <ele>63</ele>
        <time>2021-03-14T12:48:24.000Z</time>
      </trkpt>
      <trkpt lat="47.10356" lon="-1.80631">
        <ele>63</ele>
        <time>2021-03-14T12:48:26.000Z</time>
      </trkpt>
      <trkpt lat="47.10356" lon="-1.80649">
        <ele>63</ele>
        <time>2021-03-14T12:48:28.000Z</time>
      </trkpt>
      <trkpt lat="47.10356" lon="-1.80667">
        <ele>62</ele>
        <time>2021-03-14T12:48:30.000Z</time>
      </trkpt>
      <trkpt lat="47.10357" lon="-1.80684">
        <ele>61</ele>
        <time>2021-03-14T12:48:32.000Z</time>
      </trkpt>
      <trkpt lat="47.10358" lon="-1.80702">
        <ele>61</ele>
        <time>2021-03-14T12:48:34.000Z</time>
      </trkpt>
      <trkpt lat="47.10358" lon="-1.80721">
        <ele>60</ele>
        <time>2021-03-14T12:48:36.000Z</time>
      </trkpt>
      <trkpt lat="47.10358" lon="-1.80739">
        <ele>60</ele>
        <time>2021-03-14T12:48:38.000Z</time>
      </trkpt>
      <trkpt lat="47.10359" lon="-1.80759">
        <ele>59</ele>
        <time>2021-03-14T12:48:40.000Z</time>
      </trkpt>
      <trkpt lat="47.10359" lon="-1.8078">
        <ele>58</ele>
        <time>2021-03-14T12:48:42.000Z</time>
      </trkpt>
      <trkpt lat="47.1036" lon="-1.80799">
        <ele>58</ele>
        <time>2021-03-14T12:48:44.000Z</time>
      </trkpt>
      <trkpt lat="47.10361" lon="-1.80819">
        <ele>58</ele>
        <time>2021-03-14T12:48:46.000Z</time>
      </trkpt>
      <trkpt lat="47.10361" lon="-1.80839">
        <ele>57</ele>
        <time>2021-03-14T12:48:48.000Z</time>
      </trkpt>
      <trkpt lat="47.10361" lon="-1.80858">
        <ele>57</ele>
        <time>2021-03-14T12:48:50.000Z</time>
      </trkpt>
      <trkpt lat="47.10362" lon="-1.80876">
        <ele>58</ele>
        <time>2021-03-14T12:48:52.000Z</time>
      </trkpt>
      <trkpt lat="47.10362" lon="-1.80895">
        <ele>58</ele>
        <time>2021-03-14T12:48:54.000Z</time>
      </trkpt>
      <trkpt lat="47.10363" lon="-1.80913">
        <ele>58</ele>
        <time>2021-03-14T12:48:56.000Z</time>
      </trkpt>
      <trkpt lat="47.10366" lon="-1.80929">
        <ele>58</ele>
        <time>2021-03-14T12:48:58.000Z</time>
      </trkpt>
      <trkpt lat="47.1037" lon="-1.80944">
        <ele>58</ele>
        <time>2021-03-14T12:49:00.000Z</time>
      </trkpt>
      <trkpt lat="47.10374" lon="-1.80958">
        <ele>59</ele>
        <time>2021-03-14T12:49:02.000Z</time>
      </trkpt>
      <trkpt lat="47.10377" lon="-1.80973">
        <ele>59</ele>
        <time>2021-03-14T12:49:04.000Z</time>
      </trkpt>
      <trkpt lat="47.10378" lon="-1.80989">
        <ele>59</ele>
        <time>2021-03-14T12:49:06.000Z</time>
      </trkpt>
      <trkpt lat="47.10376" lon="-1.81005">
        <ele>60</ele>
        <time>2021-03-14T12:49:08.000Z</time>
      </trkpt>
      <trkpt lat="47.10373" lon="-1.81019">
        <ele>60</ele>
        <time>2021-03-14T12:49:10.000Z</time>
      </trkpt>
      <trkpt lat="47.10368" lon="-1.81034">
        <ele>60</ele>
        <time>2021-03-14T12:49:12.000Z</time>
      </trkpt>
      <trkpt lat="47.10362" lon="-1.81047">
        <ele>59</ele>
        <time>2021-03-14T12:49:14.000Z</time>
      </trkpt>
      <trkpt lat="47.10357" lon="-1.8106">
        <ele>59</ele>
        <time>2021-03-14T12:49:16.000Z</time>
      </trkpt>
      <trkpt lat="47.10365" lon="-1.81073">
        <ele>60</ele>
        <time>2021-03-14T12:49:18.000Z</time>
      </trkpt>
      <trkpt lat="47.10372" lon="-1.81084">
        <ele>60</ele>
        <time>2021-03-14T12:49:20.000Z</time>
      </trkpt>
      <trkpt lat="47.1038" lon="-1.81095">
        <ele>60</ele>
        <time>2021-03-14T12:49:22.000Z</time>
      </trkpt>
      <trkpt lat="47.10389" lon="-1.81107">
        <ele>60</ele>
        <time>2021-03-14T12:49:24.000Z</time>
      </trkpt>
      <trkpt lat="47.10396" lon="-1.81119">
        <ele>61</ele>
        <time>2021-03-14T12:49:26.000Z</time>
      </trkpt>
      <trkpt lat="47.10403" lon="-1.8113">
        <ele>61</ele>
        <time>2021-03-14T12:49:28.000Z</time>
      </trkpt>
      <trkpt lat="47.10412" lon="-1.81143">
        <ele>61</ele>
        <time>2021-03-14T12:49:31.000Z</time>
      </trkpt>
      <trkpt lat="47.10422" lon="-1.8115">
        <ele>62</ele>
        <time>2021-03-14T12:49:33.000Z</time>
      </trkpt>
      <trkpt lat="47.10432" lon="-1.81158">
        <ele>62</ele>
        <time>2021-03-14T12:49:35.000Z</time>
      </trkpt>
      <trkpt lat="47.10441" lon="-1.81166">
        <ele>62</ele>
        <time>2021-03-14T12:49:37.000Z</time>
      </trkpt>
      <trkpt lat="47.1045" lon="-1.81173">
        <ele>62</ele>
        <time>2021-03-14T12:49:39.000Z</time>
      </trkpt>
      <trkpt lat="47.1046" lon="-1.81181">
        <ele>62</ele>
        <time>2021-03-14T12:49:41.000Z</time>
      </trkpt>
      <trkpt lat="47.1047" lon="-1.81189">
        <ele>62</ele>
        <time>2021-03-14T12:49:43.000Z</time>
      </trkpt>
      <trkpt lat="47.10479" lon="-1.81197">
        <ele>62</ele>
        <time>2021-03-14T12:49:45.000Z</time>
      </trkpt>
      <trkpt lat="47.10489" lon="-1.81206">
        <ele>62</ele>
        <time>2021-03-14T12:49:47.000Z</time>
      </trkpt>
      <trkpt lat="47.10499" lon="-1.81214">
        <ele>62</ele>
        <time>2021-03-14T12:49:49.000Z</time>
      </trkpt>
      <trkpt lat="47.10509" lon="-1.81222">
        <ele>62</ele>
        <time>2021-03-14T12:49:51.000Z</time>
      </trkpt>
      <trkpt lat="47.10518" lon="-1.8123">
        <ele>62</ele>
        <time>2021-03-14T12:49:53.000Z</time>
      </trkpt>
      <trkpt lat="47.10527" lon="-1.81237">
        <ele>62</ele>
        <time>2021-03-14T12:49:55.000Z</time>
      </trkpt>
      <trkpt lat="47.10537" lon="-1.81245">
        <ele>62</ele>
        <time>2021-03-14T12:49:57.000Z</time>
      </trkpt>
      <trkpt lat="47.10546" lon="-1.81253">
        <ele>63</ele>
        <time>2021-03-14T12:49:59.000Z</time>
      </trkpt>
      <trkpt lat="47.10556" lon="-1.8126">
        <ele>63</ele>
        <time>2021-03-14T12:50:01.000Z</time>
      </trkpt>
      <trkpt lat="47.10566" lon="-1.81266">
        <ele>63</ele>
        <time>2021-03-14T12:50:03.000Z</time>
      </trkpt>
      <trkpt lat="47.10575" lon="-1.81273">
        <ele>63</ele>
        <time>2021-03-14T12:50:05.000Z</time>
      </trkpt>
      <trkpt lat="47.10584" lon="-1.8128">
        <ele>62</ele>
        <time>2021-03-14T12:50:07.000Z</time>
      </trkpt>
      <trkpt lat="47.10592" lon="-1.81287">
        <ele>62</ele>
        <time>2021-03-14T12:50:09.000Z</time>
      </trkpt>
      <trkpt lat="47.10601" lon="-1.81294">
        <ele>62</ele>
        <time>2021-03-14T12:50:11.000Z</time>
      </trkpt>
      <trkpt lat="47.1061" lon="-1.81301">
        <ele>62</ele>
        <time>2021-03-14T12:50:13.000Z</time>
      </trkpt>
      <trkpt lat="47.10618" lon="-1.81312">
        <ele>63</ele>
        <time>2021-03-14T12:50:15.000Z</time>
      </trkpt>
      <trkpt lat="47.10626" lon="-1.81323">
        <ele>63</ele>
        <time>2021-03-14T12:50:17.000Z</time>
      </trkpt>
      <trkpt lat="47.10634" lon="-1.81334">
        <ele>63</ele>
        <time>2021-03-14T12:50:19.000Z</time>
      </trkpt>
      <trkpt lat="47.10642" lon="-1.81344">
        <ele>63</ele>
        <time>2021-03-14T12:50:21.000Z</time>
      </trkpt>
      <trkpt lat="47.1065" lon="-1.81355">
        <ele>64</ele>
        <time>2021-03-14T12:50:23.000Z</time>
      </trkpt>
      <trkpt lat="47.10657" lon="-1.81366">
        <ele>64</ele>
        <time>2021-03-14T12:50:25.000Z</time>
      </trkpt>
      <trkpt lat="47.10666" lon="-1.81376">
        <ele>64</ele>
        <time>2021-03-14T12:50:27.000Z</time>
      </trkpt>
      <trkpt lat="47.10675" lon="-1.81387">
        <ele>64</ele>
        <time>2021-03-14T12:50:29.000Z</time>
      </trkpt>
      <trkpt lat="47.10683" lon="-1.81397">
        <ele>64</ele>
        <time>2021-03-14T12:50:31.000Z</time>
      </trkpt>
      <trkpt lat="47.10691" lon="-1.81408">
        <ele>65</ele>
        <time>2021-03-14T12:50:33.000Z</time>
      </trkpt>
      <trkpt lat="47.10699" lon="-1.81418">
        <ele>65</ele>
        <time>2021-03-14T12:50:35.000Z</time>
      </trkpt>
      <trkpt lat="47.10706" lon="-1.81428">
        <ele>65</ele>
        <time>2021-03-14T12:50:37.000Z</time>
      </trkpt>
      <trkpt lat="47.10713" lon="-1.81438">
        <ele>65</ele>
        <time>2021-03-14T12:50:39.000Z</time>
      </trkpt>
      <trkpt lat="47.10721" lon="-1.81447">
        <ele>65</ele>
        <time>2021-03-14T12:50:41.000Z</time>
      </trkpt>
      <trkpt lat="47.10727" lon="-1.81459">
        <ele>65</ele>
        <time>2021-03-14T12:50:43.000Z</time>
      </trkpt>
      <trkpt lat="47.10731" lon="-1.81472">
        <ele>65</ele>
        <time>2021-03-14T12:50:45.000Z</time>
      </trkpt>
      <trkpt lat="47.10733" lon="-1.81486">
        <ele>65</ele>
        <time>2021-03-14T12:50:47.000Z</time>
      </trkpt>
      <trkpt lat="47.10735" lon="-1.81501">
        <ele>66</ele>
        <time>2021-03-14T12:50:49.000Z</time>
      </trkpt>
      <trkpt lat="47.10737" lon="-1.81515">
        <ele>65</ele>
        <time>2021-03-14T12:50:51.000Z</time>
      </trkpt>
      <trkpt lat="47.10738" lon="-1.81528">
        <ele>65</ele>
        <time>2021-03-14T12:50:53.000Z</time>
      </trkpt>
      <trkpt lat="47.1074" lon="-1.81542">
        <ele>65</ele>
        <time>2021-03-14T12:50:55.000Z</time>
      </trkpt>
      <trkpt lat="47.10741" lon="-1.81557">
        <ele>65</ele>
        <time>2021-03-14T12:50:57.000Z</time>
      </trkpt>
      <trkpt lat="47.10743" lon="-1.81571">
        <ele>65</ele>
        <time>2021-03-14T12:50:59.000Z</time>
      </trkpt>
      <trkpt lat="47.10744" lon="-1.81586">
        <ele>65</ele>
        <time>2021-03-14T12:51:01.000Z</time>
      </trkpt>
      <trkpt lat="47.10746" lon="-1.81599">
        <ele>65</ele>
        <time>2021-03-14T12:51:03.000Z</time>
      </trkpt>
      <trkpt lat="47.10749" lon="-1.81613">
        <ele>65</ele>
        <time>2021-03-14T12:51:05.000Z</time>
      </trkpt>
      <trkpt lat="47.10751" lon="-1.81627">
        <ele>66</ele>
        <time>2021-03-14T12:51:07.000Z</time>
      </trkpt>
      <trkpt lat="47.10754" lon="-1.81641">
        <ele>66</ele>
        <time>2021-03-14T12:51:09.000Z</time>
      </trkpt>
      <trkpt lat="47.10756" lon="-1.81654">
        <ele>66</ele>
        <time>2021-03-14T12:51:11.000Z</time>
      </trkpt>
      <trkpt lat="47.10758" lon="-1.81669">
        <ele>66</ele>
        <time>2021-03-14T12:51:13.000Z</time>
      </trkpt>
      <trkpt lat="47.10761" lon="-1.81683">
        <ele>66</ele>
        <time>2021-03-14T12:51:15.000Z</time>
      </trkpt>
      <trkpt lat="47.10763" lon="-1.81698">
        <ele>66</ele>
        <time>2021-03-14T12:51:17.000Z</time>
      </trkpt>
      <trkpt lat="47.10764" lon="-1.81712">
        <ele>66</ele>
        <time>2021-03-14T12:51:19.000Z</time>
      </trkpt>
      <trkpt lat="47.10764" lon="-1.81727">
        <ele>66</ele>
        <time>2021-03-14T12:51:21.000Z</time>
      </trkpt>
      <trkpt lat="47.10764" lon="-1.81742">
        <ele>66</ele>
        <time>2021-03-14T12:51:23.000Z</time>
      </trkpt>
      <trkpt lat="47.10763" lon="-1.81757">
        <ele>66</ele>
        <time>2021-03-14T12:51:25.000Z</time>
      </trkpt>
      <trkpt lat="47.10763" lon="-1.81772">
        <ele>66</ele>
        <time>2021-03-14T12:51:27.000Z</time>
      </trkpt>
      <trkpt lat="47.10763" lon="-1.81787">
        <ele>66</ele>
        <time>2021-03-14T12:51:29.000Z</time>
      </trkpt>
      <trkpt lat="47.1076" lon="-1.81802">
        <ele>66</ele>
        <time>2021-03-14T12:51:31.000Z</time>
      </trkpt>
      <trkpt lat="47.10759" lon="-1.81818">
        <ele>66</ele>
        <time>2021-03-14T12:51:33.000Z</time>
      </trkpt>
      <trkpt lat="47.10758" lon="-1.81834">
        <ele>66</ele>
        <time>2021-03-14T12:51:35.000Z</time>
      </trkpt>
      <trkpt lat="47.10757" lon="-1.8185">
        <ele>65</ele>
        <time>2021-03-14T12:51:37.000Z</time>
      </trkpt>
      <trkpt lat="47.10755" lon="-1.81866">
        <ele>65</ele>
        <time>2021-03-14T12:51:39.000Z</time>
      </trkpt>
      <trkpt lat="47.10754" lon="-1.81883">
        <ele>65</ele>
        <time>2021-03-14T12:51:41.000Z</time>
      </trkpt>
      <trkpt lat="47.10753" lon="-1.81901">
        <ele>65</ele>
        <time>2021-03-14T12:51:43.000Z</time>
      </trkpt>
      <trkpt lat="47.10752" lon="-1.81918">
        <ele>65</ele>
        <time>2021-03-14T12:51:45.000Z</time>
      </trkpt>
      <trkpt lat="47.10752" lon="-1.81935">
        <ele>64</ele>
        <time>2021-03-14T12:51:47.000Z</time>
      </trkpt>
      <trkpt lat="47.10752" lon="-1.81951">
        <ele>64</ele>
        <time>2021-03-14T12:51:49.000Z</time>
      </trkpt>
      <trkpt lat="47.10753" lon="-1.81967">
        <ele>64</ele>
        <time>2021-03-14T12:51:51.000Z</time>
      </trkpt>
      <trkpt lat="47.10755" lon="-1.81984">
        <ele>64</ele>
        <time>2021-03-14T12:51:53.000Z</time>
      </trkpt>
      <trkpt lat="47.10756" lon="-1.82">
        <ele>64</ele>
        <time>2021-03-14T12:51:55.000Z</time>
      </trkpt>
      <trkpt lat="47.10753" lon="-1.82016">
        <ele>64</ele>
        <time>2021-03-14T12:51:57.000Z</time>
      </trkpt>
      <trkpt lat="47.10748" lon="-1.82031">
        <ele>64</ele>
        <time>2021-03-14T12:51:59.000Z</time>
      </trkpt>
      <trkpt lat="47.10742" lon="-1.82044">
        <ele>63</ele>
        <time>2021-03-14T12:52:01.000Z</time>
      </trkpt>
      <trkpt lat="47.10735" lon="-1.82055">
        <ele>64</ele>
        <time>2021-03-14T12:52:03.000Z</time>
      </trkpt>
      <trkpt lat="47.10727" lon="-1.82067">
        <ele>64</ele>
        <time>2021-03-14T12:52:05.000Z</time>
      </trkpt>
      <trkpt lat="47.10718" lon="-1.8208">
        <ele>63</ele>
        <time>2021-03-14T12:52:07.000Z</time>
      </trkpt>
      <trkpt lat="47.10709" lon="-1.82093">
        <ele>63</ele>
        <time>2021-03-14T12:52:09.000Z</time>
      </trkpt>
      <trkpt lat="47.10701" lon="-1.82106">
        <ele>63</ele>
        <time>2021-03-14T12:52:11.000Z</time>
      </trkpt>
      <trkpt lat="47.10692" lon="-1.82119">
        <ele>63</ele>
        <time>2021-03-14T12:52:13.000Z</time>
      </trkpt>
      <trkpt lat="47.10683" lon="-1.82131">
        <ele>63</ele>
        <time>2021-03-14T12:52:15.000Z</time>
      </trkpt>
      <trkpt lat="47.10675" lon="-1.82145">
        <ele>63</ele>
        <time>2021-03-14T12:52:17.000Z</time>
      </trkpt>
      <trkpt lat="47.10666" lon="-1.82159">
        <ele>63</ele>
        <time>2021-03-14T12:52:19.000Z</time>
      </trkpt>
      <trkpt lat="47.10658" lon="-1.82175">
        <ele>63</ele>
        <time>2021-03-14T12:52:21.000Z</time>
      </trkpt>
      <trkpt lat="47.10652" lon="-1.82191">
        <ele>63</ele>
        <time>2021-03-14T12:52:23.000Z</time>
      </trkpt>
      <trkpt lat="47.10649" lon="-1.82211">
        <ele>63</ele>
        <time>2021-03-14T12:52:25.000Z</time>
      </trkpt>
      <trkpt lat="47.10647" lon="-1.82229">
        <ele>63</ele>
        <time>2021-03-14T12:52:27.000Z</time>
      </trkpt>
      <trkpt lat="47.10644" lon="-1.82248">
        <ele>64</ele>
        <time>2021-03-14T12:52:29.000Z</time>
      </trkpt>
      <trkpt lat="47.10643" lon="-1.82267">
        <ele>64</ele>
        <time>2021-03-14T12:52:31.000Z</time>
      </trkpt>
      <trkpt lat="47.10641" lon="-1.82286">
        <ele>64</ele>
        <time>2021-03-14T12:52:33.000Z</time>
      </trkpt>
      <trkpt lat="47.10641" lon="-1.82305">
        <ele>64</ele>
        <time>2021-03-14T12:52:35.000Z</time>
      </trkpt>
      <trkpt lat="47.1064" lon="-1.82322">
        <ele>64</ele>
        <time>2021-03-14T12:52:37.000Z</time>
      </trkpt>
      <trkpt lat="47.10638" lon="-1.8234">
        <ele>64</ele>
        <time>2021-03-14T12:52:39.000Z</time>
      </trkpt>
      <trkpt lat="47.10637" lon="-1.82358">
        <ele>64</ele>
        <time>2021-03-14T12:52:41.000Z</time>
      </trkpt>
      <trkpt lat="47.10635" lon="-1.82376">
        <ele>63</ele>
        <time>2021-03-14T12:52:43.000Z</time>
      </trkpt>
      <trkpt lat="47.10633" lon="-1.82394">
        <ele>64</ele>
        <time>2021-03-14T12:52:45.000Z</time>
      </trkpt>
      <trkpt lat="47.1063" lon="-1.82412">
        <ele>63</ele>
        <time>2021-03-14T12:52:47.000Z</time>
      </trkpt>
      <trkpt lat="47.10628" lon="-1.8243">
        <ele>63</ele>
        <time>2021-03-14T12:52:49.000Z</time>
      </trkpt>
      <trkpt lat="47.10626" lon="-1.82448">
        <ele>63</ele>
        <time>2021-03-14T12:52:51.000Z</time>
      </trkpt>
      <trkpt lat="47.10624" lon="-1.82466">
        <ele>63</ele>
        <time>2021-03-14T12:52:53.000Z</time>
      </trkpt>
      <trkpt lat="47.10622" lon="-1.82483">
        <ele>63</ele>
        <time>2021-03-14T12:52:55.000Z</time>
      </trkpt>
      <trkpt lat="47.10619" lon="-1.825">
        <ele>63</ele>
        <time>2021-03-14T12:52:57.000Z</time>
      </trkpt>
      <trkpt lat="47.10617" lon="-1.82519">
        <ele>63</ele>
        <time>2021-03-14T12:52:59.000Z</time>
      </trkpt>
      <trkpt lat="47.10615" lon="-1.82538">
        <ele>63</ele>
        <time>2021-03-14T12:53:01.000Z</time>
      </trkpt>
      <trkpt lat="47.10613" lon="-1.82556">
        <ele>63</ele>
        <time>2021-03-14T12:53:03.000Z</time>
      </trkpt>
      <trkpt lat="47.10612" lon="-1.82573">
        <ele>63</ele>
        <time>2021-03-14T12:53:05.000Z</time>
      </trkpt>
      <trkpt lat="47.10612" lon="-1.8259">
        <ele>63</ele>
        <time>2021-03-14T12:53:07.000Z</time>
      </trkpt>
      <trkpt lat="47.10613" lon="-1.82606">
        <ele>63</ele>
        <time>2021-03-14T12:53:09.000Z</time>
      </trkpt>
      <trkpt lat="47.10615" lon="-1.82622">
        <ele>63</ele>
        <time>2021-03-14T12:53:11.000Z</time>
      </trkpt>
      <trkpt lat="47.10616" lon="-1.82638">
        <ele>63</ele>
        <time>2021-03-14T12:53:13.000Z</time>
      </trkpt>
      <trkpt lat="47.10618" lon="-1.82654">
        <ele>63</ele>
        <time>2021-03-14T12:53:15.000Z</time>
      </trkpt>
      <trkpt lat="47.10621" lon="-1.8267">
        <ele>63</ele>
        <time>2021-03-14T12:53:17.000Z</time>
      </trkpt>
      <trkpt lat="47.10623" lon="-1.82685">
        <ele>63</ele>
        <time>2021-03-14T12:53:19.000Z</time>
      </trkpt>
      <trkpt lat="47.10625" lon="-1.827">
        <ele>62</ele>
        <time>2021-03-14T12:53:21.000Z</time>
      </trkpt>
      <trkpt lat="47.10627" lon="-1.82716">
        <ele>62</ele>
        <time>2021-03-14T12:53:23.000Z</time>
      </trkpt>
      <trkpt lat="47.10629" lon="-1.82732">
        <ele>62</ele>
        <time>2021-03-14T12:53:25.000Z</time>
      </trkpt>
      <trkpt lat="47.10632" lon="-1.82747">
        <ele>62</ele>
        <time>2021-03-14T12:53:27.000Z</time>
      </trkpt>
      <trkpt lat="47.10634" lon="-1.82762">
        <ele>62</ele>
        <time>2021-03-14T12:53:29.000Z</time>
      </trkpt>
      <trkpt lat="47.10636" lon="-1.82777">
        <ele>62</ele>
        <time>2021-03-14T12:53:31.000Z</time>
      </trkpt>
      <trkpt lat="47.10638" lon="-1.82792">
        <ele>62</ele>
        <time>2021-03-14T12:53:33.000Z</time>
      </trkpt>
      <trkpt lat="47.1064" lon="-1.82809">
        <ele>62</ele>
        <time>2021-03-14T12:53:35.000Z</time>
      </trkpt>
      <trkpt lat="47.10642" lon="-1.82825">
        <ele>61</ele>
        <time>2021-03-14T12:53:37.000Z</time>
      </trkpt>
      <trkpt lat="47.10645" lon="-1.82841">
        <ele>62</ele>
        <time>2021-03-14T12:53:39.000Z</time>
      </trkpt>
      <trkpt lat="47.10647" lon="-1.82856">
        <ele>62</ele>
        <time>2021-03-14T12:53:41.000Z</time>
      </trkpt>
      <trkpt lat="47.10649" lon="-1.82871">
        <ele>62</ele>
        <time>2021-03-14T12:53:43.000Z</time>
      </trkpt>
      <trkpt lat="47.10651" lon="-1.82885">
        <ele>62</ele>
        <time>2021-03-14T12:53:45.000Z</time>
      </trkpt>
      <trkpt lat="47.10654" lon="-1.829">
        <ele>62</ele>
        <time>2021-03-14T12:53:47.000Z</time>
      </trkpt>
      <trkpt lat="47.10656" lon="-1.82916">
        <ele>62</ele>
        <time>2021-03-14T12:53:49.000Z</time>
      </trkpt>
      <trkpt lat="47.10658" lon="-1.82931">
        <ele>61</ele>
        <time>2021-03-14T12:53:51.000Z</time>
      </trkpt>
      <trkpt lat="47.10661" lon="-1.82947">
        <ele>61</ele>
        <time>2021-03-14T12:53:53.000Z</time>
      </trkpt>
      <trkpt lat="47.10663" lon="-1.82962">
        <ele>61</ele>
        <time>2021-03-14T12:53:55.000Z</time>
      </trkpt>
      <trkpt lat="47.10665" lon="-1.82978">
        <ele>61</ele>
        <time>2021-03-14T12:53:57.000Z</time>
      </trkpt>
      <trkpt lat="47.10667" lon="-1.82994">
        <ele>61</ele>
        <time>2021-03-14T12:53:59.000Z</time>
      </trkpt>
      <trkpt lat="47.10669" lon="-1.8301">
        <ele>61</ele>
        <time>2021-03-14T12:54:01.000Z</time>
      </trkpt>
      <trkpt lat="47.10672" lon="-1.83027">
        <ele>60</ele>
        <time>2021-03-14T12:54:03.000Z</time>
      </trkpt>
      <trkpt lat="47.10677" lon="-1.83043">
        <ele>60</ele>
        <time>2021-03-14T12:54:05.000Z</time>
      </trkpt>
      <trkpt lat="47.10683" lon="-1.83059">
        <ele>60</ele>
        <time>2021-03-14T12:54:07.000Z</time>
      </trkpt>
      <trkpt lat="47.10689" lon="-1.83073">
        <ele>61</ele>
        <time>2021-03-14T12:54:09.000Z</time>
      </trkpt>
      <trkpt lat="47.10696" lon="-1.83085">
        <ele>61</ele>
        <time>2021-03-14T12:54:11.000Z</time>
      </trkpt>
      <trkpt lat="47.10703" lon="-1.83096">
        <ele>61</ele>
        <time>2021-03-14T12:54:13.000Z</time>
      </trkpt>
      <trkpt lat="47.10709" lon="-1.83109">
        <ele>61</ele>
        <time>2021-03-14T12:54:15.000Z</time>
      </trkpt>
      <trkpt lat="47.10716" lon="-1.83122">
        <ele>61</ele>
        <time>2021-03-14T12:54:17.000Z</time>
      </trkpt>
      <trkpt lat="47.10723" lon="-1.83134">
        <ele>61</ele>
        <time>2021-03-14T12:54:19.000Z</time>
      </trkpt>
      <trkpt lat="47.1073" lon="-1.83147">
        <ele>62</ele>
        <time>2021-03-14T12:54:21.000Z</time>
      </trkpt>
      <trkpt lat="47.10735" lon="-1.83161">
        <ele>62</ele>
        <time>2021-03-14T12:54:23.000Z</time>
      </trkpt>
      <trkpt lat="47.10739" lon="-1.83174">
        <ele>62</ele>
        <time>2021-03-14T12:54:25.000Z</time>
      </trkpt>
      <trkpt lat="47.1074" lon="-1.83189">
        <ele>62</ele>
        <time>2021-03-14T12:54:27.000Z</time>
      </trkpt>
      <trkpt lat="47.10741" lon="-1.83203">
        <ele>62</ele>
        <time>2021-03-14T12:54:29.000Z</time>
      </trkpt>
      <trkpt lat="47.10741" lon="-1.83218">
        <ele>62</ele>
        <time>2021-03-14T12:54:31.000Z</time>
      </trkpt>
      <trkpt lat="47.10741" lon="-1.83232">
        <ele>62</ele>
        <time>2021-03-14T12:54:33.000Z</time>
      </trkpt>
      <trkpt lat="47.10742" lon="-1.83247">
        <ele>62</ele>
        <time>2021-03-14T12:54:35.000Z</time>
      </trkpt>
      <trkpt lat="47.10742" lon="-1.83262">
        <ele>62</ele>
        <time>2021-03-14T12:54:37.000Z</time>
      </trkpt>
      <trkpt lat="47.10744" lon="-1.83276">
        <ele>62</ele>
        <time>2021-03-14T12:54:39.000Z</time>
      </trkpt>
      <trkpt lat="47.10746" lon="-1.83291">
        <ele>62</ele>
        <time>2021-03-14T12:54:41.000Z</time>
      </trkpt>
      <trkpt lat="47.10749" lon="-1.83306">
        <ele>62</ele>
        <time>2021-03-14T12:54:43.000Z</time>
      </trkpt>
      <trkpt lat="47.10751" lon="-1.83321">
        <ele>62</ele>
        <time>2021-03-14T12:54:45.000Z</time>
      </trkpt>
      <trkpt lat="47.10753" lon="-1.83336">
        <ele>61</ele>
        <time>2021-03-14T12:54:47.000Z</time>
      </trkpt>
      <trkpt lat="47.10756" lon="-1.83351">
        <ele>61</ele>
        <time>2021-03-14T12:54:49.000Z</time>
      </trkpt>
      <trkpt lat="47.10758" lon="-1.83368">
        <ele>60</ele>
        <time>2021-03-14T12:54:51.000Z</time>
      </trkpt>
      <trkpt lat="47.10761" lon="-1.83385">
        <ele>60</ele>
        <time>2021-03-14T12:54:53.000Z</time>
      </trkpt>
      <trkpt lat="47.10763" lon="-1.83403">
        <ele>59</ele>
        <time>2021-03-14T12:54:55.000Z</time>
      </trkpt>
      <trkpt lat="47.10766" lon="-1.83421">
        <ele>58</ele>
        <time>2021-03-14T12:54:57.000Z</time>
      </trkpt>
      <trkpt lat="47.10769" lon="-1.83439">
        <ele>58</ele>
        <time>2021-03-14T12:54:59.000Z</time>
      </trkpt>
      <trkpt lat="47.10772" lon="-1.83455">
        <ele>58</ele>
        <time>2021-03-14T12:55:01.000Z</time>
      </trkpt>
      <trkpt lat="47.10775" lon="-1.8347">
        <ele>58</ele>
        <time>2021-03-14T12:55:03.000Z</time>
      </trkpt>
      <trkpt lat="47.10778" lon="-1.83485">
        <ele>58</ele>
        <time>2021-03-14T12:55:05.000Z</time>
      </trkpt>
      <trkpt lat="47.10781" lon="-1.83499">
        <ele>59</ele>
        <time>2021-03-14T12:55:07.000Z</time>
      </trkpt>
      <trkpt lat="47.10784" lon="-1.83512">
        <ele>59</ele>
        <time>2021-03-14T12:55:09.000Z</time>
      </trkpt>
      <trkpt lat="47.10787" lon="-1.83526">
        <ele>59</ele>
        <time>2021-03-14T12:55:11.000Z</time>
      </trkpt>
      <trkpt lat="47.10791" lon="-1.83539">
        <ele>60</ele>
        <time>2021-03-14T12:55:13.000Z</time>
      </trkpt>
      <trkpt lat="47.10794" lon="-1.83552">
        <ele>60</ele>
        <time>2021-03-14T12:55:15.000Z</time>
      </trkpt>
      <trkpt lat="47.10797" lon="-1.83564">
        <ele>60</ele>
        <time>2021-03-14T12:55:17.000Z</time>
      </trkpt>
      <trkpt lat="47.108" lon="-1.83577">
        <ele>61</ele>
        <time>2021-03-14T12:55:19.000Z</time>
      </trkpt>
      <trkpt lat="47.10805" lon="-1.83596">
        <ele>61</ele>
        <time>2021-03-14T12:55:22.000Z</time>
      </trkpt>
      <trkpt lat="47.10809" lon="-1.83614">
        <ele>61</ele>
        <time>2021-03-14T12:55:25.000Z</time>
      </trkpt>
      <trkpt lat="47.10812" lon="-1.83627">
        <ele>61</ele>
        <time>2021-03-14T12:55:27.000Z</time>
      </trkpt>
      <trkpt lat="47.10815" lon="-1.8364">
        <ele>61</ele>
        <time>2021-03-14T12:55:29.000Z</time>
      </trkpt>
      <trkpt lat="47.10818" lon="-1.83653">
        <ele>61</ele>
        <time>2021-03-14T12:55:31.000Z</time>
      </trkpt>
      <trkpt lat="47.10821" lon="-1.83666">
        <ele>61</ele>
        <time>2021-03-14T12:55:33.000Z</time>
      </trkpt>
      <trkpt lat="47.10824" lon="-1.83678">
        <ele>62</ele>
        <time>2021-03-14T12:55:35.000Z</time>
      </trkpt>
      <trkpt lat="47.10828" lon="-1.83691">
        <ele>62</ele>
        <time>2021-03-14T12:55:37.000Z</time>
      </trkpt>
      <trkpt lat="47.10832" lon="-1.8371">
        <ele>62</ele>
        <time>2021-03-14T12:55:40.000Z</time>
      </trkpt>
      <trkpt lat="47.10835" lon="-1.83722">
        <ele>62</ele>
        <time>2021-03-14T12:55:42.000Z</time>
      </trkpt>
      <trkpt lat="47.10838" lon="-1.83735">
        <ele>62</ele>
        <time>2021-03-14T12:55:44.000Z</time>
      </trkpt>
      <trkpt lat="47.10842" lon="-1.83747">
        <ele>62</ele>
        <time>2021-03-14T12:55:46.000Z</time>
      </trkpt>
      <trkpt lat="47.10846" lon="-1.83759">
        <ele>62</ele>
        <time>2021-03-14T12:55:48.000Z</time>
      </trkpt>
      <trkpt lat="47.10851" lon="-1.83772">
        <ele>62</ele>
        <time>2021-03-14T12:55:50.000Z</time>
      </trkpt>
      <trkpt lat="47.10855" lon="-1.83783">
        <ele>62</ele>
        <time>2021-03-14T12:55:52.000Z</time>
      </trkpt>
      <trkpt lat="47.1086" lon="-1.83795">
        <ele>62</ele>
        <time>2021-03-14T12:55:54.000Z</time>
      </trkpt>
      <trkpt lat="47.10866" lon="-1.83806">
        <ele>63</ele>
        <time>2021-03-14T12:55:56.000Z</time>
      </trkpt>
      <trkpt lat="47.10872" lon="-1.83818">
        <ele>63</ele>
        <time>2021-03-14T12:55:58.000Z</time>
      </trkpt>
      <trkpt lat="47.10878" lon="-1.8383">
        <ele>63</ele>
        <time>2021-03-14T12:56:00.000Z</time>
      </trkpt>
      <trkpt lat="47.10884" lon="-1.8384">
        <ele>63</ele>
        <time>2021-03-14T12:56:02.000Z</time>
      </trkpt>
      <trkpt lat="47.1089" lon="-1.83852">
        <ele>63</ele>
        <time>2021-03-14T12:56:04.000Z</time>
      </trkpt>
      <trkpt lat="47.10896" lon="-1.83863">
        <ele>63</ele>
        <time>2021-03-14T12:56:06.000Z</time>
      </trkpt>
      <trkpt lat="47.10902" lon="-1.83874">
        <ele>63</ele>
        <time>2021-03-14T12:56:08.000Z</time>
      </trkpt>
      <trkpt lat="47.10907" lon="-1.83884">
        <ele>64</ele>
        <time>2021-03-14T12:56:10.000Z</time>
      </trkpt>
      <trkpt lat="47.10913" lon="-1.83895">
        <ele>63</ele>
        <time>2021-03-14T12:56:12.000Z</time>
      </trkpt>
      <trkpt lat="47.10918" lon="-1.83906">
        <ele>64</ele>
        <time>2021-03-14T12:56:14.000Z</time>
      </trkpt>
      <trkpt lat="47.10924" lon="-1.83917">
        <ele>64</ele>
        <time>2021-03-14T12:56:16.000Z</time>
      </trkpt>
      <trkpt lat="47.1093" lon="-1.83928">
        <ele>63</ele>
        <time>2021-03-14T12:56:18.000Z</time>
      </trkpt>
      <trkpt lat="47.10936" lon="-1.83939">
        <ele>63</ele>
        <time>2021-03-14T12:56:20.000Z</time>
      </trkpt>
      <trkpt lat="47.10942" lon="-1.83951">
        <ele>63</ele>
        <time>2021-03-14T12:56:22.000Z</time>
      </trkpt>
      <trkpt lat="47.10948" lon="-1.83962">
        <ele>63</ele>
        <time>2021-03-14T12:56:24.000Z</time>
      </trkpt>
      <trkpt lat="47.10954" lon="-1.83973">
        <ele>63</ele>
        <time>2021-03-14T12:56:26.000Z</time>
      </trkpt>
      <trkpt lat="47.1096" lon="-1.83985">
        <ele>63</ele>
        <time>2021-03-14T12:56:28.000Z</time>
      </trkpt>
      <trkpt lat="47.10966" lon="-1.83996">
        <ele>63</ele>
        <time>2021-03-14T12:56:30.000Z</time>
      </trkpt>
      <trkpt lat="47.10972" lon="-1.84008">
        <ele>63</ele>
        <time>2021-03-14T12:56:32.000Z</time>
      </trkpt>
      <trkpt lat="47.10978" lon="-1.8402">
        <ele>63</ele>
        <time>2021-03-14T12:56:34.000Z</time>
      </trkpt>
      <trkpt lat="47.10984" lon="-1.84032">
        <ele>63</ele>
        <time>2021-03-14T12:56:36.000Z</time>
      </trkpt>
      <trkpt lat="47.1099" lon="-1.84044">
        <ele>63</ele>
        <time>2021-03-14T12:56:38.000Z</time>
      </trkpt>
      <trkpt lat="47.10996" lon="-1.84055">
        <ele>63</ele>
        <time>2021-03-14T12:56:40.000Z</time>
      </trkpt>
      <trkpt lat="47.11002" lon="-1.84066">
        <ele>63</ele>
        <time>2021-03-14T12:56:42.000Z</time>
      </trkpt>
      <trkpt lat="47.1101" lon="-1.84082">
        <ele>63</ele>
        <time>2021-03-14T12:56:45.000Z</time>
      </trkpt>
      <trkpt lat="47.11016" lon="-1.84095">
        <ele>63</ele>
        <time>2021-03-14T12:56:47.000Z</time>
      </trkpt>
      <trkpt lat="47.11021" lon="-1.84108">
        <ele>63</ele>
        <time>2021-03-14T12:56:49.000Z</time>
      </trkpt>
      <trkpt lat="47.11027" lon="-1.84121">
        <ele>62</ele>
        <time>2021-03-14T12:56:51.000Z</time>
      </trkpt>
      <trkpt lat="47.11032" lon="-1.84134">
        <ele>62</ele>
        <time>2021-03-14T12:56:53.000Z</time>
      </trkpt>
      <trkpt lat="47.11037" lon="-1.84146">
        <ele>62</ele>
        <time>2021-03-14T12:56:55.000Z</time>
      </trkpt>
      <trkpt lat="47.11042" lon="-1.8416">
        <ele>62</ele>
        <time>2021-03-14T12:56:57.000Z</time>
      </trkpt>
      <trkpt lat="47.11045" lon="-1.84174">
        <ele>62</ele>
        <time>2021-03-14T12:56:59.000Z</time>
      </trkpt>
      <trkpt lat="47.11047" lon="-1.84188">
        <ele>62</ele>
        <time>2021-03-14T12:57:01.000Z</time>
      </trkpt>
      <trkpt lat="47.11048" lon="-1.84203">
        <ele>62</ele>
        <time>2021-03-14T12:57:03.000Z</time>
      </trkpt>
      <trkpt lat="47.11047" lon="-1.84219">
        <ele>62</ele>
        <time>2021-03-14T12:57:05.000Z</time>
      </trkpt>
      <trkpt lat="47.11047" lon="-1.84235">
        <ele>62</ele>
        <time>2021-03-14T12:57:07.000Z</time>
      </trkpt>
      <trkpt lat="47.11047" lon="-1.8425">
        <ele>62</ele>
        <time>2021-03-14T12:57:09.000Z</time>
      </trkpt>
      <trkpt lat="47.11046" lon="-1.84265">
        <ele>62</ele>
        <time>2021-03-14T12:57:11.000Z</time>
      </trkpt>
      <trkpt lat="47.11046" lon="-1.8428">
        <ele>62</ele>
        <time>2021-03-14T12:57:13.000Z</time>
      </trkpt>
      <trkpt lat="47.11046" lon="-1.84294">
        <ele>62</ele>
        <time>2021-03-14T12:57:15.000Z</time>
      </trkpt>
      <trkpt lat="47.11046" lon="-1.84309">
        <ele>62</ele>
        <time>2021-03-14T12:57:17.000Z</time>
      </trkpt>
      <trkpt lat="47.11046" lon="-1.84323">
        <ele>61</ele>
        <time>2021-03-14T12:57:19.000Z</time>
      </trkpt>
      <trkpt lat="47.11045" lon="-1.84337">
        <ele>61</ele>
        <time>2021-03-14T12:57:21.000Z</time>
      </trkpt>
      <trkpt lat="47.11045" lon="-1.84351">
        <ele>61</ele>
        <time>2021-03-14T12:57:23.000Z</time>
      </trkpt>
      <trkpt lat="47.11045" lon="-1.84365">
        <ele>60</ele>
        <time>2021-03-14T12:57:25.000Z</time>
      </trkpt>
      <trkpt lat="47.11045" lon="-1.8438">
        <ele>60</ele>
        <time>2021-03-14T12:57:27.000Z</time>
      </trkpt>
      <trkpt lat="47.11044" lon="-1.84394">
        <ele>60</ele>
        <time>2021-03-14T12:57:29.000Z</time>
      </trkpt>
      <trkpt lat="47.11045" lon="-1.84408">
        <ele>60</ele>
        <time>2021-03-14T12:57:31.000Z</time>
      </trkpt>
      <trkpt lat="47.11044" lon="-1.84423">
        <ele>59</ele>
        <time>2021-03-14T12:57:33.000Z</time>
      </trkpt>
      <trkpt lat="47.11044" lon="-1.84438">
        <ele>59</ele>
        <time>2021-03-14T12:57:35.000Z</time>
      </trkpt>
      <trkpt lat="47.11044" lon="-1.84454">
        <ele>59</ele>
        <time>2021-03-14T12:57:37.000Z</time>
      </trkpt>
      <trkpt lat="47.11044" lon="-1.84469">
        <ele>58</ele>
        <time>2021-03-14T12:57:39.000Z</time>
      </trkpt>
      <trkpt lat="47.11044" lon="-1.84484">
        <ele>58</ele>
        <time>2021-03-14T12:57:41.000Z</time>
      </trkpt>
      <trkpt lat="47.11044" lon="-1.84499">
        <ele>58</ele>
        <time>2021-03-14T12:57:43.000Z</time>
      </trkpt>
      <trkpt lat="47.11043" lon="-1.84514">
        <ele>58</ele>
        <time>2021-03-14T12:57:45.000Z</time>
      </trkpt>
      <trkpt lat="47.11043" lon="-1.84529">
        <ele>58</ele>
        <time>2021-03-14T12:57:47.000Z</time>
      </trkpt>
      <trkpt lat="47.11042" lon="-1.84544">
        <ele>57</ele>
        <time>2021-03-14T12:57:49.000Z</time>
      </trkpt>
      <trkpt lat="47.11041" lon="-1.84559">
        <ele>57</ele>
        <time>2021-03-14T12:57:51.000Z</time>
      </trkpt>
      <trkpt lat="47.11039" lon="-1.84575">
        <ele>57</ele>
        <time>2021-03-14T12:57:53.000Z</time>
      </trkpt>
      <trkpt lat="47.11038" lon="-1.8459">
        <ele>57</ele>
        <time>2021-03-14T12:57:55.000Z</time>
      </trkpt>
      <trkpt lat="47.11036" lon="-1.84604">
        <ele>56</ele>
        <time>2021-03-14T12:57:57.000Z</time>
      </trkpt>
      <trkpt lat="47.11034" lon="-1.84619">
        <ele>56</ele>
        <time>2021-03-14T12:57:59.000Z</time>
      </trkpt>
      <trkpt lat="47.11032" lon="-1.84634">
        <ele>56</ele>
        <time>2021-03-14T12:58:01.000Z</time>
      </trkpt>
      <trkpt lat="47.11029" lon="-1.84649">
        <ele>56</ele>
        <time>2021-03-14T12:58:03.000Z</time>
      </trkpt>
      <trkpt lat="47.11027" lon="-1.84663">
        <ele>56</ele>
        <time>2021-03-14T12:58:05.000Z</time>
      </trkpt>
      <trkpt lat="47.11025" lon="-1.84678">
        <ele>55</ele>
        <time>2021-03-14T12:58:07.000Z</time>
      </trkpt>
      <trkpt lat="47.11022" lon="-1.84694">
        <ele>55</ele>
        <time>2021-03-14T12:58:09.000Z</time>
      </trkpt>
      <trkpt lat="47.1102" lon="-1.84709">
        <ele>55</ele>
        <time>2021-03-14T12:58:11.000Z</time>
      </trkpt>
      <trkpt lat="47.11018" lon="-1.84725">
        <ele>54</ele>
        <time>2021-03-14T12:58:13.000Z</time>
      </trkpt>
      <trkpt lat="47.11015" lon="-1.84741">
        <ele>54</ele>
        <time>2021-03-14T12:58:15.000Z</time>
      </trkpt>
      <trkpt lat="47.11013" lon="-1.84757">
        <ele>54</ele>
        <time>2021-03-14T12:58:17.000Z</time>
      </trkpt>
      <trkpt lat="47.11011" lon="-1.84774">
        <ele>53</ele>
        <time>2021-03-14T12:58:19.000Z</time>
      </trkpt>
      <trkpt lat="47.11009" lon="-1.8479">
        <ele>53</ele>
        <time>2021-03-14T12:58:21.000Z</time>
      </trkpt>
      <trkpt lat="47.11007" lon="-1.84806">
        <ele>53</ele>
        <time>2021-03-14T12:58:23.000Z</time>
      </trkpt>
      <trkpt lat="47.11006" lon="-1.84822">
        <ele>53</ele>
        <time>2021-03-14T12:58:25.000Z</time>
      </trkpt>
      <trkpt lat="47.11007" lon="-1.84837">
        <ele>53</ele>
        <time>2021-03-14T12:58:27.000Z</time>
      </trkpt>
      <trkpt lat="47.1101" lon="-1.84849">
        <ele>53</ele>
        <time>2021-03-14T12:58:29.000Z</time>
      </trkpt>
      <trkpt lat="47.11013" lon="-1.84864">
        <ele>53</ele>
        <time>2021-03-14T12:58:31.000Z</time>
      </trkpt>
      <trkpt lat="47.11007" lon="-1.84878">
        <ele>52</ele>
        <time>2021-03-14T12:58:33.000Z</time>
      </trkpt>
      <trkpt lat="47.11001" lon="-1.84893">
        <ele>52</ele>
        <time>2021-03-14T12:58:35.000Z</time>
      </trkpt>
      <trkpt lat="47.10996" lon="-1.84908">
        <ele>52</ele>
        <time>2021-03-14T12:58:37.000Z</time>
      </trkpt>
      <trkpt lat="47.10992" lon="-1.84924">
        <ele>52</ele>
        <time>2021-03-14T12:58:39.000Z</time>
      </trkpt>
      <trkpt lat="47.1099" lon="-1.8494">
        <ele>52</ele>
        <time>2021-03-14T12:58:41.000Z</time>
      </trkpt>
      <trkpt lat="47.10989" lon="-1.84957">
        <ele>52</ele>
        <time>2021-03-14T12:58:43.000Z</time>
      </trkpt>
      <trkpt lat="47.10988" lon="-1.84973">
        <ele>52</ele>
        <time>2021-03-14T12:58:45.000Z</time>
      </trkpt>
      <trkpt lat="47.10988" lon="-1.8499">
        <ele>52</ele>
        <time>2021-03-14T12:58:47.000Z</time>
      </trkpt>
      <trkpt lat="47.10987" lon="-1.85006">
        <ele>53</ele>
        <time>2021-03-14T12:58:49.000Z</time>
      </trkpt>
      <trkpt lat="47.10986" lon="-1.85021">
        <ele>53</ele>
        <time>2021-03-14T12:58:51.000Z</time>
      </trkpt>
      <trkpt lat="47.10985" lon="-1.85036">
        <ele>53</ele>
        <time>2021-03-14T12:58:53.000Z</time>
      </trkpt>
      <trkpt lat="47.10985" lon="-1.85051">
        <ele>53</ele>
        <time>2021-03-14T12:58:55.000Z</time>
      </trkpt>
      <trkpt lat="47.10984" lon="-1.85066">
        <ele>53</ele>
        <time>2021-03-14T12:58:57.000Z</time>
      </trkpt>
      <trkpt lat="47.10983" lon="-1.85081">
        <ele>53</ele>
        <time>2021-03-14T12:58:59.000Z</time>
      </trkpt>
      <trkpt lat="47.10982" lon="-1.85096">
        <ele>53</ele>
        <time>2021-03-14T12:59:01.000Z</time>
      </trkpt>
      <trkpt lat="47.10981" lon="-1.85111">
        <ele>53</ele>
        <time>2021-03-14T12:59:03.000Z</time>
      </trkpt>
      <trkpt lat="47.10979" lon="-1.85126">
        <ele>53</ele>
        <time>2021-03-14T12:59:05.000Z</time>
      </trkpt>
      <trkpt lat="47.10977" lon="-1.85141">
        <ele>53</ele>
        <time>2021-03-14T12:59:07.000Z</time>
      </trkpt>
      <trkpt lat="47.10975" lon="-1.85155">
        <ele>53</ele>
        <time>2021-03-14T12:59:09.000Z</time>
      </trkpt>
      <trkpt lat="47.10972" lon="-1.85169">
        <ele>53</ele>
        <time>2021-03-14T12:59:11.000Z</time>
      </trkpt>
      <trkpt lat="47.10969" lon="-1.85184">
        <ele>53</ele>
        <time>2021-03-14T12:59:13.000Z</time>
      </trkpt>
      <trkpt lat="47.10965" lon="-1.85198">
        <ele>53</ele>
        <time>2021-03-14T12:59:15.000Z</time>
      </trkpt>
      <trkpt lat="47.10961" lon="-1.85212">
        <ele>53</ele>
        <time>2021-03-14T12:59:17.000Z</time>
      </trkpt>
      <trkpt lat="47.10957" lon="-1.85226">
        <ele>53</ele>
        <time>2021-03-14T12:59:19.000Z</time>
      </trkpt>
      <trkpt lat="47.10953" lon="-1.8524">
        <ele>53</ele>
        <time>2021-03-14T12:59:21.000Z</time>
      </trkpt>
      <trkpt lat="47.10948" lon="-1.85254">
        <ele>53</ele>
        <time>2021-03-14T12:59:23.000Z</time>
      </trkpt>
      <trkpt lat="47.10944" lon="-1.85268">
        <ele>53</ele>
        <time>2021-03-14T12:59:25.000Z</time>
      </trkpt>
      <trkpt lat="47.1094" lon="-1.85282">
        <ele>52</ele>
        <time>2021-03-14T12:59:27.000Z</time>
      </trkpt>
      <trkpt lat="47.10936" lon="-1.85297">
        <ele>53</ele>
        <time>2021-03-14T12:59:29.000Z</time>
      </trkpt>
      <trkpt lat="47.10932" lon="-1.85311">
        <ele>53</ele>
        <time>2021-03-14T12:59:31.000Z</time>
      </trkpt>
      <trkpt lat="47.10928" lon="-1.85324">
        <ele>53</ele>
        <time>2021-03-14T12:59:33.000Z</time>
      </trkpt>
      <trkpt lat="47.10923" lon="-1.85338">
        <ele>53</ele>
        <time>2021-03-14T12:59:35.000Z</time>
      </trkpt>
      <trkpt lat="47.10919" lon="-1.85353">
        <ele>53</ele>
        <time>2021-03-14T12:59:37.000Z</time>
      </trkpt>
      <trkpt lat="47.10916" lon="-1.85367">
        <ele>53</ele>
        <time>2021-03-14T12:59:39.000Z</time>
      </trkpt>
      <trkpt lat="47.10912" lon="-1.8538">
        <ele>53</ele>
        <time>2021-03-14T12:59:41.000Z</time>
      </trkpt>
      <trkpt lat="47.10908" lon="-1.85394">
        <ele>53</ele>
        <time>2021-03-14T12:59:43.000Z</time>
      </trkpt>
      <trkpt lat="47.10904" lon="-1.85408">
        <ele>53</ele>
        <time>2021-03-14T12:59:45.000Z</time>
      </trkpt>
      <trkpt lat="47.109" lon="-1.85423">
        <ele>53</ele>
        <time>2021-03-14T12:59:47.000Z</time>
      </trkpt>
      <trkpt lat="47.10896" lon="-1.85437">
        <ele>53</ele>
        <time>2021-03-14T12:59:49.000Z</time>
      </trkpt>
      <trkpt lat="47.10892" lon="-1.85452">
        <ele>53</ele>
        <time>2021-03-14T12:59:51.000Z</time>
      </trkpt>
      <trkpt lat="47.10888" lon="-1.85466">
        <ele>54</ele>
        <time>2021-03-14T12:59:53.000Z</time>
      </trkpt>
      <trkpt lat="47.10883" lon="-1.8548">
        <ele>54</ele>
        <time>2021-03-14T12:59:55.000Z</time>
      </trkpt>
      <trkpt lat="47.10879" lon="-1.85494">
        <ele>54</ele>
        <time>2021-03-14T12:59:57.000Z</time>
      </trkpt>
      <trkpt lat="47.10875" lon="-1.85509">
        <ele>54</ele>
        <time>2021-03-14T12:59:59.000Z</time>
      </trkpt>
      <trkpt lat="47.10871" lon="-1.85524">
        <ele>54</ele>
        <time>2021-03-14T13:00:01.000Z</time>
      </trkpt>
      <trkpt lat="47.10867" lon="-1.85539">
        <ele>54</ele>
        <time>2021-03-14T13:00:03.000Z</time>
      </trkpt>
      <trkpt lat="47.10863" lon="-1.85554">
        <ele>54</ele>
        <time>2021-03-14T13:00:05.000Z</time>
      </trkpt>
      <trkpt lat="47.10859" lon="-1.8557">
        <ele>54</ele>
        <time>2021-03-14T13:00:07.000Z</time>
      </trkpt>
      <trkpt lat="47.10855" lon="-1.85585">
        <ele>54</ele>
        <time>2021-03-14T13:00:09.000Z</time>
      </trkpt>
      <trkpt lat="47.10852" lon="-1.85601">
        <ele>54</ele>
        <time>2021-03-14T13:00:11.000Z</time>
      </trkpt>
      <trkpt lat="47.10849" lon="-1.85616">
        <ele>54</ele>
        <time>2021-03-14T13:00:13.000Z</time>
      </trkpt>
      <trkpt lat="47.10846" lon="-1.85632">
        <ele>55</ele>
        <time>2021-03-14T13:00:15.000Z</time>
      </trkpt>
      <trkpt lat="47.10842" lon="-1.85648">
        <ele>55</ele>
        <time>2021-03-14T13:00:17.000Z</time>
      </trkpt>
      <trkpt lat="47.10839" lon="-1.85664">
        <ele>54</ele>
        <time>2021-03-14T13:00:19.000Z</time>
      </trkpt>
      <trkpt lat="47.10836" lon="-1.8568">
        <ele>54</ele>
        <time>2021-03-14T13:00:21.000Z</time>
      </trkpt>
      <trkpt lat="47.10833" lon="-1.85697">
        <ele>54</ele>
        <time>2021-03-14T13:00:23.000Z</time>
      </trkpt>
      <trkpt lat="47.1083" lon="-1.85713">
        <ele>54</ele>
        <time>2021-03-14T13:00:25.000Z</time>
      </trkpt>
      <trkpt lat="47.10827" lon="-1.8573">
        <ele>54</ele>
        <time>2021-03-14T13:00:27.000Z</time>
      </trkpt>
      <trkpt lat="47.10824" lon="-1.85746">
        <ele>54</ele>
        <time>2021-03-14T13:00:29.000Z</time>
      </trkpt>
      <trkpt lat="47.10821" lon="-1.85762">
        <ele>54</ele>
        <time>2021-03-14T13:00:31.000Z</time>
      </trkpt>
      <trkpt lat="47.10817" lon="-1.85778">
        <ele>54</ele>
        <time>2021-03-14T13:00:33.000Z</time>
      </trkpt>
      <trkpt lat="47.10814" lon="-1.85794">
        <ele>53</ele>
        <time>2021-03-14T13:00:35.000Z</time>
      </trkpt>
      <trkpt lat="47.10811" lon="-1.8581">
        <ele>53</ele>
        <time>2021-03-14T13:00:37.000Z</time>
      </trkpt>
      <trkpt lat="47.10808" lon="-1.85826">
        <ele>53</ele>
        <time>2021-03-14T13:00:39.000Z</time>
      </trkpt>
      <trkpt lat="47.10804" lon="-1.85842">
        <ele>53</ele>
        <time>2021-03-14T13:00:41.000Z</time>
      </trkpt>
      <trkpt lat="47.108" lon="-1.85858">
        <ele>53</ele>
        <time>2021-03-14T13:00:43.000Z</time>
      </trkpt>
      <trkpt lat="47.10795" lon="-1.85874">
        <ele>53</ele>
        <time>2021-03-14T13:00:45.000Z</time>
      </trkpt>
      <trkpt lat="47.10791" lon="-1.8589">
        <ele>53</ele>
        <time>2021-03-14T13:00:47.000Z</time>
      </trkpt>
      <trkpt lat="47.10786" lon="-1.85905">
        <ele>53</ele>
        <time>2021-03-14T13:00:49.000Z</time>
      </trkpt>
      <trkpt lat="47.10781" lon="-1.8592">
        <ele>53</ele>
        <time>2021-03-14T13:00:51.000Z</time>
      </trkpt>
      <trkpt lat="47.10777" lon="-1.85935">
        <ele>54</ele>
        <time>2021-03-14T13:00:53.000Z</time>
      </trkpt>
      <trkpt lat="47.10772" lon="-1.85949">
        <ele>54</ele>
        <time>2021-03-14T13:00:55.000Z</time>
      </trkpt>
      <trkpt lat="47.10768" lon="-1.85965">
        <ele>54</ele>
        <time>2021-03-14T13:00:57.000Z</time>
      </trkpt>
      <trkpt lat="47.10763" lon="-1.8598">
        <ele>54</ele>
        <time>2021-03-14T13:00:59.000Z</time>
      </trkpt>
      <trkpt lat="47.10759" lon="-1.85993">
        <ele>54</ele>
        <time>2021-03-14T13:01:01.000Z</time>
      </trkpt>
      <trkpt lat="47.10754" lon="-1.86006">
        <ele>54</ele>
        <time>2021-03-14T13:01:03.000Z</time>
      </trkpt>
      <trkpt lat="47.10748" lon="-1.86021">
        <ele>54</ele>
        <time>2021-03-14T13:01:05.000Z</time>
      </trkpt>
      <trkpt lat="47.10741" lon="-1.86034">
        <ele>55</ele>
        <time>2021-03-14T13:01:07.000Z</time>
      </trkpt>
      <trkpt lat="47.10734" lon="-1.86047">
        <ele>55</ele>
        <time>2021-03-14T13:01:09.000Z</time>
      </trkpt>
      <trkpt lat="47.10727" lon="-1.86059">
        <ele>56</ele>
        <time>2021-03-14T13:01:11.000Z</time>
      </trkpt>
      <trkpt lat="47.10719" lon="-1.8607">
        <ele>56</ele>
        <time>2021-03-14T13:01:13.000Z</time>
      </trkpt>
      <trkpt lat="47.10711" lon="-1.86082">
        <ele>56</ele>
        <time>2021-03-14T13:01:15.000Z</time>
      </trkpt>
      <trkpt lat="47.10703" lon="-1.86092">
        <ele>56</ele>
        <time>2021-03-14T13:01:17.000Z</time>
      </trkpt>
      <trkpt lat="47.10695" lon="-1.86103">
        <ele>56</ele>
        <time>2021-03-14T13:01:19.000Z</time>
      </trkpt>
      <trkpt lat="47.10687" lon="-1.86113">
        <ele>56</ele>
        <time>2021-03-14T13:01:21.000Z</time>
      </trkpt>
      <trkpt lat="47.10678" lon="-1.86124">
        <ele>56</ele>
        <time>2021-03-14T13:01:23.000Z</time>
      </trkpt>
      <trkpt lat="47.1067" lon="-1.86135">
        <ele>56</ele>
        <time>2021-03-14T13:01:25.000Z</time>
      </trkpt>
      <trkpt lat="47.10662" lon="-1.86145">
        <ele>56</ele>
        <time>2021-03-14T13:01:27.000Z</time>
      </trkpt>
      <trkpt lat="47.10654" lon="-1.86155">
        <ele>55</ele>
        <time>2021-03-14T13:01:29.000Z</time>
      </trkpt>
      <trkpt lat="47.10646" lon="-1.86166">
        <ele>56</ele>
        <time>2021-03-14T13:01:31.000Z</time>
      </trkpt>
      <trkpt lat="47.10638" lon="-1.86175">
        <ele>56</ele>
        <time>2021-03-14T13:01:33.000Z</time>
      </trkpt>
      <trkpt lat="47.10631" lon="-1.86186">
        <ele>56</ele>
        <time>2021-03-14T13:01:35.000Z</time>
      </trkpt>
      <trkpt lat="47.10623" lon="-1.86198">
        <ele>56</ele>
        <time>2021-03-14T13:01:37.000Z</time>
      </trkpt>
      <trkpt lat="47.10615" lon="-1.86208">
        <ele>57</ele>
        <time>2021-03-14T13:01:39.000Z</time>
      </trkpt>
      <trkpt lat="47.10608" lon="-1.86218">
        <ele>57</ele>
        <time>2021-03-14T13:01:41.000Z</time>
      </trkpt>
      <trkpt lat="47.106" lon="-1.86229">
        <ele>58</ele>
        <time>2021-03-14T13:01:43.000Z</time>
      </trkpt>
      <trkpt lat="47.10592" lon="-1.8624">
        <ele>58</ele>
        <time>2021-03-14T13:01:45.000Z</time>
      </trkpt>
      <trkpt lat="47.10584" lon="-1.8625">
        <ele>58</ele>
        <time>2021-03-14T13:01:47.000Z</time>
      </trkpt>
      <trkpt lat="47.10577" lon="-1.86261">
        <ele>58</ele>
        <time>2021-03-14T13:01:49.000Z</time>
      </trkpt>
      <trkpt lat="47.10569" lon="-1.86271">
        <ele>59</ele>
        <time>2021-03-14T13:01:51.000Z</time>
      </trkpt>
      <trkpt lat="47.10561" lon="-1.86281">
        <ele>59</ele>
        <time>2021-03-14T13:01:53.000Z</time>
      </trkpt>
      <trkpt lat="47.10554" lon="-1.86291">
        <ele>59</ele>
        <time>2021-03-14T13:01:55.000Z</time>
      </trkpt>
      <trkpt lat="47.10547" lon="-1.86301">
        <ele>59</ele>
        <time>2021-03-14T13:01:57.000Z</time>
      </trkpt>
      <trkpt lat="47.10539" lon="-1.86312">
        <ele>60</ele>
        <time>2021-03-14T13:01:59.000Z</time>
      </trkpt>
      <trkpt lat="47.10532" lon="-1.86322">
        <ele>60</ele>
        <time>2021-03-14T13:02:01.000Z</time>
      </trkpt>
      <trkpt lat="47.10524" lon="-1.86332">
        <ele>61</ele>
        <time>2021-03-14T13:02:03.000Z</time>
      </trkpt>
      <trkpt lat="47.10517" lon="-1.86341">
        <ele>61</ele>
        <time>2021-03-14T13:02:05.000Z</time>
      </trkpt>
      <trkpt lat="47.10509" lon="-1.86351">
        <ele>60</ele>
        <time>2021-03-14T13:02:07.000Z</time>
      </trkpt>
      <trkpt lat="47.105" lon="-1.86359">
        <ele>61</ele>
        <time>2021-03-14T13:02:09.000Z</time>
      </trkpt>
      <trkpt lat="47.10486" lon="-1.8637">
        <ele>61</ele>
        <time>2021-03-14T13:02:12.000Z</time>
      </trkpt>
      <trkpt lat="47.10477" lon="-1.86376">
        <ele>61</ele>
        <time>2021-03-14T13:02:14.000Z</time>
      </trkpt>
      <trkpt lat="47.10467" lon="-1.86384">
        <ele>62</ele>
        <time>2021-03-14T13:02:16.000Z</time>
      </trkpt>
      <trkpt lat="47.10458" lon="-1.86392">
        <ele>63</ele>
        <time>2021-03-14T13:02:18.000Z</time>
      </trkpt>
      <trkpt lat="47.10449" lon="-1.86399">
        <ele>63</ele>
        <time>2021-03-14T13:02:20.000Z</time>
      </trkpt>
      <trkpt lat="47.1044" lon="-1.86405">
        <ele>63</ele>
        <time>2021-03-14T13:02:22.000Z</time>
      </trkpt>
      <trkpt lat="47.10429" lon="-1.86412">
        <ele>63</ele>
        <time>2021-03-14T13:02:24.000Z</time>
      </trkpt>
      <trkpt lat="47.10419" lon="-1.8642">
        <ele>63</ele>
        <time>2021-03-14T13:02:26.000Z</time>
      </trkpt>
      <trkpt lat="47.1041" lon="-1.86427">
        <ele>63</ele>
        <time>2021-03-14T13:02:28.000Z</time>
      </trkpt>
      <trkpt lat="47.104" lon="-1.86433">
        <ele>62</ele>
        <time>2021-03-14T13:02:30.000Z</time>
      </trkpt>
      <trkpt lat="47.10391" lon="-1.86441">
        <ele>62</ele>
        <time>2021-03-14T13:02:32.000Z</time>
      </trkpt>
      <trkpt lat="47.1038" lon="-1.86446">
        <ele>62</ele>
        <time>2021-03-14T13:02:34.000Z</time>
      </trkpt>
      <trkpt lat="47.1037" lon="-1.8645">
        <ele>62</ele>
        <time>2021-03-14T13:02:36.000Z</time>
      </trkpt>
      <trkpt lat="47.10359" lon="-1.86455">
        <ele>62</ele>
        <time>2021-03-14T13:02:38.000Z</time>
      </trkpt>
      <trkpt lat="47.10349" lon="-1.86459">
        <ele>62</ele>
        <time>2021-03-14T13:02:40.000Z</time>
      </trkpt>
      <trkpt lat="47.10341" lon="-1.86463">
        <ele>62</ele>
        <time>2021-03-14T13:02:42.000Z</time>
      </trkpt>
      <trkpt lat="47.10333" lon="-1.8647">
        <ele>62</ele>
        <time>2021-03-14T13:02:45.000Z</time>
      </trkpt>
      <trkpt lat="47.10334" lon="-1.86483">
        <ele>62</ele>
        <time>2021-03-14T13:02:48.000Z</time>
      </trkpt>
      <trkpt lat="47.10337" lon="-1.86501">
        <ele>61</ele>
        <time>2021-03-14T13:02:52.000Z</time>
      </trkpt>
      <trkpt lat="47.10327" lon="-1.86508">
        <ele>61</ele>
        <time>2021-03-14T13:02:55.000Z</time>
      </trkpt>
      <trkpt lat="47.10334" lon="-1.86495">
        <ele>61</ele>
        <time>2021-03-14T13:03:23.000Z</time>
      </trkpt>
      <trkpt lat="47.10332" lon="-1.86481">
        <ele>61</ele>
        <time>2021-03-14T13:03:26.000Z</time>
      </trkpt>
      <trkpt lat="47.10324" lon="-1.86475">
        <ele>61</ele>
        <time>2021-03-14T13:06:16.000Z</time>
      </trkpt>
      <trkpt lat="47.10316" lon="-1.86463">
        <ele>61</ele>
        <time>2021-03-14T13:06:22.000Z</time>
      </trkpt>
      <trkpt lat="47.10311" lon="-1.86449">
        <ele>61</ele>
        <time>2021-03-14T13:06:25.000Z</time>
      </trkpt>
      <trkpt lat="47.10311" lon="-1.86436">
        <ele>61</ele>
        <time>2021-03-14T13:06:27.000Z</time>
      </trkpt>
      <trkpt lat="47.10308" lon="-1.86415">
        <ele>61</ele>
        <time>2021-03-14T13:06:31.000Z</time>
      </trkpt>
      <trkpt lat="47.10306" lon="-1.86397">
        <ele>61</ele>
        <time>2021-03-14T13:06:33.000Z</time>
      </trkpt>
      <trkpt lat="47.10304" lon="-1.86378">
        <ele>61</ele>
        <time>2021-03-14T13:06:35.000Z</time>
      </trkpt>
      <trkpt lat="47.10301" lon="-1.8636">
        <ele>61</ele>
        <time>2021-03-14T13:06:37.000Z</time>
      </trkpt>
      <trkpt lat="47.10298" lon="-1.86342">
        <ele>62</ele>
        <time>2021-03-14T13:06:39.000Z</time>
      </trkpt>
      <trkpt lat="47.10295" lon="-1.86325">
        <ele>62</ele>
        <time>2021-03-14T13:06:41.000Z</time>
      </trkpt>
      <trkpt lat="47.10291" lon="-1.86308">
        <ele>62</ele>
        <time>2021-03-14T13:06:43.000Z</time>
      </trkpt>
      <trkpt lat="47.10287" lon="-1.8629">
        <ele>62</ele>
        <time>2021-03-14T13:06:45.000Z</time>
      </trkpt>
      <trkpt lat="47.1028" lon="-1.86274">
        <ele>62</ele>
        <time>2021-03-14T13:06:47.000Z</time>
      </trkpt>
      <trkpt lat="47.10273" lon="-1.86258">
        <ele>62</ele>
        <time>2021-03-14T13:06:49.000Z</time>
      </trkpt>
      <trkpt lat="47.10266" lon="-1.86242">
        <ele>61</ele>
        <time>2021-03-14T13:06:51.000Z</time>
      </trkpt>
      <trkpt lat="47.10258" lon="-1.86227">
        <ele>61</ele>
        <time>2021-03-14T13:06:53.000Z</time>
      </trkpt>
      <trkpt lat="47.10251" lon="-1.86211">
        <ele>60</ele>
        <time>2021-03-14T13:06:55.000Z</time>
      </trkpt>
      <trkpt lat="47.10245" lon="-1.86193">
        <ele>60</ele>
        <time>2021-03-14T13:06:57.000Z</time>
      </trkpt>
      <trkpt lat="47.10239" lon="-1.86176">
        <ele>60</ele>
        <time>2021-03-14T13:06:59.000Z</time>
      </trkpt>
      <trkpt lat="47.10233" lon="-1.86159">
        <ele>61</ele>
        <time>2021-03-14T13:07:01.000Z</time>
      </trkpt>
      <trkpt lat="47.10227" lon="-1.86143">
        <ele>61</ele>
        <time>2021-03-14T13:07:03.000Z</time>
      </trkpt>
      <trkpt lat="47.10221" lon="-1.86126">
        <ele>61</ele>
        <time>2021-03-14T13:07:05.000Z</time>
      </trkpt>
      <trkpt lat="47.10215" lon="-1.86109">
        <ele>61</ele>
        <time>2021-03-14T13:07:07.000Z</time>
      </trkpt>
      <trkpt lat="47.10209" lon="-1.86092">
        <ele>61</ele>
        <time>2021-03-14T13:07:09.000Z</time>
      </trkpt>
      <trkpt lat="47.10202" lon="-1.86074">
        <ele>60</ele>
        <time>2021-03-14T13:07:11.000Z</time>
      </trkpt>
      <trkpt lat="47.10196" lon="-1.86056">
        <ele>61</ele>
        <time>2021-03-14T13:07:13.000Z</time>
      </trkpt>
      <trkpt lat="47.10189" lon="-1.86039">
        <ele>61</ele>
        <time>2021-03-14T13:07:15.000Z</time>
      </trkpt>
      <trkpt lat="47.10183" lon="-1.86021">
        <ele>61</ele>
        <time>2021-03-14T13:07:17.000Z</time>
      </trkpt>
      <trkpt lat="47.10177" lon="-1.86004">
        <ele>62</ele>
        <time>2021-03-14T13:07:19.000Z</time>
      </trkpt>
      <trkpt lat="47.10171" lon="-1.85988">
        <ele>63</ele>
        <time>2021-03-14T13:07:21.000Z</time>
      </trkpt>
      <trkpt lat="47.10165" lon="-1.85972">
        <ele>63</ele>
        <time>2021-03-14T13:07:23.000Z</time>
      </trkpt>
      <trkpt lat="47.10158" lon="-1.85956">
        <ele>64</ele>
        <time>2021-03-14T13:07:25.000Z</time>
      </trkpt>
      <trkpt lat="47.10151" lon="-1.8594">
        <ele>64</ele>
        <time>2021-03-14T13:07:27.000Z</time>
      </trkpt>
      <trkpt lat="47.10144" lon="-1.85924">
        <ele>64</ele>
        <time>2021-03-14T13:07:29.000Z</time>
      </trkpt>
      <trkpt lat="47.10138" lon="-1.85908">
        <ele>63</ele>
        <time>2021-03-14T13:07:31.000Z</time>
      </trkpt>
      <trkpt lat="47.1013" lon="-1.85893">
        <ele>63</ele>
        <time>2021-03-14T13:07:33.000Z</time>
      </trkpt>
      <trkpt lat="47.10123" lon="-1.85878">
        <ele>63</ele>
        <time>2021-03-14T13:07:35.000Z</time>
      </trkpt>
      <trkpt lat="47.10116" lon="-1.85862">
        <ele>63</ele>
        <time>2021-03-14T13:07:37.000Z</time>
      </trkpt>
      <trkpt lat="47.10107" lon="-1.85849">
        <ele>63</ele>
        <time>2021-03-14T13:07:39.000Z</time>
      </trkpt>
      <trkpt lat="47.10096" lon="-1.85843">
        <ele>63</ele>
        <time>2021-03-14T13:07:41.000Z</time>
      </trkpt>
      <trkpt lat="47.10092" lon="-1.85826">
        <ele>63</ele>
        <time>2021-03-14T13:07:43.000Z</time>
      </trkpt>
      <trkpt lat="47.10096" lon="-1.8581">
        <ele>63</ele>
        <time>2021-03-14T13:07:45.000Z</time>
      </trkpt>
      <trkpt lat="47.10096" lon="-1.85792">
        <ele>63</ele>
        <time>2021-03-14T13:07:47.000Z</time>
      </trkpt>
      <trkpt lat="47.10093" lon="-1.85772">
        <ele>64</ele>
        <time>2021-03-14T13:07:49.000Z</time>
      </trkpt>
      <trkpt lat="47.10091" lon="-1.85752">
        <ele>64</ele>
        <time>2021-03-14T13:07:51.000Z</time>
      </trkpt>
      <trkpt lat="47.10089" lon="-1.85732">
        <ele>63</ele>
        <time>2021-03-14T13:07:53.000Z</time>
      </trkpt>
      <trkpt lat="47.10088" lon="-1.85711">
        <ele>63</ele>
        <time>2021-03-14T13:07:55.000Z</time>
      </trkpt>
      <trkpt lat="47.10086" lon="-1.8569">
        <ele>63</ele>
        <time>2021-03-14T13:07:57.000Z</time>
      </trkpt>
      <trkpt lat="47.10084" lon="-1.85668">
        <ele>62</ele>
        <time>2021-03-14T13:07:59.000Z</time>
      </trkpt>
      <trkpt lat="47.10082" lon="-1.85647">
        <ele>62</ele>
        <time>2021-03-14T13:08:01.000Z</time>
      </trkpt>
      <trkpt lat="47.10081" lon="-1.85625">
        <ele>61</ele>
        <time>2021-03-14T13:08:03.000Z</time>
      </trkpt>
      <trkpt lat="47.10079" lon="-1.85603">
        <ele>61</ele>
        <time>2021-03-14T13:08:05.000Z</time>
      </trkpt>
      <trkpt lat="47.10075" lon="-1.85582">
        <ele>60</ele>
        <time>2021-03-14T13:08:07.000Z</time>
      </trkpt>
      <trkpt lat="47.10069" lon="-1.8556">
        <ele>60</ele>
        <time>2021-03-14T13:08:09.000Z</time>
      </trkpt>
      <trkpt lat="47.1006" lon="-1.8554">
        <ele>60</ele>
        <time>2021-03-14T13:08:11.000Z</time>
      </trkpt>
      <trkpt lat="47.10049" lon="-1.85522">
        <ele>59</ele>
        <time>2021-03-14T13:08:13.000Z</time>
      </trkpt>
      <trkpt lat="47.10036" lon="-1.85504">
        <ele>58</ele>
        <time>2021-03-14T13:08:15.000Z</time>
      </trkpt>
      <trkpt lat="47.10029" lon="-1.85494">
        <ele>57</ele>
        <time>2021-03-14T13:08:16.000Z</time>
      </trkpt>
      <trkpt lat="47.10016" lon="-1.85477">
        <ele>57</ele>
        <time>2021-03-14T13:08:18.000Z</time>
      </trkpt>
      <trkpt lat="47.10009" lon="-1.85468">
        <ele>57</ele>
        <time>2021-03-14T13:08:19.000Z</time>
      </trkpt>
      <trkpt lat="47.10003" lon="-1.85459">
        <ele>57</ele>
        <time>2021-03-14T13:08:20.000Z</time>
      </trkpt>
      <trkpt lat="47.0999" lon="-1.85441">
        <ele>57</ele>
        <time>2021-03-14T13:08:22.000Z</time>
      </trkpt>
      <trkpt lat="47.09978" lon="-1.85425">
        <ele>57</ele>
        <time>2021-03-14T13:08:24.000Z</time>
      </trkpt>
      <trkpt lat="47.09966" lon="-1.85409">
        <ele>57</ele>
        <time>2021-03-14T13:08:26.000Z</time>
      </trkpt>
      <trkpt lat="47.09955" lon="-1.85391">
        <ele>57</ele>
        <time>2021-03-14T13:08:28.000Z</time>
      </trkpt>
      <trkpt lat="47.09945" lon="-1.85372">
        <ele>57</ele>
        <time>2021-03-14T13:08:30.000Z</time>
      </trkpt>
      <trkpt lat="47.09938" lon="-1.85352">
        <ele>57</ele>
        <time>2021-03-14T13:08:32.000Z</time>
      </trkpt>
      <trkpt lat="47.09934" lon="-1.8533">
        <ele>58</ele>
        <time>2021-03-14T13:08:34.000Z</time>
      </trkpt>
      <trkpt lat="47.09932" lon="-1.85308">
        <ele>58</ele>
        <time>2021-03-14T13:08:36.000Z</time>
      </trkpt>
      <trkpt lat="47.09931" lon="-1.85286">
        <ele>58</ele>
        <time>2021-03-14T13:08:38.000Z</time>
      </trkpt>
      <trkpt lat="47.0993" lon="-1.85264">
        <ele>58</ele>
        <time>2021-03-14T13:08:40.000Z</time>
      </trkpt>
      <trkpt lat="47.09928" lon="-1.85243">
        <ele>59</ele>
        <time>2021-03-14T13:08:42.000Z</time>
      </trkpt>
      <trkpt lat="47.09925" lon="-1.85222">
        <ele>60</ele>
        <time>2021-03-14T13:08:44.000Z</time>
      </trkpt>
      <trkpt lat="47.09922" lon="-1.85201">
        <ele>60</ele>
        <time>2021-03-14T13:08:46.000Z</time>
      </trkpt>
      <trkpt lat="47.0992" lon="-1.8518">
        <ele>61</ele>
        <time>2021-03-14T13:08:48.000Z</time>
      </trkpt>
      <trkpt lat="47.09917" lon="-1.85159">
        <ele>61</ele>
        <time>2021-03-14T13:08:50.000Z</time>
      </trkpt>
      <trkpt lat="47.09916" lon="-1.85138">
        <ele>61</ele>
        <time>2021-03-14T13:08:52.000Z</time>
      </trkpt>
      <trkpt lat="47.09916" lon="-1.85117">
        <ele>61</ele>
        <time>2021-03-14T13:08:54.000Z</time>
      </trkpt>
      <trkpt lat="47.09916" lon="-1.85096">
        <ele>61</ele>
        <time>2021-03-14T13:08:56.000Z</time>
      </trkpt>
      <trkpt lat="47.09917" lon="-1.85074">
        <ele>61</ele>
        <time>2021-03-14T13:08:58.000Z</time>
      </trkpt>
      <trkpt lat="47.09918" lon="-1.85053">
        <ele>61</ele>
        <time>2021-03-14T13:09:00.000Z</time>
      </trkpt>
      <trkpt lat="47.09919" lon="-1.85031">
        <ele>61</ele>
        <time>2021-03-14T13:09:02.000Z</time>
      </trkpt>
      <trkpt lat="47.09919" lon="-1.8501">
        <ele>60</ele>
        <time>2021-03-14T13:09:04.000Z</time>
      </trkpt>
      <trkpt lat="47.0992" lon="-1.84988">
        <ele>61</ele>
        <time>2021-03-14T13:09:06.000Z</time>
      </trkpt>
      <trkpt lat="47.09921" lon="-1.84967">
        <ele>61</ele>
        <time>2021-03-14T13:09:08.000Z</time>
      </trkpt>
      <trkpt lat="47.09921" lon="-1.84945">
        <ele>61</ele>
        <time>2021-03-14T13:09:10.000Z</time>
      </trkpt>
      <trkpt lat="47.0992" lon="-1.84923">
        <ele>61</ele>
        <time>2021-03-14T13:09:12.000Z</time>
      </trkpt>
      <trkpt lat="47.09919" lon="-1.84901">
        <ele>61</ele>
        <time>2021-03-14T13:09:14.000Z</time>
      </trkpt>
      <trkpt lat="47.09918" lon="-1.84879">
        <ele>61</ele>
        <time>2021-03-14T13:09:16.000Z</time>
      </trkpt>
      <trkpt lat="47.09917" lon="-1.84857">
        <ele>61</ele>
        <time>2021-03-14T13:09:18.000Z</time>
      </trkpt>
      <trkpt lat="47.09915" lon="-1.84836">
        <ele>61</ele>
        <time>2021-03-14T13:09:20.000Z</time>
      </trkpt>
      <trkpt lat="47.09914" lon="-1.84816">
        <ele>61</ele>
        <time>2021-03-14T13:09:22.000Z</time>
      </trkpt>
      <trkpt lat="47.09912" lon="-1.84795">
        <ele>62</ele>
        <time>2021-03-14T13:09:24.000Z</time>
      </trkpt>
      <trkpt lat="47.09911" lon="-1.84775">
        <ele>62</ele>
        <time>2021-03-14T13:09:26.000Z</time>
      </trkpt>
      <trkpt lat="47.0991" lon="-1.84754">
        <ele>63</ele>
        <time>2021-03-14T13:09:28.000Z</time>
      </trkpt>
      <trkpt lat="47.09909" lon="-1.84734">
        <ele>64</ele>
        <time>2021-03-14T13:09:30.000Z</time>
      </trkpt>
      <trkpt lat="47.09908" lon="-1.84713">
        <ele>64</ele>
        <time>2021-03-14T13:09:32.000Z</time>
      </trkpt>
      <trkpt lat="47.09907" lon="-1.84693">
        <ele>64</ele>
        <time>2021-03-14T13:09:34.000Z</time>
      </trkpt>
      <trkpt lat="47.09905" lon="-1.84671">
        <ele>64</ele>
        <time>2021-03-14T13:09:36.000Z</time>
      </trkpt>
      <trkpt lat="47.09905" lon="-1.8465">
        <ele>65</ele>
        <time>2021-03-14T13:09:38.000Z</time>
      </trkpt>
      <trkpt lat="47.09904" lon="-1.8463">
        <ele>65</ele>
        <time>2021-03-14T13:09:40.000Z</time>
      </trkpt>
      <trkpt lat="47.09903" lon="-1.8461">
        <ele>65</ele>
        <time>2021-03-14T13:09:42.000Z</time>
      </trkpt>
      <trkpt lat="47.09902" lon="-1.8459">
        <ele>65</ele>
        <time>2021-03-14T13:09:44.000Z</time>
      </trkpt>
      <trkpt lat="47.099" lon="-1.84569">
        <ele>66</ele>
        <time>2021-03-14T13:09:46.000Z</time>
      </trkpt>
      <trkpt lat="47.09899" lon="-1.84548">
        <ele>66</ele>
        <time>2021-03-14T13:09:48.000Z</time>
      </trkpt>
      <trkpt lat="47.09896" lon="-1.84527">
        <ele>65</ele>
        <time>2021-03-14T13:09:50.000Z</time>
      </trkpt>
      <trkpt lat="47.09893" lon="-1.84505">
        <ele>66</ele>
        <time>2021-03-14T13:09:52.000Z</time>
      </trkpt>
      <trkpt lat="47.09891" lon="-1.84484">
        <ele>65</ele>
        <time>2021-03-14T13:09:54.000Z</time>
      </trkpt>
      <trkpt lat="47.09888" lon="-1.84463">
        <ele>65</ele>
        <time>2021-03-14T13:09:56.000Z</time>
      </trkpt>
      <trkpt lat="47.09886" lon="-1.84441">
        <ele>65</ele>
        <time>2021-03-14T13:09:58.000Z</time>
      </trkpt>
      <trkpt lat="47.09886" lon="-1.8442">
        <ele>65</ele>
        <time>2021-03-14T13:10:00.000Z</time>
      </trkpt>
      <trkpt lat="47.09886" lon="-1.84399">
        <ele>65</ele>
        <time>2021-03-14T13:10:02.000Z</time>
      </trkpt>
      <trkpt lat="47.09887" lon="-1.84378">
        <ele>65</ele>
        <time>2021-03-14T13:10:04.000Z</time>
      </trkpt>
      <trkpt lat="47.09887" lon="-1.84357">
        <ele>65</ele>
        <time>2021-03-14T13:10:06.000Z</time>
      </trkpt>
      <trkpt lat="47.09888" lon="-1.84335">
        <ele>65</ele>
        <time>2021-03-14T13:10:08.000Z</time>
      </trkpt>
      <trkpt lat="47.09888" lon="-1.84313">
        <ele>65</ele>
        <time>2021-03-14T13:10:10.000Z</time>
      </trkpt>
      <trkpt lat="47.09887" lon="-1.84292">
        <ele>65</ele>
        <time>2021-03-14T13:10:12.000Z</time>
      </trkpt>
      <trkpt lat="47.09887" lon="-1.8427">
        <ele>65</ele>
        <time>2021-03-14T13:10:14.000Z</time>
      </trkpt>
      <trkpt lat="47.09886" lon="-1.84249">
        <ele>65</ele>
        <time>2021-03-14T13:10:16.000Z</time>
      </trkpt>
      <trkpt lat="47.09884" lon="-1.84227">
        <ele>64</ele>
        <time>2021-03-14T13:10:18.000Z</time>
      </trkpt>
      <trkpt lat="47.09882" lon="-1.84205">
        <ele>64</ele>
        <time>2021-03-14T13:10:20.000Z</time>
      </trkpt>
      <trkpt lat="47.09879" lon="-1.84184">
        <ele>64</ele>
        <time>2021-03-14T13:10:22.000Z</time>
      </trkpt>
      <trkpt lat="47.09876" lon="-1.84162">
        <ele>63</ele>
        <time>2021-03-14T13:10:24.000Z</time>
      </trkpt>
      <trkpt lat="47.09872" lon="-1.8414">
        <ele>63</ele>
        <time>2021-03-14T13:10:26.000Z</time>
      </trkpt>
      <trkpt lat="47.09868" lon="-1.84117">
        <ele>63</ele>
        <time>2021-03-14T13:10:28.000Z</time>
      </trkpt>
      <trkpt lat="47.09865" lon="-1.84094">
        <ele>62</ele>
        <time>2021-03-14T13:10:30.000Z</time>
      </trkpt>
      <trkpt lat="47.09861" lon="-1.84072">
        <ele>62</ele>
        <time>2021-03-14T13:10:32.000Z</time>
      </trkpt>
      <trkpt lat="47.09857" lon="-1.84048">
        <ele>62</ele>
        <time>2021-03-14T13:10:34.000Z</time>
      </trkpt>
      <trkpt lat="47.09853" lon="-1.84025">
        <ele>62</ele>
        <time>2021-03-14T13:10:36.000Z</time>
      </trkpt>
      <trkpt lat="47.0985" lon="-1.84001">
        <ele>62</ele>
        <time>2021-03-14T13:10:38.000Z</time>
      </trkpt>
      <trkpt lat="47.09849" lon="-1.83976">
        <ele>62</ele>
        <time>2021-03-14T13:10:40.000Z</time>
      </trkpt>
      <trkpt lat="47.09848" lon="-1.83951">
        <ele>61</ele>
        <time>2021-03-14T13:10:42.000Z</time>
      </trkpt>
      <trkpt lat="47.09849" lon="-1.83925">
        <ele>61</ele>
        <time>2021-03-14T13:10:44.000Z</time>
      </trkpt>
      <trkpt lat="47.09851" lon="-1.839">
        <ele>61</ele>
        <time>2021-03-14T13:10:46.000Z</time>
      </trkpt>
      <trkpt lat="47.09853" lon="-1.83875">
        <ele>60</ele>
        <time>2021-03-14T13:10:48.000Z</time>
      </trkpt>
      <trkpt lat="47.09855" lon="-1.8385">
        <ele>60</ele>
        <time>2021-03-14T13:10:50.000Z</time>
      </trkpt>
      <trkpt lat="47.09857" lon="-1.83824">
        <ele>60</ele>
        <time>2021-03-14T13:10:52.000Z</time>
      </trkpt>
      <trkpt lat="47.09858" lon="-1.83798">
        <ele>60</ele>
        <time>2021-03-14T13:10:54.000Z</time>
      </trkpt>
      <trkpt lat="47.09858" lon="-1.83773">
        <ele>60</ele>
        <time>2021-03-14T13:10:56.000Z</time>
      </trkpt>
      <trkpt lat="47.09859" lon="-1.83747">
        <ele>60</ele>
        <time>2021-03-14T13:10:58.000Z</time>
      </trkpt>
      <trkpt lat="47.09859" lon="-1.83721">
        <ele>60</ele>
        <time>2021-03-14T13:11:00.000Z</time>
      </trkpt>
      <trkpt lat="47.0986" lon="-1.83696">
        <ele>60</ele>
        <time>2021-03-14T13:11:02.000Z</time>
      </trkpt>
      <trkpt lat="47.0986" lon="-1.8367">
        <ele>59</ele>
        <time>2021-03-14T13:11:04.000Z</time>
      </trkpt>
      <trkpt lat="47.0986" lon="-1.83645">
        <ele>60</ele>
        <time>2021-03-14T13:11:06.000Z</time>
      </trkpt>
      <trkpt lat="47.0986" lon="-1.83619">
        <ele>59</ele>
        <time>2021-03-14T13:11:08.000Z</time>
      </trkpt>
      <trkpt lat="47.09859" lon="-1.83594">
        <ele>59</ele>
        <time>2021-03-14T13:11:10.000Z</time>
      </trkpt>
      <trkpt lat="47.09857" lon="-1.83569">
        <ele>59</ele>
        <time>2021-03-14T13:11:12.000Z</time>
      </trkpt>
      <trkpt lat="47.09854" lon="-1.83545">
        <ele>59</ele>
        <time>2021-03-14T13:11:14.000Z</time>
      </trkpt>
      <trkpt lat="47.09852" lon="-1.8352">
        <ele>59</ele>
        <time>2021-03-14T13:11:16.000Z</time>
      </trkpt>
      <trkpt lat="47.09851" lon="-1.83496">
        <ele>60</ele>
        <time>2021-03-14T13:11:18.000Z</time>
      </trkpt>
      <trkpt lat="47.0985" lon="-1.83472">
        <ele>60</ele>
        <time>2021-03-14T13:11:20.000Z</time>
      </trkpt>
      <trkpt lat="47.09852" lon="-1.83447">
        <ele>59</ele>
        <time>2021-03-14T13:11:22.000Z</time>
      </trkpt>
      <trkpt lat="47.09855" lon="-1.83424">
        <ele>59</ele>
        <time>2021-03-14T13:11:24.000Z</time>
      </trkpt>
      <trkpt lat="47.09859" lon="-1.834">
        <ele>60</ele>
        <time>2021-03-14T13:11:26.000Z</time>
      </trkpt>
      <trkpt lat="47.09864" lon="-1.83377">
        <ele>60</ele>
        <time>2021-03-14T13:11:28.000Z</time>
      </trkpt>
      <trkpt lat="47.09869" lon="-1.83353">
        <ele>60</ele>
        <time>2021-03-14T13:11:30.000Z</time>
      </trkpt>
      <trkpt lat="47.09873" lon="-1.83329">
        <ele>60</ele>
        <time>2021-03-14T13:11:32.000Z</time>
      </trkpt>
      <trkpt lat="47.09877" lon="-1.83305">
        <ele>61</ele>
        <time>2021-03-14T13:11:34.000Z</time>
      </trkpt>
      <trkpt lat="47.09879" lon="-1.83281">
        <ele>61</ele>
        <time>2021-03-14T13:11:36.000Z</time>
      </trkpt>
      <trkpt lat="47.09881" lon="-1.83257">
        <ele>61</ele>
        <time>2021-03-14T13:11:38.000Z</time>
      </trkpt>
      <trkpt lat="47.09881" lon="-1.83234">
        <ele>61</ele>
        <time>2021-03-14T13:11:40.000Z</time>
      </trkpt>
      <trkpt lat="47.0988" lon="-1.83212">
        <ele>61</ele>
        <time>2021-03-14T13:11:42.000Z</time>
      </trkpt>
      <trkpt lat="47.09878" lon="-1.8319">
        <ele>61</ele>
        <time>2021-03-14T13:11:44.000Z</time>
      </trkpt>
      <trkpt lat="47.09876" lon="-1.83167">
        <ele>61</ele>
        <time>2021-03-14T13:11:46.000Z</time>
      </trkpt>
      <trkpt lat="47.09874" lon="-1.83145">
        <ele>62</ele>
        <time>2021-03-14T13:11:48.000Z</time>
      </trkpt>
      <trkpt lat="47.09872" lon="-1.83122">
        <ele>62</ele>
        <time>2021-03-14T13:11:50.000Z</time>
      </trkpt>
      <trkpt lat="47.09869" lon="-1.83099">
        <ele>62</ele>
        <time>2021-03-14T13:11:52.000Z</time>
      </trkpt>
      <trkpt lat="47.09867" lon="-1.83076">
        <ele>62</ele>
        <time>2021-03-14T13:11:54.000Z</time>
      </trkpt>
      <trkpt lat="47.09865" lon="-1.83054">
        <ele>63</ele>
        <time>2021-03-14T13:11:56.000Z</time>
      </trkpt>
      <trkpt lat="47.09862" lon="-1.83034">
        <ele>63</ele>
        <time>2021-03-14T13:11:58.000Z</time>
      </trkpt>
      <trkpt lat="47.09853" lon="-1.83025">
        <ele>63</ele>
        <time>2021-03-14T13:12:01.000Z</time>
      </trkpt>
      <trkpt lat="47.09864" lon="-1.83032">
        <ele>63</ele>
        <time>2021-03-14T13:14:22.000Z</time>
      </trkpt>
      <trkpt lat="47.09867" lon="-1.83045">
        <ele>62</ele>
        <time>2021-03-14T13:14:24.000Z</time>
      </trkpt>
      <trkpt lat="47.09869" lon="-1.83061">
        <ele>62</ele>
        <time>2021-03-14T13:14:26.000Z</time>
      </trkpt>
      <trkpt lat="47.0987" lon="-1.83078">
        <ele>62</ele>
        <time>2021-03-14T13:14:28.000Z</time>
      </trkpt>
      <trkpt lat="47.09872" lon="-1.83096">
        <ele>62</ele>
        <time>2021-03-14T13:14:30.000Z</time>
      </trkpt>
      <trkpt lat="47.09875" lon="-1.83116">
        <ele>62</ele>
        <time>2021-03-14T13:14:32.000Z</time>
      </trkpt>
      <trkpt lat="47.09877" lon="-1.83135">
        <ele>62</ele>
        <time>2021-03-14T13:14:34.000Z</time>
      </trkpt>
      <trkpt lat="47.09879" lon="-1.83154">
        <ele>61</ele>
        <time>2021-03-14T13:14:36.000Z</time>
      </trkpt>
      <trkpt lat="47.09881" lon="-1.83173">
        <ele>61</ele>
        <time>2021-03-14T13:14:38.000Z</time>
      </trkpt>
      <trkpt lat="47.09882" lon="-1.83192">
        <ele>61</ele>
        <time>2021-03-14T13:14:40.000Z</time>
      </trkpt>
      <trkpt lat="47.09883" lon="-1.83212">
        <ele>61</ele>
        <time>2021-03-14T13:14:42.000Z</time>
      </trkpt>
      <trkpt lat="47.09884" lon="-1.83232">
        <ele>60</ele>
        <time>2021-03-14T13:14:44.000Z</time>
      </trkpt>
      <trkpt lat="47.09885" lon="-1.83253">
        <ele>60</ele>
        <time>2021-03-14T13:14:46.000Z</time>
      </trkpt>
      <trkpt lat="47.09884" lon="-1.83274">
        <ele>60</ele>
        <time>2021-03-14T13:14:48.000Z</time>
      </trkpt>
      <trkpt lat="47.09882" lon="-1.83295">
        <ele>59</ele>
        <time>2021-03-14T13:14:50.000Z</time>
      </trkpt>
      <trkpt lat="47.09879" lon="-1.83315">
        <ele>59</ele>
        <time>2021-03-14T13:14:52.000Z</time>
      </trkpt>
      <trkpt lat="47.09876" lon="-1.83335">
        <ele>58</ele>
        <time>2021-03-14T13:14:54.000Z</time>
      </trkpt>
      <trkpt lat="47.09872" lon="-1.83355">
        <ele>58</ele>
        <time>2021-03-14T13:14:56.000Z</time>
      </trkpt>
      <trkpt lat="47.09868" lon="-1.83375">
        <ele>57</ele>
        <time>2021-03-14T13:14:58.000Z</time>
      </trkpt>
      <trkpt lat="47.09865" lon="-1.83395">
        <ele>57</ele>
        <time>2021-03-14T13:15:00.000Z</time>
      </trkpt>
      <trkpt lat="47.09861" lon="-1.83415">
        <ele>56</ele>
        <time>2021-03-14T13:15:02.000Z</time>
      </trkpt>
      <trkpt lat="47.09857" lon="-1.83434">
        <ele>56</ele>
        <time>2021-03-14T13:15:04.000Z</time>
      </trkpt>
      <trkpt lat="47.09855" lon="-1.83454">
        <ele>56</ele>
        <time>2021-03-14T13:15:06.000Z</time>
      </trkpt>
      <trkpt lat="47.09855" lon="-1.83476">
        <ele>56</ele>
        <time>2021-03-14T13:15:08.000Z</time>
      </trkpt>
      <trkpt lat="47.09855" lon="-1.83496">
        <ele>56</ele>
        <time>2021-03-14T13:15:10.000Z</time>
      </trkpt>
      <trkpt lat="47.09856" lon="-1.83517">
        <ele>57</ele>
        <time>2021-03-14T13:15:12.000Z</time>
      </trkpt>
      <trkpt lat="47.09857" lon="-1.83538">
        <ele>57</ele>
        <time>2021-03-14T13:15:14.000Z</time>
      </trkpt>
      <trkpt lat="47.09859" lon="-1.83558">
        <ele>57</ele>
        <time>2021-03-14T13:15:16.000Z</time>
      </trkpt>
      <trkpt lat="47.09861" lon="-1.83577">
        <ele>58</ele>
        <time>2021-03-14T13:15:18.000Z</time>
      </trkpt>
      <trkpt lat="47.09863" lon="-1.83597">
        <ele>58</ele>
        <time>2021-03-14T13:15:20.000Z</time>
      </trkpt>
      <trkpt lat="47.09864" lon="-1.83617">
        <ele>58</ele>
        <time>2021-03-14T13:15:22.000Z</time>
      </trkpt>
      <trkpt lat="47.09864" lon="-1.83636">
        <ele>58</ele>
        <time>2021-03-14T13:15:24.000Z</time>
      </trkpt>
      <trkpt lat="47.09864" lon="-1.83655">
        <ele>58</ele>
        <time>2021-03-14T13:15:26.000Z</time>
      </trkpt>
      <trkpt lat="47.09864" lon="-1.83674">
        <ele>58</ele>
        <time>2021-03-14T13:15:28.000Z</time>
      </trkpt>
      <trkpt lat="47.09864" lon="-1.83693">
        <ele>58</ele>
        <time>2021-03-14T13:15:30.000Z</time>
      </trkpt>
      <trkpt lat="47.09863" lon="-1.83712">
        <ele>59</ele>
        <time>2021-03-14T13:15:32.000Z</time>
      </trkpt>
      <trkpt lat="47.09863" lon="-1.83731">
        <ele>59</ele>
        <time>2021-03-14T13:15:34.000Z</time>
      </trkpt>
      <trkpt lat="47.09862" lon="-1.83749">
        <ele>59</ele>
        <time>2021-03-14T13:15:36.000Z</time>
      </trkpt>
      <trkpt lat="47.09862" lon="-1.83766">
        <ele>60</ele>
        <time>2021-03-14T13:15:38.000Z</time>
      </trkpt>
      <trkpt lat="47.09861" lon="-1.83783">
        <ele>60</ele>
        <time>2021-03-14T13:15:40.000Z</time>
      </trkpt>
      <trkpt lat="47.09861" lon="-1.838">
        <ele>60</ele>
        <time>2021-03-14T13:15:42.000Z</time>
      </trkpt>
      <trkpt lat="47.09861" lon="-1.83817">
        <ele>60</ele>
        <time>2021-03-14T13:15:44.000Z</time>
      </trkpt>
      <trkpt lat="47.0986" lon="-1.83834">
        <ele>60</ele>
        <time>2021-03-14T13:15:46.000Z</time>
      </trkpt>
      <trkpt lat="47.0986" lon="-1.83851">
        <ele>60</ele>
        <time>2021-03-14T13:15:48.000Z</time>
      </trkpt>
      <trkpt lat="47.09858" lon="-1.83868">
        <ele>61</ele>
        <time>2021-03-14T13:15:50.000Z</time>
      </trkpt>
      <trkpt lat="47.09857" lon="-1.83885">
        <ele>61</ele>
        <time>2021-03-14T13:15:52.000Z</time>
      </trkpt>
      <trkpt lat="47.09855" lon="-1.83902">
        <ele>61</ele>
        <time>2021-03-14T13:15:54.000Z</time>
      </trkpt>
      <trkpt lat="47.09854" lon="-1.83919">
        <ele>61</ele>
        <time>2021-03-14T13:15:56.000Z</time>
      </trkpt>
      <trkpt lat="47.09853" lon="-1.83935">
        <ele>61</ele>
        <time>2021-03-14T13:15:58.000Z</time>
      </trkpt>
      <trkpt lat="47.09853" lon="-1.83951">
        <ele>61</ele>
        <time>2021-03-14T13:16:00.000Z</time>
      </trkpt>
      <trkpt lat="47.09853" lon="-1.83968">
        <ele>61</ele>
        <time>2021-03-14T13:16:02.000Z</time>
      </trkpt>
      <trkpt lat="47.09854" lon="-1.83984">
        <ele>61</ele>
        <time>2021-03-14T13:16:04.000Z</time>
      </trkpt>
      <trkpt lat="47.09855" lon="-1.84001">
        <ele>61</ele>
        <time>2021-03-14T13:16:06.000Z</time>
      </trkpt>
      <trkpt lat="47.09857" lon="-1.84018">
        <ele>61</ele>
        <time>2021-03-14T13:16:08.000Z</time>
      </trkpt>
      <trkpt lat="47.09859" lon="-1.84035">
        <ele>61</ele>
        <time>2021-03-14T13:16:10.000Z</time>
      </trkpt>
      <trkpt lat="47.09861" lon="-1.84052">
        <ele>61</ele>
        <time>2021-03-14T13:16:12.000Z</time>
      </trkpt>
      <trkpt lat="47.09865" lon="-1.84068">
        <ele>61</ele>
        <time>2021-03-14T13:16:14.000Z</time>
      </trkpt>
      <trkpt lat="47.09867" lon="-1.84084">
        <ele>61</ele>
        <time>2021-03-14T13:16:16.000Z</time>
      </trkpt>
      <trkpt lat="47.0987" lon="-1.841">
        <ele>61</ele>
        <time>2021-03-14T13:16:18.000Z</time>
      </trkpt>
      <trkpt lat="47.09873" lon="-1.84117">
        <ele>62</ele>
        <time>2021-03-14T13:16:20.000Z</time>
      </trkpt>
      <trkpt lat="47.09876" lon="-1.84133">
        <ele>62</ele>
        <time>2021-03-14T13:16:22.000Z</time>
      </trkpt>
      <trkpt lat="47.09878" lon="-1.84149">
        <ele>63</ele>
        <time>2021-03-14T13:16:24.000Z</time>
      </trkpt>
      <trkpt lat="47.09881" lon="-1.84164">
        <ele>63</ele>
        <time>2021-03-14T13:16:26.000Z</time>
      </trkpt>
      <trkpt lat="47.09883" lon="-1.84179">
        <ele>63</ele>
        <time>2021-03-14T13:16:28.000Z</time>
      </trkpt>
      <trkpt lat="47.09886" lon="-1.84195">
        <ele>64</ele>
        <time>2021-03-14T13:16:30.000Z</time>
      </trkpt>
      <trkpt lat="47.09888" lon="-1.8421">
        <ele>64</ele>
        <time>2021-03-14T13:16:32.000Z</time>
      </trkpt>
      <trkpt lat="47.0989" lon="-1.84226">
        <ele>64</ele>
        <time>2021-03-14T13:16:34.000Z</time>
      </trkpt>
      <trkpt lat="47.0989" lon="-1.84243">
        <ele>65</ele>
        <time>2021-03-14T13:16:36.000Z</time>
      </trkpt>
      <trkpt lat="47.09892" lon="-1.8426">
        <ele>65</ele>
        <time>2021-03-14T13:16:38.000Z</time>
      </trkpt>
      <trkpt lat="47.09892" lon="-1.84277">
        <ele>64</ele>
        <time>2021-03-14T13:16:40.000Z</time>
      </trkpt>
      <trkpt lat="47.09893" lon="-1.84293">
        <ele>64</ele>
        <time>2021-03-14T13:16:42.000Z</time>
      </trkpt>
      <trkpt lat="47.09893" lon="-1.8431">
        <ele>64</ele>
        <time>2021-03-14T13:16:44.000Z</time>
      </trkpt>
      <trkpt lat="47.09893" lon="-1.84326">
        <ele>64</ele>
        <time>2021-03-14T13:16:46.000Z</time>
      </trkpt>
      <trkpt lat="47.09893" lon="-1.84343">
        <ele>64</ele>
        <time>2021-03-14T13:16:48.000Z</time>
      </trkpt>
      <trkpt lat="47.09893" lon="-1.8436">
        <ele>64</ele>
        <time>2021-03-14T13:16:50.000Z</time>
      </trkpt>
      <trkpt lat="47.09892" lon="-1.84377">
        <ele>64</ele>
        <time>2021-03-14T13:16:52.000Z</time>
      </trkpt>
      <trkpt lat="47.09892" lon="-1.84394">
        <ele>64</ele>
        <time>2021-03-14T13:16:54.000Z</time>
      </trkpt>
      <trkpt lat="47.09891" lon="-1.84411">
        <ele>64</ele>
        <time>2021-03-14T13:16:56.000Z</time>
      </trkpt>
      <trkpt lat="47.09891" lon="-1.84429">
        <ele>64</ele>
        <time>2021-03-14T13:16:58.000Z</time>
      </trkpt>
      <trkpt lat="47.09892" lon="-1.84446">
        <ele>64</ele>
        <time>2021-03-14T13:17:00.000Z</time>
      </trkpt>
      <trkpt lat="47.09893" lon="-1.84464">
        <ele>64</ele>
        <time>2021-03-14T13:17:02.000Z</time>
      </trkpt>
      <trkpt lat="47.09895" lon="-1.8448">
        <ele>65</ele>
        <time>2021-03-14T13:17:04.000Z</time>
      </trkpt>
      <trkpt lat="47.09897" lon="-1.84497">
        <ele>65</ele>
        <time>2021-03-14T13:17:06.000Z</time>
      </trkpt>
      <trkpt lat="47.099" lon="-1.84514">
        <ele>65</ele>
        <time>2021-03-14T13:17:08.000Z</time>
      </trkpt>
      <trkpt lat="47.09901" lon="-1.84531">
        <ele>65</ele>
        <time>2021-03-14T13:17:10.000Z</time>
      </trkpt>
      <trkpt lat="47.09903" lon="-1.84548">
        <ele>65</ele>
        <time>2021-03-14T13:17:12.000Z</time>
      </trkpt>
      <trkpt lat="47.09904" lon="-1.84566">
        <ele>65</ele>
        <time>2021-03-14T13:17:14.000Z</time>
      </trkpt>
      <trkpt lat="47.09906" lon="-1.84584">
        <ele>65</ele>
        <time>2021-03-14T13:17:16.000Z</time>
      </trkpt>
      <trkpt lat="47.09907" lon="-1.84601">
        <ele>64</ele>
        <time>2021-03-14T13:17:18.000Z</time>
      </trkpt>
      <trkpt lat="47.09908" lon="-1.84618">
        <ele>65</ele>
        <time>2021-03-14T13:17:20.000Z</time>
      </trkpt>
      <trkpt lat="47.09909" lon="-1.84635">
        <ele>64</ele>
        <time>2021-03-14T13:17:22.000Z</time>
      </trkpt>
      <trkpt lat="47.09909" lon="-1.84654">
        <ele>65</ele>
        <time>2021-03-14T13:17:24.000Z</time>
      </trkpt>
      <trkpt lat="47.0991" lon="-1.84673">
        <ele>65</ele>
        <time>2021-03-14T13:17:26.000Z</time>
      </trkpt>
      <trkpt lat="47.09912" lon="-1.8469">
        <ele>65</ele>
        <time>2021-03-14T13:17:28.000Z</time>
      </trkpt>
      <trkpt lat="47.09913" lon="-1.84708">
        <ele>65</ele>
        <time>2021-03-14T13:17:30.000Z</time>
      </trkpt>
      <trkpt lat="47.09915" lon="-1.84726">
        <ele>64</ele>
        <time>2021-03-14T13:17:32.000Z</time>
      </trkpt>
      <trkpt lat="47.09917" lon="-1.84746">
        <ele>64</ele>
        <time>2021-03-14T13:17:34.000Z</time>
      </trkpt>
      <trkpt lat="47.09917" lon="-1.84765">
        <ele>64</ele>
        <time>2021-03-14T13:17:36.000Z</time>
      </trkpt>
      <trkpt lat="47.09919" lon="-1.84784">
        <ele>64</ele>
        <time>2021-03-14T13:17:38.000Z</time>
      </trkpt>
      <trkpt lat="47.0992" lon="-1.84803">
        <ele>63</ele>
        <time>2021-03-14T13:17:40.000Z</time>
      </trkpt>
      <trkpt lat="47.09921" lon="-1.84823">
        <ele>63</ele>
        <time>2021-03-14T13:17:42.000Z</time>
      </trkpt>
      <trkpt lat="47.09922" lon="-1.84843">
        <ele>63</ele>
        <time>2021-03-14T13:17:44.000Z</time>
      </trkpt>
      <trkpt lat="47.09923" lon="-1.84862">
        <ele>62</ele>
        <time>2021-03-14T13:17:46.000Z</time>
      </trkpt>
      <trkpt lat="47.09923" lon="-1.84881">
        <ele>62</ele>
        <time>2021-03-14T13:17:48.000Z</time>
      </trkpt>
      <trkpt lat="47.09924" lon="-1.849">
        <ele>62</ele>
        <time>2021-03-14T13:17:50.000Z</time>
      </trkpt>
      <trkpt lat="47.09925" lon="-1.84919">
        <ele>62</ele>
        <time>2021-03-14T13:17:52.000Z</time>
      </trkpt>
      <trkpt lat="47.09926" lon="-1.84936">
        <ele>62</ele>
        <time>2021-03-14T13:17:54.000Z</time>
      </trkpt>
      <trkpt lat="47.09926" lon="-1.84953">
        <ele>62</ele>
        <time>2021-03-14T13:17:56.000Z</time>
      </trkpt>
      <trkpt lat="47.09926" lon="-1.84971">
        <ele>62</ele>
        <time>2021-03-14T13:17:58.000Z</time>
      </trkpt>
      <trkpt lat="47.09926" lon="-1.8499">
        <ele>62</ele>
        <time>2021-03-14T13:18:00.000Z</time>
      </trkpt>
      <trkpt lat="47.09925" lon="-1.85007">
        <ele>62</ele>
        <time>2021-03-14T13:18:02.000Z</time>
      </trkpt>
      <trkpt lat="47.09924" lon="-1.85024">
        <ele>61</ele>
        <time>2021-03-14T13:18:04.000Z</time>
      </trkpt>
      <trkpt lat="47.09923" lon="-1.85043">
        <ele>61</ele>
        <time>2021-03-14T13:18:06.000Z</time>
      </trkpt>
      <trkpt lat="47.09923" lon="-1.85061">
        <ele>61</ele>
        <time>2021-03-14T13:18:08.000Z</time>
      </trkpt>
      <trkpt lat="47.09922" lon="-1.85078">
        <ele>61</ele>
        <time>2021-03-14T13:18:10.000Z</time>
      </trkpt>
      <trkpt lat="47.09921" lon="-1.85096">
        <ele>61</ele>
        <time>2021-03-14T13:18:12.000Z</time>
      </trkpt>
      <trkpt lat="47.09921" lon="-1.85113">
        <ele>60</ele>
        <time>2021-03-14T13:18:14.000Z</time>
      </trkpt>
      <trkpt lat="47.09921" lon="-1.85131">
        <ele>60</ele>
        <time>2021-03-14T13:18:16.000Z</time>
      </trkpt>
      <trkpt lat="47.09922" lon="-1.85149">
        <ele>60</ele>
        <time>2021-03-14T13:18:18.000Z</time>
      </trkpt>
      <trkpt lat="47.09923" lon="-1.85167">
        <ele>60</ele>
        <time>2021-03-14T13:18:20.000Z</time>
      </trkpt>
      <trkpt lat="47.09925" lon="-1.85184">
        <ele>60</ele>
        <time>2021-03-14T13:18:22.000Z</time>
      </trkpt>
      <trkpt lat="47.09927" lon="-1.85202">
        <ele>59</ele>
        <time>2021-03-14T13:18:24.000Z</time>
      </trkpt>
      <trkpt lat="47.09929" lon="-1.85221">
        <ele>59</ele>
        <time>2021-03-14T13:18:26.000Z</time>
      </trkpt>
      <trkpt lat="47.09932" lon="-1.85239">
        <ele>59</ele>
        <time>2021-03-14T13:18:28.000Z</time>
      </trkpt>
      <trkpt lat="47.09934" lon="-1.85258">
        <ele>58</ele>
        <time>2021-03-14T13:18:30.000Z</time>
      </trkpt>
      <trkpt lat="47.09935" lon="-1.85278">
        <ele>57</ele>
        <time>2021-03-14T13:18:32.000Z</time>
      </trkpt>
      <trkpt lat="47.09936" lon="-1.85297">
        <ele>57</ele>
        <time>2021-03-14T13:18:34.000Z</time>
      </trkpt>
      <trkpt lat="47.09938" lon="-1.85317">
        <ele>56</ele>
        <time>2021-03-14T13:18:36.000Z</time>
      </trkpt>
      <trkpt lat="47.0994" lon="-1.85337">
        <ele>57</ele>
        <time>2021-03-14T13:18:38.000Z</time>
      </trkpt>
      <trkpt lat="47.09945" lon="-1.85355">
        <ele>57</ele>
        <time>2021-03-14T13:18:40.000Z</time>
      </trkpt>
      <trkpt lat="47.09951" lon="-1.85371">
        <ele>56</ele>
        <time>2021-03-14T13:18:42.000Z</time>
      </trkpt>
      <trkpt lat="47.09959" lon="-1.85387">
        <ele>56</ele>
        <time>2021-03-14T13:18:44.000Z</time>
      </trkpt>
      <trkpt lat="47.09967" lon="-1.85402">
        <ele>56</ele>
        <time>2021-03-14T13:18:46.000Z</time>
      </trkpt>
      <trkpt lat="47.09977" lon="-1.85415">
        <ele>56</ele>
        <time>2021-03-14T13:18:48.000Z</time>
      </trkpt>
      <trkpt lat="47.09986" lon="-1.85427">
        <ele>57</ele>
        <time>2021-03-14T13:18:50.000Z</time>
      </trkpt>
      <trkpt lat="47.09996" lon="-1.85439">
        <ele>56</ele>
        <time>2021-03-14T13:18:52.000Z</time>
      </trkpt>
      <trkpt lat="47.10004" lon="-1.85452">
        <ele>57</ele>
        <time>2021-03-14T13:18:54.000Z</time>
      </trkpt>
      <trkpt lat="47.10013" lon="-1.85464">
        <ele>57</ele>
        <time>2021-03-14T13:18:56.000Z</time>
      </trkpt>
      <trkpt lat="47.10022" lon="-1.85475">
        <ele>57</ele>
        <time>2021-03-14T13:18:58.000Z</time>
      </trkpt>
      <trkpt lat="47.1003" lon="-1.85486">
        <ele>57</ele>
        <time>2021-03-14T13:19:00.000Z</time>
      </trkpt>
      <trkpt lat="47.10038" lon="-1.85497">
        <ele>58</ele>
        <time>2021-03-14T13:19:02.000Z</time>
      </trkpt>
      <trkpt lat="47.10045" lon="-1.85506">
        <ele>58</ele>
        <time>2021-03-14T13:19:04.000Z</time>
      </trkpt>
      <trkpt lat="47.10052" lon="-1.85517">
        <ele>58</ele>
        <time>2021-03-14T13:19:06.000Z</time>
      </trkpt>
      <trkpt lat="47.10059" lon="-1.85527">
        <ele>59</ele>
        <time>2021-03-14T13:19:08.000Z</time>
      </trkpt>
      <trkpt lat="47.10065" lon="-1.85538">
        <ele>59</ele>
        <time>2021-03-14T13:19:10.000Z</time>
      </trkpt>
      <trkpt lat="47.1007" lon="-1.85551">
        <ele>59</ele>
        <time>2021-03-14T13:19:12.000Z</time>
      </trkpt>
      <trkpt lat="47.10075" lon="-1.85564">
        <ele>60</ele>
        <time>2021-03-14T13:19:14.000Z</time>
      </trkpt>
      <trkpt lat="47.10079" lon="-1.85579">
        <ele>60</ele>
        <time>2021-03-14T13:19:16.000Z</time>
      </trkpt>
      <trkpt lat="47.10082" lon="-1.85594">
        <ele>61</ele>
        <time>2021-03-14T13:19:18.000Z</time>
      </trkpt>
      <trkpt lat="47.10083" lon="-1.85609">
        <ele>61</ele>
        <time>2021-03-14T13:19:20.000Z</time>
      </trkpt>
      <trkpt lat="47.10085" lon="-1.85625">
        <ele>61</ele>
        <time>2021-03-14T13:19:22.000Z</time>
      </trkpt>
      <trkpt lat="47.10087" lon="-1.8564">
        <ele>61</ele>
        <time>2021-03-14T13:19:24.000Z</time>
      </trkpt>
      <trkpt lat="47.10089" lon="-1.85656">
        <ele>61</ele>
        <time>2021-03-14T13:19:26.000Z</time>
      </trkpt>
      <trkpt lat="47.1009" lon="-1.85672">
        <ele>61</ele>
        <time>2021-03-14T13:19:28.000Z</time>
      </trkpt>
      <trkpt lat="47.10091" lon="-1.85688">
        <ele>61</ele>
        <time>2021-03-14T13:19:30.000Z</time>
      </trkpt>
      <trkpt lat="47.10093" lon="-1.85704">
        <ele>61</ele>
        <time>2021-03-14T13:19:32.000Z</time>
      </trkpt>
      <trkpt lat="47.10094" lon="-1.8572">
        <ele>61</ele>
        <time>2021-03-14T13:19:34.000Z</time>
      </trkpt>
      <trkpt lat="47.10095" lon="-1.85736">
        <ele>61</ele>
        <time>2021-03-14T13:19:36.000Z</time>
      </trkpt>
      <trkpt lat="47.10097" lon="-1.85751">
        <ele>60</ele>
        <time>2021-03-14T13:19:38.000Z</time>
      </trkpt>
      <trkpt lat="47.10099" lon="-1.85766">
        <ele>60</ele>
        <time>2021-03-14T13:19:40.000Z</time>
      </trkpt>
      <trkpt lat="47.101" lon="-1.85781">
        <ele>60</ele>
        <time>2021-03-14T13:19:42.000Z</time>
      </trkpt>
      <trkpt lat="47.10101" lon="-1.85795">
        <ele>61</ele>
        <time>2021-03-14T13:19:44.000Z</time>
      </trkpt>
      <trkpt lat="47.10102" lon="-1.85809">
        <ele>61</ele>
        <time>2021-03-14T13:19:46.000Z</time>
      </trkpt>
      <trkpt lat="47.10105" lon="-1.85823">
        <ele>61</ele>
        <time>2021-03-14T13:19:48.000Z</time>
      </trkpt>
      <trkpt lat="47.1011" lon="-1.85837">
        <ele>61</ele>
        <time>2021-03-14T13:19:50.000Z</time>
      </trkpt>
      <trkpt lat="47.10116" lon="-1.85849">
        <ele>61</ele>
        <time>2021-03-14T13:19:52.000Z</time>
      </trkpt>
      <trkpt lat="47.10122" lon="-1.85861">
        <ele>61</ele>
        <time>2021-03-14T13:19:54.000Z</time>
      </trkpt>
      <trkpt lat="47.10128" lon="-1.85875">
        <ele>61</ele>
        <time>2021-03-14T13:19:56.000Z</time>
      </trkpt>
      <trkpt lat="47.10132" lon="-1.85887">
        <ele>62</ele>
        <time>2021-03-14T13:19:58.000Z</time>
      </trkpt>
      <trkpt lat="47.10138" lon="-1.85898">
        <ele>62</ele>
        <time>2021-03-14T13:20:00.000Z</time>
      </trkpt>
      <trkpt lat="47.10143" lon="-1.8591">
        <ele>62</ele>
        <time>2021-03-14T13:20:02.000Z</time>
      </trkpt>
      <trkpt lat="47.10149" lon="-1.85922">
        <ele>62</ele>
        <time>2021-03-14T13:20:04.000Z</time>
      </trkpt>
      <trkpt lat="47.10154" lon="-1.85933">
        <ele>63</ele>
        <time>2021-03-14T13:20:06.000Z</time>
      </trkpt>
      <trkpt lat="47.10159" lon="-1.85945">
        <ele>63</ele>
        <time>2021-03-14T13:20:08.000Z</time>
      </trkpt>
      <trkpt lat="47.10165" lon="-1.85957">
        <ele>62</ele>
        <time>2021-03-14T13:20:10.000Z</time>
      </trkpt>
      <trkpt lat="47.1017" lon="-1.8597">
        <ele>62</ele>
        <time>2021-03-14T13:20:12.000Z</time>
      </trkpt>
      <trkpt lat="47.10175" lon="-1.85984">
        <ele>62</ele>
        <time>2021-03-14T13:20:14.000Z</time>
      </trkpt>
      <trkpt lat="47.1018" lon="-1.85998">
        <ele>61</ele>
        <time>2021-03-14T13:20:16.000Z</time>
      </trkpt>
      <trkpt lat="47.10185" lon="-1.86013">
        <ele>61</ele>
        <time>2021-03-14T13:20:18.000Z</time>
      </trkpt>
      <trkpt lat="47.10191" lon="-1.86029">
        <ele>61</ele>
        <time>2021-03-14T13:20:20.000Z</time>
      </trkpt>
      <trkpt lat="47.10197" lon="-1.86046">
        <ele>60</ele>
        <time>2021-03-14T13:20:22.000Z</time>
      </trkpt>
      <trkpt lat="47.10204" lon="-1.86062">
        <ele>60</ele>
        <time>2021-03-14T13:20:24.000Z</time>
      </trkpt>
      <trkpt lat="47.1021" lon="-1.86078">
        <ele>60</ele>
        <time>2021-03-14T13:20:26.000Z</time>
      </trkpt>
      <trkpt lat="47.10215" lon="-1.86094">
        <ele>59</ele>
        <time>2021-03-14T13:20:28.000Z</time>
      </trkpt>
      <trkpt lat="47.10221" lon="-1.86109">
        <ele>59</ele>
        <time>2021-03-14T13:20:30.000Z</time>
      </trkpt>
      <trkpt lat="47.10226" lon="-1.86125">
        <ele>59</ele>
        <time>2021-03-14T13:20:32.000Z</time>
      </trkpt>
      <trkpt lat="47.10231" lon="-1.86139">
        <ele>59</ele>
        <time>2021-03-14T13:20:34.000Z</time>
      </trkpt>
      <trkpt lat="47.10237" lon="-1.86154">
        <ele>60</ele>
        <time>2021-03-14T13:20:36.000Z</time>
      </trkpt>
      <trkpt lat="47.10242" lon="-1.86168">
        <ele>59</ele>
        <time>2021-03-14T13:20:38.000Z</time>
      </trkpt>
      <trkpt lat="47.10248" lon="-1.86183">
        <ele>59</ele>
        <time>2021-03-14T13:20:40.000Z</time>
      </trkpt>
      <trkpt lat="47.10253" lon="-1.86197">
        <ele>59</ele>
        <time>2021-03-14T13:20:42.000Z</time>
      </trkpt>
      <trkpt lat="47.10259" lon="-1.86212">
        <ele>59</ele>
        <time>2021-03-14T13:20:44.000Z</time>
      </trkpt>
      <trkpt lat="47.10265" lon="-1.86226">
        <ele>58</ele>
        <time>2021-03-14T13:20:46.000Z</time>
      </trkpt>
      <trkpt lat="47.1027" lon="-1.8624">
        <ele>58</ele>
        <time>2021-03-14T13:20:48.000Z</time>
      </trkpt>
      <trkpt lat="47.10277" lon="-1.86255">
        <ele>57</ele>
        <time>2021-03-14T13:20:50.000Z</time>
      </trkpt>
      <trkpt lat="47.10284" lon="-1.8627">
        <ele>58</ele>
        <time>2021-03-14T13:20:52.000Z</time>
      </trkpt>
      <trkpt lat="47.10289" lon="-1.86284">
        <ele>57</ele>
        <time>2021-03-14T13:20:54.000Z</time>
      </trkpt>
      <trkpt lat="47.10295" lon="-1.86299">
        <ele>57</ele>
        <time>2021-03-14T13:20:56.000Z</time>
      </trkpt>
      <trkpt lat="47.10299" lon="-1.86315">
        <ele>56</ele>
        <time>2021-03-14T13:20:58.000Z</time>
      </trkpt>
      <trkpt lat="47.10302" lon="-1.8633">
        <ele>56</ele>
        <time>2021-03-14T13:21:00.000Z</time>
      </trkpt>
      <trkpt lat="47.10306" lon="-1.86347">
        <ele>55</ele>
        <time>2021-03-14T13:21:02.000Z</time>
      </trkpt>
      <trkpt lat="47.10309" lon="-1.86364">
        <ele>56</ele>
        <time>2021-03-14T13:21:04.000Z</time>
      </trkpt>
      <trkpt lat="47.10311" lon="-1.8638">
        <ele>56</ele>
        <time>2021-03-14T13:21:06.000Z</time>
      </trkpt>
      <trkpt lat="47.10312" lon="-1.86396">
        <ele>56</ele>
        <time>2021-03-14T13:21:08.000Z</time>
      </trkpt>
      <trkpt lat="47.10313" lon="-1.86412">
        <ele>56</ele>
        <time>2021-03-14T13:21:10.000Z</time>
      </trkpt>
      <trkpt lat="47.10316" lon="-1.86427">
        <ele>56</ele>
        <time>2021-03-14T13:21:12.000Z</time>
      </trkpt>
      <trkpt lat="47.10322" lon="-1.86441">
        <ele>56</ele>
        <time>2021-03-14T13:21:14.000Z</time>
      </trkpt>
      <trkpt lat="47.10328" lon="-1.86453">
        <ele>56</ele>
        <time>2021-03-14T13:21:16.000Z</time>
      </trkpt>
      <trkpt lat="47.10333" lon="-1.86465">
        <ele>56</ele>
        <time>2021-03-14T13:21:18.000Z</time>
      </trkpt>
      <trkpt lat="47.10338" lon="-1.86478">
        <ele>57</ele>
        <time>2021-03-14T13:21:20.000Z</time>
      </trkpt>
      <trkpt lat="47.10344" lon="-1.86491">
        <ele>58</ele>
        <time>2021-03-14T13:21:22.000Z</time>
      </trkpt>
      <trkpt lat="47.1035" lon="-1.86503">
        <ele>57</ele>
        <time>2021-03-14T13:21:24.000Z</time>
      </trkpt>
      <trkpt lat="47.10355" lon="-1.86515">
        <ele>58</ele>
        <time>2021-03-14T13:21:26.000Z</time>
      </trkpt>
      <trkpt lat="47.1036" lon="-1.86529">
        <ele>59</ele>
        <time>2021-03-14T13:21:28.000Z</time>
      </trkpt>
      <trkpt lat="47.10365" lon="-1.86541">
        <ele>59</ele>
        <time>2021-03-14T13:21:30.000Z</time>
      </trkpt>
      <trkpt lat="47.10369" lon="-1.86554">
        <ele>59</ele>
        <time>2021-03-14T13:21:32.000Z</time>
      </trkpt>
      <trkpt lat="47.10373" lon="-1.86569">
        <ele>59</ele>
        <time>2021-03-14T13:21:34.000Z</time>
      </trkpt>
      <trkpt lat="47.10374" lon="-1.86585">
        <ele>60</ele>
        <time>2021-03-14T13:21:36.000Z</time>
      </trkpt>
      <trkpt lat="47.10377" lon="-1.866">
        <ele>60</ele>
        <time>2021-03-14T13:21:38.000Z</time>
      </trkpt>
      <trkpt lat="47.10381" lon="-1.86614">
        <ele>60</ele>
        <time>2021-03-14T13:21:40.000Z</time>
      </trkpt>
      <trkpt lat="47.10386" lon="-1.86628">
        <ele>60</ele>
        <time>2021-03-14T13:21:42.000Z</time>
      </trkpt>
      <trkpt lat="47.10387" lon="-1.86644">
        <ele>60</ele>
        <time>2021-03-14T13:21:44.000Z</time>
      </trkpt>
      <trkpt lat="47.10386" lon="-1.86659">
        <ele>60</ele>
        <time>2021-03-14T13:21:46.000Z</time>
      </trkpt>
      <trkpt lat="47.10383" lon="-1.86673">
        <ele>60</ele>
        <time>2021-03-14T13:21:48.000Z</time>
      </trkpt>
      <trkpt lat="47.10382" lon="-1.86689">
        <ele>60</ele>
        <time>2021-03-14T13:21:50.000Z</time>
      </trkpt>
      <trkpt lat="47.10385" lon="-1.86706">
        <ele>60</ele>
        <time>2021-03-14T13:21:52.000Z</time>
      </trkpt>
      <trkpt lat="47.10387" lon="-1.86722">
        <ele>61</ele>
        <time>2021-03-14T13:21:54.000Z</time>
      </trkpt>
      <trkpt lat="47.10391" lon="-1.86738">
        <ele>61</ele>
        <time>2021-03-14T13:21:56.000Z</time>
      </trkpt>
      <trkpt lat="47.10394" lon="-1.86754">
        <ele>61</ele>
        <time>2021-03-14T13:21:58.000Z</time>
      </trkpt>
      <trkpt lat="47.10398" lon="-1.86769">
        <ele>61</ele>
        <time>2021-03-14T13:22:00.000Z</time>
      </trkpt>
      <trkpt lat="47.10401" lon="-1.86784">
        <ele>61</ele>
        <time>2021-03-14T13:22:02.000Z</time>
      </trkpt>
      <trkpt lat="47.10404" lon="-1.868">
        <ele>61</ele>
        <time>2021-03-14T13:22:04.000Z</time>
      </trkpt>
      <trkpt lat="47.10407" lon="-1.86815">
        <ele>62</ele>
        <time>2021-03-14T13:22:06.000Z</time>
      </trkpt>
      <trkpt lat="47.1041" lon="-1.8683">
        <ele>61</ele>
        <time>2021-03-14T13:22:08.000Z</time>
      </trkpt>
      <trkpt lat="47.10413" lon="-1.86845">
        <ele>61</ele>
        <time>2021-03-14T13:22:10.000Z</time>
      </trkpt>
      <trkpt lat="47.10415" lon="-1.8686">
        <ele>61</ele>
        <time>2021-03-14T13:22:12.000Z</time>
      </trkpt>
      <trkpt lat="47.10418" lon="-1.86875">
        <ele>62</ele>
        <time>2021-03-14T13:22:14.000Z</time>
      </trkpt>
      <trkpt lat="47.10421" lon="-1.8689">
        <ele>61</ele>
        <time>2021-03-14T13:22:16.000Z</time>
      </trkpt>
      <trkpt lat="47.10424" lon="-1.86905">
        <ele>61</ele>
        <time>2021-03-14T13:22:18.000Z</time>
      </trkpt>
      <trkpt lat="47.10427" lon="-1.8692">
        <ele>61</ele>
        <time>2021-03-14T13:22:20.000Z</time>
      </trkpt>
      <trkpt lat="47.10429" lon="-1.86934">
        <ele>61</ele>
        <time>2021-03-14T13:22:22.000Z</time>
      </trkpt>
      <trkpt lat="47.10433" lon="-1.86949">
        <ele>61</ele>
        <time>2021-03-14T13:22:24.000Z</time>
      </trkpt>
      <trkpt lat="47.10436" lon="-1.86964">
        <ele>62</ele>
        <time>2021-03-14T13:22:26.000Z</time>
      </trkpt>
      <trkpt lat="47.10439" lon="-1.86978">
        <ele>62</ele>
        <time>2021-03-14T13:22:28.000Z</time>
      </trkpt>
      <trkpt lat="47.10441" lon="-1.86992">
        <ele>62</ele>
        <time>2021-03-14T13:22:30.000Z</time>
      </trkpt>
      <trkpt lat="47.10444" lon="-1.87006">
        <ele>62</ele>
        <time>2021-03-14T13:22:32.000Z</time>
      </trkpt>
      <trkpt lat="47.10447" lon="-1.87021">
        <ele>62</ele>
        <time>2021-03-14T13:22:34.000Z</time>
      </trkpt>
      <trkpt lat="47.10449" lon="-1.87035">
        <ele>62</ele>
        <time>2021-03-14T13:22:36.000Z</time>
      </trkpt>
      <trkpt lat="47.10452" lon="-1.87049">
        <ele>62</ele>
        <time>2021-03-14T13:22:38.000Z</time>
      </trkpt>
      <trkpt lat="47.10455" lon="-1.87063">
        <ele>62</ele>
        <time>2021-03-14T13:22:40.000Z</time>
      </trkpt>
      <trkpt lat="47.10458" lon="-1.87077">
        <ele>62</ele>
        <time>2021-03-14T13:22:42.000Z</time>
      </trkpt>
      <trkpt lat="47.10461" lon="-1.87093">
        <ele>62</ele>
        <time>2021-03-14T13:22:44.000Z</time>
      </trkpt>
      <trkpt lat="47.10464" lon="-1.87108">
        <ele>62</ele>
        <time>2021-03-14T13:22:46.000Z</time>
      </trkpt>
      <trkpt lat="47.10467" lon="-1.87122">
        <ele>62</ele>
        <time>2021-03-14T13:22:48.000Z</time>
      </trkpt>
      <trkpt lat="47.1047" lon="-1.87137">
        <ele>62</ele>
        <time>2021-03-14T13:22:50.000Z</time>
      </trkpt>
      <trkpt lat="47.10474" lon="-1.87152">
        <ele>62</ele>
        <time>2021-03-14T13:22:52.000Z</time>
      </trkpt>
      <trkpt lat="47.10478" lon="-1.87167">
        <ele>62</ele>
        <time>2021-03-14T13:22:54.000Z</time>
      </trkpt>
      <trkpt lat="47.10483" lon="-1.87182">
        <ele>61</ele>
        <time>2021-03-14T13:22:56.000Z</time>
      </trkpt>
      <trkpt lat="47.10488" lon="-1.87197">
        <ele>61</ele>
        <time>2021-03-14T13:22:58.000Z</time>
      </trkpt>
      <trkpt lat="47.10494" lon="-1.87211">
        <ele>61</ele>
        <time>2021-03-14T13:23:00.000Z</time>
      </trkpt>
      <trkpt lat="47.10498" lon="-1.87227">
        <ele>61</ele>
        <time>2021-03-14T13:23:02.000Z</time>
      </trkpt>
      <trkpt lat="47.10501" lon="-1.87242">
        <ele>60</ele>
        <time>2021-03-14T13:23:04.000Z</time>
      </trkpt>
      <trkpt lat="47.10504" lon="-1.87258">
        <ele>60</ele>
        <time>2021-03-14T13:23:06.000Z</time>
      </trkpt>
      <trkpt lat="47.10509" lon="-1.87274">
        <ele>60</ele>
        <time>2021-03-14T13:23:08.000Z</time>
      </trkpt>
      <trkpt lat="47.10514" lon="-1.87288">
        <ele>60</ele>
        <time>2021-03-14T13:23:10.000Z</time>
      </trkpt>
      <trkpt lat="47.10518" lon="-1.87303">
        <ele>60</ele>
        <time>2021-03-14T13:23:12.000Z</time>
      </trkpt>
      <trkpt lat="47.10522" lon="-1.87317">
        <ele>60</ele>
        <time>2021-03-14T13:23:14.000Z</time>
      </trkpt>
      <trkpt lat="47.10526" lon="-1.87332">
        <ele>60</ele>
        <time>2021-03-14T13:23:16.000Z</time>
      </trkpt>
      <trkpt lat="47.1053" lon="-1.87348">
        <ele>60</ele>
        <time>2021-03-14T13:23:18.000Z</time>
      </trkpt>
      <trkpt lat="47.10533" lon="-1.87364">
        <ele>60</ele>
        <time>2021-03-14T13:23:20.000Z</time>
      </trkpt>
      <trkpt lat="47.10536" lon="-1.87379">
        <ele>60</ele>
        <time>2021-03-14T13:23:22.000Z</time>
      </trkpt>
      <trkpt lat="47.10538" lon="-1.87395">
        <ele>60</ele>
        <time>2021-03-14T13:23:24.000Z</time>
      </trkpt>
      <trkpt lat="47.10541" lon="-1.87412">
        <ele>60</ele>
        <time>2021-03-14T13:23:26.000Z</time>
      </trkpt>
      <trkpt lat="47.10544" lon="-1.87428">
        <ele>60</ele>
        <time>2021-03-14T13:23:28.000Z</time>
      </trkpt>
      <trkpt lat="47.10547" lon="-1.87444">
        <ele>60</ele>
        <time>2021-03-14T13:23:30.000Z</time>
      </trkpt>
      <trkpt lat="47.1055" lon="-1.8746">
        <ele>59</ele>
        <time>2021-03-14T13:23:32.000Z</time>
      </trkpt>
      <trkpt lat="47.10553" lon="-1.87476">
        <ele>59</ele>
        <time>2021-03-14T13:23:34.000Z</time>
      </trkpt>
      <trkpt lat="47.10557" lon="-1.87493">
        <ele>59</ele>
        <time>2021-03-14T13:23:36.000Z</time>
      </trkpt>
      <trkpt lat="47.10561" lon="-1.87508">
        <ele>60</ele>
        <time>2021-03-14T13:23:38.000Z</time>
      </trkpt>
      <trkpt lat="47.10564" lon="-1.87525">
        <ele>59</ele>
        <time>2021-03-14T13:23:40.000Z</time>
      </trkpt>
      <trkpt lat="47.10567" lon="-1.8754">
        <ele>59</ele>
        <time>2021-03-14T13:23:42.000Z</time>
      </trkpt>
      <trkpt lat="47.1057" lon="-1.87556">
        <ele>59</ele>
        <time>2021-03-14T13:23:44.000Z</time>
      </trkpt>
      <trkpt lat="47.10574" lon="-1.87572">
        <ele>60</ele>
        <time>2021-03-14T13:23:46.000Z</time>
      </trkpt>
      <trkpt lat="47.10576" lon="-1.87588">
        <ele>60</ele>
        <time>2021-03-14T13:23:48.000Z</time>
      </trkpt>
      <trkpt lat="47.10578" lon="-1.87604">
        <ele>59</ele>
        <time>2021-03-14T13:23:50.000Z</time>
      </trkpt>
      <trkpt lat="47.10582" lon="-1.87619">
        <ele>59</ele>
        <time>2021-03-14T13:23:52.000Z</time>
      </trkpt>
      <trkpt lat="47.10585" lon="-1.87635">
        <ele>58</ele>
        <time>2021-03-14T13:23:54.000Z</time>
      </trkpt>
      <trkpt lat="47.1059" lon="-1.8765">
        <ele>59</ele>
        <time>2021-03-14T13:23:56.000Z</time>
      </trkpt>
      <trkpt lat="47.10594" lon="-1.87665">
        <ele>59</ele>
        <time>2021-03-14T13:23:58.000Z</time>
      </trkpt>
      <trkpt lat="47.106" lon="-1.8768">
        <ele>58</ele>
        <time>2021-03-14T13:24:00.000Z</time>
      </trkpt>
      <trkpt lat="47.10605" lon="-1.87694">
        <ele>59</ele>
        <time>2021-03-14T13:24:02.000Z</time>
      </trkpt>
      <trkpt lat="47.1061" lon="-1.87708">
        <ele>59</ele>
        <time>2021-03-14T13:24:04.000Z</time>
      </trkpt>
      <trkpt lat="47.10614" lon="-1.87721">
        <ele>59</ele>
        <time>2021-03-14T13:24:06.000Z</time>
      </trkpt>
      <trkpt lat="47.10619" lon="-1.87734">
        <ele>58</ele>
        <time>2021-03-14T13:24:08.000Z</time>
      </trkpt>
      <trkpt lat="47.10623" lon="-1.87748">
        <ele>58</ele>
        <time>2021-03-14T13:24:10.000Z</time>
      </trkpt>
      <trkpt lat="47.10628" lon="-1.87761">
        <ele>58</ele>
        <time>2021-03-14T13:24:12.000Z</time>
      </trkpt>
      <trkpt lat="47.10633" lon="-1.87774">
        <ele>58</ele>
        <time>2021-03-14T13:24:14.000Z</time>
      </trkpt>
      <trkpt lat="47.10638" lon="-1.87788">
        <ele>58</ele>
        <time>2021-03-14T13:24:16.000Z</time>
      </trkpt>
      <trkpt lat="47.10643" lon="-1.87803">
        <ele>57</ele>
        <time>2021-03-14T13:24:18.000Z</time>
      </trkpt>
      <trkpt lat="47.10649" lon="-1.87817">
        <ele>57</ele>
        <time>2021-03-14T13:24:20.000Z</time>
      </trkpt>
      <trkpt lat="47.10653" lon="-1.87832">
        <ele>57</ele>
        <time>2021-03-14T13:24:22.000Z</time>
      </trkpt>
      <trkpt lat="47.10659" lon="-1.87846">
        <ele>57</ele>
        <time>2021-03-14T13:24:24.000Z</time>
      </trkpt>
      <trkpt lat="47.10664" lon="-1.8786">
        <ele>57</ele>
        <time>2021-03-14T13:24:26.000Z</time>
      </trkpt>
      <trkpt lat="47.1067" lon="-1.87876">
        <ele>56</ele>
        <time>2021-03-14T13:24:28.000Z</time>
      </trkpt>
      <trkpt lat="47.10675" lon="-1.87891">
        <ele>56</ele>
        <time>2021-03-14T13:24:30.000Z</time>
      </trkpt>
      <trkpt lat="47.1068" lon="-1.87906">
        <ele>55</ele>
        <time>2021-03-14T13:24:32.000Z</time>
      </trkpt>
      <trkpt lat="47.10685" lon="-1.8792">
        <ele>55</ele>
        <time>2021-03-14T13:24:34.000Z</time>
      </trkpt>
      <trkpt lat="47.10689" lon="-1.87935">
        <ele>55</ele>
        <time>2021-03-14T13:24:36.000Z</time>
      </trkpt>
      <trkpt lat="47.10693" lon="-1.8795">
        <ele>55</ele>
        <time>2021-03-14T13:24:38.000Z</time>
      </trkpt>
      <trkpt lat="47.10696" lon="-1.87966">
        <ele>55</ele>
        <time>2021-03-14T13:24:40.000Z</time>
      </trkpt>
      <trkpt lat="47.10698" lon="-1.87981">
        <ele>55</ele>
        <time>2021-03-14T13:24:42.000Z</time>
      </trkpt>
      <trkpt lat="47.107" lon="-1.87998">
        <ele>56</ele>
        <time>2021-03-14T13:24:44.000Z</time>
      </trkpt>
      <trkpt lat="47.10702" lon="-1.88014">
        <ele>56</ele>
        <time>2021-03-14T13:24:46.000Z</time>
      </trkpt>
      <trkpt lat="47.10703" lon="-1.88029">
        <ele>56</ele>
        <time>2021-03-14T13:24:48.000Z</time>
      </trkpt>
      <trkpt lat="47.10705" lon="-1.88045">
        <ele>56</ele>
        <time>2021-03-14T13:24:50.000Z</time>
      </trkpt>
      <trkpt lat="47.10707" lon="-1.8806">
        <ele>56</ele>
        <time>2021-03-14T13:24:52.000Z</time>
      </trkpt>
      <trkpt lat="47.10709" lon="-1.88075">
        <ele>56</ele>
        <time>2021-03-14T13:24:54.000Z</time>
      </trkpt>
      <trkpt lat="47.10711" lon="-1.8809">
        <ele>57</ele>
        <time>2021-03-14T13:24:56.000Z</time>
      </trkpt>
      <trkpt lat="47.10712" lon="-1.88106">
        <ele>57</ele>
        <time>2021-03-14T13:24:58.000Z</time>
      </trkpt>
      <trkpt lat="47.10713" lon="-1.88121">
        <ele>56</ele>
        <time>2021-03-14T13:25:00.000Z</time>
      </trkpt>
      <trkpt lat="47.10715" lon="-1.88137">
        <ele>56</ele>
        <time>2021-03-14T13:25:02.000Z</time>
      </trkpt>
      <trkpt lat="47.10717" lon="-1.88152">
        <ele>56</ele>
        <time>2021-03-14T13:25:04.000Z</time>
      </trkpt>
      <trkpt lat="47.10718" lon="-1.88168">
        <ele>57</ele>
        <time>2021-03-14T13:25:06.000Z</time>
      </trkpt>
      <trkpt lat="47.1072" lon="-1.88183">
        <ele>57</ele>
        <time>2021-03-14T13:25:08.000Z</time>
      </trkpt>
      <trkpt lat="47.10721" lon="-1.88198">
        <ele>57</ele>
        <time>2021-03-14T13:25:10.000Z</time>
      </trkpt>
      <trkpt lat="47.10723" lon="-1.88213">
        <ele>57</ele>
        <time>2021-03-14T13:25:12.000Z</time>
      </trkpt>
      <trkpt lat="47.10724" lon="-1.88229">
        <ele>57</ele>
        <time>2021-03-14T13:25:14.000Z</time>
      </trkpt>
      <trkpt lat="47.10726" lon="-1.88244">
        <ele>56</ele>
        <time>2021-03-14T13:25:16.000Z</time>
      </trkpt>
      <trkpt lat="47.10727" lon="-1.88259">
        <ele>57</ele>
        <time>2021-03-14T13:25:18.000Z</time>
      </trkpt>
      <trkpt lat="47.10729" lon="-1.88275">
        <ele>57</ele>
        <time>2021-03-14T13:25:20.000Z</time>
      </trkpt>
      <trkpt lat="47.10731" lon="-1.88291">
        <ele>57</ele>
        <time>2021-03-14T13:25:22.000Z</time>
      </trkpt>
      <trkpt lat="47.10732" lon="-1.88308">
        <ele>56</ele>
        <time>2021-03-14T13:25:24.000Z</time>
      </trkpt>
      <trkpt lat="47.10734" lon="-1.88324">
        <ele>56</ele>
        <time>2021-03-14T13:25:26.000Z</time>
      </trkpt>
      <trkpt lat="47.10736" lon="-1.88339">
        <ele>56</ele>
        <time>2021-03-14T13:25:28.000Z</time>
      </trkpt>
      <trkpt lat="47.10739" lon="-1.88355">
        <ele>55</ele>
        <time>2021-03-14T13:25:30.000Z</time>
      </trkpt>
      <trkpt lat="47.10741" lon="-1.88371">
        <ele>55</ele>
        <time>2021-03-14T13:25:32.000Z</time>
      </trkpt>
      <trkpt lat="47.10745" lon="-1.88385">
        <ele>55</ele>
        <time>2021-03-14T13:25:34.000Z</time>
      </trkpt>
      <trkpt lat="47.10748" lon="-1.884">
        <ele>56</ele>
        <time>2021-03-14T13:25:36.000Z</time>
      </trkpt>
      <trkpt lat="47.10751" lon="-1.88414">
        <ele>55</ele>
        <time>2021-03-14T13:25:38.000Z</time>
      </trkpt>
      <trkpt lat="47.10755" lon="-1.88428">
        <ele>55</ele>
        <time>2021-03-14T13:25:40.000Z</time>
      </trkpt>
      <trkpt lat="47.10759" lon="-1.88442">
        <ele>55</ele>
        <time>2021-03-14T13:25:42.000Z</time>
      </trkpt>
      <trkpt lat="47.10763" lon="-1.88456">
        <ele>55</ele>
        <time>2021-03-14T13:25:44.000Z</time>
      </trkpt>
      <trkpt lat="47.10767" lon="-1.8847">
        <ele>56</ele>
        <time>2021-03-14T13:25:46.000Z</time>
      </trkpt>
      <trkpt lat="47.10771" lon="-1.88484">
        <ele>55</ele>
        <time>2021-03-14T13:25:48.000Z</time>
      </trkpt>
      <trkpt lat="47.10776" lon="-1.88497">
        <ele>55</ele>
        <time>2021-03-14T13:25:50.000Z</time>
      </trkpt>
      <trkpt lat="47.1078" lon="-1.88511">
        <ele>55</ele>
        <time>2021-03-14T13:25:52.000Z</time>
      </trkpt>
      <trkpt lat="47.10786" lon="-1.88524">
        <ele>55</ele>
        <time>2021-03-14T13:25:54.000Z</time>
      </trkpt>
      <trkpt lat="47.10791" lon="-1.88537">
        <ele>56</ele>
        <time>2021-03-14T13:25:56.000Z</time>
      </trkpt>
      <trkpt lat="47.10796" lon="-1.8855">
        <ele>56</ele>
        <time>2021-03-14T13:25:58.000Z</time>
      </trkpt>
      <trkpt lat="47.10802" lon="-1.88563">
        <ele>56</ele>
        <time>2021-03-14T13:26:00.000Z</time>
      </trkpt>
      <trkpt lat="47.10807" lon="-1.88576">
        <ele>56</ele>
        <time>2021-03-14T13:26:02.000Z</time>
      </trkpt>
      <trkpt lat="47.10813" lon="-1.88588">
        <ele>56</ele>
        <time>2021-03-14T13:26:04.000Z</time>
      </trkpt>
      <trkpt lat="47.10818" lon="-1.88599">
        <ele>56</ele>
        <time>2021-03-14T13:26:06.000Z</time>
      </trkpt>
      <trkpt lat="47.10823" lon="-1.88611">
        <ele>56</ele>
        <time>2021-03-14T13:26:08.000Z</time>
      </trkpt>
      <trkpt lat="47.10828" lon="-1.88623">
        <ele>56</ele>
        <time>2021-03-14T13:26:10.000Z</time>
      </trkpt>
      <trkpt lat="47.10833" lon="-1.88634">
        <ele>56</ele>
        <time>2021-03-14T13:26:12.000Z</time>
      </trkpt>
      <trkpt lat="47.10838" lon="-1.88645">
        <ele>56</ele>
        <time>2021-03-14T13:26:14.000Z</time>
      </trkpt>
      <trkpt lat="47.10843" lon="-1.88658">
        <ele>56</ele>
        <time>2021-03-14T13:26:16.000Z</time>
      </trkpt>
      <trkpt lat="47.10848" lon="-1.88671">
        <ele>57</ele>
        <time>2021-03-14T13:26:18.000Z</time>
      </trkpt>
      <trkpt lat="47.10853" lon="-1.88683">
        <ele>57</ele>
        <time>2021-03-14T13:26:20.000Z</time>
      </trkpt>
      <trkpt lat="47.10858" lon="-1.88694">
        <ele>57</ele>
        <time>2021-03-14T13:26:22.000Z</time>
      </trkpt>
      <trkpt lat="47.10864" lon="-1.88707">
        <ele>57</ele>
        <time>2021-03-14T13:26:24.000Z</time>
      </trkpt>
      <trkpt lat="47.10869" lon="-1.8872">
        <ele>57</ele>
        <time>2021-03-14T13:26:26.000Z</time>
      </trkpt>
      <trkpt lat="47.10874" lon="-1.88732">
        <ele>57</ele>
        <time>2021-03-14T13:26:28.000Z</time>
      </trkpt>
      <trkpt lat="47.1088" lon="-1.88745">
        <ele>57</ele>
        <time>2021-03-14T13:26:30.000Z</time>
      </trkpt>
      <trkpt lat="47.10885" lon="-1.88758">
        <ele>57</ele>
        <time>2021-03-14T13:26:32.000Z</time>
      </trkpt>
      <trkpt lat="47.10891" lon="-1.88771">
        <ele>58</ele>
        <time>2021-03-14T13:26:34.000Z</time>
      </trkpt>
      <trkpt lat="47.10896" lon="-1.88783">
        <ele>58</ele>
        <time>2021-03-14T13:26:36.000Z</time>
      </trkpt>
      <trkpt lat="47.10902" lon="-1.88797">
        <ele>58</ele>
        <time>2021-03-14T13:26:38.000Z</time>
      </trkpt>
      <trkpt lat="47.10907" lon="-1.8881">
        <ele>58</ele>
        <time>2021-03-14T13:26:40.000Z</time>
      </trkpt>
      <trkpt lat="47.10912" lon="-1.88823">
        <ele>59</ele>
        <time>2021-03-14T13:26:42.000Z</time>
      </trkpt>
      <trkpt lat="47.10917" lon="-1.88836">
        <ele>59</ele>
        <time>2021-03-14T13:26:44.000Z</time>
      </trkpt>
      <trkpt lat="47.10922" lon="-1.88849">
        <ele>59</ele>
        <time>2021-03-14T13:26:46.000Z</time>
      </trkpt>
      <trkpt lat="47.10927" lon="-1.88863">
        <ele>59</ele>
        <time>2021-03-14T13:26:48.000Z</time>
      </trkpt>
      <trkpt lat="47.10931" lon="-1.88878">
        <ele>59</ele>
        <time>2021-03-14T13:26:50.000Z</time>
      </trkpt>
      <trkpt lat="47.10935" lon="-1.88892">
        <ele>59</ele>
        <time>2021-03-14T13:26:52.000Z</time>
      </trkpt>
      <trkpt lat="47.10939" lon="-1.88906">
        <ele>59</ele>
        <time>2021-03-14T13:26:54.000Z</time>
      </trkpt>
      <trkpt lat="47.10943" lon="-1.8892">
        <ele>59</ele>
        <time>2021-03-14T13:26:56.000Z</time>
      </trkpt>
      <trkpt lat="47.10948" lon="-1.88935">
        <ele>59</ele>
        <time>2021-03-14T13:26:58.000Z</time>
      </trkpt>
      <trkpt lat="47.10952" lon="-1.88949">
        <ele>59</ele>
        <time>2021-03-14T13:27:00.000Z</time>
      </trkpt>
      <trkpt lat="47.10957" lon="-1.88964">
        <ele>60</ele>
        <time>2021-03-14T13:27:02.000Z</time>
      </trkpt>
      <trkpt lat="47.10961" lon="-1.88978">
        <ele>59</ele>
        <time>2021-03-14T13:27:04.000Z</time>
      </trkpt>
      <trkpt lat="47.10965" lon="-1.88992">
        <ele>60</ele>
        <time>2021-03-14T13:27:06.000Z</time>
      </trkpt>
      <trkpt lat="47.10969" lon="-1.89007">
        <ele>60</ele>
        <time>2021-03-14T13:27:08.000Z</time>
      </trkpt>
      <trkpt lat="47.10973" lon="-1.89021">
        <ele>60</ele>
        <time>2021-03-14T13:27:10.000Z</time>
      </trkpt>
      <trkpt lat="47.10977" lon="-1.89035">
        <ele>61</ele>
        <time>2021-03-14T13:27:12.000Z</time>
      </trkpt>
      <trkpt lat="47.10981" lon="-1.89048">
        <ele>61</ele>
        <time>2021-03-14T13:27:14.000Z</time>
      </trkpt>
      <trkpt lat="47.10986" lon="-1.89062">
        <ele>61</ele>
        <time>2021-03-14T13:27:16.000Z</time>
      </trkpt>
      <trkpt lat="47.10989" lon="-1.89075">
        <ele>61</ele>
        <time>2021-03-14T13:27:18.000Z</time>
      </trkpt>
      <trkpt lat="47.10993" lon="-1.89089">
        <ele>61</ele>
        <time>2021-03-14T13:27:20.000Z</time>
      </trkpt>
      <trkpt lat="47.10997" lon="-1.89103">
        <ele>62</ele>
        <time>2021-03-14T13:27:22.000Z</time>
      </trkpt>
      <trkpt lat="47.11001" lon="-1.89117">
        <ele>61</ele>
        <time>2021-03-14T13:27:24.000Z</time>
      </trkpt>
      <trkpt lat="47.11005" lon="-1.8913">
        <ele>61</ele>
        <time>2021-03-14T13:27:26.000Z</time>
      </trkpt>
      <trkpt lat="47.11009" lon="-1.89144">
        <ele>61</ele>
        <time>2021-03-14T13:27:28.000Z</time>
      </trkpt>
      <trkpt lat="47.11014" lon="-1.89158">
        <ele>61</ele>
        <time>2021-03-14T13:27:30.000Z</time>
      </trkpt>
      <trkpt lat="47.11018" lon="-1.89172">
        <ele>61</ele>
        <time>2021-03-14T13:27:32.000Z</time>
      </trkpt>
      <trkpt lat="47.11022" lon="-1.89185">
        <ele>61</ele>
        <time>2021-03-14T13:27:34.000Z</time>
      </trkpt>
      <trkpt lat="47.11026" lon="-1.89198">
        <ele>61</ele>
        <time>2021-03-14T13:27:36.000Z</time>
      </trkpt>
      <trkpt lat="47.1103" lon="-1.89212">
        <ele>61</ele>
        <time>2021-03-14T13:27:38.000Z</time>
      </trkpt>
      <trkpt lat="47.11034" lon="-1.89225">
        <ele>61</ele>
        <time>2021-03-14T13:27:40.000Z</time>
      </trkpt>
      <trkpt lat="47.11038" lon="-1.89239">
        <ele>61</ele>
        <time>2021-03-14T13:27:42.000Z</time>
      </trkpt>
      <trkpt lat="47.11043" lon="-1.89253">
        <ele>61</ele>
        <time>2021-03-14T13:27:44.000Z</time>
      </trkpt>
      <trkpt lat="47.11046" lon="-1.89267">
        <ele>61</ele>
        <time>2021-03-14T13:27:46.000Z</time>
      </trkpt>
      <trkpt lat="47.1105" lon="-1.89281">
        <ele>60</ele>
        <time>2021-03-14T13:27:48.000Z</time>
      </trkpt>
      <trkpt lat="47.11054" lon="-1.89295">
        <ele>60</ele>
        <time>2021-03-14T13:27:50.000Z</time>
      </trkpt>
      <trkpt lat="47.11059" lon="-1.89309">
        <ele>60</ele>
        <time>2021-03-14T13:27:52.000Z</time>
      </trkpt>
      <trkpt lat="47.11063" lon="-1.89324">
        <ele>60</ele>
        <time>2021-03-14T13:27:54.000Z</time>
      </trkpt>
      <trkpt lat="47.11068" lon="-1.89338">
        <ele>60</ele>
        <time>2021-03-14T13:27:56.000Z</time>
      </trkpt>
      <trkpt lat="47.11074" lon="-1.89352">
        <ele>60</ele>
        <time>2021-03-14T13:27:58.000Z</time>
      </trkpt>
      <trkpt lat="47.1108" lon="-1.89365">
        <ele>60</ele>
        <time>2021-03-14T13:28:00.000Z</time>
      </trkpt>
      <trkpt lat="47.11087" lon="-1.89378">
        <ele>60</ele>
        <time>2021-03-14T13:28:02.000Z</time>
      </trkpt>
      <trkpt lat="47.11095" lon="-1.89391">
        <ele>60</ele>
        <time>2021-03-14T13:28:04.000Z</time>
      </trkpt>
      <trkpt lat="47.11102" lon="-1.89403">
        <ele>60</ele>
        <time>2021-03-14T13:28:06.000Z</time>
      </trkpt>
      <trkpt lat="47.1111" lon="-1.89415">
        <ele>60</ele>
        <time>2021-03-14T13:28:08.000Z</time>
      </trkpt>
      <trkpt lat="47.11118" lon="-1.89426">
        <ele>60</ele>
        <time>2021-03-14T13:28:10.000Z</time>
      </trkpt>
      <trkpt lat="47.11126" lon="-1.89437">
        <ele>59</ele>
        <time>2021-03-14T13:28:12.000Z</time>
      </trkpt>
      <trkpt lat="47.11135" lon="-1.89449">
        <ele>59</ele>
        <time>2021-03-14T13:28:14.000Z</time>
      </trkpt>
      <trkpt lat="47.11143" lon="-1.8946">
        <ele>59</ele>
        <time>2021-03-14T13:28:16.000Z</time>
      </trkpt>
      <trkpt lat="47.11152" lon="-1.89471">
        <ele>59</ele>
        <time>2021-03-14T13:28:18.000Z</time>
      </trkpt>
      <trkpt lat="47.1116" lon="-1.89481">
        <ele>59</ele>
        <time>2021-03-14T13:28:20.000Z</time>
      </trkpt>
      <trkpt lat="47.11168" lon="-1.89492">
        <ele>59</ele>
        <time>2021-03-14T13:28:22.000Z</time>
      </trkpt>
      <trkpt lat="47.11176" lon="-1.89502">
        <ele>59</ele>
        <time>2021-03-14T13:28:24.000Z</time>
      </trkpt>
      <trkpt lat="47.11185" lon="-1.89512">
        <ele>59</ele>
        <time>2021-03-14T13:28:26.000Z</time>
      </trkpt>
      <trkpt lat="47.11193" lon="-1.89523">
        <ele>59</ele>
        <time>2021-03-14T13:28:28.000Z</time>
      </trkpt>
      <trkpt lat="47.11201" lon="-1.89533">
        <ele>60</ele>
        <time>2021-03-14T13:28:30.000Z</time>
      </trkpt>
      <trkpt lat="47.11209" lon="-1.89543">
        <ele>60</ele>
        <time>2021-03-14T13:28:32.000Z</time>
      </trkpt>
      <trkpt lat="47.11217" lon="-1.89554">
        <ele>60</ele>
        <time>2021-03-14T13:28:34.000Z</time>
      </trkpt>
      <trkpt lat="47.11226" lon="-1.89566">
        <ele>60</ele>
        <time>2021-03-14T13:28:36.000Z</time>
      </trkpt>
      <trkpt lat="47.11234" lon="-1.89577">
        <ele>60</ele>
        <time>2021-03-14T13:28:38.000Z</time>
      </trkpt>
      <trkpt lat="47.11243" lon="-1.89588">
        <ele>60</ele>
        <time>2021-03-14T13:28:40.000Z</time>
      </trkpt>
      <trkpt lat="47.11251" lon="-1.89599">
        <ele>60</ele>
        <time>2021-03-14T13:28:42.000Z</time>
      </trkpt>
      <trkpt lat="47.11259" lon="-1.89609">
        <ele>60</ele>
        <time>2021-03-14T13:28:44.000Z</time>
      </trkpt>
      <trkpt lat="47.11268" lon="-1.89621">
        <ele>59</ele>
        <time>2021-03-14T13:28:46.000Z</time>
      </trkpt>
      <trkpt lat="47.11277" lon="-1.89632">
        <ele>60</ele>
        <time>2021-03-14T13:28:48.000Z</time>
      </trkpt>
      <trkpt lat="47.11286" lon="-1.89643">
        <ele>60</ele>
        <time>2021-03-14T13:28:50.000Z</time>
      </trkpt>
      <trkpt lat="47.11294" lon="-1.89654">
        <ele>60</ele>
        <time>2021-03-14T13:28:52.000Z</time>
      </trkpt>
      <trkpt lat="47.11303" lon="-1.89665">
        <ele>60</ele>
        <time>2021-03-14T13:28:54.000Z</time>
      </trkpt>
      <trkpt lat="47.11312" lon="-1.89677">
        <ele>60</ele>
        <time>2021-03-14T13:28:56.000Z</time>
      </trkpt>
      <trkpt lat="47.11321" lon="-1.89688">
        <ele>60</ele>
        <time>2021-03-14T13:28:58.000Z</time>
      </trkpt>
      <trkpt lat="47.11329" lon="-1.89699">
        <ele>60</ele>
        <time>2021-03-14T13:29:00.000Z</time>
      </trkpt>
      <trkpt lat="47.11338" lon="-1.8971">
        <ele>60</ele>
        <time>2021-03-14T13:29:02.000Z</time>
      </trkpt>
      <trkpt lat="47.11347" lon="-1.89722">
        <ele>60</ele>
        <time>2021-03-14T13:29:04.000Z</time>
      </trkpt>
      <trkpt lat="47.11356" lon="-1.89734">
        <ele>59</ele>
        <time>2021-03-14T13:29:06.000Z</time>
      </trkpt>
      <trkpt lat="47.11365" lon="-1.89745">
        <ele>59</ele>
        <time>2021-03-14T13:29:08.000Z</time>
      </trkpt>
      <trkpt lat="47.11374" lon="-1.89757">
        <ele>59</ele>
        <time>2021-03-14T13:29:10.000Z</time>
      </trkpt>
      <trkpt lat="47.11383" lon="-1.89769">
        <ele>59</ele>
        <time>2021-03-14T13:29:12.000Z</time>
      </trkpt>
      <trkpt lat="47.11392" lon="-1.89781">
        <ele>59</ele>
        <time>2021-03-14T13:29:14.000Z</time>
      </trkpt>
      <trkpt lat="47.11401" lon="-1.89793">
        <ele>58</ele>
        <time>2021-03-14T13:29:16.000Z</time>
      </trkpt>
      <trkpt lat="47.1141" lon="-1.89805">
        <ele>59</ele>
        <time>2021-03-14T13:29:18.000Z</time>
      </trkpt>
      <trkpt lat="47.1142" lon="-1.89817">
        <ele>58</ele>
        <time>2021-03-14T13:29:20.000Z</time>
      </trkpt>
      <trkpt lat="47.11429" lon="-1.89829">
        <ele>58</ele>
        <time>2021-03-14T13:29:22.000Z</time>
      </trkpt>
      <trkpt lat="47.11439" lon="-1.89841">
        <ele>58</ele>
        <time>2021-03-14T13:29:24.000Z</time>
      </trkpt>
      <trkpt lat="47.11449" lon="-1.89853">
        <ele>57</ele>
        <time>2021-03-14T13:29:26.000Z</time>
      </trkpt>
      <trkpt lat="47.11459" lon="-1.89866">
        <ele>57</ele>
        <time>2021-03-14T13:29:28.000Z</time>
      </trkpt>
      <trkpt lat="47.11468" lon="-1.89878">
        <ele>57</ele>
        <time>2021-03-14T13:29:30.000Z</time>
      </trkpt>
      <trkpt lat="47.11478" lon="-1.89891">
        <ele>57</ele>
        <time>2021-03-14T13:29:32.000Z</time>
      </trkpt>
      <trkpt lat="47.11487" lon="-1.89904">
        <ele>57</ele>
        <time>2021-03-14T13:29:34.000Z</time>
      </trkpt>
      <trkpt lat="47.11496" lon="-1.89917">
        <ele>57</ele>
        <time>2021-03-14T13:29:36.000Z</time>
      </trkpt>
      <trkpt lat="47.11503" lon="-1.89931">
        <ele>56</ele>
        <time>2021-03-14T13:29:38.000Z</time>
      </trkpt>
      <trkpt lat="47.11511" lon="-1.89944">
        <ele>56</ele>
        <time>2021-03-14T13:29:40.000Z</time>
      </trkpt>
      <trkpt lat="47.11517" lon="-1.89959">
        <ele>55</ele>
        <time>2021-03-14T13:29:42.000Z</time>
      </trkpt>
      <trkpt lat="47.11523" lon="-1.89973">
        <ele>55</ele>
        <time>2021-03-14T13:29:44.000Z</time>
      </trkpt>
      <trkpt lat="47.11528" lon="-1.89989">
        <ele>54</ele>
        <time>2021-03-14T13:29:46.000Z</time>
      </trkpt>
      <trkpt lat="47.11533" lon="-1.90005">
        <ele>54</ele>
        <time>2021-03-14T13:29:48.000Z</time>
      </trkpt>
      <trkpt lat="47.11538" lon="-1.90021">
        <ele>54</ele>
        <time>2021-03-14T13:29:50.000Z</time>
      </trkpt>
      <trkpt lat="47.11543" lon="-1.90038">
        <ele>53</ele>
        <time>2021-03-14T13:29:52.000Z</time>
      </trkpt>
      <trkpt lat="47.11547" lon="-1.90053">
        <ele>53</ele>
        <time>2021-03-14T13:29:54.000Z</time>
      </trkpt>
      <trkpt lat="47.11552" lon="-1.90069">
        <ele>53</ele>
        <time>2021-03-14T13:29:56.000Z</time>
      </trkpt>
      <trkpt lat="47.11557" lon="-1.90084">
        <ele>54</ele>
        <time>2021-03-14T13:29:58.000Z</time>
      </trkpt>
      <trkpt lat="47.11562" lon="-1.90098">
        <ele>54</ele>
        <time>2021-03-14T13:30:00.000Z</time>
      </trkpt>
      <trkpt lat="47.11567" lon="-1.90112">
        <ele>54</ele>
        <time>2021-03-14T13:30:02.000Z</time>
      </trkpt>
      <trkpt lat="47.11572" lon="-1.90127">
        <ele>54</ele>
        <time>2021-03-14T13:30:04.000Z</time>
      </trkpt>
      <trkpt lat="47.11576" lon="-1.90141">
        <ele>54</ele>
        <time>2021-03-14T13:30:06.000Z</time>
      </trkpt>
      <trkpt lat="47.11581" lon="-1.90156">
        <ele>54</ele>
        <time>2021-03-14T13:30:08.000Z</time>
      </trkpt>
      <trkpt lat="47.11585" lon="-1.9017">
        <ele>54</ele>
        <time>2021-03-14T13:30:10.000Z</time>
      </trkpt>
      <trkpt lat="47.1159" lon="-1.90184">
        <ele>53</ele>
        <time>2021-03-14T13:30:12.000Z</time>
      </trkpt>
      <trkpt lat="47.11595" lon="-1.902">
        <ele>53</ele>
        <time>2021-03-14T13:30:14.000Z</time>
      </trkpt>
      <trkpt lat="47.11599" lon="-1.90216">
        <ele>54</ele>
        <time>2021-03-14T13:30:16.000Z</time>
      </trkpt>
      <trkpt lat="47.11604" lon="-1.90231">
        <ele>53</ele>
        <time>2021-03-14T13:30:18.000Z</time>
      </trkpt>
      <trkpt lat="47.11608" lon="-1.90246">
        <ele>53</ele>
        <time>2021-03-14T13:30:20.000Z</time>
      </trkpt>
      <trkpt lat="47.11613" lon="-1.90261">
        <ele>53</ele>
        <time>2021-03-14T13:30:22.000Z</time>
      </trkpt>
      <trkpt lat="47.11618" lon="-1.90276">
        <ele>53</ele>
        <time>2021-03-14T13:30:24.000Z</time>
      </trkpt>
      <trkpt lat="47.11622" lon="-1.90292">
        <ele>53</ele>
        <time>2021-03-14T13:30:26.000Z</time>
      </trkpt>
      <trkpt lat="47.11627" lon="-1.90307">
        <ele>53</ele>
        <time>2021-03-14T13:30:28.000Z</time>
      </trkpt>
      <trkpt lat="47.11632" lon="-1.90322">
        <ele>53</ele>
        <time>2021-03-14T13:30:30.000Z</time>
      </trkpt>
      <trkpt lat="47.11636" lon="-1.90336">
        <ele>53</ele>
        <time>2021-03-14T13:30:32.000Z</time>
      </trkpt>
      <trkpt lat="47.11641" lon="-1.9035">
        <ele>53</ele>
        <time>2021-03-14T13:30:34.000Z</time>
      </trkpt>
      <trkpt lat="47.11646" lon="-1.90366">
        <ele>53</ele>
        <time>2021-03-14T13:30:36.000Z</time>
      </trkpt>
      <trkpt lat="47.11651" lon="-1.90382">
        <ele>53</ele>
        <time>2021-03-14T13:30:38.000Z</time>
      </trkpt>
      <trkpt lat="47.11656" lon="-1.90398">
        <ele>53</ele>
        <time>2021-03-14T13:30:40.000Z</time>
      </trkpt>
      <trkpt lat="47.11661" lon="-1.90415">
        <ele>53</ele>
        <time>2021-03-14T13:30:42.000Z</time>
      </trkpt>
      <trkpt lat="47.11665" lon="-1.90431">
        <ele>53</ele>
        <time>2021-03-14T13:30:44.000Z</time>
      </trkpt>
      <trkpt lat="47.1167" lon="-1.90446">
        <ele>53</ele>
        <time>2021-03-14T13:30:46.000Z</time>
      </trkpt>
      <trkpt lat="47.11675" lon="-1.90462">
        <ele>53</ele>
        <time>2021-03-14T13:30:48.000Z</time>
      </trkpt>
      <trkpt lat="47.1168" lon="-1.90476">
        <ele>54</ele>
        <time>2021-03-14T13:30:50.000Z</time>
      </trkpt>
      <trkpt lat="47.11684" lon="-1.9049">
        <ele>54</ele>
        <time>2021-03-14T13:30:52.000Z</time>
      </trkpt>
      <trkpt lat="47.11689" lon="-1.90505">
        <ele>54</ele>
        <time>2021-03-14T13:30:54.000Z</time>
      </trkpt>
      <trkpt lat="47.11693" lon="-1.9052">
        <ele>54</ele>
        <time>2021-03-14T13:30:56.000Z</time>
      </trkpt>
      <trkpt lat="47.11698" lon="-1.90534">
        <ele>54</ele>
        <time>2021-03-14T13:30:58.000Z</time>
      </trkpt>
      <trkpt lat="47.11703" lon="-1.90549">
        <ele>55</ele>
        <time>2021-03-14T13:31:00.000Z</time>
      </trkpt>
      <trkpt lat="47.11708" lon="-1.90563">
        <ele>54</ele>
        <time>2021-03-14T13:31:02.000Z</time>
      </trkpt>
      <trkpt lat="47.11714" lon="-1.90577">
        <ele>54</ele>
        <time>2021-03-14T13:31:04.000Z</time>
      </trkpt>
      <trkpt lat="47.1172" lon="-1.90591">
        <ele>55</ele>
        <time>2021-03-14T13:31:06.000Z</time>
      </trkpt>
      <trkpt lat="47.11727" lon="-1.90603">
        <ele>55</ele>
        <time>2021-03-14T13:31:08.000Z</time>
      </trkpt>
      <trkpt lat="47.11733" lon="-1.90616">
        <ele>55</ele>
        <time>2021-03-14T13:31:10.000Z</time>
      </trkpt>
      <trkpt lat="47.1174" lon="-1.90629">
        <ele>55</ele>
        <time>2021-03-14T13:31:12.000Z</time>
      </trkpt>
      <trkpt lat="47.11747" lon="-1.90642">
        <ele>55</ele>
        <time>2021-03-14T13:31:14.000Z</time>
      </trkpt>
      <trkpt lat="47.11754" lon="-1.90654">
        <ele>56</ele>
        <time>2021-03-14T13:31:16.000Z</time>
      </trkpt>
      <trkpt lat="47.11761" lon="-1.90667">
        <ele>56</ele>
        <time>2021-03-14T13:31:18.000Z</time>
      </trkpt>
      <trkpt lat="47.11767" lon="-1.90679">
        <ele>55</ele>
        <time>2021-03-14T13:31:20.000Z</time>
      </trkpt>
      <trkpt lat="47.11773" lon="-1.90693">
        <ele>55</ele>
        <time>2021-03-14T13:31:22.000Z</time>
      </trkpt>
      <trkpt lat="47.11779" lon="-1.90705">
        <ele>56</ele>
        <time>2021-03-14T13:31:24.000Z</time>
      </trkpt>
      <trkpt lat="47.11786" lon="-1.90717">
        <ele>56</ele>
        <time>2021-03-14T13:31:26.000Z</time>
      </trkpt>
      <trkpt lat="47.11791" lon="-1.90729">
        <ele>55</ele>
        <time>2021-03-14T13:31:28.000Z</time>
      </trkpt>
      <trkpt lat="47.11798" lon="-1.90741">
        <ele>55</ele>
        <time>2021-03-14T13:31:30.000Z</time>
      </trkpt>
      <trkpt lat="47.11804" lon="-1.90753">
        <ele>55</ele>
        <time>2021-03-14T13:31:32.000Z</time>
      </trkpt>
      <trkpt lat="47.1181" lon="-1.90766">
        <ele>55</ele>
        <time>2021-03-14T13:31:34.000Z</time>
      </trkpt>
      <trkpt lat="47.11816" lon="-1.90777">
        <ele>55</ele>
        <time>2021-03-14T13:31:36.000Z</time>
      </trkpt>
      <trkpt lat="47.11823" lon="-1.9079">
        <ele>55</ele>
        <time>2021-03-14T13:31:38.000Z</time>
      </trkpt>
      <trkpt lat="47.1183" lon="-1.90802">
        <ele>55</ele>
        <time>2021-03-14T13:31:40.000Z</time>
      </trkpt>
      <trkpt lat="47.11836" lon="-1.90814">
        <ele>55</ele>
        <time>2021-03-14T13:31:42.000Z</time>
      </trkpt>
      <trkpt lat="47.11841" lon="-1.90826">
        <ele>55</ele>
        <time>2021-03-14T13:31:44.000Z</time>
      </trkpt>
      <trkpt lat="47.11848" lon="-1.90838">
        <ele>55</ele>
        <time>2021-03-14T13:31:46.000Z</time>
      </trkpt>
      <trkpt lat="47.11854" lon="-1.9085">
        <ele>55</ele>
        <time>2021-03-14T13:31:48.000Z</time>
      </trkpt>
      <trkpt lat="47.11861" lon="-1.90862">
        <ele>55</ele>
        <time>2021-03-14T13:31:50.000Z</time>
      </trkpt>
      <trkpt lat="47.11867" lon="-1.90873">
        <ele>55</ele>
        <time>2021-03-14T13:31:52.000Z</time>
      </trkpt>
      <trkpt lat="47.11873" lon="-1.90885">
        <ele>55</ele>
        <time>2021-03-14T13:31:54.000Z</time>
      </trkpt>
      <trkpt lat="47.1188" lon="-1.90897">
        <ele>55</ele>
        <time>2021-03-14T13:31:56.000Z</time>
      </trkpt>
      <trkpt lat="47.11886" lon="-1.9091">
        <ele>55</ele>
        <time>2021-03-14T13:31:58.000Z</time>
      </trkpt>
      <trkpt lat="47.11892" lon="-1.90922">
        <ele>55</ele>
        <time>2021-03-14T13:32:00.000Z</time>
      </trkpt>
      <trkpt lat="47.11898" lon="-1.90936">
        <ele>55</ele>
        <time>2021-03-14T13:32:02.000Z</time>
      </trkpt>
      <trkpt lat="47.11905" lon="-1.90948">
        <ele>55</ele>
        <time>2021-03-14T13:32:04.000Z</time>
      </trkpt>
      <trkpt lat="47.11911" lon="-1.9096">
        <ele>55</ele>
        <time>2021-03-14T13:32:06.000Z</time>
      </trkpt>
      <trkpt lat="47.11917" lon="-1.90973">
        <ele>55</ele>
        <time>2021-03-14T13:32:08.000Z</time>
      </trkpt>
      <trkpt lat="47.11924" lon="-1.90986">
        <ele>55</ele>
        <time>2021-03-14T13:32:10.000Z</time>
      </trkpt>
      <trkpt lat="47.11931" lon="-1.90998">
        <ele>55</ele>
        <time>2021-03-14T13:32:12.000Z</time>
      </trkpt>
      <trkpt lat="47.11938" lon="-1.9101">
        <ele>55</ele>
        <time>2021-03-14T13:32:14.000Z</time>
      </trkpt>
      <trkpt lat="47.11945" lon="-1.91023">
        <ele>55</ele>
        <time>2021-03-14T13:32:16.000Z</time>
      </trkpt>
      <trkpt lat="47.11952" lon="-1.91037">
        <ele>55</ele>
        <time>2021-03-14T13:32:18.000Z</time>
      </trkpt>
      <trkpt lat="47.11958" lon="-1.9105">
        <ele>56</ele>
        <time>2021-03-14T13:32:20.000Z</time>
      </trkpt>
      <trkpt lat="47.11966" lon="-1.91063">
        <ele>55</ele>
        <time>2021-03-14T13:32:22.000Z</time>
      </trkpt>
      <trkpt lat="47.11972" lon="-1.91076">
        <ele>56</ele>
        <time>2021-03-14T13:32:24.000Z</time>
      </trkpt>
      <trkpt lat="47.11979" lon="-1.91089">
        <ele>56</ele>
        <time>2021-03-14T13:32:26.000Z</time>
      </trkpt>
      <trkpt lat="47.11986" lon="-1.91102">
        <ele>56</ele>
        <time>2021-03-14T13:32:28.000Z</time>
      </trkpt>
      <trkpt lat="47.11993" lon="-1.91114">
        <ele>56</ele>
        <time>2021-03-14T13:32:30.000Z</time>
      </trkpt>
      <trkpt lat="47.11999" lon="-1.91127">
        <ele>56</ele>
        <time>2021-03-14T13:32:32.000Z</time>
      </trkpt>
      <trkpt lat="47.12006" lon="-1.9114">
        <ele>56</ele>
        <time>2021-03-14T13:32:34.000Z</time>
      </trkpt>
      <trkpt lat="47.12013" lon="-1.91152">
        <ele>55</ele>
        <time>2021-03-14T13:32:36.000Z</time>
      </trkpt>
      <trkpt lat="47.1202" lon="-1.91164">
        <ele>55</ele>
        <time>2021-03-14T13:32:38.000Z</time>
      </trkpt>
      <trkpt lat="47.12027" lon="-1.91176">
        <ele>55</ele>
        <time>2021-03-14T13:32:40.000Z</time>
      </trkpt>
      <trkpt lat="47.12036" lon="-1.91186">
        <ele>56</ele>
        <time>2021-03-14T13:32:42.000Z</time>
      </trkpt>
      <trkpt lat="47.12044" lon="-1.91196">
        <ele>56</ele>
        <time>2021-03-14T13:32:44.000Z</time>
      </trkpt>
      <trkpt lat="47.12054" lon="-1.91205">
        <ele>56</ele>
        <time>2021-03-14T13:32:46.000Z</time>
      </trkpt>
      <trkpt lat="47.12063" lon="-1.91213">
        <ele>57</ele>
        <time>2021-03-14T13:32:48.000Z</time>
      </trkpt>
      <trkpt lat="47.12072" lon="-1.91221">
        <ele>57</ele>
        <time>2021-03-14T13:32:50.000Z</time>
      </trkpt>
      <trkpt lat="47.12081" lon="-1.9123">
        <ele>57</ele>
        <time>2021-03-14T13:32:52.000Z</time>
      </trkpt>
      <trkpt lat="47.12089" lon="-1.91239">
        <ele>57</ele>
        <time>2021-03-14T13:32:54.000Z</time>
      </trkpt>
      <trkpt lat="47.12098" lon="-1.91247">
        <ele>57</ele>
        <time>2021-03-14T13:32:56.000Z</time>
      </trkpt>
      <trkpt lat="47.12106" lon="-1.91256">
        <ele>57</ele>
        <time>2021-03-14T13:32:58.000Z</time>
      </trkpt>
      <trkpt lat="47.12114" lon="-1.91265">
        <ele>58</ele>
        <time>2021-03-14T13:33:00.000Z</time>
      </trkpt>
      <trkpt lat="47.12121" lon="-1.91274">
        <ele>58</ele>
        <time>2021-03-14T13:33:02.000Z</time>
      </trkpt>
      <trkpt lat="47.12129" lon="-1.91284">
        <ele>58</ele>
        <time>2021-03-14T13:33:04.000Z</time>
      </trkpt>
      <trkpt lat="47.12137" lon="-1.91294">
        <ele>59</ele>
        <time>2021-03-14T13:33:06.000Z</time>
      </trkpt>
      <trkpt lat="47.12144" lon="-1.91304">
        <ele>59</ele>
        <time>2021-03-14T13:33:08.000Z</time>
      </trkpt>
      <trkpt lat="47.12151" lon="-1.91314">
        <ele>59</ele>
        <time>2021-03-14T13:33:10.000Z</time>
      </trkpt>
      <trkpt lat="47.12158" lon="-1.91324">
        <ele>59</ele>
        <time>2021-03-14T13:33:12.000Z</time>
      </trkpt>
      <trkpt lat="47.12166" lon="-1.91333">
        <ele>59</ele>
        <time>2021-03-14T13:33:14.000Z</time>
      </trkpt>
      <trkpt lat="47.12174" lon="-1.91342">
        <ele>59</ele>
        <time>2021-03-14T13:33:16.000Z</time>
      </trkpt>
      <trkpt lat="47.12181" lon="-1.91352">
        <ele>58</ele>
        <time>2021-03-14T13:33:18.000Z</time>
      </trkpt>
      <trkpt lat="47.12189" lon="-1.91361">
        <ele>59</ele>
        <time>2021-03-14T13:33:20.000Z</time>
      </trkpt>
      <trkpt lat="47.12196" lon="-1.91372">
        <ele>59</ele>
        <time>2021-03-14T13:33:22.000Z</time>
      </trkpt>
      <trkpt lat="47.12204" lon="-1.91382">
        <ele>58</ele>
        <time>2021-03-14T13:33:24.000Z</time>
      </trkpt>
      <trkpt lat="47.12212" lon="-1.91391">
        <ele>58</ele>
        <time>2021-03-14T13:33:26.000Z</time>
      </trkpt>
      <trkpt lat="47.12219" lon="-1.91399">
        <ele>58</ele>
        <time>2021-03-14T13:33:28.000Z</time>
      </trkpt>
      <trkpt lat="47.12228" lon="-1.91407">
        <ele>58</ele>
        <time>2021-03-14T13:33:30.000Z</time>
      </trkpt>
      <trkpt lat="47.12236" lon="-1.91415">
        <ele>58</ele>
        <time>2021-03-14T13:33:32.000Z</time>
      </trkpt>
      <trkpt lat="47.12232" lon="-1.91429">
        <ele>58</ele>
        <time>2021-03-14T13:33:34.000Z</time>
      </trkpt>
      <trkpt lat="47.12226" lon="-1.91441">
        <ele>59</ele>
        <time>2021-03-14T13:33:36.000Z</time>
      </trkpt>
      <trkpt lat="47.12222" lon="-1.91454">
        <ele>59</ele>
        <time>2021-03-14T13:33:38.000Z</time>
      </trkpt>
      <trkpt lat="47.12224" lon="-1.91469">
        <ele>59</ele>
        <time>2021-03-14T13:33:40.000Z</time>
      </trkpt>
      <trkpt lat="47.12227" lon="-1.91483">
        <ele>60</ele>
        <time>2021-03-14T13:33:42.000Z</time>
      </trkpt>
      <trkpt lat="47.1223" lon="-1.91498">
        <ele>59</ele>
        <time>2021-03-14T13:33:44.000Z</time>
      </trkpt>
      <trkpt lat="47.12238" lon="-1.91511">
        <ele>60</ele>
        <time>2021-03-14T13:33:46.000Z</time>
      </trkpt>
      <trkpt lat="47.12245" lon="-1.91523">
        <ele>60</ele>
        <time>2021-03-14T13:33:48.000Z</time>
      </trkpt>
      <trkpt lat="47.12255" lon="-1.91531">
        <ele>60</ele>
        <time>2021-03-14T13:33:50.000Z</time>
      </trkpt>
      <trkpt lat="47.12266" lon="-1.91538">
        <ele>60</ele>
        <time>2021-03-14T13:33:52.000Z</time>
      </trkpt>
      <trkpt lat="47.12278" lon="-1.91542">
        <ele>59</ele>
        <time>2021-03-14T13:33:54.000Z</time>
      </trkpt>
      <trkpt lat="47.12289" lon="-1.91547">
        <ele>59</ele>
        <time>2021-03-14T13:33:56.000Z</time>
      </trkpt>
      <trkpt lat="47.12299" lon="-1.91552">
        <ele>59</ele>
        <time>2021-03-14T13:33:58.000Z</time>
      </trkpt>
      <trkpt lat="47.1231" lon="-1.91559">
        <ele>59</ele>
        <time>2021-03-14T13:34:00.000Z</time>
      </trkpt>
      <trkpt lat="47.1232" lon="-1.91566">
        <ele>59</ele>
        <time>2021-03-14T13:34:02.000Z</time>
      </trkpt>
      <trkpt lat="47.1233" lon="-1.91574">
        <ele>58</ele>
        <time>2021-03-14T13:34:04.000Z</time>
      </trkpt>
      <trkpt lat="47.1234" lon="-1.91581">
        <ele>58</ele>
        <time>2021-03-14T13:34:06.000Z</time>
      </trkpt>
      <trkpt lat="47.12351" lon="-1.91589">
        <ele>58</ele>
        <time>2021-03-14T13:34:08.000Z</time>
      </trkpt>
      <trkpt lat="47.1236" lon="-1.91601">
        <ele>58</ele>
        <time>2021-03-14T13:34:10.000Z</time>
      </trkpt>
      <trkpt lat="47.12368" lon="-1.91611">
        <ele>58</ele>
        <time>2021-03-14T13:34:12.000Z</time>
      </trkpt>
      <trkpt lat="47.12377" lon="-1.91623">
        <ele>58</ele>
        <time>2021-03-14T13:34:14.000Z</time>
      </trkpt>
      <trkpt lat="47.12384" lon="-1.91635">
        <ele>58</ele>
        <time>2021-03-14T13:34:16.000Z</time>
      </trkpt>
      <trkpt lat="47.12392" lon="-1.91646">
        <ele>58</ele>
        <time>2021-03-14T13:34:18.000Z</time>
      </trkpt>
      <trkpt lat="47.12399" lon="-1.91656">
        <ele>58</ele>
        <time>2021-03-14T13:34:20.000Z</time>
      </trkpt>
      <trkpt lat="47.12407" lon="-1.91666">
        <ele>58</ele>
        <time>2021-03-14T13:34:22.000Z</time>
      </trkpt>
      <trkpt lat="47.12416" lon="-1.91676">
        <ele>58</ele>
        <time>2021-03-14T13:34:24.000Z</time>
      </trkpt>
      <trkpt lat="47.12425" lon="-1.91688">
        <ele>59</ele>
        <time>2021-03-14T13:34:26.000Z</time>
      </trkpt>
      <trkpt lat="47.12433" lon="-1.917">
        <ele>59</ele>
        <time>2021-03-14T13:34:28.000Z</time>
      </trkpt>
      <trkpt lat="47.12441" lon="-1.91713">
        <ele>59</ele>
        <time>2021-03-14T13:34:30.000Z</time>
      </trkpt>
      <trkpt lat="47.12448" lon="-1.91725">
        <ele>59</ele>
        <time>2021-03-14T13:34:32.000Z</time>
      </trkpt>
      <trkpt lat="47.12454" lon="-1.91737">
        <ele>59</ele>
        <time>2021-03-14T13:34:34.000Z</time>
      </trkpt>
      <trkpt lat="47.12461" lon="-1.91749">
        <ele>59</ele>
        <time>2021-03-14T13:34:36.000Z</time>
      </trkpt>
      <trkpt lat="47.12468" lon="-1.91762">
        <ele>59</ele>
        <time>2021-03-14T13:34:38.000Z</time>
      </trkpt>
      <trkpt lat="47.12474" lon="-1.91775">
        <ele>60</ele>
        <time>2021-03-14T13:34:40.000Z</time>
      </trkpt>
      <trkpt lat="47.12479" lon="-1.91789">
        <ele>60</ele>
        <time>2021-03-14T13:34:42.000Z</time>
      </trkpt>
      <trkpt lat="47.12484" lon="-1.91803">
        <ele>60</ele>
        <time>2021-03-14T13:34:44.000Z</time>
      </trkpt>
      <trkpt lat="47.12489" lon="-1.91816">
        <ele>60</ele>
        <time>2021-03-14T13:34:46.000Z</time>
      </trkpt>
      <trkpt lat="47.12493" lon="-1.9183">
        <ele>59</ele>
        <time>2021-03-14T13:34:48.000Z</time>
      </trkpt>
      <trkpt lat="47.12499" lon="-1.91844">
        <ele>59</ele>
        <time>2021-03-14T13:34:50.000Z</time>
      </trkpt>
      <trkpt lat="47.12506" lon="-1.91858">
        <ele>59</ele>
        <time>2021-03-14T13:34:52.000Z</time>
      </trkpt>
      <trkpt lat="47.12515" lon="-1.9187">
        <ele>59</ele>
        <time>2021-03-14T13:34:54.000Z</time>
      </trkpt>
      <trkpt lat="47.12525" lon="-1.91881">
        <ele>59</ele>
        <time>2021-03-14T13:34:56.000Z</time>
      </trkpt>
      <trkpt lat="47.12534" lon="-1.91889">
        <ele>59</ele>
        <time>2021-03-14T13:34:58.000Z</time>
      </trkpt>
      <trkpt lat="47.12543" lon="-1.91895">
        <ele>60</ele>
        <time>2021-03-14T13:35:00.000Z</time>
      </trkpt>
      <trkpt lat="47.12552" lon="-1.919">
        <ele>60</ele>
        <time>2021-03-14T13:35:02.000Z</time>
      </trkpt>
      <trkpt lat="47.12562" lon="-1.91905">
        <ele>61</ele>
        <time>2021-03-14T13:35:04.000Z</time>
      </trkpt>
      <trkpt lat="47.12572" lon="-1.9191">
        <ele>61</ele>
        <time>2021-03-14T13:35:06.000Z</time>
      </trkpt>
      <trkpt lat="47.12582" lon="-1.91915">
        <ele>62</ele>
        <time>2021-03-14T13:35:08.000Z</time>
      </trkpt>
      <trkpt lat="47.12592" lon="-1.9192">
        <ele>62</ele>
        <time>2021-03-14T13:35:10.000Z</time>
      </trkpt>
      <trkpt lat="47.12601" lon="-1.91925">
        <ele>63</ele>
        <time>2021-03-14T13:35:12.000Z</time>
      </trkpt>
      <trkpt lat="47.12611" lon="-1.9193">
        <ele>64</ele>
        <time>2021-03-14T13:35:14.000Z</time>
      </trkpt>
      <trkpt lat="47.12621" lon="-1.91936">
        <ele>64</ele>
        <time>2021-03-14T13:35:16.000Z</time>
      </trkpt>
      <trkpt lat="47.12631" lon="-1.91941">
        <ele>65</ele>
        <time>2021-03-14T13:35:18.000Z</time>
      </trkpt>
      <trkpt lat="47.12641" lon="-1.91946">
        <ele>65</ele>
        <time>2021-03-14T13:35:20.000Z</time>
      </trkpt>
      <trkpt lat="47.1265" lon="-1.91952">
        <ele>65</ele>
        <time>2021-03-14T13:35:22.000Z</time>
      </trkpt>
      <trkpt lat="47.12659" lon="-1.91958">
        <ele>65</ele>
        <time>2021-03-14T13:35:24.000Z</time>
      </trkpt>
      <trkpt lat="47.12668" lon="-1.91965">
        <ele>65</ele>
        <time>2021-03-14T13:35:26.000Z</time>
      </trkpt>
      <trkpt lat="47.12676" lon="-1.91975">
        <ele>64</ele>
        <time>2021-03-14T13:35:28.000Z</time>
      </trkpt>
      <trkpt lat="47.12685" lon="-1.91986">
        <ele>63</ele>
        <time>2021-03-14T13:35:30.000Z</time>
      </trkpt>
      <trkpt lat="47.12692" lon="-1.92001">
        <ele>63</ele>
        <time>2021-03-14T13:35:32.000Z</time>
      </trkpt>
      <trkpt lat="47.12698" lon="-1.92018">
        <ele>62</ele>
        <time>2021-03-14T13:35:34.000Z</time>
      </trkpt>
      <trkpt lat="47.12701" lon="-1.92039">
        <ele>62</ele>
        <time>2021-03-14T13:35:36.000Z</time>
      </trkpt>
      <trkpt lat="47.12702" lon="-1.92059">
        <ele>62</ele>
        <time>2021-03-14T13:35:38.000Z</time>
      </trkpt>
      <trkpt lat="47.12706" lon="-1.92078">
        <ele>61</ele>
        <time>2021-03-14T13:35:40.000Z</time>
      </trkpt>
      <trkpt lat="47.12711" lon="-1.92095">
        <ele>61</ele>
        <time>2021-03-14T13:35:42.000Z</time>
      </trkpt>
      <trkpt lat="47.12713" lon="-1.92112">
        <ele>62</ele>
        <time>2021-03-14T13:35:44.000Z</time>
      </trkpt>
      <trkpt lat="47.12715" lon="-1.92128">
        <ele>62</ele>
        <time>2021-03-14T13:35:46.000Z</time>
      </trkpt>
      <trkpt lat="47.12719" lon="-1.92141">
        <ele>62</ele>
        <time>2021-03-14T13:35:48.000Z</time>
      </trkpt>
      <trkpt lat="47.12725" lon="-1.92155">
        <ele>61</ele>
        <time>2021-03-14T13:35:50.000Z</time>
      </trkpt>
      <trkpt lat="47.1273" lon="-1.92168">
        <ele>61</ele>
        <time>2021-03-14T13:35:52.000Z</time>
      </trkpt>
      <trkpt lat="47.12736" lon="-1.9218">
        <ele>61</ele>
        <time>2021-03-14T13:35:54.000Z</time>
      </trkpt>
      <trkpt lat="47.12741" lon="-1.92192">
        <ele>62</ele>
        <time>2021-03-14T13:35:56.000Z</time>
      </trkpt>
      <trkpt lat="47.12747" lon="-1.92203">
        <ele>62</ele>
        <time>2021-03-14T13:35:58.000Z</time>
      </trkpt>
      <trkpt lat="47.12757" lon="-1.92214">
        <ele>61</ele>
        <time>2021-03-14T13:36:01.000Z</time>
      </trkpt>
      <trkpt lat="47.12764" lon="-1.92229">
        <ele>62</ele>
        <time>2021-03-14T13:36:04.000Z</time>
      </trkpt>
      <trkpt lat="47.12763" lon="-1.92243">
        <ele>61</ele>
        <time>2021-03-14T13:36:06.000Z</time>
      </trkpt>
      <trkpt lat="47.12769" lon="-1.92256">
        <ele>60</ele>
        <time>2021-03-14T13:36:08.000Z</time>
      </trkpt>
      <trkpt lat="47.12774" lon="-1.92269">
        <ele>60</ele>
        <time>2021-03-14T13:36:10.000Z</time>
      </trkpt>
      <trkpt lat="47.1278" lon="-1.9228">
        <ele>60</ele>
        <time>2021-03-14T13:36:12.000Z</time>
      </trkpt>
      <trkpt lat="47.12785" lon="-1.92292">
        <ele>60</ele>
        <time>2021-03-14T13:36:14.000Z</time>
      </trkpt>
      <trkpt lat="47.12791" lon="-1.92304">
        <ele>60</ele>
        <time>2021-03-14T13:36:16.000Z</time>
      </trkpt>
      <trkpt lat="47.12797" lon="-1.92316">
        <ele>60</ele>
        <time>2021-03-14T13:36:18.000Z</time>
      </trkpt>
      <trkpt lat="47.12803" lon="-1.92329">
        <ele>60</ele>
        <time>2021-03-14T13:36:20.000Z</time>
      </trkpt>
      <trkpt lat="47.1281" lon="-1.92342">
        <ele>60</ele>
        <time>2021-03-14T13:36:22.000Z</time>
      </trkpt>
      <trkpt lat="47.12817" lon="-1.92354">
        <ele>60</ele>
        <time>2021-03-14T13:36:24.000Z</time>
      </trkpt>
      <trkpt lat="47.12824" lon="-1.92365">
        <ele>60</ele>
        <time>2021-03-14T13:36:26.000Z</time>
      </trkpt>
      <trkpt lat="47.12831" lon="-1.92377">
        <ele>60</ele>
        <time>2021-03-14T13:36:28.000Z</time>
      </trkpt>
      <trkpt lat="47.12839" lon="-1.92389">
        <ele>60</ele>
        <time>2021-03-14T13:36:30.000Z</time>
      </trkpt>
      <trkpt lat="47.12847" lon="-1.92401">
        <ele>60</ele>
        <time>2021-03-14T13:36:32.000Z</time>
      </trkpt>
      <trkpt lat="47.12855" lon="-1.92412">
        <ele>59</ele>
        <time>2021-03-14T13:36:34.000Z</time>
      </trkpt>
      <trkpt lat="47.12864" lon="-1.92422">
        <ele>59</ele>
        <time>2021-03-14T13:36:36.000Z</time>
      </trkpt>
      <trkpt lat="47.12873" lon="-1.92432">
        <ele>60</ele>
        <time>2021-03-14T13:36:38.000Z</time>
      </trkpt>
      <trkpt lat="47.12882" lon="-1.92442">
        <ele>60</ele>
        <time>2021-03-14T13:36:40.000Z</time>
      </trkpt>
      <trkpt lat="47.12891" lon="-1.92452">
        <ele>59</ele>
        <time>2021-03-14T13:36:42.000Z</time>
      </trkpt>
      <trkpt lat="47.129" lon="-1.92462">
        <ele>59</ele>
        <time>2021-03-14T13:36:44.000Z</time>
      </trkpt>
      <trkpt lat="47.1291" lon="-1.92471">
        <ele>59</ele>
        <time>2021-03-14T13:36:46.000Z</time>
      </trkpt>
      <trkpt lat="47.12918" lon="-1.92481">
        <ele>59</ele>
        <time>2021-03-14T13:36:48.000Z</time>
      </trkpt>
      <trkpt lat="47.12927" lon="-1.92491">
        <ele>59</ele>
        <time>2021-03-14T13:36:50.000Z</time>
      </trkpt>
      <trkpt lat="47.12936" lon="-1.92501">
        <ele>59</ele>
        <time>2021-03-14T13:36:52.000Z</time>
      </trkpt>
      <trkpt lat="47.12944" lon="-1.92511">
        <ele>59</ele>
        <time>2021-03-14T13:36:54.000Z</time>
      </trkpt>
      <trkpt lat="47.12952" lon="-1.92523">
        <ele>60</ele>
        <time>2021-03-14T13:36:56.000Z</time>
      </trkpt>
      <trkpt lat="47.1296" lon="-1.92536">
        <ele>60</ele>
        <time>2021-03-14T13:36:58.000Z</time>
      </trkpt>
      <trkpt lat="47.12966" lon="-1.9255">
        <ele>60</ele>
        <time>2021-03-14T13:37:00.000Z</time>
      </trkpt>
      <trkpt lat="47.12971" lon="-1.92564">
        <ele>59</ele>
        <time>2021-03-14T13:37:02.000Z</time>
      </trkpt>
      <trkpt lat="47.12976" lon="-1.92579">
        <ele>59</ele>
        <time>2021-03-14T13:37:04.000Z</time>
      </trkpt>
      <trkpt lat="47.12981" lon="-1.92595">
        <ele>59</ele>
        <time>2021-03-14T13:37:06.000Z</time>
      </trkpt>
      <trkpt lat="47.12986" lon="-1.92611">
        <ele>59</ele>
        <time>2021-03-14T13:37:08.000Z</time>
      </trkpt>
      <trkpt lat="47.12992" lon="-1.92626">
        <ele>58</ele>
        <time>2021-03-14T13:37:10.000Z</time>
      </trkpt>
      <trkpt lat="47.12997" lon="-1.92641">
        <ele>58</ele>
        <time>2021-03-14T13:37:12.000Z</time>
      </trkpt>
      <trkpt lat="47.13005" lon="-1.92653">
        <ele>58</ele>
        <time>2021-03-14T13:37:14.000Z</time>
      </trkpt>
      <trkpt lat="47.13012" lon="-1.92665">
        <ele>58</ele>
        <time>2021-03-14T13:37:16.000Z</time>
      </trkpt>
      <trkpt lat="47.13021" lon="-1.92677">
        <ele>58</ele>
        <time>2021-03-14T13:37:18.000Z</time>
      </trkpt>
      <trkpt lat="47.13028" lon="-1.92688">
        <ele>58</ele>
        <time>2021-03-14T13:37:20.000Z</time>
      </trkpt>
      <trkpt lat="47.13035" lon="-1.92699">
        <ele>58</ele>
        <time>2021-03-14T13:37:22.000Z</time>
      </trkpt>
      <trkpt lat="47.13042" lon="-1.9271">
        <ele>58</ele>
        <time>2021-03-14T13:37:24.000Z</time>
      </trkpt>
      <trkpt lat="47.13049" lon="-1.92722">
        <ele>59</ele>
        <time>2021-03-14T13:37:26.000Z</time>
      </trkpt>
      <trkpt lat="47.13056" lon="-1.92735">
        <ele>59</ele>
        <time>2021-03-14T13:37:28.000Z</time>
      </trkpt>
      <trkpt lat="47.13061" lon="-1.92747">
        <ele>59</ele>
        <time>2021-03-14T13:37:30.000Z</time>
      </trkpt>
      <trkpt lat="47.13066" lon="-1.92761">
        <ele>59</ele>
        <time>2021-03-14T13:37:32.000Z</time>
      </trkpt>
      <trkpt lat="47.1307" lon="-1.92775">
        <ele>59</ele>
        <time>2021-03-14T13:37:34.000Z</time>
      </trkpt>
      <trkpt lat="47.13074" lon="-1.9279">
        <ele>59</ele>
        <time>2021-03-14T13:37:36.000Z</time>
      </trkpt>
      <trkpt lat="47.13079" lon="-1.92803">
        <ele>59</ele>
        <time>2021-03-14T13:37:38.000Z</time>
      </trkpt>
      <trkpt lat="47.13083" lon="-1.92817">
        <ele>59</ele>
        <time>2021-03-14T13:37:40.000Z</time>
      </trkpt>
      <trkpt lat="47.13087" lon="-1.92833">
        <ele>60</ele>
        <time>2021-03-14T13:37:42.000Z</time>
      </trkpt>
      <trkpt lat="47.13091" lon="-1.92848">
        <ele>60</ele>
        <time>2021-03-14T13:37:44.000Z</time>
      </trkpt>
      <trkpt lat="47.13095" lon="-1.92863">
        <ele>60</ele>
        <time>2021-03-14T13:37:46.000Z</time>
      </trkpt>
      <trkpt lat="47.13099" lon="-1.92877">
        <ele>60</ele>
        <time>2021-03-14T13:37:48.000Z</time>
      </trkpt>
      <trkpt lat="47.13102" lon="-1.92891">
        <ele>60</ele>
        <time>2021-03-14T13:37:50.000Z</time>
      </trkpt>
      <trkpt lat="47.13106" lon="-1.92905">
        <ele>60</ele>
        <time>2021-03-14T13:37:52.000Z</time>
      </trkpt>
      <trkpt lat="47.1311" lon="-1.92918">
        <ele>60</ele>
        <time>2021-03-14T13:37:54.000Z</time>
      </trkpt>
      <trkpt lat="47.13114" lon="-1.92932">
        <ele>60</ele>
        <time>2021-03-14T13:37:56.000Z</time>
      </trkpt>
      <trkpt lat="47.13118" lon="-1.92946">
        <ele>60</ele>
        <time>2021-03-14T13:37:58.000Z</time>
      </trkpt>
      <trkpt lat="47.13121" lon="-1.9296">
        <ele>60</ele>
        <time>2021-03-14T13:38:00.000Z</time>
      </trkpt>
      <trkpt lat="47.13125" lon="-1.92974">
        <ele>60</ele>
        <time>2021-03-14T13:38:02.000Z</time>
      </trkpt>
      <trkpt lat="47.13129" lon="-1.92988">
        <ele>61</ele>
        <time>2021-03-14T13:38:04.000Z</time>
      </trkpt>
      <trkpt lat="47.13133" lon="-1.93001">
        <ele>60</ele>
        <time>2021-03-14T13:38:06.000Z</time>
      </trkpt>
      <trkpt lat="47.13137" lon="-1.93014">
        <ele>60</ele>
        <time>2021-03-14T13:38:08.000Z</time>
      </trkpt>
      <trkpt lat="47.1314" lon="-1.93028">
        <ele>60</ele>
        <time>2021-03-14T13:38:10.000Z</time>
      </trkpt>
      <trkpt lat="47.13143" lon="-1.93042">
        <ele>60</ele>
        <time>2021-03-14T13:38:12.000Z</time>
      </trkpt>
      <trkpt lat="47.13146" lon="-1.93056">
        <ele>60</ele>
        <time>2021-03-14T13:38:14.000Z</time>
      </trkpt>
      <trkpt lat="47.13149" lon="-1.9307">
        <ele>60</ele>
        <time>2021-03-14T13:38:16.000Z</time>
      </trkpt>
      <trkpt lat="47.13152" lon="-1.93084">
        <ele>60</ele>
        <time>2021-03-14T13:38:18.000Z</time>
      </trkpt>
      <trkpt lat="47.13155" lon="-1.93098">
        <ele>60</ele>
        <time>2021-03-14T13:38:20.000Z</time>
      </trkpt>
      <trkpt lat="47.13158" lon="-1.93113">
        <ele>59</ele>
        <time>2021-03-14T13:38:22.000Z</time>
      </trkpt>
      <trkpt lat="47.1316" lon="-1.93127">
        <ele>59</ele>
        <time>2021-03-14T13:38:24.000Z</time>
      </trkpt>
      <trkpt lat="47.13163" lon="-1.93142">
        <ele>60</ele>
        <time>2021-03-14T13:38:26.000Z</time>
      </trkpt>
      <trkpt lat="47.13166" lon="-1.93157">
        <ele>60</ele>
        <time>2021-03-14T13:38:28.000Z</time>
      </trkpt>
      <trkpt lat="47.13169" lon="-1.93173">
        <ele>60</ele>
        <time>2021-03-14T13:38:30.000Z</time>
      </trkpt>
      <trkpt lat="47.13172" lon="-1.93188">
        <ele>59</ele>
        <time>2021-03-14T13:38:32.000Z</time>
      </trkpt>
      <trkpt lat="47.13175" lon="-1.93203">
        <ele>59</ele>
        <time>2021-03-14T13:38:34.000Z</time>
      </trkpt>
      <trkpt lat="47.13179" lon="-1.93219">
        <ele>59</ele>
        <time>2021-03-14T13:38:36.000Z</time>
      </trkpt>
      <trkpt lat="47.13183" lon="-1.93235">
        <ele>59</ele>
        <time>2021-03-14T13:38:38.000Z</time>
      </trkpt>
      <trkpt lat="47.13188" lon="-1.9325">
        <ele>59</ele>
        <time>2021-03-14T13:38:40.000Z</time>
      </trkpt>
      <trkpt lat="47.13193" lon="-1.93266">
        <ele>59</ele>
        <time>2021-03-14T13:38:42.000Z</time>
      </trkpt>
      <trkpt lat="47.13198" lon="-1.93282">
        <ele>59</ele>
        <time>2021-03-14T13:38:44.000Z</time>
      </trkpt>
      <trkpt lat="47.13204" lon="-1.93298">
        <ele>59</ele>
        <time>2021-03-14T13:38:46.000Z</time>
      </trkpt>
      <trkpt lat="47.1321" lon="-1.93314">
        <ele>59</ele>
        <time>2021-03-14T13:38:48.000Z</time>
      </trkpt>
      <trkpt lat="47.13217" lon="-1.93329">
        <ele>59</ele>
        <time>2021-03-14T13:38:50.000Z</time>
      </trkpt>
      <trkpt lat="47.13223" lon="-1.93344">
        <ele>59</ele>
        <time>2021-03-14T13:38:52.000Z</time>
      </trkpt>
      <trkpt lat="47.13229" lon="-1.93359">
        <ele>59</ele>
        <time>2021-03-14T13:38:54.000Z</time>
      </trkpt>
      <trkpt lat="47.13234" lon="-1.93376">
        <ele>59</ele>
        <time>2021-03-14T13:38:56.000Z</time>
      </trkpt>
      <trkpt lat="47.13239" lon="-1.93395">
        <ele>59</ele>
        <time>2021-03-14T13:38:58.000Z</time>
      </trkpt>
      <trkpt lat="47.13243" lon="-1.93412">
        <ele>58</ele>
        <time>2021-03-14T13:39:00.000Z</time>
      </trkpt>
      <trkpt lat="47.13247" lon="-1.93429">
        <ele>58</ele>
        <time>2021-03-14T13:39:02.000Z</time>
      </trkpt>
      <trkpt lat="47.13251" lon="-1.93447">
        <ele>58</ele>
        <time>2021-03-14T13:39:04.000Z</time>
      </trkpt>
      <trkpt lat="47.13255" lon="-1.93464">
        <ele>58</ele>
        <time>2021-03-14T13:39:06.000Z</time>
      </trkpt>
      <trkpt lat="47.13258" lon="-1.9348">
        <ele>58</ele>
        <time>2021-03-14T13:39:08.000Z</time>
      </trkpt>
      <trkpt lat="47.13261" lon="-1.93497">
        <ele>58</ele>
        <time>2021-03-14T13:39:10.000Z</time>
      </trkpt>
      <trkpt lat="47.13264" lon="-1.93514">
        <ele>57</ele>
        <time>2021-03-14T13:39:12.000Z</time>
      </trkpt>
      <trkpt lat="47.13267" lon="-1.93529">
        <ele>57</ele>
        <time>2021-03-14T13:39:14.000Z</time>
      </trkpt>
      <trkpt lat="47.1327" lon="-1.93545">
        <ele>58</ele>
        <time>2021-03-14T13:39:16.000Z</time>
      </trkpt>
      <trkpt lat="47.13273" lon="-1.9356">
        <ele>57</ele>
        <time>2021-03-14T13:39:18.000Z</time>
      </trkpt>
      <trkpt lat="47.13276" lon="-1.93577">
        <ele>57</ele>
        <time>2021-03-14T13:39:20.000Z</time>
      </trkpt>
      <trkpt lat="47.13279" lon="-1.93592">
        <ele>57</ele>
        <time>2021-03-14T13:39:22.000Z</time>
      </trkpt>
      <trkpt lat="47.13282" lon="-1.93608">
        <ele>57</ele>
        <time>2021-03-14T13:39:24.000Z</time>
      </trkpt>
      <trkpt lat="47.13285" lon="-1.93623">
        <ele>57</ele>
        <time>2021-03-14T13:39:26.000Z</time>
      </trkpt>
      <trkpt lat="47.13289" lon="-1.93638">
        <ele>57</ele>
        <time>2021-03-14T13:39:28.000Z</time>
      </trkpt>
      <trkpt lat="47.13292" lon="-1.93654">
        <ele>57</ele>
        <time>2021-03-14T13:39:30.000Z</time>
      </trkpt>
      <trkpt lat="47.13295" lon="-1.9367">
        <ele>57</ele>
        <time>2021-03-14T13:39:32.000Z</time>
      </trkpt>
      <trkpt lat="47.13298" lon="-1.93686">
        <ele>57</ele>
        <time>2021-03-14T13:39:34.000Z</time>
      </trkpt>
      <trkpt lat="47.13302" lon="-1.93701">
        <ele>57</ele>
        <time>2021-03-14T13:39:36.000Z</time>
      </trkpt>
      <trkpt lat="47.13305" lon="-1.93716">
        <ele>57</ele>
        <time>2021-03-14T13:39:38.000Z</time>
      </trkpt>
      <trkpt lat="47.13308" lon="-1.93729">
        <ele>57</ele>
        <time>2021-03-14T13:39:40.000Z</time>
      </trkpt>
      <trkpt lat="47.13311" lon="-1.93744">
        <ele>56</ele>
        <time>2021-03-14T13:39:42.000Z</time>
      </trkpt>
      <trkpt lat="47.13312" lon="-1.93759">
        <ele>57</ele>
        <time>2021-03-14T13:39:44.000Z</time>
      </trkpt>
      <trkpt lat="47.13313" lon="-1.93775">
        <ele>56</ele>
        <time>2021-03-14T13:39:46.000Z</time>
      </trkpt>
      <trkpt lat="47.13314" lon="-1.9379">
        <ele>56</ele>
        <time>2021-03-14T13:39:48.000Z</time>
      </trkpt>
      <trkpt lat="47.13314" lon="-1.93806">
        <ele>56</ele>
        <time>2021-03-14T13:39:50.000Z</time>
      </trkpt>
      <trkpt lat="47.13312" lon="-1.93821">
        <ele>57</ele>
        <time>2021-03-14T13:39:52.000Z</time>
      </trkpt>
      <trkpt lat="47.13311" lon="-1.93836">
        <ele>56</ele>
        <time>2021-03-14T13:39:54.000Z</time>
      </trkpt>
      <trkpt lat="47.1331" lon="-1.93851">
        <ele>56</ele>
        <time>2021-03-14T13:39:56.000Z</time>
      </trkpt>
      <trkpt lat="47.13308" lon="-1.93867">
        <ele>56</ele>
        <time>2021-03-14T13:39:58.000Z</time>
      </trkpt>
      <trkpt lat="47.13306" lon="-1.93882">
        <ele>56</ele>
        <time>2021-03-14T13:40:00.000Z</time>
      </trkpt>
      <trkpt lat="47.13304" lon="-1.93898">
        <ele>56</ele>
        <time>2021-03-14T13:40:02.000Z</time>
      </trkpt>
      <trkpt lat="47.13301" lon="-1.93912">
        <ele>57</ele>
        <time>2021-03-14T13:40:04.000Z</time>
      </trkpt>
      <trkpt lat="47.13296" lon="-1.93926">
        <ele>57</ele>
        <time>2021-03-14T13:40:06.000Z</time>
      </trkpt>
      <trkpt lat="47.13292" lon="-1.93939">
        <ele>57</ele>
        <time>2021-03-14T13:40:08.000Z</time>
      </trkpt>
      <trkpt lat="47.13288" lon="-1.93952">
        <ele>57</ele>
        <time>2021-03-14T13:40:10.000Z</time>
      </trkpt>
      <trkpt lat="47.13286" lon="-1.93965">
        <ele>57</ele>
        <time>2021-03-14T13:40:12.000Z</time>
      </trkpt>
      <trkpt lat="47.13294" lon="-1.93978">
        <ele>57</ele>
        <time>2021-03-14T13:40:15.000Z</time>
      </trkpt>
      <trkpt lat="47.13304" lon="-1.9398">
        <ele>57</ele>
        <time>2021-03-14T13:40:17.000Z</time>
      </trkpt>
      <trkpt lat="47.13315" lon="-1.93983">
        <ele>56</ele>
        <time>2021-03-14T13:40:19.000Z</time>
      </trkpt>
      <trkpt lat="47.13325" lon="-1.93986">
        <ele>56</ele>
        <time>2021-03-14T13:40:21.000Z</time>
      </trkpt>
      <trkpt lat="47.13336" lon="-1.93992">
        <ele>56</ele>
        <time>2021-03-14T13:40:23.000Z</time>
      </trkpt>
      <trkpt lat="47.13347" lon="-1.94">
        <ele>56</ele>
        <time>2021-03-14T13:40:25.000Z</time>
      </trkpt>
      <trkpt lat="47.13356" lon="-1.94009">
        <ele>56</ele>
        <time>2021-03-14T13:40:27.000Z</time>
      </trkpt>
      <trkpt lat="47.13364" lon="-1.94018">
        <ele>57</ele>
        <time>2021-03-14T13:40:29.000Z</time>
      </trkpt>
      <trkpt lat="47.13372" lon="-1.94028">
        <ele>57</ele>
        <time>2021-03-14T13:40:31.000Z</time>
      </trkpt>
      <trkpt lat="47.1338" lon="-1.94039">
        <ele>57</ele>
        <time>2021-03-14T13:40:33.000Z</time>
      </trkpt>
      <trkpt lat="47.13387" lon="-1.94049">
        <ele>57</ele>
        <time>2021-03-14T13:40:35.000Z</time>
      </trkpt>
      <trkpt lat="47.13395" lon="-1.9406">
        <ele>57</ele>
        <time>2021-03-14T13:40:37.000Z</time>
      </trkpt>
      <trkpt lat="47.13403" lon="-1.9407">
        <ele>57</ele>
        <time>2021-03-14T13:40:39.000Z</time>
      </trkpt>
      <trkpt lat="47.13411" lon="-1.9408">
        <ele>57</ele>
        <time>2021-03-14T13:40:41.000Z</time>
      </trkpt>
      <trkpt lat="47.13419" lon="-1.9409">
        <ele>58</ele>
        <time>2021-03-14T13:40:43.000Z</time>
      </trkpt>
      <trkpt lat="47.13427" lon="-1.941">
        <ele>58</ele>
        <time>2021-03-14T13:40:45.000Z</time>
      </trkpt>
      <trkpt lat="47.13435" lon="-1.94109">
        <ele>58</ele>
        <time>2021-03-14T13:40:47.000Z</time>
      </trkpt>
      <trkpt lat="47.13443" lon="-1.94119">
        <ele>58</ele>
        <time>2021-03-14T13:40:49.000Z</time>
      </trkpt>
      <trkpt lat="47.13451" lon="-1.94129">
        <ele>58</ele>
        <time>2021-03-14T13:40:51.000Z</time>
      </trkpt>
      <trkpt lat="47.13459" lon="-1.94138">
        <ele>58</ele>
        <time>2021-03-14T13:40:53.000Z</time>
      </trkpt>
      <trkpt lat="47.13467" lon="-1.94149">
        <ele>58</ele>
        <time>2021-03-14T13:40:55.000Z</time>
      </trkpt>
      <trkpt lat="47.13476" lon="-1.94158">
        <ele>58</ele>
        <time>2021-03-14T13:40:57.000Z</time>
      </trkpt>
      <trkpt lat="47.13484" lon="-1.94168">
        <ele>58</ele>
        <time>2021-03-14T13:40:59.000Z</time>
      </trkpt>
      <trkpt lat="47.13492" lon="-1.94178">
        <ele>58</ele>
        <time>2021-03-14T13:41:01.000Z</time>
      </trkpt>
      <trkpt lat="47.135" lon="-1.94188">
        <ele>58</ele>
        <time>2021-03-14T13:41:03.000Z</time>
      </trkpt>
      <trkpt lat="47.13509" lon="-1.94198">
        <ele>58</ele>
        <time>2021-03-14T13:41:05.000Z</time>
      </trkpt>
      <trkpt lat="47.13517" lon="-1.94208">
        <ele>58</ele>
        <time>2021-03-14T13:41:07.000Z</time>
      </trkpt>
      <trkpt lat="47.13525" lon="-1.94218">
        <ele>57</ele>
        <time>2021-03-14T13:41:09.000Z</time>
      </trkpt>
      <trkpt lat="47.13534" lon="-1.94228">
        <ele>57</ele>
        <time>2021-03-14T13:41:11.000Z</time>
      </trkpt>
      <trkpt lat="47.13542" lon="-1.94239">
        <ele>57</ele>
        <time>2021-03-14T13:41:13.000Z</time>
      </trkpt>
      <trkpt lat="47.13551" lon="-1.9425">
        <ele>56</ele>
        <time>2021-03-14T13:41:15.000Z</time>
      </trkpt>
      <trkpt lat="47.13565" lon="-1.94266">
        <ele>56</ele>
        <time>2021-03-14T13:41:18.000Z</time>
      </trkpt>
      <trkpt lat="47.13573" lon="-1.94277">
        <ele>56</ele>
        <time>2021-03-14T13:41:20.000Z</time>
      </trkpt>
      <trkpt lat="47.13582" lon="-1.94288">
        <ele>56</ele>
        <time>2021-03-14T13:41:22.000Z</time>
      </trkpt>
      <trkpt lat="47.13591" lon="-1.94298">
        <ele>56</ele>
        <time>2021-03-14T13:41:24.000Z</time>
      </trkpt>
      <trkpt lat="47.136" lon="-1.94309">
        <ele>56</ele>
        <time>2021-03-14T13:41:26.000Z</time>
      </trkpt>
      <trkpt lat="47.13609" lon="-1.9432">
        <ele>56</ele>
        <time>2021-03-14T13:41:28.000Z</time>
      </trkpt>
      <trkpt lat="47.13618" lon="-1.94332">
        <ele>55</ele>
        <time>2021-03-14T13:41:30.000Z</time>
      </trkpt>
      <trkpt lat="47.13627" lon="-1.94343">
        <ele>55</ele>
        <time>2021-03-14T13:41:32.000Z</time>
      </trkpt>
      <trkpt lat="47.13636" lon="-1.94355">
        <ele>55</ele>
        <time>2021-03-14T13:41:34.000Z</time>
      </trkpt>
      <trkpt lat="47.13645" lon="-1.94366">
        <ele>55</ele>
        <time>2021-03-14T13:41:36.000Z</time>
      </trkpt>
      <trkpt lat="47.13654" lon="-1.94378">
        <ele>55</ele>
        <time>2021-03-14T13:41:38.000Z</time>
      </trkpt>
      <trkpt lat="47.13663" lon="-1.94389">
        <ele>56</ele>
        <time>2021-03-14T13:41:40.000Z</time>
      </trkpt>
      <trkpt lat="47.13672" lon="-1.944">
        <ele>55</ele>
        <time>2021-03-14T13:41:42.000Z</time>
      </trkpt>
      <trkpt lat="47.13681" lon="-1.9441">
        <ele>56</ele>
        <time>2021-03-14T13:41:44.000Z</time>
      </trkpt>
      <trkpt lat="47.1369" lon="-1.94421">
        <ele>56</ele>
        <time>2021-03-14T13:41:46.000Z</time>
      </trkpt>
      <trkpt lat="47.13699" lon="-1.94431">
        <ele>56</ele>
        <time>2021-03-14T13:41:48.000Z</time>
      </trkpt>
      <trkpt lat="47.13708" lon="-1.94441">
        <ele>56</ele>
        <time>2021-03-14T13:41:50.000Z</time>
      </trkpt>
      <trkpt lat="47.13718" lon="-1.94449">
        <ele>56</ele>
        <time>2021-03-14T13:41:52.000Z</time>
      </trkpt>
      <trkpt lat="47.13729" lon="-1.94454">
        <ele>56</ele>
        <time>2021-03-14T13:41:54.000Z</time>
      </trkpt>
      <trkpt lat="47.1374" lon="-1.94456">
        <ele>56</ele>
        <time>2021-03-14T13:41:56.000Z</time>
      </trkpt>
      <trkpt lat="47.13752" lon="-1.94454">
        <ele>56</ele>
        <time>2021-03-14T13:41:58.000Z</time>
      </trkpt>
      <trkpt lat="47.13763" lon="-1.94451">
        <ele>56</ele>
        <time>2021-03-14T13:42:00.000Z</time>
      </trkpt>
      <trkpt lat="47.13774" lon="-1.94447">
        <ele>56</ele>
        <time>2021-03-14T13:42:02.000Z</time>
      </trkpt>
      <trkpt lat="47.13785" lon="-1.94444">
        <ele>55</ele>
        <time>2021-03-14T13:42:04.000Z</time>
      </trkpt>
      <trkpt lat="47.13796" lon="-1.94441">
        <ele>55</ele>
        <time>2021-03-14T13:42:06.000Z</time>
      </trkpt>
      <trkpt lat="47.13808" lon="-1.94438">
        <ele>55</ele>
        <time>2021-03-14T13:42:08.000Z</time>
      </trkpt>
      <trkpt lat="47.13825" lon="-1.94434">
        <ele>55</ele>
        <time>2021-03-14T13:42:11.000Z</time>
      </trkpt>
      <trkpt lat="47.13841" lon="-1.94429">
        <ele>55</ele>
        <time>2021-03-14T13:42:14.000Z</time>
      </trkpt>
      <trkpt lat="47.13851" lon="-1.94427">
        <ele>55</ele>
        <time>2021-03-14T13:42:16.000Z</time>
      </trkpt>
      <trkpt lat="47.13862" lon="-1.94424">
        <ele>56</ele>
        <time>2021-03-14T13:42:18.000Z</time>
      </trkpt>
      <trkpt lat="47.13872" lon="-1.94422">
        <ele>56</ele>
        <time>2021-03-14T13:42:20.000Z</time>
      </trkpt>
      <trkpt lat="47.13887" lon="-1.94417">
        <ele>57</ele>
        <time>2021-03-14T13:42:23.000Z</time>
      </trkpt>
      <trkpt lat="47.13898" lon="-1.94414">
        <ele>58</ele>
        <time>2021-03-14T13:42:25.000Z</time>
      </trkpt>
      <trkpt lat="47.13908" lon="-1.94411">
        <ele>58</ele>
        <time>2021-03-14T13:42:27.000Z</time>
      </trkpt>
      <trkpt lat="47.13919" lon="-1.94409">
        <ele>59</ele>
        <time>2021-03-14T13:42:29.000Z</time>
      </trkpt>
      <trkpt lat="47.13935" lon="-1.94405">
        <ele>60</ele>
        <time>2021-03-14T13:42:32.000Z</time>
      </trkpt>
      <trkpt lat="47.13944" lon="-1.94403">
        <ele>60</ele>
        <time>2021-03-14T13:42:34.000Z</time>
      </trkpt>
      <trkpt lat="47.13961" lon="-1.94398">
        <ele>61</ele>
        <time>2021-03-14T13:42:37.000Z</time>
      </trkpt>
      <trkpt lat="47.13972" lon="-1.94395">
        <ele>62</ele>
        <time>2021-03-14T13:42:39.000Z</time>
      </trkpt>
      <trkpt lat="47.13983" lon="-1.94393">
        <ele>62</ele>
        <time>2021-03-14T13:42:41.000Z</time>
      </trkpt>
      <trkpt lat="47.13993" lon="-1.94391">
        <ele>63</ele>
        <time>2021-03-14T13:42:43.000Z</time>
      </trkpt>
      <trkpt lat="47.14003" lon="-1.94389">
        <ele>63</ele>
        <time>2021-03-14T13:42:45.000Z</time>
      </trkpt>
      <trkpt lat="47.14013" lon="-1.94386">
        <ele>63</ele>
        <time>2021-03-14T13:42:47.000Z</time>
      </trkpt>
      <trkpt lat="47.14024" lon="-1.94384">
        <ele>63</ele>
        <time>2021-03-14T13:42:49.000Z</time>
      </trkpt>
      <trkpt lat="47.14034" lon="-1.94381">
        <ele>63</ele>
        <time>2021-03-14T13:42:51.000Z</time>
      </trkpt>
      <trkpt lat="47.14044" lon="-1.94378">
        <ele>63</ele>
        <time>2021-03-14T13:42:53.000Z</time>
      </trkpt>
      <trkpt lat="47.14054" lon="-1.94376">
        <ele>63</ele>
        <time>2021-03-14T13:42:55.000Z</time>
      </trkpt>
      <trkpt lat="47.14064" lon="-1.94374">
        <ele>63</ele>
        <time>2021-03-14T13:42:57.000Z</time>
      </trkpt>
      <trkpt lat="47.14074" lon="-1.94371">
        <ele>64</ele>
        <time>2021-03-14T13:42:59.000Z</time>
      </trkpt>
      <trkpt lat="47.14084" lon="-1.94369">
        <ele>64</ele>
        <time>2021-03-14T13:43:01.000Z</time>
      </trkpt>
      <trkpt lat="47.14094" lon="-1.94366">
        <ele>64</ele>
        <time>2021-03-14T13:43:03.000Z</time>
      </trkpt>
      <trkpt lat="47.14104" lon="-1.94363">
        <ele>64</ele>
        <time>2021-03-14T13:43:05.000Z</time>
      </trkpt>
      <trkpt lat="47.14114" lon="-1.94361">
        <ele>64</ele>
        <time>2021-03-14T13:43:07.000Z</time>
      </trkpt>
      <trkpt lat="47.14125" lon="-1.94358">
        <ele>65</ele>
        <time>2021-03-14T13:43:09.000Z</time>
      </trkpt>
      <trkpt lat="47.1414" lon="-1.94355">
        <ele>65</ele>
        <time>2021-03-14T13:43:12.000Z</time>
      </trkpt>
      <trkpt lat="47.14151" lon="-1.94353">
        <ele>65</ele>
        <time>2021-03-14T13:43:14.000Z</time>
      </trkpt>
      <trkpt lat="47.14161" lon="-1.9435">
        <ele>65</ele>
        <time>2021-03-14T13:43:16.000Z</time>
      </trkpt>
      <trkpt lat="47.14173" lon="-1.94347">
        <ele>66</ele>
        <time>2021-03-14T13:43:18.000Z</time>
      </trkpt>
      <trkpt lat="47.14183" lon="-1.94344">
        <ele>66</ele>
        <time>2021-03-14T13:43:20.000Z</time>
      </trkpt>
      <trkpt lat="47.14194" lon="-1.94341">
        <ele>66</ele>
        <time>2021-03-14T13:43:22.000Z</time>
      </trkpt>
      <trkpt lat="47.14205" lon="-1.94339">
        <ele>66</ele>
        <time>2021-03-14T13:43:24.000Z</time>
      </trkpt>
      <trkpt lat="47.14221" lon="-1.94335">
        <ele>66</ele>
        <time>2021-03-14T13:43:27.000Z</time>
      </trkpt>
      <trkpt lat="47.14232" lon="-1.94333">
        <ele>66</ele>
        <time>2021-03-14T13:43:29.000Z</time>
      </trkpt>
      <trkpt lat="47.14243" lon="-1.9433">
        <ele>66</ele>
        <time>2021-03-14T13:43:31.000Z</time>
      </trkpt>
      <trkpt lat="47.14254" lon="-1.94327">
        <ele>67</ele>
        <time>2021-03-14T13:43:33.000Z</time>
      </trkpt>
      <trkpt lat="47.14265" lon="-1.94324">
        <ele>67</ele>
        <time>2021-03-14T13:43:35.000Z</time>
      </trkpt>
      <trkpt lat="47.14276" lon="-1.94322">
        <ele>67</ele>
        <time>2021-03-14T13:43:37.000Z</time>
      </trkpt>
      <trkpt lat="47.14287" lon="-1.9432">
        <ele>67</ele>
        <time>2021-03-14T13:43:39.000Z</time>
      </trkpt>
      <trkpt lat="47.14298" lon="-1.94317">
        <ele>67</ele>
        <time>2021-03-14T13:43:41.000Z</time>
      </trkpt>
      <trkpt lat="47.1431" lon="-1.94315">
        <ele>67</ele>
        <time>2021-03-14T13:43:43.000Z</time>
      </trkpt>
      <trkpt lat="47.14321" lon="-1.94312">
        <ele>67</ele>
        <time>2021-03-14T13:43:45.000Z</time>
      </trkpt>
      <trkpt lat="47.14333" lon="-1.9431">
        <ele>67</ele>
        <time>2021-03-14T13:43:47.000Z</time>
      </trkpt>
      <trkpt lat="47.14349" lon="-1.94307">
        <ele>67</ele>
        <time>2021-03-14T13:43:50.000Z</time>
      </trkpt>
      <trkpt lat="47.14361" lon="-1.94304">
        <ele>68</ele>
        <time>2021-03-14T13:43:52.000Z</time>
      </trkpt>
      <trkpt lat="47.14372" lon="-1.94302">
        <ele>68</ele>
        <time>2021-03-14T13:43:54.000Z</time>
      </trkpt>
      <trkpt lat="47.14383" lon="-1.943">
        <ele>68</ele>
        <time>2021-03-14T13:43:56.000Z</time>
      </trkpt>
      <trkpt lat="47.14394" lon="-1.94298">
        <ele>67</ele>
        <time>2021-03-14T13:43:58.000Z</time>
      </trkpt>
      <trkpt lat="47.14405" lon="-1.94295">
        <ele>68</ele>
        <time>2021-03-14T13:44:00.000Z</time>
      </trkpt>
      <trkpt lat="47.14417" lon="-1.94293">
        <ele>68</ele>
        <time>2021-03-14T13:44:02.000Z</time>
      </trkpt>
      <trkpt lat="47.14429" lon="-1.94291">
        <ele>68</ele>
        <time>2021-03-14T13:44:04.000Z</time>
      </trkpt>
      <trkpt lat="47.1444" lon="-1.94289">
        <ele>68</ele>
        <time>2021-03-14T13:44:06.000Z</time>
      </trkpt>
      <trkpt lat="47.14451" lon="-1.94287">
        <ele>68</ele>
        <time>2021-03-14T13:44:08.000Z</time>
      </trkpt>
      <trkpt lat="47.14461" lon="-1.94285">
        <ele>68</ele>
        <time>2021-03-14T13:44:10.000Z</time>
      </trkpt>
      <trkpt lat="47.14472" lon="-1.94282">
        <ele>69</ele>
        <time>2021-03-14T13:44:12.000Z</time>
      </trkpt>
      <trkpt lat="47.14483" lon="-1.9428">
        <ele>69</ele>
        <time>2021-03-14T13:44:14.000Z</time>
      </trkpt>
      <trkpt lat="47.14494" lon="-1.94279">
        <ele>69</ele>
        <time>2021-03-14T13:44:16.000Z</time>
      </trkpt>
      <trkpt lat="47.14505" lon="-1.94276">
        <ele>69</ele>
        <time>2021-03-14T13:44:18.000Z</time>
      </trkpt>
      <trkpt lat="47.14516" lon="-1.94273">
        <ele>69</ele>
        <time>2021-03-14T13:44:20.000Z</time>
      </trkpt>
      <trkpt lat="47.14527" lon="-1.94271">
        <ele>69</ele>
        <time>2021-03-14T13:44:22.000Z</time>
      </trkpt>
      <trkpt lat="47.14538" lon="-1.94268">
        <ele>69</ele>
        <time>2021-03-14T13:44:24.000Z</time>
      </trkpt>
      <trkpt lat="47.14549" lon="-1.94265">
        <ele>69</ele>
        <time>2021-03-14T13:44:26.000Z</time>
      </trkpt>
      <trkpt lat="47.14561" lon="-1.94262">
        <ele>70</ele>
        <time>2021-03-14T13:44:28.000Z</time>
      </trkpt>
      <trkpt lat="47.14572" lon="-1.9426">
        <ele>70</ele>
        <time>2021-03-14T13:44:30.000Z</time>
      </trkpt>
      <trkpt lat="47.14584" lon="-1.94258">
        <ele>70</ele>
        <time>2021-03-14T13:44:32.000Z</time>
      </trkpt>
      <trkpt lat="47.14595" lon="-1.94256">
        <ele>70</ele>
        <time>2021-03-14T13:44:34.000Z</time>
      </trkpt>
      <trkpt lat="47.14607" lon="-1.94254">
        <ele>70</ele>
        <time>2021-03-14T13:44:36.000Z</time>
      </trkpt>
      <trkpt lat="47.14618" lon="-1.94252">
        <ele>71</ele>
        <time>2021-03-14T13:44:38.000Z</time>
      </trkpt>
      <trkpt lat="47.14629" lon="-1.94249">
        <ele>71</ele>
        <time>2021-03-14T13:44:40.000Z</time>
      </trkpt>
      <trkpt lat="47.1464" lon="-1.94246">
        <ele>71</ele>
        <time>2021-03-14T13:44:42.000Z</time>
      </trkpt>
      <trkpt lat="47.14651" lon="-1.94244">
        <ele>71</ele>
        <time>2021-03-14T13:44:44.000Z</time>
      </trkpt>
      <trkpt lat="47.14663" lon="-1.94241">
        <ele>71</ele>
        <time>2021-03-14T13:44:46.000Z</time>
      </trkpt>
      <trkpt lat="47.14674" lon="-1.94239">
        <ele>72</ele>
        <time>2021-03-14T13:44:48.000Z</time>
      </trkpt>
      <trkpt lat="47.14686" lon="-1.94237">
        <ele>72</ele>
        <time>2021-03-14T13:44:50.000Z</time>
      </trkpt>
      <trkpt lat="47.14697" lon="-1.94235">
        <ele>72</ele>
        <time>2021-03-14T13:44:52.000Z</time>
      </trkpt>
      <trkpt lat="47.14708" lon="-1.94233">
        <ele>72</ele>
        <time>2021-03-14T13:44:54.000Z</time>
      </trkpt>
      <trkpt lat="47.14719" lon="-1.94231">
        <ele>72</ele>
        <time>2021-03-14T13:44:56.000Z</time>
      </trkpt>
      <trkpt lat="47.1473" lon="-1.94229">
        <ele>73</ele>
        <time>2021-03-14T13:44:58.000Z</time>
      </trkpt>
      <trkpt lat="47.14741" lon="-1.94226">
        <ele>73</ele>
        <time>2021-03-14T13:45:00.000Z</time>
      </trkpt>
      <trkpt lat="47.14752" lon="-1.94223">
        <ele>73</ele>
        <time>2021-03-14T13:45:02.000Z</time>
      </trkpt>
      <trkpt lat="47.14768" lon="-1.94219">
        <ele>73</ele>
        <time>2021-03-14T13:45:05.000Z</time>
      </trkpt>
      <trkpt lat="47.14779" lon="-1.94217">
        <ele>74</ele>
        <time>2021-03-14T13:45:07.000Z</time>
      </trkpt>
      <trkpt lat="47.1479" lon="-1.94215">
        <ele>74</ele>
        <time>2021-03-14T13:45:09.000Z</time>
      </trkpt>
      <trkpt lat="47.14801" lon="-1.94213">
        <ele>74</ele>
        <time>2021-03-14T13:45:11.000Z</time>
      </trkpt>
      <trkpt lat="47.14812" lon="-1.9421">
        <ele>75</ele>
        <time>2021-03-14T13:45:13.000Z</time>
      </trkpt>
      <trkpt lat="47.14823" lon="-1.94208">
        <ele>75</ele>
        <time>2021-03-14T13:45:15.000Z</time>
      </trkpt>
      <trkpt lat="47.14836" lon="-1.94205">
        <ele>75</ele>
        <time>2021-03-14T13:45:17.000Z</time>
      </trkpt>
      <trkpt lat="47.14847" lon="-1.94203">
        <ele>75</ele>
        <time>2021-03-14T13:45:19.000Z</time>
      </trkpt>
      <trkpt lat="47.14858" lon="-1.942">
        <ele>75</ele>
        <time>2021-03-14T13:45:21.000Z</time>
      </trkpt>
      <trkpt lat="47.14869" lon="-1.94198">
        <ele>75</ele>
        <time>2021-03-14T13:45:23.000Z</time>
      </trkpt>
      <trkpt lat="47.1488" lon="-1.94195">
        <ele>75</ele>
        <time>2021-03-14T13:45:25.000Z</time>
      </trkpt>
      <trkpt lat="47.14891" lon="-1.94194">
        <ele>75</ele>
        <time>2021-03-14T13:45:27.000Z</time>
      </trkpt>
      <trkpt lat="47.14903" lon="-1.94191">
        <ele>75</ele>
        <time>2021-03-14T13:45:29.000Z</time>
      </trkpt>
      <trkpt lat="47.14914" lon="-1.94189">
        <ele>75</ele>
        <time>2021-03-14T13:45:31.000Z</time>
      </trkpt>
      <trkpt lat="47.14925" lon="-1.94188">
        <ele>75</ele>
        <time>2021-03-14T13:45:33.000Z</time>
      </trkpt>
      <trkpt lat="47.14936" lon="-1.94188">
        <ele>75</ele>
        <time>2021-03-14T13:45:35.000Z</time>
      </trkpt>
      <trkpt lat="47.14947" lon="-1.94189">
        <ele>75</ele>
        <time>2021-03-14T13:45:37.000Z</time>
      </trkpt>
      <trkpt lat="47.14958" lon="-1.94192">
        <ele>75</ele>
        <time>2021-03-14T13:45:39.000Z</time>
      </trkpt>
      <trkpt lat="47.14969" lon="-1.94195">
        <ele>75</ele>
        <time>2021-03-14T13:45:41.000Z</time>
      </trkpt>
      <trkpt lat="47.1498" lon="-1.94197">
        <ele>75</ele>
        <time>2021-03-14T13:45:43.000Z</time>
      </trkpt>
      <trkpt lat="47.1499" lon="-1.942">
        <ele>76</ele>
        <time>2021-03-14T13:45:45.000Z</time>
      </trkpt>
      <trkpt lat="47.15001" lon="-1.94203">
        <ele>76</ele>
        <time>2021-03-14T13:45:47.000Z</time>
      </trkpt>
      <trkpt lat="47.15012" lon="-1.94206">
        <ele>76</ele>
        <time>2021-03-14T13:45:49.000Z</time>
      </trkpt>
      <trkpt lat="47.15022" lon="-1.94208">
        <ele>77</ele>
        <time>2021-03-14T13:45:51.000Z</time>
      </trkpt>
      <trkpt lat="47.15033" lon="-1.94211">
        <ele>77</ele>
        <time>2021-03-14T13:45:53.000Z</time>
      </trkpt>
      <trkpt lat="47.15043" lon="-1.94214">
        <ele>77</ele>
        <time>2021-03-14T13:45:55.000Z</time>
      </trkpt>
      <trkpt lat="47.15053" lon="-1.94216">
        <ele>77</ele>
        <time>2021-03-14T13:45:57.000Z</time>
      </trkpt>
      <trkpt lat="47.15063" lon="-1.94219">
        <ele>76</ele>
        <time>2021-03-14T13:45:59.000Z</time>
      </trkpt>
      <trkpt lat="47.15074" lon="-1.94222">
        <ele>77</ele>
        <time>2021-03-14T13:46:01.000Z</time>
      </trkpt>
      <trkpt lat="47.15085" lon="-1.94225">
        <ele>77</ele>
        <time>2021-03-14T13:46:03.000Z</time>
      </trkpt>
      <trkpt lat="47.15096" lon="-1.94228">
        <ele>77</ele>
        <time>2021-03-14T13:46:05.000Z</time>
      </trkpt>
      <trkpt lat="47.15106" lon="-1.94231">
        <ele>78</ele>
        <time>2021-03-14T13:46:07.000Z</time>
      </trkpt>
      <trkpt lat="47.15116" lon="-1.94234">
        <ele>78</ele>
        <time>2021-03-14T13:46:09.000Z</time>
      </trkpt>
      <trkpt lat="47.15127" lon="-1.94237">
        <ele>78</ele>
        <time>2021-03-14T13:46:11.000Z</time>
      </trkpt>
      <trkpt lat="47.15138" lon="-1.9424">
        <ele>78</ele>
        <time>2021-03-14T13:46:13.000Z</time>
      </trkpt>
      <trkpt lat="47.15149" lon="-1.94243">
        <ele>78</ele>
        <time>2021-03-14T13:46:15.000Z</time>
      </trkpt>
      <trkpt lat="47.1516" lon="-1.94245">
        <ele>78</ele>
        <time>2021-03-14T13:46:17.000Z</time>
      </trkpt>
      <trkpt lat="47.1517" lon="-1.94248">
        <ele>78</ele>
        <time>2021-03-14T13:46:19.000Z</time>
      </trkpt>
      <trkpt lat="47.15181" lon="-1.94251">
        <ele>78</ele>
        <time>2021-03-14T13:46:21.000Z</time>
      </trkpt>
      <trkpt lat="47.15192" lon="-1.94254">
        <ele>79</ele>
        <time>2021-03-14T13:46:23.000Z</time>
      </trkpt>
      <trkpt lat="47.15203" lon="-1.94257">
        <ele>79</ele>
        <time>2021-03-14T13:46:25.000Z</time>
      </trkpt>
      <trkpt lat="47.15213" lon="-1.9426">
        <ele>79</ele>
        <time>2021-03-14T13:46:27.000Z</time>
      </trkpt>
      <trkpt lat="47.15224" lon="-1.94263">
        <ele>79</ele>
        <time>2021-03-14T13:46:29.000Z</time>
      </trkpt>
      <trkpt lat="47.15235" lon="-1.94266">
        <ele>79</ele>
        <time>2021-03-14T13:46:31.000Z</time>
      </trkpt>
      <trkpt lat="47.15245" lon="-1.94268">
        <ele>79</ele>
        <time>2021-03-14T13:46:33.000Z</time>
      </trkpt>
      <trkpt lat="47.15256" lon="-1.94271">
        <ele>79</ele>
        <time>2021-03-14T13:46:35.000Z</time>
      </trkpt>
      <trkpt lat="47.15266" lon="-1.94273">
        <ele>80</ele>
        <time>2021-03-14T13:46:37.000Z</time>
      </trkpt>
      <trkpt lat="47.15277" lon="-1.94276">
        <ele>81</ele>
        <time>2021-03-14T13:46:39.000Z</time>
      </trkpt>
      <trkpt lat="47.15287" lon="-1.94278">
        <ele>81</ele>
        <time>2021-03-14T13:46:41.000Z</time>
      </trkpt>
      <trkpt lat="47.15298" lon="-1.94281">
        <ele>81</ele>
        <time>2021-03-14T13:46:43.000Z</time>
      </trkpt>
      <trkpt lat="47.15309" lon="-1.94284">
        <ele>81</ele>
        <time>2021-03-14T13:46:45.000Z</time>
      </trkpt>
      <trkpt lat="47.1532" lon="-1.94288">
        <ele>80</ele>
        <time>2021-03-14T13:46:47.000Z</time>
      </trkpt>
      <trkpt lat="47.1533" lon="-1.94292">
        <ele>80</ele>
        <time>2021-03-14T13:46:49.000Z</time>
      </trkpt>
      <trkpt lat="47.1534" lon="-1.94296">
        <ele>80</ele>
        <time>2021-03-14T13:46:51.000Z</time>
      </trkpt>
      <trkpt lat="47.1535" lon="-1.94301">
        <ele>80</ele>
        <time>2021-03-14T13:46:53.000Z</time>
      </trkpt>
      <trkpt lat="47.1536" lon="-1.94305">
        <ele>81</ele>
        <time>2021-03-14T13:46:55.000Z</time>
      </trkpt>
      <trkpt lat="47.1537" lon="-1.94311">
        <ele>81</ele>
        <time>2021-03-14T13:46:57.000Z</time>
      </trkpt>
      <trkpt lat="47.1538" lon="-1.94316">
        <ele>81</ele>
        <time>2021-03-14T13:46:59.000Z</time>
      </trkpt>
      <trkpt lat="47.1539" lon="-1.94321">
        <ele>82</ele>
        <time>2021-03-14T13:47:01.000Z</time>
      </trkpt>
      <trkpt lat="47.154" lon="-1.94326">
        <ele>82</ele>
        <time>2021-03-14T13:47:03.000Z</time>
      </trkpt>
      <trkpt lat="47.15409" lon="-1.94331">
        <ele>82</ele>
        <time>2021-03-14T13:47:05.000Z</time>
      </trkpt>
      <trkpt lat="47.1542" lon="-1.94337">
        <ele>82</ele>
        <time>2021-03-14T13:47:07.000Z</time>
      </trkpt>
      <trkpt lat="47.1543" lon="-1.94342">
        <ele>82</ele>
        <time>2021-03-14T13:47:09.000Z</time>
      </trkpt>
      <trkpt lat="47.1544" lon="-1.94348">
        <ele>83</ele>
        <time>2021-03-14T13:47:11.000Z</time>
      </trkpt>
      <trkpt lat="47.1545" lon="-1.94352">
        <ele>83</ele>
        <time>2021-03-14T13:47:13.000Z</time>
      </trkpt>
      <trkpt lat="47.15459" lon="-1.94357">
        <ele>83</ele>
        <time>2021-03-14T13:47:15.000Z</time>
      </trkpt>
      <trkpt lat="47.15469" lon="-1.94362">
        <ele>83</ele>
        <time>2021-03-14T13:47:17.000Z</time>
      </trkpt>
      <trkpt lat="47.15478" lon="-1.94367">
        <ele>83</ele>
        <time>2021-03-14T13:47:19.000Z</time>
      </trkpt>
      <trkpt lat="47.15488" lon="-1.94373">
        <ele>84</ele>
        <time>2021-03-14T13:47:21.000Z</time>
      </trkpt>
      <trkpt lat="47.15497" lon="-1.94379">
        <ele>84</ele>
        <time>2021-03-14T13:47:23.000Z</time>
      </trkpt>
      <trkpt lat="47.15506" lon="-1.94384">
        <ele>85</ele>
        <time>2021-03-14T13:47:25.000Z</time>
      </trkpt>
      <trkpt lat="47.15516" lon="-1.94389">
        <ele>85</ele>
        <time>2021-03-14T13:47:27.000Z</time>
      </trkpt>
      <trkpt lat="47.15526" lon="-1.94394">
        <ele>85</ele>
        <time>2021-03-14T13:47:29.000Z</time>
      </trkpt>
      <trkpt lat="47.15536" lon="-1.94401">
        <ele>85</ele>
        <time>2021-03-14T13:47:31.000Z</time>
      </trkpt>
      <trkpt lat="47.15546" lon="-1.94408">
        <ele>85</ele>
        <time>2021-03-14T13:47:33.000Z</time>
      </trkpt>
      <trkpt lat="47.15555" lon="-1.94415">
        <ele>85</ele>
        <time>2021-03-14T13:47:35.000Z</time>
      </trkpt>
      <trkpt lat="47.15563" lon="-1.94423">
        <ele>85</ele>
        <time>2021-03-14T13:47:37.000Z</time>
      </trkpt>
      <trkpt lat="47.15572" lon="-1.94431">
        <ele>85</ele>
        <time>2021-03-14T13:47:39.000Z</time>
      </trkpt>
      <trkpt lat="47.15581" lon="-1.94438">
        <ele>86</ele>
        <time>2021-03-14T13:47:41.000Z</time>
      </trkpt>
      <trkpt lat="47.1559" lon="-1.94446">
        <ele>86</ele>
        <time>2021-03-14T13:47:43.000Z</time>
      </trkpt>
      <trkpt lat="47.156" lon="-1.94453">
        <ele>86</ele>
        <time>2021-03-14T13:47:45.000Z</time>
      </trkpt>
      <trkpt lat="47.15609" lon="-1.9446">
        <ele>86</ele>
        <time>2021-03-14T13:47:47.000Z</time>
      </trkpt>
      <trkpt lat="47.15617" lon="-1.94468">
        <ele>86</ele>
        <time>2021-03-14T13:47:49.000Z</time>
      </trkpt>
      <trkpt lat="47.15627" lon="-1.94475">
        <ele>87</ele>
        <time>2021-03-14T13:47:51.000Z</time>
      </trkpt>
      <trkpt lat="47.15636" lon="-1.94483">
        <ele>87</ele>
        <time>2021-03-14T13:47:53.000Z</time>
      </trkpt>
      <trkpt lat="47.15645" lon="-1.94492">
        <ele>87</ele>
        <time>2021-03-14T13:47:55.000Z</time>
      </trkpt>
      <trkpt lat="47.15655" lon="-1.945">
        <ele>87</ele>
        <time>2021-03-14T13:47:57.000Z</time>
      </trkpt>
      <trkpt lat="47.15665" lon="-1.94507">
        <ele>87</ele>
        <time>2021-03-14T13:47:59.000Z</time>
      </trkpt>
      <trkpt lat="47.15674" lon="-1.94515">
        <ele>88</ele>
        <time>2021-03-14T13:48:01.000Z</time>
      </trkpt>
      <trkpt lat="47.15683" lon="-1.94523">
        <ele>88</ele>
        <time>2021-03-14T13:48:03.000Z</time>
      </trkpt>
      <trkpt lat="47.15692" lon="-1.94531">
        <ele>88</ele>
        <time>2021-03-14T13:48:05.000Z</time>
      </trkpt>
      <trkpt lat="47.15702" lon="-1.94539">
        <ele>89</ele>
        <time>2021-03-14T13:48:07.000Z</time>
      </trkpt>
      <trkpt lat="47.1571" lon="-1.94547">
        <ele>89</ele>
        <time>2021-03-14T13:48:09.000Z</time>
      </trkpt>
      <trkpt lat="47.15719" lon="-1.94555">
        <ele>89</ele>
        <time>2021-03-14T13:48:11.000Z</time>
      </trkpt>
      <trkpt lat="47.15729" lon="-1.94562">
        <ele>89</ele>
        <time>2021-03-14T13:48:13.000Z</time>
      </trkpt>
      <trkpt lat="47.15738" lon="-1.9457">
        <ele>90</ele>
        <time>2021-03-14T13:48:15.000Z</time>
      </trkpt>
      <trkpt lat="47.15747" lon="-1.94578">
        <ele>90</ele>
        <time>2021-03-14T13:48:17.000Z</time>
      </trkpt>
      <trkpt lat="47.15756" lon="-1.94586">
        <ele>91</ele>
        <time>2021-03-14T13:48:19.000Z</time>
      </trkpt>
      <trkpt lat="47.15766" lon="-1.94593">
        <ele>91</ele>
        <time>2021-03-14T13:48:21.000Z</time>
      </trkpt>
      <trkpt lat="47.15775" lon="-1.946">
        <ele>91</ele>
        <time>2021-03-14T13:48:23.000Z</time>
      </trkpt>
      <trkpt lat="47.15784" lon="-1.94607">
        <ele>90</ele>
        <time>2021-03-14T13:48:25.000Z</time>
      </trkpt>
      <trkpt lat="47.15793" lon="-1.94613">
        <ele>90</ele>
        <time>2021-03-14T13:48:27.000Z</time>
      </trkpt>
      <trkpt lat="47.15803" lon="-1.94618">
        <ele>90</ele>
        <time>2021-03-14T13:48:29.000Z</time>
      </trkpt>
      <trkpt lat="47.15812" lon="-1.94623">
        <ele>90</ele>
        <time>2021-03-14T13:48:31.000Z</time>
      </trkpt>
      <trkpt lat="47.15822" lon="-1.94628">
        <ele>90</ele>
        <time>2021-03-14T13:48:33.000Z</time>
      </trkpt>
      <trkpt lat="47.15832" lon="-1.94632">
        <ele>90</ele>
        <time>2021-03-14T13:48:35.000Z</time>
      </trkpt>
      <trkpt lat="47.15842" lon="-1.94636">
        <ele>90</ele>
        <time>2021-03-14T13:48:37.000Z</time>
      </trkpt>
      <trkpt lat="47.15853" lon="-1.94639">
        <ele>90</ele>
        <time>2021-03-14T13:48:39.000Z</time>
      </trkpt>
      <trkpt lat="47.15863" lon="-1.9464">
        <ele>91</ele>
        <time>2021-03-14T13:48:41.000Z</time>
      </trkpt>
      <trkpt lat="47.15873" lon="-1.94642">
        <ele>91</ele>
        <time>2021-03-14T13:48:43.000Z</time>
      </trkpt>
      <trkpt lat="47.15884" lon="-1.94644">
        <ele>90</ele>
        <time>2021-03-14T13:48:45.000Z</time>
      </trkpt>
      <trkpt lat="47.15894" lon="-1.94646">
        <ele>90</ele>
        <time>2021-03-14T13:48:47.000Z</time>
      </trkpt>
      <trkpt lat="47.15904" lon="-1.94649">
        <ele>91</ele>
        <time>2021-03-14T13:48:49.000Z</time>
      </trkpt>
      <trkpt lat="47.15914" lon="-1.94651">
        <ele>91</ele>
        <time>2021-03-14T13:48:51.000Z</time>
      </trkpt>
      <trkpt lat="47.15924" lon="-1.94653">
        <ele>91</ele>
        <time>2021-03-14T13:48:53.000Z</time>
      </trkpt>
      <trkpt lat="47.15934" lon="-1.94655">
        <ele>91</ele>
        <time>2021-03-14T13:48:55.000Z</time>
      </trkpt>
      <trkpt lat="47.15945" lon="-1.94656">
        <ele>91</ele>
        <time>2021-03-14T13:48:57.000Z</time>
      </trkpt>
      <trkpt lat="47.15956" lon="-1.94657">
        <ele>92</ele>
        <time>2021-03-14T13:48:59.000Z</time>
      </trkpt>
      <trkpt lat="47.15967" lon="-1.94656">
        <ele>92</ele>
        <time>2021-03-14T13:49:01.000Z</time>
      </trkpt>
      <trkpt lat="47.15978" lon="-1.94655">
        <ele>92</ele>
        <time>2021-03-14T13:49:03.000Z</time>
      </trkpt>
      <trkpt lat="47.15988" lon="-1.94654">
        <ele>92</ele>
        <time>2021-03-14T13:49:05.000Z</time>
      </trkpt>
      <trkpt lat="47.15999" lon="-1.94652">
        <ele>92</ele>
        <time>2021-03-14T13:49:07.000Z</time>
      </trkpt>
      <trkpt lat="47.16009" lon="-1.94651">
        <ele>93</ele>
        <time>2021-03-14T13:49:09.000Z</time>
      </trkpt>
      <trkpt lat="47.1602" lon="-1.9465">
        <ele>93</ele>
        <time>2021-03-14T13:49:11.000Z</time>
      </trkpt>
      <trkpt lat="47.16031" lon="-1.94649">
        <ele>93</ele>
        <time>2021-03-14T13:49:13.000Z</time>
      </trkpt>
      <trkpt lat="47.16043" lon="-1.9465">
        <ele>93</ele>
        <time>2021-03-14T13:49:15.000Z</time>
      </trkpt>
      <trkpt lat="47.16054" lon="-1.94651">
        <ele>94</ele>
        <time>2021-03-14T13:49:17.000Z</time>
      </trkpt>
      <trkpt lat="47.16066" lon="-1.94652">
        <ele>94</ele>
        <time>2021-03-14T13:49:19.000Z</time>
      </trkpt>
      <trkpt lat="47.16076" lon="-1.94654">
        <ele>94</ele>
        <time>2021-03-14T13:49:21.000Z</time>
      </trkpt>
      <trkpt lat="47.16087" lon="-1.94656">
        <ele>94</ele>
        <time>2021-03-14T13:49:23.000Z</time>
      </trkpt>
      <trkpt lat="47.16098" lon="-1.94657">
        <ele>94</ele>
        <time>2021-03-14T13:49:25.000Z</time>
      </trkpt>
      <trkpt lat="47.16109" lon="-1.9466">
        <ele>94</ele>
        <time>2021-03-14T13:49:27.000Z</time>
      </trkpt>
      <trkpt lat="47.16121" lon="-1.94661">
        <ele>94</ele>
        <time>2021-03-14T13:49:29.000Z</time>
      </trkpt>
      <trkpt lat="47.16131" lon="-1.94663">
        <ele>94</ele>
        <time>2021-03-14T13:49:31.000Z</time>
      </trkpt>
      <trkpt lat="47.16142" lon="-1.94665">
        <ele>95</ele>
        <time>2021-03-14T13:49:33.000Z</time>
      </trkpt>
      <trkpt lat="47.16153" lon="-1.94667">
        <ele>94</ele>
        <time>2021-03-14T13:49:35.000Z</time>
      </trkpt>
      <trkpt lat="47.16164" lon="-1.9467">
        <ele>94</ele>
        <time>2021-03-14T13:49:37.000Z</time>
      </trkpt>
      <trkpt lat="47.16174" lon="-1.94672">
        <ele>95</ele>
        <time>2021-03-14T13:49:39.000Z</time>
      </trkpt>
      <trkpt lat="47.16185" lon="-1.94674">
        <ele>95</ele>
        <time>2021-03-14T13:49:41.000Z</time>
      </trkpt>
      <trkpt lat="47.16196" lon="-1.94676">
        <ele>95</ele>
        <time>2021-03-14T13:49:43.000Z</time>
      </trkpt>
      <trkpt lat="47.16206" lon="-1.94677">
        <ele>95</ele>
        <time>2021-03-14T13:49:45.000Z</time>
      </trkpt>
      <trkpt lat="47.16216" lon="-1.94679">
        <ele>95</ele>
        <time>2021-03-14T13:49:47.000Z</time>
      </trkpt>
      <trkpt lat="47.16227" lon="-1.94681">
        <ele>95</ele>
        <time>2021-03-14T13:49:49.000Z</time>
      </trkpt>
      <trkpt lat="47.16237" lon="-1.94683">
        <ele>95</ele>
        <time>2021-03-14T13:49:51.000Z</time>
      </trkpt>
      <trkpt lat="47.16247" lon="-1.94684">
        <ele>95</ele>
        <time>2021-03-14T13:49:53.000Z</time>
      </trkpt>
      <trkpt lat="47.16258" lon="-1.94686">
        <ele>95</ele>
        <time>2021-03-14T13:49:55.000Z</time>
      </trkpt>
      <trkpt lat="47.16268" lon="-1.94685">
        <ele>95</ele>
        <time>2021-03-14T13:49:57.000Z</time>
      </trkpt>
      <trkpt lat="47.16279" lon="-1.94687">
        <ele>95</ele>
        <time>2021-03-14T13:49:59.000Z</time>
      </trkpt>
      <trkpt lat="47.1629" lon="-1.94686">
        <ele>95</ele>
        <time>2021-03-14T13:50:01.000Z</time>
      </trkpt>
      <trkpt lat="47.16301" lon="-1.94686">
        <ele>95</ele>
        <time>2021-03-14T13:50:03.000Z</time>
      </trkpt>
      <trkpt lat="47.16312" lon="-1.94685">
        <ele>95</ele>
        <time>2021-03-14T13:50:05.000Z</time>
      </trkpt>
      <trkpt lat="47.16323" lon="-1.94684">
        <ele>95</ele>
        <time>2021-03-14T13:50:07.000Z</time>
      </trkpt>
      <trkpt lat="47.16334" lon="-1.94683">
        <ele>95</ele>
        <time>2021-03-14T13:50:09.000Z</time>
      </trkpt>
      <trkpt lat="47.16345" lon="-1.94682">
        <ele>96</ele>
        <time>2021-03-14T13:50:11.000Z</time>
      </trkpt>
      <trkpt lat="47.16355" lon="-1.94682">
        <ele>95</ele>
        <time>2021-03-14T13:50:13.000Z</time>
      </trkpt>
      <trkpt lat="47.16366" lon="-1.94681">
        <ele>95</ele>
        <time>2021-03-14T13:50:15.000Z</time>
      </trkpt>
      <trkpt lat="47.16377" lon="-1.94681">
        <ele>96</ele>
        <time>2021-03-14T13:50:17.000Z</time>
      </trkpt>
      <trkpt lat="47.16388" lon="-1.9468">
        <ele>96</ele>
        <time>2021-03-14T13:50:19.000Z</time>
      </trkpt>
      <trkpt lat="47.164" lon="-1.9468">
        <ele>96</ele>
        <time>2021-03-14T13:50:21.000Z</time>
      </trkpt>
      <trkpt lat="47.16412" lon="-1.94679">
        <ele>96</ele>
        <time>2021-03-14T13:50:23.000Z</time>
      </trkpt>
      <trkpt lat="47.16424" lon="-1.94679">
        <ele>96</ele>
        <time>2021-03-14T13:50:25.000Z</time>
      </trkpt>
      <trkpt lat="47.16435" lon="-1.94679">
        <ele>96</ele>
        <time>2021-03-14T13:50:27.000Z</time>
      </trkpt>
      <trkpt lat="47.16447" lon="-1.94678">
        <ele>96</ele>
        <time>2021-03-14T13:50:29.000Z</time>
      </trkpt>
      <trkpt lat="47.16458" lon="-1.94677">
        <ele>96</ele>
        <time>2021-03-14T13:50:31.000Z</time>
      </trkpt>
      <trkpt lat="47.16468" lon="-1.94677">
        <ele>96</ele>
        <time>2021-03-14T13:50:33.000Z</time>
      </trkpt>
      <trkpt lat="47.16479" lon="-1.94676">
        <ele>95</ele>
        <time>2021-03-14T13:50:35.000Z</time>
      </trkpt>
      <trkpt lat="47.1649" lon="-1.94676">
        <ele>95</ele>
        <time>2021-03-14T13:50:37.000Z</time>
      </trkpt>
      <trkpt lat="47.16501" lon="-1.94675">
        <ele>95</ele>
        <time>2021-03-14T13:50:39.000Z</time>
      </trkpt>
      <trkpt lat="47.16513" lon="-1.94675">
        <ele>95</ele>
        <time>2021-03-14T13:50:41.000Z</time>
      </trkpt>
      <trkpt lat="47.16524" lon="-1.94674">
        <ele>95</ele>
        <time>2021-03-14T13:50:43.000Z</time>
      </trkpt>
      <trkpt lat="47.16536" lon="-1.94673">
        <ele>94</ele>
        <time>2021-03-14T13:50:45.000Z</time>
      </trkpt>
      <trkpt lat="47.16546" lon="-1.94672">
        <ele>94</ele>
        <time>2021-03-14T13:50:47.000Z</time>
      </trkpt>
      <trkpt lat="47.16557" lon="-1.94671">
        <ele>94</ele>
        <time>2021-03-14T13:50:49.000Z</time>
      </trkpt>
      <trkpt lat="47.16568" lon="-1.94669">
        <ele>94</ele>
        <time>2021-03-14T13:50:51.000Z</time>
      </trkpt>
      <trkpt lat="47.16579" lon="-1.94668">
        <ele>94</ele>
        <time>2021-03-14T13:50:53.000Z</time>
      </trkpt>
      <trkpt lat="47.16589" lon="-1.94666">
        <ele>95</ele>
        <time>2021-03-14T13:50:55.000Z</time>
      </trkpt>
      <trkpt lat="47.166" lon="-1.94665">
        <ele>94</ele>
        <time>2021-03-14T13:50:57.000Z</time>
      </trkpt>
      <trkpt lat="47.1661" lon="-1.94665">
        <ele>95</ele>
        <time>2021-03-14T13:50:59.000Z</time>
      </trkpt>
      <trkpt lat="47.1662" lon="-1.94665">
        <ele>95</ele>
        <time>2021-03-14T13:51:01.000Z</time>
      </trkpt>
      <trkpt lat="47.1663" lon="-1.94665">
        <ele>95</ele>
        <time>2021-03-14T13:51:03.000Z</time>
      </trkpt>
      <trkpt lat="47.1664" lon="-1.94666">
        <ele>96</ele>
        <time>2021-03-14T13:51:05.000Z</time>
      </trkpt>
      <trkpt lat="47.1665" lon="-1.94668">
        <ele>96</ele>
        <time>2021-03-14T13:51:07.000Z</time>
      </trkpt>
      <trkpt lat="47.1666" lon="-1.94672">
        <ele>97</ele>
        <time>2021-03-14T13:51:09.000Z</time>
      </trkpt>
      <trkpt lat="47.1667" lon="-1.94676">
        <ele>97</ele>
        <time>2021-03-14T13:51:11.000Z</time>
      </trkpt>
      <trkpt lat="47.16679" lon="-1.9468">
        <ele>97</ele>
        <time>2021-03-14T13:51:13.000Z</time>
      </trkpt>
      <trkpt lat="47.16689" lon="-1.94685">
        <ele>97</ele>
        <time>2021-03-14T13:51:15.000Z</time>
      </trkpt>
      <trkpt lat="47.16698" lon="-1.94689">
        <ele>97</ele>
        <time>2021-03-14T13:51:17.000Z</time>
      </trkpt>
      <trkpt lat="47.1671" lon="-1.94694">
        <ele>97</ele>
        <time>2021-03-14T13:51:20.000Z</time>
      </trkpt>
      <trkpt lat="47.1672" lon="-1.94699">
        <ele>98</ele>
        <time>2021-03-14T13:51:24.000Z</time>
      </trkpt>
      <trkpt lat="47.16732" lon="-1.94701">
        <ele>98</ele>
        <time>2021-03-14T13:51:28.000Z</time>
      </trkpt>
      <trkpt lat="47.16742" lon="-1.94704">
        <ele>98</ele>
        <time>2021-03-14T13:51:30.000Z</time>
      </trkpt>
      <trkpt lat="47.16753" lon="-1.94708">
        <ele>98</ele>
        <time>2021-03-14T13:51:32.000Z</time>
      </trkpt>
      <trkpt lat="47.16763" lon="-1.94712">
        <ele>98</ele>
        <time>2021-03-14T13:51:34.000Z</time>
      </trkpt>
      <trkpt lat="47.16773" lon="-1.94717">
        <ele>97</ele>
        <time>2021-03-14T13:51:36.000Z</time>
      </trkpt>
      <trkpt lat="47.16783" lon="-1.94721">
        <ele>97</ele>
        <time>2021-03-14T13:51:38.000Z</time>
      </trkpt>
      <trkpt lat="47.16794" lon="-1.94726">
        <ele>98</ele>
        <time>2021-03-14T13:51:40.000Z</time>
      </trkpt>
      <trkpt lat="47.16805" lon="-1.94729">
        <ele>98</ele>
        <time>2021-03-14T13:51:42.000Z</time>
      </trkpt>
      <trkpt lat="47.16815" lon="-1.94733">
        <ele>98</ele>
        <time>2021-03-14T13:51:44.000Z</time>
      </trkpt>
      <trkpt lat="47.16826" lon="-1.94738">
        <ele>98</ele>
        <time>2021-03-14T13:51:46.000Z</time>
      </trkpt>
      <trkpt lat="47.16837" lon="-1.94742">
        <ele>98</ele>
        <time>2021-03-14T13:51:48.000Z</time>
      </trkpt>
      <trkpt lat="47.16848" lon="-1.94746">
        <ele>99</ele>
        <time>2021-03-14T13:51:50.000Z</time>
      </trkpt>
      <trkpt lat="47.16858" lon="-1.9475">
        <ele>99</ele>
        <time>2021-03-14T13:51:52.000Z</time>
      </trkpt>
      <trkpt lat="47.16868" lon="-1.94754">
        <ele>99</ele>
        <time>2021-03-14T13:51:54.000Z</time>
      </trkpt>
      <trkpt lat="47.16878" lon="-1.94758">
        <ele>99</ele>
        <time>2021-03-14T13:51:56.000Z</time>
      </trkpt>
      <trkpt lat="47.16888" lon="-1.94762">
        <ele>100</ele>
        <time>2021-03-14T13:51:58.000Z</time>
      </trkpt>
      <trkpt lat="47.16897" lon="-1.94766">
        <ele>100</ele>
        <time>2021-03-14T13:52:00.000Z</time>
      </trkpt>
      <trkpt lat="47.16906" lon="-1.94769">
        <ele>100</ele>
        <time>2021-03-14T13:52:02.000Z</time>
      </trkpt>
      <trkpt lat="47.16916" lon="-1.94773">
        <ele>100</ele>
        <time>2021-03-14T13:52:04.000Z</time>
      </trkpt>
      <trkpt lat="47.16925" lon="-1.94777">
        <ele>100</ele>
        <time>2021-03-14T13:52:06.000Z</time>
      </trkpt>
      <trkpt lat="47.16935" lon="-1.9478">
        <ele>101</ele>
        <time>2021-03-14T13:52:08.000Z</time>
      </trkpt>
      <trkpt lat="47.16945" lon="-1.94784">
        <ele>101</ele>
        <time>2021-03-14T13:52:10.000Z</time>
      </trkpt>
      <trkpt lat="47.16955" lon="-1.94788">
        <ele>101</ele>
        <time>2021-03-14T13:52:12.000Z</time>
      </trkpt>
      <trkpt lat="47.16965" lon="-1.94793">
        <ele>101</ele>
        <time>2021-03-14T13:52:14.000Z</time>
      </trkpt>
      <trkpt lat="47.16975" lon="-1.94798">
        <ele>102</ele>
        <time>2021-03-14T13:52:16.000Z</time>
      </trkpt>
      <trkpt lat="47.16985" lon="-1.94801">
        <ele>101</ele>
        <time>2021-03-14T13:52:18.000Z</time>
      </trkpt>
      <trkpt lat="47.16995" lon="-1.94805">
        <ele>102</ele>
        <time>2021-03-14T13:52:20.000Z</time>
      </trkpt>
      <trkpt lat="47.17005" lon="-1.94809">
        <ele>101</ele>
        <time>2021-03-14T13:52:22.000Z</time>
      </trkpt>
      <trkpt lat="47.17014" lon="-1.94813">
        <ele>102</ele>
        <time>2021-03-14T13:52:24.000Z</time>
      </trkpt>
      <trkpt lat="47.17024" lon="-1.94816">
        <ele>102</ele>
        <time>2021-03-14T13:52:26.000Z</time>
      </trkpt>
      <trkpt lat="47.17034" lon="-1.9482">
        <ele>102</ele>
        <time>2021-03-14T13:52:28.000Z</time>
      </trkpt>
      <trkpt lat="47.17044" lon="-1.94824">
        <ele>102</ele>
        <time>2021-03-14T13:52:30.000Z</time>
      </trkpt>
      <trkpt lat="47.17053" lon="-1.94828">
        <ele>103</ele>
        <time>2021-03-14T13:52:32.000Z</time>
      </trkpt>
      <trkpt lat="47.17063" lon="-1.94832">
        <ele>103</ele>
        <time>2021-03-14T13:52:34.000Z</time>
      </trkpt>
      <trkpt lat="47.17073" lon="-1.94836">
        <ele>103</ele>
        <time>2021-03-14T13:52:36.000Z</time>
      </trkpt>
      <trkpt lat="47.17082" lon="-1.9484">
        <ele>103</ele>
        <time>2021-03-14T13:52:38.000Z</time>
      </trkpt>
      <trkpt lat="47.17092" lon="-1.94843">
        <ele>103</ele>
        <time>2021-03-14T13:52:40.000Z</time>
      </trkpt>
      <trkpt lat="47.17103" lon="-1.94848">
        <ele>103</ele>
        <time>2021-03-14T13:52:42.000Z</time>
      </trkpt>
      <trkpt lat="47.17113" lon="-1.94852">
        <ele>103</ele>
        <time>2021-03-14T13:52:44.000Z</time>
      </trkpt>
      <trkpt lat="47.17123" lon="-1.94855">
        <ele>103</ele>
        <time>2021-03-14T13:52:46.000Z</time>
      </trkpt>
      <trkpt lat="47.17132" lon="-1.9486">
        <ele>103</ele>
        <time>2021-03-14T13:52:48.000Z</time>
      </trkpt>
      <trkpt lat="47.17142" lon="-1.94864">
        <ele>104</ele>
        <time>2021-03-14T13:52:50.000Z</time>
      </trkpt>
      <trkpt lat="47.17152" lon="-1.94867">
        <ele>104</ele>
        <time>2021-03-14T13:52:52.000Z</time>
      </trkpt>
      <trkpt lat="47.17162" lon="-1.94869">
        <ele>103</ele>
        <time>2021-03-14T13:52:54.000Z</time>
      </trkpt>
      <trkpt lat="47.17171" lon="-1.9487">
        <ele>104</ele>
        <time>2021-03-14T13:52:56.000Z</time>
      </trkpt>
      <trkpt lat="47.17182" lon="-1.94869">
        <ele>104</ele>
        <time>2021-03-14T13:52:58.000Z</time>
      </trkpt>
      <trkpt lat="47.17192" lon="-1.94865">
        <ele>104</ele>
        <time>2021-03-14T13:53:00.000Z</time>
      </trkpt>
      <trkpt lat="47.17203" lon="-1.94859">
        <ele>104</ele>
        <time>2021-03-14T13:53:02.000Z</time>
      </trkpt>
      <trkpt lat="47.17213" lon="-1.9485">
        <ele>104</ele>
        <time>2021-03-14T13:53:04.000Z</time>
      </trkpt>
      <trkpt lat="47.17222" lon="-1.94843">
        <ele>104</ele>
        <time>2021-03-14T13:53:06.000Z</time>
      </trkpt>
      <trkpt lat="47.17232" lon="-1.94834">
        <ele>104</ele>
        <time>2021-03-14T13:53:08.000Z</time>
      </trkpt>
      <trkpt lat="47.17242" lon="-1.94826">
        <ele>104</ele>
        <time>2021-03-14T13:53:10.000Z</time>
      </trkpt>
      <trkpt lat="47.17251" lon="-1.94816">
        <ele>103</ele>
        <time>2021-03-14T13:53:12.000Z</time>
      </trkpt>
      <trkpt lat="47.17261" lon="-1.94806">
        <ele>103</ele>
        <time>2021-03-14T13:53:14.000Z</time>
      </trkpt>
      <trkpt lat="47.17271" lon="-1.94795">
        <ele>102</ele>
        <time>2021-03-14T13:53:16.000Z</time>
      </trkpt>
      <trkpt lat="47.17279" lon="-1.94785">
        <ele>102</ele>
        <time>2021-03-14T13:53:18.000Z</time>
      </trkpt>
      <trkpt lat="47.17288" lon="-1.94777">
        <ele>102</ele>
        <time>2021-03-14T13:53:20.000Z</time>
      </trkpt>
      <trkpt lat="47.17299" lon="-1.94781">
        <ele>102</ele>
        <time>2021-03-14T13:53:22.000Z</time>
      </trkpt>
      <trkpt lat="47.17307" lon="-1.94794">
        <ele>102</ele>
        <time>2021-03-14T13:53:24.000Z</time>
      </trkpt>
      <trkpt lat="47.17314" lon="-1.94807">
        <ele>102</ele>
        <time>2021-03-14T13:53:26.000Z</time>
      </trkpt>
      <trkpt lat="47.1732" lon="-1.94819">
        <ele>102</ele>
        <time>2021-03-14T13:53:28.000Z</time>
      </trkpt>
      <trkpt lat="47.17327" lon="-1.94831">
        <ele>103</ele>
        <time>2021-03-14T13:53:30.000Z</time>
      </trkpt>
      <trkpt lat="47.17334" lon="-1.94843">
        <ele>103</ele>
        <time>2021-03-14T13:53:32.000Z</time>
      </trkpt>
      <trkpt lat="47.17341" lon="-1.94856">
        <ele>103</ele>
        <time>2021-03-14T13:53:34.000Z</time>
      </trkpt>
      <trkpt lat="47.17348" lon="-1.94869">
        <ele>103</ele>
        <time>2021-03-14T13:53:36.000Z</time>
      </trkpt>
      <trkpt lat="47.17355" lon="-1.94881">
        <ele>103</ele>
        <time>2021-03-14T13:53:38.000Z</time>
      </trkpt>
      <trkpt lat="47.17362" lon="-1.94894">
        <ele>104</ele>
        <time>2021-03-14T13:53:40.000Z</time>
      </trkpt>
      <trkpt lat="47.17369" lon="-1.94905">
        <ele>104</ele>
        <time>2021-03-14T13:53:42.000Z</time>
      </trkpt>
      <trkpt lat="47.17376" lon="-1.94919">
        <ele>104</ele>
        <time>2021-03-14T13:53:44.000Z</time>
      </trkpt>
      <trkpt lat="47.17382" lon="-1.94931">
        <ele>104</ele>
        <time>2021-03-14T13:53:46.000Z</time>
      </trkpt>
      <trkpt lat="47.17389" lon="-1.94943">
        <ele>104</ele>
        <time>2021-03-14T13:53:48.000Z</time>
      </trkpt>
      <trkpt lat="47.17395" lon="-1.94955">
        <ele>104</ele>
        <time>2021-03-14T13:53:50.000Z</time>
      </trkpt>
      <trkpt lat="47.17402" lon="-1.94968">
        <ele>104</ele>
        <time>2021-03-14T13:53:52.000Z</time>
      </trkpt>
      <trkpt lat="47.17409" lon="-1.9498">
        <ele>104</ele>
        <time>2021-03-14T13:53:54.000Z</time>
      </trkpt>
      <trkpt lat="47.17415" lon="-1.94993">
        <ele>104</ele>
        <time>2021-03-14T13:53:56.000Z</time>
      </trkpt>
      <trkpt lat="47.17422" lon="-1.95005">
        <ele>104</ele>
        <time>2021-03-14T13:53:58.000Z</time>
      </trkpt>
      <trkpt lat="47.17428" lon="-1.95017">
        <ele>103</ele>
        <time>2021-03-14T13:54:00.000Z</time>
      </trkpt>
      <trkpt lat="47.17435" lon="-1.9503">
        <ele>103</ele>
        <time>2021-03-14T13:54:02.000Z</time>
      </trkpt>
      <trkpt lat="47.17442" lon="-1.95042">
        <ele>103</ele>
        <time>2021-03-14T13:54:04.000Z</time>
      </trkpt>
      <trkpt lat="47.17449" lon="-1.95055">
        <ele>103</ele>
        <time>2021-03-14T13:54:06.000Z</time>
      </trkpt>
      <trkpt lat="47.17456" lon="-1.95068">
        <ele>102</ele>
        <time>2021-03-14T13:54:08.000Z</time>
      </trkpt>
      <trkpt lat="47.17463" lon="-1.95081">
        <ele>102</ele>
        <time>2021-03-14T13:54:10.000Z</time>
      </trkpt>
      <trkpt lat="47.1747" lon="-1.95094">
        <ele>102</ele>
        <time>2021-03-14T13:54:12.000Z</time>
      </trkpt>
      <trkpt lat="47.17478" lon="-1.95108">
        <ele>102</ele>
        <time>2021-03-14T13:54:14.000Z</time>
      </trkpt>
      <trkpt lat="47.17485" lon="-1.95122">
        <ele>102</ele>
        <time>2021-03-14T13:54:16.000Z</time>
      </trkpt>
      <trkpt lat="47.17493" lon="-1.95137">
        <ele>102</ele>
        <time>2021-03-14T13:54:18.000Z</time>
      </trkpt>
      <trkpt lat="47.17499" lon="-1.95153">
        <ele>101</ele>
        <time>2021-03-14T13:54:20.000Z</time>
      </trkpt>
      <trkpt lat="47.17505" lon="-1.95171">
        <ele>101</ele>
        <time>2021-03-14T13:54:22.000Z</time>
      </trkpt>
      <trkpt lat="47.1751" lon="-1.95189">
        <ele>100</ele>
        <time>2021-03-14T13:54:24.000Z</time>
      </trkpt>
      <trkpt lat="47.17516" lon="-1.95207">
        <ele>100</ele>
        <time>2021-03-14T13:54:26.000Z</time>
      </trkpt>
      <trkpt lat="47.17521" lon="-1.95226">
        <ele>100</ele>
        <time>2021-03-14T13:54:28.000Z</time>
      </trkpt>
      <trkpt lat="47.17526" lon="-1.95246">
        <ele>98</ele>
        <time>2021-03-14T13:54:30.000Z</time>
      </trkpt>
      <trkpt lat="47.1753" lon="-1.95267">
        <ele>97</ele>
        <time>2021-03-14T13:54:32.000Z</time>
      </trkpt>
      <trkpt lat="47.17534" lon="-1.95288">
        <ele>97</ele>
        <time>2021-03-14T13:54:34.000Z</time>
      </trkpt>
      <trkpt lat="47.17537" lon="-1.95309">
        <ele>97</ele>
        <time>2021-03-14T13:54:36.000Z</time>
      </trkpt>
      <trkpt lat="47.1754" lon="-1.9533">
        <ele>96</ele>
        <time>2021-03-14T13:54:38.000Z</time>
      </trkpt>
      <trkpt lat="47.17543" lon="-1.95349">
        <ele>96</ele>
        <time>2021-03-14T13:54:40.000Z</time>
      </trkpt>
      <trkpt lat="47.17546" lon="-1.95368">
        <ele>96</ele>
        <time>2021-03-14T13:54:42.000Z</time>
      </trkpt>
      <trkpt lat="47.17549" lon="-1.95387">
        <ele>96</ele>
        <time>2021-03-14T13:54:44.000Z</time>
      </trkpt>
      <trkpt lat="47.17552" lon="-1.95405">
        <ele>95</ele>
        <time>2021-03-14T13:54:46.000Z</time>
      </trkpt>
      <trkpt lat="47.17555" lon="-1.95424">
        <ele>95</ele>
        <time>2021-03-14T13:54:48.000Z</time>
      </trkpt>
      <trkpt lat="47.17558" lon="-1.95444">
        <ele>95</ele>
        <time>2021-03-14T13:54:50.000Z</time>
      </trkpt>
      <trkpt lat="47.1756" lon="-1.95463">
        <ele>95</ele>
        <time>2021-03-14T13:54:52.000Z</time>
      </trkpt>
      <trkpt lat="47.17563" lon="-1.95482">
        <ele>94</ele>
        <time>2021-03-14T13:54:54.000Z</time>
      </trkpt>
      <trkpt lat="47.17566" lon="-1.95501">
        <ele>95</ele>
        <time>2021-03-14T13:54:56.000Z</time>
      </trkpt>
      <trkpt lat="47.17569" lon="-1.9552">
        <ele>95</ele>
        <time>2021-03-14T13:54:58.000Z</time>
      </trkpt>
      <trkpt lat="47.17572" lon="-1.95539">
        <ele>95</ele>
        <time>2021-03-14T13:55:00.000Z</time>
      </trkpt>
      <trkpt lat="47.17575" lon="-1.95558">
        <ele>95</ele>
        <time>2021-03-14T13:55:02.000Z</time>
      </trkpt>
      <trkpt lat="47.17578" lon="-1.95577">
        <ele>95</ele>
        <time>2021-03-14T13:55:04.000Z</time>
      </trkpt>
      <trkpt lat="47.17581" lon="-1.95596">
        <ele>94</ele>
        <time>2021-03-14T13:55:06.000Z</time>
      </trkpt>
      <trkpt lat="47.17582" lon="-1.95618">
        <ele>93</ele>
        <time>2021-03-14T13:55:08.000Z</time>
      </trkpt>
      <trkpt lat="47.17582" lon="-1.95639">
        <ele>93</ele>
        <time>2021-03-14T13:55:10.000Z</time>
      </trkpt>
      <trkpt lat="47.17583" lon="-1.95659">
        <ele>92</ele>
        <time>2021-03-14T13:55:12.000Z</time>
      </trkpt>
      <trkpt lat="47.17583" lon="-1.95679">
        <ele>92</ele>
        <time>2021-03-14T13:55:14.000Z</time>
      </trkpt>
      <trkpt lat="47.17583" lon="-1.95697">
        <ele>92</ele>
        <time>2021-03-14T13:55:16.000Z</time>
      </trkpt>
      <trkpt lat="47.17583" lon="-1.95715">
        <ele>92</ele>
        <time>2021-03-14T13:55:18.000Z</time>
      </trkpt>
      <trkpt lat="47.17583" lon="-1.95733">
        <ele>92</ele>
        <time>2021-03-14T13:55:20.000Z</time>
      </trkpt>
      <trkpt lat="47.17582" lon="-1.9575">
        <ele>93</ele>
        <time>2021-03-14T13:55:22.000Z</time>
      </trkpt>
      <trkpt lat="47.17582" lon="-1.95766">
        <ele>93</ele>
        <time>2021-03-14T13:55:24.000Z</time>
      </trkpt>
      <trkpt lat="47.17583" lon="-1.95782">
        <ele>92</ele>
        <time>2021-03-14T13:55:26.000Z</time>
      </trkpt>
      <trkpt lat="47.17583" lon="-1.95798">
        <ele>93</ele>
        <time>2021-03-14T13:55:28.000Z</time>
      </trkpt>
      <trkpt lat="47.17583" lon="-1.95813">
        <ele>92</ele>
        <time>2021-03-14T13:55:30.000Z</time>
      </trkpt>
      <trkpt lat="47.17583" lon="-1.95829">
        <ele>92</ele>
        <time>2021-03-14T13:55:32.000Z</time>
      </trkpt>
      <trkpt lat="47.17583" lon="-1.95844">
        <ele>92</ele>
        <time>2021-03-14T13:55:34.000Z</time>
      </trkpt>
      <trkpt lat="47.17583" lon="-1.9586">
        <ele>93</ele>
        <time>2021-03-14T13:55:36.000Z</time>
      </trkpt>
      <trkpt lat="47.17583" lon="-1.95877">
        <ele>92</ele>
        <time>2021-03-14T13:55:38.000Z</time>
      </trkpt>
      <trkpt lat="47.17583" lon="-1.95892">
        <ele>92</ele>
        <time>2021-03-14T13:55:40.000Z</time>
      </trkpt>
      <trkpt lat="47.17583" lon="-1.95907">
        <ele>92</ele>
        <time>2021-03-14T13:55:42.000Z</time>
      </trkpt>
      <trkpt lat="47.17583" lon="-1.95922">
        <ele>92</ele>
        <time>2021-03-14T13:55:44.000Z</time>
      </trkpt>
      <trkpt lat="47.17583" lon="-1.95937">
        <ele>93</ele>
        <time>2021-03-14T13:55:46.000Z</time>
      </trkpt>
      <trkpt lat="47.17583" lon="-1.95951">
        <ele>93</ele>
        <time>2021-03-14T13:55:48.000Z</time>
      </trkpt>
      <trkpt lat="47.17583" lon="-1.95965">
        <ele>93</ele>
        <time>2021-03-14T13:55:50.000Z</time>
      </trkpt>
      <trkpt lat="47.17583" lon="-1.9598">
        <ele>94</ele>
        <time>2021-03-14T13:55:52.000Z</time>
      </trkpt>
      <trkpt lat="47.17583" lon="-1.95994">
        <ele>95</ele>
        <time>2021-03-14T13:55:54.000Z</time>
      </trkpt>
      <trkpt lat="47.17582" lon="-1.96009">
        <ele>96</ele>
        <time>2021-03-14T13:55:56.000Z</time>
      </trkpt>
      <trkpt lat="47.17583" lon="-1.96026">
        <ele>96</ele>
        <time>2021-03-14T13:55:58.000Z</time>
      </trkpt>
      <trkpt lat="47.17583" lon="-1.96042">
        <ele>96</ele>
        <time>2021-03-14T13:56:00.000Z</time>
      </trkpt>
      <trkpt lat="47.17583" lon="-1.96058">
        <ele>96</ele>
        <time>2021-03-14T13:56:02.000Z</time>
      </trkpt>
      <trkpt lat="47.17583" lon="-1.96073">
        <ele>96</ele>
        <time>2021-03-14T13:56:04.000Z</time>
      </trkpt>
      <trkpt lat="47.17583" lon="-1.96089">
        <ele>96</ele>
        <time>2021-03-14T13:56:06.000Z</time>
      </trkpt>
      <trkpt lat="47.17584" lon="-1.96104">
        <ele>97</ele>
        <time>2021-03-14T13:56:08.000Z</time>
      </trkpt>
      <trkpt lat="47.17585" lon="-1.96119">
        <ele>97</ele>
        <time>2021-03-14T13:56:10.000Z</time>
      </trkpt>
      <trkpt lat="47.17586" lon="-1.96134">
        <ele>97</ele>
        <time>2021-03-14T13:56:12.000Z</time>
      </trkpt>
      <trkpt lat="47.17589" lon="-1.96148">
        <ele>97</ele>
        <time>2021-03-14T13:56:14.000Z</time>
      </trkpt>
      <trkpt lat="47.17592" lon="-1.96162">
        <ele>97</ele>
        <time>2021-03-14T13:56:16.000Z</time>
      </trkpt>
      <trkpt lat="47.17595" lon="-1.96176">
        <ele>97</ele>
        <time>2021-03-14T13:56:18.000Z</time>
      </trkpt>
      <trkpt lat="47.17599" lon="-1.96189">
        <ele>98</ele>
        <time>2021-03-14T13:56:20.000Z</time>
      </trkpt>
      <trkpt lat="47.17602" lon="-1.96203">
        <ele>98</ele>
        <time>2021-03-14T13:56:22.000Z</time>
      </trkpt>
      <trkpt lat="47.17605" lon="-1.96217">
        <ele>98</ele>
        <time>2021-03-14T13:56:24.000Z</time>
      </trkpt>
      <trkpt lat="47.17608" lon="-1.9623">
        <ele>98</ele>
        <time>2021-03-14T13:56:26.000Z</time>
      </trkpt>
      <trkpt lat="47.17611" lon="-1.96245">
        <ele>98</ele>
        <time>2021-03-14T13:56:28.000Z</time>
      </trkpt>
      <trkpt lat="47.17614" lon="-1.9626">
        <ele>98</ele>
        <time>2021-03-14T13:56:30.000Z</time>
      </trkpt>
      <trkpt lat="47.17617" lon="-1.96276">
        <ele>98</ele>
        <time>2021-03-14T13:56:32.000Z</time>
      </trkpt>
      <trkpt lat="47.1762" lon="-1.96291">
        <ele>98</ele>
        <time>2021-03-14T13:56:34.000Z</time>
      </trkpt>
      <trkpt lat="47.17623" lon="-1.96306">
        <ele>98</ele>
        <time>2021-03-14T13:56:36.000Z</time>
      </trkpt>
      <trkpt lat="47.17626" lon="-1.96321">
        <ele>98</ele>
        <time>2021-03-14T13:56:38.000Z</time>
      </trkpt>
      <trkpt lat="47.17629" lon="-1.96336">
        <ele>98</ele>
        <time>2021-03-14T13:56:40.000Z</time>
      </trkpt>
      <trkpt lat="47.17632" lon="-1.96352">
        <ele>98</ele>
        <time>2021-03-14T13:56:42.000Z</time>
      </trkpt>
      <trkpt lat="47.17636" lon="-1.96366">
        <ele>99</ele>
        <time>2021-03-14T13:56:44.000Z</time>
      </trkpt>
      <trkpt lat="47.17639" lon="-1.96381">
        <ele>100</ele>
        <time>2021-03-14T13:56:46.000Z</time>
      </trkpt>
      <trkpt lat="47.17642" lon="-1.96397">
        <ele>100</ele>
        <time>2021-03-14T13:56:48.000Z</time>
      </trkpt>
      <trkpt lat="47.17645" lon="-1.96412">
        <ele>100</ele>
        <time>2021-03-14T13:56:50.000Z</time>
      </trkpt>
      <trkpt lat="47.17648" lon="-1.96426">
        <ele>100</ele>
        <time>2021-03-14T13:56:52.000Z</time>
      </trkpt>
      <trkpt lat="47.17651" lon="-1.9644">
        <ele>100</ele>
        <time>2021-03-14T13:56:54.000Z</time>
      </trkpt>
      <trkpt lat="47.17654" lon="-1.96453">
        <ele>100</ele>
        <time>2021-03-14T13:56:56.000Z</time>
      </trkpt>
      <trkpt lat="47.17657" lon="-1.96466">
        <ele>100</ele>
        <time>2021-03-14T13:56:58.000Z</time>
      </trkpt>
      <trkpt lat="47.1766" lon="-1.9648">
        <ele>100</ele>
        <time>2021-03-14T13:57:00.000Z</time>
      </trkpt>
      <trkpt lat="47.17663" lon="-1.96492">
        <ele>100</ele>
        <time>2021-03-14T13:57:02.000Z</time>
      </trkpt>
      <trkpt lat="47.17665" lon="-1.96506">
        <ele>100</ele>
        <time>2021-03-14T13:57:04.000Z</time>
      </trkpt>
      <trkpt lat="47.17668" lon="-1.9652">
        <ele>100</ele>
        <time>2021-03-14T13:57:06.000Z</time>
      </trkpt>
      <trkpt lat="47.17671" lon="-1.96534">
        <ele>100</ele>
        <time>2021-03-14T13:57:08.000Z</time>
      </trkpt>
      <trkpt lat="47.17675" lon="-1.96546">
        <ele>100</ele>
        <time>2021-03-14T13:57:10.000Z</time>
      </trkpt>
      <trkpt lat="47.17683" lon="-1.96559">
        <ele>100</ele>
        <time>2021-03-14T13:57:13.000Z</time>
      </trkpt>
      <trkpt lat="47.17696" lon="-1.96557">
        <ele>101</ele>
        <time>2021-03-14T13:57:16.000Z</time>
      </trkpt>
      <trkpt lat="47.17706" lon="-1.9655">
        <ele>101</ele>
        <time>2021-03-14T13:57:18.000Z</time>
      </trkpt>
      <trkpt lat="47.17716" lon="-1.96543">
        <ele>101</ele>
        <time>2021-03-14T13:57:20.000Z</time>
      </trkpt>
      <trkpt lat="47.17727" lon="-1.96537">
        <ele>100</ele>
        <time>2021-03-14T13:57:22.000Z</time>
      </trkpt>
      <trkpt lat="47.17738" lon="-1.96531">
        <ele>100</ele>
        <time>2021-03-14T13:57:24.000Z</time>
      </trkpt>
      <trkpt lat="47.17749" lon="-1.96526">
        <ele>100</ele>
        <time>2021-03-14T13:57:26.000Z</time>
      </trkpt>
      <trkpt lat="47.1776" lon="-1.96521">
        <ele>100</ele>
        <time>2021-03-14T13:57:28.000Z</time>
      </trkpt>
      <trkpt lat="47.1777" lon="-1.96516">
        <ele>100</ele>
        <time>2021-03-14T13:57:30.000Z</time>
      </trkpt>
      <trkpt lat="47.17781" lon="-1.96512">
        <ele>101</ele>
        <time>2021-03-14T13:57:32.000Z</time>
      </trkpt>
      <trkpt lat="47.17791" lon="-1.96507">
        <ele>101</ele>
        <time>2021-03-14T13:57:34.000Z</time>
      </trkpt>
      <trkpt lat="47.17801" lon="-1.96503">
        <ele>101</ele>
        <time>2021-03-14T13:57:36.000Z</time>
      </trkpt>
      <trkpt lat="47.17812" lon="-1.96501">
        <ele>101</ele>
        <time>2021-03-14T13:57:38.000Z</time>
      </trkpt>
      <trkpt lat="47.17823" lon="-1.96499">
        <ele>101</ele>
        <time>2021-03-14T13:57:40.000Z</time>
      </trkpt>
      <trkpt lat="47.17834" lon="-1.96497">
        <ele>100</ele>
        <time>2021-03-14T13:57:42.000Z</time>
      </trkpt>
      <trkpt lat="47.17844" lon="-1.96496">
        <ele>101</ele>
        <time>2021-03-14T13:57:44.000Z</time>
      </trkpt>
      <trkpt lat="47.17855" lon="-1.96493">
        <ele>100</ele>
        <time>2021-03-14T13:57:46.000Z</time>
      </trkpt>
      <trkpt lat="47.17866" lon="-1.9649">
        <ele>100</ele>
        <time>2021-03-14T13:57:48.000Z</time>
      </trkpt>
      <trkpt lat="47.17877" lon="-1.96487">
        <ele>100</ele>
        <time>2021-03-14T13:57:50.000Z</time>
      </trkpt>
      <trkpt lat="47.17889" lon="-1.96484">
        <ele>100</ele>
        <time>2021-03-14T13:57:52.000Z</time>
      </trkpt>
      <trkpt lat="47.179" lon="-1.96482">
        <ele>99</ele>
        <time>2021-03-14T13:57:54.000Z</time>
      </trkpt>
      <trkpt lat="47.17912" lon="-1.96479">
        <ele>100</ele>
        <time>2021-03-14T13:57:56.000Z</time>
      </trkpt>
      <trkpt lat="47.17925" lon="-1.96476">
        <ele>99</ele>
        <time>2021-03-14T13:57:58.000Z</time>
      </trkpt>
      <trkpt lat="47.17936" lon="-1.96473">
        <ele>99</ele>
        <time>2021-03-14T13:58:00.000Z</time>
      </trkpt>
      <trkpt lat="47.17948" lon="-1.9647">
        <ele>99</ele>
        <time>2021-03-14T13:58:02.000Z</time>
      </trkpt>
      <trkpt lat="47.1796" lon="-1.96468">
        <ele>99</ele>
        <time>2021-03-14T13:58:04.000Z</time>
      </trkpt>
      <trkpt lat="47.17972" lon="-1.96465">
        <ele>99</ele>
        <time>2021-03-14T13:58:06.000Z</time>
      </trkpt>
      <trkpt lat="47.17983" lon="-1.96462">
        <ele>99</ele>
        <time>2021-03-14T13:58:08.000Z</time>
      </trkpt>
      <trkpt lat="47.17995" lon="-1.96459">
        <ele>99</ele>
        <time>2021-03-14T13:58:10.000Z</time>
      </trkpt>
      <trkpt lat="47.18007" lon="-1.96456">
        <ele>99</ele>
        <time>2021-03-14T13:58:12.000Z</time>
      </trkpt>
      <trkpt lat="47.18018" lon="-1.96454">
        <ele>99</ele>
        <time>2021-03-14T13:58:14.000Z</time>
      </trkpt>
      <trkpt lat="47.18029" lon="-1.96451">
        <ele>99</ele>
        <time>2021-03-14T13:58:16.000Z</time>
      </trkpt>
      <trkpt lat="47.1804" lon="-1.96449">
        <ele>99</ele>
        <time>2021-03-14T13:58:18.000Z</time>
      </trkpt>
      <trkpt lat="47.18052" lon="-1.96447">
        <ele>98</ele>
        <time>2021-03-14T13:58:20.000Z</time>
      </trkpt>
      <trkpt lat="47.18063" lon="-1.96445">
        <ele>99</ele>
        <time>2021-03-14T13:58:22.000Z</time>
      </trkpt>
      <trkpt lat="47.18074" lon="-1.96442">
        <ele>99</ele>
        <time>2021-03-14T13:58:24.000Z</time>
      </trkpt>
      <trkpt lat="47.18085" lon="-1.96439">
        <ele>99</ele>
        <time>2021-03-14T13:58:26.000Z</time>
      </trkpt>
      <trkpt lat="47.18096" lon="-1.96437">
        <ele>99</ele>
        <time>2021-03-14T13:58:28.000Z</time>
      </trkpt>
      <trkpt lat="47.18106" lon="-1.96434">
        <ele>99</ele>
        <time>2021-03-14T13:58:30.000Z</time>
      </trkpt>
      <trkpt lat="47.18117" lon="-1.96432">
        <ele>100</ele>
        <time>2021-03-14T13:58:32.000Z</time>
      </trkpt>
      <trkpt lat="47.18128" lon="-1.96429">
        <ele>100</ele>
        <time>2021-03-14T13:58:34.000Z</time>
      </trkpt>
      <trkpt lat="47.18139" lon="-1.96427">
        <ele>100</ele>
        <time>2021-03-14T13:58:36.000Z</time>
      </trkpt>
      <trkpt lat="47.18149" lon="-1.96424">
        <ele>100</ele>
        <time>2021-03-14T13:58:38.000Z</time>
      </trkpt>
      <trkpt lat="47.1816" lon="-1.96422">
        <ele>100</ele>
        <time>2021-03-14T13:58:40.000Z</time>
      </trkpt>
      <trkpt lat="47.1817" lon="-1.96419">
        <ele>100</ele>
        <time>2021-03-14T13:58:42.000Z</time>
      </trkpt>
      <trkpt lat="47.1818" lon="-1.96416">
        <ele>100</ele>
        <time>2021-03-14T13:58:44.000Z</time>
      </trkpt>
      <trkpt lat="47.18191" lon="-1.96414">
        <ele>99</ele>
        <time>2021-03-14T13:58:46.000Z</time>
      </trkpt>
      <trkpt lat="47.18201" lon="-1.96411">
        <ele>100</ele>
        <time>2021-03-14T13:58:48.000Z</time>
      </trkpt>
      <trkpt lat="47.18213" lon="-1.96408">
        <ele>101</ele>
        <time>2021-03-14T13:58:50.000Z</time>
      </trkpt>
      <trkpt lat="47.18223" lon="-1.96406">
        <ele>101</ele>
        <time>2021-03-14T13:58:52.000Z</time>
      </trkpt>
      <trkpt lat="47.18233" lon="-1.96404">
        <ele>101</ele>
        <time>2021-03-14T13:58:54.000Z</time>
      </trkpt>
      <trkpt lat="47.18243" lon="-1.96401">
        <ele>101</ele>
        <time>2021-03-14T13:58:56.000Z</time>
      </trkpt>
      <trkpt lat="47.18254" lon="-1.96398">
        <ele>102</ele>
        <time>2021-03-14T13:58:58.000Z</time>
      </trkpt>
      <trkpt lat="47.18265" lon="-1.96395">
        <ele>102</ele>
        <time>2021-03-14T13:59:00.000Z</time>
      </trkpt>
      <trkpt lat="47.18275" lon="-1.96393">
        <ele>102</ele>
        <time>2021-03-14T13:59:02.000Z</time>
      </trkpt>
      <trkpt lat="47.18286" lon="-1.9639">
        <ele>102</ele>
        <time>2021-03-14T13:59:04.000Z</time>
      </trkpt>
      <trkpt lat="47.18296" lon="-1.96387">
        <ele>102</ele>
        <time>2021-03-14T13:59:06.000Z</time>
      </trkpt>
      <trkpt lat="47.18307" lon="-1.96385">
        <ele>103</ele>
        <time>2021-03-14T13:59:08.000Z</time>
      </trkpt>
      <trkpt lat="47.18317" lon="-1.96383">
        <ele>103</ele>
        <time>2021-03-14T13:59:10.000Z</time>
      </trkpt>
      <trkpt lat="47.18328" lon="-1.9638">
        <ele>102</ele>
        <time>2021-03-14T13:59:12.000Z</time>
      </trkpt>
      <trkpt lat="47.18339" lon="-1.96379">
        <ele>103</ele>
        <time>2021-03-14T13:59:14.000Z</time>
      </trkpt>
      <trkpt lat="47.1835" lon="-1.96375">
        <ele>103</ele>
        <time>2021-03-14T13:59:16.000Z</time>
      </trkpt>
      <trkpt lat="47.18361" lon="-1.96372">
        <ele>104</ele>
        <time>2021-03-14T13:59:18.000Z</time>
      </trkpt>
      <trkpt lat="47.18371" lon="-1.96369">
        <ele>104</ele>
        <time>2021-03-14T13:59:20.000Z</time>
      </trkpt>
      <trkpt lat="47.18382" lon="-1.96365">
        <ele>104</ele>
        <time>2021-03-14T13:59:22.000Z</time>
      </trkpt>
      <trkpt lat="47.18392" lon="-1.96359">
        <ele>104</ele>
        <time>2021-03-14T13:59:24.000Z</time>
      </trkpt>
      <trkpt lat="47.18403" lon="-1.96355">
        <ele>105</ele>
        <time>2021-03-14T13:59:26.000Z</time>
      </trkpt>
      <trkpt lat="47.18413" lon="-1.9635">
        <ele>105</ele>
        <time>2021-03-14T13:59:28.000Z</time>
      </trkpt>
      <trkpt lat="47.18424" lon="-1.96346">
        <ele>104</ele>
        <time>2021-03-14T13:59:30.000Z</time>
      </trkpt>
      <trkpt lat="47.18436" lon="-1.96346">
        <ele>104</ele>
        <time>2021-03-14T13:59:32.000Z</time>
      </trkpt>
      <trkpt lat="47.18447" lon="-1.96351">
        <ele>105</ele>
        <time>2021-03-14T13:59:34.000Z</time>
      </trkpt>
      <trkpt lat="47.18458" lon="-1.96355">
        <ele>104</ele>
        <time>2021-03-14T13:59:36.000Z</time>
      </trkpt>
      <trkpt lat="47.1847" lon="-1.96352">
        <ele>104</ele>
        <time>2021-03-14T13:59:38.000Z</time>
      </trkpt>
      <trkpt lat="47.1848" lon="-1.96344">
        <ele>104</ele>
        <time>2021-03-14T13:59:40.000Z</time>
      </trkpt>
      <trkpt lat="47.18491" lon="-1.96335">
        <ele>104</ele>
        <time>2021-03-14T13:59:42.000Z</time>
      </trkpt>
      <trkpt lat="47.18502" lon="-1.96329">
        <ele>104</ele>
        <time>2021-03-14T13:59:44.000Z</time>
      </trkpt>
      <trkpt lat="47.18514" lon="-1.96324">
        <ele>104</ele>
        <time>2021-03-14T13:59:46.000Z</time>
      </trkpt>
      <trkpt lat="47.18527" lon="-1.9632">
        <ele>103</ele>
        <time>2021-03-14T13:59:48.000Z</time>
      </trkpt>
      <trkpt lat="47.18541" lon="-1.96315">
        <ele>103</ele>
        <time>2021-03-14T13:59:50.000Z</time>
      </trkpt>
      <trkpt lat="47.18555" lon="-1.96309">
        <ele>103</ele>
        <time>2021-03-14T13:59:52.000Z</time>
      </trkpt>
      <trkpt lat="47.18569" lon="-1.96303">
        <ele>103</ele>
        <time>2021-03-14T13:59:54.000Z</time>
      </trkpt>
      <trkpt lat="47.18585" lon="-1.96297">
        <ele>102</ele>
        <time>2021-03-14T13:59:56.000Z</time>
      </trkpt>
      <trkpt lat="47.186" lon="-1.96291">
        <ele>101</ele>
        <time>2021-03-14T13:59:58.000Z</time>
      </trkpt>
      <trkpt lat="47.18617" lon="-1.96284">
        <ele>101</ele>
        <time>2021-03-14T14:00:00.000Z</time>
      </trkpt>
      <trkpt lat="47.18633" lon="-1.96277">
        <ele>100</ele>
        <time>2021-03-14T14:00:02.000Z</time>
      </trkpt>
      <trkpt lat="47.18651" lon="-1.9627">
        <ele>99</ele>
        <time>2021-03-14T14:00:04.000Z</time>
      </trkpt>
      <trkpt lat="47.1866" lon="-1.96266">
        <ele>99</ele>
        <time>2021-03-14T14:00:05.000Z</time>
      </trkpt>
      <trkpt lat="47.18669" lon="-1.96262">
        <ele>99</ele>
        <time>2021-03-14T14:00:06.000Z</time>
      </trkpt>
      <trkpt lat="47.18679" lon="-1.96258">
        <ele>98</ele>
        <time>2021-03-14T14:00:07.000Z</time>
      </trkpt>
      <trkpt lat="47.18688" lon="-1.96254">
        <ele>97</ele>
        <time>2021-03-14T14:00:08.000Z</time>
      </trkpt>
      <trkpt lat="47.18698" lon="-1.9625">
        <ele>97</ele>
        <time>2021-03-14T14:00:09.000Z</time>
      </trkpt>
      <trkpt lat="47.18707" lon="-1.96246">
        <ele>96</ele>
        <time>2021-03-14T14:00:10.000Z</time>
      </trkpt>
      <trkpt lat="47.18716" lon="-1.96242">
        <ele>95</ele>
        <time>2021-03-14T14:00:11.000Z</time>
      </trkpt>
      <trkpt lat="47.18726" lon="-1.96238">
        <ele>95</ele>
        <time>2021-03-14T14:00:12.000Z</time>
      </trkpt>
      <trkpt lat="47.18735" lon="-1.96234">
        <ele>94</ele>
        <time>2021-03-14T14:00:13.000Z</time>
      </trkpt>
      <trkpt lat="47.18745" lon="-1.9623">
        <ele>93</ele>
        <time>2021-03-14T14:00:14.000Z</time>
      </trkpt>
      <trkpt lat="47.18754" lon="-1.96226">
        <ele>93</ele>
        <time>2021-03-14T14:00:15.000Z</time>
      </trkpt>
      <trkpt lat="47.18764" lon="-1.96222">
        <ele>92</ele>
        <time>2021-03-14T14:00:16.000Z</time>
      </trkpt>
      <trkpt lat="47.18774" lon="-1.96218">
        <ele>91</ele>
        <time>2021-03-14T14:00:17.000Z</time>
      </trkpt>
      <trkpt lat="47.18784" lon="-1.96214">
        <ele>90</ele>
        <time>2021-03-14T14:00:18.000Z</time>
      </trkpt>
      <trkpt lat="47.18794" lon="-1.9621">
        <ele>90</ele>
        <time>2021-03-14T14:00:19.000Z</time>
      </trkpt>
      <trkpt lat="47.18804" lon="-1.96206">
        <ele>90</ele>
        <time>2021-03-14T14:00:20.000Z</time>
      </trkpt>
      <trkpt lat="47.18814" lon="-1.96202">
        <ele>89</ele>
        <time>2021-03-14T14:00:21.000Z</time>
      </trkpt>
      <trkpt lat="47.18824" lon="-1.96198">
        <ele>88</ele>
        <time>2021-03-14T14:00:22.000Z</time>
      </trkpt>
      <trkpt lat="47.18834" lon="-1.96194">
        <ele>88</ele>
        <time>2021-03-14T14:00:23.000Z</time>
      </trkpt>
      <trkpt lat="47.18844" lon="-1.96189">
        <ele>87</ele>
        <time>2021-03-14T14:00:24.000Z</time>
      </trkpt>
      <trkpt lat="47.18854" lon="-1.96185">
        <ele>87</ele>
        <time>2021-03-14T14:00:25.000Z</time>
      </trkpt>
      <trkpt lat="47.18864" lon="-1.96181">
        <ele>86</ele>
        <time>2021-03-14T14:00:26.000Z</time>
      </trkpt>
      <trkpt lat="47.18874" lon="-1.96178">
        <ele>85</ele>
        <time>2021-03-14T14:00:27.000Z</time>
      </trkpt>
      <trkpt lat="47.18884" lon="-1.96174">
        <ele>85</ele>
        <time>2021-03-14T14:00:28.000Z</time>
      </trkpt>
      <trkpt lat="47.18895" lon="-1.9617">
        <ele>84</ele>
        <time>2021-03-14T14:00:29.000Z</time>
      </trkpt>
      <trkpt lat="47.18905" lon="-1.96166">
        <ele>84</ele>
        <time>2021-03-14T14:00:30.000Z</time>
      </trkpt>
      <trkpt lat="47.18915" lon="-1.96162">
        <ele>83</ele>
        <time>2021-03-14T14:00:31.000Z</time>
      </trkpt>
      <trkpt lat="47.18925" lon="-1.96159">
        <ele>83</ele>
        <time>2021-03-14T14:00:32.000Z</time>
      </trkpt>
      <trkpt lat="47.18935" lon="-1.96155">
        <ele>82</ele>
        <time>2021-03-14T14:00:33.000Z</time>
      </trkpt>
      <trkpt lat="47.18945" lon="-1.96151">
        <ele>82</ele>
        <time>2021-03-14T14:00:34.000Z</time>
      </trkpt>
      <trkpt lat="47.18955" lon="-1.96146">
        <ele>81</ele>
        <time>2021-03-14T14:00:35.000Z</time>
      </trkpt>
      <trkpt lat="47.18965" lon="-1.96143">
        <ele>81</ele>
        <time>2021-03-14T14:00:36.000Z</time>
      </trkpt>
      <trkpt lat="47.18975" lon="-1.96139">
        <ele>80</ele>
        <time>2021-03-14T14:00:37.000Z</time>
      </trkpt>
      <trkpt lat="47.18985" lon="-1.96135">
        <ele>80</ele>
        <time>2021-03-14T14:00:38.000Z</time>
      </trkpt>
      <trkpt lat="47.18994" lon="-1.96131">
        <ele>79</ele>
        <time>2021-03-14T14:00:39.000Z</time>
      </trkpt>
      <trkpt lat="47.19004" lon="-1.96127">
        <ele>79</ele>
        <time>2021-03-14T14:00:40.000Z</time>
      </trkpt>
      <trkpt lat="47.19014" lon="-1.96123">
        <ele>78</ele>
        <time>2021-03-14T14:00:41.000Z</time>
      </trkpt>
      <trkpt lat="47.19024" lon="-1.96118">
        <ele>78</ele>
        <time>2021-03-14T14:00:42.000Z</time>
      </trkpt>
      <trkpt lat="47.19034" lon="-1.96114">
        <ele>77</ele>
        <time>2021-03-14T14:00:43.000Z</time>
      </trkpt>
      <trkpt lat="47.19044" lon="-1.9611">
        <ele>77</ele>
        <time>2021-03-14T14:00:44.000Z</time>
      </trkpt>
      <trkpt lat="47.19054" lon="-1.96106">
        <ele>77</ele>
        <time>2021-03-14T14:00:45.000Z</time>
      </trkpt>
      <trkpt lat="47.19063" lon="-1.96103">
        <ele>76</ele>
        <time>2021-03-14T14:00:46.000Z</time>
      </trkpt>
      <trkpt lat="47.19072" lon="-1.96099">
        <ele>76</ele>
        <time>2021-03-14T14:00:47.000Z</time>
      </trkpt>
      <trkpt lat="47.19081" lon="-1.96095">
        <ele>76</ele>
        <time>2021-03-14T14:00:48.000Z</time>
      </trkpt>
      <trkpt lat="47.19091" lon="-1.96092">
        <ele>76</ele>
        <time>2021-03-14T14:00:49.000Z</time>
      </trkpt>
      <trkpt lat="47.191" lon="-1.96089">
        <ele>75</ele>
        <time>2021-03-14T14:00:50.000Z</time>
      </trkpt>
      <trkpt lat="47.19108" lon="-1.96087">
        <ele>74</ele>
        <time>2021-03-14T14:00:51.000Z</time>
      </trkpt>
      <trkpt lat="47.19118" lon="-1.96085">
        <ele>74</ele>
        <time>2021-03-14T14:00:52.000Z</time>
      </trkpt>
      <trkpt lat="47.19127" lon="-1.96084">
        <ele>74</ele>
        <time>2021-03-14T14:00:53.000Z</time>
      </trkpt>
      <trkpt lat="47.19136" lon="-1.96083">
        <ele>74</ele>
        <time>2021-03-14T14:00:54.000Z</time>
      </trkpt>
      <trkpt lat="47.19145" lon="-1.96083">
        <ele>73</ele>
        <time>2021-03-14T14:00:55.000Z</time>
      </trkpt>
      <trkpt lat="47.19163" lon="-1.96083">
        <ele>72</ele>
        <time>2021-03-14T14:00:57.000Z</time>
      </trkpt>
      <trkpt lat="47.19172" lon="-1.96084">
        <ele>72</ele>
        <time>2021-03-14T14:00:58.000Z</time>
      </trkpt>
      <trkpt lat="47.19182" lon="-1.96084">
        <ele>72</ele>
        <time>2021-03-14T14:00:59.000Z</time>
      </trkpt>
      <trkpt lat="47.19191" lon="-1.96084">
        <ele>72</ele>
        <time>2021-03-14T14:01:00.000Z</time>
      </trkpt>
      <trkpt lat="47.192" lon="-1.96085">
        <ele>71</ele>
        <time>2021-03-14T14:01:01.000Z</time>
      </trkpt>
      <trkpt lat="47.19209" lon="-1.96085">
        <ele>71</ele>
        <time>2021-03-14T14:01:02.000Z</time>
      </trkpt>
      <trkpt lat="47.19227" lon="-1.96086">
        <ele>71</ele>
        <time>2021-03-14T14:01:04.000Z</time>
      </trkpt>
      <trkpt lat="47.19244" lon="-1.96087">
        <ele>70</ele>
        <time>2021-03-14T14:01:06.000Z</time>
      </trkpt>
      <trkpt lat="47.19261" lon="-1.96087">
        <ele>71</ele>
        <time>2021-03-14T14:01:08.000Z</time>
      </trkpt>
      <trkpt lat="47.19277" lon="-1.96088">
        <ele>71</ele>
        <time>2021-03-14T14:01:10.000Z</time>
      </trkpt>
      <trkpt lat="47.19292" lon="-1.96089">
        <ele>71</ele>
        <time>2021-03-14T14:01:12.000Z</time>
      </trkpt>
      <trkpt lat="47.19305" lon="-1.96089">
        <ele>71</ele>
        <time>2021-03-14T14:01:14.000Z</time>
      </trkpt>
      <trkpt lat="47.19318" lon="-1.96089">
        <ele>71</ele>
        <time>2021-03-14T14:01:16.000Z</time>
      </trkpt>
      <trkpt lat="47.1933" lon="-1.96089">
        <ele>71</ele>
        <time>2021-03-14T14:01:18.000Z</time>
      </trkpt>
      <trkpt lat="47.19343" lon="-1.9609">
        <ele>70</ele>
        <time>2021-03-14T14:01:20.000Z</time>
      </trkpt>
      <trkpt lat="47.19356" lon="-1.9609">
        <ele>70</ele>
        <time>2021-03-14T14:01:22.000Z</time>
      </trkpt>
      <trkpt lat="47.19369" lon="-1.9609">
        <ele>70</ele>
        <time>2021-03-14T14:01:24.000Z</time>
      </trkpt>
      <trkpt lat="47.19381" lon="-1.96093">
        <ele>71</ele>
        <time>2021-03-14T14:01:26.000Z</time>
      </trkpt>
      <trkpt lat="47.19393" lon="-1.96098">
        <ele>71</ele>
        <time>2021-03-14T14:01:28.000Z</time>
      </trkpt>
      <trkpt lat="47.19404" lon="-1.96106">
        <ele>72</ele>
        <time>2021-03-14T14:01:30.000Z</time>
      </trkpt>
      <trkpt lat="47.19415" lon="-1.96114">
        <ele>72</ele>
        <time>2021-03-14T14:01:32.000Z</time>
      </trkpt>
      <trkpt lat="47.19426" lon="-1.96122">
        <ele>72</ele>
        <time>2021-03-14T14:01:34.000Z</time>
      </trkpt>
      <trkpt lat="47.19437" lon="-1.96131">
        <ele>73</ele>
        <time>2021-03-14T14:01:36.000Z</time>
      </trkpt>
      <trkpt lat="47.19447" lon="-1.96139">
        <ele>73</ele>
        <time>2021-03-14T14:01:38.000Z</time>
      </trkpt>
      <trkpt lat="47.19456" lon="-1.96147">
        <ele>74</ele>
        <time>2021-03-14T14:01:40.000Z</time>
      </trkpt>
      <trkpt lat="47.19465" lon="-1.96155">
        <ele>74</ele>
        <time>2021-03-14T14:01:42.000Z</time>
      </trkpt>
      <trkpt lat="47.19474" lon="-1.96162">
        <ele>74</ele>
        <time>2021-03-14T14:01:44.000Z</time>
      </trkpt>
      <trkpt lat="47.19483" lon="-1.9617">
        <ele>75</ele>
        <time>2021-03-14T14:01:46.000Z</time>
      </trkpt>
      <trkpt lat="47.19493" lon="-1.96177">
        <ele>75</ele>
        <time>2021-03-14T14:01:48.000Z</time>
      </trkpt>
      <trkpt lat="47.19502" lon="-1.96185">
        <ele>75</ele>
        <time>2021-03-14T14:01:50.000Z</time>
      </trkpt>
      <trkpt lat="47.19512" lon="-1.96193">
        <ele>76</ele>
        <time>2021-03-14T14:01:52.000Z</time>
      </trkpt>
      <trkpt lat="47.19522" lon="-1.962">
        <ele>76</ele>
        <time>2021-03-14T14:01:54.000Z</time>
      </trkpt>
      <trkpt lat="47.19533" lon="-1.96205">
        <ele>75</ele>
        <time>2021-03-14T14:01:56.000Z</time>
      </trkpt>
      <trkpt lat="47.19544" lon="-1.96209">
        <ele>75</ele>
        <time>2021-03-14T14:01:58.000Z</time>
      </trkpt>
      <trkpt lat="47.19556" lon="-1.96211">
        <ele>75</ele>
        <time>2021-03-14T14:02:00.000Z</time>
      </trkpt>
      <trkpt lat="47.19569" lon="-1.96212">
        <ele>74</ele>
        <time>2021-03-14T14:02:02.000Z</time>
      </trkpt>
      <trkpt lat="47.19582" lon="-1.96212">
        <ele>74</ele>
        <time>2021-03-14T14:02:04.000Z</time>
      </trkpt>
      <trkpt lat="47.19595" lon="-1.96213">
        <ele>74</ele>
        <time>2021-03-14T14:02:06.000Z</time>
      </trkpt>
      <trkpt lat="47.19609" lon="-1.96214">
        <ele>73</ele>
        <time>2021-03-14T14:02:08.000Z</time>
      </trkpt>
      <trkpt lat="47.19622" lon="-1.96215">
        <ele>72</ele>
        <time>2021-03-14T14:02:10.000Z</time>
      </trkpt>
      <trkpt lat="47.19635" lon="-1.96215">
        <ele>72</ele>
        <time>2021-03-14T14:02:12.000Z</time>
      </trkpt>
      <trkpt lat="47.19649" lon="-1.96216">
        <ele>71</ele>
        <time>2021-03-14T14:02:14.000Z</time>
      </trkpt>
      <trkpt lat="47.19663" lon="-1.96218">
        <ele>70</ele>
        <time>2021-03-14T14:02:16.000Z</time>
      </trkpt>
      <trkpt lat="47.19678" lon="-1.96219">
        <ele>70</ele>
        <time>2021-03-14T14:02:18.000Z</time>
      </trkpt>
      <trkpt lat="47.19693" lon="-1.96219">
        <ele>70</ele>
        <time>2021-03-14T14:02:20.000Z</time>
      </trkpt>
      <trkpt lat="47.19708" lon="-1.9622">
        <ele>69</ele>
        <time>2021-03-14T14:02:22.000Z</time>
      </trkpt>
      <trkpt lat="47.19723" lon="-1.96222">
        <ele>69</ele>
        <time>2021-03-14T14:02:24.000Z</time>
      </trkpt>
      <trkpt lat="47.19738" lon="-1.96222">
        <ele>69</ele>
        <time>2021-03-14T14:02:26.000Z</time>
      </trkpt>
      <trkpt lat="47.19752" lon="-1.96223">
        <ele>69</ele>
        <time>2021-03-14T14:02:28.000Z</time>
      </trkpt>
      <trkpt lat="47.19765" lon="-1.96223">
        <ele>69</ele>
        <time>2021-03-14T14:02:30.000Z</time>
      </trkpt>
      <trkpt lat="47.19779" lon="-1.96224">
        <ele>69</ele>
        <time>2021-03-14T14:02:32.000Z</time>
      </trkpt>
      <trkpt lat="47.19793" lon="-1.96225">
        <ele>70</ele>
        <time>2021-03-14T14:02:34.000Z</time>
      </trkpt>
      <trkpt lat="47.19806" lon="-1.96226">
        <ele>70</ele>
        <time>2021-03-14T14:02:36.000Z</time>
      </trkpt>
      <trkpt lat="47.1982" lon="-1.96227">
        <ele>71</ele>
        <time>2021-03-14T14:02:38.000Z</time>
      </trkpt>
      <trkpt lat="47.19832" lon="-1.96227">
        <ele>72</ele>
        <time>2021-03-14T14:02:40.000Z</time>
      </trkpt>
      <trkpt lat="47.19845" lon="-1.96228">
        <ele>72</ele>
        <time>2021-03-14T14:02:42.000Z</time>
      </trkpt>
      <trkpt lat="47.19859" lon="-1.96229">
        <ele>72</ele>
        <time>2021-03-14T14:02:44.000Z</time>
      </trkpt>
      <trkpt lat="47.19872" lon="-1.96231">
        <ele>72</ele>
        <time>2021-03-14T14:02:46.000Z</time>
      </trkpt>
      <trkpt lat="47.19885" lon="-1.96233">
        <ele>72</ele>
        <time>2021-03-14T14:02:48.000Z</time>
      </trkpt>
      <trkpt lat="47.19897" lon="-1.96238">
        <ele>71</ele>
        <time>2021-03-14T14:02:50.000Z</time>
      </trkpt>
      <trkpt lat="47.1991" lon="-1.96244">
        <ele>71</ele>
        <time>2021-03-14T14:02:52.000Z</time>
      </trkpt>
      <trkpt lat="47.19923" lon="-1.9625">
        <ele>71</ele>
        <time>2021-03-14T14:02:54.000Z</time>
      </trkpt>
      <trkpt lat="47.19935" lon="-1.96256">
        <ele>70</ele>
        <time>2021-03-14T14:02:56.000Z</time>
      </trkpt>
      <trkpt lat="47.19948" lon="-1.96264">
        <ele>70</ele>
        <time>2021-03-14T14:02:58.000Z</time>
      </trkpt>
      <trkpt lat="47.1996" lon="-1.9627">
        <ele>70</ele>
        <time>2021-03-14T14:03:00.000Z</time>
      </trkpt>
      <trkpt lat="47.19973" lon="-1.96277">
        <ele>69</ele>
        <time>2021-03-14T14:03:02.000Z</time>
      </trkpt>
      <trkpt lat="47.19985" lon="-1.96283">
        <ele>69</ele>
        <time>2021-03-14T14:03:04.000Z</time>
      </trkpt>
      <trkpt lat="47.19998" lon="-1.96291">
        <ele>68</ele>
        <time>2021-03-14T14:03:06.000Z</time>
      </trkpt>
      <trkpt lat="47.20012" lon="-1.96298">
        <ele>67</ele>
        <time>2021-03-14T14:03:08.000Z</time>
      </trkpt>
      <trkpt lat="47.20026" lon="-1.96305">
        <ele>66</ele>
        <time>2021-03-14T14:03:10.000Z</time>
      </trkpt>
      <trkpt lat="47.20041" lon="-1.96314">
        <ele>65</ele>
        <time>2021-03-14T14:03:12.000Z</time>
      </trkpt>
      <trkpt lat="47.20056" lon="-1.96322">
        <ele>64</ele>
        <time>2021-03-14T14:03:14.000Z</time>
      </trkpt>
      <trkpt lat="47.20073" lon="-1.9633">
        <ele>64</ele>
        <time>2021-03-14T14:03:16.000Z</time>
      </trkpt>
      <trkpt lat="47.20081" lon="-1.96335">
        <ele>64</ele>
        <time>2021-03-14T14:03:17.000Z</time>
      </trkpt>
      <trkpt lat="47.2009" lon="-1.96339">
        <ele>63</ele>
        <time>2021-03-14T14:03:18.000Z</time>
      </trkpt>
      <trkpt lat="47.20099" lon="-1.96344">
        <ele>63</ele>
        <time>2021-03-14T14:03:19.000Z</time>
      </trkpt>
      <trkpt lat="47.20108" lon="-1.96349">
        <ele>62</ele>
        <time>2021-03-14T14:03:20.000Z</time>
      </trkpt>
      <trkpt lat="47.20117" lon="-1.96354">
        <ele>61</ele>
        <time>2021-03-14T14:03:21.000Z</time>
      </trkpt>
      <trkpt lat="47.20126" lon="-1.96357">
        <ele>61</ele>
        <time>2021-03-14T14:03:22.000Z</time>
      </trkpt>
      <trkpt lat="47.20136" lon="-1.9636">
        <ele>60</ele>
        <time>2021-03-14T14:03:23.000Z</time>
      </trkpt>
      <trkpt lat="47.20146" lon="-1.96361">
        <ele>59</ele>
        <time>2021-03-14T14:03:24.000Z</time>
      </trkpt>
      <trkpt lat="47.20156" lon="-1.9636">
        <ele>59</ele>
        <time>2021-03-14T14:03:25.000Z</time>
      </trkpt>
      <trkpt lat="47.20166" lon="-1.96358">
        <ele>59</ele>
        <time>2021-03-14T14:03:26.000Z</time>
      </trkpt>
      <trkpt lat="47.20176" lon="-1.96354">
        <ele>59</ele>
        <time>2021-03-14T14:03:27.000Z</time>
      </trkpt>
      <trkpt lat="47.20185" lon="-1.9635">
        <ele>58</ele>
        <time>2021-03-14T14:03:28.000Z</time>
      </trkpt>
      <trkpt lat="47.20194" lon="-1.96347">
        <ele>58</ele>
        <time>2021-03-14T14:03:29.000Z</time>
      </trkpt>
      <trkpt lat="47.20203" lon="-1.96343">
        <ele>58</ele>
        <time>2021-03-14T14:03:30.000Z</time>
      </trkpt>
      <trkpt lat="47.20212" lon="-1.9634">
        <ele>58</ele>
        <time>2021-03-14T14:03:31.000Z</time>
      </trkpt>
      <trkpt lat="47.20229" lon="-1.96332">
        <ele>58</ele>
        <time>2021-03-14T14:03:33.000Z</time>
      </trkpt>
      <trkpt lat="47.20245" lon="-1.96325">
        <ele>58</ele>
        <time>2021-03-14T14:03:35.000Z</time>
      </trkpt>
      <trkpt lat="47.2026" lon="-1.96319">
        <ele>59</ele>
        <time>2021-03-14T14:03:37.000Z</time>
      </trkpt>
      <trkpt lat="47.20274" lon="-1.96314">
        <ele>58</ele>
        <time>2021-03-14T14:03:39.000Z</time>
      </trkpt>
      <trkpt lat="47.20289" lon="-1.96309">
        <ele>58</ele>
        <time>2021-03-14T14:03:41.000Z</time>
      </trkpt>
      <trkpt lat="47.20303" lon="-1.96303">
        <ele>58</ele>
        <time>2021-03-14T14:03:43.000Z</time>
      </trkpt>
      <trkpt lat="47.20316" lon="-1.96298">
        <ele>58</ele>
        <time>2021-03-14T14:03:45.000Z</time>
      </trkpt>
      <trkpt lat="47.20331" lon="-1.96293">
        <ele>58</ele>
        <time>2021-03-14T14:03:47.000Z</time>
      </trkpt>
      <trkpt lat="47.20344" lon="-1.96287">
        <ele>58</ele>
        <time>2021-03-14T14:03:49.000Z</time>
      </trkpt>
      <trkpt lat="47.20358" lon="-1.96281">
        <ele>59</ele>
        <time>2021-03-14T14:03:51.000Z</time>
      </trkpt>
      <trkpt lat="47.20371" lon="-1.96276">
        <ele>59</ele>
        <time>2021-03-14T14:03:53.000Z</time>
      </trkpt>
      <trkpt lat="47.20385" lon="-1.9627">
        <ele>59</ele>
        <time>2021-03-14T14:03:55.000Z</time>
      </trkpt>
      <trkpt lat="47.20399" lon="-1.96264">
        <ele>59</ele>
        <time>2021-03-14T14:03:57.000Z</time>
      </trkpt>
      <trkpt lat="47.20413" lon="-1.96258">
        <ele>58</ele>
        <time>2021-03-14T14:03:59.000Z</time>
      </trkpt>
      <trkpt lat="47.20427" lon="-1.96252">
        <ele>58</ele>
        <time>2021-03-14T14:04:01.000Z</time>
      </trkpt>
      <trkpt lat="47.20441" lon="-1.96246">
        <ele>58</ele>
        <time>2021-03-14T14:04:03.000Z</time>
      </trkpt>
      <trkpt lat="47.20455" lon="-1.9624">
        <ele>58</ele>
        <time>2021-03-14T14:04:05.000Z</time>
      </trkpt>
      <trkpt lat="47.20468" lon="-1.96232">
        <ele>57</ele>
        <time>2021-03-14T14:04:07.000Z</time>
      </trkpt>
      <trkpt lat="47.20481" lon="-1.96222">
        <ele>57</ele>
        <time>2021-03-14T14:04:09.000Z</time>
      </trkpt>
      <trkpt lat="47.20494" lon="-1.96211">
        <ele>57</ele>
        <time>2021-03-14T14:04:11.000Z</time>
      </trkpt>
      <trkpt lat="47.20506" lon="-1.96199">
        <ele>57</ele>
        <time>2021-03-14T14:04:13.000Z</time>
      </trkpt>
      <trkpt lat="47.20519" lon="-1.96189">
        <ele>57</ele>
        <time>2021-03-14T14:04:15.000Z</time>
      </trkpt>
      <trkpt lat="47.20531" lon="-1.96177">
        <ele>57</ele>
        <time>2021-03-14T14:04:17.000Z</time>
      </trkpt>
      <trkpt lat="47.20544" lon="-1.96166">
        <ele>58</ele>
        <time>2021-03-14T14:04:19.000Z</time>
      </trkpt>
      <trkpt lat="47.20556" lon="-1.96156">
        <ele>58</ele>
        <time>2021-03-14T14:04:21.000Z</time>
      </trkpt>
      <trkpt lat="47.20568" lon="-1.96145">
        <ele>58</ele>
        <time>2021-03-14T14:04:23.000Z</time>
      </trkpt>
      <trkpt lat="47.20579" lon="-1.96135">
        <ele>58</ele>
        <time>2021-03-14T14:04:25.000Z</time>
      </trkpt>
      <trkpt lat="47.2059" lon="-1.96125">
        <ele>57</ele>
        <time>2021-03-14T14:04:27.000Z</time>
      </trkpt>
      <trkpt lat="47.20601" lon="-1.96116">
        <ele>58</ele>
        <time>2021-03-14T14:04:29.000Z</time>
      </trkpt>
      <trkpt lat="47.20612" lon="-1.96106">
        <ele>58</ele>
        <time>2021-03-14T14:04:31.000Z</time>
      </trkpt>
      <trkpt lat="47.20623" lon="-1.96097">
        <ele>58</ele>
        <time>2021-03-14T14:04:33.000Z</time>
      </trkpt>
      <trkpt lat="47.20634" lon="-1.96087">
        <ele>58</ele>
        <time>2021-03-14T14:04:35.000Z</time>
      </trkpt>
      <trkpt lat="47.20645" lon="-1.96078">
        <ele>59</ele>
        <time>2021-03-14T14:04:37.000Z</time>
      </trkpt>
      <trkpt lat="47.20656" lon="-1.96067">
        <ele>59</ele>
        <time>2021-03-14T14:04:39.000Z</time>
      </trkpt>
      <trkpt lat="47.20667" lon="-1.96057">
        <ele>60</ele>
        <time>2021-03-14T14:04:41.000Z</time>
      </trkpt>
      <trkpt lat="47.20677" lon="-1.96045">
        <ele>60</ele>
        <time>2021-03-14T14:04:43.000Z</time>
      </trkpt>
      <trkpt lat="47.20687" lon="-1.96034">
        <ele>61</ele>
        <time>2021-03-14T14:04:45.000Z</time>
      </trkpt>
      <trkpt lat="47.20697" lon="-1.96022">
        <ele>61</ele>
        <time>2021-03-14T14:04:47.000Z</time>
      </trkpt>
      <trkpt lat="47.20706" lon="-1.96011">
        <ele>61</ele>
        <time>2021-03-14T14:04:49.000Z</time>
      </trkpt>
      <trkpt lat="47.20717" lon="-1.95999">
        <ele>61</ele>
        <time>2021-03-14T14:04:51.000Z</time>
      </trkpt>
      <trkpt lat="47.20727" lon="-1.95987">
        <ele>61</ele>
        <time>2021-03-14T14:04:53.000Z</time>
      </trkpt>
      <trkpt lat="47.20737" lon="-1.95975">
        <ele>62</ele>
        <time>2021-03-14T14:04:55.000Z</time>
      </trkpt>
      <trkpt lat="47.20748" lon="-1.95964">
        <ele>62</ele>
        <time>2021-03-14T14:04:57.000Z</time>
      </trkpt>
      <trkpt lat="47.20758" lon="-1.95953">
        <ele>62</ele>
        <time>2021-03-14T14:04:59.000Z</time>
      </trkpt>
      <trkpt lat="47.20768" lon="-1.95941">
        <ele>62</ele>
        <time>2021-03-14T14:05:01.000Z</time>
      </trkpt>
      <trkpt lat="47.20779" lon="-1.9593">
        <ele>62</ele>
        <time>2021-03-14T14:05:03.000Z</time>
      </trkpt>
      <trkpt lat="47.2079" lon="-1.9592">
        <ele>63</ele>
        <time>2021-03-14T14:05:05.000Z</time>
      </trkpt>
      <trkpt lat="47.20802" lon="-1.95911">
        <ele>63</ele>
        <time>2021-03-14T14:05:07.000Z</time>
      </trkpt>
      <trkpt lat="47.20814" lon="-1.95904">
        <ele>63</ele>
        <time>2021-03-14T14:05:09.000Z</time>
      </trkpt>
      <trkpt lat="47.20826" lon="-1.95897">
        <ele>63</ele>
        <time>2021-03-14T14:05:11.000Z</time>
      </trkpt>
      <trkpt lat="47.20837" lon="-1.9589">
        <ele>63</ele>
        <time>2021-03-14T14:05:13.000Z</time>
      </trkpt>
      <trkpt lat="47.20849" lon="-1.95883">
        <ele>64</ele>
        <time>2021-03-14T14:05:15.000Z</time>
      </trkpt>
      <trkpt lat="47.20861" lon="-1.95876">
        <ele>64</ele>
        <time>2021-03-14T14:05:17.000Z</time>
      </trkpt>
      <trkpt lat="47.20871" lon="-1.9587">
        <ele>64</ele>
        <time>2021-03-14T14:05:19.000Z</time>
      </trkpt>
      <trkpt lat="47.20882" lon="-1.95863">
        <ele>64</ele>
        <time>2021-03-14T14:05:21.000Z</time>
      </trkpt>
      <trkpt lat="47.20893" lon="-1.95857">
        <ele>64</ele>
        <time>2021-03-14T14:05:23.000Z</time>
      </trkpt>
      <trkpt lat="47.20904" lon="-1.95851">
        <ele>64</ele>
        <time>2021-03-14T14:05:25.000Z</time>
      </trkpt>
      <trkpt lat="47.20916" lon="-1.95844">
        <ele>63</ele>
        <time>2021-03-14T14:05:27.000Z</time>
      </trkpt>
      <trkpt lat="47.20929" lon="-1.95837">
        <ele>63</ele>
        <time>2021-03-14T14:05:29.000Z</time>
      </trkpt>
      <trkpt lat="47.20941" lon="-1.9583">
        <ele>62</ele>
        <time>2021-03-14T14:05:31.000Z</time>
      </trkpt>
      <trkpt lat="47.20955" lon="-1.95822">
        <ele>61</ele>
        <time>2021-03-14T14:05:33.000Z</time>
      </trkpt>
      <trkpt lat="47.20969" lon="-1.95813">
        <ele>61</ele>
        <time>2021-03-14T14:05:35.000Z</time>
      </trkpt>
      <trkpt lat="47.20982" lon="-1.95806">
        <ele>60</ele>
        <time>2021-03-14T14:05:37.000Z</time>
      </trkpt>
      <trkpt lat="47.20995" lon="-1.95799">
        <ele>60</ele>
        <time>2021-03-14T14:05:39.000Z</time>
      </trkpt>
      <trkpt lat="47.21008" lon="-1.95791">
        <ele>59</ele>
        <time>2021-03-14T14:05:41.000Z</time>
      </trkpt>
      <trkpt lat="47.21022" lon="-1.95783">
        <ele>59</ele>
        <time>2021-03-14T14:05:43.000Z</time>
      </trkpt>
      <trkpt lat="47.21035" lon="-1.95773">
        <ele>59</ele>
        <time>2021-03-14T14:05:45.000Z</time>
      </trkpt>
      <trkpt lat="47.21048" lon="-1.95763">
        <ele>59</ele>
        <time>2021-03-14T14:05:47.000Z</time>
      </trkpt>
      <trkpt lat="47.21061" lon="-1.95753">
        <ele>59</ele>
        <time>2021-03-14T14:05:49.000Z</time>
      </trkpt>
      <trkpt lat="47.21073" lon="-1.95742">
        <ele>59</ele>
        <time>2021-03-14T14:05:51.000Z</time>
      </trkpt>
      <trkpt lat="47.21085" lon="-1.95731">
        <ele>58</ele>
        <time>2021-03-14T14:05:53.000Z</time>
      </trkpt>
      <trkpt lat="47.21098" lon="-1.95719">
        <ele>58</ele>
        <time>2021-03-14T14:05:55.000Z</time>
      </trkpt>
      <trkpt lat="47.21111" lon="-1.95708">
        <ele>58</ele>
        <time>2021-03-14T14:05:57.000Z</time>
      </trkpt>
      <trkpt lat="47.21124" lon="-1.95696">
        <ele>57</ele>
        <time>2021-03-14T14:05:59.000Z</time>
      </trkpt>
      <trkpt lat="47.21137" lon="-1.95686">
        <ele>57</ele>
        <time>2021-03-14T14:06:01.000Z</time>
      </trkpt>
      <trkpt lat="47.2115" lon="-1.95676">
        <ele>57</ele>
        <time>2021-03-14T14:06:03.000Z</time>
      </trkpt>
      <trkpt lat="47.21163" lon="-1.95668">
        <ele>57</ele>
        <time>2021-03-14T14:06:05.000Z</time>
      </trkpt>
      <trkpt lat="47.21178" lon="-1.95659">
        <ele>57</ele>
        <time>2021-03-14T14:06:07.000Z</time>
      </trkpt>
      <trkpt lat="47.21192" lon="-1.95651">
        <ele>57</ele>
        <time>2021-03-14T14:06:09.000Z</time>
      </trkpt>
      <trkpt lat="47.21206" lon="-1.95643">
        <ele>56</ele>
        <time>2021-03-14T14:06:11.000Z</time>
      </trkpt>
      <trkpt lat="47.21221" lon="-1.95635">
        <ele>56</ele>
        <time>2021-03-14T14:06:13.000Z</time>
      </trkpt>
      <trkpt lat="47.21234" lon="-1.95628">
        <ele>56</ele>
        <time>2021-03-14T14:06:15.000Z</time>
      </trkpt>
      <trkpt lat="47.21247" lon="-1.95621">
        <ele>56</ele>
        <time>2021-03-14T14:06:17.000Z</time>
      </trkpt>
      <trkpt lat="47.2126" lon="-1.95614">
        <ele>56</ele>
        <time>2021-03-14T14:06:19.000Z</time>
      </trkpt>
      <trkpt lat="47.21273" lon="-1.95606">
        <ele>56</ele>
        <time>2021-03-14T14:06:21.000Z</time>
      </trkpt>
      <trkpt lat="47.21286" lon="-1.95597">
        <ele>56</ele>
        <time>2021-03-14T14:06:23.000Z</time>
      </trkpt>
      <trkpt lat="47.21298" lon="-1.95588">
        <ele>56</ele>
        <time>2021-03-14T14:06:25.000Z</time>
      </trkpt>
      <trkpt lat="47.2131" lon="-1.95579">
        <ele>56</ele>
        <time>2021-03-14T14:06:27.000Z</time>
      </trkpt>
      <trkpt lat="47.21321" lon="-1.9557">
        <ele>56</ele>
        <time>2021-03-14T14:06:29.000Z</time>
      </trkpt>
      <trkpt lat="47.21332" lon="-1.95561">
        <ele>56</ele>
        <time>2021-03-14T14:06:31.000Z</time>
      </trkpt>
      <trkpt lat="47.21344" lon="-1.95551">
        <ele>56</ele>
        <time>2021-03-14T14:06:33.000Z</time>
      </trkpt>
      <trkpt lat="47.21356" lon="-1.95542">
        <ele>57</ele>
        <time>2021-03-14T14:06:35.000Z</time>
      </trkpt>
      <trkpt lat="47.21367" lon="-1.95532">
        <ele>57</ele>
        <time>2021-03-14T14:06:37.000Z</time>
      </trkpt>
      <trkpt lat="47.21378" lon="-1.95523">
        <ele>57</ele>
        <time>2021-03-14T14:06:39.000Z</time>
      </trkpt>
      <trkpt lat="47.21389" lon="-1.95515">
        <ele>58</ele>
        <time>2021-03-14T14:06:41.000Z</time>
      </trkpt>
      <trkpt lat="47.21399" lon="-1.95508">
        <ele>58</ele>
        <time>2021-03-14T14:06:43.000Z</time>
      </trkpt>
      <trkpt lat="47.21409" lon="-1.95503">
        <ele>59</ele>
        <time>2021-03-14T14:06:45.000Z</time>
      </trkpt>
      <trkpt lat="47.21419" lon="-1.95497">
        <ele>59</ele>
        <time>2021-03-14T14:06:47.000Z</time>
      </trkpt>
      <trkpt lat="47.21428" lon="-1.95493">
        <ele>59</ele>
        <time>2021-03-14T14:06:49.000Z</time>
      </trkpt>
      <trkpt lat="47.21438" lon="-1.95491">
        <ele>60</ele>
        <time>2021-03-14T14:06:51.000Z</time>
      </trkpt>
      <trkpt lat="47.21448" lon="-1.95489">
        <ele>60</ele>
        <time>2021-03-14T14:06:53.000Z</time>
      </trkpt>
      <trkpt lat="47.21458" lon="-1.95487">
        <ele>61</ele>
        <time>2021-03-14T14:06:55.000Z</time>
      </trkpt>
      <trkpt lat="47.21469" lon="-1.95484">
        <ele>61</ele>
        <time>2021-03-14T14:06:57.000Z</time>
      </trkpt>
      <trkpt lat="47.2148" lon="-1.95483">
        <ele>62</ele>
        <time>2021-03-14T14:06:59.000Z</time>
      </trkpt>
      <trkpt lat="47.21491" lon="-1.95481">
        <ele>62</ele>
        <time>2021-03-14T14:07:01.000Z</time>
      </trkpt>
      <trkpt lat="47.21502" lon="-1.95479">
        <ele>63</ele>
        <time>2021-03-14T14:07:03.000Z</time>
      </trkpt>
      <trkpt lat="47.21514" lon="-1.95477">
        <ele>64</ele>
        <time>2021-03-14T14:07:05.000Z</time>
      </trkpt>
      <trkpt lat="47.21525" lon="-1.95475">
        <ele>64</ele>
        <time>2021-03-14T14:07:07.000Z</time>
      </trkpt>
      <trkpt lat="47.21537" lon="-1.95473">
        <ele>65</ele>
        <time>2021-03-14T14:07:09.000Z</time>
      </trkpt>
      <trkpt lat="47.21549" lon="-1.95471">
        <ele>66</ele>
        <time>2021-03-14T14:07:11.000Z</time>
      </trkpt>
      <trkpt lat="47.21562" lon="-1.95469">
        <ele>66</ele>
        <time>2021-03-14T14:07:13.000Z</time>
      </trkpt>
      <trkpt lat="47.21573" lon="-1.95467">
        <ele>67</ele>
        <time>2021-03-14T14:07:15.000Z</time>
      </trkpt>
      <trkpt lat="47.21584" lon="-1.95465">
        <ele>67</ele>
        <time>2021-03-14T14:07:17.000Z</time>
      </trkpt>
      <trkpt lat="47.21595" lon="-1.95463">
        <ele>68</ele>
        <time>2021-03-14T14:07:19.000Z</time>
      </trkpt>
      <trkpt lat="47.21606" lon="-1.95462">
        <ele>69</ele>
        <time>2021-03-14T14:07:21.000Z</time>
      </trkpt>
      <trkpt lat="47.21616" lon="-1.9546">
        <ele>69</ele>
        <time>2021-03-14T14:07:23.000Z</time>
      </trkpt>
      <trkpt lat="47.21627" lon="-1.95459">
        <ele>69</ele>
        <time>2021-03-14T14:07:25.000Z</time>
      </trkpt>
      <trkpt lat="47.21636" lon="-1.95459">
        <ele>70</ele>
        <time>2021-03-14T14:07:27.000Z</time>
      </trkpt>
      <trkpt lat="47.21647" lon="-1.95458">
        <ele>70</ele>
        <time>2021-03-14T14:07:29.000Z</time>
      </trkpt>
      <trkpt lat="47.21658" lon="-1.95459">
        <ele>70</ele>
        <time>2021-03-14T14:07:31.000Z</time>
      </trkpt>
      <trkpt lat="47.21668" lon="-1.95459">
        <ele>70</ele>
        <time>2021-03-14T14:07:33.000Z</time>
      </trkpt>
      <trkpt lat="47.21678" lon="-1.95459">
        <ele>70</ele>
        <time>2021-03-14T14:07:35.000Z</time>
      </trkpt>
      <trkpt lat="47.21689" lon="-1.95459">
        <ele>70</ele>
        <time>2021-03-14T14:07:37.000Z</time>
      </trkpt>
      <trkpt lat="47.217" lon="-1.95457">
        <ele>69</ele>
        <time>2021-03-14T14:07:39.000Z</time>
      </trkpt>
      <trkpt lat="47.21712" lon="-1.95453">
        <ele>69</ele>
        <time>2021-03-14T14:07:41.000Z</time>
      </trkpt>
      <trkpt lat="47.21724" lon="-1.95449">
        <ele>68</ele>
        <time>2021-03-14T14:07:43.000Z</time>
      </trkpt>
      <trkpt lat="47.21737" lon="-1.95443">
        <ele>68</ele>
        <time>2021-03-14T14:07:45.000Z</time>
      </trkpt>
      <trkpt lat="47.2175" lon="-1.95436">
        <ele>67</ele>
        <time>2021-03-14T14:07:47.000Z</time>
      </trkpt>
      <trkpt lat="47.21763" lon="-1.95429">
        <ele>67</ele>
        <time>2021-03-14T14:07:49.000Z</time>
      </trkpt>
      <trkpt lat="47.21776" lon="-1.95422">
        <ele>66</ele>
        <time>2021-03-14T14:07:51.000Z</time>
      </trkpt>
      <trkpt lat="47.2179" lon="-1.95414">
        <ele>66</ele>
        <time>2021-03-14T14:07:53.000Z</time>
      </trkpt>
      <trkpt lat="47.21803" lon="-1.95408">
        <ele>66</ele>
        <time>2021-03-14T14:07:55.000Z</time>
      </trkpt>
      <trkpt lat="47.21817" lon="-1.95401">
        <ele>66</ele>
        <time>2021-03-14T14:07:57.000Z</time>
      </trkpt>
      <trkpt lat="47.2183" lon="-1.95395">
        <ele>66</ele>
        <time>2021-03-14T14:07:59.000Z</time>
      </trkpt>
      <trkpt lat="47.21843" lon="-1.95391">
        <ele>66</ele>
        <time>2021-03-14T14:08:01.000Z</time>
      </trkpt>
      <trkpt lat="47.21856" lon="-1.95388">
        <ele>65</ele>
        <time>2021-03-14T14:08:03.000Z</time>
      </trkpt>
      <trkpt lat="47.21869" lon="-1.95386">
        <ele>66</ele>
        <time>2021-03-14T14:08:05.000Z</time>
      </trkpt>
      <trkpt lat="47.21882" lon="-1.95385">
        <ele>66</ele>
        <time>2021-03-14T14:08:07.000Z</time>
      </trkpt>
      <trkpt lat="47.21895" lon="-1.95384">
        <ele>66</ele>
        <time>2021-03-14T14:08:09.000Z</time>
      </trkpt>
      <trkpt lat="47.21908" lon="-1.95382">
        <ele>66</ele>
        <time>2021-03-14T14:08:11.000Z</time>
      </trkpt>
      <trkpt lat="47.21921" lon="-1.95379">
        <ele>67</ele>
        <time>2021-03-14T14:08:13.000Z</time>
      </trkpt>
      <trkpt lat="47.21933" lon="-1.95375">
        <ele>67</ele>
        <time>2021-03-14T14:08:15.000Z</time>
      </trkpt>
      <trkpt lat="47.21945" lon="-1.9537">
        <ele>67</ele>
        <time>2021-03-14T14:08:17.000Z</time>
      </trkpt>
      <trkpt lat="47.21956" lon="-1.95365">
        <ele>67</ele>
        <time>2021-03-14T14:08:19.000Z</time>
      </trkpt>
      <trkpt lat="47.21968" lon="-1.95359">
        <ele>67</ele>
        <time>2021-03-14T14:08:21.000Z</time>
      </trkpt>
      <trkpt lat="47.2198" lon="-1.95353">
        <ele>67</ele>
        <time>2021-03-14T14:08:23.000Z</time>
      </trkpt>
      <trkpt lat="47.21991" lon="-1.95347">
        <ele>67</ele>
        <time>2021-03-14T14:08:25.000Z</time>
      </trkpt>
      <trkpt lat="47.22002" lon="-1.95341">
        <ele>68</ele>
        <time>2021-03-14T14:08:27.000Z</time>
      </trkpt>
      <trkpt lat="47.22014" lon="-1.95336">
        <ele>68</ele>
        <time>2021-03-14T14:08:29.000Z</time>
      </trkpt>
      <trkpt lat="47.22025" lon="-1.9533">
        <ele>68</ele>
        <time>2021-03-14T14:08:31.000Z</time>
      </trkpt>
      <trkpt lat="47.22036" lon="-1.95325">
        <ele>68</ele>
        <time>2021-03-14T14:08:33.000Z</time>
      </trkpt>
      <trkpt lat="47.22046" lon="-1.95319">
        <ele>68</ele>
        <time>2021-03-14T14:08:35.000Z</time>
      </trkpt>
      <trkpt lat="47.22057" lon="-1.95313">
        <ele>68</ele>
        <time>2021-03-14T14:08:37.000Z</time>
      </trkpt>
      <trkpt lat="47.22068" lon="-1.95307">
        <ele>69</ele>
        <time>2021-03-14T14:08:39.000Z</time>
      </trkpt>
      <trkpt lat="47.22079" lon="-1.95302">
        <ele>69</ele>
        <time>2021-03-14T14:08:41.000Z</time>
      </trkpt>
      <trkpt lat="47.2209" lon="-1.95297">
        <ele>69</ele>
        <time>2021-03-14T14:08:43.000Z</time>
      </trkpt>
      <trkpt lat="47.22102" lon="-1.95292">
        <ele>70</ele>
        <time>2021-03-14T14:08:45.000Z</time>
      </trkpt>
      <trkpt lat="47.22113" lon="-1.95287">
        <ele>71</ele>
        <time>2021-03-14T14:08:47.000Z</time>
      </trkpt>
      <trkpt lat="47.22124" lon="-1.95281">
        <ele>71</ele>
        <time>2021-03-14T14:08:49.000Z</time>
      </trkpt>
      <trkpt lat="47.22135" lon="-1.95276">
        <ele>71</ele>
        <time>2021-03-14T14:08:51.000Z</time>
      </trkpt>
      <trkpt lat="47.22147" lon="-1.9527">
        <ele>72</ele>
        <time>2021-03-14T14:08:53.000Z</time>
      </trkpt>
      <trkpt lat="47.22159" lon="-1.95263">
        <ele>72</ele>
        <time>2021-03-14T14:08:55.000Z</time>
      </trkpt>
      <trkpt lat="47.2217" lon="-1.95257">
        <ele>72</ele>
        <time>2021-03-14T14:08:57.000Z</time>
      </trkpt>
      <trkpt lat="47.22181" lon="-1.95251">
        <ele>73</ele>
        <time>2021-03-14T14:08:59.000Z</time>
      </trkpt>
      <trkpt lat="47.22193" lon="-1.95244">
        <ele>73</ele>
        <time>2021-03-14T14:09:01.000Z</time>
      </trkpt>
      <trkpt lat="47.22203" lon="-1.95237">
        <ele>74</ele>
        <time>2021-03-14T14:09:03.000Z</time>
      </trkpt>
      <trkpt lat="47.22213" lon="-1.95229">
        <ele>74</ele>
        <time>2021-03-14T14:09:05.000Z</time>
      </trkpt>
      <trkpt lat="47.22223" lon="-1.95222">
        <ele>74</ele>
        <time>2021-03-14T14:09:07.000Z</time>
      </trkpt>
      <trkpt lat="47.22233" lon="-1.95214">
        <ele>74</ele>
        <time>2021-03-14T14:09:09.000Z</time>
      </trkpt>
      <trkpt lat="47.22243" lon="-1.95206">
        <ele>74</ele>
        <time>2021-03-14T14:09:11.000Z</time>
      </trkpt>
      <trkpt lat="47.22253" lon="-1.95198">
        <ele>75</ele>
        <time>2021-03-14T14:09:13.000Z</time>
      </trkpt>
      <trkpt lat="47.22263" lon="-1.9519">
        <ele>75</ele>
        <time>2021-03-14T14:09:15.000Z</time>
      </trkpt>
      <trkpt lat="47.22273" lon="-1.95182">
        <ele>75</ele>
        <time>2021-03-14T14:09:17.000Z</time>
      </trkpt>
      <trkpt lat="47.22283" lon="-1.95173">
        <ele>76</ele>
        <time>2021-03-14T14:09:19.000Z</time>
      </trkpt>
      <trkpt lat="47.22293" lon="-1.95165">
        <ele>76</ele>
        <time>2021-03-14T14:09:21.000Z</time>
      </trkpt>
      <trkpt lat="47.22303" lon="-1.95157">
        <ele>76</ele>
        <time>2021-03-14T14:09:23.000Z</time>
      </trkpt>
      <trkpt lat="47.22313" lon="-1.95149">
        <ele>76</ele>
        <time>2021-03-14T14:09:25.000Z</time>
      </trkpt>
      <trkpt lat="47.22324" lon="-1.95141">
        <ele>77</ele>
        <time>2021-03-14T14:09:27.000Z</time>
      </trkpt>
      <trkpt lat="47.22334" lon="-1.95133">
        <ele>77</ele>
        <time>2021-03-14T14:09:29.000Z</time>
      </trkpt>
      <trkpt lat="47.22344" lon="-1.95125">
        <ele>77</ele>
        <time>2021-03-14T14:09:31.000Z</time>
      </trkpt>
      <trkpt lat="47.22354" lon="-1.95117">
        <ele>77</ele>
        <time>2021-03-14T14:09:33.000Z</time>
      </trkpt>
      <trkpt lat="47.22364" lon="-1.95108">
        <ele>77</ele>
        <time>2021-03-14T14:09:35.000Z</time>
      </trkpt>
      <trkpt lat="47.22374" lon="-1.951">
        <ele>77</ele>
        <time>2021-03-14T14:09:37.000Z</time>
      </trkpt>
      <trkpt lat="47.22384" lon="-1.95093">
        <ele>77</ele>
        <time>2021-03-14T14:09:39.000Z</time>
      </trkpt>
      <trkpt lat="47.22394" lon="-1.95085">
        <ele>78</ele>
        <time>2021-03-14T14:09:41.000Z</time>
      </trkpt>
      <trkpt lat="47.22405" lon="-1.95077">
        <ele>78</ele>
        <time>2021-03-14T14:09:43.000Z</time>
      </trkpt>
      <trkpt lat="47.22416" lon="-1.95071">
        <ele>78</ele>
        <time>2021-03-14T14:09:45.000Z</time>
      </trkpt>
      <trkpt lat="47.22427" lon="-1.95065">
        <ele>78</ele>
        <time>2021-03-14T14:09:47.000Z</time>
      </trkpt>
      <trkpt lat="47.22438" lon="-1.95061">
        <ele>78</ele>
        <time>2021-03-14T14:09:49.000Z</time>
      </trkpt>
      <trkpt lat="47.22449" lon="-1.95057">
        <ele>78</ele>
        <time>2021-03-14T14:09:51.000Z</time>
      </trkpt>
      <trkpt lat="47.2246" lon="-1.95054">
        <ele>79</ele>
        <time>2021-03-14T14:09:53.000Z</time>
      </trkpt>
      <trkpt lat="47.22471" lon="-1.95051">
        <ele>79</ele>
        <time>2021-03-14T14:09:55.000Z</time>
      </trkpt>
      <trkpt lat="47.22482" lon="-1.95047">
        <ele>79</ele>
        <time>2021-03-14T14:09:57.000Z</time>
      </trkpt>
      <trkpt lat="47.22493" lon="-1.95044">
        <ele>79</ele>
        <time>2021-03-14T14:09:59.000Z</time>
      </trkpt>
      <trkpt lat="47.22504" lon="-1.95041">
        <ele>80</ele>
        <time>2021-03-14T14:10:01.000Z</time>
      </trkpt>
      <trkpt lat="47.22515" lon="-1.95038">
        <ele>80</ele>
        <time>2021-03-14T14:10:03.000Z</time>
      </trkpt>
      <trkpt lat="47.22525" lon="-1.95035">
        <ele>80</ele>
        <time>2021-03-14T14:10:05.000Z</time>
      </trkpt>
      <trkpt lat="47.22536" lon="-1.95033">
        <ele>81</ele>
        <time>2021-03-14T14:10:07.000Z</time>
      </trkpt>
      <trkpt lat="47.22548" lon="-1.9503">
        <ele>81</ele>
        <time>2021-03-14T14:10:09.000Z</time>
      </trkpt>
      <trkpt lat="47.22559" lon="-1.95027">
        <ele>82</ele>
        <time>2021-03-14T14:10:11.000Z</time>
      </trkpt>
      <trkpt lat="47.2257" lon="-1.95024">
        <ele>82</ele>
        <time>2021-03-14T14:10:13.000Z</time>
      </trkpt>
      <trkpt lat="47.22581" lon="-1.95021">
        <ele>82</ele>
        <time>2021-03-14T14:10:15.000Z</time>
      </trkpt>
      <trkpt lat="47.22592" lon="-1.95018">
        <ele>83</ele>
        <time>2021-03-14T14:10:17.000Z</time>
      </trkpt>
      <trkpt lat="47.22603" lon="-1.95015">
        <ele>83</ele>
        <time>2021-03-14T14:10:19.000Z</time>
      </trkpt>
      <trkpt lat="47.22614" lon="-1.95011">
        <ele>83</ele>
        <time>2021-03-14T14:10:21.000Z</time>
      </trkpt>
      <trkpt lat="47.22625" lon="-1.95006">
        <ele>83</ele>
        <time>2021-03-14T14:10:23.000Z</time>
      </trkpt>
      <trkpt lat="47.22636" lon="-1.94999">
        <ele>84</ele>
        <time>2021-03-14T14:10:25.000Z</time>
      </trkpt>
      <trkpt lat="47.22645" lon="-1.94992">
        <ele>84</ele>
        <time>2021-03-14T14:10:27.000Z</time>
      </trkpt>
      <trkpt lat="47.22654" lon="-1.94983">
        <ele>84</ele>
        <time>2021-03-14T14:10:29.000Z</time>
      </trkpt>
      <trkpt lat="47.22664" lon="-1.94973">
        <ele>84</ele>
        <time>2021-03-14T14:10:31.000Z</time>
      </trkpt>
      <trkpt lat="47.22673" lon="-1.94963">
        <ele>83</ele>
        <time>2021-03-14T14:10:33.000Z</time>
      </trkpt>
      <trkpt lat="47.22682" lon="-1.94953">
        <ele>83</ele>
        <time>2021-03-14T14:10:35.000Z</time>
      </trkpt>
      <trkpt lat="47.22693" lon="-1.94943">
        <ele>83</ele>
        <time>2021-03-14T14:10:37.000Z</time>
      </trkpt>
      <trkpt lat="47.22703" lon="-1.94933">
        <ele>83</ele>
        <time>2021-03-14T14:10:39.000Z</time>
      </trkpt>
      <trkpt lat="47.22714" lon="-1.94924">
        <ele>83</ele>
        <time>2021-03-14T14:10:41.000Z</time>
      </trkpt>
      <trkpt lat="47.22725" lon="-1.94915">
        <ele>83</ele>
        <time>2021-03-14T14:10:43.000Z</time>
      </trkpt>
      <trkpt lat="47.22737" lon="-1.94907">
        <ele>83</ele>
        <time>2021-03-14T14:10:45.000Z</time>
      </trkpt>
      <trkpt lat="47.22749" lon="-1.949">
        <ele>83</ele>
        <time>2021-03-14T14:10:47.000Z</time>
      </trkpt>
      <trkpt lat="47.22761" lon="-1.94893">
        <ele>83</ele>
        <time>2021-03-14T14:10:49.000Z</time>
      </trkpt>
      <trkpt lat="47.22773" lon="-1.94886">
        <ele>82</ele>
        <time>2021-03-14T14:10:51.000Z</time>
      </trkpt>
      <trkpt lat="47.22786" lon="-1.94879">
        <ele>82</ele>
        <time>2021-03-14T14:10:53.000Z</time>
      </trkpt>
      <trkpt lat="47.22798" lon="-1.94872">
        <ele>82</ele>
        <time>2021-03-14T14:10:55.000Z</time>
      </trkpt>
      <trkpt lat="47.2281" lon="-1.94865">
        <ele>81</ele>
        <time>2021-03-14T14:10:57.000Z</time>
      </trkpt>
      <trkpt lat="47.22823" lon="-1.94858">
        <ele>81</ele>
        <time>2021-03-14T14:10:59.000Z</time>
      </trkpt>
      <trkpt lat="47.22835" lon="-1.9485">
        <ele>81</ele>
        <time>2021-03-14T14:11:01.000Z</time>
      </trkpt>
      <trkpt lat="47.22847" lon="-1.94842">
        <ele>81</ele>
        <time>2021-03-14T14:11:03.000Z</time>
      </trkpt>
      <trkpt lat="47.22859" lon="-1.94836">
        <ele>81</ele>
        <time>2021-03-14T14:11:05.000Z</time>
      </trkpt>
      <trkpt lat="47.22872" lon="-1.94829">
        <ele>81</ele>
        <time>2021-03-14T14:11:07.000Z</time>
      </trkpt>
      <trkpt lat="47.22883" lon="-1.94822">
        <ele>80</ele>
        <time>2021-03-14T14:11:09.000Z</time>
      </trkpt>
      <trkpt lat="47.22896" lon="-1.94815">
        <ele>80</ele>
        <time>2021-03-14T14:11:11.000Z</time>
      </trkpt>
      <trkpt lat="47.22907" lon="-1.94808">
        <ele>81</ele>
        <time>2021-03-14T14:11:13.000Z</time>
      </trkpt>
      <trkpt lat="47.22919" lon="-1.94801">
        <ele>81</ele>
        <time>2021-03-14T14:11:15.000Z</time>
      </trkpt>
      <trkpt lat="47.22931" lon="-1.94794">
        <ele>81</ele>
        <time>2021-03-14T14:11:17.000Z</time>
      </trkpt>
      <trkpt lat="47.22942" lon="-1.94787">
        <ele>81</ele>
        <time>2021-03-14T14:11:19.000Z</time>
      </trkpt>
      <trkpt lat="47.22953" lon="-1.9478">
        <ele>81</ele>
        <time>2021-03-14T14:11:21.000Z</time>
      </trkpt>
      <trkpt lat="47.22964" lon="-1.94772">
        <ele>81</ele>
        <time>2021-03-14T14:11:23.000Z</time>
      </trkpt>
      <trkpt lat="47.22974" lon="-1.94762">
        <ele>81</ele>
        <time>2021-03-14T14:11:25.000Z</time>
      </trkpt>
      <trkpt lat="47.22984" lon="-1.94751">
        <ele>81</ele>
        <time>2021-03-14T14:11:27.000Z</time>
      </trkpt>
      <trkpt lat="47.22993" lon="-1.94739">
        <ele>81</ele>
        <time>2021-03-14T14:11:29.000Z</time>
      </trkpt>
      <trkpt lat="47.23002" lon="-1.94727">
        <ele>81</ele>
        <time>2021-03-14T14:11:31.000Z</time>
      </trkpt>
      <trkpt lat="47.23011" lon="-1.94714">
        <ele>81</ele>
        <time>2021-03-14T14:11:33.000Z</time>
      </trkpt>
      <trkpt lat="47.23019" lon="-1.94701">
        <ele>81</ele>
        <time>2021-03-14T14:11:35.000Z</time>
      </trkpt>
      <trkpt lat="47.23028" lon="-1.94688">
        <ele>82</ele>
        <time>2021-03-14T14:11:37.000Z</time>
      </trkpt>
      <trkpt lat="47.23036" lon="-1.94674">
        <ele>82</ele>
        <time>2021-03-14T14:11:39.000Z</time>
      </trkpt>
      <trkpt lat="47.23044" lon="-1.94661">
        <ele>82</ele>
        <time>2021-03-14T14:11:41.000Z</time>
      </trkpt>
      <trkpt lat="47.23052" lon="-1.94647">
        <ele>82</ele>
        <time>2021-03-14T14:11:43.000Z</time>
      </trkpt>
      <trkpt lat="47.23059" lon="-1.94633">
        <ele>83</ele>
        <time>2021-03-14T14:11:45.000Z</time>
      </trkpt>
      <trkpt lat="47.23066" lon="-1.94618">
        <ele>83</ele>
        <time>2021-03-14T14:11:47.000Z</time>
      </trkpt>
      <trkpt lat="47.23072" lon="-1.94602">
        <ele>83</ele>
        <time>2021-03-14T14:11:49.000Z</time>
      </trkpt>
      <trkpt lat="47.23078" lon="-1.94586">
        <ele>83</ele>
        <time>2021-03-14T14:11:51.000Z</time>
      </trkpt>
      <trkpt lat="47.23083" lon="-1.94571">
        <ele>83</ele>
        <time>2021-03-14T14:11:53.000Z</time>
      </trkpt>
      <trkpt lat="47.23088" lon="-1.94554">
        <ele>83</ele>
        <time>2021-03-14T14:11:55.000Z</time>
      </trkpt>
      <trkpt lat="47.23094" lon="-1.94537">
        <ele>83</ele>
        <time>2021-03-14T14:11:57.000Z</time>
      </trkpt>
      <trkpt lat="47.231" lon="-1.94521">
        <ele>83</ele>
        <time>2021-03-14T14:11:59.000Z</time>
      </trkpt>
      <trkpt lat="47.23105" lon="-1.94505">
        <ele>84</ele>
        <time>2021-03-14T14:12:01.000Z</time>
      </trkpt>
      <trkpt lat="47.23111" lon="-1.94489">
        <ele>84</ele>
        <time>2021-03-14T14:12:03.000Z</time>
      </trkpt>
      <trkpt lat="47.23118" lon="-1.94474">
        <ele>84</ele>
        <time>2021-03-14T14:12:05.000Z</time>
      </trkpt>
      <trkpt lat="47.23126" lon="-1.94459">
        <ele>84</ele>
        <time>2021-03-14T14:12:07.000Z</time>
      </trkpt>
      <trkpt lat="47.23134" lon="-1.94444">
        <ele>84</ele>
        <time>2021-03-14T14:12:09.000Z</time>
      </trkpt>
      <trkpt lat="47.23143" lon="-1.94432">
        <ele>83</ele>
        <time>2021-03-14T14:12:11.000Z</time>
      </trkpt>
      <trkpt lat="47.23153" lon="-1.94421">
        <ele>83</ele>
        <time>2021-03-14T14:12:13.000Z</time>
      </trkpt>
      <trkpt lat="47.23164" lon="-1.94412">
        <ele>83</ele>
        <time>2021-03-14T14:12:15.000Z</time>
      </trkpt>
      <trkpt lat="47.23176" lon="-1.94403">
        <ele>83</ele>
        <time>2021-03-14T14:12:17.000Z</time>
      </trkpt>
      <trkpt lat="47.23188" lon="-1.94394">
        <ele>83</ele>
        <time>2021-03-14T14:12:19.000Z</time>
      </trkpt>
      <trkpt lat="47.232" lon="-1.94386">
        <ele>83</ele>
        <time>2021-03-14T14:12:21.000Z</time>
      </trkpt>
      <trkpt lat="47.23212" lon="-1.94376">
        <ele>83</ele>
        <time>2021-03-14T14:12:23.000Z</time>
      </trkpt>
      <trkpt lat="47.23225" lon="-1.94367">
        <ele>83</ele>
        <time>2021-03-14T14:12:25.000Z</time>
      </trkpt>
      <trkpt lat="47.23237" lon="-1.94358">
        <ele>83</ele>
        <time>2021-03-14T14:12:27.000Z</time>
      </trkpt>
      <trkpt lat="47.2325" lon="-1.94349">
        <ele>83</ele>
        <time>2021-03-14T14:12:29.000Z</time>
      </trkpt>
      <trkpt lat="47.23262" lon="-1.9434">
        <ele>82</ele>
        <time>2021-03-14T14:12:31.000Z</time>
      </trkpt>
      <trkpt lat="47.23274" lon="-1.9433">
        <ele>82</ele>
        <time>2021-03-14T14:12:33.000Z</time>
      </trkpt>
      <trkpt lat="47.23287" lon="-1.9432">
        <ele>81</ele>
        <time>2021-03-14T14:12:35.000Z</time>
      </trkpt>
      <trkpt lat="47.233" lon="-1.94309">
        <ele>81</ele>
        <time>2021-03-14T14:12:37.000Z</time>
      </trkpt>
      <trkpt lat="47.23312" lon="-1.94298">
        <ele>81</ele>
        <time>2021-03-14T14:12:39.000Z</time>
      </trkpt>
      <trkpt lat="47.23325" lon="-1.94287">
        <ele>80</ele>
        <time>2021-03-14T14:12:41.000Z</time>
      </trkpt>
      <trkpt lat="47.23338" lon="-1.94276">
        <ele>80</ele>
        <time>2021-03-14T14:12:43.000Z</time>
      </trkpt>
      <trkpt lat="47.2335" lon="-1.94264">
        <ele>80</ele>
        <time>2021-03-14T14:12:45.000Z</time>
      </trkpt>
      <trkpt lat="47.23363" lon="-1.94253">
        <ele>79</ele>
        <time>2021-03-14T14:12:47.000Z</time>
      </trkpt>
      <trkpt lat="47.23375" lon="-1.94241">
        <ele>79</ele>
        <time>2021-03-14T14:12:49.000Z</time>
      </trkpt>
      <trkpt lat="47.23387" lon="-1.9423">
        <ele>79</ele>
        <time>2021-03-14T14:12:51.000Z</time>
      </trkpt>
      <trkpt lat="47.234" lon="-1.94219">
        <ele>78</ele>
        <time>2021-03-14T14:12:53.000Z</time>
      </trkpt>
      <trkpt lat="47.23412" lon="-1.94208">
        <ele>79</ele>
        <time>2021-03-14T14:12:55.000Z</time>
      </trkpt>
      <trkpt lat="47.23425" lon="-1.94197">
        <ele>79</ele>
        <time>2021-03-14T14:12:57.000Z</time>
      </trkpt>
      <trkpt lat="47.23437" lon="-1.94187">
        <ele>79</ele>
        <time>2021-03-14T14:12:59.000Z</time>
      </trkpt>
      <trkpt lat="47.23449" lon="-1.94177">
        <ele>80</ele>
        <time>2021-03-14T14:13:01.000Z</time>
      </trkpt>
      <trkpt lat="47.2346" lon="-1.94169">
        <ele>79</ele>
        <time>2021-03-14T14:13:03.000Z</time>
      </trkpt>
      <trkpt lat="47.23472" lon="-1.9416">
        <ele>79</ele>
        <time>2021-03-14T14:13:05.000Z</time>
      </trkpt>
      <trkpt lat="47.23484" lon="-1.94151">
        <ele>79</ele>
        <time>2021-03-14T14:13:07.000Z</time>
      </trkpt>
      <trkpt lat="47.23495" lon="-1.94143">
        <ele>79</ele>
        <time>2021-03-14T14:13:09.000Z</time>
      </trkpt>
      <trkpt lat="47.23507" lon="-1.94134">
        <ele>79</ele>
        <time>2021-03-14T14:13:11.000Z</time>
      </trkpt>
      <trkpt lat="47.23518" lon="-1.94124">
        <ele>79</ele>
        <time>2021-03-14T14:13:13.000Z</time>
      </trkpt>
      <trkpt lat="47.23528" lon="-1.94116">
        <ele>79</ele>
        <time>2021-03-14T14:13:15.000Z</time>
      </trkpt>
      <trkpt lat="47.23537" lon="-1.94106">
        <ele>79</ele>
        <time>2021-03-14T14:13:17.000Z</time>
      </trkpt>
      <trkpt lat="47.23545" lon="-1.94096">
        <ele>79</ele>
        <time>2021-03-14T14:13:19.000Z</time>
      </trkpt>
      <trkpt lat="47.23554" lon="-1.94087">
        <ele>79</ele>
        <time>2021-03-14T14:13:22.000Z</time>
      </trkpt>
      <trkpt lat="47.23562" lon="-1.94082">
        <ele>79</ele>
        <time>2021-03-14T14:13:29.000Z</time>
      </trkpt>
      <trkpt lat="47.23575" lon="-1.94071">
        <ele>78</ele>
        <time>2021-03-14T14:13:32.000Z</time>
      </trkpt>
      <trkpt lat="47.23585" lon="-1.94065">
        <ele>78</ele>
        <time>2021-03-14T14:13:34.000Z</time>
      </trkpt>
      <trkpt lat="47.23598" lon="-1.94058">
        <ele>77</ele>
        <time>2021-03-14T14:13:36.000Z</time>
      </trkpt>
      <trkpt lat="47.23611" lon="-1.94051">
        <ele>76</ele>
        <time>2021-03-14T14:13:38.000Z</time>
      </trkpt>
      <trkpt lat="47.23624" lon="-1.94041">
        <ele>75</ele>
        <time>2021-03-14T14:13:40.000Z</time>
      </trkpt>
      <trkpt lat="47.23637" lon="-1.94029">
        <ele>74</ele>
        <time>2021-03-14T14:13:42.000Z</time>
      </trkpt>
      <trkpt lat="47.23651" lon="-1.94015">
        <ele>73</ele>
        <time>2021-03-14T14:13:44.000Z</time>
      </trkpt>
      <trkpt lat="47.23664" lon="-1.94001">
        <ele>72</ele>
        <time>2021-03-14T14:13:46.000Z</time>
      </trkpt>
      <trkpt lat="47.23678" lon="-1.93986">
        <ele>72</ele>
        <time>2021-03-14T14:13:48.000Z</time>
      </trkpt>
      <trkpt lat="47.23693" lon="-1.93971">
        <ele>71</ele>
        <time>2021-03-14T14:13:50.000Z</time>
      </trkpt>
      <trkpt lat="47.23707" lon="-1.93955">
        <ele>70</ele>
        <time>2021-03-14T14:13:52.000Z</time>
      </trkpt>
      <trkpt lat="47.23714" lon="-1.93947">
        <ele>70</ele>
        <time>2021-03-14T14:13:53.000Z</time>
      </trkpt>
      <trkpt lat="47.23721" lon="-1.93939">
        <ele>69</ele>
        <time>2021-03-14T14:13:54.000Z</time>
      </trkpt>
      <trkpt lat="47.23735" lon="-1.93923">
        <ele>69</ele>
        <time>2021-03-14T14:13:56.000Z</time>
      </trkpt>
      <trkpt lat="47.23748" lon="-1.93907">
        <ele>69</ele>
        <time>2021-03-14T14:13:58.000Z</time>
      </trkpt>
      <trkpt lat="47.23761" lon="-1.93893">
        <ele>68</ele>
        <time>2021-03-14T14:14:00.000Z</time>
      </trkpt>
      <trkpt lat="47.23775" lon="-1.93879">
        <ele>68</ele>
        <time>2021-03-14T14:14:02.000Z</time>
      </trkpt>
      <trkpt lat="47.23789" lon="-1.93867">
        <ele>67</ele>
        <time>2021-03-14T14:14:04.000Z</time>
      </trkpt>
      <trkpt lat="47.23803" lon="-1.93857">
        <ele>67</ele>
        <time>2021-03-14T14:14:06.000Z</time>
      </trkpt>
      <trkpt lat="47.23817" lon="-1.93849">
        <ele>67</ele>
        <time>2021-03-14T14:14:08.000Z</time>
      </trkpt>
      <trkpt lat="47.23832" lon="-1.93843">
        <ele>66</ele>
        <time>2021-03-14T14:14:10.000Z</time>
      </trkpt>
      <trkpt lat="47.23846" lon="-1.93837">
        <ele>65</ele>
        <time>2021-03-14T14:14:12.000Z</time>
      </trkpt>
      <trkpt lat="47.2386" lon="-1.93831">
        <ele>65</ele>
        <time>2021-03-14T14:14:14.000Z</time>
      </trkpt>
      <trkpt lat="47.23874" lon="-1.93826">
        <ele>65</ele>
        <time>2021-03-14T14:14:16.000Z</time>
      </trkpt>
      <trkpt lat="47.23888" lon="-1.9382">
        <ele>65</ele>
        <time>2021-03-14T14:14:18.000Z</time>
      </trkpt>
      <trkpt lat="47.23902" lon="-1.93814">
        <ele>65</ele>
        <time>2021-03-14T14:14:20.000Z</time>
      </trkpt>
      <trkpt lat="47.23916" lon="-1.93807">
        <ele>65</ele>
        <time>2021-03-14T14:14:22.000Z</time>
      </trkpt>
      <trkpt lat="47.2393" lon="-1.93801">
        <ele>65</ele>
        <time>2021-03-14T14:14:24.000Z</time>
      </trkpt>
      <trkpt lat="47.23944" lon="-1.93795">
        <ele>64</ele>
        <time>2021-03-14T14:14:26.000Z</time>
      </trkpt>
      <trkpt lat="47.23958" lon="-1.93789">
        <ele>64</ele>
        <time>2021-03-14T14:14:28.000Z</time>
      </trkpt>
      <trkpt lat="47.23972" lon="-1.93784">
        <ele>64</ele>
        <time>2021-03-14T14:14:30.000Z</time>
      </trkpt>
      <trkpt lat="47.23986" lon="-1.93778">
        <ele>63</ele>
        <time>2021-03-14T14:14:32.000Z</time>
      </trkpt>
      <trkpt lat="47.23999" lon="-1.93772">
        <ele>63</ele>
        <time>2021-03-14T14:14:34.000Z</time>
      </trkpt>
      <trkpt lat="47.24013" lon="-1.93766">
        <ele>63</ele>
        <time>2021-03-14T14:14:36.000Z</time>
      </trkpt>
      <trkpt lat="47.24028" lon="-1.9376">
        <ele>63</ele>
        <time>2021-03-14T14:14:38.000Z</time>
      </trkpt>
      <trkpt lat="47.24042" lon="-1.93754">
        <ele>63</ele>
        <time>2021-03-14T14:14:40.000Z</time>
      </trkpt>
      <trkpt lat="47.24055" lon="-1.9375">
        <ele>63</ele>
        <time>2021-03-14T14:14:42.000Z</time>
      </trkpt>
      <trkpt lat="47.24069" lon="-1.93744">
        <ele>63</ele>
        <time>2021-03-14T14:14:44.000Z</time>
      </trkpt>
      <trkpt lat="47.24082" lon="-1.93738">
        <ele>63</ele>
        <time>2021-03-14T14:14:46.000Z</time>
      </trkpt>
      <trkpt lat="47.24095" lon="-1.9373">
        <ele>63</ele>
        <time>2021-03-14T14:14:48.000Z</time>
      </trkpt>
      <trkpt lat="47.24108" lon="-1.93722">
        <ele>63</ele>
        <time>2021-03-14T14:14:50.000Z</time>
      </trkpt>
      <trkpt lat="47.2412" lon="-1.93713">
        <ele>64</ele>
        <time>2021-03-14T14:14:52.000Z</time>
      </trkpt>
      <trkpt lat="47.24131" lon="-1.93704">
        <ele>63</ele>
        <time>2021-03-14T14:14:54.000Z</time>
      </trkpt>
      <trkpt lat="47.24141" lon="-1.93695">
        <ele>64</ele>
        <time>2021-03-14T14:14:56.000Z</time>
      </trkpt>
      <trkpt lat="47.2415" lon="-1.93686">
        <ele>64</ele>
        <time>2021-03-14T14:14:58.000Z</time>
      </trkpt>
      <trkpt lat="47.24158" lon="-1.93676">
        <ele>64</ele>
        <time>2021-03-14T14:15:00.000Z</time>
      </trkpt>
      <trkpt lat="47.24167" lon="-1.93666">
        <ele>65</ele>
        <time>2021-03-14T14:15:02.000Z</time>
      </trkpt>
      <trkpt lat="47.24176" lon="-1.93657">
        <ele>65</ele>
        <time>2021-03-14T14:15:04.000Z</time>
      </trkpt>
      <trkpt lat="47.24184" lon="-1.93647">
        <ele>66</ele>
        <time>2021-03-14T14:15:06.000Z</time>
      </trkpt>
      <trkpt lat="47.24194" lon="-1.93638">
        <ele>66</ele>
        <time>2021-03-14T14:15:08.000Z</time>
      </trkpt>
      <trkpt lat="47.24202" lon="-1.93629">
        <ele>66</ele>
        <time>2021-03-14T14:15:10.000Z</time>
      </trkpt>
      <trkpt lat="47.24211" lon="-1.9362">
        <ele>67</ele>
        <time>2021-03-14T14:15:12.000Z</time>
      </trkpt>
      <trkpt lat="47.24219" lon="-1.93611">
        <ele>67</ele>
        <time>2021-03-14T14:15:14.000Z</time>
      </trkpt>
      <trkpt lat="47.24228" lon="-1.93602">
        <ele>67</ele>
        <time>2021-03-14T14:15:16.000Z</time>
      </trkpt>
      <trkpt lat="47.24237" lon="-1.93593">
        <ele>68</ele>
        <time>2021-03-14T14:15:18.000Z</time>
      </trkpt>
      <trkpt lat="47.24245" lon="-1.93583">
        <ele>68</ele>
        <time>2021-03-14T14:15:20.000Z</time>
      </trkpt>
      <trkpt lat="47.24255" lon="-1.93574">
        <ele>68</ele>
        <time>2021-03-14T14:15:22.000Z</time>
      </trkpt>
      <trkpt lat="47.24263" lon="-1.93564">
        <ele>69</ele>
        <time>2021-03-14T14:15:24.000Z</time>
      </trkpt>
      <trkpt lat="47.24272" lon="-1.93554">
        <ele>69</ele>
        <time>2021-03-14T14:15:26.000Z</time>
      </trkpt>
      <trkpt lat="47.2428" lon="-1.93545">
        <ele>70</ele>
        <time>2021-03-14T14:15:28.000Z</time>
      </trkpt>
      <trkpt lat="47.24289" lon="-1.93535">
        <ele>70</ele>
        <time>2021-03-14T14:15:30.000Z</time>
      </trkpt>
      <trkpt lat="47.24297" lon="-1.93526">
        <ele>71</ele>
        <time>2021-03-14T14:15:32.000Z</time>
      </trkpt>
      <trkpt lat="47.24305" lon="-1.93517">
        <ele>72</ele>
        <time>2021-03-14T14:15:34.000Z</time>
      </trkpt>
      <trkpt lat="47.24313" lon="-1.93508">
        <ele>72</ele>
        <time>2021-03-14T14:15:36.000Z</time>
      </trkpt>
      <trkpt lat="47.24323" lon="-1.93502">
        <ele>73</ele>
        <time>2021-03-14T14:15:38.000Z</time>
      </trkpt>
      <trkpt lat="47.24333" lon="-1.93496">
        <ele>73</ele>
        <time>2021-03-14T14:15:40.000Z</time>
      </trkpt>
      <trkpt lat="47.24342" lon="-1.9349">
        <ele>73</ele>
        <time>2021-03-14T14:15:42.000Z</time>
      </trkpt>
      <trkpt lat="47.24352" lon="-1.93485">
        <ele>74</ele>
        <time>2021-03-14T14:15:44.000Z</time>
      </trkpt>
      <trkpt lat="47.24362" lon="-1.93478">
        <ele>74</ele>
        <time>2021-03-14T14:15:46.000Z</time>
      </trkpt>
      <trkpt lat="47.24371" lon="-1.9347">
        <ele>74</ele>
        <time>2021-03-14T14:15:48.000Z</time>
      </trkpt>
      <trkpt lat="47.24379" lon="-1.93459">
        <ele>75</ele>
        <time>2021-03-14T14:15:50.000Z</time>
      </trkpt>
      <trkpt lat="47.24386" lon="-1.93449">
        <ele>75</ele>
        <time>2021-03-14T14:15:52.000Z</time>
      </trkpt>
      <trkpt lat="47.24392" lon="-1.9344">
        <ele>75</ele>
        <time>2021-03-14T14:15:54.000Z</time>
      </trkpt>
      <trkpt lat="47.24396" lon="-1.93421">
        <ele>76</ele>
        <time>2021-03-14T14:15:57.000Z</time>
      </trkpt>
      <trkpt lat="47.24392" lon="-1.93406">
        <ele>76</ele>
        <time>2021-03-14T14:15:59.000Z</time>
      </trkpt>
      <trkpt lat="47.24392" lon="-1.93391">
        <ele>76</ele>
        <time>2021-03-14T14:16:01.000Z</time>
      </trkpt>
      <trkpt lat="47.24401" lon="-1.93382">
        <ele>76</ele>
        <time>2021-03-14T14:16:03.000Z</time>
      </trkpt>
      <trkpt lat="47.24411" lon="-1.93378">
        <ele>76</ele>
        <time>2021-03-14T14:16:05.000Z</time>
      </trkpt>
      <trkpt lat="47.24421" lon="-1.93374">
        <ele>76</ele>
        <time>2021-03-14T14:16:07.000Z</time>
      </trkpt>
      <trkpt lat="47.2443" lon="-1.93369">
        <ele>77</ele>
        <time>2021-03-14T14:16:09.000Z</time>
      </trkpt>
      <trkpt lat="47.24439" lon="-1.93365">
        <ele>77</ele>
        <time>2021-03-14T14:16:11.000Z</time>
      </trkpt>
      <trkpt lat="47.2445" lon="-1.93358">
        <ele>78</ele>
        <time>2021-03-14T14:16:14.000Z</time>
      </trkpt>
      <trkpt lat="47.24453" lon="-1.93343">
        <ele>79</ele>
        <time>2021-03-14T14:16:17.000Z</time>
      </trkpt>
      <trkpt lat="47.24448" lon="-1.93329">
        <ele>80</ele>
        <time>2021-03-14T14:16:19.000Z</time>
      </trkpt>
      <trkpt lat="47.24444" lon="-1.93315">
        <ele>80</ele>
        <time>2021-03-14T14:16:21.000Z</time>
      </trkpt>
      <trkpt lat="47.2444" lon="-1.93303">
        <ele>80</ele>
        <time>2021-03-14T14:16:23.000Z</time>
      </trkpt>
      <trkpt lat="47.24435" lon="-1.93291">
        <ele>79</ele>
        <time>2021-03-14T14:16:25.000Z</time>
      </trkpt>
      <trkpt lat="47.24429" lon="-1.9328">
        <ele>78</ele>
        <time>2021-03-14T14:16:28.000Z</time>
      </trkpt>
      <trkpt lat="47.2443" lon="-1.93263">
        <ele>78</ele>
        <time>2021-03-14T14:17:13.000Z</time>
      </trkpt>
      <trkpt lat="47.24428" lon="-1.93243">
        <ele>78</ele>
        <time>2021-03-14T14:17:16.000Z</time>
      </trkpt>
      <trkpt lat="47.24427" lon="-1.93226">
        <ele>77</ele>
        <time>2021-03-14T14:17:18.000Z</time>
      </trkpt>
      <trkpt lat="47.24429" lon="-1.93207">
        <ele>77</ele>
        <time>2021-03-14T14:17:20.000Z</time>
      </trkpt>
      <trkpt lat="47.24432" lon="-1.93188">
        <ele>76</ele>
        <time>2021-03-14T14:17:22.000Z</time>
      </trkpt>
      <trkpt lat="47.24438" lon="-1.93168">
        <ele>75</ele>
        <time>2021-03-14T14:17:24.000Z</time>
      </trkpt>
      <trkpt lat="47.24447" lon="-1.93149">
        <ele>74</ele>
        <time>2021-03-14T14:17:26.000Z</time>
      </trkpt>
      <trkpt lat="47.24462" lon="-1.93134">
        <ele>73</ele>
        <time>2021-03-14T14:17:28.000Z</time>
      </trkpt>
      <trkpt lat="47.2447" lon="-1.93128">
        <ele>72</ele>
        <time>2021-03-14T14:17:29.000Z</time>
      </trkpt>
      <trkpt lat="47.24479" lon="-1.93121">
        <ele>72</ele>
        <time>2021-03-14T14:17:30.000Z</time>
      </trkpt>
      <trkpt lat="47.24487" lon="-1.93114">
        <ele>71</ele>
        <time>2021-03-14T14:17:31.000Z</time>
      </trkpt>
      <trkpt lat="47.24504" lon="-1.931">
        <ele>70</ele>
        <time>2021-03-14T14:17:33.000Z</time>
      </trkpt>
      <trkpt lat="47.24513" lon="-1.93092">
        <ele>70</ele>
        <time>2021-03-14T14:17:34.000Z</time>
      </trkpt>
      <trkpt lat="47.24521" lon="-1.93085">
        <ele>69</ele>
        <time>2021-03-14T14:17:35.000Z</time>
      </trkpt>
      <trkpt lat="47.24538" lon="-1.93069">
        <ele>67</ele>
        <time>2021-03-14T14:17:37.000Z</time>
      </trkpt>
      <trkpt lat="47.24547" lon="-1.93061">
        <ele>67</ele>
        <time>2021-03-14T14:17:38.000Z</time>
      </trkpt>
      <trkpt lat="47.24556" lon="-1.93052">
        <ele>66</ele>
        <time>2021-03-14T14:17:39.000Z</time>
      </trkpt>
      <trkpt lat="47.24573" lon="-1.93034">
        <ele>64</ele>
        <time>2021-03-14T14:17:41.000Z</time>
      </trkpt>
      <trkpt lat="47.2459" lon="-1.93016">
        <ele>63</ele>
        <time>2021-03-14T14:17:43.000Z</time>
      </trkpt>
      <trkpt lat="47.24598" lon="-1.93007">
        <ele>62</ele>
        <time>2021-03-14T14:17:44.000Z</time>
      </trkpt>
      <trkpt lat="47.24607" lon="-1.92999">
        <ele>61</ele>
        <time>2021-03-14T14:17:45.000Z</time>
      </trkpt>
      <trkpt lat="47.24616" lon="-1.9299">
        <ele>61</ele>
        <time>2021-03-14T14:17:46.000Z</time>
      </trkpt>
      <trkpt lat="47.24624" lon="-1.92981">
        <ele>60</ele>
        <time>2021-03-14T14:17:47.000Z</time>
      </trkpt>
      <trkpt lat="47.24632" lon="-1.92971">
        <ele>60</ele>
        <time>2021-03-14T14:17:48.000Z</time>
      </trkpt>
      <trkpt lat="47.24641" lon="-1.92962">
        <ele>59</ele>
        <time>2021-03-14T14:17:49.000Z</time>
      </trkpt>
      <trkpt lat="47.2465" lon="-1.92953">
        <ele>59</ele>
        <time>2021-03-14T14:17:50.000Z</time>
      </trkpt>
      <trkpt lat="47.24658" lon="-1.92943">
        <ele>58</ele>
        <time>2021-03-14T14:17:51.000Z</time>
      </trkpt>
      <trkpt lat="47.24675" lon="-1.92925">
        <ele>57</ele>
        <time>2021-03-14T14:17:53.000Z</time>
      </trkpt>
      <trkpt lat="47.24683" lon="-1.92916">
        <ele>57</ele>
        <time>2021-03-14T14:17:54.000Z</time>
      </trkpt>
      <trkpt lat="47.24691" lon="-1.92907">
        <ele>56</ele>
        <time>2021-03-14T14:17:55.000Z</time>
      </trkpt>
      <trkpt lat="47.24699" lon="-1.92898">
        <ele>56</ele>
        <time>2021-03-14T14:17:56.000Z</time>
      </trkpt>
      <trkpt lat="47.24707" lon="-1.9289">
        <ele>56</ele>
        <time>2021-03-14T14:17:57.000Z</time>
      </trkpt>
      <trkpt lat="47.24714" lon="-1.9288">
        <ele>56</ele>
        <time>2021-03-14T14:17:58.000Z</time>
      </trkpt>
      <trkpt lat="47.24721" lon="-1.92871">
        <ele>55</ele>
        <time>2021-03-14T14:17:59.000Z</time>
      </trkpt>
      <trkpt lat="47.24728" lon="-1.92861">
        <ele>55</ele>
        <time>2021-03-14T14:18:00.000Z</time>
      </trkpt>
      <trkpt lat="47.24739" lon="-1.92841">
        <ele>55</ele>
        <time>2021-03-14T14:18:02.000Z</time>
      </trkpt>
      <trkpt lat="47.24749" lon="-1.92822">
        <ele>55</ele>
        <time>2021-03-14T14:18:04.000Z</time>
      </trkpt>
      <trkpt lat="47.24759" lon="-1.92804">
        <ele>55</ele>
        <time>2021-03-14T14:18:06.000Z</time>
      </trkpt>
      <trkpt lat="47.24769" lon="-1.92787">
        <ele>56</ele>
        <time>2021-03-14T14:18:08.000Z</time>
      </trkpt>
      <trkpt lat="47.24784" lon="-1.92765">
        <ele>57</ele>
        <time>2021-03-14T14:18:11.000Z</time>
      </trkpt>
      <trkpt lat="47.24799" lon="-1.92746">
        <ele>57</ele>
        <time>2021-03-14T14:18:14.000Z</time>
      </trkpt>
      <trkpt lat="47.24808" lon="-1.92733">
        <ele>58</ele>
        <time>2021-03-14T14:18:16.000Z</time>
      </trkpt>
      <trkpt lat="47.24818" lon="-1.92719">
        <ele>58</ele>
        <time>2021-03-14T14:18:18.000Z</time>
      </trkpt>
      <trkpt lat="47.24827" lon="-1.92706">
        <ele>59</ele>
        <time>2021-03-14T14:18:20.000Z</time>
      </trkpt>
      <trkpt lat="47.24836" lon="-1.92692">
        <ele>60</ele>
        <time>2021-03-14T14:18:22.000Z</time>
      </trkpt>
      <trkpt lat="47.24844" lon="-1.92678">
        <ele>60</ele>
        <time>2021-03-14T14:18:24.000Z</time>
      </trkpt>
      <trkpt lat="47.24853" lon="-1.92663">
        <ele>60</ele>
        <time>2021-03-14T14:18:26.000Z</time>
      </trkpt>
      <trkpt lat="47.2486" lon="-1.92648">
        <ele>60</ele>
        <time>2021-03-14T14:18:28.000Z</time>
      </trkpt>
      <trkpt lat="47.24867" lon="-1.92631">
        <ele>60</ele>
        <time>2021-03-14T14:18:30.000Z</time>
      </trkpt>
      <trkpt lat="47.24874" lon="-1.92614">
        <ele>60</ele>
        <time>2021-03-14T14:18:32.000Z</time>
      </trkpt>
      <trkpt lat="47.24883" lon="-1.92586">
        <ele>61</ele>
        <time>2021-03-14T14:18:35.000Z</time>
      </trkpt>
      <trkpt lat="47.24891" lon="-1.92558">
        <ele>61</ele>
        <time>2021-03-14T14:18:38.000Z</time>
      </trkpt>
      <trkpt lat="47.249" lon="-1.92531">
        <ele>61</ele>
        <time>2021-03-14T14:18:41.000Z</time>
      </trkpt>
      <trkpt lat="47.24907" lon="-1.92512">
        <ele>61</ele>
        <time>2021-03-14T14:18:43.000Z</time>
      </trkpt>
      <trkpt lat="47.24915" lon="-1.92495">
        <ele>60</ele>
        <time>2021-03-14T14:18:45.000Z</time>
      </trkpt>
      <trkpt lat="47.24924" lon="-1.92477">
        <ele>60</ele>
        <time>2021-03-14T14:18:47.000Z</time>
      </trkpt>
      <trkpt lat="47.24933" lon="-1.92459">
        <ele>59</ele>
        <time>2021-03-14T14:18:49.000Z</time>
      </trkpt>
      <trkpt lat="47.24949" lon="-1.92432">
        <ele>58</ele>
        <time>2021-03-14T14:18:52.000Z</time>
      </trkpt>
      <trkpt lat="47.2496" lon="-1.92413">
        <ele>56</ele>
        <time>2021-03-14T14:18:54.000Z</time>
      </trkpt>
      <trkpt lat="47.24966" lon="-1.92403">
        <ele>56</ele>
        <time>2021-03-14T14:18:55.000Z</time>
      </trkpt>
      <trkpt lat="47.24983" lon="-1.92374">
        <ele>55</ele>
        <time>2021-03-14T14:18:58.000Z</time>
      </trkpt>
      <trkpt lat="47.24994" lon="-1.92355">
        <ele>54</ele>
        <time>2021-03-14T14:19:00.000Z</time>
      </trkpt>
      <trkpt lat="47.25006" lon="-1.92337">
        <ele>54</ele>
        <time>2021-03-14T14:19:02.000Z</time>
      </trkpt>
      <trkpt lat="47.25016" lon="-1.92318">
        <ele>53</ele>
        <time>2021-03-14T14:19:04.000Z</time>
      </trkpt>
      <trkpt lat="47.25027" lon="-1.923">
        <ele>53</ele>
        <time>2021-03-14T14:19:06.000Z</time>
      </trkpt>
      <trkpt lat="47.25038" lon="-1.92282">
        <ele>53</ele>
        <time>2021-03-14T14:19:08.000Z</time>
      </trkpt>
      <trkpt lat="47.25048" lon="-1.92264">
        <ele>53</ele>
        <time>2021-03-14T14:19:10.000Z</time>
      </trkpt>
      <trkpt lat="47.25059" lon="-1.92246">
        <ele>53</ele>
        <time>2021-03-14T14:19:12.000Z</time>
      </trkpt>
      <trkpt lat="47.25069" lon="-1.92228">
        <ele>53</ele>
        <time>2021-03-14T14:19:14.000Z</time>
      </trkpt>
      <trkpt lat="47.25079" lon="-1.92211">
        <ele>53</ele>
        <time>2021-03-14T14:19:16.000Z</time>
      </trkpt>
      <trkpt lat="47.25089" lon="-1.92193">
        <ele>53</ele>
        <time>2021-03-14T14:19:18.000Z</time>
      </trkpt>
      <trkpt lat="47.25099" lon="-1.92176">
        <ele>53</ele>
        <time>2021-03-14T14:19:20.000Z</time>
      </trkpt>
      <trkpt lat="47.2511" lon="-1.92158">
        <ele>53</ele>
        <time>2021-03-14T14:19:22.000Z</time>
      </trkpt>
      <trkpt lat="47.2512" lon="-1.9214">
        <ele>52</ele>
        <time>2021-03-14T14:19:24.000Z</time>
      </trkpt>
      <trkpt lat="47.2513" lon="-1.92123">
        <ele>52</ele>
        <time>2021-03-14T14:19:26.000Z</time>
      </trkpt>
      <trkpt lat="47.2514" lon="-1.92106">
        <ele>52</ele>
        <time>2021-03-14T14:19:28.000Z</time>
      </trkpt>
      <trkpt lat="47.25149" lon="-1.92087">
        <ele>52</ele>
        <time>2021-03-14T14:19:30.000Z</time>
      </trkpt>
      <trkpt lat="47.2516" lon="-1.92057">
        <ele>51</ele>
        <time>2021-03-14T14:19:33.000Z</time>
      </trkpt>
      <trkpt lat="47.25165" lon="-1.92035">
        <ele>51</ele>
        <time>2021-03-14T14:19:35.000Z</time>
      </trkpt>
      <trkpt lat="47.2517" lon="-1.92014">
        <ele>51</ele>
        <time>2021-03-14T14:19:37.000Z</time>
      </trkpt>
      <trkpt lat="47.25174" lon="-1.91993">
        <ele>51</ele>
        <time>2021-03-14T14:19:39.000Z</time>
      </trkpt>
      <trkpt lat="47.25179" lon="-1.91971">
        <ele>51</ele>
        <time>2021-03-14T14:19:41.000Z</time>
      </trkpt>
      <trkpt lat="47.25185" lon="-1.9195">
        <ele>52</ele>
        <time>2021-03-14T14:19:43.000Z</time>
      </trkpt>
      <trkpt lat="47.25194" lon="-1.91931">
        <ele>52</ele>
        <time>2021-03-14T14:19:45.000Z</time>
      </trkpt>
      <trkpt lat="47.25204" lon="-1.91914">
        <ele>52</ele>
        <time>2021-03-14T14:19:47.000Z</time>
      </trkpt>
      <trkpt lat="47.25216" lon="-1.91899">
        <ele>52</ele>
        <time>2021-03-14T14:19:49.000Z</time>
      </trkpt>
      <trkpt lat="47.25229" lon="-1.91885">
        <ele>52</ele>
        <time>2021-03-14T14:19:51.000Z</time>
      </trkpt>
      <trkpt lat="47.25242" lon="-1.91872">
        <ele>52</ele>
        <time>2021-03-14T14:19:53.000Z</time>
      </trkpt>
      <trkpt lat="47.25254" lon="-1.91858">
        <ele>52</ele>
        <time>2021-03-14T14:19:55.000Z</time>
      </trkpt>
      <trkpt lat="47.25266" lon="-1.91844">
        <ele>52</ele>
        <time>2021-03-14T14:19:57.000Z</time>
      </trkpt>
      <trkpt lat="47.25279" lon="-1.9183">
        <ele>52</ele>
        <time>2021-03-14T14:19:59.000Z</time>
      </trkpt>
      <trkpt lat="47.25292" lon="-1.91816">
        <ele>52</ele>
        <time>2021-03-14T14:20:01.000Z</time>
      </trkpt>
      <trkpt lat="47.25305" lon="-1.91803">
        <ele>52</ele>
        <time>2021-03-14T14:20:03.000Z</time>
      </trkpt>
      <trkpt lat="47.25318" lon="-1.9179">
        <ele>52</ele>
        <time>2021-03-14T14:20:05.000Z</time>
      </trkpt>
      <trkpt lat="47.2533" lon="-1.91775">
        <ele>52</ele>
        <time>2021-03-14T14:20:07.000Z</time>
      </trkpt>
      <trkpt lat="47.25343" lon="-1.91762">
        <ele>53</ele>
        <time>2021-03-14T14:20:09.000Z</time>
      </trkpt>
      <trkpt lat="47.25357" lon="-1.9175">
        <ele>53</ele>
        <time>2021-03-14T14:20:11.000Z</time>
      </trkpt>
      <trkpt lat="47.25372" lon="-1.91742">
        <ele>53</ele>
        <time>2021-03-14T14:20:13.000Z</time>
      </trkpt>
      <trkpt lat="47.25387" lon="-1.91739">
        <ele>53</ele>
        <time>2021-03-14T14:20:15.000Z</time>
      </trkpt>
      <trkpt lat="47.25403" lon="-1.91735">
        <ele>53</ele>
        <time>2021-03-14T14:20:17.000Z</time>
      </trkpt>
      <trkpt lat="47.25419" lon="-1.91727">
        <ele>54</ele>
        <time>2021-03-14T14:20:19.000Z</time>
      </trkpt>
      <trkpt lat="47.25433" lon="-1.91715">
        <ele>54</ele>
        <time>2021-03-14T14:20:21.000Z</time>
      </trkpt>
      <trkpt lat="47.25447" lon="-1.917">
        <ele>54</ele>
        <time>2021-03-14T14:20:23.000Z</time>
      </trkpt>
      <trkpt lat="47.25461" lon="-1.91686">
        <ele>54</ele>
        <time>2021-03-14T14:20:25.000Z</time>
      </trkpt>
      <trkpt lat="47.25473" lon="-1.9167">
        <ele>55</ele>
        <time>2021-03-14T14:20:27.000Z</time>
      </trkpt>
      <trkpt lat="47.25485" lon="-1.91656">
        <ele>56</ele>
        <time>2021-03-14T14:20:29.000Z</time>
      </trkpt>
      <trkpt lat="47.25497" lon="-1.91643">
        <ele>56</ele>
        <time>2021-03-14T14:20:31.000Z</time>
      </trkpt>
      <trkpt lat="47.25509" lon="-1.91631">
        <ele>55</ele>
        <time>2021-03-14T14:20:33.000Z</time>
      </trkpt>
      <trkpt lat="47.25521" lon="-1.91619">
        <ele>55</ele>
        <time>2021-03-14T14:20:35.000Z</time>
      </trkpt>
      <trkpt lat="47.25533" lon="-1.91608">
        <ele>54</ele>
        <time>2021-03-14T14:20:37.000Z</time>
      </trkpt>
      <trkpt lat="47.25546" lon="-1.91595">
        <ele>54</ele>
        <time>2021-03-14T14:20:39.000Z</time>
      </trkpt>
      <trkpt lat="47.2556" lon="-1.91584">
        <ele>54</ele>
        <time>2021-03-14T14:20:41.000Z</time>
      </trkpt>
      <trkpt lat="47.25574" lon="-1.91571">
        <ele>53</ele>
        <time>2021-03-14T14:20:43.000Z</time>
      </trkpt>
      <trkpt lat="47.25589" lon="-1.91559">
        <ele>52</ele>
        <time>2021-03-14T14:20:45.000Z</time>
      </trkpt>
      <trkpt lat="47.25603" lon="-1.91544">
        <ele>51</ele>
        <time>2021-03-14T14:20:47.000Z</time>
      </trkpt>
      <trkpt lat="47.25611" lon="-1.91536">
        <ele>50</ele>
        <time>2021-03-14T14:20:48.000Z</time>
      </trkpt>
      <trkpt lat="47.25618" lon="-1.91529">
        <ele>50</ele>
        <time>2021-03-14T14:20:49.000Z</time>
      </trkpt>
      <trkpt lat="47.25634" lon="-1.91517">
        <ele>50</ele>
        <time>2021-03-14T14:20:51.000Z</time>
      </trkpt>
      <trkpt lat="47.2565" lon="-1.91507">
        <ele>50</ele>
        <time>2021-03-14T14:20:53.000Z</time>
      </trkpt>
      <trkpt lat="47.25664" lon="-1.91497">
        <ele>50</ele>
        <time>2021-03-14T14:20:55.000Z</time>
      </trkpt>
      <trkpt lat="47.25678" lon="-1.91487">
        <ele>49</ele>
        <time>2021-03-14T14:20:57.000Z</time>
      </trkpt>
      <trkpt lat="47.25692" lon="-1.91479">
        <ele>49</ele>
        <time>2021-03-14T14:20:59.000Z</time>
      </trkpt>
      <trkpt lat="47.25707" lon="-1.9147">
        <ele>49</ele>
        <time>2021-03-14T14:21:01.000Z</time>
      </trkpt>
      <trkpt lat="47.2572" lon="-1.91461">
        <ele>48</ele>
        <time>2021-03-14T14:21:03.000Z</time>
      </trkpt>
      <trkpt lat="47.25734" lon="-1.91453">
        <ele>48</ele>
        <time>2021-03-14T14:21:05.000Z</time>
      </trkpt>
      <trkpt lat="47.25747" lon="-1.91444">
        <ele>49</ele>
        <time>2021-03-14T14:21:07.000Z</time>
      </trkpt>
      <trkpt lat="47.2576" lon="-1.91434">
        <ele>49</ele>
        <time>2021-03-14T14:21:09.000Z</time>
      </trkpt>
      <trkpt lat="47.25771" lon="-1.9142">
        <ele>49</ele>
        <time>2021-03-14T14:21:11.000Z</time>
      </trkpt>
      <trkpt lat="47.25778" lon="-1.91402">
        <ele>49</ele>
        <time>2021-03-14T14:21:13.000Z</time>
      </trkpt>
      <trkpt lat="47.25787" lon="-1.91384">
        <ele>49</ele>
        <time>2021-03-14T14:21:15.000Z</time>
      </trkpt>
      <trkpt lat="47.25795" lon="-1.91366">
        <ele>49</ele>
        <time>2021-03-14T14:21:17.000Z</time>
      </trkpt>
      <trkpt lat="47.25792" lon="-1.91344">
        <ele>50</ele>
        <time>2021-03-14T14:21:19.000Z</time>
      </trkpt>
      <trkpt lat="47.25783" lon="-1.91327">
        <ele>50</ele>
        <time>2021-03-14T14:21:21.000Z</time>
      </trkpt>
      <trkpt lat="47.25774" lon="-1.9131">
        <ele>50</ele>
        <time>2021-03-14T14:21:23.000Z</time>
      </trkpt>
      <trkpt lat="47.25764" lon="-1.91292">
        <ele>50</ele>
        <time>2021-03-14T14:21:25.000Z</time>
      </trkpt>
      <trkpt lat="47.25755" lon="-1.91274">
        <ele>50</ele>
        <time>2021-03-14T14:21:27.000Z</time>
      </trkpt>
      <trkpt lat="47.25746" lon="-1.91257">
        <ele>50</ele>
        <time>2021-03-14T14:21:29.000Z</time>
      </trkpt>
      <trkpt lat="47.25736" lon="-1.9124">
        <ele>49</ele>
        <time>2021-03-14T14:21:31.000Z</time>
      </trkpt>
      <trkpt lat="47.25726" lon="-1.91224">
        <ele>49</ele>
        <time>2021-03-14T14:21:33.000Z</time>
      </trkpt>
      <trkpt lat="47.25717" lon="-1.91207">
        <ele>49</ele>
        <time>2021-03-14T14:21:35.000Z</time>
      </trkpt>
      <trkpt lat="47.25708" lon="-1.9119">
        <ele>49</ele>
        <time>2021-03-14T14:21:37.000Z</time>
      </trkpt>
      <trkpt lat="47.25698" lon="-1.91172">
        <ele>49</ele>
        <time>2021-03-14T14:21:39.000Z</time>
      </trkpt>
      <trkpt lat="47.25689" lon="-1.91155">
        <ele>49</ele>
        <time>2021-03-14T14:21:41.000Z</time>
      </trkpt>
      <trkpt lat="47.2568" lon="-1.91138">
        <ele>48</ele>
        <time>2021-03-14T14:21:43.000Z</time>
      </trkpt>
      <trkpt lat="47.2567" lon="-1.9112">
        <ele>49</ele>
        <time>2021-03-14T14:21:45.000Z</time>
      </trkpt>
      <trkpt lat="47.25661" lon="-1.91103">
        <ele>49</ele>
        <time>2021-03-14T14:21:47.000Z</time>
      </trkpt>
      <trkpt lat="47.25652" lon="-1.91086">
        <ele>48</ele>
        <time>2021-03-14T14:21:49.000Z</time>
      </trkpt>
      <trkpt lat="47.25642" lon="-1.91069">
        <ele>49</ele>
        <time>2021-03-14T14:21:51.000Z</time>
      </trkpt>
      <trkpt lat="47.25633" lon="-1.91052">
        <ele>49</ele>
        <time>2021-03-14T14:21:53.000Z</time>
      </trkpt>
      <trkpt lat="47.25624" lon="-1.91035">
        <ele>49</ele>
        <time>2021-03-14T14:21:55.000Z</time>
      </trkpt>
      <trkpt lat="47.25615" lon="-1.91019">
        <ele>49</ele>
        <time>2021-03-14T14:21:57.000Z</time>
      </trkpt>
      <trkpt lat="47.25605" lon="-1.91002">
        <ele>49</ele>
        <time>2021-03-14T14:21:59.000Z</time>
      </trkpt>
      <trkpt lat="47.25596" lon="-1.90986">
        <ele>49</ele>
        <time>2021-03-14T14:22:01.000Z</time>
      </trkpt>
      <trkpt lat="47.25587" lon="-1.90969">
        <ele>49</ele>
        <time>2021-03-14T14:22:03.000Z</time>
      </trkpt>
      <trkpt lat="47.25578" lon="-1.90953">
        <ele>49</ele>
        <time>2021-03-14T14:22:05.000Z</time>
      </trkpt>
      <trkpt lat="47.25569" lon="-1.90936">
        <ele>49</ele>
        <time>2021-03-14T14:22:07.000Z</time>
      </trkpt>
      <trkpt lat="47.2556" lon="-1.90919">
        <ele>49</ele>
        <time>2021-03-14T14:22:09.000Z</time>
      </trkpt>
      <trkpt lat="47.2555" lon="-1.90902">
        <ele>48</ele>
        <time>2021-03-14T14:22:11.000Z</time>
      </trkpt>
      <trkpt lat="47.25541" lon="-1.90885">
        <ele>49</ele>
        <time>2021-03-14T14:22:13.000Z</time>
      </trkpt>
      <trkpt lat="47.25531" lon="-1.90868">
        <ele>49</ele>
        <time>2021-03-14T14:22:15.000Z</time>
      </trkpt>
      <trkpt lat="47.25522" lon="-1.9085">
        <ele>49</ele>
        <time>2021-03-14T14:22:17.000Z</time>
      </trkpt>
      <trkpt lat="47.25512" lon="-1.90831">
        <ele>49</ele>
        <time>2021-03-14T14:22:19.000Z</time>
      </trkpt>
      <trkpt lat="47.25502" lon="-1.90813">
        <ele>49</ele>
        <time>2021-03-14T14:22:21.000Z</time>
      </trkpt>
      <trkpt lat="47.25492" lon="-1.90794">
        <ele>49</ele>
        <time>2021-03-14T14:22:23.000Z</time>
      </trkpt>
      <trkpt lat="47.25482" lon="-1.90775">
        <ele>49</ele>
        <time>2021-03-14T14:22:25.000Z</time>
      </trkpt>
      <trkpt lat="47.25472" lon="-1.90757">
        <ele>49</ele>
        <time>2021-03-14T14:22:27.000Z</time>
      </trkpt>
      <trkpt lat="47.25462" lon="-1.90738">
        <ele>49</ele>
        <time>2021-03-14T14:22:29.000Z</time>
      </trkpt>
      <trkpt lat="47.25452" lon="-1.90721">
        <ele>49</ele>
        <time>2021-03-14T14:22:31.000Z</time>
      </trkpt>
      <trkpt lat="47.25442" lon="-1.90702">
        <ele>48</ele>
        <time>2021-03-14T14:22:33.000Z</time>
      </trkpt>
      <trkpt lat="47.25432" lon="-1.90683">
        <ele>48</ele>
        <time>2021-03-14T14:22:35.000Z</time>
      </trkpt>
      <trkpt lat="47.25421" lon="-1.90665">
        <ele>49</ele>
        <time>2021-03-14T14:22:37.000Z</time>
      </trkpt>
      <trkpt lat="47.25411" lon="-1.90646">
        <ele>49</ele>
        <time>2021-03-14T14:22:39.000Z</time>
      </trkpt>
      <trkpt lat="47.25402" lon="-1.90628">
        <ele>49</ele>
        <time>2021-03-14T14:22:41.000Z</time>
      </trkpt>
      <trkpt lat="47.25392" lon="-1.90611">
        <ele>49</ele>
        <time>2021-03-14T14:22:43.000Z</time>
      </trkpt>
      <trkpt lat="47.25382" lon="-1.90594">
        <ele>49</ele>
        <time>2021-03-14T14:22:45.000Z</time>
      </trkpt>
      <trkpt lat="47.25373" lon="-1.90577">
        <ele>49</ele>
        <time>2021-03-14T14:22:47.000Z</time>
      </trkpt>
      <trkpt lat="47.25363" lon="-1.9056">
        <ele>49</ele>
        <time>2021-03-14T14:22:49.000Z</time>
      </trkpt>
      <trkpt lat="47.25354" lon="-1.90543">
        <ele>49</ele>
        <time>2021-03-14T14:22:51.000Z</time>
      </trkpt>
      <trkpt lat="47.25344" lon="-1.90526">
        <ele>49</ele>
        <time>2021-03-14T14:22:53.000Z</time>
      </trkpt>
      <trkpt lat="47.25335" lon="-1.90509">
        <ele>49</ele>
        <time>2021-03-14T14:22:55.000Z</time>
      </trkpt>
      <trkpt lat="47.25326" lon="-1.90493">
        <ele>49</ele>
        <time>2021-03-14T14:22:57.000Z</time>
      </trkpt>
      <trkpt lat="47.25317" lon="-1.90476">
        <ele>49</ele>
        <time>2021-03-14T14:22:59.000Z</time>
      </trkpt>
      <trkpt lat="47.25307" lon="-1.90459">
        <ele>49</ele>
        <time>2021-03-14T14:23:01.000Z</time>
      </trkpt>
      <trkpt lat="47.25298" lon="-1.90441">
        <ele>49</ele>
        <time>2021-03-14T14:23:03.000Z</time>
      </trkpt>
      <trkpt lat="47.25289" lon="-1.90425">
        <ele>49</ele>
        <time>2021-03-14T14:23:05.000Z</time>
      </trkpt>
      <trkpt lat="47.25279" lon="-1.90408">
        <ele>49</ele>
        <time>2021-03-14T14:23:07.000Z</time>
      </trkpt>
      <trkpt lat="47.2527" lon="-1.90391">
        <ele>49</ele>
        <time>2021-03-14T14:23:09.000Z</time>
      </trkpt>
      <trkpt lat="47.2526" lon="-1.90374">
        <ele>49</ele>
        <time>2021-03-14T14:23:11.000Z</time>
      </trkpt>
      <trkpt lat="47.25251" lon="-1.90357">
        <ele>49</ele>
        <time>2021-03-14T14:23:13.000Z</time>
      </trkpt>
      <trkpt lat="47.25242" lon="-1.9034">
        <ele>49</ele>
        <time>2021-03-14T14:23:15.000Z</time>
      </trkpt>
      <trkpt lat="47.25233" lon="-1.90324">
        <ele>49</ele>
        <time>2021-03-14T14:23:17.000Z</time>
      </trkpt>
      <trkpt lat="47.25223" lon="-1.90308">
        <ele>49</ele>
        <time>2021-03-14T14:23:19.000Z</time>
      </trkpt>
      <trkpt lat="47.25214" lon="-1.90291">
        <ele>49</ele>
        <time>2021-03-14T14:23:21.000Z</time>
      </trkpt>
      <trkpt lat="47.25205" lon="-1.90274">
        <ele>49</ele>
        <time>2021-03-14T14:23:23.000Z</time>
      </trkpt>
      <trkpt lat="47.25196" lon="-1.90257">
        <ele>49</ele>
        <time>2021-03-14T14:23:25.000Z</time>
      </trkpt>
      <trkpt lat="47.25186" lon="-1.9024">
        <ele>49</ele>
        <time>2021-03-14T14:23:27.000Z</time>
      </trkpt>
      <trkpt lat="47.25177" lon="-1.90222">
        <ele>49</ele>
        <time>2021-03-14T14:23:29.000Z</time>
      </trkpt>
      <trkpt lat="47.25168" lon="-1.90206">
        <ele>49</ele>
        <time>2021-03-14T14:23:31.000Z</time>
      </trkpt>
      <trkpt lat="47.25158" lon="-1.90189">
        <ele>50</ele>
        <time>2021-03-14T14:23:33.000Z</time>
      </trkpt>
      <trkpt lat="47.25149" lon="-1.90172">
        <ele>49</ele>
        <time>2021-03-14T14:23:35.000Z</time>
      </trkpt>
      <trkpt lat="47.25139" lon="-1.90154">
        <ele>49</ele>
        <time>2021-03-14T14:23:37.000Z</time>
      </trkpt>
      <trkpt lat="47.25129" lon="-1.90138">
        <ele>50</ele>
        <time>2021-03-14T14:23:39.000Z</time>
      </trkpt>
      <trkpt lat="47.25118" lon="-1.90123">
        <ele>50</ele>
        <time>2021-03-14T14:23:41.000Z</time>
      </trkpt>
      <trkpt lat="47.25105" lon="-1.90111">
        <ele>50</ele>
        <time>2021-03-14T14:23:43.000Z</time>
      </trkpt>
      <trkpt lat="47.25091" lon="-1.90104">
        <ele>50</ele>
        <time>2021-03-14T14:23:45.000Z</time>
      </trkpt>
      <trkpt lat="47.25077" lon="-1.90099">
        <ele>50</ele>
        <time>2021-03-14T14:23:47.000Z</time>
      </trkpt>
      <trkpt lat="47.25064" lon="-1.9009">
        <ele>50</ele>
        <time>2021-03-14T14:23:49.000Z</time>
      </trkpt>
      <trkpt lat="47.25053" lon="-1.90076">
        <ele>50</ele>
        <time>2021-03-14T14:23:51.000Z</time>
      </trkpt>
      <trkpt lat="47.25044" lon="-1.9006">
        <ele>50</ele>
        <time>2021-03-14T14:23:53.000Z</time>
      </trkpt>
      <trkpt lat="47.25035" lon="-1.90042">
        <ele>50</ele>
        <time>2021-03-14T14:23:55.000Z</time>
      </trkpt>
      <trkpt lat="47.25026" lon="-1.90023">
        <ele>50</ele>
        <time>2021-03-14T14:23:57.000Z</time>
      </trkpt>
      <trkpt lat="47.25017" lon="-1.90005">
        <ele>50</ele>
        <time>2021-03-14T14:23:59.000Z</time>
      </trkpt>
      <trkpt lat="47.25009" lon="-1.89988">
        <ele>49</ele>
        <time>2021-03-14T14:24:01.000Z</time>
      </trkpt>
      <trkpt lat="47.25" lon="-1.8997">
        <ele>49</ele>
        <time>2021-03-14T14:24:03.000Z</time>
      </trkpt>
      <trkpt lat="47.24992" lon="-1.89952">
        <ele>49</ele>
        <time>2021-03-14T14:24:05.000Z</time>
      </trkpt>
      <trkpt lat="47.24984" lon="-1.89934">
        <ele>50</ele>
        <time>2021-03-14T14:24:07.000Z</time>
      </trkpt>
      <trkpt lat="47.24977" lon="-1.89915">
        <ele>50</ele>
        <time>2021-03-14T14:24:09.000Z</time>
      </trkpt>
      <trkpt lat="47.24974" lon="-1.89894">
        <ele>50</ele>
        <time>2021-03-14T14:24:11.000Z</time>
      </trkpt>
      <trkpt lat="47.24972" lon="-1.89873">
        <ele>50</ele>
        <time>2021-03-14T14:24:13.000Z</time>
      </trkpt>
      <trkpt lat="47.24973" lon="-1.89852">
        <ele>50</ele>
        <time>2021-03-14T14:24:15.000Z</time>
      </trkpt>
      <trkpt lat="47.24973" lon="-1.8983">
        <ele>50</ele>
        <time>2021-03-14T14:24:17.000Z</time>
      </trkpt>
      <trkpt lat="47.2497" lon="-1.89808">
        <ele>49</ele>
        <time>2021-03-14T14:24:19.000Z</time>
      </trkpt>
      <trkpt lat="47.24962" lon="-1.89788">
        <ele>49</ele>
        <time>2021-03-14T14:24:21.000Z</time>
      </trkpt>
      <trkpt lat="47.24954" lon="-1.89769">
        <ele>49</ele>
        <time>2021-03-14T14:24:23.000Z</time>
      </trkpt>
      <trkpt lat="47.24945" lon="-1.8975">
        <ele>49</ele>
        <time>2021-03-14T14:24:25.000Z</time>
      </trkpt>
      <trkpt lat="47.24937" lon="-1.89731">
        <ele>49</ele>
        <time>2021-03-14T14:24:27.000Z</time>
      </trkpt>
      <trkpt lat="47.2493" lon="-1.89712">
        <ele>50</ele>
        <time>2021-03-14T14:24:29.000Z</time>
      </trkpt>
      <trkpt lat="47.24923" lon="-1.89694">
        <ele>49</ele>
        <time>2021-03-14T14:24:31.000Z</time>
      </trkpt>
      <trkpt lat="47.24916" lon="-1.89675">
        <ele>49</ele>
        <time>2021-03-14T14:24:33.000Z</time>
      </trkpt>
      <trkpt lat="47.24909" lon="-1.89657">
        <ele>50</ele>
        <time>2021-03-14T14:24:35.000Z</time>
      </trkpt>
      <trkpt lat="47.24901" lon="-1.89639">
        <ele>49</ele>
        <time>2021-03-14T14:24:37.000Z</time>
      </trkpt>
      <trkpt lat="47.24894" lon="-1.89621">
        <ele>50</ele>
        <time>2021-03-14T14:24:39.000Z</time>
      </trkpt>
      <trkpt lat="47.24886" lon="-1.89602">
        <ele>50</ele>
        <time>2021-03-14T14:24:41.000Z</time>
      </trkpt>
      <trkpt lat="47.24879" lon="-1.89583">
        <ele>50</ele>
        <time>2021-03-14T14:24:43.000Z</time>
      </trkpt>
      <trkpt lat="47.24871" lon="-1.89565">
        <ele>50</ele>
        <time>2021-03-14T14:24:45.000Z</time>
      </trkpt>
      <trkpt lat="47.24864" lon="-1.89547">
        <ele>50</ele>
        <time>2021-03-14T14:24:47.000Z</time>
      </trkpt>
      <trkpt lat="47.24857" lon="-1.89528">
        <ele>50</ele>
        <time>2021-03-14T14:24:49.000Z</time>
      </trkpt>
      <trkpt lat="47.24849" lon="-1.89509">
        <ele>50</ele>
        <time>2021-03-14T14:24:51.000Z</time>
      </trkpt>
      <trkpt lat="47.24842" lon="-1.89491">
        <ele>50</ele>
        <time>2021-03-14T14:24:53.000Z</time>
      </trkpt>
      <trkpt lat="47.24834" lon="-1.89473">
        <ele>50</ele>
        <time>2021-03-14T14:24:55.000Z</time>
      </trkpt>
      <trkpt lat="47.24827" lon="-1.89455">
        <ele>50</ele>
        <time>2021-03-14T14:24:57.000Z</time>
      </trkpt>
      <trkpt lat="47.24819" lon="-1.89437">
        <ele>50</ele>
        <time>2021-03-14T14:24:59.000Z</time>
      </trkpt>
      <trkpt lat="47.24812" lon="-1.89418">
        <ele>50</ele>
        <time>2021-03-14T14:25:01.000Z</time>
      </trkpt>
      <trkpt lat="47.24805" lon="-1.894">
        <ele>50</ele>
        <time>2021-03-14T14:25:03.000Z</time>
      </trkpt>
      <trkpt lat="47.24797" lon="-1.89381">
        <ele>50</ele>
        <time>2021-03-14T14:25:05.000Z</time>
      </trkpt>
      <trkpt lat="47.24789" lon="-1.89362">
        <ele>50</ele>
        <time>2021-03-14T14:25:07.000Z</time>
      </trkpt>
      <trkpt lat="47.24782" lon="-1.89342">
        <ele>49</ele>
        <time>2021-03-14T14:25:09.000Z</time>
      </trkpt>
      <trkpt lat="47.24774" lon="-1.89324">
        <ele>50</ele>
        <time>2021-03-14T14:25:11.000Z</time>
      </trkpt>
      <trkpt lat="47.24767" lon="-1.89305">
        <ele>49</ele>
        <time>2021-03-14T14:25:13.000Z</time>
      </trkpt>
      <trkpt lat="47.2476" lon="-1.89287">
        <ele>49</ele>
        <time>2021-03-14T14:25:15.000Z</time>
      </trkpt>
      <trkpt lat="47.24752" lon="-1.89268">
        <ele>49</ele>
        <time>2021-03-14T14:25:17.000Z</time>
      </trkpt>
      <trkpt lat="47.24745" lon="-1.89249">
        <ele>49</ele>
        <time>2021-03-14T14:25:19.000Z</time>
      </trkpt>
      <trkpt lat="47.24737" lon="-1.8923">
        <ele>49</ele>
        <time>2021-03-14T14:25:21.000Z</time>
      </trkpt>
      <trkpt lat="47.2473" lon="-1.89211">
        <ele>49</ele>
        <time>2021-03-14T14:25:23.000Z</time>
      </trkpt>
      <trkpt lat="47.24722" lon="-1.89192">
        <ele>49</ele>
        <time>2021-03-14T14:25:25.000Z</time>
      </trkpt>
      <trkpt lat="47.24714" lon="-1.89174">
        <ele>49</ele>
        <time>2021-03-14T14:25:27.000Z</time>
      </trkpt>
      <trkpt lat="47.24707" lon="-1.89155">
        <ele>48</ele>
        <time>2021-03-14T14:25:29.000Z</time>
      </trkpt>
      <trkpt lat="47.247" lon="-1.89137">
        <ele>48</ele>
        <time>2021-03-14T14:25:31.000Z</time>
      </trkpt>
      <trkpt lat="47.24692" lon="-1.89118">
        <ele>48</ele>
        <time>2021-03-14T14:25:33.000Z</time>
      </trkpt>
      <trkpt lat="47.24684" lon="-1.891">
        <ele>48</ele>
        <time>2021-03-14T14:25:35.000Z</time>
      </trkpt>
      <trkpt lat="47.24677" lon="-1.89081">
        <ele>49</ele>
        <time>2021-03-14T14:25:37.000Z</time>
      </trkpt>
      <trkpt lat="47.2467" lon="-1.89062">
        <ele>49</ele>
        <time>2021-03-14T14:25:39.000Z</time>
      </trkpt>
      <trkpt lat="47.24662" lon="-1.89043">
        <ele>49</ele>
        <time>2021-03-14T14:25:41.000Z</time>
      </trkpt>
      <trkpt lat="47.24655" lon="-1.89023">
        <ele>49</ele>
        <time>2021-03-14T14:25:43.000Z</time>
      </trkpt>
      <trkpt lat="47.24646" lon="-1.89002">
        <ele>49</ele>
        <time>2021-03-14T14:25:45.000Z</time>
      </trkpt>
      <trkpt lat="47.24637" lon="-1.88982">
        <ele>49</ele>
        <time>2021-03-14T14:25:47.000Z</time>
      </trkpt>
      <trkpt lat="47.24629" lon="-1.88961">
        <ele>49</ele>
        <time>2021-03-14T14:25:49.000Z</time>
      </trkpt>
      <trkpt lat="47.2462" lon="-1.88939">
        <ele>49</ele>
        <time>2021-03-14T14:25:51.000Z</time>
      </trkpt>
      <trkpt lat="47.24612" lon="-1.88918">
        <ele>49</ele>
        <time>2021-03-14T14:25:53.000Z</time>
      </trkpt>
      <trkpt lat="47.24604" lon="-1.88898">
        <ele>50</ele>
        <time>2021-03-14T14:25:55.000Z</time>
      </trkpt>
      <trkpt lat="47.24596" lon="-1.88878">
        <ele>50</ele>
        <time>2021-03-14T14:25:57.000Z</time>
      </trkpt>
      <trkpt lat="47.24588" lon="-1.88858">
        <ele>50</ele>
        <time>2021-03-14T14:25:59.000Z</time>
      </trkpt>
      <trkpt lat="47.2458" lon="-1.88837">
        <ele>50</ele>
        <time>2021-03-14T14:26:01.000Z</time>
      </trkpt>
      <trkpt lat="47.24572" lon="-1.88817">
        <ele>50</ele>
        <time>2021-03-14T14:26:03.000Z</time>
      </trkpt>
      <trkpt lat="47.24564" lon="-1.88797">
        <ele>51</ele>
        <time>2021-03-14T14:26:05.000Z</time>
      </trkpt>
      <trkpt lat="47.24556" lon="-1.88777">
        <ele>51</ele>
        <time>2021-03-14T14:26:07.000Z</time>
      </trkpt>
      <trkpt lat="47.24547" lon="-1.88757">
        <ele>50</ele>
        <time>2021-03-14T14:26:09.000Z</time>
      </trkpt>
      <trkpt lat="47.24539" lon="-1.88736">
        <ele>50</ele>
        <time>2021-03-14T14:26:11.000Z</time>
      </trkpt>
      <trkpt lat="47.2453" lon="-1.88715">
        <ele>50</ele>
        <time>2021-03-14T14:26:13.000Z</time>
      </trkpt>
      <trkpt lat="47.24521" lon="-1.88694">
        <ele>50</ele>
        <time>2021-03-14T14:26:15.000Z</time>
      </trkpt>
      <trkpt lat="47.24513" lon="-1.88674">
        <ele>49</ele>
        <time>2021-03-14T14:26:17.000Z</time>
      </trkpt>
      <trkpt lat="47.24504" lon="-1.88653">
        <ele>49</ele>
        <time>2021-03-14T14:26:19.000Z</time>
      </trkpt>
      <trkpt lat="47.24495" lon="-1.88632">
        <ele>49</ele>
        <time>2021-03-14T14:26:21.000Z</time>
      </trkpt>
      <trkpt lat="47.24487" lon="-1.88612">
        <ele>49</ele>
        <time>2021-03-14T14:26:23.000Z</time>
      </trkpt>
      <trkpt lat="47.24479" lon="-1.88592">
        <ele>49</ele>
        <time>2021-03-14T14:26:25.000Z</time>
      </trkpt>
      <trkpt lat="47.2447" lon="-1.88572">
        <ele>49</ele>
        <time>2021-03-14T14:26:27.000Z</time>
      </trkpt>
      <trkpt lat="47.24461" lon="-1.88551">
        <ele>49</ele>
        <time>2021-03-14T14:26:29.000Z</time>
      </trkpt>
      <trkpt lat="47.24451" lon="-1.8853">
        <ele>49</ele>
        <time>2021-03-14T14:26:31.000Z</time>
      </trkpt>
      <trkpt lat="47.24443" lon="-1.88509">
        <ele>49</ele>
        <time>2021-03-14T14:26:33.000Z</time>
      </trkpt>
      <trkpt lat="47.24434" lon="-1.88489">
        <ele>49</ele>
        <time>2021-03-14T14:26:35.000Z</time>
      </trkpt>
      <trkpt lat="47.24425" lon="-1.88469">
        <ele>49</ele>
        <time>2021-03-14T14:26:37.000Z</time>
      </trkpt>
      <trkpt lat="47.24416" lon="-1.88449">
        <ele>49</ele>
        <time>2021-03-14T14:26:39.000Z</time>
      </trkpt>
      <trkpt lat="47.24407" lon="-1.88428">
        <ele>49</ele>
        <time>2021-03-14T14:26:41.000Z</time>
      </trkpt>
      <trkpt lat="47.24397" lon="-1.88408">
        <ele>49</ele>
        <time>2021-03-14T14:26:43.000Z</time>
      </trkpt>
      <trkpt lat="47.24388" lon="-1.88387">
        <ele>49</ele>
        <time>2021-03-14T14:26:45.000Z</time>
      </trkpt>
      <trkpt lat="47.24379" lon="-1.88367">
        <ele>50</ele>
        <time>2021-03-14T14:26:47.000Z</time>
      </trkpt>
      <trkpt lat="47.2437" lon="-1.88348">
        <ele>50</ele>
        <time>2021-03-14T14:26:49.000Z</time>
      </trkpt>
      <trkpt lat="47.2436" lon="-1.88328">
        <ele>50</ele>
        <time>2021-03-14T14:26:51.000Z</time>
      </trkpt>
      <trkpt lat="47.24351" lon="-1.88308">
        <ele>49</ele>
        <time>2021-03-14T14:26:53.000Z</time>
      </trkpt>
      <trkpt lat="47.24342" lon="-1.88289">
        <ele>49</ele>
        <time>2021-03-14T14:26:55.000Z</time>
      </trkpt>
      <trkpt lat="47.24332" lon="-1.8827">
        <ele>49</ele>
        <time>2021-03-14T14:26:57.000Z</time>
      </trkpt>
      <trkpt lat="47.24324" lon="-1.88251">
        <ele>49</ele>
        <time>2021-03-14T14:26:59.000Z</time>
      </trkpt>
      <trkpt lat="47.24314" lon="-1.88231">
        <ele>49</ele>
        <time>2021-03-14T14:27:01.000Z</time>
      </trkpt>
      <trkpt lat="47.24305" lon="-1.88213">
        <ele>49</ele>
        <time>2021-03-14T14:27:03.000Z</time>
      </trkpt>
      <trkpt lat="47.24296" lon="-1.88194">
        <ele>49</ele>
        <time>2021-03-14T14:27:05.000Z</time>
      </trkpt>
      <trkpt lat="47.24287" lon="-1.88175">
        <ele>49</ele>
        <time>2021-03-14T14:27:07.000Z</time>
      </trkpt>
      <trkpt lat="47.24278" lon="-1.88156">
        <ele>49</ele>
        <time>2021-03-14T14:27:09.000Z</time>
      </trkpt>
      <trkpt lat="47.24268" lon="-1.88137">
        <ele>49</ele>
        <time>2021-03-14T14:27:11.000Z</time>
      </trkpt>
      <trkpt lat="47.24259" lon="-1.88118">
        <ele>49</ele>
        <time>2021-03-14T14:27:13.000Z</time>
      </trkpt>
      <trkpt lat="47.24249" lon="-1.88099">
        <ele>49</ele>
        <time>2021-03-14T14:27:15.000Z</time>
      </trkpt>
      <trkpt lat="47.2424" lon="-1.8808">
        <ele>49</ele>
        <time>2021-03-14T14:27:17.000Z</time>
      </trkpt>
      <trkpt lat="47.2423" lon="-1.88061">
        <ele>49</ele>
        <time>2021-03-14T14:27:19.000Z</time>
      </trkpt>
      <trkpt lat="47.24221" lon="-1.88043">
        <ele>49</ele>
        <time>2021-03-14T14:27:21.000Z</time>
      </trkpt>
      <trkpt lat="47.24212" lon="-1.88024">
        <ele>49</ele>
        <time>2021-03-14T14:27:23.000Z</time>
      </trkpt>
      <trkpt lat="47.24203" lon="-1.88005">
        <ele>49</ele>
        <time>2021-03-14T14:27:25.000Z</time>
      </trkpt>
      <trkpt lat="47.24193" lon="-1.87987">
        <ele>49</ele>
        <time>2021-03-14T14:27:27.000Z</time>
      </trkpt>
      <trkpt lat="47.24184" lon="-1.87968">
        <ele>49</ele>
        <time>2021-03-14T14:27:29.000Z</time>
      </trkpt>
      <trkpt lat="47.24175" lon="-1.8795">
        <ele>49</ele>
        <time>2021-03-14T14:27:31.000Z</time>
      </trkpt>
      <trkpt lat="47.24166" lon="-1.87931">
        <ele>49</ele>
        <time>2021-03-14T14:27:33.000Z</time>
      </trkpt>
      <trkpt lat="47.24156" lon="-1.87913">
        <ele>49</ele>
        <time>2021-03-14T14:27:35.000Z</time>
      </trkpt>
      <trkpt lat="47.24147" lon="-1.87895">
        <ele>49</ele>
        <time>2021-03-14T14:27:37.000Z</time>
      </trkpt>
      <trkpt lat="47.24137" lon="-1.87875">
        <ele>49</ele>
        <time>2021-03-14T14:27:39.000Z</time>
      </trkpt>
      <trkpt lat="47.24128" lon="-1.87855">
        <ele>49</ele>
        <time>2021-03-14T14:27:41.000Z</time>
      </trkpt>
      <trkpt lat="47.24118" lon="-1.87836">
        <ele>49</ele>
        <time>2021-03-14T14:27:43.000Z</time>
      </trkpt>
      <trkpt lat="47.24109" lon="-1.87818">
        <ele>49</ele>
        <time>2021-03-14T14:27:45.000Z</time>
      </trkpt>
      <trkpt lat="47.24099" lon="-1.878">
        <ele>49</ele>
        <time>2021-03-14T14:27:47.000Z</time>
      </trkpt>
      <trkpt lat="47.2409" lon="-1.87781">
        <ele>49</ele>
        <time>2021-03-14T14:27:49.000Z</time>
      </trkpt>
      <trkpt lat="47.24081" lon="-1.87763">
        <ele>49</ele>
        <time>2021-03-14T14:27:51.000Z</time>
      </trkpt>
      <trkpt lat="47.24072" lon="-1.87744">
        <ele>49</ele>
        <time>2021-03-14T14:27:53.000Z</time>
      </trkpt>
      <trkpt lat="47.24063" lon="-1.87726">
        <ele>49</ele>
        <time>2021-03-14T14:27:55.000Z</time>
      </trkpt>
      <trkpt lat="47.24054" lon="-1.87708">
        <ele>49</ele>
        <time>2021-03-14T14:27:57.000Z</time>
      </trkpt>
      <trkpt lat="47.24045" lon="-1.87691">
        <ele>49</ele>
        <time>2021-03-14T14:27:59.000Z</time>
      </trkpt>
      <trkpt lat="47.24036" lon="-1.87672">
        <ele>49</ele>
        <time>2021-03-14T14:28:01.000Z</time>
      </trkpt>
      <trkpt lat="47.24027" lon="-1.87654">
        <ele>49</ele>
        <time>2021-03-14T14:28:03.000Z</time>
      </trkpt>
      <trkpt lat="47.24019" lon="-1.87636">
        <ele>49</ele>
        <time>2021-03-14T14:28:05.000Z</time>
      </trkpt>
      <trkpt lat="47.2401" lon="-1.87618">
        <ele>49</ele>
        <time>2021-03-14T14:28:07.000Z</time>
      </trkpt>
      <trkpt lat="47.24002" lon="-1.876">
        <ele>49</ele>
        <time>2021-03-14T14:28:09.000Z</time>
      </trkpt>
      <trkpt lat="47.23992" lon="-1.87582">
        <ele>49</ele>
        <time>2021-03-14T14:28:11.000Z</time>
      </trkpt>
      <trkpt lat="47.23984" lon="-1.87564">
        <ele>49</ele>
        <time>2021-03-14T14:28:13.000Z</time>
      </trkpt>
      <trkpt lat="47.23975" lon="-1.87547">
        <ele>48</ele>
        <time>2021-03-14T14:28:15.000Z</time>
      </trkpt>
      <trkpt lat="47.23966" lon="-1.87529">
        <ele>48</ele>
        <time>2021-03-14T14:28:17.000Z</time>
      </trkpt>
      <trkpt lat="47.23957" lon="-1.87511">
        <ele>49</ele>
        <time>2021-03-14T14:28:19.000Z</time>
      </trkpt>
      <trkpt lat="47.23948" lon="-1.87494">
        <ele>48</ele>
        <time>2021-03-14T14:28:21.000Z</time>
      </trkpt>
      <trkpt lat="47.2394" lon="-1.87476">
        <ele>48</ele>
        <time>2021-03-14T14:28:23.000Z</time>
      </trkpt>
      <trkpt lat="47.23931" lon="-1.87459">
        <ele>49</ele>
        <time>2021-03-14T14:28:25.000Z</time>
      </trkpt>
      <trkpt lat="47.23922" lon="-1.87441">
        <ele>48</ele>
        <time>2021-03-14T14:28:27.000Z</time>
      </trkpt>
      <trkpt lat="47.23913" lon="-1.87423">
        <ele>48</ele>
        <time>2021-03-14T14:28:29.000Z</time>
      </trkpt>
      <trkpt lat="47.23904" lon="-1.87405">
        <ele>48</ele>
        <time>2021-03-14T14:28:31.000Z</time>
      </trkpt>
      <trkpt lat="47.23895" lon="-1.87388">
        <ele>49</ele>
        <time>2021-03-14T14:28:33.000Z</time>
      </trkpt>
      <trkpt lat="47.23886" lon="-1.87371">
        <ele>49</ele>
        <time>2021-03-14T14:28:35.000Z</time>
      </trkpt>
      <trkpt lat="47.23878" lon="-1.87354">
        <ele>49</ele>
        <time>2021-03-14T14:28:37.000Z</time>
      </trkpt>
      <trkpt lat="47.23869" lon="-1.87336">
        <ele>49</ele>
        <time>2021-03-14T14:28:39.000Z</time>
      </trkpt>
      <trkpt lat="47.2386" lon="-1.87319">
        <ele>48</ele>
        <time>2021-03-14T14:28:41.000Z</time>
      </trkpt>
      <trkpt lat="47.23851" lon="-1.873">
        <ele>49</ele>
        <time>2021-03-14T14:28:43.000Z</time>
      </trkpt>
      <trkpt lat="47.23843" lon="-1.87283">
        <ele>49</ele>
        <time>2021-03-14T14:28:45.000Z</time>
      </trkpt>
      <trkpt lat="47.23835" lon="-1.87265">
        <ele>49</ele>
        <time>2021-03-14T14:28:47.000Z</time>
      </trkpt>
      <trkpt lat="47.23828" lon="-1.87247">
        <ele>49</ele>
        <time>2021-03-14T14:28:49.000Z</time>
      </trkpt>
      <trkpt lat="47.23821" lon="-1.87229">
        <ele>50</ele>
        <time>2021-03-14T14:28:51.000Z</time>
      </trkpt>
      <trkpt lat="47.23813" lon="-1.87211">
        <ele>50</ele>
        <time>2021-03-14T14:28:53.000Z</time>
      </trkpt>
      <trkpt lat="47.23806" lon="-1.87192">
        <ele>50</ele>
        <time>2021-03-14T14:28:55.000Z</time>
      </trkpt>
      <trkpt lat="47.23796" lon="-1.87174">
        <ele>50</ele>
        <time>2021-03-14T14:28:57.000Z</time>
      </trkpt>
      <trkpt lat="47.23787" lon="-1.87157">
        <ele>50</ele>
        <time>2021-03-14T14:28:59.000Z</time>
      </trkpt>
      <trkpt lat="47.23776" lon="-1.87141">
        <ele>50</ele>
        <time>2021-03-14T14:29:01.000Z</time>
      </trkpt>
      <trkpt lat="47.23767" lon="-1.87125">
        <ele>50</ele>
        <time>2021-03-14T14:29:03.000Z</time>
      </trkpt>
      <trkpt lat="47.23757" lon="-1.87107">
        <ele>50</ele>
        <time>2021-03-14T14:29:05.000Z</time>
      </trkpt>
      <trkpt lat="47.23748" lon="-1.8709">
        <ele>50</ele>
        <time>2021-03-14T14:29:07.000Z</time>
      </trkpt>
      <trkpt lat="47.23739" lon="-1.87072">
        <ele>49</ele>
        <time>2021-03-14T14:29:09.000Z</time>
      </trkpt>
      <trkpt lat="47.2373" lon="-1.87055">
        <ele>49</ele>
        <time>2021-03-14T14:29:11.000Z</time>
      </trkpt>
      <trkpt lat="47.23721" lon="-1.87037">
        <ele>49</ele>
        <time>2021-03-14T14:29:13.000Z</time>
      </trkpt>
      <trkpt lat="47.23713" lon="-1.87019">
        <ele>50</ele>
        <time>2021-03-14T14:29:15.000Z</time>
      </trkpt>
      <trkpt lat="47.23705" lon="-1.87002">
        <ele>50</ele>
        <time>2021-03-14T14:29:17.000Z</time>
      </trkpt>
      <trkpt lat="47.23697" lon="-1.86986">
        <ele>49</ele>
        <time>2021-03-14T14:29:19.000Z</time>
      </trkpt>
      <trkpt lat="47.23688" lon="-1.86968">
        <ele>49</ele>
        <time>2021-03-14T14:29:21.000Z</time>
      </trkpt>
      <trkpt lat="47.23679" lon="-1.8695">
        <ele>49</ele>
        <time>2021-03-14T14:29:23.000Z</time>
      </trkpt>
      <trkpt lat="47.2367" lon="-1.86932">
        <ele>49</ele>
        <time>2021-03-14T14:29:25.000Z</time>
      </trkpt>
      <trkpt lat="47.23662" lon="-1.86915">
        <ele>50</ele>
        <time>2021-03-14T14:29:27.000Z</time>
      </trkpt>
      <trkpt lat="47.23654" lon="-1.869">
        <ele>50</ele>
        <time>2021-03-14T14:29:29.000Z</time>
      </trkpt>
      <trkpt lat="47.23648" lon="-1.86887">
        <ele>50</ele>
        <time>2021-03-14T14:29:31.000Z</time>
      </trkpt>
      <trkpt lat="47.23642" lon="-1.86875">
        <ele>50</ele>
        <time>2021-03-14T14:29:33.000Z</time>
      </trkpt>
      <trkpt lat="47.23636" lon="-1.86863">
        <ele>50</ele>
        <time>2021-03-14T14:29:35.000Z</time>
      </trkpt>
      <trkpt lat="47.23629" lon="-1.86849">
        <ele>50</ele>
        <time>2021-03-14T14:29:37.000Z</time>
      </trkpt>
      <trkpt lat="47.23621" lon="-1.86833">
        <ele>49</ele>
        <time>2021-03-14T14:29:39.000Z</time>
      </trkpt>
      <trkpt lat="47.23613" lon="-1.86816">
        <ele>49</ele>
        <time>2021-03-14T14:29:41.000Z</time>
      </trkpt>
      <trkpt lat="47.23604" lon="-1.86799">
        <ele>49</ele>
        <time>2021-03-14T14:29:43.000Z</time>
      </trkpt>
      <trkpt lat="47.23595" lon="-1.86782">
        <ele>49</ele>
        <time>2021-03-14T14:29:45.000Z</time>
      </trkpt>
      <trkpt lat="47.23587" lon="-1.86764">
        <ele>49</ele>
        <time>2021-03-14T14:29:47.000Z</time>
      </trkpt>
      <trkpt lat="47.23578" lon="-1.86747">
        <ele>49</ele>
        <time>2021-03-14T14:29:49.000Z</time>
      </trkpt>
      <trkpt lat="47.23571" lon="-1.86731">
        <ele>49</ele>
        <time>2021-03-14T14:29:51.000Z</time>
      </trkpt>
      <trkpt lat="47.23564" lon="-1.86716">
        <ele>49</ele>
        <time>2021-03-14T14:29:53.000Z</time>
      </trkpt>
      <trkpt lat="47.23557" lon="-1.86702">
        <ele>49</ele>
        <time>2021-03-14T14:29:55.000Z</time>
      </trkpt>
      <trkpt lat="47.2355" lon="-1.86689">
        <ele>50</ele>
        <time>2021-03-14T14:29:57.000Z</time>
      </trkpt>
      <trkpt lat="47.23541" lon="-1.86673">
        <ele>49</ele>
        <time>2021-03-14T14:29:59.000Z</time>
      </trkpt>
      <trkpt lat="47.23532" lon="-1.86654">
        <ele>49</ele>
        <time>2021-03-14T14:30:01.000Z</time>
      </trkpt>
      <trkpt lat="47.23523" lon="-1.86636">
        <ele>49</ele>
        <time>2021-03-14T14:30:03.000Z</time>
      </trkpt>
      <trkpt lat="47.23513" lon="-1.86617">
        <ele>49</ele>
        <time>2021-03-14T14:30:05.000Z</time>
      </trkpt>
      <trkpt lat="47.23503" lon="-1.86598">
        <ele>49</ele>
        <time>2021-03-14T14:30:07.000Z</time>
      </trkpt>
      <trkpt lat="47.23494" lon="-1.86579">
        <ele>49</ele>
        <time>2021-03-14T14:30:09.000Z</time>
      </trkpt>
      <trkpt lat="47.23484" lon="-1.86561">
        <ele>49</ele>
        <time>2021-03-14T14:30:11.000Z</time>
      </trkpt>
      <trkpt lat="47.23474" lon="-1.86541">
        <ele>49</ele>
        <time>2021-03-14T14:30:13.000Z</time>
      </trkpt>
      <trkpt lat="47.23465" lon="-1.86523">
        <ele>49</ele>
        <time>2021-03-14T14:30:15.000Z</time>
      </trkpt>
      <trkpt lat="47.23456" lon="-1.86505">
        <ele>49</ele>
        <time>2021-03-14T14:30:17.000Z</time>
      </trkpt>
      <trkpt lat="47.23447" lon="-1.86487">
        <ele>49</ele>
        <time>2021-03-14T14:30:19.000Z</time>
      </trkpt>
      <trkpt lat="47.23438" lon="-1.86469">
        <ele>49</ele>
        <time>2021-03-14T14:30:21.000Z</time>
      </trkpt>
      <trkpt lat="47.23428" lon="-1.86451">
        <ele>49</ele>
        <time>2021-03-14T14:30:23.000Z</time>
      </trkpt>
      <trkpt lat="47.23419" lon="-1.86433">
        <ele>49</ele>
        <time>2021-03-14T14:30:25.000Z</time>
      </trkpt>
      <trkpt lat="47.2341" lon="-1.86414">
        <ele>48</ele>
        <time>2021-03-14T14:30:27.000Z</time>
      </trkpt>
      <trkpt lat="47.23402" lon="-1.86395">
        <ele>49</ele>
        <time>2021-03-14T14:30:29.000Z</time>
      </trkpt>
      <trkpt lat="47.23392" lon="-1.86377">
        <ele>48</ele>
        <time>2021-03-14T14:30:31.000Z</time>
      </trkpt>
      <trkpt lat="47.23383" lon="-1.86358">
        <ele>48</ele>
        <time>2021-03-14T14:30:33.000Z</time>
      </trkpt>
      <trkpt lat="47.23374" lon="-1.8634">
        <ele>48</ele>
        <time>2021-03-14T14:30:35.000Z</time>
      </trkpt>
      <trkpt lat="47.23364" lon="-1.86321">
        <ele>48</ele>
        <time>2021-03-14T14:30:37.000Z</time>
      </trkpt>
      <trkpt lat="47.23355" lon="-1.86303">
        <ele>48</ele>
        <time>2021-03-14T14:30:39.000Z</time>
      </trkpt>
      <trkpt lat="47.23346" lon="-1.86284">
        <ele>48</ele>
        <time>2021-03-14T14:30:41.000Z</time>
      </trkpt>
      <trkpt lat="47.23337" lon="-1.86265">
        <ele>48</ele>
        <time>2021-03-14T14:30:43.000Z</time>
      </trkpt>
      <trkpt lat="47.23327" lon="-1.86246">
        <ele>48</ele>
        <time>2021-03-14T14:30:45.000Z</time>
      </trkpt>
      <trkpt lat="47.23318" lon="-1.86228">
        <ele>48</ele>
        <time>2021-03-14T14:30:47.000Z</time>
      </trkpt>
      <trkpt lat="47.23309" lon="-1.86209">
        <ele>48</ele>
        <time>2021-03-14T14:30:49.000Z</time>
      </trkpt>
      <trkpt lat="47.233" lon="-1.86191">
        <ele>49</ele>
        <time>2021-03-14T14:30:51.000Z</time>
      </trkpt>
      <trkpt lat="47.2329" lon="-1.86173">
        <ele>48</ele>
        <time>2021-03-14T14:30:53.000Z</time>
      </trkpt>
      <trkpt lat="47.23281" lon="-1.86154">
        <ele>48</ele>
        <time>2021-03-14T14:30:55.000Z</time>
      </trkpt>
      <trkpt lat="47.23272" lon="-1.86136">
        <ele>48</ele>
        <time>2021-03-14T14:30:57.000Z</time>
      </trkpt>
      <trkpt lat="47.23263" lon="-1.86118">
        <ele>48</ele>
        <time>2021-03-14T14:30:59.000Z</time>
      </trkpt>
      <trkpt lat="47.23254" lon="-1.861">
        <ele>48</ele>
        <time>2021-03-14T14:31:01.000Z</time>
      </trkpt>
      <trkpt lat="47.23246" lon="-1.86083">
        <ele>48</ele>
        <time>2021-03-14T14:31:03.000Z</time>
      </trkpt>
      <trkpt lat="47.23237" lon="-1.86064">
        <ele>48</ele>
        <time>2021-03-14T14:31:05.000Z</time>
      </trkpt>
      <trkpt lat="47.23228" lon="-1.86046">
        <ele>49</ele>
        <time>2021-03-14T14:31:07.000Z</time>
      </trkpt>
      <trkpt lat="47.23219" lon="-1.86028">
        <ele>49</ele>
        <time>2021-03-14T14:31:09.000Z</time>
      </trkpt>
      <trkpt lat="47.2321" lon="-1.8601">
        <ele>49</ele>
        <time>2021-03-14T14:31:11.000Z</time>
      </trkpt>
      <trkpt lat="47.23201" lon="-1.85991">
        <ele>49</ele>
        <time>2021-03-14T14:31:13.000Z</time>
      </trkpt>
      <trkpt lat="47.23192" lon="-1.85973">
        <ele>49</ele>
        <time>2021-03-14T14:31:15.000Z</time>
      </trkpt>
      <trkpt lat="47.23183" lon="-1.85956">
        <ele>49</ele>
        <time>2021-03-14T14:31:17.000Z</time>
      </trkpt>
      <trkpt lat="47.23174" lon="-1.85938">
        <ele>49</ele>
        <time>2021-03-14T14:31:19.000Z</time>
      </trkpt>
      <trkpt lat="47.23165" lon="-1.8592">
        <ele>49</ele>
        <time>2021-03-14T14:31:21.000Z</time>
      </trkpt>
      <trkpt lat="47.23156" lon="-1.85901">
        <ele>49</ele>
        <time>2021-03-14T14:31:23.000Z</time>
      </trkpt>
      <trkpt lat="47.23146" lon="-1.85882">
        <ele>49</ele>
        <time>2021-03-14T14:31:25.000Z</time>
      </trkpt>
      <trkpt lat="47.23137" lon="-1.85863">
        <ele>49</ele>
        <time>2021-03-14T14:31:27.000Z</time>
      </trkpt>
      <trkpt lat="47.23128" lon="-1.85845">
        <ele>49</ele>
        <time>2021-03-14T14:31:29.000Z</time>
      </trkpt>
      <trkpt lat="47.23119" lon="-1.85827">
        <ele>49</ele>
        <time>2021-03-14T14:31:31.000Z</time>
      </trkpt>
      <trkpt lat="47.2311" lon="-1.85809">
        <ele>49</ele>
        <time>2021-03-14T14:31:33.000Z</time>
      </trkpt>
      <trkpt lat="47.23101" lon="-1.85792">
        <ele>48</ele>
        <time>2021-03-14T14:31:35.000Z</time>
      </trkpt>
      <trkpt lat="47.23093" lon="-1.85774">
        <ele>49</ele>
        <time>2021-03-14T14:31:37.000Z</time>
      </trkpt>
      <trkpt lat="47.23084" lon="-1.85757">
        <ele>48</ele>
        <time>2021-03-14T14:31:39.000Z</time>
      </trkpt>
      <trkpt lat="47.23076" lon="-1.8574">
        <ele>49</ele>
        <time>2021-03-14T14:31:41.000Z</time>
      </trkpt>
      <trkpt lat="47.23067" lon="-1.85723">
        <ele>49</ele>
        <time>2021-03-14T14:31:43.000Z</time>
      </trkpt>
      <trkpt lat="47.23058" lon="-1.85705">
        <ele>49</ele>
        <time>2021-03-14T14:31:45.000Z</time>
      </trkpt>
      <trkpt lat="47.2305" lon="-1.85688">
        <ele>49</ele>
        <time>2021-03-14T14:31:47.000Z</time>
      </trkpt>
      <trkpt lat="47.23042" lon="-1.85671">
        <ele>49</ele>
        <time>2021-03-14T14:31:49.000Z</time>
      </trkpt>
      <trkpt lat="47.23033" lon="-1.85653">
        <ele>49</ele>
        <time>2021-03-14T14:31:51.000Z</time>
      </trkpt>
      <trkpt lat="47.23024" lon="-1.85636">
        <ele>49</ele>
        <time>2021-03-14T14:31:53.000Z</time>
      </trkpt>
      <trkpt lat="47.23015" lon="-1.85619">
        <ele>49</ele>
        <time>2021-03-14T14:31:55.000Z</time>
      </trkpt>
      <trkpt lat="47.23006" lon="-1.85601">
        <ele>49</ele>
        <time>2021-03-14T14:31:57.000Z</time>
      </trkpt>
      <trkpt lat="47.22998" lon="-1.85583">
        <ele>49</ele>
        <time>2021-03-14T14:31:59.000Z</time>
      </trkpt>
      <trkpt lat="47.22989" lon="-1.85565">
        <ele>49</ele>
        <time>2021-03-14T14:32:01.000Z</time>
      </trkpt>
      <trkpt lat="47.2298" lon="-1.85549">
        <ele>49</ele>
        <time>2021-03-14T14:32:03.000Z</time>
      </trkpt>
      <trkpt lat="47.22971" lon="-1.85531">
        <ele>49</ele>
        <time>2021-03-14T14:32:05.000Z</time>
      </trkpt>
      <trkpt lat="47.22962" lon="-1.85512">
        <ele>49</ele>
        <time>2021-03-14T14:32:07.000Z</time>
      </trkpt>
      <trkpt lat="47.22953" lon="-1.85493">
        <ele>49</ele>
        <time>2021-03-14T14:32:09.000Z</time>
      </trkpt>
      <trkpt lat="47.22944" lon="-1.85475">
        <ele>49</ele>
        <time>2021-03-14T14:32:11.000Z</time>
      </trkpt>
      <trkpt lat="47.22935" lon="-1.85457">
        <ele>49</ele>
        <time>2021-03-14T14:32:13.000Z</time>
      </trkpt>
      <trkpt lat="47.22926" lon="-1.8544">
        <ele>49</ele>
        <time>2021-03-14T14:32:15.000Z</time>
      </trkpt>
      <trkpt lat="47.22917" lon="-1.85422">
        <ele>48</ele>
        <time>2021-03-14T14:32:17.000Z</time>
      </trkpt>
      <trkpt lat="47.22908" lon="-1.85404">
        <ele>48</ele>
        <time>2021-03-14T14:32:19.000Z</time>
      </trkpt>
      <trkpt lat="47.229" lon="-1.85386">
        <ele>48</ele>
        <time>2021-03-14T14:32:21.000Z</time>
      </trkpt>
      <trkpt lat="47.22891" lon="-1.85369">
        <ele>48</ele>
        <time>2021-03-14T14:32:23.000Z</time>
      </trkpt>
      <trkpt lat="47.22882" lon="-1.85351">
        <ele>48</ele>
        <time>2021-03-14T14:32:25.000Z</time>
      </trkpt>
      <trkpt lat="47.22873" lon="-1.85334">
        <ele>48</ele>
        <time>2021-03-14T14:32:27.000Z</time>
      </trkpt>
      <trkpt lat="47.22865" lon="-1.85317">
        <ele>48</ele>
        <time>2021-03-14T14:32:29.000Z</time>
      </trkpt>
      <trkpt lat="47.22856" lon="-1.853">
        <ele>48</ele>
        <time>2021-03-14T14:32:31.000Z</time>
      </trkpt>
      <trkpt lat="47.22848" lon="-1.85283">
        <ele>49</ele>
        <time>2021-03-14T14:32:33.000Z</time>
      </trkpt>
      <trkpt lat="47.2284" lon="-1.85266">
        <ele>49</ele>
        <time>2021-03-14T14:32:35.000Z</time>
      </trkpt>
      <trkpt lat="47.22831" lon="-1.85249">
        <ele>49</ele>
        <time>2021-03-14T14:32:37.000Z</time>
      </trkpt>
      <trkpt lat="47.22823" lon="-1.85232">
        <ele>48</ele>
        <time>2021-03-14T14:32:39.000Z</time>
      </trkpt>
      <trkpt lat="47.22814" lon="-1.85214">
        <ele>48</ele>
        <time>2021-03-14T14:32:41.000Z</time>
      </trkpt>
      <trkpt lat="47.22806" lon="-1.85197">
        <ele>48</ele>
        <time>2021-03-14T14:32:43.000Z</time>
      </trkpt>
      <trkpt lat="47.22797" lon="-1.85179">
        <ele>48</ele>
        <time>2021-03-14T14:32:45.000Z</time>
      </trkpt>
      <trkpt lat="47.22788" lon="-1.85163">
        <ele>48</ele>
        <time>2021-03-14T14:32:47.000Z</time>
      </trkpt>
      <trkpt lat="47.2278" lon="-1.85146">
        <ele>48</ele>
        <time>2021-03-14T14:32:49.000Z</time>
      </trkpt>
      <trkpt lat="47.22772" lon="-1.8513">
        <ele>48</ele>
        <time>2021-03-14T14:32:51.000Z</time>
      </trkpt>
      <trkpt lat="47.22763" lon="-1.85113">
        <ele>48</ele>
        <time>2021-03-14T14:32:53.000Z</time>
      </trkpt>
      <trkpt lat="47.22754" lon="-1.85096">
        <ele>48</ele>
        <time>2021-03-14T14:32:55.000Z</time>
      </trkpt>
      <trkpt lat="47.22745" lon="-1.85078">
        <ele>48</ele>
        <time>2021-03-14T14:32:57.000Z</time>
      </trkpt>
      <trkpt lat="47.22737" lon="-1.8506">
        <ele>49</ele>
        <time>2021-03-14T14:32:59.000Z</time>
      </trkpt>
      <trkpt lat="47.22728" lon="-1.85042">
        <ele>48</ele>
        <time>2021-03-14T14:33:01.000Z</time>
      </trkpt>
      <trkpt lat="47.22719" lon="-1.85025">
        <ele>48</ele>
        <time>2021-03-14T14:33:03.000Z</time>
      </trkpt>
      <trkpt lat="47.2271" lon="-1.85006">
        <ele>48</ele>
        <time>2021-03-14T14:33:05.000Z</time>
      </trkpt>
      <trkpt lat="47.22701" lon="-1.84989">
        <ele>48</ele>
        <time>2021-03-14T14:33:07.000Z</time>
      </trkpt>
      <trkpt lat="47.22692" lon="-1.84971">
        <ele>49</ele>
        <time>2021-03-14T14:33:09.000Z</time>
      </trkpt>
      <trkpt lat="47.22683" lon="-1.84953">
        <ele>49</ele>
        <time>2021-03-14T14:33:11.000Z</time>
      </trkpt>
      <trkpt lat="47.22673" lon="-1.84934">
        <ele>49</ele>
        <time>2021-03-14T14:33:13.000Z</time>
      </trkpt>
      <trkpt lat="47.22665" lon="-1.84916">
        <ele>48</ele>
        <time>2021-03-14T14:33:15.000Z</time>
      </trkpt>
      <trkpt lat="47.22656" lon="-1.84898">
        <ele>49</ele>
        <time>2021-03-14T14:33:17.000Z</time>
      </trkpt>
      <trkpt lat="47.22647" lon="-1.84881">
        <ele>49</ele>
        <time>2021-03-14T14:33:19.000Z</time>
      </trkpt>
      <trkpt lat="47.22638" lon="-1.84863">
        <ele>48</ele>
        <time>2021-03-14T14:33:21.000Z</time>
      </trkpt>
      <trkpt lat="47.2263" lon="-1.84844">
        <ele>48</ele>
        <time>2021-03-14T14:33:23.000Z</time>
      </trkpt>
      <trkpt lat="47.22621" lon="-1.84827">
        <ele>48</ele>
        <time>2021-03-14T14:33:25.000Z</time>
      </trkpt>
      <trkpt lat="47.22612" lon="-1.8481">
        <ele>48</ele>
        <time>2021-03-14T14:33:27.000Z</time>
      </trkpt>
      <trkpt lat="47.22603" lon="-1.84792">
        <ele>48</ele>
        <time>2021-03-14T14:33:29.000Z</time>
      </trkpt>
      <trkpt lat="47.22594" lon="-1.84774">
        <ele>49</ele>
        <time>2021-03-14T14:33:31.000Z</time>
      </trkpt>
      <trkpt lat="47.22584" lon="-1.84757">
        <ele>49</ele>
        <time>2021-03-14T14:33:33.000Z</time>
      </trkpt>
      <trkpt lat="47.22575" lon="-1.8474">
        <ele>49</ele>
        <time>2021-03-14T14:33:35.000Z</time>
      </trkpt>
      <trkpt lat="47.22566" lon="-1.84723">
        <ele>49</ele>
        <time>2021-03-14T14:33:37.000Z</time>
      </trkpt>
      <trkpt lat="47.22557" lon="-1.84707">
        <ele>48</ele>
        <time>2021-03-14T14:33:39.000Z</time>
      </trkpt>
      <trkpt lat="47.22548" lon="-1.8469">
        <ele>48</ele>
        <time>2021-03-14T14:33:41.000Z</time>
      </trkpt>
      <trkpt lat="47.2254" lon="-1.84675">
        <ele>48</ele>
        <time>2021-03-14T14:33:43.000Z</time>
      </trkpt>
      <trkpt lat="47.2253" lon="-1.84659">
        <ele>47</ele>
        <time>2021-03-14T14:33:45.000Z</time>
      </trkpt>
      <trkpt lat="47.22518" lon="-1.84647">
        <ele>47</ele>
        <time>2021-03-14T14:33:47.000Z</time>
      </trkpt>
      <trkpt lat="47.22506" lon="-1.84637">
        <ele>47</ele>
        <time>2021-03-14T14:33:49.000Z</time>
      </trkpt>
      <trkpt lat="47.22493" lon="-1.84627">
        <ele>47</ele>
        <time>2021-03-14T14:33:51.000Z</time>
      </trkpt>
      <trkpt lat="47.22481" lon="-1.84615">
        <ele>47</ele>
        <time>2021-03-14T14:33:53.000Z</time>
      </trkpt>
      <trkpt lat="47.22471" lon="-1.846">
        <ele>47</ele>
        <time>2021-03-14T14:33:55.000Z</time>
      </trkpt>
      <trkpt lat="47.22461" lon="-1.84583">
        <ele>48</ele>
        <time>2021-03-14T14:33:57.000Z</time>
      </trkpt>
      <trkpt lat="47.22453" lon="-1.84565">
        <ele>48</ele>
        <time>2021-03-14T14:33:59.000Z</time>
      </trkpt>
      <trkpt lat="47.22445" lon="-1.84548">
        <ele>48</ele>
        <time>2021-03-14T14:34:01.000Z</time>
      </trkpt>
      <trkpt lat="47.22436" lon="-1.8453">
        <ele>48</ele>
        <time>2021-03-14T14:34:03.000Z</time>
      </trkpt>
      <trkpt lat="47.22427" lon="-1.84513">
        <ele>48</ele>
        <time>2021-03-14T14:34:05.000Z</time>
      </trkpt>
      <trkpt lat="47.22419" lon="-1.84495">
        <ele>47</ele>
        <time>2021-03-14T14:34:07.000Z</time>
      </trkpt>
      <trkpt lat="47.22411" lon="-1.84477">
        <ele>47</ele>
        <time>2021-03-14T14:34:09.000Z</time>
      </trkpt>
      <trkpt lat="47.22405" lon="-1.84457">
        <ele>48</ele>
        <time>2021-03-14T14:34:11.000Z</time>
      </trkpt>
      <trkpt lat="47.22401" lon="-1.84437">
        <ele>48</ele>
        <time>2021-03-14T14:34:13.000Z</time>
      </trkpt>
      <trkpt lat="47.22398" lon="-1.84416">
        <ele>48</ele>
        <time>2021-03-14T14:34:15.000Z</time>
      </trkpt>
      <trkpt lat="47.22394" lon="-1.84394">
        <ele>48</ele>
        <time>2021-03-14T14:34:17.000Z</time>
      </trkpt>
      <trkpt lat="47.22389" lon="-1.84374">
        <ele>48</ele>
        <time>2021-03-14T14:34:19.000Z</time>
      </trkpt>
      <trkpt lat="47.22381" lon="-1.84354">
        <ele>48</ele>
        <time>2021-03-14T14:34:21.000Z</time>
      </trkpt>
      <trkpt lat="47.22372" lon="-1.84336">
        <ele>47</ele>
        <time>2021-03-14T14:34:23.000Z</time>
      </trkpt>
      <trkpt lat="47.22364" lon="-1.84317">
        <ele>48</ele>
        <time>2021-03-14T14:34:25.000Z</time>
      </trkpt>
      <trkpt lat="47.22355" lon="-1.84299">
        <ele>48</ele>
        <time>2021-03-14T14:34:27.000Z</time>
      </trkpt>
      <trkpt lat="47.22346" lon="-1.84281">
        <ele>48</ele>
        <time>2021-03-14T14:34:29.000Z</time>
      </trkpt>
      <trkpt lat="47.22337" lon="-1.84262">
        <ele>48</ele>
        <time>2021-03-14T14:34:31.000Z</time>
      </trkpt>
      <trkpt lat="47.22328" lon="-1.84244">
        <ele>48</ele>
        <time>2021-03-14T14:34:33.000Z</time>
      </trkpt>
      <trkpt lat="47.22319" lon="-1.84226">
        <ele>48</ele>
        <time>2021-03-14T14:34:35.000Z</time>
      </trkpt>
      <trkpt lat="47.2231" lon="-1.84209">
        <ele>48</ele>
        <time>2021-03-14T14:34:37.000Z</time>
      </trkpt>
      <trkpt lat="47.22301" lon="-1.84191">
        <ele>48</ele>
        <time>2021-03-14T14:34:39.000Z</time>
      </trkpt>
      <trkpt lat="47.22293" lon="-1.84173">
        <ele>49</ele>
        <time>2021-03-14T14:34:41.000Z</time>
      </trkpt>
      <trkpt lat="47.22284" lon="-1.84155">
        <ele>49</ele>
        <time>2021-03-14T14:34:43.000Z</time>
      </trkpt>
      <trkpt lat="47.22275" lon="-1.84138">
        <ele>49</ele>
        <time>2021-03-14T14:34:45.000Z</time>
      </trkpt>
      <trkpt lat="47.22267" lon="-1.84121">
        <ele>49</ele>
        <time>2021-03-14T14:34:47.000Z</time>
      </trkpt>
      <trkpt lat="47.22259" lon="-1.84104">
        <ele>49</ele>
        <time>2021-03-14T14:34:49.000Z</time>
      </trkpt>
      <trkpt lat="47.2225" lon="-1.84088">
        <ele>49</ele>
        <time>2021-03-14T14:34:51.000Z</time>
      </trkpt>
      <trkpt lat="47.22242" lon="-1.84072">
        <ele>49</ele>
        <time>2021-03-14T14:34:53.000Z</time>
      </trkpt>
      <trkpt lat="47.22234" lon="-1.84054">
        <ele>48</ele>
        <time>2021-03-14T14:34:55.000Z</time>
      </trkpt>
      <trkpt lat="47.22225" lon="-1.84037">
        <ele>48</ele>
        <time>2021-03-14T14:34:57.000Z</time>
      </trkpt>
      <trkpt lat="47.22217" lon="-1.8402">
        <ele>48</ele>
        <time>2021-03-14T14:34:59.000Z</time>
      </trkpt>
      <trkpt lat="47.22208" lon="-1.84003">
        <ele>48</ele>
        <time>2021-03-14T14:35:01.000Z</time>
      </trkpt>
      <trkpt lat="47.222" lon="-1.83986">
        <ele>48</ele>
        <time>2021-03-14T14:35:03.000Z</time>
      </trkpt>
      <trkpt lat="47.22191" lon="-1.83968">
        <ele>49</ele>
        <time>2021-03-14T14:35:05.000Z</time>
      </trkpt>
      <trkpt lat="47.22183" lon="-1.83951">
        <ele>49</ele>
        <time>2021-03-14T14:35:07.000Z</time>
      </trkpt>
      <trkpt lat="47.22174" lon="-1.83934">
        <ele>49</ele>
        <time>2021-03-14T14:35:09.000Z</time>
      </trkpt>
      <trkpt lat="47.22166" lon="-1.83916">
        <ele>49</ele>
        <time>2021-03-14T14:35:11.000Z</time>
      </trkpt>
      <trkpt lat="47.22157" lon="-1.83898">
        <ele>49</ele>
        <time>2021-03-14T14:35:13.000Z</time>
      </trkpt>
      <trkpt lat="47.22148" lon="-1.8388">
        <ele>49</ele>
        <time>2021-03-14T14:35:15.000Z</time>
      </trkpt>
      <trkpt lat="47.22139" lon="-1.83862">
        <ele>48</ele>
        <time>2021-03-14T14:35:17.000Z</time>
      </trkpt>
      <trkpt lat="47.2213" lon="-1.83843">
        <ele>48</ele>
        <time>2021-03-14T14:35:19.000Z</time>
      </trkpt>
      <trkpt lat="47.22121" lon="-1.83825">
        <ele>48</ele>
        <time>2021-03-14T14:35:21.000Z</time>
      </trkpt>
      <trkpt lat="47.22112" lon="-1.83808">
        <ele>48</ele>
        <time>2021-03-14T14:35:23.000Z</time>
      </trkpt>
      <trkpt lat="47.22104" lon="-1.8379">
        <ele>48</ele>
        <time>2021-03-14T14:35:25.000Z</time>
      </trkpt>
      <trkpt lat="47.22095" lon="-1.83772">
        <ele>48</ele>
        <time>2021-03-14T14:35:27.000Z</time>
      </trkpt>
      <trkpt lat="47.22086" lon="-1.83755">
        <ele>48</ele>
        <time>2021-03-14T14:35:29.000Z</time>
      </trkpt>
      <trkpt lat="47.22078" lon="-1.83738">
        <ele>48</ele>
        <time>2021-03-14T14:35:31.000Z</time>
      </trkpt>
      <trkpt lat="47.2207" lon="-1.83721">
        <ele>48</ele>
        <time>2021-03-14T14:35:33.000Z</time>
      </trkpt>
      <trkpt lat="47.22061" lon="-1.83704">
        <ele>48</ele>
        <time>2021-03-14T14:35:35.000Z</time>
      </trkpt>
      <trkpt lat="47.22053" lon="-1.83687">
        <ele>48</ele>
        <time>2021-03-14T14:35:37.000Z</time>
      </trkpt>
      <trkpt lat="47.22044" lon="-1.83669">
        <ele>48</ele>
        <time>2021-03-14T14:35:39.000Z</time>
      </trkpt>
      <trkpt lat="47.22036" lon="-1.83652">
        <ele>48</ele>
        <time>2021-03-14T14:35:41.000Z</time>
      </trkpt>
      <trkpt lat="47.22027" lon="-1.83634">
        <ele>48</ele>
        <time>2021-03-14T14:35:43.000Z</time>
      </trkpt>
      <trkpt lat="47.22019" lon="-1.83616">
        <ele>48</ele>
        <time>2021-03-14T14:35:45.000Z</time>
      </trkpt>
      <trkpt lat="47.2201" lon="-1.83599">
        <ele>48</ele>
        <time>2021-03-14T14:35:47.000Z</time>
      </trkpt>
      <trkpt lat="47.22002" lon="-1.83582">
        <ele>48</ele>
        <time>2021-03-14T14:35:49.000Z</time>
      </trkpt>
      <trkpt lat="47.21993" lon="-1.83563">
        <ele>48</ele>
        <time>2021-03-14T14:35:51.000Z</time>
      </trkpt>
      <trkpt lat="47.21984" lon="-1.83545">
        <ele>48</ele>
        <time>2021-03-14T14:35:53.000Z</time>
      </trkpt>
      <trkpt lat="47.21975" lon="-1.83527">
        <ele>49</ele>
        <time>2021-03-14T14:35:55.000Z</time>
      </trkpt>
      <trkpt lat="47.21966" lon="-1.83509">
        <ele>48</ele>
        <time>2021-03-14T14:35:57.000Z</time>
      </trkpt>
      <trkpt lat="47.21956" lon="-1.8349">
        <ele>48</ele>
        <time>2021-03-14T14:35:59.000Z</time>
      </trkpt>
      <trkpt lat="47.21947" lon="-1.83472">
        <ele>48</ele>
        <time>2021-03-14T14:36:01.000Z</time>
      </trkpt>
      <trkpt lat="47.21938" lon="-1.83454">
        <ele>48</ele>
        <time>2021-03-14T14:36:03.000Z</time>
      </trkpt>
      <trkpt lat="47.21929" lon="-1.83436">
        <ele>47</ele>
        <time>2021-03-14T14:36:05.000Z</time>
      </trkpt>
      <trkpt lat="47.2192" lon="-1.83417">
        <ele>47</ele>
        <time>2021-03-14T14:36:07.000Z</time>
      </trkpt>
      <trkpt lat="47.2191" lon="-1.83398">
        <ele>47</ele>
        <time>2021-03-14T14:36:09.000Z</time>
      </trkpt>
      <trkpt lat="47.21901" lon="-1.83379">
        <ele>47</ele>
        <time>2021-03-14T14:36:11.000Z</time>
      </trkpt>
      <trkpt lat="47.21891" lon="-1.83359">
        <ele>47</ele>
        <time>2021-03-14T14:36:13.000Z</time>
      </trkpt>
      <trkpt lat="47.21881" lon="-1.83341">
        <ele>47</ele>
        <time>2021-03-14T14:36:15.000Z</time>
      </trkpt>
      <trkpt lat="47.21872" lon="-1.83322">
        <ele>47</ele>
        <time>2021-03-14T14:36:17.000Z</time>
      </trkpt>
      <trkpt lat="47.21862" lon="-1.83303">
        <ele>48</ele>
        <time>2021-03-14T14:36:19.000Z</time>
      </trkpt>
      <trkpt lat="47.21853" lon="-1.83284">
        <ele>48</ele>
        <time>2021-03-14T14:36:21.000Z</time>
      </trkpt>
      <trkpt lat="47.21843" lon="-1.83265">
        <ele>48</ele>
        <time>2021-03-14T14:36:23.000Z</time>
      </trkpt>
      <trkpt lat="47.21833" lon="-1.83246">
        <ele>49</ele>
        <time>2021-03-14T14:36:25.000Z</time>
      </trkpt>
      <trkpt lat="47.21824" lon="-1.83227">
        <ele>49</ele>
        <time>2021-03-14T14:36:27.000Z</time>
      </trkpt>
      <trkpt lat="47.21815" lon="-1.83209">
        <ele>49</ele>
        <time>2021-03-14T14:36:29.000Z</time>
      </trkpt>
      <trkpt lat="47.21806" lon="-1.8319">
        <ele>49</ele>
        <time>2021-03-14T14:36:31.000Z</time>
      </trkpt>
      <trkpt lat="47.21796" lon="-1.83171">
        <ele>49</ele>
        <time>2021-03-14T14:36:33.000Z</time>
      </trkpt>
      <trkpt lat="47.21787" lon="-1.83152">
        <ele>49</ele>
        <time>2021-03-14T14:36:35.000Z</time>
      </trkpt>
      <trkpt lat="47.21778" lon="-1.83134">
        <ele>49</ele>
        <time>2021-03-14T14:36:37.000Z</time>
      </trkpt>
      <trkpt lat="47.21769" lon="-1.83115">
        <ele>49</ele>
        <time>2021-03-14T14:36:39.000Z</time>
      </trkpt>
      <trkpt lat="47.2176" lon="-1.83097">
        <ele>49</ele>
        <time>2021-03-14T14:36:41.000Z</time>
      </trkpt>
      <trkpt lat="47.21751" lon="-1.83079">
        <ele>49</ele>
        <time>2021-03-14T14:36:43.000Z</time>
      </trkpt>
      <trkpt lat="47.21742" lon="-1.83063">
        <ele>49</ele>
        <time>2021-03-14T14:36:45.000Z</time>
      </trkpt>
      <trkpt lat="47.21734" lon="-1.83046">
        <ele>49</ele>
        <time>2021-03-14T14:36:47.000Z</time>
      </trkpt>
      <trkpt lat="47.21725" lon="-1.83029">
        <ele>49</ele>
        <time>2021-03-14T14:36:49.000Z</time>
      </trkpt>
      <trkpt lat="47.21716" lon="-1.83012">
        <ele>48</ele>
        <time>2021-03-14T14:36:51.000Z</time>
      </trkpt>
      <trkpt lat="47.21707" lon="-1.82994">
        <ele>48</ele>
        <time>2021-03-14T14:36:53.000Z</time>
      </trkpt>
      <trkpt lat="47.21698" lon="-1.82977">
        <ele>48</ele>
        <time>2021-03-14T14:36:55.000Z</time>
      </trkpt>
      <trkpt lat="47.21689" lon="-1.8296">
        <ele>48</ele>
        <time>2021-03-14T14:36:57.000Z</time>
      </trkpt>
      <trkpt lat="47.2168" lon="-1.82942">
        <ele>47</ele>
        <time>2021-03-14T14:36:59.000Z</time>
      </trkpt>
      <trkpt lat="47.21671" lon="-1.82925">
        <ele>47</ele>
        <time>2021-03-14T14:37:01.000Z</time>
      </trkpt>
      <trkpt lat="47.21661" lon="-1.82908">
        <ele>47</ele>
        <time>2021-03-14T14:37:03.000Z</time>
      </trkpt>
      <trkpt lat="47.21652" lon="-1.82891">
        <ele>47</ele>
        <time>2021-03-14T14:37:05.000Z</time>
      </trkpt>
      <trkpt lat="47.21643" lon="-1.82874">
        <ele>47</ele>
        <time>2021-03-14T14:37:07.000Z</time>
      </trkpt>
      <trkpt lat="47.21634" lon="-1.82856">
        <ele>47</ele>
        <time>2021-03-14T14:37:09.000Z</time>
      </trkpt>
      <trkpt lat="47.21624" lon="-1.82838">
        <ele>47</ele>
        <time>2021-03-14T14:37:11.000Z</time>
      </trkpt>
      <trkpt lat="47.21614" lon="-1.82822">
        <ele>47</ele>
        <time>2021-03-14T14:37:13.000Z</time>
      </trkpt>
      <trkpt lat="47.21604" lon="-1.82805">
        <ele>47</ele>
        <time>2021-03-14T14:37:15.000Z</time>
      </trkpt>
      <trkpt lat="47.21594" lon="-1.82789">
        <ele>47</ele>
        <time>2021-03-14T14:37:17.000Z</time>
      </trkpt>
      <trkpt lat="47.21584" lon="-1.82772">
        <ele>47</ele>
        <time>2021-03-14T14:37:19.000Z</time>
      </trkpt>
      <trkpt lat="47.21573" lon="-1.82755">
        <ele>47</ele>
        <time>2021-03-14T14:37:21.000Z</time>
      </trkpt>
      <trkpt lat="47.21563" lon="-1.82738">
        <ele>47</ele>
        <time>2021-03-14T14:37:23.000Z</time>
      </trkpt>
      <trkpt lat="47.21552" lon="-1.8272">
        <ele>46</ele>
        <time>2021-03-14T14:37:25.000Z</time>
      </trkpt>
      <trkpt lat="47.21542" lon="-1.82703">
        <ele>46</ele>
        <time>2021-03-14T14:37:27.000Z</time>
      </trkpt>
      <trkpt lat="47.21532" lon="-1.82686">
        <ele>46</ele>
        <time>2021-03-14T14:37:29.000Z</time>
      </trkpt>
      <trkpt lat="47.21521" lon="-1.82669">
        <ele>46</ele>
        <time>2021-03-14T14:37:31.000Z</time>
      </trkpt>
      <trkpt lat="47.21511" lon="-1.82652">
        <ele>46</ele>
        <time>2021-03-14T14:37:33.000Z</time>
      </trkpt>
      <trkpt lat="47.21501" lon="-1.82635">
        <ele>47</ele>
        <time>2021-03-14T14:37:35.000Z</time>
      </trkpt>
      <trkpt lat="47.21491" lon="-1.82618">
        <ele>47</ele>
        <time>2021-03-14T14:37:37.000Z</time>
      </trkpt>
      <trkpt lat="47.21481" lon="-1.82602">
        <ele>47</ele>
        <time>2021-03-14T14:37:39.000Z</time>
      </trkpt>
      <trkpt lat="47.21471" lon="-1.82585">
        <ele>47</ele>
        <time>2021-03-14T14:37:41.000Z</time>
      </trkpt>
      <trkpt lat="47.21461" lon="-1.82569">
        <ele>47</ele>
        <time>2021-03-14T14:37:43.000Z</time>
      </trkpt>
      <trkpt lat="47.2145" lon="-1.82552">
        <ele>47</ele>
        <time>2021-03-14T14:37:45.000Z</time>
      </trkpt>
      <trkpt lat="47.2144" lon="-1.82535">
        <ele>47</ele>
        <time>2021-03-14T14:37:47.000Z</time>
      </trkpt>
      <trkpt lat="47.2143" lon="-1.82518">
        <ele>48</ele>
        <time>2021-03-14T14:37:49.000Z</time>
      </trkpt>
      <trkpt lat="47.2142" lon="-1.82501">
        <ele>48</ele>
        <time>2021-03-14T14:37:51.000Z</time>
      </trkpt>
      <trkpt lat="47.21411" lon="-1.82484">
        <ele>48</ele>
        <time>2021-03-14T14:37:53.000Z</time>
      </trkpt>
      <trkpt lat="47.21402" lon="-1.82468">
        <ele>48</ele>
        <time>2021-03-14T14:37:55.000Z</time>
      </trkpt>
      <trkpt lat="47.21393" lon="-1.82453">
        <ele>48</ele>
        <time>2021-03-14T14:37:57.000Z</time>
      </trkpt>
      <trkpt lat="47.21387" lon="-1.82434">
        <ele>48</ele>
        <time>2021-03-14T14:37:59.000Z</time>
      </trkpt>
      <trkpt lat="47.21392" lon="-1.82416">
        <ele>49</ele>
        <time>2021-03-14T14:38:01.000Z</time>
      </trkpt>
      <trkpt lat="47.21402" lon="-1.82403">
        <ele>49</ele>
        <time>2021-03-14T14:38:03.000Z</time>
      </trkpt>
      <trkpt lat="47.21413" lon="-1.82389">
        <ele>49</ele>
        <time>2021-03-14T14:38:05.000Z</time>
      </trkpt>
      <trkpt lat="47.21424" lon="-1.82375">
        <ele>49</ele>
        <time>2021-03-14T14:38:07.000Z</time>
      </trkpt>
      <trkpt lat="47.21438" lon="-1.82364">
        <ele>49</ele>
        <time>2021-03-14T14:38:09.000Z</time>
      </trkpt>
      <trkpt lat="47.2145" lon="-1.82352">
        <ele>50</ele>
        <time>2021-03-14T14:38:11.000Z</time>
      </trkpt>
      <trkpt lat="47.21449" lon="-1.82335">
        <ele>50</ele>
        <time>2021-03-14T14:38:13.000Z</time>
      </trkpt>
      <trkpt lat="47.21439" lon="-1.82319">
        <ele>50</ele>
        <time>2021-03-14T14:38:15.000Z</time>
      </trkpt>
      <trkpt lat="47.21431" lon="-1.82303">
        <ele>50</ele>
        <time>2021-03-14T14:38:17.000Z</time>
      </trkpt>
      <trkpt lat="47.21423" lon="-1.82288">
        <ele>50</ele>
        <time>2021-03-14T14:38:19.000Z</time>
      </trkpt>
      <trkpt lat="47.21411" lon="-1.82278">
        <ele>49</ele>
        <time>2021-03-14T14:38:21.000Z</time>
      </trkpt>
      <trkpt lat="47.21396" lon="-1.82274">
        <ele>49</ele>
        <time>2021-03-14T14:38:23.000Z</time>
      </trkpt>
      <trkpt lat="47.21382" lon="-1.82265">
        <ele>49</ele>
        <time>2021-03-14T14:38:25.000Z</time>
      </trkpt>
      <trkpt lat="47.21369" lon="-1.82249">
        <ele>49</ele>
        <time>2021-03-14T14:38:27.000Z</time>
      </trkpt>
      <trkpt lat="47.21358" lon="-1.82232">
        <ele>48</ele>
        <time>2021-03-14T14:38:29.000Z</time>
      </trkpt>
      <trkpt lat="47.21347" lon="-1.82216">
        <ele>48</ele>
        <time>2021-03-14T14:38:31.000Z</time>
      </trkpt>
      <trkpt lat="47.21337" lon="-1.82199">
        <ele>48</ele>
        <time>2021-03-14T14:38:33.000Z</time>
      </trkpt>
      <trkpt lat="47.21328" lon="-1.82183">
        <ele>49</ele>
        <time>2021-03-14T14:38:35.000Z</time>
      </trkpt>
      <trkpt lat="47.21318" lon="-1.82166">
        <ele>49</ele>
        <time>2021-03-14T14:38:37.000Z</time>
      </trkpt>
      <trkpt lat="47.21308" lon="-1.8215">
        <ele>49</ele>
        <time>2021-03-14T14:38:39.000Z</time>
      </trkpt>
      <trkpt lat="47.21298" lon="-1.82135">
        <ele>49</ele>
        <time>2021-03-14T14:38:41.000Z</time>
      </trkpt>
      <trkpt lat="47.21289" lon="-1.8212">
        <ele>48</ele>
        <time>2021-03-14T14:38:43.000Z</time>
      </trkpt>
      <trkpt lat="47.21279" lon="-1.82104">
        <ele>49</ele>
        <time>2021-03-14T14:38:45.000Z</time>
      </trkpt>
      <trkpt lat="47.21269" lon="-1.82088">
        <ele>49</ele>
        <time>2021-03-14T14:38:47.000Z</time>
      </trkpt>
      <trkpt lat="47.21259" lon="-1.82072">
        <ele>49</ele>
        <time>2021-03-14T14:38:49.000Z</time>
      </trkpt>
      <trkpt lat="47.2125" lon="-1.82057">
        <ele>48</ele>
        <time>2021-03-14T14:38:51.000Z</time>
      </trkpt>
      <trkpt lat="47.2124" lon="-1.8204">
        <ele>48</ele>
        <time>2021-03-14T14:38:53.000Z</time>
      </trkpt>
      <trkpt lat="47.21231" lon="-1.82025">
        <ele>48</ele>
        <time>2021-03-14T14:38:55.000Z</time>
      </trkpt>
      <trkpt lat="47.2122" lon="-1.82009">
        <ele>47</ele>
        <time>2021-03-14T14:38:57.000Z</time>
      </trkpt>
      <trkpt lat="47.21211" lon="-1.81993">
        <ele>47</ele>
        <time>2021-03-14T14:38:59.000Z</time>
      </trkpt>
      <trkpt lat="47.21201" lon="-1.81978">
        <ele>47</ele>
        <time>2021-03-14T14:39:01.000Z</time>
      </trkpt>
      <trkpt lat="47.21192" lon="-1.81963">
        <ele>47</ele>
        <time>2021-03-14T14:39:03.000Z</time>
      </trkpt>
      <trkpt lat="47.21183" lon="-1.81948">
        <ele>47</ele>
        <time>2021-03-14T14:39:05.000Z</time>
      </trkpt>
      <trkpt lat="47.21174" lon="-1.81933">
        <ele>47</ele>
        <time>2021-03-14T14:39:07.000Z</time>
      </trkpt>
      <trkpt lat="47.21164" lon="-1.81917">
        <ele>47</ele>
        <time>2021-03-14T14:39:09.000Z</time>
      </trkpt>
      <trkpt lat="47.21155" lon="-1.81901">
        <ele>48</ele>
        <time>2021-03-14T14:39:11.000Z</time>
      </trkpt>
      <trkpt lat="47.21146" lon="-1.81884">
        <ele>48</ele>
        <time>2021-03-14T14:39:13.000Z</time>
      </trkpt>
      <trkpt lat="47.21136" lon="-1.81867">
        <ele>48</ele>
        <time>2021-03-14T14:39:15.000Z</time>
      </trkpt>
      <trkpt lat="47.21127" lon="-1.81851">
        <ele>48</ele>
        <time>2021-03-14T14:39:17.000Z</time>
      </trkpt>
      <trkpt lat="47.21118" lon="-1.81835">
        <ele>48</ele>
        <time>2021-03-14T14:39:19.000Z</time>
      </trkpt>
      <trkpt lat="47.21109" lon="-1.81819">
        <ele>49</ele>
        <time>2021-03-14T14:39:21.000Z</time>
      </trkpt>
      <trkpt lat="47.21101" lon="-1.81803">
        <ele>49</ele>
        <time>2021-03-14T14:39:23.000Z</time>
      </trkpt>
      <trkpt lat="47.21091" lon="-1.81787">
        <ele>48</ele>
        <time>2021-03-14T14:39:25.000Z</time>
      </trkpt>
      <trkpt lat="47.21083" lon="-1.8177">
        <ele>48</ele>
        <time>2021-03-14T14:39:27.000Z</time>
      </trkpt>
      <trkpt lat="47.21073" lon="-1.81754">
        <ele>48</ele>
        <time>2021-03-14T14:39:29.000Z</time>
      </trkpt>
      <trkpt lat="47.21065" lon="-1.81737">
        <ele>48</ele>
        <time>2021-03-14T14:39:31.000Z</time>
      </trkpt>
      <trkpt lat="47.21057" lon="-1.8172">
        <ele>47</ele>
        <time>2021-03-14T14:39:33.000Z</time>
      </trkpt>
      <trkpt lat="47.21048" lon="-1.81703">
        <ele>47</ele>
        <time>2021-03-14T14:39:35.000Z</time>
      </trkpt>
      <trkpt lat="47.21039" lon="-1.81686">
        <ele>47</ele>
        <time>2021-03-14T14:39:37.000Z</time>
      </trkpt>
      <trkpt lat="47.21031" lon="-1.81668">
        <ele>47</ele>
        <time>2021-03-14T14:39:39.000Z</time>
      </trkpt>
      <trkpt lat="47.21024" lon="-1.81652">
        <ele>47</ele>
        <time>2021-03-14T14:39:41.000Z</time>
      </trkpt>
      <trkpt lat="47.21016" lon="-1.81634">
        <ele>47</ele>
        <time>2021-03-14T14:39:43.000Z</time>
      </trkpt>
      <trkpt lat="47.21008" lon="-1.81616">
        <ele>47</ele>
        <time>2021-03-14T14:39:45.000Z</time>
      </trkpt>
      <trkpt lat="47.21" lon="-1.81597">
        <ele>46</ele>
        <time>2021-03-14T14:39:47.000Z</time>
      </trkpt>
      <trkpt lat="47.20993" lon="-1.81579">
        <ele>46</ele>
        <time>2021-03-14T14:39:49.000Z</time>
      </trkpt>
      <trkpt lat="47.20985" lon="-1.8156">
        <ele>46</ele>
        <time>2021-03-14T14:39:51.000Z</time>
      </trkpt>
      <trkpt lat="47.20977" lon="-1.81541">
        <ele>47</ele>
        <time>2021-03-14T14:39:53.000Z</time>
      </trkpt>
      <trkpt lat="47.2097" lon="-1.81522">
        <ele>47</ele>
        <time>2021-03-14T14:39:55.000Z</time>
      </trkpt>
      <trkpt lat="47.20962" lon="-1.81504">
        <ele>47</ele>
        <time>2021-03-14T14:39:57.000Z</time>
      </trkpt>
      <trkpt lat="47.20954" lon="-1.81484">
        <ele>47</ele>
        <time>2021-03-14T14:39:59.000Z</time>
      </trkpt>
      <trkpt lat="47.20946" lon="-1.81464">
        <ele>47</ele>
        <time>2021-03-14T14:40:01.000Z</time>
      </trkpt>
      <trkpt lat="47.2094" lon="-1.81444">
        <ele>47</ele>
        <time>2021-03-14T14:40:03.000Z</time>
      </trkpt>
      <trkpt lat="47.20933" lon="-1.81425">
        <ele>47</ele>
        <time>2021-03-14T14:40:05.000Z</time>
      </trkpt>
      <trkpt lat="47.20926" lon="-1.81405">
        <ele>46</ele>
        <time>2021-03-14T14:40:07.000Z</time>
      </trkpt>
      <trkpt lat="47.20918" lon="-1.81385">
        <ele>46</ele>
        <time>2021-03-14T14:40:09.000Z</time>
      </trkpt>
      <trkpt lat="47.20912" lon="-1.81366">
        <ele>47</ele>
        <time>2021-03-14T14:40:11.000Z</time>
      </trkpt>
      <trkpt lat="47.20905" lon="-1.81347">
        <ele>47</ele>
        <time>2021-03-14T14:40:13.000Z</time>
      </trkpt>
      <trkpt lat="47.20898" lon="-1.81327">
        <ele>47</ele>
        <time>2021-03-14T14:40:15.000Z</time>
      </trkpt>
      <trkpt lat="47.20892" lon="-1.81307">
        <ele>47</ele>
        <time>2021-03-14T14:40:17.000Z</time>
      </trkpt>
      <trkpt lat="47.20885" lon="-1.81285">
        <ele>47</ele>
        <time>2021-03-14T14:40:19.000Z</time>
      </trkpt>
      <trkpt lat="47.20879" lon="-1.81264">
        <ele>47</ele>
        <time>2021-03-14T14:40:21.000Z</time>
      </trkpt>
      <trkpt lat="47.20873" lon="-1.81244">
        <ele>47</ele>
        <time>2021-03-14T14:40:23.000Z</time>
      </trkpt>
      <trkpt lat="47.20867" lon="-1.81223">
        <ele>47</ele>
        <time>2021-03-14T14:40:25.000Z</time>
      </trkpt>
      <trkpt lat="47.20861" lon="-1.81203">
        <ele>47</ele>
        <time>2021-03-14T14:40:27.000Z</time>
      </trkpt>
      <trkpt lat="47.20856" lon="-1.81181">
        <ele>47</ele>
        <time>2021-03-14T14:40:29.000Z</time>
      </trkpt>
      <trkpt lat="47.20851" lon="-1.81161">
        <ele>47</ele>
        <time>2021-03-14T14:40:31.000Z</time>
      </trkpt>
      <trkpt lat="47.20845" lon="-1.8114">
        <ele>47</ele>
        <time>2021-03-14T14:40:33.000Z</time>
      </trkpt>
      <trkpt lat="47.20839" lon="-1.81119">
        <ele>47</ele>
        <time>2021-03-14T14:40:35.000Z</time>
      </trkpt>
      <trkpt lat="47.20834" lon="-1.81098">
        <ele>47</ele>
        <time>2021-03-14T14:40:37.000Z</time>
      </trkpt>
      <trkpt lat="47.20829" lon="-1.81076">
        <ele>47</ele>
        <time>2021-03-14T14:40:39.000Z</time>
      </trkpt>
      <trkpt lat="47.20824" lon="-1.81056">
        <ele>47</ele>
        <time>2021-03-14T14:40:41.000Z</time>
      </trkpt>
      <trkpt lat="47.20819" lon="-1.81035">
        <ele>48</ele>
        <time>2021-03-14T14:40:43.000Z</time>
      </trkpt>
      <trkpt lat="47.20814" lon="-1.81014">
        <ele>48</ele>
        <time>2021-03-14T14:40:45.000Z</time>
      </trkpt>
      <trkpt lat="47.2081" lon="-1.80993">
        <ele>48</ele>
        <time>2021-03-14T14:40:47.000Z</time>
      </trkpt>
      <trkpt lat="47.20805" lon="-1.80972">
        <ele>47</ele>
        <time>2021-03-14T14:40:49.000Z</time>
      </trkpt>
      <trkpt lat="47.20801" lon="-1.80951">
        <ele>48</ele>
        <time>2021-03-14T14:40:51.000Z</time>
      </trkpt>
      <trkpt lat="47.20797" lon="-1.8093">
        <ele>48</ele>
        <time>2021-03-14T14:40:53.000Z</time>
      </trkpt>
      <trkpt lat="47.20792" lon="-1.80909">
        <ele>48</ele>
        <time>2021-03-14T14:40:55.000Z</time>
      </trkpt>
      <trkpt lat="47.20789" lon="-1.80887">
        <ele>48</ele>
        <time>2021-03-14T14:40:57.000Z</time>
      </trkpt>
      <trkpt lat="47.20785" lon="-1.80866">
        <ele>48</ele>
        <time>2021-03-14T14:40:59.000Z</time>
      </trkpt>
      <trkpt lat="47.20781" lon="-1.80843">
        <ele>48</ele>
        <time>2021-03-14T14:41:01.000Z</time>
      </trkpt>
      <trkpt lat="47.20777" lon="-1.80821">
        <ele>48</ele>
        <time>2021-03-14T14:41:03.000Z</time>
      </trkpt>
      <trkpt lat="47.20774" lon="-1.80799">
        <ele>49</ele>
        <time>2021-03-14T14:41:05.000Z</time>
      </trkpt>
      <trkpt lat="47.2077" lon="-1.80778">
        <ele>48</ele>
        <time>2021-03-14T14:41:07.000Z</time>
      </trkpt>
      <trkpt lat="47.20766" lon="-1.80756">
        <ele>49</ele>
        <time>2021-03-14T14:41:09.000Z</time>
      </trkpt>
      <trkpt lat="47.20763" lon="-1.80733">
        <ele>49</ele>
        <time>2021-03-14T14:41:11.000Z</time>
      </trkpt>
      <trkpt lat="47.2076" lon="-1.80711">
        <ele>48</ele>
        <time>2021-03-14T14:41:13.000Z</time>
      </trkpt>
      <trkpt lat="47.20757" lon="-1.80689">
        <ele>48</ele>
        <time>2021-03-14T14:41:15.000Z</time>
      </trkpt>
      <trkpt lat="47.20754" lon="-1.80666">
        <ele>48</ele>
        <time>2021-03-14T14:41:17.000Z</time>
      </trkpt>
      <trkpt lat="47.20752" lon="-1.80645">
        <ele>48</ele>
        <time>2021-03-14T14:41:19.000Z</time>
      </trkpt>
      <trkpt lat="47.2075" lon="-1.80623">
        <ele>48</ele>
        <time>2021-03-14T14:41:21.000Z</time>
      </trkpt>
      <trkpt lat="47.20748" lon="-1.80601">
        <ele>48</ele>
        <time>2021-03-14T14:41:23.000Z</time>
      </trkpt>
      <trkpt lat="47.20746" lon="-1.80578">
        <ele>48</ele>
        <time>2021-03-14T14:41:25.000Z</time>
      </trkpt>
      <trkpt lat="47.20744" lon="-1.80556">
        <ele>48</ele>
        <time>2021-03-14T14:41:27.000Z</time>
      </trkpt>
      <trkpt lat="47.20741" lon="-1.80532">
        <ele>49</ele>
        <time>2021-03-14T14:41:29.000Z</time>
      </trkpt>
      <trkpt lat="47.20738" lon="-1.80508">
        <ele>48</ele>
        <time>2021-03-14T14:41:31.000Z</time>
      </trkpt>
      <trkpt lat="47.20736" lon="-1.80483">
        <ele>48</ele>
        <time>2021-03-14T14:41:33.000Z</time>
      </trkpt>
      <trkpt lat="47.20735" lon="-1.8046">
        <ele>48</ele>
        <time>2021-03-14T14:41:35.000Z</time>
      </trkpt>
      <trkpt lat="47.20733" lon="-1.80436">
        <ele>48</ele>
        <time>2021-03-14T14:41:37.000Z</time>
      </trkpt>
      <trkpt lat="47.20732" lon="-1.80413">
        <ele>47</ele>
        <time>2021-03-14T14:41:39.000Z</time>
      </trkpt>
      <trkpt lat="47.2073" lon="-1.80389">
        <ele>48</ele>
        <time>2021-03-14T14:41:41.000Z</time>
      </trkpt>
      <trkpt lat="47.20729" lon="-1.80366">
        <ele>48</ele>
        <time>2021-03-14T14:41:43.000Z</time>
      </trkpt>
      <trkpt lat="47.20727" lon="-1.80343">
        <ele>48</ele>
        <time>2021-03-14T14:41:45.000Z</time>
      </trkpt>
      <trkpt lat="47.20726" lon="-1.80321">
        <ele>49</ele>
        <time>2021-03-14T14:41:47.000Z</time>
      </trkpt>
      <trkpt lat="47.20724" lon="-1.80299">
        <ele>49</ele>
        <time>2021-03-14T14:41:49.000Z</time>
      </trkpt>
      <trkpt lat="47.20722" lon="-1.80276">
        <ele>49</ele>
        <time>2021-03-14T14:41:51.000Z</time>
      </trkpt>
      <trkpt lat="47.2072" lon="-1.80252">
        <ele>49</ele>
        <time>2021-03-14T14:41:53.000Z</time>
      </trkpt>
      <trkpt lat="47.20719" lon="-1.80228">
        <ele>49</ele>
        <time>2021-03-14T14:41:55.000Z</time>
      </trkpt>
      <trkpt lat="47.20717" lon="-1.80204">
        <ele>50</ele>
        <time>2021-03-14T14:41:57.000Z</time>
      </trkpt>
      <trkpt lat="47.20716" lon="-1.80181">
        <ele>50</ele>
        <time>2021-03-14T14:41:59.000Z</time>
      </trkpt>
      <trkpt lat="47.20714" lon="-1.80159">
        <ele>49</ele>
        <time>2021-03-14T14:42:01.000Z</time>
      </trkpt>
      <trkpt lat="47.20713" lon="-1.80137">
        <ele>49</ele>
        <time>2021-03-14T14:42:03.000Z</time>
      </trkpt>
      <trkpt lat="47.20711" lon="-1.80114">
        <ele>49</ele>
        <time>2021-03-14T14:42:05.000Z</time>
      </trkpt>
      <trkpt lat="47.2071" lon="-1.80091">
        <ele>49</ele>
        <time>2021-03-14T14:42:07.000Z</time>
      </trkpt>
      <trkpt lat="47.20708" lon="-1.80069">
        <ele>49</ele>
        <time>2021-03-14T14:42:09.000Z</time>
      </trkpt>
      <trkpt lat="47.20706" lon="-1.80046">
        <ele>49</ele>
        <time>2021-03-14T14:42:11.000Z</time>
      </trkpt>
      <trkpt lat="47.20705" lon="-1.80024">
        <ele>48</ele>
        <time>2021-03-14T14:42:13.000Z</time>
      </trkpt>
      <trkpt lat="47.20703" lon="-1.80001">
        <ele>48</ele>
        <time>2021-03-14T14:42:15.000Z</time>
      </trkpt>
      <trkpt lat="47.20701" lon="-1.79978">
        <ele>48</ele>
        <time>2021-03-14T14:42:17.000Z</time>
      </trkpt>
      <trkpt lat="47.20699" lon="-1.79956">
        <ele>49</ele>
        <time>2021-03-14T14:42:19.000Z</time>
      </trkpt>
      <trkpt lat="47.20698" lon="-1.79934">
        <ele>49</ele>
        <time>2021-03-14T14:42:21.000Z</time>
      </trkpt>
      <trkpt lat="47.20697" lon="-1.79912">
        <ele>48</ele>
        <time>2021-03-14T14:42:23.000Z</time>
      </trkpt>
      <trkpt lat="47.20695" lon="-1.79891">
        <ele>48</ele>
        <time>2021-03-14T14:42:25.000Z</time>
      </trkpt>
      <trkpt lat="47.20694" lon="-1.79869">
        <ele>48</ele>
        <time>2021-03-14T14:42:27.000Z</time>
      </trkpt>
      <trkpt lat="47.20693" lon="-1.79847">
        <ele>48</ele>
        <time>2021-03-14T14:42:29.000Z</time>
      </trkpt>
      <trkpt lat="47.20691" lon="-1.79825">
        <ele>48</ele>
        <time>2021-03-14T14:42:31.000Z</time>
      </trkpt>
      <trkpt lat="47.20689" lon="-1.79804">
        <ele>48</ele>
        <time>2021-03-14T14:42:33.000Z</time>
      </trkpt>
      <trkpt lat="47.20689" lon="-1.7978">
        <ele>48</ele>
        <time>2021-03-14T14:42:35.000Z</time>
      </trkpt>
      <trkpt lat="47.20687" lon="-1.79758">
        <ele>48</ele>
        <time>2021-03-14T14:42:37.000Z</time>
      </trkpt>
      <trkpt lat="47.20686" lon="-1.79736">
        <ele>48</ele>
        <time>2021-03-14T14:42:39.000Z</time>
      </trkpt>
      <trkpt lat="47.20684" lon="-1.79714">
        <ele>48</ele>
        <time>2021-03-14T14:42:41.000Z</time>
      </trkpt>
      <trkpt lat="47.20684" lon="-1.79692">
        <ele>48</ele>
        <time>2021-03-14T14:42:43.000Z</time>
      </trkpt>
      <trkpt lat="47.20683" lon="-1.79669">
        <ele>48</ele>
        <time>2021-03-14T14:42:45.000Z</time>
      </trkpt>
      <trkpt lat="47.20683" lon="-1.79647">
        <ele>48</ele>
        <time>2021-03-14T14:42:47.000Z</time>
      </trkpt>
      <trkpt lat="47.20682" lon="-1.79624">
        <ele>49</ele>
        <time>2021-03-14T14:42:49.000Z</time>
      </trkpt>
      <trkpt lat="47.20682" lon="-1.79603">
        <ele>48</ele>
        <time>2021-03-14T14:42:51.000Z</time>
      </trkpt>
      <trkpt lat="47.20682" lon="-1.7958">
        <ele>48</ele>
        <time>2021-03-14T14:42:53.000Z</time>
      </trkpt>
      <trkpt lat="47.20683" lon="-1.79557">
        <ele>47</ele>
        <time>2021-03-14T14:42:55.000Z</time>
      </trkpt>
      <trkpt lat="47.20684" lon="-1.79535">
        <ele>47</ele>
        <time>2021-03-14T14:42:57.000Z</time>
      </trkpt>
      <trkpt lat="47.20684" lon="-1.79511">
        <ele>47</ele>
        <time>2021-03-14T14:42:59.000Z</time>
      </trkpt>
      <trkpt lat="47.20684" lon="-1.79488">
        <ele>47</ele>
        <time>2021-03-14T14:43:01.000Z</time>
      </trkpt>
      <trkpt lat="47.20683" lon="-1.79464">
        <ele>47</ele>
        <time>2021-03-14T14:43:03.000Z</time>
      </trkpt>
      <trkpt lat="47.20684" lon="-1.79442">
        <ele>48</ele>
        <time>2021-03-14T14:43:05.000Z</time>
      </trkpt>
      <trkpt lat="47.20686" lon="-1.79418">
        <ele>47</ele>
        <time>2021-03-14T14:43:07.000Z</time>
      </trkpt>
      <trkpt lat="47.20694" lon="-1.79396">
        <ele>47</ele>
        <time>2021-03-14T14:43:09.000Z</time>
      </trkpt>
      <trkpt lat="47.20701" lon="-1.79375">
        <ele>48</ele>
        <time>2021-03-14T14:43:11.000Z</time>
      </trkpt>
      <trkpt lat="47.20707" lon="-1.79354">
        <ele>48</ele>
        <time>2021-03-14T14:43:13.000Z</time>
      </trkpt>
      <trkpt lat="47.2071" lon="-1.7933">
        <ele>48</ele>
        <time>2021-03-14T14:43:15.000Z</time>
      </trkpt>
      <trkpt lat="47.2071" lon="-1.79307">
        <ele>48</ele>
        <time>2021-03-14T14:43:17.000Z</time>
      </trkpt>
      <trkpt lat="47.20709" lon="-1.79283">
        <ele>48</ele>
        <time>2021-03-14T14:43:19.000Z</time>
      </trkpt>
      <trkpt lat="47.20706" lon="-1.79259">
        <ele>48</ele>
        <time>2021-03-14T14:43:21.000Z</time>
      </trkpt>
      <trkpt lat="47.20703" lon="-1.79236">
        <ele>48</ele>
        <time>2021-03-14T14:43:23.000Z</time>
      </trkpt>
      <trkpt lat="47.207" lon="-1.79212">
        <ele>47</ele>
        <time>2021-03-14T14:43:25.000Z</time>
      </trkpt>
      <trkpt lat="47.207" lon="-1.79188">
        <ele>47</ele>
        <time>2021-03-14T14:43:27.000Z</time>
      </trkpt>
      <trkpt lat="47.20704" lon="-1.79164">
        <ele>47</ele>
        <time>2021-03-14T14:43:29.000Z</time>
      </trkpt>
      <trkpt lat="47.20706" lon="-1.79139">
        <ele>47</ele>
        <time>2021-03-14T14:43:31.000Z</time>
      </trkpt>
      <trkpt lat="47.20708" lon="-1.79115">
        <ele>47</ele>
        <time>2021-03-14T14:43:33.000Z</time>
      </trkpt>
      <trkpt lat="47.20712" lon="-1.79091">
        <ele>47</ele>
        <time>2021-03-14T14:43:35.000Z</time>
      </trkpt>
      <trkpt lat="47.20717" lon="-1.79066">
        <ele>47</ele>
        <time>2021-03-14T14:43:37.000Z</time>
      </trkpt>
      <trkpt lat="47.20725" lon="-1.79044">
        <ele>47</ele>
        <time>2021-03-14T14:43:39.000Z</time>
      </trkpt>
      <trkpt lat="47.20734" lon="-1.79024">
        <ele>47</ele>
        <time>2021-03-14T14:43:41.000Z</time>
      </trkpt>
      <trkpt lat="47.20744" lon="-1.79004">
        <ele>47</ele>
        <time>2021-03-14T14:43:43.000Z</time>
      </trkpt>
      <trkpt lat="47.20755" lon="-1.78986">
        <ele>47</ele>
        <time>2021-03-14T14:43:45.000Z</time>
      </trkpt>
      <trkpt lat="47.20765" lon="-1.78968">
        <ele>47</ele>
        <time>2021-03-14T14:43:47.000Z</time>
      </trkpt>
      <trkpt lat="47.20774" lon="-1.7895">
        <ele>47</ele>
        <time>2021-03-14T14:43:49.000Z</time>
      </trkpt>
      <trkpt lat="47.20782" lon="-1.7893">
        <ele>47</ele>
        <time>2021-03-14T14:43:51.000Z</time>
      </trkpt>
      <trkpt lat="47.20788" lon="-1.7891">
        <ele>47</ele>
        <time>2021-03-14T14:43:53.000Z</time>
      </trkpt>
      <trkpt lat="47.20793" lon="-1.78888">
        <ele>47</ele>
        <time>2021-03-14T14:43:55.000Z</time>
      </trkpt>
      <trkpt lat="47.20797" lon="-1.78866">
        <ele>47</ele>
        <time>2021-03-14T14:43:57.000Z</time>
      </trkpt>
      <trkpt lat="47.20801" lon="-1.78844">
        <ele>47</ele>
        <time>2021-03-14T14:43:59.000Z</time>
      </trkpt>
      <trkpt lat="47.20806" lon="-1.78822">
        <ele>47</ele>
        <time>2021-03-14T14:44:01.000Z</time>
      </trkpt>
      <trkpt lat="47.20811" lon="-1.78799">
        <ele>47</ele>
        <time>2021-03-14T14:44:03.000Z</time>
      </trkpt>
      <trkpt lat="47.20816" lon="-1.78776">
        <ele>47</ele>
        <time>2021-03-14T14:44:05.000Z</time>
      </trkpt>
      <trkpt lat="47.20821" lon="-1.78753">
        <ele>47</ele>
        <time>2021-03-14T14:44:07.000Z</time>
      </trkpt>
      <trkpt lat="47.20825" lon="-1.78729">
        <ele>47</ele>
        <time>2021-03-14T14:44:09.000Z</time>
      </trkpt>
      <trkpt lat="47.20829" lon="-1.78705">
        <ele>47</ele>
        <time>2021-03-14T14:44:11.000Z</time>
      </trkpt>
      <trkpt lat="47.20831" lon="-1.78681">
        <ele>47</ele>
        <time>2021-03-14T14:44:13.000Z</time>
      </trkpt>
      <trkpt lat="47.2083" lon="-1.78658">
        <ele>48</ele>
        <time>2021-03-14T14:44:15.000Z</time>
      </trkpt>
      <trkpt lat="47.20827" lon="-1.78636">
        <ele>49</ele>
        <time>2021-03-14T14:44:17.000Z</time>
      </trkpt>
      <trkpt lat="47.2082" lon="-1.78618">
        <ele>49</ele>
        <time>2021-03-14T14:44:19.000Z</time>
      </trkpt>
      <trkpt lat="47.20809" lon="-1.78603">
        <ele>50</ele>
        <time>2021-03-14T14:44:21.000Z</time>
      </trkpt>
      <trkpt lat="47.20796" lon="-1.78592">
        <ele>50</ele>
        <time>2021-03-14T14:44:23.000Z</time>
      </trkpt>
      <trkpt lat="47.20781" lon="-1.78584">
        <ele>50</ele>
        <time>2021-03-14T14:44:25.000Z</time>
      </trkpt>
      <trkpt lat="47.20767" lon="-1.78576">
        <ele>50</ele>
        <time>2021-03-14T14:44:27.000Z</time>
      </trkpt>
      <trkpt lat="47.20753" lon="-1.78569">
        <ele>49</ele>
        <time>2021-03-14T14:44:29.000Z</time>
      </trkpt>
      <trkpt lat="47.20739" lon="-1.78564">
        <ele>49</ele>
        <time>2021-03-14T14:44:31.000Z</time>
      </trkpt>
      <trkpt lat="47.20725" lon="-1.78558">
        <ele>49</ele>
        <time>2021-03-14T14:44:33.000Z</time>
      </trkpt>
      <trkpt lat="47.20711" lon="-1.78556">
        <ele>49</ele>
        <time>2021-03-14T14:44:35.000Z</time>
      </trkpt>
      <trkpt lat="47.20697" lon="-1.78554">
        <ele>50</ele>
        <time>2021-03-14T14:44:37.000Z</time>
      </trkpt>
      <trkpt lat="47.20684" lon="-1.78551">
        <ele>50</ele>
        <time>2021-03-14T14:44:39.000Z</time>
      </trkpt>
      <trkpt lat="47.20671" lon="-1.78552">
        <ele>51</ele>
        <time>2021-03-14T14:44:41.000Z</time>
      </trkpt>
      <trkpt lat="47.20659" lon="-1.78547">
        <ele>51</ele>
        <time>2021-03-14T14:44:43.000Z</time>
      </trkpt>
      <trkpt lat="47.20646" lon="-1.78539">
        <ele>50</ele>
        <time>2021-03-14T14:44:45.000Z</time>
      </trkpt>
      <trkpt lat="47.20634" lon="-1.78531">
        <ele>50</ele>
        <time>2021-03-14T14:44:47.000Z</time>
      </trkpt>
      <trkpt lat="47.20622" lon="-1.78522">
        <ele>49</ele>
        <time>2021-03-14T14:44:49.000Z</time>
      </trkpt>
      <trkpt lat="47.2061" lon="-1.78515">
        <ele>49</ele>
        <time>2021-03-14T14:44:51.000Z</time>
      </trkpt>
      <trkpt lat="47.20595" lon="-1.78513">
        <ele>49</ele>
        <time>2021-03-14T14:44:53.000Z</time>
      </trkpt>
      <trkpt lat="47.20581" lon="-1.78513">
        <ele>49</ele>
        <time>2021-03-14T14:44:55.000Z</time>
      </trkpt>
      <trkpt lat="47.20567" lon="-1.78512">
        <ele>49</ele>
        <time>2021-03-14T14:44:57.000Z</time>
      </trkpt>
      <trkpt lat="47.20552" lon="-1.78511">
        <ele>50</ele>
        <time>2021-03-14T14:44:59.000Z</time>
      </trkpt>
      <trkpt lat="47.20539" lon="-1.78511">
        <ele>49</ele>
        <time>2021-03-14T14:45:01.000Z</time>
      </trkpt>
      <trkpt lat="47.20526" lon="-1.7851">
        <ele>50</ele>
        <time>2021-03-14T14:45:03.000Z</time>
      </trkpt>
      <trkpt lat="47.20512" lon="-1.78508">
        <ele>50</ele>
        <time>2021-03-14T14:45:05.000Z</time>
      </trkpt>
      <trkpt lat="47.20499" lon="-1.78503">
        <ele>50</ele>
        <time>2021-03-14T14:45:07.000Z</time>
      </trkpt>
      <trkpt lat="47.20486" lon="-1.78494">
        <ele>50</ele>
        <time>2021-03-14T14:45:09.000Z</time>
      </trkpt>
      <trkpt lat="47.20475" lon="-1.78485">
        <ele>50</ele>
        <time>2021-03-14T14:45:11.000Z</time>
      </trkpt>
      <trkpt lat="47.20465" lon="-1.78473">
        <ele>50</ele>
        <time>2021-03-14T14:45:13.000Z</time>
      </trkpt>
      <trkpt lat="47.20454" lon="-1.78459">
        <ele>49</ele>
        <time>2021-03-14T14:45:15.000Z</time>
      </trkpt>
      <trkpt lat="47.20443" lon="-1.78445">
        <ele>49</ele>
        <time>2021-03-14T14:45:17.000Z</time>
      </trkpt>
      <trkpt lat="47.20432" lon="-1.7843">
        <ele>49</ele>
        <time>2021-03-14T14:45:19.000Z</time>
      </trkpt>
      <trkpt lat="47.20422" lon="-1.78414">
        <ele>48</ele>
        <time>2021-03-14T14:45:21.000Z</time>
      </trkpt>
      <trkpt lat="47.20414" lon="-1.78398">
        <ele>48</ele>
        <time>2021-03-14T14:45:23.000Z</time>
      </trkpt>
      <trkpt lat="47.20405" lon="-1.78381">
        <ele>48</ele>
        <time>2021-03-14T14:45:25.000Z</time>
      </trkpt>
      <trkpt lat="47.20396" lon="-1.78364">
        <ele>48</ele>
        <time>2021-03-14T14:45:27.000Z</time>
      </trkpt>
      <trkpt lat="47.20387" lon="-1.78347">
        <ele>49</ele>
        <time>2021-03-14T14:45:29.000Z</time>
      </trkpt>
      <trkpt lat="47.20378" lon="-1.7833">
        <ele>49</ele>
        <time>2021-03-14T14:45:31.000Z</time>
      </trkpt>
      <trkpt lat="47.2037" lon="-1.78313">
        <ele>49</ele>
        <time>2021-03-14T14:45:33.000Z</time>
      </trkpt>
      <trkpt lat="47.20362" lon="-1.78297">
        <ele>49</ele>
        <time>2021-03-14T14:45:35.000Z</time>
      </trkpt>
      <trkpt lat="47.20354" lon="-1.78283">
        <ele>49</ele>
        <time>2021-03-14T14:45:37.000Z</time>
      </trkpt>
      <trkpt lat="47.20345" lon="-1.78268">
        <ele>49</ele>
        <time>2021-03-14T14:45:39.000Z</time>
      </trkpt>
      <trkpt lat="47.20336" lon="-1.78254">
        <ele>49</ele>
        <time>2021-03-14T14:45:41.000Z</time>
      </trkpt>
      <trkpt lat="47.20326" lon="-1.78239">
        <ele>49</ele>
        <time>2021-03-14T14:45:43.000Z</time>
      </trkpt>
      <trkpt lat="47.20316" lon="-1.78224">
        <ele>49</ele>
        <time>2021-03-14T14:45:45.000Z</time>
      </trkpt>
      <trkpt lat="47.20306" lon="-1.78208">
        <ele>50</ele>
        <time>2021-03-14T14:45:47.000Z</time>
      </trkpt>
      <trkpt lat="47.20297" lon="-1.78194">
        <ele>50</ele>
        <time>2021-03-14T14:45:49.000Z</time>
      </trkpt>
      <trkpt lat="47.20288" lon="-1.78181">
        <ele>51</ele>
        <time>2021-03-14T14:45:51.000Z</time>
      </trkpt>
      <trkpt lat="47.2028" lon="-1.78168">
        <ele>51</ele>
        <time>2021-03-14T14:45:53.000Z</time>
      </trkpt>
      <trkpt lat="47.20272" lon="-1.78154">
        <ele>51</ele>
        <time>2021-03-14T14:45:55.000Z</time>
      </trkpt>
      <trkpt lat="47.20264" lon="-1.78141">
        <ele>52</ele>
        <time>2021-03-14T14:45:57.000Z</time>
      </trkpt>
      <trkpt lat="47.20256" lon="-1.78127">
        <ele>52</ele>
        <time>2021-03-14T14:45:59.000Z</time>
      </trkpt>
      <trkpt lat="47.20248" lon="-1.78114">
        <ele>53</ele>
        <time>2021-03-14T14:46:01.000Z</time>
      </trkpt>
      <trkpt lat="47.20241" lon="-1.781">
        <ele>54</ele>
        <time>2021-03-14T14:46:03.000Z</time>
      </trkpt>
      <trkpt lat="47.20233" lon="-1.78086">
        <ele>55</ele>
        <time>2021-03-14T14:46:05.000Z</time>
      </trkpt>
      <trkpt lat="47.20226" lon="-1.78071">
        <ele>55</ele>
        <time>2021-03-14T14:46:07.000Z</time>
      </trkpt>
      <trkpt lat="47.20219" lon="-1.78056">
        <ele>55</ele>
        <time>2021-03-14T14:46:09.000Z</time>
      </trkpt>
      <trkpt lat="47.20212" lon="-1.78041">
        <ele>56</ele>
        <time>2021-03-14T14:46:11.000Z</time>
      </trkpt>
      <trkpt lat="47.20205" lon="-1.78027">
        <ele>56</ele>
        <time>2021-03-14T14:46:13.000Z</time>
      </trkpt>
      <trkpt lat="47.20198" lon="-1.78012">
        <ele>56</ele>
        <time>2021-03-14T14:46:15.000Z</time>
      </trkpt>
      <trkpt lat="47.20191" lon="-1.77996">
        <ele>57</ele>
        <time>2021-03-14T14:46:17.000Z</time>
      </trkpt>
      <trkpt lat="47.20184" lon="-1.77981">
        <ele>57</ele>
        <time>2021-03-14T14:46:19.000Z</time>
      </trkpt>
      <trkpt lat="47.20179" lon="-1.77965">
        <ele>57</ele>
        <time>2021-03-14T14:46:21.000Z</time>
      </trkpt>
      <trkpt lat="47.20173" lon="-1.77948">
        <ele>58</ele>
        <time>2021-03-14T14:46:23.000Z</time>
      </trkpt>
      <trkpt lat="47.20168" lon="-1.77933">
        <ele>57</ele>
        <time>2021-03-14T14:46:25.000Z</time>
      </trkpt>
      <trkpt lat="47.20164" lon="-1.77917">
        <ele>58</ele>
        <time>2021-03-14T14:46:27.000Z</time>
      </trkpt>
      <trkpt lat="47.20159" lon="-1.77901">
        <ele>58</ele>
        <time>2021-03-14T14:46:29.000Z</time>
      </trkpt>
      <trkpt lat="47.20154" lon="-1.77886">
        <ele>58</ele>
        <time>2021-03-14T14:46:31.000Z</time>
      </trkpt>
      <trkpt lat="47.20149" lon="-1.77871">
        <ele>59</ele>
        <time>2021-03-14T14:46:33.000Z</time>
      </trkpt>
      <trkpt lat="47.20145" lon="-1.77855">
        <ele>59</ele>
        <time>2021-03-14T14:46:35.000Z</time>
      </trkpt>
      <trkpt lat="47.2014" lon="-1.7784">
        <ele>58</ele>
        <time>2021-03-14T14:46:37.000Z</time>
      </trkpt>
      <trkpt lat="47.20136" lon="-1.77823">
        <ele>58</ele>
        <time>2021-03-14T14:46:39.000Z</time>
      </trkpt>
      <trkpt lat="47.2013" lon="-1.77806">
        <ele>57</ele>
        <time>2021-03-14T14:46:41.000Z</time>
      </trkpt>
      <trkpt lat="47.20123" lon="-1.77786">
        <ele>56</ele>
        <time>2021-03-14T14:46:43.000Z</time>
      </trkpt>
      <trkpt lat="47.20109" lon="-1.77773">
        <ele>55</ele>
        <time>2021-03-14T14:46:45.000Z</time>
      </trkpt>
      <trkpt lat="47.20092" lon="-1.77774">
        <ele>55</ele>
        <time>2021-03-14T14:46:47.000Z</time>
      </trkpt>
      <trkpt lat="47.20076" lon="-1.77775">
        <ele>54</ele>
        <time>2021-03-14T14:46:49.000Z</time>
      </trkpt>
      <trkpt lat="47.20059" lon="-1.77777">
        <ele>53</ele>
        <time>2021-03-14T14:46:51.000Z</time>
      </trkpt>
      <trkpt lat="47.20044" lon="-1.77776">
        <ele>52</ele>
        <time>2021-03-14T14:46:53.000Z</time>
      </trkpt>
      <trkpt lat="47.2003" lon="-1.77774">
        <ele>51</ele>
        <time>2021-03-14T14:46:55.000Z</time>
      </trkpt>
      <trkpt lat="47.2002" lon="-1.77769">
        <ele>52</ele>
        <time>2021-03-14T14:46:57.000Z</time>
      </trkpt>
      <trkpt lat="47.20014" lon="-1.77754">
        <ele>53</ele>
        <time>2021-03-14T14:46:59.000Z</time>
      </trkpt>
      <trkpt lat="47.20016" lon="-1.77737">
        <ele>53</ele>
        <time>2021-03-14T14:47:01.000Z</time>
      </trkpt>
      <trkpt lat="47.20018" lon="-1.7772">
        <ele>54</ele>
        <time>2021-03-14T14:47:03.000Z</time>
      </trkpt>
      <trkpt lat="47.20018" lon="-1.77703">
        <ele>54</ele>
        <time>2021-03-14T14:47:05.000Z</time>
      </trkpt>
      <trkpt lat="47.20018" lon="-1.77686">
        <ele>54</ele>
        <time>2021-03-14T14:47:07.000Z</time>
      </trkpt>
      <trkpt lat="47.20017" lon="-1.77669">
        <ele>55</ele>
        <time>2021-03-14T14:47:09.000Z</time>
      </trkpt>
      <trkpt lat="47.20016" lon="-1.77653">
        <ele>55</ele>
        <time>2021-03-14T14:47:11.000Z</time>
      </trkpt>
      <trkpt lat="47.20015" lon="-1.77637">
        <ele>56</ele>
        <time>2021-03-14T14:47:13.000Z</time>
      </trkpt>
      <trkpt lat="47.20014" lon="-1.77621">
        <ele>56</ele>
        <time>2021-03-14T14:47:15.000Z</time>
      </trkpt>
      <trkpt lat="47.20014" lon="-1.77605">
        <ele>57</ele>
        <time>2021-03-14T14:47:17.000Z</time>
      </trkpt>
      <trkpt lat="47.20013" lon="-1.77589">
        <ele>57</ele>
        <time>2021-03-14T14:47:19.000Z</time>
      </trkpt>
      <trkpt lat="47.20012" lon="-1.77573">
        <ele>58</ele>
        <time>2021-03-14T14:47:21.000Z</time>
      </trkpt>
      <trkpt lat="47.20012" lon="-1.77558">
        <ele>58</ele>
        <time>2021-03-14T14:47:23.000Z</time>
      </trkpt>
      <trkpt lat="47.20013" lon="-1.77542">
        <ele>59</ele>
        <time>2021-03-14T14:47:25.000Z</time>
      </trkpt>
      <trkpt lat="47.20013" lon="-1.77526">
        <ele>59</ele>
        <time>2021-03-14T14:47:27.000Z</time>
      </trkpt>
      <trkpt lat="47.20013" lon="-1.77511">
        <ele>59</ele>
        <time>2021-03-14T14:47:29.000Z</time>
      </trkpt>
      <trkpt lat="47.20014" lon="-1.77495">
        <ele>59</ele>
        <time>2021-03-14T14:47:31.000Z</time>
      </trkpt>
      <trkpt lat="47.20013" lon="-1.77479">
        <ele>59</ele>
        <time>2021-03-14T14:47:33.000Z</time>
      </trkpt>
      <trkpt lat="47.20014" lon="-1.77462">
        <ele>59</ele>
        <time>2021-03-14T14:47:35.000Z</time>
      </trkpt>
      <trkpt lat="47.20014" lon="-1.77445">
        <ele>59</ele>
        <time>2021-03-14T14:47:37.000Z</time>
      </trkpt>
      <trkpt lat="47.20014" lon="-1.77428">
        <ele>59</ele>
        <time>2021-03-14T14:47:39.000Z</time>
      </trkpt>
      <trkpt lat="47.20014" lon="-1.7741">
        <ele>59</ele>
        <time>2021-03-14T14:47:41.000Z</time>
      </trkpt>
      <trkpt lat="47.20014" lon="-1.77391">
        <ele>60</ele>
        <time>2021-03-14T14:47:43.000Z</time>
      </trkpt>
      <trkpt lat="47.20015" lon="-1.77372">
        <ele>60</ele>
        <time>2021-03-14T14:47:45.000Z</time>
      </trkpt>
      <trkpt lat="47.20015" lon="-1.77352">
        <ele>59</ele>
        <time>2021-03-14T14:47:47.000Z</time>
      </trkpt>
      <trkpt lat="47.20016" lon="-1.77332">
        <ele>59</ele>
        <time>2021-03-14T14:47:49.000Z</time>
      </trkpt>
      <trkpt lat="47.20016" lon="-1.77312">
        <ele>59</ele>
        <time>2021-03-14T14:47:51.000Z</time>
      </trkpt>
      <trkpt lat="47.20016" lon="-1.77291">
        <ele>59</ele>
        <time>2021-03-14T14:47:53.000Z</time>
      </trkpt>
      <trkpt lat="47.20017" lon="-1.7727">
        <ele>59</ele>
        <time>2021-03-14T14:47:55.000Z</time>
      </trkpt>
      <trkpt lat="47.20018" lon="-1.7725">
        <ele>58</ele>
        <time>2021-03-14T14:47:57.000Z</time>
      </trkpt>
      <trkpt lat="47.20018" lon="-1.77228">
        <ele>58</ele>
        <time>2021-03-14T14:47:59.000Z</time>
      </trkpt>
      <trkpt lat="47.20017" lon="-1.77206">
        <ele>58</ele>
        <time>2021-03-14T14:48:01.000Z</time>
      </trkpt>
      <trkpt lat="47.20018" lon="-1.77184">
        <ele>58</ele>
        <time>2021-03-14T14:48:03.000Z</time>
      </trkpt>
      <trkpt lat="47.2002" lon="-1.77163">
        <ele>58</ele>
        <time>2021-03-14T14:48:05.000Z</time>
      </trkpt>
      <trkpt lat="47.20021" lon="-1.77141">
        <ele>58</ele>
        <time>2021-03-14T14:48:07.000Z</time>
      </trkpt>
      <trkpt lat="47.20019" lon="-1.77118">
        <ele>58</ele>
        <time>2021-03-14T14:48:09.000Z</time>
      </trkpt>
      <trkpt lat="47.20019" lon="-1.77096">
        <ele>59</ele>
        <time>2021-03-14T14:48:11.000Z</time>
      </trkpt>
      <trkpt lat="47.2002" lon="-1.77074">
        <ele>59</ele>
        <time>2021-03-14T14:48:13.000Z</time>
      </trkpt>
      <trkpt lat="47.2002" lon="-1.77051">
        <ele>59</ele>
        <time>2021-03-14T14:48:15.000Z</time>
      </trkpt>
      <trkpt lat="47.2002" lon="-1.77029">
        <ele>59</ele>
        <time>2021-03-14T14:48:17.000Z</time>
      </trkpt>
      <trkpt lat="47.20021" lon="-1.77008">
        <ele>59</ele>
        <time>2021-03-14T14:48:19.000Z</time>
      </trkpt>
      <trkpt lat="47.20021" lon="-1.76986">
        <ele>59</ele>
        <time>2021-03-14T14:48:21.000Z</time>
      </trkpt>
      <trkpt lat="47.20022" lon="-1.76965">
        <ele>60</ele>
        <time>2021-03-14T14:48:23.000Z</time>
      </trkpt>
      <trkpt lat="47.20022" lon="-1.76943">
        <ele>60</ele>
        <time>2021-03-14T14:48:25.000Z</time>
      </trkpt>
      <trkpt lat="47.20023" lon="-1.76922">
        <ele>60</ele>
        <time>2021-03-14T14:48:27.000Z</time>
      </trkpt>
      <trkpt lat="47.20023" lon="-1.76901">
        <ele>60</ele>
        <time>2021-03-14T14:48:29.000Z</time>
      </trkpt>
      <trkpt lat="47.20024" lon="-1.76879">
        <ele>60</ele>
        <time>2021-03-14T14:48:31.000Z</time>
      </trkpt>
      <trkpt lat="47.20024" lon="-1.76857">
        <ele>60</ele>
        <time>2021-03-14T14:48:33.000Z</time>
      </trkpt>
      <trkpt lat="47.20025" lon="-1.76835">
        <ele>59</ele>
        <time>2021-03-14T14:48:35.000Z</time>
      </trkpt>
      <trkpt lat="47.20026" lon="-1.76813">
        <ele>59</ele>
        <time>2021-03-14T14:48:37.000Z</time>
      </trkpt>
      <trkpt lat="47.20026" lon="-1.76791">
        <ele>60</ele>
        <time>2021-03-14T14:48:39.000Z</time>
      </trkpt>
      <trkpt lat="47.20027" lon="-1.7677">
        <ele>59</ele>
        <time>2021-03-14T14:48:41.000Z</time>
      </trkpt>
      <trkpt lat="47.20028" lon="-1.76748">
        <ele>60</ele>
        <time>2021-03-14T14:48:43.000Z</time>
      </trkpt>
      <trkpt lat="47.20028" lon="-1.76727">
        <ele>60</ele>
        <time>2021-03-14T14:48:45.000Z</time>
      </trkpt>
      <trkpt lat="47.20029" lon="-1.76705">
        <ele>60</ele>
        <time>2021-03-14T14:48:47.000Z</time>
      </trkpt>
      <trkpt lat="47.2003" lon="-1.76684">
        <ele>60</ele>
        <time>2021-03-14T14:48:49.000Z</time>
      </trkpt>
      <trkpt lat="47.20031" lon="-1.76662">
        <ele>60</ele>
        <time>2021-03-14T14:48:51.000Z</time>
      </trkpt>
      <trkpt lat="47.20031" lon="-1.7664">
        <ele>60</ele>
        <time>2021-03-14T14:48:53.000Z</time>
      </trkpt>
      <trkpt lat="47.20032" lon="-1.76618">
        <ele>60</ele>
        <time>2021-03-14T14:48:55.000Z</time>
      </trkpt>
      <trkpt lat="47.20033" lon="-1.76597">
        <ele>60</ele>
        <time>2021-03-14T14:48:57.000Z</time>
      </trkpt>
      <trkpt lat="47.20034" lon="-1.76576">
        <ele>60</ele>
        <time>2021-03-14T14:48:59.000Z</time>
      </trkpt>
      <trkpt lat="47.20034" lon="-1.76554">
        <ele>61</ele>
        <time>2021-03-14T14:49:01.000Z</time>
      </trkpt>
      <trkpt lat="47.20035" lon="-1.76532">
        <ele>60</ele>
        <time>2021-03-14T14:49:03.000Z</time>
      </trkpt>
      <trkpt lat="47.20036" lon="-1.76512">
        <ele>60</ele>
        <time>2021-03-14T14:49:05.000Z</time>
      </trkpt>
      <trkpt lat="47.20037" lon="-1.7649">
        <ele>61</ele>
        <time>2021-03-14T14:49:07.000Z</time>
      </trkpt>
      <trkpt lat="47.20038" lon="-1.76469">
        <ele>61</ele>
        <time>2021-03-14T14:49:09.000Z</time>
      </trkpt>
      <trkpt lat="47.2004" lon="-1.76447">
        <ele>61</ele>
        <time>2021-03-14T14:49:11.000Z</time>
      </trkpt>
      <trkpt lat="47.20042" lon="-1.76425">
        <ele>61</ele>
        <time>2021-03-14T14:49:13.000Z</time>
      </trkpt>
      <trkpt lat="47.20043" lon="-1.76403">
        <ele>61</ele>
        <time>2021-03-14T14:49:15.000Z</time>
      </trkpt>
      <trkpt lat="47.20044" lon="-1.76381">
        <ele>61</ele>
        <time>2021-03-14T14:49:17.000Z</time>
      </trkpt>
      <trkpt lat="47.20045" lon="-1.76359">
        <ele>60</ele>
        <time>2021-03-14T14:49:19.000Z</time>
      </trkpt>
      <trkpt lat="47.20047" lon="-1.76337">
        <ele>60</ele>
        <time>2021-03-14T14:49:21.000Z</time>
      </trkpt>
      <trkpt lat="47.20048" lon="-1.76315">
        <ele>60</ele>
        <time>2021-03-14T14:49:23.000Z</time>
      </trkpt>
      <trkpt lat="47.20049" lon="-1.76293">
        <ele>60</ele>
        <time>2021-03-14T14:49:25.000Z</time>
      </trkpt>
      <trkpt lat="47.2005" lon="-1.76271">
        <ele>59</ele>
        <time>2021-03-14T14:49:27.000Z</time>
      </trkpt>
      <trkpt lat="47.20052" lon="-1.76249">
        <ele>59</ele>
        <time>2021-03-14T14:49:29.000Z</time>
      </trkpt>
      <trkpt lat="47.20053" lon="-1.76227">
        <ele>59</ele>
        <time>2021-03-14T14:49:31.000Z</time>
      </trkpt>
      <trkpt lat="47.20054" lon="-1.76205">
        <ele>59</ele>
        <time>2021-03-14T14:49:33.000Z</time>
      </trkpt>
      <trkpt lat="47.20055" lon="-1.76182">
        <ele>58</ele>
        <time>2021-03-14T14:49:35.000Z</time>
      </trkpt>
      <trkpt lat="47.20055" lon="-1.7616">
        <ele>58</ele>
        <time>2021-03-14T14:49:37.000Z</time>
      </trkpt>
      <trkpt lat="47.20054" lon="-1.76138">
        <ele>58</ele>
        <time>2021-03-14T14:49:39.000Z</time>
      </trkpt>
      <trkpt lat="47.20054" lon="-1.76115">
        <ele>58</ele>
        <time>2021-03-14T14:49:41.000Z</time>
      </trkpt>
      <trkpt lat="47.20053" lon="-1.76092">
        <ele>58</ele>
        <time>2021-03-14T14:49:43.000Z</time>
      </trkpt>
      <trkpt lat="47.20052" lon="-1.7607">
        <ele>58</ele>
        <time>2021-03-14T14:49:45.000Z</time>
      </trkpt>
      <trkpt lat="47.20051" lon="-1.76047">
        <ele>58</ele>
        <time>2021-03-14T14:49:47.000Z</time>
      </trkpt>
      <trkpt lat="47.2005" lon="-1.76025">
        <ele>57</ele>
        <time>2021-03-14T14:49:49.000Z</time>
      </trkpt>
      <trkpt lat="47.2005" lon="-1.76003">
        <ele>57</ele>
        <time>2021-03-14T14:49:51.000Z</time>
      </trkpt>
      <trkpt lat="47.20045" lon="-1.75985">
        <ele>57</ele>
        <time>2021-03-14T14:49:53.000Z</time>
      </trkpt>
      <trkpt lat="47.20043" lon="-1.7597">
        <ele>57</ele>
        <time>2021-03-14T14:49:55.000Z</time>
      </trkpt>
      <trkpt lat="47.20047" lon="-1.75954">
        <ele>56</ele>
        <time>2021-03-14T14:49:57.000Z</time>
      </trkpt>
      <trkpt lat="47.20049" lon="-1.75935">
        <ele>56</ele>
        <time>2021-03-14T14:49:59.000Z</time>
      </trkpt>
      <trkpt lat="47.20048" lon="-1.75916">
        <ele>56</ele>
        <time>2021-03-14T14:50:01.000Z</time>
      </trkpt>
      <trkpt lat="47.20048" lon="-1.75896">
        <ele>56</ele>
        <time>2021-03-14T14:50:03.000Z</time>
      </trkpt>
      <trkpt lat="47.20047" lon="-1.75875">
        <ele>56</ele>
        <time>2021-03-14T14:50:05.000Z</time>
      </trkpt>
      <trkpt lat="47.20046" lon="-1.75854">
        <ele>57</ele>
        <time>2021-03-14T14:50:07.000Z</time>
      </trkpt>
      <trkpt lat="47.20045" lon="-1.75835">
        <ele>57</ele>
        <time>2021-03-14T14:50:09.000Z</time>
      </trkpt>
      <trkpt lat="47.20044" lon="-1.75814">
        <ele>57</ele>
        <time>2021-03-14T14:50:11.000Z</time>
      </trkpt>
      <trkpt lat="47.20043" lon="-1.75794">
        <ele>57</ele>
        <time>2021-03-14T14:50:13.000Z</time>
      </trkpt>
      <trkpt lat="47.20041" lon="-1.75774">
        <ele>58</ele>
        <time>2021-03-14T14:50:15.000Z</time>
      </trkpt>
      <trkpt lat="47.2004" lon="-1.75753">
        <ele>58</ele>
        <time>2021-03-14T14:50:17.000Z</time>
      </trkpt>
      <trkpt lat="47.20038" lon="-1.75734">
        <ele>59</ele>
        <time>2021-03-14T14:50:19.000Z</time>
      </trkpt>
      <trkpt lat="47.20035" lon="-1.75714">
        <ele>59</ele>
        <time>2021-03-14T14:50:21.000Z</time>
      </trkpt>
      <trkpt lat="47.2003" lon="-1.75696">
        <ele>59</ele>
        <time>2021-03-14T14:50:23.000Z</time>
      </trkpt>
      <trkpt lat="47.20026" lon="-1.75678">
        <ele>59</ele>
        <time>2021-03-14T14:50:25.000Z</time>
      </trkpt>
      <trkpt lat="47.20021" lon="-1.7566">
        <ele>60</ele>
        <time>2021-03-14T14:50:27.000Z</time>
      </trkpt>
      <trkpt lat="47.20015" lon="-1.75642">
        <ele>59</ele>
        <time>2021-03-14T14:50:29.000Z</time>
      </trkpt>
      <trkpt lat="47.2001" lon="-1.75623">
        <ele>60</ele>
        <time>2021-03-14T14:50:31.000Z</time>
      </trkpt>
      <trkpt lat="47.20006" lon="-1.75606">
        <ele>60</ele>
        <time>2021-03-14T14:50:33.000Z</time>
      </trkpt>
      <trkpt lat="47.20001" lon="-1.75589">
        <ele>61</ele>
        <time>2021-03-14T14:50:35.000Z</time>
      </trkpt>
      <trkpt lat="47.19997" lon="-1.75575">
        <ele>61</ele>
        <time>2021-03-14T14:50:37.000Z</time>
      </trkpt>
      <trkpt lat="47.19993" lon="-1.75561">
        <ele>62</ele>
        <time>2021-03-14T14:50:39.000Z</time>
      </trkpt>
      <trkpt lat="47.1999" lon="-1.75545">
        <ele>62</ele>
        <time>2021-03-14T14:50:41.000Z</time>
      </trkpt>
      <trkpt lat="47.19984" lon="-1.75528">
        <ele>62</ele>
        <time>2021-03-14T14:50:43.000Z</time>
      </trkpt>
      <trkpt lat="47.19978" lon="-1.75511">
        <ele>63</ele>
        <time>2021-03-14T14:50:45.000Z</time>
      </trkpt>
      <trkpt lat="47.19973" lon="-1.75494">
        <ele>63</ele>
        <time>2021-03-14T14:50:47.000Z</time>
      </trkpt>
      <trkpt lat="47.19969" lon="-1.75477">
        <ele>64</ele>
        <time>2021-03-14T14:50:49.000Z</time>
      </trkpt>
      <trkpt lat="47.19965" lon="-1.75459">
        <ele>65</ele>
        <time>2021-03-14T14:50:51.000Z</time>
      </trkpt>
      <trkpt lat="47.19963" lon="-1.75442">
        <ele>65</ele>
        <time>2021-03-14T14:50:53.000Z</time>
      </trkpt>
      <trkpt lat="47.1996" lon="-1.75423">
        <ele>65</ele>
        <time>2021-03-14T14:50:55.000Z</time>
      </trkpt>
      <trkpt lat="47.19956" lon="-1.75404">
        <ele>65</ele>
        <time>2021-03-14T14:50:57.000Z</time>
      </trkpt>
      <trkpt lat="47.19954" lon="-1.75386">
        <ele>65</ele>
        <time>2021-03-14T14:50:59.000Z</time>
      </trkpt>
      <trkpt lat="47.19952" lon="-1.75366">
        <ele>65</ele>
        <time>2021-03-14T14:51:01.000Z</time>
      </trkpt>
      <trkpt lat="47.1995" lon="-1.75347">
        <ele>65</ele>
        <time>2021-03-14T14:51:03.000Z</time>
      </trkpt>
      <trkpt lat="47.19948" lon="-1.75328">
        <ele>64</ele>
        <time>2021-03-14T14:51:05.000Z</time>
      </trkpt>
      <trkpt lat="47.19946" lon="-1.7531">
        <ele>64</ele>
        <time>2021-03-14T14:51:07.000Z</time>
      </trkpt>
      <trkpt lat="47.1994" lon="-1.75292">
        <ele>62</ele>
        <time>2021-03-14T14:51:09.000Z</time>
      </trkpt>
      <trkpt lat="47.19934" lon="-1.75275">
        <ele>62</ele>
        <time>2021-03-14T14:51:11.000Z</time>
      </trkpt>
      <trkpt lat="47.19927" lon="-1.75258">
        <ele>62</ele>
        <time>2021-03-14T14:51:13.000Z</time>
      </trkpt>
      <trkpt lat="47.19921" lon="-1.7524">
        <ele>62</ele>
        <time>2021-03-14T14:51:15.000Z</time>
      </trkpt>
      <trkpt lat="47.19915" lon="-1.75223">
        <ele>62</ele>
        <time>2021-03-14T14:51:17.000Z</time>
      </trkpt>
      <trkpt lat="47.19908" lon="-1.75206">
        <ele>62</ele>
        <time>2021-03-14T14:51:19.000Z</time>
      </trkpt>
      <trkpt lat="47.19902" lon="-1.7519">
        <ele>62</ele>
        <time>2021-03-14T14:51:21.000Z</time>
      </trkpt>
      <trkpt lat="47.19895" lon="-1.75173">
        <ele>63</ele>
        <time>2021-03-14T14:51:23.000Z</time>
      </trkpt>
      <trkpt lat="47.19889" lon="-1.75157">
        <ele>63</ele>
        <time>2021-03-14T14:51:25.000Z</time>
      </trkpt>
      <trkpt lat="47.19881" lon="-1.75142">
        <ele>63</ele>
        <time>2021-03-14T14:51:27.000Z</time>
      </trkpt>
      <trkpt lat="47.19874" lon="-1.75125">
        <ele>63</ele>
        <time>2021-03-14T14:51:29.000Z</time>
      </trkpt>
      <trkpt lat="47.19867" lon="-1.75109">
        <ele>63</ele>
        <time>2021-03-14T14:51:31.000Z</time>
      </trkpt>
      <trkpt lat="47.1986" lon="-1.75092">
        <ele>63</ele>
        <time>2021-03-14T14:51:33.000Z</time>
      </trkpt>
      <trkpt lat="47.19854" lon="-1.75076">
        <ele>63</ele>
        <time>2021-03-14T14:51:35.000Z</time>
      </trkpt>
      <trkpt lat="47.19847" lon="-1.75058">
        <ele>63</ele>
        <time>2021-03-14T14:51:37.000Z</time>
      </trkpt>
      <trkpt lat="47.1984" lon="-1.7504">
        <ele>63</ele>
        <time>2021-03-14T14:51:39.000Z</time>
      </trkpt>
      <trkpt lat="47.19832" lon="-1.75022">
        <ele>63</ele>
        <time>2021-03-14T14:51:41.000Z</time>
      </trkpt>
      <trkpt lat="47.19825" lon="-1.75004">
        <ele>63</ele>
        <time>2021-03-14T14:51:43.000Z</time>
      </trkpt>
      <trkpt lat="47.1982" lon="-1.74983">
        <ele>61</ele>
        <time>2021-03-14T14:51:45.000Z</time>
      </trkpt>
      <trkpt lat="47.19816" lon="-1.7496">
        <ele>60</ele>
        <time>2021-03-14T14:51:47.000Z</time>
      </trkpt>
      <trkpt lat="47.19812" lon="-1.74936">
        <ele>59</ele>
        <time>2021-03-14T14:51:49.000Z</time>
      </trkpt>
      <trkpt lat="47.19808" lon="-1.74911">
        <ele>58</ele>
        <time>2021-03-14T14:51:51.000Z</time>
      </trkpt>
      <trkpt lat="47.19804" lon="-1.74887">
        <ele>58</ele>
        <time>2021-03-14T14:51:53.000Z</time>
      </trkpt>
      <trkpt lat="47.19799" lon="-1.74863">
        <ele>58</ele>
        <time>2021-03-14T14:51:55.000Z</time>
      </trkpt>
      <trkpt lat="47.19795" lon="-1.7484">
        <ele>59</ele>
        <time>2021-03-14T14:51:57.000Z</time>
      </trkpt>
      <trkpt lat="47.19791" lon="-1.74817">
        <ele>59</ele>
        <time>2021-03-14T14:51:59.000Z</time>
      </trkpt>
      <trkpt lat="47.19788" lon="-1.74796">
        <ele>60</ele>
        <time>2021-03-14T14:52:01.000Z</time>
      </trkpt>
      <trkpt lat="47.19784" lon="-1.74775">
        <ele>61</ele>
        <time>2021-03-14T14:52:03.000Z</time>
      </trkpt>
      <trkpt lat="47.19781" lon="-1.74754">
        <ele>61</ele>
        <time>2021-03-14T14:52:05.000Z</time>
      </trkpt>
      <trkpt lat="47.19778" lon="-1.74735">
        <ele>62</ele>
        <time>2021-03-14T14:52:07.000Z</time>
      </trkpt>
      <trkpt lat="47.19774" lon="-1.74716">
        <ele>63</ele>
        <time>2021-03-14T14:52:09.000Z</time>
      </trkpt>
      <trkpt lat="47.19769" lon="-1.74697">
        <ele>64</ele>
        <time>2021-03-14T14:52:11.000Z</time>
      </trkpt>
      <trkpt lat="47.19763" lon="-1.74679">
        <ele>64</ele>
        <time>2021-03-14T14:52:13.000Z</time>
      </trkpt>
      <trkpt lat="47.19758" lon="-1.74663">
        <ele>64</ele>
        <time>2021-03-14T14:52:15.000Z</time>
      </trkpt>
      <trkpt lat="47.19751" lon="-1.74646">
        <ele>64</ele>
        <time>2021-03-14T14:52:17.000Z</time>
      </trkpt>
      <trkpt lat="47.19744" lon="-1.74629">
        <ele>64</ele>
        <time>2021-03-14T14:52:19.000Z</time>
      </trkpt>
      <trkpt lat="47.19737" lon="-1.74613">
        <ele>64</ele>
        <time>2021-03-14T14:52:21.000Z</time>
      </trkpt>
      <trkpt lat="47.1973" lon="-1.74596">
        <ele>64</ele>
        <time>2021-03-14T14:52:23.000Z</time>
      </trkpt>
      <trkpt lat="47.19723" lon="-1.74579">
        <ele>64</ele>
        <time>2021-03-14T14:52:25.000Z</time>
      </trkpt>
      <trkpt lat="47.19715" lon="-1.74563">
        <ele>63</ele>
        <time>2021-03-14T14:52:27.000Z</time>
      </trkpt>
      <trkpt lat="47.19708" lon="-1.74547">
        <ele>64</ele>
        <time>2021-03-14T14:52:29.000Z</time>
      </trkpt>
      <trkpt lat="47.19701" lon="-1.74531">
        <ele>64</ele>
        <time>2021-03-14T14:52:31.000Z</time>
      </trkpt>
      <trkpt lat="47.19694" lon="-1.74514">
        <ele>64</ele>
        <time>2021-03-14T14:52:33.000Z</time>
      </trkpt>
      <trkpt lat="47.19688" lon="-1.74497">
        <ele>64</ele>
        <time>2021-03-14T14:52:35.000Z</time>
      </trkpt>
      <trkpt lat="47.19682" lon="-1.74479">
        <ele>65</ele>
        <time>2021-03-14T14:52:37.000Z</time>
      </trkpt>
      <trkpt lat="47.19676" lon="-1.74462">
        <ele>65</ele>
        <time>2021-03-14T14:52:39.000Z</time>
      </trkpt>
      <trkpt lat="47.1967" lon="-1.74445">
        <ele>65</ele>
        <time>2021-03-14T14:52:41.000Z</time>
      </trkpt>
      <trkpt lat="47.19665" lon="-1.74428">
        <ele>65</ele>
        <time>2021-03-14T14:52:43.000Z</time>
      </trkpt>
      <trkpt lat="47.19659" lon="-1.74411">
        <ele>65</ele>
        <time>2021-03-14T14:52:45.000Z</time>
      </trkpt>
      <trkpt lat="47.19653" lon="-1.74394">
        <ele>65</ele>
        <time>2021-03-14T14:52:47.000Z</time>
      </trkpt>
      <trkpt lat="47.19648" lon="-1.74377">
        <ele>66</ele>
        <time>2021-03-14T14:52:49.000Z</time>
      </trkpt>
      <trkpt lat="47.19642" lon="-1.74359">
        <ele>65</ele>
        <time>2021-03-14T14:52:51.000Z</time>
      </trkpt>
      <trkpt lat="47.19637" lon="-1.74342">
        <ele>65</ele>
        <time>2021-03-14T14:52:53.000Z</time>
      </trkpt>
      <trkpt lat="47.19632" lon="-1.74324">
        <ele>65</ele>
        <time>2021-03-14T14:52:55.000Z</time>
      </trkpt>
      <trkpt lat="47.19626" lon="-1.74306">
        <ele>65</ele>
        <time>2021-03-14T14:52:57.000Z</time>
      </trkpt>
      <trkpt lat="47.19621" lon="-1.74288">
        <ele>66</ele>
        <time>2021-03-14T14:52:59.000Z</time>
      </trkpt>
      <trkpt lat="47.19617" lon="-1.7427">
        <ele>66</ele>
        <time>2021-03-14T14:53:01.000Z</time>
      </trkpt>
      <trkpt lat="47.19612" lon="-1.74252">
        <ele>67</ele>
        <time>2021-03-14T14:53:03.000Z</time>
      </trkpt>
      <trkpt lat="47.19609" lon="-1.74233">
        <ele>67</ele>
        <time>2021-03-14T14:53:05.000Z</time>
      </trkpt>
      <trkpt lat="47.19606" lon="-1.74214">
        <ele>67</ele>
        <time>2021-03-14T14:53:07.000Z</time>
      </trkpt>
      <trkpt lat="47.19603" lon="-1.74194">
        <ele>67</ele>
        <time>2021-03-14T14:53:09.000Z</time>
      </trkpt>
      <trkpt lat="47.19601" lon="-1.74175">
        <ele>67</ele>
        <time>2021-03-14T14:53:11.000Z</time>
      </trkpt>
      <trkpt lat="47.19598" lon="-1.74156">
        <ele>67</ele>
        <time>2021-03-14T14:53:13.000Z</time>
      </trkpt>
      <trkpt lat="47.19593" lon="-1.74128">
        <ele>67</ele>
        <time>2021-03-14T14:53:16.000Z</time>
      </trkpt>
      <trkpt lat="47.1959" lon="-1.74111">
        <ele>67</ele>
        <time>2021-03-14T14:53:18.000Z</time>
      </trkpt>
      <trkpt lat="47.19588" lon="-1.74091">
        <ele>67</ele>
        <time>2021-03-14T14:53:20.000Z</time>
      </trkpt>
      <trkpt lat="47.19586" lon="-1.74073">
        <ele>67</ele>
        <time>2021-03-14T14:53:22.000Z</time>
      </trkpt>
      <trkpt lat="47.19584" lon="-1.74054">
        <ele>67</ele>
        <time>2021-03-14T14:53:24.000Z</time>
      </trkpt>
      <trkpt lat="47.19582" lon="-1.74036">
        <ele>68</ele>
        <time>2021-03-14T14:53:26.000Z</time>
      </trkpt>
      <trkpt lat="47.19579" lon="-1.74017">
        <ele>68</ele>
        <time>2021-03-14T14:53:28.000Z</time>
      </trkpt>
      <trkpt lat="47.19578" lon="-1.73997">
        <ele>68</ele>
        <time>2021-03-14T14:53:30.000Z</time>
      </trkpt>
      <trkpt lat="47.19578" lon="-1.73978">
        <ele>68</ele>
        <time>2021-03-14T14:53:32.000Z</time>
      </trkpt>
      <trkpt lat="47.19579" lon="-1.73959">
        <ele>68</ele>
        <time>2021-03-14T14:53:34.000Z</time>
      </trkpt>
      <trkpt lat="47.19581" lon="-1.73939">
        <ele>68</ele>
        <time>2021-03-14T14:53:36.000Z</time>
      </trkpt>
      <trkpt lat="47.19584" lon="-1.73919">
        <ele>68</ele>
        <time>2021-03-14T14:53:38.000Z</time>
      </trkpt>
      <trkpt lat="47.19591" lon="-1.73889">
        <ele>68</ele>
        <time>2021-03-14T14:53:41.000Z</time>
      </trkpt>
      <trkpt lat="47.19595" lon="-1.73869">
        <ele>68</ele>
        <time>2021-03-14T14:53:43.000Z</time>
      </trkpt>
      <trkpt lat="47.19599" lon="-1.73848">
        <ele>68</ele>
        <time>2021-03-14T14:53:45.000Z</time>
      </trkpt>
      <trkpt lat="47.19604" lon="-1.73827">
        <ele>68</ele>
        <time>2021-03-14T14:53:47.000Z</time>
      </trkpt>
      <trkpt lat="47.19608" lon="-1.73807">
        <ele>69</ele>
        <time>2021-03-14T14:53:49.000Z</time>
      </trkpt>
      <trkpt lat="47.19612" lon="-1.73788">
        <ele>69</ele>
        <time>2021-03-14T14:53:51.000Z</time>
      </trkpt>
      <trkpt lat="47.19616" lon="-1.73768">
        <ele>69</ele>
        <time>2021-03-14T14:53:53.000Z</time>
      </trkpt>
      <trkpt lat="47.19617" lon="-1.73747">
        <ele>69</ele>
        <time>2021-03-14T14:53:55.000Z</time>
      </trkpt>
      <trkpt lat="47.19617" lon="-1.73726">
        <ele>69</ele>
        <time>2021-03-14T14:53:57.000Z</time>
      </trkpt>
      <trkpt lat="47.19616" lon="-1.73705">
        <ele>69</ele>
        <time>2021-03-14T14:53:59.000Z</time>
      </trkpt>
      <trkpt lat="47.19616" lon="-1.73685">
        <ele>70</ele>
        <time>2021-03-14T14:54:01.000Z</time>
      </trkpt>
      <trkpt lat="47.19616" lon="-1.73665">
        <ele>70</ele>
        <time>2021-03-14T14:54:03.000Z</time>
      </trkpt>
      <trkpt lat="47.19616" lon="-1.73646">
        <ele>69</ele>
        <time>2021-03-14T14:54:05.000Z</time>
      </trkpt>
      <trkpt lat="47.19616" lon="-1.73625">
        <ele>69</ele>
        <time>2021-03-14T14:54:07.000Z</time>
      </trkpt>
      <trkpt lat="47.19615" lon="-1.73605">
        <ele>69</ele>
        <time>2021-03-14T14:54:09.000Z</time>
      </trkpt>
      <trkpt lat="47.19613" lon="-1.73583">
        <ele>69</ele>
        <time>2021-03-14T14:54:11.000Z</time>
      </trkpt>
      <trkpt lat="47.1961" lon="-1.73562">
        <ele>68</ele>
        <time>2021-03-14T14:54:13.000Z</time>
      </trkpt>
      <trkpt lat="47.19605" lon="-1.73542">
        <ele>68</ele>
        <time>2021-03-14T14:54:15.000Z</time>
      </trkpt>
      <trkpt lat="47.19598" lon="-1.73522">
        <ele>67</ele>
        <time>2021-03-14T14:54:17.000Z</time>
      </trkpt>
      <trkpt lat="47.1959" lon="-1.73503">
        <ele>66</ele>
        <time>2021-03-14T14:54:19.000Z</time>
      </trkpt>
      <trkpt lat="47.19581" lon="-1.73484">
        <ele>65</ele>
        <time>2021-03-14T14:54:21.000Z</time>
      </trkpt>
      <trkpt lat="47.19574" lon="-1.73462">
        <ele>65</ele>
        <time>2021-03-14T14:54:23.000Z</time>
      </trkpt>
      <trkpt lat="47.19566" lon="-1.73438">
        <ele>64</ele>
        <time>2021-03-14T14:54:25.000Z</time>
      </trkpt>
      <trkpt lat="47.19562" lon="-1.73412">
        <ele>63</ele>
        <time>2021-03-14T14:54:27.000Z</time>
      </trkpt>
      <trkpt lat="47.19561" lon="-1.73398">
        <ele>63</ele>
        <time>2021-03-14T14:54:28.000Z</time>
      </trkpt>
      <trkpt lat="47.19559" lon="-1.73384">
        <ele>62</ele>
        <time>2021-03-14T14:54:29.000Z</time>
      </trkpt>
      <trkpt lat="47.19557" lon="-1.7337">
        <ele>62</ele>
        <time>2021-03-14T14:54:30.000Z</time>
      </trkpt>
      <trkpt lat="47.19555" lon="-1.73355">
        <ele>61</ele>
        <time>2021-03-14T14:54:31.000Z</time>
      </trkpt>
      <trkpt lat="47.19552" lon="-1.73325">
        <ele>60</ele>
        <time>2021-03-14T14:54:33.000Z</time>
      </trkpt>
      <trkpt lat="47.19551" lon="-1.73309">
        <ele>59</ele>
        <time>2021-03-14T14:54:34.000Z</time>
      </trkpt>
      <trkpt lat="47.19549" lon="-1.73293">
        <ele>59</ele>
        <time>2021-03-14T14:54:35.000Z</time>
      </trkpt>
      <trkpt lat="47.19548" lon="-1.73278">
        <ele>59</ele>
        <time>2021-03-14T14:54:36.000Z</time>
      </trkpt>
      <trkpt lat="47.19546" lon="-1.73262">
        <ele>58</ele>
        <time>2021-03-14T14:54:37.000Z</time>
      </trkpt>
      <trkpt lat="47.19543" lon="-1.7323">
        <ele>57</ele>
        <time>2021-03-14T14:54:39.000Z</time>
      </trkpt>
      <trkpt lat="47.19541" lon="-1.73214">
        <ele>57</ele>
        <time>2021-03-14T14:54:40.000Z</time>
      </trkpt>
      <trkpt lat="47.1954" lon="-1.73198">
        <ele>56</ele>
        <time>2021-03-14T14:54:41.000Z</time>
      </trkpt>
      <trkpt lat="47.19539" lon="-1.73182">
        <ele>55</ele>
        <time>2021-03-14T14:54:42.000Z</time>
      </trkpt>
      <trkpt lat="47.19538" lon="-1.73166">
        <ele>55</ele>
        <time>2021-03-14T14:54:43.000Z</time>
      </trkpt>
      <trkpt lat="47.19537" lon="-1.73149">
        <ele>54</ele>
        <time>2021-03-14T14:54:44.000Z</time>
      </trkpt>
      <trkpt lat="47.19538" lon="-1.73133">
        <ele>54</ele>
        <time>2021-03-14T14:54:45.000Z</time>
      </trkpt>
      <trkpt lat="47.19538" lon="-1.73118">
        <ele>54</ele>
        <time>2021-03-14T14:54:46.000Z</time>
      </trkpt>
      <trkpt lat="47.19538" lon="-1.73103">
        <ele>54</ele>
        <time>2021-03-14T14:54:47.000Z</time>
      </trkpt>
      <trkpt lat="47.19538" lon="-1.73088">
        <ele>54</ele>
        <time>2021-03-14T14:54:48.000Z</time>
      </trkpt>
      <trkpt lat="47.19538" lon="-1.73073">
        <ele>54</ele>
        <time>2021-03-14T14:54:49.000Z</time>
      </trkpt>
      <trkpt lat="47.19539" lon="-1.73044">
        <ele>55</ele>
        <time>2021-03-14T14:54:51.000Z</time>
      </trkpt>
      <trkpt lat="47.19539" lon="-1.7303">
        <ele>55</ele>
        <time>2021-03-14T14:54:52.000Z</time>
      </trkpt>
      <trkpt lat="47.19539" lon="-1.73016">
        <ele>54</ele>
        <time>2021-03-14T14:54:53.000Z</time>
      </trkpt>
      <trkpt lat="47.19539" lon="-1.73003">
        <ele>54</ele>
        <time>2021-03-14T14:54:54.000Z</time>
      </trkpt>
      <trkpt lat="47.19539" lon="-1.72977">
        <ele>53</ele>
        <time>2021-03-14T14:54:56.000Z</time>
      </trkpt>
      <trkpt lat="47.19539" lon="-1.72964">
        <ele>53</ele>
        <time>2021-03-14T14:54:57.000Z</time>
      </trkpt>
      <trkpt lat="47.19539" lon="-1.72938">
        <ele>52</ele>
        <time>2021-03-14T14:54:59.000Z</time>
      </trkpt>
      <trkpt lat="47.19539" lon="-1.72911">
        <ele>52</ele>
        <time>2021-03-14T14:55:01.000Z</time>
      </trkpt>
      <trkpt lat="47.19538" lon="-1.72885">
        <ele>52</ele>
        <time>2021-03-14T14:55:03.000Z</time>
      </trkpt>
      <trkpt lat="47.19537" lon="-1.7286">
        <ele>51</ele>
        <time>2021-03-14T14:55:05.000Z</time>
      </trkpt>
      <trkpt lat="47.19535" lon="-1.72835">
        <ele>51</ele>
        <time>2021-03-14T14:55:07.000Z</time>
      </trkpt>
      <trkpt lat="47.19532" lon="-1.72813">
        <ele>51</ele>
        <time>2021-03-14T14:55:09.000Z</time>
      </trkpt>
      <trkpt lat="47.19529" lon="-1.72791">
        <ele>52</ele>
        <time>2021-03-14T14:55:11.000Z</time>
      </trkpt>
      <trkpt lat="47.19526" lon="-1.72762">
        <ele>53</ele>
        <time>2021-03-14T14:55:14.000Z</time>
      </trkpt>
      <trkpt lat="47.19526" lon="-1.72745">
        <ele>54</ele>
        <time>2021-03-14T14:55:16.000Z</time>
      </trkpt>
      <trkpt lat="47.19528" lon="-1.72727">
        <ele>55</ele>
        <time>2021-03-14T14:55:18.000Z</time>
      </trkpt>
      <trkpt lat="47.1953" lon="-1.72711">
        <ele>56</ele>
        <time>2021-03-14T14:55:20.000Z</time>
      </trkpt>
      <trkpt lat="47.19533" lon="-1.72696">
        <ele>57</ele>
        <time>2021-03-14T14:55:22.000Z</time>
      </trkpt>
      <trkpt lat="47.19536" lon="-1.7268">
        <ele>57</ele>
        <time>2021-03-14T14:55:24.000Z</time>
      </trkpt>
      <trkpt lat="47.1954" lon="-1.72665">
        <ele>57</ele>
        <time>2021-03-14T14:55:26.000Z</time>
      </trkpt>
      <trkpt lat="47.19545" lon="-1.7265">
        <ele>58</ele>
        <time>2021-03-14T14:55:28.000Z</time>
      </trkpt>
      <trkpt lat="47.19548" lon="-1.72635">
        <ele>59</ele>
        <time>2021-03-14T14:55:30.000Z</time>
      </trkpt>
      <trkpt lat="47.19551" lon="-1.7262">
        <ele>59</ele>
        <time>2021-03-14T14:55:32.000Z</time>
      </trkpt>
      <trkpt lat="47.19556" lon="-1.72605">
        <ele>60</ele>
        <time>2021-03-14T14:55:34.000Z</time>
      </trkpt>
      <trkpt lat="47.19561" lon="-1.72591">
        <ele>61</ele>
        <time>2021-03-14T14:55:36.000Z</time>
      </trkpt>
      <trkpt lat="47.19567" lon="-1.72576">
        <ele>61</ele>
        <time>2021-03-14T14:55:38.000Z</time>
      </trkpt>
      <trkpt lat="47.19573" lon="-1.72562">
        <ele>62</ele>
        <time>2021-03-14T14:55:40.000Z</time>
      </trkpt>
      <trkpt lat="47.19578" lon="-1.72547">
        <ele>63</ele>
        <time>2021-03-14T14:55:42.000Z</time>
      </trkpt>
      <trkpt lat="47.19581" lon="-1.72531">
        <ele>64</ele>
        <time>2021-03-14T14:55:44.000Z</time>
      </trkpt>
      <trkpt lat="47.19582" lon="-1.72515">
        <ele>65</ele>
        <time>2021-03-14T14:55:46.000Z</time>
      </trkpt>
      <trkpt lat="47.19584" lon="-1.72498">
        <ele>65</ele>
        <time>2021-03-14T14:55:48.000Z</time>
      </trkpt>
      <trkpt lat="47.19584" lon="-1.72482">
        <ele>65</ele>
        <time>2021-03-14T14:55:50.000Z</time>
      </trkpt>
      <trkpt lat="47.19585" lon="-1.72466">
        <ele>66</ele>
        <time>2021-03-14T14:55:52.000Z</time>
      </trkpt>
      <trkpt lat="47.19585" lon="-1.7245">
        <ele>66</ele>
        <time>2021-03-14T14:55:54.000Z</time>
      </trkpt>
      <trkpt lat="47.19586" lon="-1.72433">
        <ele>66</ele>
        <time>2021-03-14T14:55:56.000Z</time>
      </trkpt>
      <trkpt lat="47.19586" lon="-1.72415">
        <ele>66</ele>
        <time>2021-03-14T14:55:58.000Z</time>
      </trkpt>
      <trkpt lat="47.1958" lon="-1.724">
        <ele>66</ele>
        <time>2021-03-14T14:56:00.000Z</time>
      </trkpt>
      <trkpt lat="47.19569" lon="-1.72391">
        <ele>66</ele>
        <time>2021-03-14T14:56:02.000Z</time>
      </trkpt>
      <trkpt lat="47.19558" lon="-1.72383">
        <ele>66</ele>
        <time>2021-03-14T14:56:04.000Z</time>
      </trkpt>
      <trkpt lat="47.19548" lon="-1.72374">
        <ele>66</ele>
        <time>2021-03-14T14:56:06.000Z</time>
      </trkpt>
      <trkpt lat="47.19538" lon="-1.72365">
        <ele>66</ele>
        <time>2021-03-14T14:56:08.000Z</time>
      </trkpt>
      <trkpt lat="47.19528" lon="-1.72356">
        <ele>66</ele>
        <time>2021-03-14T14:56:10.000Z</time>
      </trkpt>
      <trkpt lat="47.1952" lon="-1.72344">
        <ele>66</ele>
        <time>2021-03-14T14:56:12.000Z</time>
      </trkpt>
      <trkpt lat="47.19512" lon="-1.72332">
        <ele>66</ele>
        <time>2021-03-14T14:56:14.000Z</time>
      </trkpt>
      <trkpt lat="47.19503" lon="-1.72319">
        <ele>66</ele>
        <time>2021-03-14T14:56:16.000Z</time>
      </trkpt>
      <trkpt lat="47.19495" lon="-1.72306">
        <ele>66</ele>
        <time>2021-03-14T14:56:18.000Z</time>
      </trkpt>
      <trkpt lat="47.19487" lon="-1.72294">
        <ele>66</ele>
        <time>2021-03-14T14:56:20.000Z</time>
      </trkpt>
      <trkpt lat="47.19479" lon="-1.72281">
        <ele>66</ele>
        <time>2021-03-14T14:56:22.000Z</time>
      </trkpt>
      <trkpt lat="47.19472" lon="-1.72269">
        <ele>66</ele>
        <time>2021-03-14T14:56:24.000Z</time>
      </trkpt>
      <trkpt lat="47.19466" lon="-1.72253">
        <ele>66</ele>
        <time>2021-03-14T14:56:26.000Z</time>
      </trkpt>
      <trkpt lat="47.19461" lon="-1.72238">
        <ele>66</ele>
        <time>2021-03-14T14:56:28.000Z</time>
      </trkpt>
      <trkpt lat="47.19452" lon="-1.72213">
        <ele>66</ele>
        <time>2021-03-14T14:56:31.000Z</time>
      </trkpt>
      <trkpt lat="47.19446" lon="-1.72196">
        <ele>66</ele>
        <time>2021-03-14T14:56:33.000Z</time>
      </trkpt>
      <trkpt lat="47.19441" lon="-1.72179">
        <ele>65</ele>
        <time>2021-03-14T14:56:35.000Z</time>
      </trkpt>
      <trkpt lat="47.19435" lon="-1.72161">
        <ele>65</ele>
        <time>2021-03-14T14:56:37.000Z</time>
      </trkpt>
      <trkpt lat="47.1943" lon="-1.72143">
        <ele>65</ele>
        <time>2021-03-14T14:56:39.000Z</time>
      </trkpt>
      <trkpt lat="47.19423" lon="-1.72125">
        <ele>64</ele>
        <time>2021-03-14T14:56:41.000Z</time>
      </trkpt>
      <trkpt lat="47.19416" lon="-1.72109">
        <ele>63</ele>
        <time>2021-03-14T14:56:43.000Z</time>
      </trkpt>
      <trkpt lat="47.19408" lon="-1.72092">
        <ele>63</ele>
        <time>2021-03-14T14:56:45.000Z</time>
      </trkpt>
      <trkpt lat="47.19399" lon="-1.72074">
        <ele>63</ele>
        <time>2021-03-14T14:56:47.000Z</time>
      </trkpt>
      <trkpt lat="47.19391" lon="-1.72056">
        <ele>63</ele>
        <time>2021-03-14T14:56:49.000Z</time>
      </trkpt>
      <trkpt lat="47.19384" lon="-1.72038">
        <ele>63</ele>
        <time>2021-03-14T14:56:51.000Z</time>
      </trkpt>
      <trkpt lat="47.19377" lon="-1.72023">
        <ele>64</ele>
        <time>2021-03-14T14:56:53.000Z</time>
      </trkpt>
      <trkpt lat="47.19369" lon="-1.72008">
        <ele>64</ele>
        <time>2021-03-14T14:56:55.000Z</time>
      </trkpt>
      <trkpt lat="47.19362" lon="-1.71991">
        <ele>65</ele>
        <time>2021-03-14T14:56:57.000Z</time>
      </trkpt>
      <trkpt lat="47.19354" lon="-1.71974">
        <ele>65</ele>
        <time>2021-03-14T14:56:59.000Z</time>
      </trkpt>
      <trkpt lat="47.19347" lon="-1.71956">
        <ele>66</ele>
        <time>2021-03-14T14:57:01.000Z</time>
      </trkpt>
      <trkpt lat="47.19341" lon="-1.71936">
        <ele>66</ele>
        <time>2021-03-14T14:57:03.000Z</time>
      </trkpt>
      <trkpt lat="47.19334" lon="-1.71917">
        <ele>66</ele>
        <time>2021-03-14T14:57:05.000Z</time>
      </trkpt>
      <trkpt lat="47.19328" lon="-1.71899">
        <ele>67</ele>
        <time>2021-03-14T14:57:07.000Z</time>
      </trkpt>
      <trkpt lat="47.19323" lon="-1.7188">
        <ele>67</ele>
        <time>2021-03-14T14:57:09.000Z</time>
      </trkpt>
      <trkpt lat="47.19317" lon="-1.71863">
        <ele>68</ele>
        <time>2021-03-14T14:57:11.000Z</time>
      </trkpt>
      <trkpt lat="47.19311" lon="-1.71845">
        <ele>68</ele>
        <time>2021-03-14T14:57:13.000Z</time>
      </trkpt>
      <trkpt lat="47.19305" lon="-1.71829">
        <ele>68</ele>
        <time>2021-03-14T14:57:15.000Z</time>
      </trkpt>
      <trkpt lat="47.193" lon="-1.71812">
        <ele>68</ele>
        <time>2021-03-14T14:57:17.000Z</time>
      </trkpt>
      <trkpt lat="47.19295" lon="-1.71794">
        <ele>68</ele>
        <time>2021-03-14T14:57:19.000Z</time>
      </trkpt>
      <trkpt lat="47.19289" lon="-1.71777">
        <ele>68</ele>
        <time>2021-03-14T14:57:21.000Z</time>
      </trkpt>
      <trkpt lat="47.19284" lon="-1.71761">
        <ele>69</ele>
        <time>2021-03-14T14:57:23.000Z</time>
      </trkpt>
      <trkpt lat="47.19279" lon="-1.71745">
        <ele>69</ele>
        <time>2021-03-14T14:57:25.000Z</time>
      </trkpt>
      <trkpt lat="47.19274" lon="-1.71729">
        <ele>69</ele>
        <time>2021-03-14T14:57:27.000Z</time>
      </trkpt>
      <trkpt lat="47.19268" lon="-1.71712">
        <ele>70</ele>
        <time>2021-03-14T14:57:29.000Z</time>
      </trkpt>
      <trkpt lat="47.19263" lon="-1.71696">
        <ele>70</ele>
        <time>2021-03-14T14:57:31.000Z</time>
      </trkpt>
      <trkpt lat="47.19258" lon="-1.71679">
        <ele>71</ele>
        <time>2021-03-14T14:57:33.000Z</time>
      </trkpt>
      <trkpt lat="47.19252" lon="-1.71663">
        <ele>71</ele>
        <time>2021-03-14T14:57:35.000Z</time>
      </trkpt>
      <trkpt lat="47.19247" lon="-1.71646">
        <ele>72</ele>
        <time>2021-03-14T14:57:37.000Z</time>
      </trkpt>
      <trkpt lat="47.19241" lon="-1.71629">
        <ele>72</ele>
        <time>2021-03-14T14:57:39.000Z</time>
      </trkpt>
      <trkpt lat="47.19236" lon="-1.71613">
        <ele>72</ele>
        <time>2021-03-14T14:57:41.000Z</time>
      </trkpt>
      <trkpt lat="47.19232" lon="-1.71598">
        <ele>72</ele>
        <time>2021-03-14T14:57:43.000Z</time>
      </trkpt>
      <trkpt lat="47.19226" lon="-1.71584">
        <ele>72</ele>
        <time>2021-03-14T14:57:45.000Z</time>
      </trkpt>
      <trkpt lat="47.1922" lon="-1.71569">
        <ele>72</ele>
        <time>2021-03-14T14:57:47.000Z</time>
      </trkpt>
      <trkpt lat="47.19216" lon="-1.71553">
        <ele>72</ele>
        <time>2021-03-14T14:57:49.000Z</time>
      </trkpt>
      <trkpt lat="47.19211" lon="-1.71537">
        <ele>72</ele>
        <time>2021-03-14T14:57:51.000Z</time>
      </trkpt>
      <trkpt lat="47.19206" lon="-1.71521">
        <ele>73</ele>
        <time>2021-03-14T14:57:53.000Z</time>
      </trkpt>
      <trkpt lat="47.192" lon="-1.71505">
        <ele>73</ele>
        <time>2021-03-14T14:57:55.000Z</time>
      </trkpt>
      <trkpt lat="47.19196" lon="-1.71488">
        <ele>73</ele>
        <time>2021-03-14T14:57:57.000Z</time>
      </trkpt>
      <trkpt lat="47.19191" lon="-1.71472">
        <ele>73</ele>
        <time>2021-03-14T14:57:59.000Z</time>
      </trkpt>
      <trkpt lat="47.19187" lon="-1.71455">
        <ele>73</ele>
        <time>2021-03-14T14:58:01.000Z</time>
      </trkpt>
      <trkpt lat="47.19182" lon="-1.71437">
        <ele>73</ele>
        <time>2021-03-14T14:58:03.000Z</time>
      </trkpt>
      <trkpt lat="47.19177" lon="-1.71419">
        <ele>72</ele>
        <time>2021-03-14T14:58:05.000Z</time>
      </trkpt>
      <trkpt lat="47.19173" lon="-1.71402">
        <ele>72</ele>
        <time>2021-03-14T14:58:07.000Z</time>
      </trkpt>
      <trkpt lat="47.19169" lon="-1.71385">
        <ele>72</ele>
        <time>2021-03-14T14:58:09.000Z</time>
      </trkpt>
      <trkpt lat="47.19164" lon="-1.71368">
        <ele>72</ele>
        <time>2021-03-14T14:58:11.000Z</time>
      </trkpt>
      <trkpt lat="47.19159" lon="-1.71349">
        <ele>72</ele>
        <time>2021-03-14T14:58:13.000Z</time>
      </trkpt>
      <trkpt lat="47.19155" lon="-1.71331">
        <ele>72</ele>
        <time>2021-03-14T14:58:15.000Z</time>
      </trkpt>
      <trkpt lat="47.19151" lon="-1.71313">
        <ele>72</ele>
        <time>2021-03-14T14:58:17.000Z</time>
      </trkpt>
      <trkpt lat="47.19147" lon="-1.71295">
        <ele>72</ele>
        <time>2021-03-14T14:58:19.000Z</time>
      </trkpt>
      <trkpt lat="47.19144" lon="-1.71275">
        <ele>72</ele>
        <time>2021-03-14T14:58:21.000Z</time>
      </trkpt>
      <trkpt lat="47.19143" lon="-1.71255">
        <ele>72</ele>
        <time>2021-03-14T14:58:23.000Z</time>
      </trkpt>
      <trkpt lat="47.19141" lon="-1.71234">
        <ele>72</ele>
        <time>2021-03-14T14:58:25.000Z</time>
      </trkpt>
      <trkpt lat="47.19139" lon="-1.71213">
        <ele>72</ele>
        <time>2021-03-14T14:58:27.000Z</time>
      </trkpt>
      <trkpt lat="47.19137" lon="-1.71192">
        <ele>72</ele>
        <time>2021-03-14T14:58:29.000Z</time>
      </trkpt>
      <trkpt lat="47.19135" lon="-1.71171">
        <ele>72</ele>
        <time>2021-03-14T14:58:31.000Z</time>
      </trkpt>
      <trkpt lat="47.19132" lon="-1.71151">
        <ele>72</ele>
        <time>2021-03-14T14:58:33.000Z</time>
      </trkpt>
      <trkpt lat="47.19131" lon="-1.71131">
        <ele>72</ele>
        <time>2021-03-14T14:58:35.000Z</time>
      </trkpt>
      <trkpt lat="47.19131" lon="-1.71111">
        <ele>72</ele>
        <time>2021-03-14T14:58:37.000Z</time>
      </trkpt>
      <trkpt lat="47.19129" lon="-1.7109">
        <ele>72</ele>
        <time>2021-03-14T14:58:39.000Z</time>
      </trkpt>
      <trkpt lat="47.19128" lon="-1.71071">
        <ele>73</ele>
        <time>2021-03-14T14:58:41.000Z</time>
      </trkpt>
      <trkpt lat="47.19126" lon="-1.7105">
        <ele>73</ele>
        <time>2021-03-14T14:58:43.000Z</time>
      </trkpt>
      <trkpt lat="47.19125" lon="-1.7103">
        <ele>73</ele>
        <time>2021-03-14T14:58:45.000Z</time>
      </trkpt>
      <trkpt lat="47.19125" lon="-1.71011">
        <ele>72</ele>
        <time>2021-03-14T14:58:47.000Z</time>
      </trkpt>
      <trkpt lat="47.19125" lon="-1.70991">
        <ele>72</ele>
        <time>2021-03-14T14:58:49.000Z</time>
      </trkpt>
      <trkpt lat="47.19127" lon="-1.7097">
        <ele>72</ele>
        <time>2021-03-14T14:58:51.000Z</time>
      </trkpt>
      <trkpt lat="47.19129" lon="-1.70949">
        <ele>72</ele>
        <time>2021-03-14T14:58:53.000Z</time>
      </trkpt>
      <trkpt lat="47.19132" lon="-1.70929">
        <ele>72</ele>
        <time>2021-03-14T14:58:55.000Z</time>
      </trkpt>
      <trkpt lat="47.19133" lon="-1.70908">
        <ele>72</ele>
        <time>2021-03-14T14:58:57.000Z</time>
      </trkpt>
      <trkpt lat="47.19133" lon="-1.70887">
        <ele>72</ele>
        <time>2021-03-14T14:58:59.000Z</time>
      </trkpt>
      <trkpt lat="47.19132" lon="-1.70867">
        <ele>71</ele>
        <time>2021-03-14T14:59:01.000Z</time>
      </trkpt>
      <trkpt lat="47.19132" lon="-1.70846">
        <ele>71</ele>
        <time>2021-03-14T14:59:03.000Z</time>
      </trkpt>
      <trkpt lat="47.19131" lon="-1.70825">
        <ele>71</ele>
        <time>2021-03-14T14:59:05.000Z</time>
      </trkpt>
      <trkpt lat="47.1913" lon="-1.70805">
        <ele>71</ele>
        <time>2021-03-14T14:59:07.000Z</time>
      </trkpt>
      <trkpt lat="47.19129" lon="-1.70785">
        <ele>71</ele>
        <time>2021-03-14T14:59:09.000Z</time>
      </trkpt>
      <trkpt lat="47.19125" lon="-1.70766">
        <ele>71</ele>
        <time>2021-03-14T14:59:11.000Z</time>
      </trkpt>
      <trkpt lat="47.19123" lon="-1.70745">
        <ele>71</ele>
        <time>2021-03-14T14:59:13.000Z</time>
      </trkpt>
      <trkpt lat="47.19123" lon="-1.70725">
        <ele>71</ele>
        <time>2021-03-14T14:59:15.000Z</time>
      </trkpt>
      <trkpt lat="47.1912" lon="-1.70705">
        <ele>71</ele>
        <time>2021-03-14T14:59:17.000Z</time>
      </trkpt>
      <trkpt lat="47.19116" lon="-1.70687">
        <ele>71</ele>
        <time>2021-03-14T14:59:19.000Z</time>
      </trkpt>
      <trkpt lat="47.19112" lon="-1.70667">
        <ele>71</ele>
        <time>2021-03-14T14:59:21.000Z</time>
      </trkpt>
      <trkpt lat="47.19109" lon="-1.70647">
        <ele>71</ele>
        <time>2021-03-14T14:59:23.000Z</time>
      </trkpt>
      <trkpt lat="47.19106" lon="-1.70627">
        <ele>71</ele>
        <time>2021-03-14T14:59:25.000Z</time>
      </trkpt>
      <trkpt lat="47.19104" lon="-1.70607">
        <ele>70</ele>
        <time>2021-03-14T14:59:27.000Z</time>
      </trkpt>
      <trkpt lat="47.19103" lon="-1.70586">
        <ele>70</ele>
        <time>2021-03-14T14:59:29.000Z</time>
      </trkpt>
      <trkpt lat="47.19101" lon="-1.70565">
        <ele>69</ele>
        <time>2021-03-14T14:59:31.000Z</time>
      </trkpt>
      <trkpt lat="47.19098" lon="-1.70544">
        <ele>69</ele>
        <time>2021-03-14T14:59:33.000Z</time>
      </trkpt>
      <trkpt lat="47.19096" lon="-1.70523">
        <ele>69</ele>
        <time>2021-03-14T14:59:35.000Z</time>
      </trkpt>
      <trkpt lat="47.19092" lon="-1.70501">
        <ele>68</ele>
        <time>2021-03-14T14:59:37.000Z</time>
      </trkpt>
      <trkpt lat="47.19089" lon="-1.70479">
        <ele>67</ele>
        <time>2021-03-14T14:59:39.000Z</time>
      </trkpt>
      <trkpt lat="47.19083" lon="-1.70455">
        <ele>67</ele>
        <time>2021-03-14T14:59:41.000Z</time>
      </trkpt>
      <trkpt lat="47.19076" lon="-1.70431">
        <ele>66</ele>
        <time>2021-03-14T14:59:43.000Z</time>
      </trkpt>
      <trkpt lat="47.19073" lon="-1.70419">
        <ele>65</ele>
        <time>2021-03-14T14:59:44.000Z</time>
      </trkpt>
      <trkpt lat="47.1907" lon="-1.70406">
        <ele>65</ele>
        <time>2021-03-14T14:59:45.000Z</time>
      </trkpt>
      <trkpt lat="47.19068" lon="-1.70393">
        <ele>65</ele>
        <time>2021-03-14T14:59:46.000Z</time>
      </trkpt>
      <trkpt lat="47.19067" lon="-1.70379">
        <ele>64</ele>
        <time>2021-03-14T14:59:47.000Z</time>
      </trkpt>
      <trkpt lat="47.19067" lon="-1.70365">
        <ele>64</ele>
        <time>2021-03-14T14:59:48.000Z</time>
      </trkpt>
      <trkpt lat="47.19067" lon="-1.7035">
        <ele>64</ele>
        <time>2021-03-14T14:59:49.000Z</time>
      </trkpt>
      <trkpt lat="47.19067" lon="-1.70335">
        <ele>63</ele>
        <time>2021-03-14T14:59:50.000Z</time>
      </trkpt>
      <trkpt lat="47.19067" lon="-1.7032">
        <ele>62</ele>
        <time>2021-03-14T14:59:51.000Z</time>
      </trkpt>
      <trkpt lat="47.19067" lon="-1.70304">
        <ele>61</ele>
        <time>2021-03-14T14:59:52.000Z</time>
      </trkpt>
      <trkpt lat="47.19065" lon="-1.70288">
        <ele>61</ele>
        <time>2021-03-14T14:59:53.000Z</time>
      </trkpt>
      <trkpt lat="47.19064" lon="-1.70271">
        <ele>60</ele>
        <time>2021-03-14T14:59:54.000Z</time>
      </trkpt>
      <trkpt lat="47.19062" lon="-1.70255">
        <ele>59</ele>
        <time>2021-03-14T14:59:55.000Z</time>
      </trkpt>
      <trkpt lat="47.1906" lon="-1.70238">
        <ele>58</ele>
        <time>2021-03-14T14:59:56.000Z</time>
      </trkpt>
      <trkpt lat="47.19058" lon="-1.70221">
        <ele>58</ele>
        <time>2021-03-14T14:59:57.000Z</time>
      </trkpt>
      <trkpt lat="47.19056" lon="-1.70205">
        <ele>58</ele>
        <time>2021-03-14T14:59:58.000Z</time>
      </trkpt>
      <trkpt lat="47.19055" lon="-1.70189">
        <ele>57</ele>
        <time>2021-03-14T14:59:59.000Z</time>
      </trkpt>
      <trkpt lat="47.19055" lon="-1.70173">
        <ele>57</ele>
        <time>2021-03-14T15:00:00.000Z</time>
      </trkpt>
      <trkpt lat="47.19057" lon="-1.70156">
        <ele>56</ele>
        <time>2021-03-14T15:00:01.000Z</time>
      </trkpt>
      <trkpt lat="47.19061" lon="-1.70142">
        <ele>56</ele>
        <time>2021-03-14T15:00:02.000Z</time>
      </trkpt>
      <trkpt lat="47.19067" lon="-1.70129">
        <ele>55</ele>
        <time>2021-03-14T15:00:03.000Z</time>
      </trkpt>
      <trkpt lat="47.19074" lon="-1.70117">
        <ele>55</ele>
        <time>2021-03-14T15:00:04.000Z</time>
      </trkpt>
      <trkpt lat="47.1908" lon="-1.70105">
        <ele>55</ele>
        <time>2021-03-14T15:00:05.000Z</time>
      </trkpt>
      <trkpt lat="47.19088" lon="-1.70094">
        <ele>54</ele>
        <time>2021-03-14T15:00:06.000Z</time>
      </trkpt>
      <trkpt lat="47.19094" lon="-1.70084">
        <ele>54</ele>
        <time>2021-03-14T15:00:07.000Z</time>
      </trkpt>
      <trkpt lat="47.191" lon="-1.70073">
        <ele>54</ele>
        <time>2021-03-14T15:00:08.000Z</time>
      </trkpt>
      <trkpt lat="47.19106" lon="-1.70062">
        <ele>54</ele>
        <time>2021-03-14T15:00:09.000Z</time>
      </trkpt>
      <trkpt lat="47.19112" lon="-1.70051">
        <ele>54</ele>
        <time>2021-03-14T15:00:10.000Z</time>
      </trkpt>
      <trkpt lat="47.19118" lon="-1.70041">
        <ele>54</ele>
        <time>2021-03-14T15:00:11.000Z</time>
      </trkpt>
      <trkpt lat="47.19125" lon="-1.7003">
        <ele>55</ele>
        <time>2021-03-14T15:00:12.000Z</time>
      </trkpt>
      <trkpt lat="47.19131" lon="-1.7002">
        <ele>54</ele>
        <time>2021-03-14T15:00:13.000Z</time>
      </trkpt>
      <trkpt lat="47.19137" lon="-1.7001">
        <ele>54</ele>
        <time>2021-03-14T15:00:14.000Z</time>
      </trkpt>
      <trkpt lat="47.19149" lon="-1.69991">
        <ele>54</ele>
        <time>2021-03-14T15:00:16.000Z</time>
      </trkpt>
      <trkpt lat="47.19159" lon="-1.69972">
        <ele>54</ele>
        <time>2021-03-14T15:00:18.000Z</time>
      </trkpt>
      <trkpt lat="47.19168" lon="-1.69952">
        <ele>55</ele>
        <time>2021-03-14T15:00:20.000Z</time>
      </trkpt>
      <trkpt lat="47.19174" lon="-1.69931">
        <ele>54</ele>
        <time>2021-03-14T15:00:22.000Z</time>
      </trkpt>
      <trkpt lat="47.19177" lon="-1.69909">
        <ele>54</ele>
        <time>2021-03-14T15:00:24.000Z</time>
      </trkpt>
      <trkpt lat="47.1918" lon="-1.69887">
        <ele>54</ele>
        <time>2021-03-14T15:00:26.000Z</time>
      </trkpt>
      <trkpt lat="47.19182" lon="-1.69864">
        <ele>54</ele>
        <time>2021-03-14T15:00:28.000Z</time>
      </trkpt>
      <trkpt lat="47.19184" lon="-1.69842">
        <ele>53</ele>
        <time>2021-03-14T15:00:30.000Z</time>
      </trkpt>
      <trkpt lat="47.19186" lon="-1.69818">
        <ele>53</ele>
        <time>2021-03-14T15:00:32.000Z</time>
      </trkpt>
      <trkpt lat="47.19189" lon="-1.69796">
        <ele>53</ele>
        <time>2021-03-14T15:00:34.000Z</time>
      </trkpt>
      <trkpt lat="47.19191" lon="-1.69773">
        <ele>53</ele>
        <time>2021-03-14T15:00:36.000Z</time>
      </trkpt>
      <trkpt lat="47.19193" lon="-1.6975">
        <ele>53</ele>
        <time>2021-03-14T15:00:38.000Z</time>
      </trkpt>
      <trkpt lat="47.19196" lon="-1.69728">
        <ele>52</ele>
        <time>2021-03-14T15:00:40.000Z</time>
      </trkpt>
      <trkpt lat="47.19198" lon="-1.69705">
        <ele>52</ele>
        <time>2021-03-14T15:00:42.000Z</time>
      </trkpt>
      <trkpt lat="47.192" lon="-1.69682">
        <ele>52</ele>
        <time>2021-03-14T15:00:44.000Z</time>
      </trkpt>
      <trkpt lat="47.19201" lon="-1.6966">
        <ele>52</ele>
        <time>2021-03-14T15:00:46.000Z</time>
      </trkpt>
      <trkpt lat="47.19198" lon="-1.69638">
        <ele>52</ele>
        <time>2021-03-14T15:00:48.000Z</time>
      </trkpt>
      <trkpt lat="47.19192" lon="-1.69618">
        <ele>53</ele>
        <time>2021-03-14T15:00:50.000Z</time>
      </trkpt>
      <trkpt lat="47.19184" lon="-1.69601">
        <ele>54</ele>
        <time>2021-03-14T15:00:52.000Z</time>
      </trkpt>
      <trkpt lat="47.19179" lon="-1.69584">
        <ele>55</ele>
        <time>2021-03-14T15:00:54.000Z</time>
      </trkpt>
      <trkpt lat="47.19174" lon="-1.69568">
        <ele>56</ele>
        <time>2021-03-14T15:00:56.000Z</time>
      </trkpt>
      <trkpt lat="47.19166" lon="-1.69554">
        <ele>56</ele>
        <time>2021-03-14T15:00:58.000Z</time>
      </trkpt>
      <trkpt lat="47.19158" lon="-1.69541">
        <ele>57</ele>
        <time>2021-03-14T15:01:00.000Z</time>
      </trkpt>
      <trkpt lat="47.1915" lon="-1.69529">
        <ele>58</ele>
        <time>2021-03-14T15:01:02.000Z</time>
      </trkpt>
      <trkpt lat="47.19142" lon="-1.69517">
        <ele>58</ele>
        <time>2021-03-14T15:01:04.000Z</time>
      </trkpt>
      <trkpt lat="47.19134" lon="-1.69505">
        <ele>59</ele>
        <time>2021-03-14T15:01:06.000Z</time>
      </trkpt>
      <trkpt lat="47.19126" lon="-1.69493">
        <ele>59</ele>
        <time>2021-03-14T15:01:08.000Z</time>
      </trkpt>
      <trkpt lat="47.19119" lon="-1.6948">
        <ele>59</ele>
        <time>2021-03-14T15:01:10.000Z</time>
      </trkpt>
      <trkpt lat="47.19111" lon="-1.69468">
        <ele>60</ele>
        <time>2021-03-14T15:01:12.000Z</time>
      </trkpt>
      <trkpt lat="47.19103" lon="-1.69456">
        <ele>61</ele>
        <time>2021-03-14T15:01:14.000Z</time>
      </trkpt>
      <trkpt lat="47.19096" lon="-1.69445">
        <ele>62</ele>
        <time>2021-03-14T15:01:16.000Z</time>
      </trkpt>
      <trkpt lat="47.19089" lon="-1.69433">
        <ele>62</ele>
        <time>2021-03-14T15:01:18.000Z</time>
      </trkpt>
      <trkpt lat="47.19082" lon="-1.69421">
        <ele>63</ele>
        <time>2021-03-14T15:01:20.000Z</time>
      </trkpt>
      <trkpt lat="47.19074" lon="-1.69409">
        <ele>63</ele>
        <time>2021-03-14T15:01:22.000Z</time>
      </trkpt>
      <trkpt lat="47.19066" lon="-1.69399">
        <ele>64</ele>
        <time>2021-03-14T15:01:24.000Z</time>
      </trkpt>
      <trkpt lat="47.19059" lon="-1.69388">
        <ele>64</ele>
        <time>2021-03-14T15:01:26.000Z</time>
      </trkpt>
      <trkpt lat="47.19052" lon="-1.69377">
        <ele>65</ele>
        <time>2021-03-14T15:01:28.000Z</time>
      </trkpt>
      <trkpt lat="47.19044" lon="-1.69365">
        <ele>65</ele>
        <time>2021-03-14T15:01:30.000Z</time>
      </trkpt>
      <trkpt lat="47.19037" lon="-1.69354">
        <ele>65</ele>
        <time>2021-03-14T15:01:32.000Z</time>
      </trkpt>
      <trkpt lat="47.19029" lon="-1.69343">
        <ele>66</ele>
        <time>2021-03-14T15:01:34.000Z</time>
      </trkpt>
      <trkpt lat="47.19022" lon="-1.69331">
        <ele>67</ele>
        <time>2021-03-14T15:01:36.000Z</time>
      </trkpt>
      <trkpt lat="47.19017" lon="-1.6932">
        <ele>67</ele>
        <time>2021-03-14T15:01:38.000Z</time>
      </trkpt>
      <trkpt lat="47.19012" lon="-1.69307">
        <ele>68</ele>
        <time>2021-03-14T15:01:40.000Z</time>
      </trkpt>
      <trkpt lat="47.19007" lon="-1.69294">
        <ele>68</ele>
        <time>2021-03-14T15:01:42.000Z</time>
      </trkpt>
      <trkpt lat="47.19003" lon="-1.69281">
        <ele>69</ele>
        <time>2021-03-14T15:01:44.000Z</time>
      </trkpt>
      <trkpt lat="47.18997" lon="-1.69267">
        <ele>69</ele>
        <time>2021-03-14T15:01:46.000Z</time>
      </trkpt>
      <trkpt lat="47.18992" lon="-1.69255">
        <ele>69</ele>
        <time>2021-03-14T15:01:48.000Z</time>
      </trkpt>
      <trkpt lat="47.18986" lon="-1.69241">
        <ele>70</ele>
        <time>2021-03-14T15:01:50.000Z</time>
      </trkpt>
      <trkpt lat="47.18982" lon="-1.69228">
        <ele>70</ele>
        <time>2021-03-14T15:01:52.000Z</time>
      </trkpt>
      <trkpt lat="47.18978" lon="-1.69214">
        <ele>70</ele>
        <time>2021-03-14T15:01:54.000Z</time>
      </trkpt>
      <trkpt lat="47.18974" lon="-1.692">
        <ele>71</ele>
        <time>2021-03-14T15:01:56.000Z</time>
      </trkpt>
      <trkpt lat="47.1897" lon="-1.69184">
        <ele>70</ele>
        <time>2021-03-14T15:01:58.000Z</time>
      </trkpt>
      <trkpt lat="47.18965" lon="-1.6917">
        <ele>70</ele>
        <time>2021-03-14T15:02:00.000Z</time>
      </trkpt>
      <trkpt lat="47.18958" lon="-1.69157">
        <ele>69</ele>
        <time>2021-03-14T15:02:02.000Z</time>
      </trkpt>
      <trkpt lat="47.18949" lon="-1.69143">
        <ele>69</ele>
        <time>2021-03-14T15:02:04.000Z</time>
      </trkpt>
      <trkpt lat="47.18941" lon="-1.69128">
        <ele>69</ele>
        <time>2021-03-14T15:02:06.000Z</time>
      </trkpt>
      <trkpt lat="47.18933" lon="-1.69115">
        <ele>69</ele>
        <time>2021-03-14T15:02:08.000Z</time>
      </trkpt>
      <trkpt lat="47.18925" lon="-1.69099">
        <ele>68</ele>
        <time>2021-03-14T15:02:10.000Z</time>
      </trkpt>
      <trkpt lat="47.18915" lon="-1.69084">
        <ele>68</ele>
        <time>2021-03-14T15:02:12.000Z</time>
      </trkpt>
      <trkpt lat="47.18905" lon="-1.69067">
        <ele>67</ele>
        <time>2021-03-14T15:02:14.000Z</time>
      </trkpt>
      <trkpt lat="47.18896" lon="-1.69051">
        <ele>66</ele>
        <time>2021-03-14T15:02:16.000Z</time>
      </trkpt>
      <trkpt lat="47.18886" lon="-1.69036">
        <ele>66</ele>
        <time>2021-03-14T15:02:18.000Z</time>
      </trkpt>
      <trkpt lat="47.18871" lon="-1.6903">
        <ele>66</ele>
        <time>2021-03-14T15:02:20.000Z</time>
      </trkpt>
      <trkpt lat="47.18855" lon="-1.69031">
        <ele>65</ele>
        <time>2021-03-14T15:02:22.000Z</time>
      </trkpt>
      <trkpt lat="47.1884" lon="-1.69032">
        <ele>64</ele>
        <time>2021-03-14T15:02:24.000Z</time>
      </trkpt>
      <trkpt lat="47.18831" lon="-1.69013">
        <ele>63</ele>
        <time>2021-03-14T15:02:26.000Z</time>
      </trkpt>
      <trkpt lat="47.18838" lon="-1.68993">
        <ele>64</ele>
        <time>2021-03-14T15:02:28.000Z</time>
      </trkpt>
      <trkpt lat="47.18846" lon="-1.68978">
        <ele>65</ele>
        <time>2021-03-14T15:02:30.000Z</time>
      </trkpt>
      <trkpt lat="47.18851" lon="-1.68962">
        <ele>65</ele>
        <time>2021-03-14T15:02:32.000Z</time>
      </trkpt>
      <trkpt lat="47.18854" lon="-1.68945">
        <ele>65</ele>
        <time>2021-03-14T15:02:34.000Z</time>
      </trkpt>
      <trkpt lat="47.18852" lon="-1.68925">
        <ele>65</ele>
        <time>2021-03-14T15:02:36.000Z</time>
      </trkpt>
      <trkpt lat="47.1885" lon="-1.68907">
        <ele>65</ele>
        <time>2021-03-14T15:02:38.000Z</time>
      </trkpt>
      <trkpt lat="47.18845" lon="-1.68888">
        <ele>66</ele>
        <time>2021-03-14T15:02:40.000Z</time>
      </trkpt>
      <trkpt lat="47.18839" lon="-1.6887">
        <ele>67</ele>
        <time>2021-03-14T15:02:42.000Z</time>
      </trkpt>
      <trkpt lat="47.18833" lon="-1.68852">
        <ele>67</ele>
        <time>2021-03-14T15:02:44.000Z</time>
      </trkpt>
      <trkpt lat="47.18827" lon="-1.68835">
        <ele>67</ele>
        <time>2021-03-14T15:02:46.000Z</time>
      </trkpt>
      <trkpt lat="47.18821" lon="-1.68818">
        <ele>67</ele>
        <time>2021-03-14T15:02:48.000Z</time>
      </trkpt>
      <trkpt lat="47.18815" lon="-1.68801">
        <ele>68</ele>
        <time>2021-03-14T15:02:50.000Z</time>
      </trkpt>
      <trkpt lat="47.18809" lon="-1.68784">
        <ele>68</ele>
        <time>2021-03-14T15:02:52.000Z</time>
      </trkpt>
      <trkpt lat="47.18802" lon="-1.68768">
        <ele>68</ele>
        <time>2021-03-14T15:02:54.000Z</time>
      </trkpt>
      <trkpt lat="47.18794" lon="-1.68754">
        <ele>67</ele>
        <time>2021-03-14T15:02:56.000Z</time>
      </trkpt>
      <trkpt lat="47.18786" lon="-1.6874">
        <ele>67</ele>
        <time>2021-03-14T15:02:58.000Z</time>
      </trkpt>
      <trkpt lat="47.18777" lon="-1.68726">
        <ele>68</ele>
        <time>2021-03-14T15:03:00.000Z</time>
      </trkpt>
      <trkpt lat="47.18767" lon="-1.68712">
        <ele>68</ele>
        <time>2021-03-14T15:03:02.000Z</time>
      </trkpt>
      <trkpt lat="47.1876" lon="-1.68697">
        <ele>69</ele>
        <time>2021-03-14T15:03:04.000Z</time>
      </trkpt>
      <trkpt lat="47.18753" lon="-1.68682">
        <ele>69</ele>
        <time>2021-03-14T15:03:06.000Z</time>
      </trkpt>
      <trkpt lat="47.18744" lon="-1.68667">
        <ele>70</ele>
        <time>2021-03-14T15:03:08.000Z</time>
      </trkpt>
      <trkpt lat="47.18736" lon="-1.68652">
        <ele>70</ele>
        <time>2021-03-14T15:03:10.000Z</time>
      </trkpt>
      <trkpt lat="47.18728" lon="-1.68636">
        <ele>70</ele>
        <time>2021-03-14T15:03:12.000Z</time>
      </trkpt>
      <trkpt lat="47.18721" lon="-1.68621">
        <ele>70</ele>
        <time>2021-03-14T15:03:14.000Z</time>
      </trkpt>
      <trkpt lat="47.18712" lon="-1.68605">
        <ele>70</ele>
        <time>2021-03-14T15:03:16.000Z</time>
      </trkpt>
      <trkpt lat="47.18704" lon="-1.68591">
        <ele>70</ele>
        <time>2021-03-14T15:03:18.000Z</time>
      </trkpt>
      <trkpt lat="47.18695" lon="-1.68579">
        <ele>70</ele>
        <time>2021-03-14T15:03:20.000Z</time>
      </trkpt>
      <trkpt lat="47.18687" lon="-1.68565">
        <ele>70</ele>
        <time>2021-03-14T15:03:22.000Z</time>
      </trkpt>
      <trkpt lat="47.18682" lon="-1.68547">
        <ele>70</ele>
        <time>2021-03-14T15:03:24.000Z</time>
      </trkpt>
      <trkpt lat="47.18673" lon="-1.68532">
        <ele>70</ele>
        <time>2021-03-14T15:03:26.000Z</time>
      </trkpt>
      <trkpt lat="47.18665" lon="-1.68517">
        <ele>70</ele>
        <time>2021-03-14T15:03:28.000Z</time>
      </trkpt>
      <trkpt lat="47.18657" lon="-1.685">
        <ele>70</ele>
        <time>2021-03-14T15:03:30.000Z</time>
      </trkpt>
      <trkpt lat="47.18651" lon="-1.68483">
        <ele>70</ele>
        <time>2021-03-14T15:03:32.000Z</time>
      </trkpt>
      <trkpt lat="47.18646" lon="-1.68465">
        <ele>71</ele>
        <time>2021-03-14T15:03:34.000Z</time>
      </trkpt>
      <trkpt lat="47.18641" lon="-1.68448">
        <ele>71</ele>
        <time>2021-03-14T15:03:36.000Z</time>
      </trkpt>
      <trkpt lat="47.18637" lon="-1.6843">
        <ele>71</ele>
        <time>2021-03-14T15:03:38.000Z</time>
      </trkpt>
      <trkpt lat="47.18632" lon="-1.68412">
        <ele>71</ele>
        <time>2021-03-14T15:03:40.000Z</time>
      </trkpt>
      <trkpt lat="47.18628" lon="-1.68395">
        <ele>71</ele>
        <time>2021-03-14T15:03:42.000Z</time>
      </trkpt>
      <trkpt lat="47.18623" lon="-1.68377">
        <ele>71</ele>
        <time>2021-03-14T15:03:44.000Z</time>
      </trkpt>
      <trkpt lat="47.18619" lon="-1.68359">
        <ele>71</ele>
        <time>2021-03-14T15:03:46.000Z</time>
      </trkpt>
      <trkpt lat="47.18613" lon="-1.6834">
        <ele>71</ele>
        <time>2021-03-14T15:03:48.000Z</time>
      </trkpt>
      <trkpt lat="47.18609" lon="-1.68322">
        <ele>72</ele>
        <time>2021-03-14T15:03:50.000Z</time>
      </trkpt>
      <trkpt lat="47.18605" lon="-1.68304">
        <ele>72</ele>
        <time>2021-03-14T15:03:52.000Z</time>
      </trkpt>
      <trkpt lat="47.186" lon="-1.68286">
        <ele>73</ele>
        <time>2021-03-14T15:03:54.000Z</time>
      </trkpt>
      <trkpt lat="47.18596" lon="-1.68269">
        <ele>73</ele>
        <time>2021-03-14T15:03:56.000Z</time>
      </trkpt>
      <trkpt lat="47.18592" lon="-1.68252">
        <ele>73</ele>
        <time>2021-03-14T15:03:58.000Z</time>
      </trkpt>
      <trkpt lat="47.18587" lon="-1.68235">
        <ele>73</ele>
        <time>2021-03-14T15:04:00.000Z</time>
      </trkpt>
      <trkpt lat="47.18582" lon="-1.68218">
        <ele>74</ele>
        <time>2021-03-14T15:04:02.000Z</time>
      </trkpt>
      <trkpt lat="47.18578" lon="-1.682">
        <ele>73</ele>
        <time>2021-03-14T15:04:04.000Z</time>
      </trkpt>
      <trkpt lat="47.18575" lon="-1.68183">
        <ele>73</ele>
        <time>2021-03-14T15:04:06.000Z</time>
      </trkpt>
      <trkpt lat="47.1857" lon="-1.68166">
        <ele>74</ele>
        <time>2021-03-14T15:04:08.000Z</time>
      </trkpt>
      <trkpt lat="47.18566" lon="-1.68149">
        <ele>74</ele>
        <time>2021-03-14T15:04:10.000Z</time>
      </trkpt>
      <trkpt lat="47.18562" lon="-1.68132">
        <ele>74</ele>
        <time>2021-03-14T15:04:12.000Z</time>
      </trkpt>
      <trkpt lat="47.1856" lon="-1.68114">
        <ele>74</ele>
        <time>2021-03-14T15:04:14.000Z</time>
      </trkpt>
      <trkpt lat="47.18558" lon="-1.68096">
        <ele>74</ele>
        <time>2021-03-14T15:04:16.000Z</time>
      </trkpt>
      <trkpt lat="47.18555" lon="-1.68079">
        <ele>74</ele>
        <time>2021-03-14T15:04:18.000Z</time>
      </trkpt>
      <trkpt lat="47.18552" lon="-1.68061">
        <ele>74</ele>
        <time>2021-03-14T15:04:20.000Z</time>
      </trkpt>
      <trkpt lat="47.1855" lon="-1.68043">
        <ele>74</ele>
        <time>2021-03-14T15:04:22.000Z</time>
      </trkpt>
      <trkpt lat="47.18549" lon="-1.68025">
        <ele>75</ele>
        <time>2021-03-14T15:04:24.000Z</time>
      </trkpt>
      <trkpt lat="47.18547" lon="-1.68006">
        <ele>75</ele>
        <time>2021-03-14T15:04:26.000Z</time>
      </trkpt>
      <trkpt lat="47.18545" lon="-1.67987">
        <ele>75</ele>
        <time>2021-03-14T15:04:28.000Z</time>
      </trkpt>
      <trkpt lat="47.18542" lon="-1.67968">
        <ele>76</ele>
        <time>2021-03-14T15:04:30.000Z</time>
      </trkpt>
      <trkpt lat="47.1854" lon="-1.67949">
        <ele>76</ele>
        <time>2021-03-14T15:04:32.000Z</time>
      </trkpt>
      <trkpt lat="47.18538" lon="-1.67931">
        <ele>76</ele>
        <time>2021-03-14T15:04:34.000Z</time>
      </trkpt>
      <trkpt lat="47.18537" lon="-1.67913">
        <ele>76</ele>
        <time>2021-03-14T15:04:36.000Z</time>
      </trkpt>
      <trkpt lat="47.18537" lon="-1.67893">
        <ele>76</ele>
        <time>2021-03-14T15:04:38.000Z</time>
      </trkpt>
      <trkpt lat="47.18539" lon="-1.67875">
        <ele>76</ele>
        <time>2021-03-14T15:04:40.000Z</time>
      </trkpt>
      <trkpt lat="47.18542" lon="-1.67857">
        <ele>77</ele>
        <time>2021-03-14T15:04:42.000Z</time>
      </trkpt>
      <trkpt lat="47.18545" lon="-1.67839">
        <ele>78</ele>
        <time>2021-03-14T15:04:44.000Z</time>
      </trkpt>
      <trkpt lat="47.18549" lon="-1.67821">
        <ele>78</ele>
        <time>2021-03-14T15:04:46.000Z</time>
      </trkpt>
      <trkpt lat="47.18553" lon="-1.67804">
        <ele>79</ele>
        <time>2021-03-14T15:04:48.000Z</time>
      </trkpt>
      <trkpt lat="47.18557" lon="-1.67787">
        <ele>79</ele>
        <time>2021-03-14T15:04:50.000Z</time>
      </trkpt>
      <trkpt lat="47.1856" lon="-1.6777">
        <ele>79</ele>
        <time>2021-03-14T15:04:52.000Z</time>
      </trkpt>
      <trkpt lat="47.18563" lon="-1.67753">
        <ele>79</ele>
        <time>2021-03-14T15:04:54.000Z</time>
      </trkpt>
      <trkpt lat="47.18567" lon="-1.67736">
        <ele>80</ele>
        <time>2021-03-14T15:04:56.000Z</time>
      </trkpt>
      <trkpt lat="47.1857" lon="-1.67719">
        <ele>80</ele>
        <time>2021-03-14T15:04:58.000Z</time>
      </trkpt>
      <trkpt lat="47.18574" lon="-1.67702">
        <ele>80</ele>
        <time>2021-03-14T15:05:00.000Z</time>
      </trkpt>
      <trkpt lat="47.18577" lon="-1.67686">
        <ele>81</ele>
        <time>2021-03-14T15:05:02.000Z</time>
      </trkpt>
      <trkpt lat="47.18581" lon="-1.67669">
        <ele>81</ele>
        <time>2021-03-14T15:05:04.000Z</time>
      </trkpt>
      <trkpt lat="47.18583" lon="-1.67653">
        <ele>82</ele>
        <time>2021-03-14T15:05:06.000Z</time>
      </trkpt>
      <trkpt lat="47.18583" lon="-1.67635">
        <ele>82</ele>
        <time>2021-03-14T15:05:08.000Z</time>
      </trkpt>
      <trkpt lat="47.1858" lon="-1.67618">
        <ele>82</ele>
        <time>2021-03-14T15:05:10.000Z</time>
      </trkpt>
      <trkpt lat="47.18576" lon="-1.67601">
        <ele>81</ele>
        <time>2021-03-14T15:05:12.000Z</time>
      </trkpt>
      <trkpt lat="47.18571" lon="-1.67585">
        <ele>82</ele>
        <time>2021-03-14T15:05:14.000Z</time>
      </trkpt>
      <trkpt lat="47.18566" lon="-1.67568">
        <ele>81</ele>
        <time>2021-03-14T15:05:16.000Z</time>
      </trkpt>
      <trkpt lat="47.18562" lon="-1.67551">
        <ele>81</ele>
        <time>2021-03-14T15:05:18.000Z</time>
      </trkpt>
      <trkpt lat="47.18557" lon="-1.67534">
        <ele>81</ele>
        <time>2021-03-14T15:05:20.000Z</time>
      </trkpt>
      <trkpt lat="47.18553" lon="-1.67517">
        <ele>81</ele>
        <time>2021-03-14T15:05:22.000Z</time>
      </trkpt>
      <trkpt lat="47.18549" lon="-1.675">
        <ele>82</ele>
        <time>2021-03-14T15:05:24.000Z</time>
      </trkpt>
      <trkpt lat="47.18544" lon="-1.67484">
        <ele>81</ele>
        <time>2021-03-14T15:05:26.000Z</time>
      </trkpt>
      <trkpt lat="47.1854" lon="-1.67468">
        <ele>82</ele>
        <time>2021-03-14T15:05:28.000Z</time>
      </trkpt>
      <trkpt lat="47.18536" lon="-1.67452">
        <ele>82</ele>
        <time>2021-03-14T15:05:30.000Z</time>
      </trkpt>
      <trkpt lat="47.18529" lon="-1.67438">
        <ele>82</ele>
        <time>2021-03-14T15:05:32.000Z</time>
      </trkpt>
      <trkpt lat="47.18522" lon="-1.67426">
        <ele>82</ele>
        <time>2021-03-14T15:05:34.000Z</time>
      </trkpt>
      <trkpt lat="47.18519" lon="-1.6741">
        <ele>83</ele>
        <time>2021-03-14T15:05:36.000Z</time>
      </trkpt>
      <trkpt lat="47.1852" lon="-1.67392">
        <ele>82</ele>
        <time>2021-03-14T15:05:38.000Z</time>
      </trkpt>
      <trkpt lat="47.18518" lon="-1.67375">
        <ele>82</ele>
        <time>2021-03-14T15:05:40.000Z</time>
      </trkpt>
      <trkpt lat="47.18515" lon="-1.67357">
        <ele>82</ele>
        <time>2021-03-14T15:05:42.000Z</time>
      </trkpt>
      <trkpt lat="47.18512" lon="-1.6734">
        <ele>82</ele>
        <time>2021-03-14T15:05:44.000Z</time>
      </trkpt>
      <trkpt lat="47.18509" lon="-1.67322">
        <ele>81</ele>
        <time>2021-03-14T15:05:46.000Z</time>
      </trkpt>
      <trkpt lat="47.18507" lon="-1.67304">
        <ele>82</ele>
        <time>2021-03-14T15:05:48.000Z</time>
      </trkpt>
      <trkpt lat="47.18503" lon="-1.67286">
        <ele>81</ele>
        <time>2021-03-14T15:05:50.000Z</time>
      </trkpt>
      <trkpt lat="47.185" lon="-1.67268">
        <ele>82</ele>
        <time>2021-03-14T15:05:52.000Z</time>
      </trkpt>
      <trkpt lat="47.18497" lon="-1.67249">
        <ele>82</ele>
        <time>2021-03-14T15:05:54.000Z</time>
      </trkpt>
      <trkpt lat="47.18494" lon="-1.67231">
        <ele>82</ele>
        <time>2021-03-14T15:05:56.000Z</time>
      </trkpt>
      <trkpt lat="47.1849" lon="-1.67212">
        <ele>82</ele>
        <time>2021-03-14T15:05:58.000Z</time>
      </trkpt>
      <trkpt lat="47.18487" lon="-1.67192">
        <ele>82</ele>
        <time>2021-03-14T15:06:00.000Z</time>
      </trkpt>
      <trkpt lat="47.18483" lon="-1.67173">
        <ele>81</ele>
        <time>2021-03-14T15:06:02.000Z</time>
      </trkpt>
      <trkpt lat="47.18479" lon="-1.67152">
        <ele>81</ele>
        <time>2021-03-14T15:06:04.000Z</time>
      </trkpt>
      <trkpt lat="47.18476" lon="-1.67132">
        <ele>81</ele>
        <time>2021-03-14T15:06:06.000Z</time>
      </trkpt>
      <trkpt lat="47.18472" lon="-1.67111">
        <ele>80</ele>
        <time>2021-03-14T15:06:08.000Z</time>
      </trkpt>
      <trkpt lat="47.18469" lon="-1.67088">
        <ele>80</ele>
        <time>2021-03-14T15:06:10.000Z</time>
      </trkpt>
      <trkpt lat="47.18465" lon="-1.67066">
        <ele>79</ele>
        <time>2021-03-14T15:06:12.000Z</time>
      </trkpt>
      <trkpt lat="47.18461" lon="-1.67044">
        <ele>79</ele>
        <time>2021-03-14T15:06:14.000Z</time>
      </trkpt>
      <trkpt lat="47.18457" lon="-1.67021">
        <ele>78</ele>
        <time>2021-03-14T15:06:16.000Z</time>
      </trkpt>
      <trkpt lat="47.18453" lon="-1.66998">
        <ele>78</ele>
        <time>2021-03-14T15:06:18.000Z</time>
      </trkpt>
      <trkpt lat="47.18446" lon="-1.66979">
        <ele>77</ele>
        <time>2021-03-14T15:06:20.000Z</time>
      </trkpt>
      <trkpt lat="47.18441" lon="-1.66959">
        <ele>77</ele>
        <time>2021-03-14T15:06:22.000Z</time>
      </trkpt>
      <trkpt lat="47.1844" lon="-1.66937">
        <ele>77</ele>
        <time>2021-03-14T15:06:24.000Z</time>
      </trkpt>
      <trkpt lat="47.1844" lon="-1.66918">
        <ele>78</ele>
        <time>2021-03-14T15:06:26.000Z</time>
      </trkpt>
      <trkpt lat="47.18438" lon="-1.66899">
        <ele>78</ele>
        <time>2021-03-14T15:06:28.000Z</time>
      </trkpt>
      <trkpt lat="47.18434" lon="-1.6688">
        <ele>78</ele>
        <time>2021-03-14T15:06:30.000Z</time>
      </trkpt>
      <trkpt lat="47.18432" lon="-1.66862">
        <ele>78</ele>
        <time>2021-03-14T15:06:32.000Z</time>
      </trkpt>
      <trkpt lat="47.18428" lon="-1.66844">
        <ele>79</ele>
        <time>2021-03-14T15:06:34.000Z</time>
      </trkpt>
      <trkpt lat="47.18425" lon="-1.66826">
        <ele>79</ele>
        <time>2021-03-14T15:06:36.000Z</time>
      </trkpt>
      <trkpt lat="47.18422" lon="-1.66808">
        <ele>79</ele>
        <time>2021-03-14T15:06:38.000Z</time>
      </trkpt>
      <trkpt lat="47.18418" lon="-1.6679">
        <ele>79</ele>
        <time>2021-03-14T15:06:40.000Z</time>
      </trkpt>
      <trkpt lat="47.18416" lon="-1.66772">
        <ele>80</ele>
        <time>2021-03-14T15:06:42.000Z</time>
      </trkpt>
      <trkpt lat="47.18413" lon="-1.66756">
        <ele>80</ele>
        <time>2021-03-14T15:06:44.000Z</time>
      </trkpt>
      <trkpt lat="47.1841" lon="-1.66739">
        <ele>81</ele>
        <time>2021-03-14T15:06:46.000Z</time>
      </trkpt>
      <trkpt lat="47.18407" lon="-1.66723">
        <ele>81</ele>
        <time>2021-03-14T15:06:48.000Z</time>
      </trkpt>
      <trkpt lat="47.18404" lon="-1.66706">
        <ele>82</ele>
        <time>2021-03-14T15:06:50.000Z</time>
      </trkpt>
      <trkpt lat="47.18402" lon="-1.66691">
        <ele>83</ele>
        <time>2021-03-14T15:06:52.000Z</time>
      </trkpt>
      <trkpt lat="47.18399" lon="-1.66675">
        <ele>83</ele>
        <time>2021-03-14T15:06:54.000Z</time>
      </trkpt>
      <trkpt lat="47.18397" lon="-1.66659">
        <ele>83</ele>
        <time>2021-03-14T15:06:56.000Z</time>
      </trkpt>
      <trkpt lat="47.18394" lon="-1.66643">
        <ele>83</ele>
        <time>2021-03-14T15:06:58.000Z</time>
      </trkpt>
      <trkpt lat="47.18391" lon="-1.66626">
        <ele>84</ele>
        <time>2021-03-14T15:07:00.000Z</time>
      </trkpt>
      <trkpt lat="47.18389" lon="-1.6661">
        <ele>84</ele>
        <time>2021-03-14T15:07:02.000Z</time>
      </trkpt>
      <trkpt lat="47.18388" lon="-1.66592">
        <ele>85</ele>
        <time>2021-03-14T15:07:04.000Z</time>
      </trkpt>
      <trkpt lat="47.18386" lon="-1.66575">
        <ele>84</ele>
        <time>2021-03-14T15:07:06.000Z</time>
      </trkpt>
      <trkpt lat="47.18385" lon="-1.66558">
        <ele>84</ele>
        <time>2021-03-14T15:07:08.000Z</time>
      </trkpt>
      <trkpt lat="47.18384" lon="-1.6654">
        <ele>84</ele>
        <time>2021-03-14T15:07:10.000Z</time>
      </trkpt>
      <trkpt lat="47.18383" lon="-1.66522">
        <ele>84</ele>
        <time>2021-03-14T15:07:12.000Z</time>
      </trkpt>
      <trkpt lat="47.18382" lon="-1.66503">
        <ele>84</ele>
        <time>2021-03-14T15:07:14.000Z</time>
      </trkpt>
      <trkpt lat="47.1838" lon="-1.66484">
        <ele>85</ele>
        <time>2021-03-14T15:07:16.000Z</time>
      </trkpt>
      <trkpt lat="47.18376" lon="-1.66466">
        <ele>84</ele>
        <time>2021-03-14T15:07:18.000Z</time>
      </trkpt>
      <trkpt lat="47.18371" lon="-1.66447">
        <ele>84</ele>
        <time>2021-03-14T15:07:20.000Z</time>
      </trkpt>
      <trkpt lat="47.18365" lon="-1.6643">
        <ele>84</ele>
        <time>2021-03-14T15:07:22.000Z</time>
      </trkpt>
      <trkpt lat="47.18357" lon="-1.66413">
        <ele>84</ele>
        <time>2021-03-14T15:07:24.000Z</time>
      </trkpt>
      <trkpt lat="47.18349" lon="-1.66396">
        <ele>84</ele>
        <time>2021-03-14T15:07:26.000Z</time>
      </trkpt>
      <trkpt lat="47.1834" lon="-1.66378">
        <ele>84</ele>
        <time>2021-03-14T15:07:28.000Z</time>
      </trkpt>
      <trkpt lat="47.18331" lon="-1.66361">
        <ele>84</ele>
        <time>2021-03-14T15:07:30.000Z</time>
      </trkpt>
      <trkpt lat="47.18323" lon="-1.66344">
        <ele>84</ele>
        <time>2021-03-14T15:07:32.000Z</time>
      </trkpt>
      <trkpt lat="47.18315" lon="-1.66326">
        <ele>84</ele>
        <time>2021-03-14T15:07:34.000Z</time>
      </trkpt>
      <trkpt lat="47.18306" lon="-1.66309">
        <ele>83</ele>
        <time>2021-03-14T15:07:36.000Z</time>
      </trkpt>
      <trkpt lat="47.18298" lon="-1.66291">
        <ele>83</ele>
        <time>2021-03-14T15:07:38.000Z</time>
      </trkpt>
      <trkpt lat="47.18289" lon="-1.66273">
        <ele>83</ele>
        <time>2021-03-14T15:07:40.000Z</time>
      </trkpt>
      <trkpt lat="47.18281" lon="-1.66256">
        <ele>83</ele>
        <time>2021-03-14T15:07:42.000Z</time>
      </trkpt>
      <trkpt lat="47.18273" lon="-1.66238">
        <ele>83</ele>
        <time>2021-03-14T15:07:44.000Z</time>
      </trkpt>
      <trkpt lat="47.18265" lon="-1.66222">
        <ele>83</ele>
        <time>2021-03-14T15:07:46.000Z</time>
      </trkpt>
      <trkpt lat="47.18257" lon="-1.66206">
        <ele>83</ele>
        <time>2021-03-14T15:07:48.000Z</time>
      </trkpt>
      <trkpt lat="47.18248" lon="-1.66191">
        <ele>83</ele>
        <time>2021-03-14T15:07:50.000Z</time>
      </trkpt>
      <trkpt lat="47.18239" lon="-1.66176">
        <ele>84</ele>
        <time>2021-03-14T15:07:52.000Z</time>
      </trkpt>
      <trkpt lat="47.1823" lon="-1.66161">
        <ele>84</ele>
        <time>2021-03-14T15:07:54.000Z</time>
      </trkpt>
      <trkpt lat="47.1822" lon="-1.66146">
        <ele>84</ele>
        <time>2021-03-14T15:07:56.000Z</time>
      </trkpt>
      <trkpt lat="47.18211" lon="-1.66131">
        <ele>84</ele>
        <time>2021-03-14T15:07:58.000Z</time>
      </trkpt>
      <trkpt lat="47.18201" lon="-1.66116">
        <ele>85</ele>
        <time>2021-03-14T15:08:00.000Z</time>
      </trkpt>
      <trkpt lat="47.18192" lon="-1.66102">
        <ele>85</ele>
        <time>2021-03-14T15:08:02.000Z</time>
      </trkpt>
      <trkpt lat="47.18182" lon="-1.66087">
        <ele>86</ele>
        <time>2021-03-14T15:08:04.000Z</time>
      </trkpt>
      <trkpt lat="47.18174" lon="-1.66074">
        <ele>86</ele>
        <time>2021-03-14T15:08:06.000Z</time>
      </trkpt>
      <trkpt lat="47.18164" lon="-1.66062">
        <ele>85</ele>
        <time>2021-03-14T15:08:08.000Z</time>
      </trkpt>
      <trkpt lat="47.18155" lon="-1.66048">
        <ele>85</ele>
        <time>2021-03-14T15:08:10.000Z</time>
      </trkpt>
      <trkpt lat="47.18146" lon="-1.66034">
        <ele>86</ele>
        <time>2021-03-14T15:08:12.000Z</time>
      </trkpt>
      <trkpt lat="47.18137" lon="-1.6602">
        <ele>86</ele>
        <time>2021-03-14T15:08:14.000Z</time>
      </trkpt>
      <trkpt lat="47.18129" lon="-1.66007">
        <ele>86</ele>
        <time>2021-03-14T15:08:16.000Z</time>
      </trkpt>
      <trkpt lat="47.1812" lon="-1.65993">
        <ele>86</ele>
        <time>2021-03-14T15:08:18.000Z</time>
      </trkpt>
      <trkpt lat="47.18111" lon="-1.65979">
        <ele>86</ele>
        <time>2021-03-14T15:08:20.000Z</time>
      </trkpt>
      <trkpt lat="47.18102" lon="-1.65965">
        <ele>87</ele>
        <time>2021-03-14T15:08:22.000Z</time>
      </trkpt>
      <trkpt lat="47.18093" lon="-1.65951">
        <ele>87</ele>
        <time>2021-03-14T15:08:24.000Z</time>
      </trkpt>
      <trkpt lat="47.18085" lon="-1.65938">
        <ele>87</ele>
        <time>2021-03-14T15:08:26.000Z</time>
      </trkpt>
      <trkpt lat="47.18076" lon="-1.65925">
        <ele>87</ele>
        <time>2021-03-14T15:08:28.000Z</time>
      </trkpt>
      <trkpt lat="47.18067" lon="-1.65911">
        <ele>87</ele>
        <time>2021-03-14T15:08:30.000Z</time>
      </trkpt>
      <trkpt lat="47.18059" lon="-1.65897">
        <ele>87</ele>
        <time>2021-03-14T15:08:32.000Z</time>
      </trkpt>
      <trkpt lat="47.18051" lon="-1.65883">
        <ele>87</ele>
        <time>2021-03-14T15:08:34.000Z</time>
      </trkpt>
      <trkpt lat="47.18043" lon="-1.65869">
        <ele>87</ele>
        <time>2021-03-14T15:08:36.000Z</time>
      </trkpt>
      <trkpt lat="47.18036" lon="-1.65853">
        <ele>87</ele>
        <time>2021-03-14T15:08:38.000Z</time>
      </trkpt>
      <trkpt lat="47.18029" lon="-1.65837">
        <ele>87</ele>
        <time>2021-03-14T15:08:40.000Z</time>
      </trkpt>
      <trkpt lat="47.18023" lon="-1.6582">
        <ele>86</ele>
        <time>2021-03-14T15:08:42.000Z</time>
      </trkpt>
      <trkpt lat="47.18018" lon="-1.65803">
        <ele>86</ele>
        <time>2021-03-14T15:08:44.000Z</time>
      </trkpt>
      <trkpt lat="47.18012" lon="-1.65786">
        <ele>86</ele>
        <time>2021-03-14T15:08:46.000Z</time>
      </trkpt>
      <trkpt lat="47.18007" lon="-1.65769">
        <ele>86</ele>
        <time>2021-03-14T15:08:48.000Z</time>
      </trkpt>
      <trkpt lat="47.18002" lon="-1.65751">
        <ele>86</ele>
        <time>2021-03-14T15:08:50.000Z</time>
      </trkpt>
      <trkpt lat="47.17997" lon="-1.65734">
        <ele>86</ele>
        <time>2021-03-14T15:08:52.000Z</time>
      </trkpt>
      <trkpt lat="47.17991" lon="-1.65717">
        <ele>86</ele>
        <time>2021-03-14T15:08:54.000Z</time>
      </trkpt>
      <trkpt lat="47.17986" lon="-1.65699">
        <ele>87</ele>
        <time>2021-03-14T15:08:56.000Z</time>
      </trkpt>
      <trkpt lat="47.17981" lon="-1.65682">
        <ele>87</ele>
        <time>2021-03-14T15:08:58.000Z</time>
      </trkpt>
      <trkpt lat="47.17976" lon="-1.65665">
        <ele>87</ele>
        <time>2021-03-14T15:09:00.000Z</time>
      </trkpt>
      <trkpt lat="47.1797" lon="-1.65648">
        <ele>87</ele>
        <time>2021-03-14T15:09:02.000Z</time>
      </trkpt>
      <trkpt lat="47.17965" lon="-1.65631">
        <ele>86</ele>
        <time>2021-03-14T15:09:04.000Z</time>
      </trkpt>
      <trkpt lat="47.1796" lon="-1.65614">
        <ele>86</ele>
        <time>2021-03-14T15:09:06.000Z</time>
      </trkpt>
      <trkpt lat="47.17955" lon="-1.65597">
        <ele>85</ele>
        <time>2021-03-14T15:09:08.000Z</time>
      </trkpt>
      <trkpt lat="47.17949" lon="-1.65579">
        <ele>85</ele>
        <time>2021-03-14T15:09:10.000Z</time>
      </trkpt>
      <trkpt lat="47.17944" lon="-1.65561">
        <ele>84</ele>
        <time>2021-03-14T15:09:12.000Z</time>
      </trkpt>
      <trkpt lat="47.17935" lon="-1.65545">
        <ele>84</ele>
        <time>2021-03-14T15:09:14.000Z</time>
      </trkpt>
      <trkpt lat="47.17931" lon="-1.65526">
        <ele>84</ele>
        <time>2021-03-14T15:09:16.000Z</time>
      </trkpt>
      <trkpt lat="47.17928" lon="-1.65507">
        <ele>84</ele>
        <time>2021-03-14T15:09:18.000Z</time>
      </trkpt>
      <trkpt lat="47.17923" lon="-1.65487">
        <ele>84</ele>
        <time>2021-03-14T15:09:20.000Z</time>
      </trkpt>
      <trkpt lat="47.17916" lon="-1.65467">
        <ele>83</ele>
        <time>2021-03-14T15:09:22.000Z</time>
      </trkpt>
      <trkpt lat="47.17909" lon="-1.65447">
        <ele>82</ele>
        <time>2021-03-14T15:09:24.000Z</time>
      </trkpt>
      <trkpt lat="47.17903" lon="-1.65426">
        <ele>82</ele>
        <time>2021-03-14T15:09:26.000Z</time>
      </trkpt>
      <trkpt lat="47.17897" lon="-1.65406">
        <ele>81</ele>
        <time>2021-03-14T15:09:28.000Z</time>
      </trkpt>
      <trkpt lat="47.17891" lon="-1.65386">
        <ele>81</ele>
        <time>2021-03-14T15:09:30.000Z</time>
      </trkpt>
      <trkpt lat="47.17884" lon="-1.65366">
        <ele>80</ele>
        <time>2021-03-14T15:09:32.000Z</time>
      </trkpt>
      <trkpt lat="47.17877" lon="-1.65345">
        <ele>80</ele>
        <time>2021-03-14T15:09:34.000Z</time>
      </trkpt>
      <trkpt lat="47.17872" lon="-1.65324">
        <ele>79</ele>
        <time>2021-03-14T15:09:36.000Z</time>
      </trkpt>
      <trkpt lat="47.17866" lon="-1.65303">
        <ele>79</ele>
        <time>2021-03-14T15:09:38.000Z</time>
      </trkpt>
      <trkpt lat="47.17862" lon="-1.65281">
        <ele>79</ele>
        <time>2021-03-14T15:09:40.000Z</time>
      </trkpt>
      <trkpt lat="47.17859" lon="-1.65258">
        <ele>79</ele>
        <time>2021-03-14T15:09:42.000Z</time>
      </trkpt>
      <trkpt lat="47.17858" lon="-1.65235">
        <ele>79</ele>
        <time>2021-03-14T15:09:44.000Z</time>
      </trkpt>
      <trkpt lat="47.17856" lon="-1.65213">
        <ele>79</ele>
        <time>2021-03-14T15:09:46.000Z</time>
      </trkpt>
      <trkpt lat="47.17856" lon="-1.65192">
        <ele>79</ele>
        <time>2021-03-14T15:09:48.000Z</time>
      </trkpt>
      <trkpt lat="47.17855" lon="-1.65171">
        <ele>79</ele>
        <time>2021-03-14T15:09:50.000Z</time>
      </trkpt>
      <trkpt lat="47.17853" lon="-1.65149">
        <ele>79</ele>
        <time>2021-03-14T15:09:52.000Z</time>
      </trkpt>
      <trkpt lat="47.17852" lon="-1.65128">
        <ele>79</ele>
        <time>2021-03-14T15:09:54.000Z</time>
      </trkpt>
      <trkpt lat="47.17851" lon="-1.65106">
        <ele>79</ele>
        <time>2021-03-14T15:09:56.000Z</time>
      </trkpt>
      <trkpt lat="47.17849" lon="-1.65083">
        <ele>79</ele>
        <time>2021-03-14T15:09:58.000Z</time>
      </trkpt>
      <trkpt lat="47.17848" lon="-1.65061">
        <ele>80</ele>
        <time>2021-03-14T15:10:00.000Z</time>
      </trkpt>
      <trkpt lat="47.17847" lon="-1.6504">
        <ele>80</ele>
        <time>2021-03-14T15:10:02.000Z</time>
      </trkpt>
      <trkpt lat="47.17846" lon="-1.65019">
        <ele>80</ele>
        <time>2021-03-14T15:10:04.000Z</time>
      </trkpt>
      <trkpt lat="47.17844" lon="-1.64999">
        <ele>81</ele>
        <time>2021-03-14T15:10:06.000Z</time>
      </trkpt>
      <trkpt lat="47.17843" lon="-1.64977">
        <ele>80</ele>
        <time>2021-03-14T15:10:08.000Z</time>
      </trkpt>
      <trkpt lat="47.17842" lon="-1.64956">
        <ele>80</ele>
        <time>2021-03-14T15:10:10.000Z</time>
      </trkpt>
      <trkpt lat="47.17841" lon="-1.64936">
        <ele>81</ele>
        <time>2021-03-14T15:10:12.000Z</time>
      </trkpt>
      <trkpt lat="47.1784" lon="-1.64916">
        <ele>81</ele>
        <time>2021-03-14T15:10:14.000Z</time>
      </trkpt>
      <trkpt lat="47.17838" lon="-1.64895">
        <ele>81</ele>
        <time>2021-03-14T15:10:16.000Z</time>
      </trkpt>
      <trkpt lat="47.17837" lon="-1.64875">
        <ele>81</ele>
        <time>2021-03-14T15:10:18.000Z</time>
      </trkpt>
      <trkpt lat="47.17836" lon="-1.64855">
        <ele>81</ele>
        <time>2021-03-14T15:10:20.000Z</time>
      </trkpt>
      <trkpt lat="47.17835" lon="-1.64834">
        <ele>81</ele>
        <time>2021-03-14T15:10:22.000Z</time>
      </trkpt>
      <trkpt lat="47.17833" lon="-1.64813">
        <ele>81</ele>
        <time>2021-03-14T15:10:24.000Z</time>
      </trkpt>
      <trkpt lat="47.1783" lon="-1.64793">
        <ele>81</ele>
        <time>2021-03-14T15:10:26.000Z</time>
      </trkpt>
      <trkpt lat="47.17827" lon="-1.64773">
        <ele>81</ele>
        <time>2021-03-14T15:10:28.000Z</time>
      </trkpt>
      <trkpt lat="47.17823" lon="-1.64752">
        <ele>82</ele>
        <time>2021-03-14T15:10:30.000Z</time>
      </trkpt>
      <trkpt lat="47.1782" lon="-1.64732">
        <ele>82</ele>
        <time>2021-03-14T15:10:32.000Z</time>
      </trkpt>
      <trkpt lat="47.17815" lon="-1.64712">
        <ele>82</ele>
        <time>2021-03-14T15:10:34.000Z</time>
      </trkpt>
      <trkpt lat="47.1781" lon="-1.64691">
        <ele>82</ele>
        <time>2021-03-14T15:10:36.000Z</time>
      </trkpt>
      <trkpt lat="47.17806" lon="-1.64671">
        <ele>82</ele>
        <time>2021-03-14T15:10:38.000Z</time>
      </trkpt>
      <trkpt lat="47.17801" lon="-1.6465">
        <ele>81</ele>
        <time>2021-03-14T15:10:40.000Z</time>
      </trkpt>
      <trkpt lat="47.17797" lon="-1.6463">
        <ele>82</ele>
        <time>2021-03-14T15:10:42.000Z</time>
      </trkpt>
      <trkpt lat="47.17792" lon="-1.64609">
        <ele>81</ele>
        <time>2021-03-14T15:10:44.000Z</time>
      </trkpt>
      <trkpt lat="47.17788" lon="-1.6459">
        <ele>81</ele>
        <time>2021-03-14T15:10:46.000Z</time>
      </trkpt>
      <trkpt lat="47.17784" lon="-1.64569">
        <ele>81</ele>
        <time>2021-03-14T15:10:48.000Z</time>
      </trkpt>
      <trkpt lat="47.17779" lon="-1.64549">
        <ele>81</ele>
        <time>2021-03-14T15:10:50.000Z</time>
      </trkpt>
      <trkpt lat="47.17775" lon="-1.64529">
        <ele>81</ele>
        <time>2021-03-14T15:10:52.000Z</time>
      </trkpt>
      <trkpt lat="47.1777" lon="-1.64509">
        <ele>81</ele>
        <time>2021-03-14T15:10:54.000Z</time>
      </trkpt>
      <trkpt lat="47.17766" lon="-1.64489">
        <ele>80</ele>
        <time>2021-03-14T15:10:56.000Z</time>
      </trkpt>
      <trkpt lat="47.17761" lon="-1.64468">
        <ele>80</ele>
        <time>2021-03-14T15:10:58.000Z</time>
      </trkpt>
      <trkpt lat="47.17756" lon="-1.64448">
        <ele>80</ele>
        <time>2021-03-14T15:11:00.000Z</time>
      </trkpt>
      <trkpt lat="47.17752" lon="-1.64427">
        <ele>80</ele>
        <time>2021-03-14T15:11:02.000Z</time>
      </trkpt>
      <trkpt lat="47.17747" lon="-1.64406">
        <ele>80</ele>
        <time>2021-03-14T15:11:04.000Z</time>
      </trkpt>
      <trkpt lat="47.17742" lon="-1.64385">
        <ele>79</ele>
        <time>2021-03-14T15:11:06.000Z</time>
      </trkpt>
      <trkpt lat="47.17738" lon="-1.64365">
        <ele>79</ele>
        <time>2021-03-14T15:11:08.000Z</time>
      </trkpt>
      <trkpt lat="47.17734" lon="-1.64343">
        <ele>79</ele>
        <time>2021-03-14T15:11:10.000Z</time>
      </trkpt>
      <trkpt lat="47.17729" lon="-1.64322">
        <ele>79</ele>
        <time>2021-03-14T15:11:12.000Z</time>
      </trkpt>
      <trkpt lat="47.17724" lon="-1.64301">
        <ele>79</ele>
        <time>2021-03-14T15:11:14.000Z</time>
      </trkpt>
      <trkpt lat="47.17719" lon="-1.64279">
        <ele>79</ele>
        <time>2021-03-14T15:11:16.000Z</time>
      </trkpt>
      <trkpt lat="47.17714" lon="-1.64256">
        <ele>78</ele>
        <time>2021-03-14T15:11:18.000Z</time>
      </trkpt>
      <trkpt lat="47.17709" lon="-1.64233">
        <ele>78</ele>
        <time>2021-03-14T15:11:20.000Z</time>
      </trkpt>
      <trkpt lat="47.17704" lon="-1.64209">
        <ele>76</ele>
        <time>2021-03-14T15:11:22.000Z</time>
      </trkpt>
      <trkpt lat="47.17698" lon="-1.64185">
        <ele>76</ele>
        <time>2021-03-14T15:11:24.000Z</time>
      </trkpt>
      <trkpt lat="47.17696" lon="-1.64172">
        <ele>75</ele>
        <time>2021-03-14T15:11:25.000Z</time>
      </trkpt>
      <trkpt lat="47.17693" lon="-1.64159">
        <ele>75</ele>
        <time>2021-03-14T15:11:26.000Z</time>
      </trkpt>
      <trkpt lat="47.1769" lon="-1.64146">
        <ele>75</ele>
        <time>2021-03-14T15:11:27.000Z</time>
      </trkpt>
      <trkpt lat="47.17687" lon="-1.64133">
        <ele>74</ele>
        <time>2021-03-14T15:11:28.000Z</time>
      </trkpt>
      <trkpt lat="47.17684" lon="-1.64121">
        <ele>74</ele>
        <time>2021-03-14T15:11:29.000Z</time>
      </trkpt>
      <trkpt lat="47.17681" lon="-1.64107">
        <ele>73</ele>
        <time>2021-03-14T15:11:30.000Z</time>
      </trkpt>
      <trkpt lat="47.17678" lon="-1.64094">
        <ele>73</ele>
        <time>2021-03-14T15:11:31.000Z</time>
      </trkpt>
      <trkpt lat="47.17675" lon="-1.64081">
        <ele>72</ele>
        <time>2021-03-14T15:11:32.000Z</time>
      </trkpt>
      <trkpt lat="47.17672" lon="-1.64067">
        <ele>72</ele>
        <time>2021-03-14T15:11:33.000Z</time>
      </trkpt>
      <trkpt lat="47.17669" lon="-1.64054">
        <ele>71</ele>
        <time>2021-03-14T15:11:34.000Z</time>
      </trkpt>
      <trkpt lat="47.17666" lon="-1.6404">
        <ele>71</ele>
        <time>2021-03-14T15:11:35.000Z</time>
      </trkpt>
      <trkpt lat="47.17663" lon="-1.64027">
        <ele>70</ele>
        <time>2021-03-14T15:11:36.000Z</time>
      </trkpt>
      <trkpt lat="47.1766" lon="-1.64013">
        <ele>70</ele>
        <time>2021-03-14T15:11:37.000Z</time>
      </trkpt>
      <trkpt lat="47.17658" lon="-1.63998">
        <ele>70</ele>
        <time>2021-03-14T15:11:38.000Z</time>
      </trkpt>
      <trkpt lat="47.17656" lon="-1.63983">
        <ele>69</ele>
        <time>2021-03-14T15:11:39.000Z</time>
      </trkpt>
      <trkpt lat="47.17655" lon="-1.63967">
        <ele>69</ele>
        <time>2021-03-14T15:11:40.000Z</time>
      </trkpt>
      <trkpt lat="47.17655" lon="-1.63951">
        <ele>69</ele>
        <time>2021-03-14T15:11:41.000Z</time>
      </trkpt>
      <trkpt lat="47.17655" lon="-1.63936">
        <ele>68</ele>
        <time>2021-03-14T15:11:42.000Z</time>
      </trkpt>
      <trkpt lat="47.17656" lon="-1.63921">
        <ele>67</ele>
        <time>2021-03-14T15:11:43.000Z</time>
      </trkpt>
      <trkpt lat="47.17657" lon="-1.63905">
        <ele>67</ele>
        <time>2021-03-14T15:11:44.000Z</time>
      </trkpt>
      <trkpt lat="47.17659" lon="-1.6389">
        <ele>67</ele>
        <time>2021-03-14T15:11:45.000Z</time>
      </trkpt>
      <trkpt lat="47.17662" lon="-1.63875">
        <ele>66</ele>
        <time>2021-03-14T15:11:46.000Z</time>
      </trkpt>
      <trkpt lat="47.17665" lon="-1.6386">
        <ele>65</ele>
        <time>2021-03-14T15:11:47.000Z</time>
      </trkpt>
      <trkpt lat="47.17668" lon="-1.63845">
        <ele>65</ele>
        <time>2021-03-14T15:11:48.000Z</time>
      </trkpt>
      <trkpt lat="47.17673" lon="-1.63831">
        <ele>65</ele>
        <time>2021-03-14T15:11:49.000Z</time>
      </trkpt>
      <trkpt lat="47.17678" lon="-1.63818">
        <ele>64</ele>
        <time>2021-03-14T15:11:50.000Z</time>
      </trkpt>
      <trkpt lat="47.17684" lon="-1.63804">
        <ele>63</ele>
        <time>2021-03-14T15:11:51.000Z</time>
      </trkpt>
      <trkpt lat="47.1769" lon="-1.63791">
        <ele>62</ele>
        <time>2021-03-14T15:11:52.000Z</time>
      </trkpt>
      <trkpt lat="47.17697" lon="-1.63779">
        <ele>61</ele>
        <time>2021-03-14T15:11:53.000Z</time>
      </trkpt>
      <trkpt lat="47.17704" lon="-1.63766">
        <ele>61</ele>
        <time>2021-03-14T15:11:54.000Z</time>
      </trkpt>
      <trkpt lat="47.17711" lon="-1.63754">
        <ele>60</ele>
        <time>2021-03-14T15:11:55.000Z</time>
      </trkpt>
      <trkpt lat="47.17718" lon="-1.63742">
        <ele>59</ele>
        <time>2021-03-14T15:11:56.000Z</time>
      </trkpt>
      <trkpt lat="47.17726" lon="-1.6373">
        <ele>59</ele>
        <time>2021-03-14T15:11:57.000Z</time>
      </trkpt>
      <trkpt lat="47.17734" lon="-1.63719">
        <ele>58</ele>
        <time>2021-03-14T15:11:58.000Z</time>
      </trkpt>
      <trkpt lat="47.17742" lon="-1.63708">
        <ele>58</ele>
        <time>2021-03-14T15:11:59.000Z</time>
      </trkpt>
      <trkpt lat="47.17749" lon="-1.63696">
        <ele>57</ele>
        <time>2021-03-14T15:12:00.000Z</time>
      </trkpt>
      <trkpt lat="47.17756" lon="-1.63683">
        <ele>57</ele>
        <time>2021-03-14T15:12:01.000Z</time>
      </trkpt>
      <trkpt lat="47.17762" lon="-1.6367">
        <ele>57</ele>
        <time>2021-03-14T15:12:02.000Z</time>
      </trkpt>
      <trkpt lat="47.17766" lon="-1.63656">
        <ele>56</ele>
        <time>2021-03-14T15:12:03.000Z</time>
      </trkpt>
      <trkpt lat="47.1777" lon="-1.63641">
        <ele>56</ele>
        <time>2021-03-14T15:12:04.000Z</time>
      </trkpt>
      <trkpt lat="47.17775" lon="-1.63627">
        <ele>55</ele>
        <time>2021-03-14T15:12:05.000Z</time>
      </trkpt>
      <trkpt lat="47.17782" lon="-1.63616">
        <ele>55</ele>
        <time>2021-03-14T15:12:06.000Z</time>
      </trkpt>
      <trkpt lat="47.17788" lon="-1.63604">
        <ele>54</ele>
        <time>2021-03-14T15:12:07.000Z</time>
      </trkpt>
      <trkpt lat="47.17794" lon="-1.63591">
        <ele>55</ele>
        <time>2021-03-14T15:12:08.000Z</time>
      </trkpt>
      <trkpt lat="47.17798" lon="-1.63579">
        <ele>55</ele>
        <time>2021-03-14T15:12:09.000Z</time>
      </trkpt>
      <trkpt lat="47.17801" lon="-1.63565">
        <ele>55</ele>
        <time>2021-03-14T15:12:10.000Z</time>
      </trkpt>
      <trkpt lat="47.17804" lon="-1.63552">
        <ele>55</ele>
        <time>2021-03-14T15:12:11.000Z</time>
      </trkpt>
      <trkpt lat="47.17809" lon="-1.63528">
        <ele>55</ele>
        <time>2021-03-14T15:12:13.000Z</time>
      </trkpt>
      <trkpt lat="47.17813" lon="-1.63505">
        <ele>55</ele>
        <time>2021-03-14T15:12:15.000Z</time>
      </trkpt>
      <trkpt lat="47.17817" lon="-1.63481">
        <ele>55</ele>
        <time>2021-03-14T15:12:17.000Z</time>
      </trkpt>
      <trkpt lat="47.17819" lon="-1.63458">
        <ele>55</ele>
        <time>2021-03-14T15:12:19.000Z</time>
      </trkpt>
      <trkpt lat="47.1782" lon="-1.63435">
        <ele>55</ele>
        <time>2021-03-14T15:12:21.000Z</time>
      </trkpt>
      <trkpt lat="47.17821" lon="-1.63411">
        <ele>55</ele>
        <time>2021-03-14T15:12:23.000Z</time>
      </trkpt>
      <trkpt lat="47.17823" lon="-1.63387">
        <ele>55</ele>
        <time>2021-03-14T15:12:25.000Z</time>
      </trkpt>
      <trkpt lat="47.17825" lon="-1.63363">
        <ele>55</ele>
        <time>2021-03-14T15:12:27.000Z</time>
      </trkpt>
      <trkpt lat="47.17827" lon="-1.6334">
        <ele>54</ele>
        <time>2021-03-14T15:12:29.000Z</time>
      </trkpt>
      <trkpt lat="47.17829" lon="-1.63318">
        <ele>54</ele>
        <time>2021-03-14T15:12:31.000Z</time>
      </trkpt>
      <trkpt lat="47.17831" lon="-1.63295">
        <ele>55</ele>
        <time>2021-03-14T15:12:33.000Z</time>
      </trkpt>
      <trkpt lat="47.17832" lon="-1.63272">
        <ele>55</ele>
        <time>2021-03-14T15:12:35.000Z</time>
      </trkpt>
      <trkpt lat="47.17833" lon="-1.63249">
        <ele>55</ele>
        <time>2021-03-14T15:12:37.000Z</time>
      </trkpt>
      <trkpt lat="47.17835" lon="-1.63227">
        <ele>55</ele>
        <time>2021-03-14T15:12:39.000Z</time>
      </trkpt>
      <trkpt lat="47.17837" lon="-1.63205">
        <ele>55</ele>
        <time>2021-03-14T15:12:41.000Z</time>
      </trkpt>
      <trkpt lat="47.17839" lon="-1.63182">
        <ele>55</ele>
        <time>2021-03-14T15:12:43.000Z</time>
      </trkpt>
      <trkpt lat="47.17841" lon="-1.6316">
        <ele>55</ele>
        <time>2021-03-14T15:12:45.000Z</time>
      </trkpt>
      <trkpt lat="47.17842" lon="-1.63138">
        <ele>55</ele>
        <time>2021-03-14T15:12:47.000Z</time>
      </trkpt>
      <trkpt lat="47.17844" lon="-1.63117">
        <ele>55</ele>
        <time>2021-03-14T15:12:49.000Z</time>
      </trkpt>
      <trkpt lat="47.17845" lon="-1.63097">
        <ele>55</ele>
        <time>2021-03-14T15:12:51.000Z</time>
      </trkpt>
      <trkpt lat="47.17847" lon="-1.63078">
        <ele>55</ele>
        <time>2021-03-14T15:12:53.000Z</time>
      </trkpt>
      <trkpt lat="47.17849" lon="-1.6306">
        <ele>56</ele>
        <time>2021-03-14T15:12:55.000Z</time>
      </trkpt>
      <trkpt lat="47.17849" lon="-1.63042">
        <ele>57</ele>
        <time>2021-03-14T15:12:57.000Z</time>
      </trkpt>
      <trkpt lat="47.17851" lon="-1.63026">
        <ele>58</ele>
        <time>2021-03-14T15:12:59.000Z</time>
      </trkpt>
      <trkpt lat="47.17853" lon="-1.63009">
        <ele>59</ele>
        <time>2021-03-14T15:13:01.000Z</time>
      </trkpt>
      <trkpt lat="47.17854" lon="-1.62992">
        <ele>60</ele>
        <time>2021-03-14T15:13:03.000Z</time>
      </trkpt>
      <trkpt lat="47.17855" lon="-1.62975">
        <ele>60</ele>
        <time>2021-03-14T15:13:05.000Z</time>
      </trkpt>
      <trkpt lat="47.17857" lon="-1.62958">
        <ele>61</ele>
        <time>2021-03-14T15:13:07.000Z</time>
      </trkpt>
      <trkpt lat="47.17858" lon="-1.62941">
        <ele>61</ele>
        <time>2021-03-14T15:13:09.000Z</time>
      </trkpt>
      <trkpt lat="47.17858" lon="-1.62924">
        <ele>62</ele>
        <time>2021-03-14T15:13:11.000Z</time>
      </trkpt>
      <trkpt lat="47.1786" lon="-1.62908">
        <ele>62</ele>
        <time>2021-03-14T15:13:13.000Z</time>
      </trkpt>
      <trkpt lat="47.1786" lon="-1.62893">
        <ele>63</ele>
        <time>2021-03-14T15:13:15.000Z</time>
      </trkpt>
      <trkpt lat="47.17861" lon="-1.62878">
        <ele>64</ele>
        <time>2021-03-14T15:13:17.000Z</time>
      </trkpt>
      <trkpt lat="47.17856" lon="-1.62865">
        <ele>64</ele>
        <time>2021-03-14T15:13:19.000Z</time>
      </trkpt>
      <trkpt lat="47.17849" lon="-1.62851">
        <ele>64</ele>
        <time>2021-03-14T15:13:21.000Z</time>
      </trkpt>
      <trkpt lat="47.17841" lon="-1.62839">
        <ele>64</ele>
        <time>2021-03-14T15:13:23.000Z</time>
      </trkpt>
      <trkpt lat="47.17833" lon="-1.62827">
        <ele>65</ele>
        <time>2021-03-14T15:13:25.000Z</time>
      </trkpt>
      <trkpt lat="47.17824" lon="-1.62815">
        <ele>65</ele>
        <time>2021-03-14T15:13:27.000Z</time>
      </trkpt>
      <trkpt lat="47.17817" lon="-1.62802">
        <ele>65</ele>
        <time>2021-03-14T15:13:29.000Z</time>
      </trkpt>
      <trkpt lat="47.17808" lon="-1.62789">
        <ele>65</ele>
        <time>2021-03-14T15:13:31.000Z</time>
      </trkpt>
      <trkpt lat="47.178" lon="-1.62777">
        <ele>65</ele>
        <time>2021-03-14T15:13:33.000Z</time>
      </trkpt>
      <trkpt lat="47.17791" lon="-1.62765">
        <ele>65</ele>
        <time>2021-03-14T15:13:35.000Z</time>
      </trkpt>
      <trkpt lat="47.17783" lon="-1.62752">
        <ele>65</ele>
        <time>2021-03-14T15:13:37.000Z</time>
      </trkpt>
      <trkpt lat="47.17775" lon="-1.62739">
        <ele>65</ele>
        <time>2021-03-14T15:13:39.000Z</time>
      </trkpt>
      <trkpt lat="47.17767" lon="-1.62726">
        <ele>66</ele>
        <time>2021-03-14T15:13:41.000Z</time>
      </trkpt>
      <trkpt lat="47.17758" lon="-1.62713">
        <ele>66</ele>
        <time>2021-03-14T15:13:43.000Z</time>
      </trkpt>
      <trkpt lat="47.1775" lon="-1.62701">
        <ele>66</ele>
        <time>2021-03-14T15:13:45.000Z</time>
      </trkpt>
      <trkpt lat="47.17741" lon="-1.62688">
        <ele>66</ele>
        <time>2021-03-14T15:13:47.000Z</time>
      </trkpt>
      <trkpt lat="47.17733" lon="-1.62676">
        <ele>66</ele>
        <time>2021-03-14T15:13:49.000Z</time>
      </trkpt>
      <trkpt lat="47.17725" lon="-1.62664">
        <ele>66</ele>
        <time>2021-03-14T15:13:51.000Z</time>
      </trkpt>
      <trkpt lat="47.17717" lon="-1.62651">
        <ele>66</ele>
        <time>2021-03-14T15:13:53.000Z</time>
      </trkpt>
      <trkpt lat="47.17709" lon="-1.62638">
        <ele>66</ele>
        <time>2021-03-14T15:13:55.000Z</time>
      </trkpt>
      <trkpt lat="47.17701" lon="-1.62625">
        <ele>66</ele>
        <time>2021-03-14T15:13:57.000Z</time>
      </trkpt>
      <trkpt lat="47.17691" lon="-1.62614">
        <ele>66</ele>
        <time>2021-03-14T15:13:59.000Z</time>
      </trkpt>
      <trkpt lat="47.17681" lon="-1.62606">
        <ele>66</ele>
        <time>2021-03-14T15:14:01.000Z</time>
      </trkpt>
      <trkpt lat="47.17672" lon="-1.62593">
        <ele>66</ele>
        <time>2021-03-14T15:14:03.000Z</time>
      </trkpt>
      <trkpt lat="47.17666" lon="-1.62577">
        <ele>66</ele>
        <time>2021-03-14T15:14:05.000Z</time>
      </trkpt>
      <trkpt lat="47.17657" lon="-1.62564">
        <ele>66</ele>
        <time>2021-03-14T15:14:07.000Z</time>
      </trkpt>
      <trkpt lat="47.17649" lon="-1.62552">
        <ele>67</ele>
        <time>2021-03-14T15:14:09.000Z</time>
      </trkpt>
      <trkpt lat="47.17641" lon="-1.62539">
        <ele>67</ele>
        <time>2021-03-14T15:14:11.000Z</time>
      </trkpt>
      <trkpt lat="47.17633" lon="-1.62527">
        <ele>67</ele>
        <time>2021-03-14T15:14:13.000Z</time>
      </trkpt>
      <trkpt lat="47.17624" lon="-1.62515">
        <ele>67</ele>
        <time>2021-03-14T15:14:15.000Z</time>
      </trkpt>
      <trkpt lat="47.17616" lon="-1.62502">
        <ele>67</ele>
        <time>2021-03-14T15:14:17.000Z</time>
      </trkpt>
      <trkpt lat="47.17608" lon="-1.6249">
        <ele>67</ele>
        <time>2021-03-14T15:14:19.000Z</time>
      </trkpt>
      <trkpt lat="47.17599" lon="-1.62478">
        <ele>67</ele>
        <time>2021-03-14T15:14:21.000Z</time>
      </trkpt>
      <trkpt lat="47.17591" lon="-1.62466">
        <ele>67</ele>
        <time>2021-03-14T15:14:23.000Z</time>
      </trkpt>
      <trkpt lat="47.17582" lon="-1.62454">
        <ele>68</ele>
        <time>2021-03-14T15:14:25.000Z</time>
      </trkpt>
      <trkpt lat="47.17574" lon="-1.62442">
        <ele>68</ele>
        <time>2021-03-14T15:14:27.000Z</time>
      </trkpt>
      <trkpt lat="47.17566" lon="-1.6243">
        <ele>67</ele>
        <time>2021-03-14T15:14:29.000Z</time>
      </trkpt>
      <trkpt lat="47.17558" lon="-1.62418">
        <ele>67</ele>
        <time>2021-03-14T15:14:31.000Z</time>
      </trkpt>
      <trkpt lat="47.1755" lon="-1.62407">
        <ele>67</ele>
        <time>2021-03-14T15:14:33.000Z</time>
      </trkpt>
      <trkpt lat="47.17541" lon="-1.62399">
        <ele>67</ele>
        <time>2021-03-14T15:14:35.000Z</time>
      </trkpt>
      <trkpt lat="47.1753" lon="-1.62397">
        <ele>67</ele>
        <time>2021-03-14T15:14:37.000Z</time>
      </trkpt>
      <trkpt lat="47.1752" lon="-1.62404">
        <ele>67</ele>
        <time>2021-03-14T15:14:39.000Z</time>
      </trkpt>
      <trkpt lat="47.17509" lon="-1.62409">
        <ele>68</ele>
        <time>2021-03-14T15:14:41.000Z</time>
      </trkpt>
      <trkpt lat="47.17498" lon="-1.62406">
        <ele>67</ele>
        <time>2021-03-14T15:14:43.000Z</time>
      </trkpt>
      <trkpt lat="47.17489" lon="-1.62393">
        <ele>67</ele>
        <time>2021-03-14T15:14:45.000Z</time>
      </trkpt>
      <trkpt lat="47.1748" lon="-1.6238">
        <ele>66</ele>
        <time>2021-03-14T15:14:47.000Z</time>
      </trkpt>
      <trkpt lat="47.17468" lon="-1.62376">
        <ele>65</ele>
        <time>2021-03-14T15:14:49.000Z</time>
      </trkpt>
      <trkpt lat="47.17454" lon="-1.62377">
        <ele>65</ele>
        <time>2021-03-14T15:14:51.000Z</time>
      </trkpt>
      <trkpt lat="47.1744" lon="-1.62378">
        <ele>64</ele>
        <time>2021-03-14T15:14:53.000Z</time>
      </trkpt>
      <trkpt lat="47.17426" lon="-1.62379">
        <ele>63</ele>
        <time>2021-03-14T15:14:55.000Z</time>
      </trkpt>
      <trkpt lat="47.17411" lon="-1.62377">
        <ele>63</ele>
        <time>2021-03-14T15:14:57.000Z</time>
      </trkpt>
      <trkpt lat="47.17397" lon="-1.62376">
        <ele>62</ele>
        <time>2021-03-14T15:14:59.000Z</time>
      </trkpt>
      <trkpt lat="47.17382" lon="-1.62376">
        <ele>62</ele>
        <time>2021-03-14T15:15:01.000Z</time>
      </trkpt>
      <trkpt lat="47.17368" lon="-1.62375">
        <ele>62</ele>
        <time>2021-03-14T15:15:03.000Z</time>
      </trkpt>
      <trkpt lat="47.17355" lon="-1.62376">
        <ele>62</ele>
        <time>2021-03-14T15:15:05.000Z</time>
      </trkpt>
      <trkpt lat="47.17341" lon="-1.62376">
        <ele>63</ele>
        <time>2021-03-14T15:15:07.000Z</time>
      </trkpt>
      <trkpt lat="47.17328" lon="-1.62379">
        <ele>63</ele>
        <time>2021-03-14T15:15:09.000Z</time>
      </trkpt>
      <trkpt lat="47.17315" lon="-1.6238">
        <ele>63</ele>
        <time>2021-03-14T15:15:11.000Z</time>
      </trkpt>
      <trkpt lat="47.17301" lon="-1.62383">
        <ele>63</ele>
        <time>2021-03-14T15:15:13.000Z</time>
      </trkpt>
      <trkpt lat="47.17288" lon="-1.62385">
        <ele>63</ele>
        <time>2021-03-14T15:15:15.000Z</time>
      </trkpt>
      <trkpt lat="47.17274" lon="-1.62388">
        <ele>63</ele>
        <time>2021-03-14T15:15:17.000Z</time>
      </trkpt>
      <trkpt lat="47.17261" lon="-1.62391">
        <ele>63</ele>
        <time>2021-03-14T15:15:19.000Z</time>
      </trkpt>
      <trkpt lat="47.17247" lon="-1.62394">
        <ele>63</ele>
        <time>2021-03-14T15:15:21.000Z</time>
      </trkpt>
      <trkpt lat="47.17234" lon="-1.62396">
        <ele>63</ele>
        <time>2021-03-14T15:15:23.000Z</time>
      </trkpt>
      <trkpt lat="47.17222" lon="-1.62399">
        <ele>63</ele>
        <time>2021-03-14T15:15:25.000Z</time>
      </trkpt>
      <trkpt lat="47.1721" lon="-1.62402">
        <ele>63</ele>
        <time>2021-03-14T15:15:27.000Z</time>
      </trkpt>
      <trkpt lat="47.17198" lon="-1.62404">
        <ele>63</ele>
        <time>2021-03-14T15:15:29.000Z</time>
      </trkpt>
      <trkpt lat="47.17185" lon="-1.62406">
        <ele>63</ele>
        <time>2021-03-14T15:15:31.000Z</time>
      </trkpt>
      <trkpt lat="47.17173" lon="-1.62409">
        <ele>62</ele>
        <time>2021-03-14T15:15:33.000Z</time>
      </trkpt>
      <trkpt lat="47.1716" lon="-1.62411">
        <ele>63</ele>
        <time>2021-03-14T15:15:35.000Z</time>
      </trkpt>
      <trkpt lat="47.17147" lon="-1.62414">
        <ele>62</ele>
        <time>2021-03-14T15:15:37.000Z</time>
      </trkpt>
      <trkpt lat="47.17135" lon="-1.62417">
        <ele>62</ele>
        <time>2021-03-14T15:15:39.000Z</time>
      </trkpt>
      <trkpt lat="47.17122" lon="-1.6242">
        <ele>62</ele>
        <time>2021-03-14T15:15:41.000Z</time>
      </trkpt>
      <trkpt lat="47.1711" lon="-1.62423">
        <ele>62</ele>
        <time>2021-03-14T15:15:43.000Z</time>
      </trkpt>
      <trkpt lat="47.17098" lon="-1.62426">
        <ele>62</ele>
        <time>2021-03-14T15:15:45.000Z</time>
      </trkpt>
      <trkpt lat="47.17086" lon="-1.62432">
        <ele>63</ele>
        <time>2021-03-14T15:15:47.000Z</time>
      </trkpt>
      <trkpt lat="47.17075" lon="-1.62439">
        <ele>63</ele>
        <time>2021-03-14T15:15:49.000Z</time>
      </trkpt>
      <trkpt lat="47.17063" lon="-1.62444">
        <ele>63</ele>
        <time>2021-03-14T15:15:51.000Z</time>
      </trkpt>
      <trkpt lat="47.17052" lon="-1.62451">
        <ele>63</ele>
        <time>2021-03-14T15:15:53.000Z</time>
      </trkpt>
      <trkpt lat="47.17041" lon="-1.62458">
        <ele>63</ele>
        <time>2021-03-14T15:15:55.000Z</time>
      </trkpt>
      <trkpt lat="47.1703" lon="-1.62464">
        <ele>63</ele>
        <time>2021-03-14T15:15:57.000Z</time>
      </trkpt>
      <trkpt lat="47.17019" lon="-1.6247">
        <ele>63</ele>
        <time>2021-03-14T15:15:59.000Z</time>
      </trkpt>
      <trkpt lat="47.17007" lon="-1.62476">
        <ele>64</ele>
        <time>2021-03-14T15:16:01.000Z</time>
      </trkpt>
      <trkpt lat="47.16996" lon="-1.62483">
        <ele>64</ele>
        <time>2021-03-14T15:16:03.000Z</time>
      </trkpt>
      <trkpt lat="47.16986" lon="-1.62488">
        <ele>64</ele>
        <time>2021-03-14T15:16:05.000Z</time>
      </trkpt>
      <trkpt lat="47.16975" lon="-1.62494">
        <ele>64</ele>
        <time>2021-03-14T15:16:07.000Z</time>
      </trkpt>
      <trkpt lat="47.16965" lon="-1.62499">
        <ele>64</ele>
        <time>2021-03-14T15:16:09.000Z</time>
      </trkpt>
      <trkpt lat="47.16954" lon="-1.62502">
        <ele>64</ele>
        <time>2021-03-14T15:16:11.000Z</time>
      </trkpt>
      <trkpt lat="47.16942" lon="-1.62503">
        <ele>64</ele>
        <time>2021-03-14T15:16:13.000Z</time>
      </trkpt>
      <trkpt lat="47.16931" lon="-1.62503">
        <ele>64</ele>
        <time>2021-03-14T15:16:15.000Z</time>
      </trkpt>
      <trkpt lat="47.16919" lon="-1.62503">
        <ele>64</ele>
        <time>2021-03-14T15:16:17.000Z</time>
      </trkpt>
      <trkpt lat="47.16907" lon="-1.62502">
        <ele>64</ele>
        <time>2021-03-14T15:16:19.000Z</time>
      </trkpt>
      <trkpt lat="47.16896" lon="-1.62499">
        <ele>65</ele>
        <time>2021-03-14T15:16:21.000Z</time>
      </trkpt>
      <trkpt lat="47.16885" lon="-1.62496">
        <ele>65</ele>
        <time>2021-03-14T15:16:23.000Z</time>
      </trkpt>
      <trkpt lat="47.16874" lon="-1.62492">
        <ele>65</ele>
        <time>2021-03-14T15:16:25.000Z</time>
      </trkpt>
      <trkpt lat="47.16863" lon="-1.62487">
        <ele>66</ele>
        <time>2021-03-14T15:16:27.000Z</time>
      </trkpt>
      <trkpt lat="47.16852" lon="-1.62483">
        <ele>66</ele>
        <time>2021-03-14T15:16:29.000Z</time>
      </trkpt>
      <trkpt lat="47.16841" lon="-1.6248">
        <ele>66</ele>
        <time>2021-03-14T15:16:31.000Z</time>
      </trkpt>
      <trkpt lat="47.16831" lon="-1.62476">
        <ele>66</ele>
        <time>2021-03-14T15:16:33.000Z</time>
      </trkpt>
      <trkpt lat="47.16822" lon="-1.62472">
        <ele>66</ele>
        <time>2021-03-14T15:16:35.000Z</time>
      </trkpt>
      <trkpt lat="47.16814" lon="-1.62476">
        <ele>66</ele>
        <time>2021-03-14T15:16:38.000Z</time>
      </trkpt>
      <trkpt lat="47.1681" lon="-1.62491">
        <ele>66</ele>
        <time>2021-03-14T15:16:41.000Z</time>
      </trkpt>
      <trkpt lat="47.16806" lon="-1.62508">
        <ele>66</ele>
        <time>2021-03-14T15:16:44.000Z</time>
      </trkpt>
      <trkpt lat="47.16803" lon="-1.62524">
        <ele>67</ele>
        <time>2021-03-14T15:16:47.000Z</time>
      </trkpt>
      <trkpt lat="47.16799" lon="-1.62537">
        <ele>67</ele>
        <time>2021-03-14T15:16:50.000Z</time>
      </trkpt>
      <trkpt lat="47.16809" lon="-1.62546">
        <ele>67</ele>
        <time>2021-03-14T15:16:53.000Z</time>
      </trkpt>
      <trkpt lat="47.16818" lon="-1.62553">
        <ele>67</ele>
        <time>2021-03-14T15:16:55.000Z</time>
      </trkpt>
      <trkpt lat="47.16826" lon="-1.62563">
        <ele>68</ele>
        <time>2021-03-14T15:16:57.000Z</time>
      </trkpt>
      <trkpt lat="47.16832" lon="-1.62575">
        <ele>68</ele>
        <time>2021-03-14T15:16:59.000Z</time>
      </trkpt>
      <trkpt lat="47.16829" lon="-1.62591">
        <ele>68</ele>
        <time>2021-03-14T15:17:01.000Z</time>
      </trkpt>
      <trkpt lat="47.16821" lon="-1.62602">
        <ele>68</ele>
        <time>2021-03-14T15:17:03.000Z</time>
      </trkpt>
      <trkpt lat="47.16813" lon="-1.62613">
        <ele>68</ele>
        <time>2021-03-14T15:17:05.000Z</time>
      </trkpt>
      <trkpt lat="47.16807" lon="-1.62624">
        <ele>68</ele>
        <time>2021-03-14T15:17:07.000Z</time>
      </trkpt>
      <trkpt lat="47.168" lon="-1.62635">
        <ele>68</ele>
        <time>2021-03-14T15:17:09.000Z</time>
      </trkpt>
      <trkpt lat="47.16794" lon="-1.62646">
        <ele>68</ele>
        <time>2021-03-14T15:17:11.000Z</time>
      </trkpt>
      <trkpt lat="47.16787" lon="-1.6266">
        <ele>69</ele>
        <time>2021-03-14T15:17:14.000Z</time>
      </trkpt>
      <trkpt lat="47.16777" lon="-1.62653">
        <ele>69</ele>
        <time>2021-03-14T15:17:18.000Z</time>
      </trkpt>
    </trkseg>
  </trk>
</gpx>